<?xml version="1.0" encoding="UTF-8" standalone="no" ?>
<gpx xmlns="http://www.topografix.com/GPX/1/1" xmlns:xsi="http://www.w3.org/2001/XMLSchema-instance" xsi:schemaLocation="http://www.topografix.com/GPX/1/1 http://www.topografix.com/GPX/1/1/gpx.xsd" version="1.1" creator="VisuGPX - https://www.visugpx.com">
  <metadata>
    <name>Naours</name>
  </metadata>
  <trk>
    <name><![CDATA[Naours_1]]></name>
    <trkseg>
      <trkpt lat="50.03598" lon="2.27262">
        <ele>68.9</ele>
        <time>2022-11-30T13:03:39Z</time>
      </trkpt>
      <trkpt lat="50.03598" lon="2.27263">
        <ele>68.9</ele>
        <time>2022-11-30T13:03:40Z</time>
      </trkpt>
      <trkpt lat="50.03598" lon="2.27263">
        <ele>68.9</ele>
        <time>2022-11-30T13:03:41Z</time>
      </trkpt>
      <trkpt lat="50.03598" lon="2.27263">
        <ele>68.9</ele>
        <time>2022-11-30T13:03:42Z</time>
      </trkpt>
      <trkpt lat="50.03598" lon="2.27263">
        <ele>68.9</ele>
        <time>2022-11-30T13:03:43Z</time>
      </trkpt>
      <trkpt lat="50.03598" lon="2.27263">
        <ele>68.9</ele>
        <time>2022-11-30T13:03:44Z</time>
      </trkpt>
      <trkpt lat="50.03599" lon="2.27264">
        <ele>68.9</ele>
        <time>2022-11-30T13:03:45Z</time>
      </trkpt>
      <trkpt lat="50.03599" lon="2.27264">
        <ele>68.9</ele>
        <time>2022-11-30T13:03:46Z</time>
      </trkpt>
      <trkpt lat="50.03599" lon="2.27264">
        <ele>68.9</ele>
        <time>2022-11-30T13:03:47Z</time>
      </trkpt>
      <trkpt lat="50.03599" lon="2.27264">
        <ele>68.9</ele>
        <time>2022-11-30T13:03:48Z</time>
      </trkpt>
      <trkpt lat="50.03599" lon="2.27264">
        <ele>68.9</ele>
        <time>2022-11-30T13:03:49Z</time>
      </trkpt>
      <trkpt lat="50.03599" lon="2.27264">
        <ele>68.9</ele>
        <time>2022-11-30T13:03:50Z</time>
      </trkpt>
      <trkpt lat="50.03599" lon="2.27265">
        <ele>68.9</ele>
        <time>2022-11-30T13:03:51Z</time>
      </trkpt>
      <trkpt lat="50.03599" lon="2.27265">
        <ele>68.9</ele>
        <time>2022-11-30T13:03:52Z</time>
      </trkpt>
      <trkpt lat="50.036" lon="2.27265">
        <ele>68.9</ele>
        <time>2022-11-30T13:03:53Z</time>
      </trkpt>
      <trkpt lat="50.036" lon="2.27265">
        <ele>68.9</ele>
        <time>2022-11-30T13:03:54Z</time>
      </trkpt>
      <trkpt lat="50.036" lon="2.27265">
        <ele>68.9</ele>
        <time>2022-11-30T13:03:55Z</time>
      </trkpt>
      <trkpt lat="50.036" lon="2.27266">
        <ele>68.9</ele>
        <time>2022-11-30T13:03:56Z</time>
      </trkpt>
      <trkpt lat="50.036" lon="2.27266">
        <ele>68.9</ele>
        <time>2022-11-30T13:03:57Z</time>
      </trkpt>
      <trkpt lat="50.036" lon="2.27266">
        <ele>68.9</ele>
        <time>2022-11-30T13:03:58Z</time>
      </trkpt>
      <trkpt lat="50.036" lon="2.27266">
        <ele>68.9</ele>
        <time>2022-11-30T13:03:59Z</time>
      </trkpt>
      <trkpt lat="50.036" lon="2.27266">
        <ele>68.9</ele>
        <time>2022-11-30T13:04:00Z</time>
      </trkpt>
      <trkpt lat="50.03601" lon="2.27267">
        <ele>68.9</ele>
        <time>2022-11-30T13:04:01Z</time>
      </trkpt>
      <trkpt lat="50.03602" lon="2.27268">
        <ele>68.9</ele>
        <time>2022-11-30T13:04:02Z</time>
      </trkpt>
      <trkpt lat="50.03603" lon="2.27269">
        <ele>68.9</ele>
        <time>2022-11-30T13:04:03Z</time>
      </trkpt>
      <trkpt lat="50.03605" lon="2.27271">
        <ele>68.9</ele>
        <time>2022-11-30T13:04:04Z</time>
      </trkpt>
      <trkpt lat="50.03606" lon="2.27272">
        <ele>68.9</ele>
        <time>2022-11-30T13:04:05Z</time>
      </trkpt>
      <trkpt lat="50.03606" lon="2.27273">
        <ele>68.9</ele>
        <time>2022-11-30T13:04:06Z</time>
      </trkpt>
      <trkpt lat="50.03607" lon="2.27274">
        <ele>68.8</ele>
        <time>2022-11-30T13:04:07Z</time>
      </trkpt>
      <trkpt lat="50.03608" lon="2.27274">
        <ele>68.8</ele>
        <time>2022-11-30T13:04:08Z</time>
      </trkpt>
      <trkpt lat="50.03609" lon="2.27275">
        <ele>68.8</ele>
        <time>2022-11-30T13:04:09Z</time>
      </trkpt>
      <trkpt lat="50.0361" lon="2.27276">
        <ele>68.8</ele>
        <time>2022-11-30T13:04:11Z</time>
      </trkpt>
      <trkpt lat="50.03611" lon="2.27276">
        <ele>68.8</ele>
        <time>2022-11-30T13:04:12Z</time>
      </trkpt>
      <trkpt lat="50.03611" lon="2.27277">
        <ele>68.8</ele>
        <time>2022-11-30T13:04:13Z</time>
      </trkpt>
      <trkpt lat="50.03612" lon="2.27277">
        <ele>68.8</ele>
        <time>2022-11-30T13:04:14Z</time>
      </trkpt>
      <trkpt lat="50.03613" lon="2.27278">
        <ele>68.8</ele>
        <time>2022-11-30T13:04:15Z</time>
      </trkpt>
      <trkpt lat="50.03614" lon="2.27278">
        <ele>68.8</ele>
        <time>2022-11-30T13:04:16Z</time>
      </trkpt>
      <trkpt lat="50.03616" lon="2.27279">
        <ele>68.8</ele>
        <time>2022-11-30T13:04:18Z</time>
      </trkpt>
      <trkpt lat="50.03617" lon="2.27281">
        <ele>68.8</ele>
        <time>2022-11-30T13:04:19Z</time>
      </trkpt>
      <trkpt lat="50.03617" lon="2.27281">
        <ele>68.8</ele>
        <time>2022-11-30T13:04:20Z</time>
      </trkpt>
      <trkpt lat="50.03618" lon="2.27282">
        <ele>68.8</ele>
        <time>2022-11-30T13:04:21Z</time>
      </trkpt>
      <trkpt lat="50.03618" lon="2.27284">
        <ele>68.8</ele>
        <time>2022-11-30T13:04:22Z</time>
      </trkpt>
      <trkpt lat="50.03619" lon="2.27284">
        <ele>68.7</ele>
        <time>2022-11-30T13:04:23Z</time>
      </trkpt>
      <trkpt lat="50.03619" lon="2.27285">
        <ele>68.7</ele>
        <time>2022-11-30T13:04:24Z</time>
      </trkpt>
      <trkpt lat="50.03619" lon="2.27286">
        <ele>68.7</ele>
        <time>2022-11-30T13:04:25Z</time>
      </trkpt>
      <trkpt lat="50.03619" lon="2.27286">
        <ele>68.7</ele>
        <time>2022-11-30T13:04:26Z</time>
      </trkpt>
      <trkpt lat="50.03619" lon="2.27287">
        <ele>68.7</ele>
        <time>2022-11-30T13:04:27Z</time>
      </trkpt>
      <trkpt lat="50.03619" lon="2.27288">
        <ele>68.7</ele>
        <time>2022-11-30T13:04:28Z</time>
      </trkpt>
      <trkpt lat="50.0362" lon="2.2729">
        <ele>68.7</ele>
        <time>2022-11-30T13:04:29Z</time>
      </trkpt>
      <trkpt lat="50.0362" lon="2.27292">
        <ele>68.7</ele>
        <time>2022-11-30T13:04:30Z</time>
      </trkpt>
      <trkpt lat="50.03619" lon="2.27296">
        <ele>68.7</ele>
        <time>2022-11-30T13:04:32Z</time>
      </trkpt>
      <trkpt lat="50.03619" lon="2.27297">
        <ele>68.7</ele>
        <time>2022-11-30T13:04:33Z</time>
      </trkpt>
      <trkpt lat="50.03618" lon="2.27302">
        <ele>68.7</ele>
        <time>2022-11-30T13:04:34Z</time>
      </trkpt>
      <trkpt lat="50.03618" lon="2.27303">
        <ele>68.7</ele>
        <time>2022-11-30T13:04:35Z</time>
      </trkpt>
      <trkpt lat="50.03617" lon="2.27305">
        <ele>68.7</ele>
        <time>2022-11-30T13:04:36Z</time>
      </trkpt>
      <trkpt lat="50.03617" lon="2.27307">
        <ele>68.7</ele>
        <time>2022-11-30T13:04:37Z</time>
      </trkpt>
      <trkpt lat="50.03617" lon="2.2731">
        <ele>68.7</ele>
        <time>2022-11-30T13:04:39Z</time>
      </trkpt>
      <trkpt lat="50.03618" lon="2.27313">
        <ele>68.7</ele>
        <time>2022-11-30T13:04:40Z</time>
      </trkpt>
      <trkpt lat="50.03618" lon="2.27315">
        <ele>68.7</ele>
        <time>2022-11-30T13:04:41Z</time>
      </trkpt>
      <trkpt lat="50.03618" lon="2.27318">
        <ele>68.6</ele>
        <time>2022-11-30T13:04:42Z</time>
      </trkpt>
      <trkpt lat="50.03618" lon="2.27323">
        <ele>68.6</ele>
        <time>2022-11-30T13:04:43Z</time>
      </trkpt>
      <trkpt lat="50.03618" lon="2.27324">
        <ele>68.6</ele>
        <time>2022-11-30T13:04:44Z</time>
      </trkpt>
      <trkpt lat="50.03618" lon="2.27327">
        <ele>68.6</ele>
        <time>2022-11-30T13:04:45Z</time>
      </trkpt>
      <trkpt lat="50.03618" lon="2.27329">
        <ele>68.6</ele>
        <time>2022-11-30T13:04:46Z</time>
      </trkpt>
      <trkpt lat="50.03618" lon="2.27332">
        <ele>68.5</ele>
        <time>2022-11-30T13:04:47Z</time>
      </trkpt>
      <trkpt lat="50.03618" lon="2.27334">
        <ele>68.5</ele>
        <time>2022-11-30T13:04:48Z</time>
      </trkpt>
      <trkpt lat="50.03618" lon="2.27336">
        <ele>68.5</ele>
        <time>2022-11-30T13:04:49Z</time>
      </trkpt>
      <trkpt lat="50.03618" lon="2.27339">
        <ele>68.5</ele>
        <time>2022-11-30T13:04:51Z</time>
      </trkpt>
      <trkpt lat="50.03617" lon="2.2734">
        <ele>68.5</ele>
        <time>2022-11-30T13:04:52Z</time>
      </trkpt>
      <trkpt lat="50.03617" lon="2.27342">
        <ele>68.5</ele>
        <time>2022-11-30T13:04:53Z</time>
      </trkpt>
      <trkpt lat="50.03617" lon="2.27343">
        <ele>68.4</ele>
        <time>2022-11-30T13:04:54Z</time>
      </trkpt>
      <trkpt lat="50.03617" lon="2.27345">
        <ele>68.4</ele>
        <time>2022-11-30T13:04:55Z</time>
      </trkpt>
      <trkpt lat="50.03617" lon="2.27347">
        <ele>68.4</ele>
        <time>2022-11-30T13:04:56Z</time>
      </trkpt>
      <trkpt lat="50.03617" lon="2.27348">
        <ele>68.4</ele>
        <time>2022-11-30T13:04:57Z</time>
      </trkpt>
      <trkpt lat="50.03616" lon="2.2735">
        <ele>68.4</ele>
        <time>2022-11-30T13:04:58Z</time>
      </trkpt>
      <trkpt lat="50.03616" lon="2.27351">
        <ele>68.4</ele>
        <time>2022-11-30T13:04:59Z</time>
      </trkpt>
      <trkpt lat="50.03616" lon="2.27352">
        <ele>68.4</ele>
        <time>2022-11-30T13:05:00Z</time>
      </trkpt>
      <trkpt lat="50.03616" lon="2.27354">
        <ele>68.4</ele>
        <time>2022-11-30T13:05:02Z</time>
      </trkpt>
      <trkpt lat="50.03615" lon="2.27355">
        <ele>68.4</ele>
        <time>2022-11-30T13:05:03Z</time>
      </trkpt>
      <trkpt lat="50.03615" lon="2.27356">
        <ele>68.4</ele>
        <time>2022-11-30T13:05:04Z</time>
      </trkpt>
      <trkpt lat="50.03615" lon="2.27357">
        <ele>68.4</ele>
        <time>2022-11-30T13:05:05Z</time>
      </trkpt>
      <trkpt lat="50.03615" lon="2.27358">
        <ele>68.4</ele>
        <time>2022-11-30T13:05:06Z</time>
      </trkpt>
      <trkpt lat="50.03615" lon="2.2736">
        <ele>68.3</ele>
        <time>2022-11-30T13:05:07Z</time>
      </trkpt>
      <trkpt lat="50.03614" lon="2.27361">
        <ele>68.3</ele>
        <time>2022-11-30T13:05:08Z</time>
      </trkpt>
      <trkpt lat="50.03614" lon="2.27363">
        <ele>68.3</ele>
        <time>2022-11-30T13:05:09Z</time>
      </trkpt>
      <trkpt lat="50.03614" lon="2.27366">
        <ele>68.3</ele>
        <time>2022-11-30T13:05:10Z</time>
      </trkpt>
      <trkpt lat="50.03613" lon="2.27369">
        <ele>68.3</ele>
        <time>2022-11-30T13:05:11Z</time>
      </trkpt>
      <trkpt lat="50.03613" lon="2.27374">
        <ele>68.3</ele>
        <time>2022-11-30T13:05:13Z</time>
      </trkpt>
      <trkpt lat="50.03613" lon="2.27375">
        <ele>68.3</ele>
        <time>2022-11-30T13:05:14Z</time>
      </trkpt>
      <trkpt lat="50.03613" lon="2.2738">
        <ele>68.3</ele>
        <time>2022-11-30T13:05:15Z</time>
      </trkpt>
      <trkpt lat="50.03612" lon="2.27381">
        <ele>68.3</ele>
        <time>2022-11-30T13:05:16Z</time>
      </trkpt>
      <trkpt lat="50.03612" lon="2.27384">
        <ele>68.3</ele>
        <time>2022-11-30T13:05:17Z</time>
      </trkpt>
      <trkpt lat="50.03612" lon="2.27386">
        <ele>68.3</ele>
        <time>2022-11-30T13:05:18Z</time>
      </trkpt>
      <trkpt lat="50.03612" lon="2.27388">
        <ele>68.3</ele>
        <time>2022-11-30T13:05:19Z</time>
      </trkpt>
      <trkpt lat="50.03612" lon="2.27391">
        <ele>68.3</ele>
        <time>2022-11-30T13:05:20Z</time>
      </trkpt>
      <trkpt lat="50.03611" lon="2.27393">
        <ele>68.3</ele>
        <time>2022-11-30T13:05:21Z</time>
      </trkpt>
      <trkpt lat="50.03611" lon="2.27396">
        <ele>68.3</ele>
        <time>2022-11-30T13:05:22Z</time>
      </trkpt>
      <trkpt lat="50.03611" lon="2.27398">
        <ele>68.3</ele>
        <time>2022-11-30T13:05:23Z</time>
      </trkpt>
      <trkpt lat="50.03611" lon="2.274">
        <ele>68.3</ele>
        <time>2022-11-30T13:05:24Z</time>
      </trkpt>
      <trkpt lat="50.03611" lon="2.27403">
        <ele>68.3</ele>
        <time>2022-11-30T13:05:25Z</time>
      </trkpt>
      <trkpt lat="50.03611" lon="2.27405">
        <ele>68.3</ele>
        <time>2022-11-30T13:05:26Z</time>
      </trkpt>
      <trkpt lat="50.0361" lon="2.27407">
        <ele>68.3</ele>
        <time>2022-11-30T13:05:27Z</time>
      </trkpt>
      <trkpt lat="50.0361" lon="2.27409">
        <ele>68.3</ele>
        <time>2022-11-30T13:05:28Z</time>
      </trkpt>
      <trkpt lat="50.0361" lon="2.27411">
        <ele>68.3</ele>
        <time>2022-11-30T13:05:30Z</time>
      </trkpt>
      <trkpt lat="50.0361" lon="2.27414">
        <ele>68.3</ele>
        <time>2022-11-30T13:05:31Z</time>
      </trkpt>
      <trkpt lat="50.03609" lon="2.27416">
        <ele>68.3</ele>
        <time>2022-11-30T13:05:32Z</time>
      </trkpt>
      <trkpt lat="50.03609" lon="2.27418">
        <ele>68.3</ele>
        <time>2022-11-30T13:05:33Z</time>
      </trkpt>
      <trkpt lat="50.03609" lon="2.27421">
        <ele>68.3</ele>
        <time>2022-11-30T13:05:34Z</time>
      </trkpt>
      <trkpt lat="50.03609" lon="2.27423">
        <ele>68.3</ele>
        <time>2022-11-30T13:05:35Z</time>
      </trkpt>
      <trkpt lat="50.03609" lon="2.27426">
        <ele>68.3</ele>
        <time>2022-11-30T13:05:37Z</time>
      </trkpt>
      <trkpt lat="50.03609" lon="2.27429">
        <ele>68.3</ele>
        <time>2022-11-30T13:05:38Z</time>
      </trkpt>
      <trkpt lat="50.03609" lon="2.27431">
        <ele>68.3</ele>
        <time>2022-11-30T13:05:39Z</time>
      </trkpt>
      <trkpt lat="50.03609" lon="2.27433">
        <ele>68.3</ele>
        <time>2022-11-30T13:05:40Z</time>
      </trkpt>
      <trkpt lat="50.0361" lon="2.27436">
        <ele>68.3</ele>
        <time>2022-11-30T13:05:41Z</time>
      </trkpt>
      <trkpt lat="50.0361" lon="2.27438">
        <ele>68.3</ele>
        <time>2022-11-30T13:05:42Z</time>
      </trkpt>
      <trkpt lat="50.0361" lon="2.27439">
        <ele>68.3</ele>
        <time>2022-11-30T13:05:43Z</time>
      </trkpt>
      <trkpt lat="50.0361" lon="2.27442">
        <ele>68.3</ele>
        <time>2022-11-30T13:05:44Z</time>
      </trkpt>
      <trkpt lat="50.0361" lon="2.27444">
        <ele>68.3</ele>
        <time>2022-11-30T13:05:45Z</time>
      </trkpt>
      <trkpt lat="50.0361" lon="2.27445">
        <ele>68.3</ele>
        <time>2022-11-30T13:05:46Z</time>
      </trkpt>
      <trkpt lat="50.0361" lon="2.27449">
        <ele>68.3</ele>
        <time>2022-11-30T13:05:47Z</time>
      </trkpt>
      <trkpt lat="50.0361" lon="2.27451">
        <ele>68.3</ele>
        <time>2022-11-30T13:05:49Z</time>
      </trkpt>
      <trkpt lat="50.0361" lon="2.27452">
        <ele>68.3</ele>
        <time>2022-11-30T13:05:50Z</time>
      </trkpt>
      <trkpt lat="50.0361" lon="2.27454">
        <ele>68.3</ele>
        <time>2022-11-30T13:05:51Z</time>
      </trkpt>
      <trkpt lat="50.03611" lon="2.27456">
        <ele>68.3</ele>
        <time>2022-11-30T13:05:52Z</time>
      </trkpt>
      <trkpt lat="50.03611" lon="2.27458">
        <ele>68.3</ele>
        <time>2022-11-30T13:05:53Z</time>
      </trkpt>
      <trkpt lat="50.03611" lon="2.2746">
        <ele>68.3</ele>
        <time>2022-11-30T13:05:54Z</time>
      </trkpt>
      <trkpt lat="50.03611" lon="2.27462">
        <ele>68.3</ele>
        <time>2022-11-30T13:05:55Z</time>
      </trkpt>
      <trkpt lat="50.03612" lon="2.27464">
        <ele>68.3</ele>
        <time>2022-11-30T13:05:56Z</time>
      </trkpt>
      <trkpt lat="50.03612" lon="2.27466">
        <ele>68.3</ele>
        <time>2022-11-30T13:05:57Z</time>
      </trkpt>
      <trkpt lat="50.03612" lon="2.27467">
        <ele>68.3</ele>
        <time>2022-11-30T13:05:58Z</time>
      </trkpt>
      <trkpt lat="50.03612" lon="2.27469">
        <ele>68.4</ele>
        <time>2022-11-30T13:05:59Z</time>
      </trkpt>
      <trkpt lat="50.03613" lon="2.27471">
        <ele>68.4</ele>
        <time>2022-11-30T13:06:00Z</time>
      </trkpt>
      <trkpt lat="50.03613" lon="2.27472">
        <ele>68.4</ele>
        <time>2022-11-30T13:06:01Z</time>
      </trkpt>
      <trkpt lat="50.03613" lon="2.27474">
        <ele>68.4</ele>
        <time>2022-11-30T13:06:02Z</time>
      </trkpt>
      <trkpt lat="50.03613" lon="2.27476">
        <ele>68.4</ele>
        <time>2022-11-30T13:06:03Z</time>
      </trkpt>
      <trkpt lat="50.03613" lon="2.27478">
        <ele>68.4</ele>
        <time>2022-11-30T13:06:04Z</time>
      </trkpt>
      <trkpt lat="50.03613" lon="2.2748">
        <ele>68.4</ele>
        <time>2022-11-30T13:06:05Z</time>
      </trkpt>
      <trkpt lat="50.03614" lon="2.27483">
        <ele>68.4</ele>
        <time>2022-11-30T13:06:07Z</time>
      </trkpt>
      <trkpt lat="50.03614" lon="2.27485">
        <ele>68.5</ele>
        <time>2022-11-30T13:06:08Z</time>
      </trkpt>
      <trkpt lat="50.03614" lon="2.27489">
        <ele>68.5</ele>
        <time>2022-11-30T13:06:09Z</time>
      </trkpt>
      <trkpt lat="50.03614" lon="2.2749">
        <ele>68.5</ele>
        <time>2022-11-30T13:06:10Z</time>
      </trkpt>
      <trkpt lat="50.03614" lon="2.27492">
        <ele>68.5</ele>
        <time>2022-11-30T13:06:11Z</time>
      </trkpt>
      <trkpt lat="50.03615" lon="2.27495">
        <ele>68.5</ele>
        <time>2022-11-30T13:06:12Z</time>
      </trkpt>
      <trkpt lat="50.03615" lon="2.27496">
        <ele>68.6</ele>
        <time>2022-11-30T13:06:13Z</time>
      </trkpt>
      <trkpt lat="50.03615" lon="2.27498">
        <ele>68.6</ele>
        <time>2022-11-30T13:06:14Z</time>
      </trkpt>
      <trkpt lat="50.03615" lon="2.275">
        <ele>68.6</ele>
        <time>2022-11-30T13:06:15Z</time>
      </trkpt>
      <trkpt lat="50.03615" lon="2.27502">
        <ele>68.6</ele>
        <time>2022-11-30T13:06:16Z</time>
      </trkpt>
      <trkpt lat="50.03615" lon="2.27503">
        <ele>68.6</ele>
        <time>2022-11-30T13:06:17Z</time>
      </trkpt>
      <trkpt lat="50.03615" lon="2.27507">
        <ele>68.7</ele>
        <time>2022-11-30T13:06:18Z</time>
      </trkpt>
      <trkpt lat="50.03615" lon="2.27508">
        <ele>68.7</ele>
        <time>2022-11-30T13:06:19Z</time>
      </trkpt>
      <trkpt lat="50.03616" lon="2.2751">
        <ele>68.7</ele>
        <time>2022-11-30T13:06:20Z</time>
      </trkpt>
      <trkpt lat="50.03616" lon="2.27511">
        <ele>68.7</ele>
        <time>2022-11-30T13:06:21Z</time>
      </trkpt>
      <trkpt lat="50.03617" lon="2.27513">
        <ele>68.8</ele>
        <time>2022-11-30T13:06:23Z</time>
      </trkpt>
      <trkpt lat="50.03617" lon="2.27514">
        <ele>68.8</ele>
        <time>2022-11-30T13:06:24Z</time>
      </trkpt>
      <trkpt lat="50.03617" lon="2.27516">
        <ele>68.8</ele>
        <time>2022-11-30T13:06:25Z</time>
      </trkpt>
      <trkpt lat="50.03618" lon="2.27517">
        <ele>68.8</ele>
        <time>2022-11-30T13:06:26Z</time>
      </trkpt>
      <trkpt lat="50.03619" lon="2.27519">
        <ele>68.8</ele>
        <time>2022-11-30T13:06:27Z</time>
      </trkpt>
      <trkpt lat="50.03619" lon="2.2752">
        <ele>68.9</ele>
        <time>2022-11-30T13:06:28Z</time>
      </trkpt>
      <trkpt lat="50.0362" lon="2.27521">
        <ele>68.9</ele>
        <time>2022-11-30T13:06:29Z</time>
      </trkpt>
      <trkpt lat="50.0362" lon="2.27523">
        <ele>68.9</ele>
        <time>2022-11-30T13:06:30Z</time>
      </trkpt>
      <trkpt lat="50.0362" lon="2.27526">
        <ele>68.9</ele>
        <time>2022-11-30T13:06:31Z</time>
      </trkpt>
      <trkpt lat="50.0362" lon="2.27527">
        <ele>68.9</ele>
        <time>2022-11-30T13:06:32Z</time>
      </trkpt>
      <trkpt lat="50.0362" lon="2.27529">
        <ele>68.9</ele>
        <time>2022-11-30T13:06:33Z</time>
      </trkpt>
      <trkpt lat="50.0362" lon="2.27532">
        <ele>69</ele>
        <time>2022-11-30T13:06:34Z</time>
      </trkpt>
      <trkpt lat="50.0362" lon="2.27533">
        <ele>69.1</ele>
        <time>2022-11-30T13:06:36Z</time>
      </trkpt>
      <trkpt lat="50.0362" lon="2.27535">
        <ele>69.1</ele>
        <time>2022-11-30T13:06:37Z</time>
      </trkpt>
      <trkpt lat="50.0362" lon="2.27536">
        <ele>69.2</ele>
        <time>2022-11-30T13:06:38Z</time>
      </trkpt>
      <trkpt lat="50.03621" lon="2.27537">
        <ele>69.2</ele>
        <time>2022-11-30T13:06:39Z</time>
      </trkpt>
      <trkpt lat="50.03622" lon="2.27538">
        <ele>69.3</ele>
        <time>2022-11-30T13:06:40Z</time>
      </trkpt>
      <trkpt lat="50.03624" lon="2.27539">
        <ele>69.4</ele>
        <time>2022-11-30T13:06:41Z</time>
      </trkpt>
      <trkpt lat="50.03625" lon="2.27539">
        <ele>69.4</ele>
        <time>2022-11-30T13:06:42Z</time>
      </trkpt>
      <trkpt lat="50.03626" lon="2.2754">
        <ele>69.4</ele>
        <time>2022-11-30T13:06:43Z</time>
      </trkpt>
      <trkpt lat="50.03627" lon="2.2754">
        <ele>69.5</ele>
        <time>2022-11-30T13:06:44Z</time>
      </trkpt>
      <trkpt lat="50.03629" lon="2.27541">
        <ele>69.6</ele>
        <time>2022-11-30T13:06:45Z</time>
      </trkpt>
      <trkpt lat="50.0363" lon="2.27541">
        <ele>69.7</ele>
        <time>2022-11-30T13:06:46Z</time>
      </trkpt>
      <trkpt lat="50.03632" lon="2.27541">
        <ele>69.7</ele>
        <time>2022-11-30T13:06:47Z</time>
      </trkpt>
      <trkpt lat="50.03633" lon="2.27542">
        <ele>69.8</ele>
        <time>2022-11-30T13:06:48Z</time>
      </trkpt>
      <trkpt lat="50.03634" lon="2.27542">
        <ele>69.9</ele>
        <time>2022-11-30T13:06:49Z</time>
      </trkpt>
      <trkpt lat="50.03636" lon="2.27542">
        <ele>69.9</ele>
        <time>2022-11-30T13:06:51Z</time>
      </trkpt>
      <trkpt lat="50.03636" lon="2.27542">
        <ele>70</ele>
        <time>2022-11-30T13:06:52Z</time>
      </trkpt>
      <trkpt lat="50.03637" lon="2.27542">
        <ele>70</ele>
        <time>2022-11-30T13:06:53Z</time>
      </trkpt>
      <trkpt lat="50.03638" lon="2.27543">
        <ele>70.1</ele>
        <time>2022-11-30T13:06:54Z</time>
      </trkpt>
      <trkpt lat="50.03639" lon="2.27543">
        <ele>70.1</ele>
        <time>2022-11-30T13:06:55Z</time>
      </trkpt>
      <trkpt lat="50.03641" lon="2.27543">
        <ele>70.2</ele>
        <time>2022-11-30T13:06:56Z</time>
      </trkpt>
      <trkpt lat="50.03642" lon="2.27543">
        <ele>70.2</ele>
        <time>2022-11-30T13:06:57Z</time>
      </trkpt>
      <trkpt lat="50.03643" lon="2.27544">
        <ele>70.3</ele>
        <time>2022-11-30T13:06:58Z</time>
      </trkpt>
      <trkpt lat="50.03644" lon="2.27543">
        <ele>70.4</ele>
        <time>2022-11-30T13:06:59Z</time>
      </trkpt>
      <trkpt lat="50.03645" lon="2.27543">
        <ele>70.4</ele>
        <time>2022-11-30T13:07:00Z</time>
      </trkpt>
      <trkpt lat="50.03647" lon="2.27543">
        <ele>70.5</ele>
        <time>2022-11-30T13:07:02Z</time>
      </trkpt>
      <trkpt lat="50.03648" lon="2.27543">
        <ele>70.6</ele>
        <time>2022-11-30T13:07:03Z</time>
      </trkpt>
      <trkpt lat="50.03649" lon="2.27543">
        <ele>70.6</ele>
        <time>2022-11-30T13:07:04Z</time>
      </trkpt>
      <trkpt lat="50.03651" lon="2.27542">
        <ele>70.7</ele>
        <time>2022-11-30T13:07:05Z</time>
      </trkpt>
      <trkpt lat="50.03652" lon="2.27542">
        <ele>70.7</ele>
        <time>2022-11-30T13:07:06Z</time>
      </trkpt>
      <trkpt lat="50.03653" lon="2.27542">
        <ele>70.7</ele>
        <time>2022-11-30T13:07:07Z</time>
      </trkpt>
      <trkpt lat="50.03653" lon="2.27541">
        <ele>70.8</ele>
        <time>2022-11-30T13:07:08Z</time>
      </trkpt>
      <trkpt lat="50.03654" lon="2.27541">
        <ele>70.8</ele>
        <time>2022-11-30T13:07:09Z</time>
      </trkpt>
      <trkpt lat="50.03656" lon="2.2754">
        <ele>70.9</ele>
        <time>2022-11-30T13:07:10Z</time>
      </trkpt>
      <trkpt lat="50.03657" lon="2.27539">
        <ele>70.9</ele>
        <time>2022-11-30T13:07:11Z</time>
      </trkpt>
      <trkpt lat="50.03658" lon="2.27539">
        <ele>70.9</ele>
        <time>2022-11-30T13:07:12Z</time>
      </trkpt>
      <trkpt lat="50.03659" lon="2.27538">
        <ele>70.9</ele>
        <time>2022-11-30T13:07:14Z</time>
      </trkpt>
      <trkpt lat="50.03661" lon="2.27537">
        <ele>71</ele>
        <time>2022-11-30T13:07:15Z</time>
      </trkpt>
      <trkpt lat="50.03662" lon="2.27536">
        <ele>71</ele>
        <time>2022-11-30T13:07:16Z</time>
      </trkpt>
      <trkpt lat="50.03663" lon="2.27536">
        <ele>71</ele>
        <time>2022-11-30T13:07:17Z</time>
      </trkpt>
      <trkpt lat="50.03665" lon="2.27535">
        <ele>71</ele>
        <time>2022-11-30T13:07:18Z</time>
      </trkpt>
      <trkpt lat="50.03665" lon="2.27535">
        <ele>71.1</ele>
        <time>2022-11-30T13:07:19Z</time>
      </trkpt>
      <trkpt lat="50.03666" lon="2.27534">
        <ele>71.1</ele>
        <time>2022-11-30T13:07:20Z</time>
      </trkpt>
      <trkpt lat="50.03667" lon="2.27533">
        <ele>71.1</ele>
        <time>2022-11-30T13:07:21Z</time>
      </trkpt>
      <trkpt lat="50.03669" lon="2.27532">
        <ele>71.1</ele>
        <time>2022-11-30T13:07:22Z</time>
      </trkpt>
      <trkpt lat="50.0367" lon="2.27531">
        <ele>71.1</ele>
        <time>2022-11-30T13:07:23Z</time>
      </trkpt>
      <trkpt lat="50.03671" lon="2.2753">
        <ele>71.1</ele>
        <time>2022-11-30T13:07:24Z</time>
      </trkpt>
      <trkpt lat="50.03673" lon="2.27528">
        <ele>71.1</ele>
        <time>2022-11-30T13:07:25Z</time>
      </trkpt>
      <trkpt lat="50.03674" lon="2.27527">
        <ele>71.1</ele>
        <time>2022-11-30T13:07:26Z</time>
      </trkpt>
      <trkpt lat="50.03676" lon="2.27525">
        <ele>71.1</ele>
        <time>2022-11-30T13:07:27Z</time>
      </trkpt>
      <trkpt lat="50.03677" lon="2.27524">
        <ele>71</ele>
        <time>2022-11-30T13:07:29Z</time>
      </trkpt>
      <trkpt lat="50.03678" lon="2.27523">
        <ele>71</ele>
        <time>2022-11-30T13:07:30Z</time>
      </trkpt>
      <trkpt lat="50.03679" lon="2.27522">
        <ele>71</ele>
        <time>2022-11-30T13:07:31Z</time>
      </trkpt>
      <trkpt lat="50.03679" lon="2.27521">
        <ele>71</ele>
        <time>2022-11-30T13:07:32Z</time>
      </trkpt>
      <trkpt lat="50.0368" lon="2.27519">
        <ele>71</ele>
        <time>2022-11-30T13:07:33Z</time>
      </trkpt>
      <trkpt lat="50.03682" lon="2.27518">
        <ele>71</ele>
        <time>2022-11-30T13:07:34Z</time>
      </trkpt>
      <trkpt lat="50.03683" lon="2.27516">
        <ele>70.9</ele>
        <time>2022-11-30T13:07:35Z</time>
      </trkpt>
      <trkpt lat="50.03684" lon="2.27515">
        <ele>70.9</ele>
        <time>2022-11-30T13:07:36Z</time>
      </trkpt>
      <trkpt lat="50.03686" lon="2.27514">
        <ele>70.9</ele>
        <time>2022-11-30T13:07:37Z</time>
      </trkpt>
      <trkpt lat="50.03688" lon="2.27513">
        <ele>70.8</ele>
        <time>2022-11-30T13:07:39Z</time>
      </trkpt>
      <trkpt lat="50.03689" lon="2.27513">
        <ele>70.8</ele>
        <time>2022-11-30T13:07:40Z</time>
      </trkpt>
      <trkpt lat="50.0369" lon="2.27512">
        <ele>70.8</ele>
        <time>2022-11-30T13:07:41Z</time>
      </trkpt>
      <trkpt lat="50.03692" lon="2.27511">
        <ele>70.8</ele>
        <time>2022-11-30T13:07:42Z</time>
      </trkpt>
      <trkpt lat="50.03693" lon="2.27511">
        <ele>70.7</ele>
        <time>2022-11-30T13:07:43Z</time>
      </trkpt>
      <trkpt lat="50.03695" lon="2.2751">
        <ele>70.7</ele>
        <time>2022-11-30T13:07:44Z</time>
      </trkpt>
      <trkpt lat="50.03696" lon="2.27509">
        <ele>70.7</ele>
        <time>2022-11-30T13:07:45Z</time>
      </trkpt>
      <trkpt lat="50.03697" lon="2.27509">
        <ele>70.7</ele>
        <time>2022-11-30T13:07:46Z</time>
      </trkpt>
      <trkpt lat="50.03698" lon="2.27508">
        <ele>70.6</ele>
        <time>2022-11-30T13:07:47Z</time>
      </trkpt>
      <trkpt lat="50.03699" lon="2.27508">
        <ele>70.6</ele>
        <time>2022-11-30T13:07:48Z</time>
      </trkpt>
      <trkpt lat="50.03701" lon="2.27507">
        <ele>70.6</ele>
        <time>2022-11-30T13:07:49Z</time>
      </trkpt>
      <trkpt lat="50.03702" lon="2.27507">
        <ele>70.6</ele>
        <time>2022-11-30T13:07:50Z</time>
      </trkpt>
      <trkpt lat="50.03703" lon="2.27506">
        <ele>70.6</ele>
        <time>2022-11-30T13:07:51Z</time>
      </trkpt>
      <trkpt lat="50.03705" lon="2.27505">
        <ele>70.6</ele>
        <time>2022-11-30T13:07:53Z</time>
      </trkpt>
      <trkpt lat="50.03706" lon="2.27505">
        <ele>70.5</ele>
        <time>2022-11-30T13:07:54Z</time>
      </trkpt>
      <trkpt lat="50.03707" lon="2.27504">
        <ele>70.5</ele>
        <time>2022-11-30T13:07:55Z</time>
      </trkpt>
      <trkpt lat="50.03708" lon="2.27504">
        <ele>70.5</ele>
        <time>2022-11-30T13:07:56Z</time>
      </trkpt>
      <trkpt lat="50.03709" lon="2.27504">
        <ele>70.5</ele>
        <time>2022-11-30T13:07:57Z</time>
      </trkpt>
      <trkpt lat="50.0371" lon="2.27504">
        <ele>70.5</ele>
        <time>2022-11-30T13:07:58Z</time>
      </trkpt>
      <trkpt lat="50.03711" lon="2.27504">
        <ele>70.5</ele>
        <time>2022-11-30T13:07:59Z</time>
      </trkpt>
      <trkpt lat="50.03712" lon="2.27504">
        <ele>70.5</ele>
        <time>2022-11-30T13:08:00Z</time>
      </trkpt>
      <trkpt lat="50.03713" lon="2.27503">
        <ele>70.5</ele>
        <time>2022-11-30T13:08:01Z</time>
      </trkpt>
      <trkpt lat="50.03714" lon="2.27503">
        <ele>70.5</ele>
        <time>2022-11-30T13:08:02Z</time>
      </trkpt>
      <trkpt lat="50.03715" lon="2.27503">
        <ele>70.5</ele>
        <time>2022-11-30T13:08:03Z</time>
      </trkpt>
      <trkpt lat="50.03717" lon="2.27504">
        <ele>70.5</ele>
        <time>2022-11-30T13:08:04Z</time>
      </trkpt>
      <trkpt lat="50.03718" lon="2.27504">
        <ele>70.5</ele>
        <time>2022-11-30T13:08:05Z</time>
      </trkpt>
      <trkpt lat="50.03719" lon="2.27504">
        <ele>70.5</ele>
        <time>2022-11-30T13:08:06Z</time>
      </trkpt>
      <trkpt lat="50.03721" lon="2.27504">
        <ele>70.5</ele>
        <time>2022-11-30T13:08:07Z</time>
      </trkpt>
      <trkpt lat="50.03722" lon="2.27504">
        <ele>70.5</ele>
        <time>2022-11-30T13:08:09Z</time>
      </trkpt>
      <trkpt lat="50.03722" lon="2.27504">
        <ele>70.5</ele>
        <time>2022-11-30T13:08:10Z</time>
      </trkpt>
      <trkpt lat="50.03723" lon="2.27504">
        <ele>70.5</ele>
        <time>2022-11-30T13:08:11Z</time>
      </trkpt>
      <trkpt lat="50.03725" lon="2.27503">
        <ele>70.5</ele>
        <time>2022-11-30T13:08:12Z</time>
      </trkpt>
      <trkpt lat="50.03726" lon="2.27503">
        <ele>70.5</ele>
        <time>2022-11-30T13:08:13Z</time>
      </trkpt>
      <trkpt lat="50.03727" lon="2.27503">
        <ele>70.5</ele>
        <time>2022-11-30T13:08:14Z</time>
      </trkpt>
      <trkpt lat="50.03728" lon="2.27502">
        <ele>70.5</ele>
        <time>2022-11-30T13:08:15Z</time>
      </trkpt>
      <trkpt lat="50.03729" lon="2.27502">
        <ele>70.5</ele>
        <time>2022-11-30T13:08:16Z</time>
      </trkpt>
      <trkpt lat="50.03732" lon="2.27501">
        <ele>70.5</ele>
        <time>2022-11-30T13:08:17Z</time>
      </trkpt>
      <trkpt lat="50.03733" lon="2.27501">
        <ele>70.5</ele>
        <time>2022-11-30T13:08:19Z</time>
      </trkpt>
      <trkpt lat="50.03734" lon="2.27501">
        <ele>70.5</ele>
        <time>2022-11-30T13:08:20Z</time>
      </trkpt>
      <trkpt lat="50.03735" lon="2.27501">
        <ele>70.5</ele>
        <time>2022-11-30T13:08:21Z</time>
      </trkpt>
      <trkpt lat="50.03737" lon="2.27501">
        <ele>70.5</ele>
        <time>2022-11-30T13:08:22Z</time>
      </trkpt>
      <trkpt lat="50.03738" lon="2.27501">
        <ele>70.5</ele>
        <time>2022-11-30T13:08:23Z</time>
      </trkpt>
      <trkpt lat="50.0374" lon="2.27501">
        <ele>70.4</ele>
        <time>2022-11-30T13:08:24Z</time>
      </trkpt>
      <trkpt lat="50.03741" lon="2.275">
        <ele>70.4</ele>
        <time>2022-11-30T13:08:25Z</time>
      </trkpt>
      <trkpt lat="50.03743" lon="2.275">
        <ele>70.4</ele>
        <time>2022-11-30T13:08:27Z</time>
      </trkpt>
      <trkpt lat="50.03745" lon="2.27499">
        <ele>70.4</ele>
        <time>2022-11-30T13:08:28Z</time>
      </trkpt>
      <trkpt lat="50.03746" lon="2.27499">
        <ele>70.4</ele>
        <time>2022-11-30T13:08:29Z</time>
      </trkpt>
      <trkpt lat="50.03747" lon="2.27498">
        <ele>70.4</ele>
        <time>2022-11-30T13:08:30Z</time>
      </trkpt>
      <trkpt lat="50.03749" lon="2.27498">
        <ele>70.4</ele>
        <time>2022-11-30T13:08:31Z</time>
      </trkpt>
      <trkpt lat="50.0375" lon="2.27498">
        <ele>70.4</ele>
        <time>2022-11-30T13:08:32Z</time>
      </trkpt>
      <trkpt lat="50.03751" lon="2.27498">
        <ele>70.3</ele>
        <time>2022-11-30T13:08:33Z</time>
      </trkpt>
      <trkpt lat="50.03752" lon="2.27498">
        <ele>70.3</ele>
        <time>2022-11-30T13:08:34Z</time>
      </trkpt>
      <trkpt lat="50.03754" lon="2.27498">
        <ele>70.3</ele>
        <time>2022-11-30T13:08:35Z</time>
      </trkpt>
      <trkpt lat="50.03755" lon="2.27498">
        <ele>70.3</ele>
        <time>2022-11-30T13:08:36Z</time>
      </trkpt>
      <trkpt lat="50.03757" lon="2.27497">
        <ele>70.3</ele>
        <time>2022-11-30T13:08:38Z</time>
      </trkpt>
      <trkpt lat="50.03758" lon="2.27497">
        <ele>70.3</ele>
        <time>2022-11-30T13:08:39Z</time>
      </trkpt>
      <trkpt lat="50.0376" lon="2.27497">
        <ele>70.3</ele>
        <time>2022-11-30T13:08:40Z</time>
      </trkpt>
      <trkpt lat="50.03761" lon="2.27497">
        <ele>70.3</ele>
        <time>2022-11-30T13:08:41Z</time>
      </trkpt>
      <trkpt lat="50.03762" lon="2.27497">
        <ele>70.3</ele>
        <time>2022-11-30T13:08:42Z</time>
      </trkpt>
      <trkpt lat="50.03763" lon="2.27498">
        <ele>70.3</ele>
        <time>2022-11-30T13:08:43Z</time>
      </trkpt>
      <trkpt lat="50.03764" lon="2.27498">
        <ele>70.3</ele>
        <time>2022-11-30T13:08:44Z</time>
      </trkpt>
      <trkpt lat="50.03766" lon="2.27498">
        <ele>70.3</ele>
        <time>2022-11-30T13:08:45Z</time>
      </trkpt>
      <trkpt lat="50.03767" lon="2.27498">
        <ele>70.3</ele>
        <time>2022-11-30T13:08:46Z</time>
      </trkpt>
      <trkpt lat="50.03769" lon="2.27498">
        <ele>70.3</ele>
        <time>2022-11-30T13:08:47Z</time>
      </trkpt>
      <trkpt lat="50.03769" lon="2.27498">
        <ele>70.3</ele>
        <time>2022-11-30T13:08:48Z</time>
      </trkpt>
      <trkpt lat="50.0377" lon="2.27498">
        <ele>70.3</ele>
        <time>2022-11-30T13:08:49Z</time>
      </trkpt>
      <trkpt lat="50.03773" lon="2.27498">
        <ele>70.3</ele>
        <time>2022-11-30T13:08:51Z</time>
      </trkpt>
      <trkpt lat="50.03773" lon="2.27498">
        <ele>70.3</ele>
        <time>2022-11-30T13:08:52Z</time>
      </trkpt>
      <trkpt lat="50.03774" lon="2.27498">
        <ele>70.3</ele>
        <time>2022-11-30T13:08:53Z</time>
      </trkpt>
      <trkpt lat="50.03776" lon="2.27498">
        <ele>70.3</ele>
        <time>2022-11-30T13:08:54Z</time>
      </trkpt>
      <trkpt lat="50.03777" lon="2.27499">
        <ele>70.3</ele>
        <time>2022-11-30T13:08:55Z</time>
      </trkpt>
      <trkpt lat="50.03779" lon="2.27499">
        <ele>70.3</ele>
        <time>2022-11-30T13:08:56Z</time>
      </trkpt>
      <trkpt lat="50.0378" lon="2.27499">
        <ele>70.3</ele>
        <time>2022-11-30T13:08:57Z</time>
      </trkpt>
      <trkpt lat="50.03781" lon="2.27499">
        <ele>70.3</ele>
        <time>2022-11-30T13:08:58Z</time>
      </trkpt>
      <trkpt lat="50.03783" lon="2.27499">
        <ele>70.3</ele>
        <time>2022-11-30T13:09:00Z</time>
      </trkpt>
      <trkpt lat="50.03784" lon="2.275">
        <ele>70.3</ele>
        <time>2022-11-30T13:09:01Z</time>
      </trkpt>
      <trkpt lat="50.03786" lon="2.27501">
        <ele>70.3</ele>
        <time>2022-11-30T13:09:02Z</time>
      </trkpt>
      <trkpt lat="50.03786" lon="2.27501">
        <ele>70.4</ele>
        <time>2022-11-30T13:09:03Z</time>
      </trkpt>
      <trkpt lat="50.03787" lon="2.27501">
        <ele>70.4</ele>
        <time>2022-11-30T13:09:04Z</time>
      </trkpt>
      <trkpt lat="50.03788" lon="2.27501">
        <ele>70.4</ele>
        <time>2022-11-30T13:09:05Z</time>
      </trkpt>
      <trkpt lat="50.0379" lon="2.275">
        <ele>70.4</ele>
        <time>2022-11-30T13:09:06Z</time>
      </trkpt>
      <trkpt lat="50.03792" lon="2.275">
        <ele>70.4</ele>
        <time>2022-11-30T13:09:08Z</time>
      </trkpt>
      <trkpt lat="50.03793" lon="2.275">
        <ele>70.4</ele>
        <time>2022-11-30T13:09:09Z</time>
      </trkpt>
      <trkpt lat="50.03794" lon="2.275">
        <ele>70.4</ele>
        <time>2022-11-30T13:09:10Z</time>
      </trkpt>
      <trkpt lat="50.03796" lon="2.275">
        <ele>70.4</ele>
        <time>2022-11-30T13:09:11Z</time>
      </trkpt>
      <trkpt lat="50.03797" lon="2.275">
        <ele>70.5</ele>
        <time>2022-11-30T13:09:12Z</time>
      </trkpt>
      <trkpt lat="50.03799" lon="2.275">
        <ele>70.5</ele>
        <time>2022-11-30T13:09:13Z</time>
      </trkpt>
      <trkpt lat="50.03801" lon="2.275">
        <ele>70.5</ele>
        <time>2022-11-30T13:09:14Z</time>
      </trkpt>
      <trkpt lat="50.03802" lon="2.275">
        <ele>70.5</ele>
        <time>2022-11-30T13:09:15Z</time>
      </trkpt>
      <trkpt lat="50.03802" lon="2.275">
        <ele>70.5</ele>
        <time>2022-11-30T13:09:16Z</time>
      </trkpt>
      <trkpt lat="50.03805" lon="2.275">
        <ele>70.5</ele>
        <time>2022-11-30T13:09:17Z</time>
      </trkpt>
      <trkpt lat="50.03805" lon="2.27499">
        <ele>70.5</ele>
        <time>2022-11-30T13:09:18Z</time>
      </trkpt>
      <trkpt lat="50.03806" lon="2.27499">
        <ele>70.5</ele>
        <time>2022-11-30T13:09:19Z</time>
      </trkpt>
      <trkpt lat="50.03808" lon="2.27499">
        <ele>70.5</ele>
        <time>2022-11-30T13:09:21Z</time>
      </trkpt>
      <trkpt lat="50.03809" lon="2.27499">
        <ele>70.6</ele>
        <time>2022-11-30T13:09:22Z</time>
      </trkpt>
      <trkpt lat="50.03811" lon="2.275">
        <ele>70.6</ele>
        <time>2022-11-30T13:09:23Z</time>
      </trkpt>
      <trkpt lat="50.03812" lon="2.275">
        <ele>70.5</ele>
        <time>2022-11-30T13:09:24Z</time>
      </trkpt>
      <trkpt lat="50.03813" lon="2.27501">
        <ele>70.5</ele>
        <time>2022-11-30T13:09:25Z</time>
      </trkpt>
      <trkpt lat="50.03814" lon="2.27502">
        <ele>70.5</ele>
        <time>2022-11-30T13:09:26Z</time>
      </trkpt>
      <trkpt lat="50.03815" lon="2.27502">
        <ele>70.5</ele>
        <time>2022-11-30T13:09:27Z</time>
      </trkpt>
      <trkpt lat="50.03816" lon="2.27502">
        <ele>70.5</ele>
        <time>2022-11-30T13:09:28Z</time>
      </trkpt>
      <trkpt lat="50.03818" lon="2.27503">
        <ele>70.5</ele>
        <time>2022-11-30T13:09:29Z</time>
      </trkpt>
      <trkpt lat="50.03819" lon="2.27503">
        <ele>70.5</ele>
        <time>2022-11-30T13:09:30Z</time>
      </trkpt>
      <trkpt lat="50.03819" lon="2.27503">
        <ele>70.5</ele>
        <time>2022-11-30T13:09:31Z</time>
      </trkpt>
      <trkpt lat="50.03822" lon="2.27504">
        <ele>70.5</ele>
        <time>2022-11-30T13:09:32Z</time>
      </trkpt>
      <trkpt lat="50.03823" lon="2.27504">
        <ele>70.5</ele>
        <time>2022-11-30T13:09:34Z</time>
      </trkpt>
      <trkpt lat="50.03824" lon="2.27505">
        <ele>70.5</ele>
        <time>2022-11-30T13:09:35Z</time>
      </trkpt>
      <trkpt lat="50.03825" lon="2.27505">
        <ele>70.5</ele>
        <time>2022-11-30T13:09:36Z</time>
      </trkpt>
      <trkpt lat="50.03826" lon="2.27505">
        <ele>70.5</ele>
        <time>2022-11-30T13:09:37Z</time>
      </trkpt>
      <trkpt lat="50.03827" lon="2.27506">
        <ele>70.4</ele>
        <time>2022-11-30T13:09:38Z</time>
      </trkpt>
      <trkpt lat="50.03829" lon="2.27506">
        <ele>70.4</ele>
        <time>2022-11-30T13:09:39Z</time>
      </trkpt>
      <trkpt lat="50.0383" lon="2.27507">
        <ele>70.4</ele>
        <time>2022-11-30T13:09:40Z</time>
      </trkpt>
      <trkpt lat="50.03832" lon="2.27507">
        <ele>70.4</ele>
        <time>2022-11-30T13:09:41Z</time>
      </trkpt>
      <trkpt lat="50.03833" lon="2.27508">
        <ele>70.4</ele>
        <time>2022-11-30T13:09:42Z</time>
      </trkpt>
      <trkpt lat="50.03834" lon="2.27508">
        <ele>70.4</ele>
        <time>2022-11-30T13:09:43Z</time>
      </trkpt>
      <trkpt lat="50.03835" lon="2.27508">
        <ele>70.4</ele>
        <time>2022-11-30T13:09:44Z</time>
      </trkpt>
      <trkpt lat="50.03837" lon="2.27508">
        <ele>70.4</ele>
        <time>2022-11-30T13:09:45Z</time>
      </trkpt>
      <trkpt lat="50.03838" lon="2.27509">
        <ele>70.4</ele>
        <time>2022-11-30T13:09:46Z</time>
      </trkpt>
      <trkpt lat="50.0384" lon="2.27509">
        <ele>70.4</ele>
        <time>2022-11-30T13:09:48Z</time>
      </trkpt>
      <trkpt lat="50.0384" lon="2.27509">
        <ele>70.4</ele>
        <time>2022-11-30T13:09:49Z</time>
      </trkpt>
      <trkpt lat="50.03841" lon="2.27509">
        <ele>70.4</ele>
        <time>2022-11-30T13:09:50Z</time>
      </trkpt>
      <trkpt lat="50.03842" lon="2.27509">
        <ele>70.4</ele>
        <time>2022-11-30T13:09:51Z</time>
      </trkpt>
      <trkpt lat="50.03843" lon="2.2751">
        <ele>70.4</ele>
        <time>2022-11-30T13:09:52Z</time>
      </trkpt>
      <trkpt lat="50.03844" lon="2.2751">
        <ele>70.4</ele>
        <time>2022-11-30T13:09:53Z</time>
      </trkpt>
      <trkpt lat="50.03846" lon="2.2751">
        <ele>70.4</ele>
        <time>2022-11-30T13:09:54Z</time>
      </trkpt>
      <trkpt lat="50.03846" lon="2.27511">
        <ele>70.4</ele>
        <time>2022-11-30T13:09:55Z</time>
      </trkpt>
      <trkpt lat="50.03848" lon="2.27511">
        <ele>70.4</ele>
        <time>2022-11-30T13:09:56Z</time>
      </trkpt>
      <trkpt lat="50.03849" lon="2.27511">
        <ele>70.4</ele>
        <time>2022-11-30T13:09:57Z</time>
      </trkpt>
      <trkpt lat="50.03851" lon="2.27512">
        <ele>70.4</ele>
        <time>2022-11-30T13:09:58Z</time>
      </trkpt>
      <trkpt lat="50.03852" lon="2.27512">
        <ele>70.4</ele>
        <time>2022-11-30T13:09:59Z</time>
      </trkpt>
      <trkpt lat="50.03853" lon="2.27512">
        <ele>70.4</ele>
        <time>2022-11-30T13:10:00Z</time>
      </trkpt>
      <trkpt lat="50.03855" lon="2.27513">
        <ele>70.4</ele>
        <time>2022-11-30T13:10:01Z</time>
      </trkpt>
      <trkpt lat="50.03856" lon="2.27513">
        <ele>70.4</ele>
        <time>2022-11-30T13:10:02Z</time>
      </trkpt>
      <trkpt lat="50.03858" lon="2.27514">
        <ele>70.4</ele>
        <time>2022-11-30T13:10:03Z</time>
      </trkpt>
      <trkpt lat="50.03859" lon="2.27514">
        <ele>70.4</ele>
        <time>2022-11-30T13:10:04Z</time>
      </trkpt>
      <trkpt lat="50.0386" lon="2.27514">
        <ele>70.4</ele>
        <time>2022-11-30T13:10:05Z</time>
      </trkpt>
      <trkpt lat="50.03862" lon="2.27514">
        <ele>70.4</ele>
        <time>2022-11-30T13:10:07Z</time>
      </trkpt>
      <trkpt lat="50.03863" lon="2.27513">
        <ele>70.4</ele>
        <time>2022-11-30T13:10:08Z</time>
      </trkpt>
      <trkpt lat="50.03864" lon="2.27513">
        <ele>70.4</ele>
        <time>2022-11-30T13:10:09Z</time>
      </trkpt>
      <trkpt lat="50.03865" lon="2.27513">
        <ele>70.4</ele>
        <time>2022-11-30T13:10:10Z</time>
      </trkpt>
      <trkpt lat="50.03866" lon="2.27512">
        <ele>70.4</ele>
        <time>2022-11-30T13:10:11Z</time>
      </trkpt>
      <trkpt lat="50.03867" lon="2.27511">
        <ele>70.4</ele>
        <time>2022-11-30T13:10:12Z</time>
      </trkpt>
      <trkpt lat="50.03868" lon="2.2751">
        <ele>70.4</ele>
        <time>2022-11-30T13:10:13Z</time>
      </trkpt>
      <trkpt lat="50.03869" lon="2.27508">
        <ele>70.4</ele>
        <time>2022-11-30T13:10:14Z</time>
      </trkpt>
      <trkpt lat="50.0387" lon="2.27505">
        <ele>70.1</ele>
        <time>2022-11-30T13:10:15Z</time>
      </trkpt>
      <trkpt lat="50.0387" lon="2.27504">
        <ele>70.1</ele>
        <time>2022-11-30T13:10:16Z</time>
      </trkpt>
      <trkpt lat="50.0387" lon="2.27503">
        <ele>70.1</ele>
        <time>2022-11-30T13:10:17Z</time>
      </trkpt>
      <trkpt lat="50.03871" lon="2.27501">
        <ele>70.1</ele>
        <time>2022-11-30T13:10:18Z</time>
      </trkpt>
      <trkpt lat="50.03871" lon="2.27499">
        <ele>70.1</ele>
        <time>2022-11-30T13:10:19Z</time>
      </trkpt>
      <trkpt lat="50.03871" lon="2.27496">
        <ele>70</ele>
        <time>2022-11-30T13:10:20Z</time>
      </trkpt>
      <trkpt lat="50.0387" lon="2.27494">
        <ele>70</ele>
        <time>2022-11-30T13:10:21Z</time>
      </trkpt>
      <trkpt lat="50.0387" lon="2.2749">
        <ele>70</ele>
        <time>2022-11-30T13:10:22Z</time>
      </trkpt>
      <trkpt lat="50.0387" lon="2.27488">
        <ele>70</ele>
        <time>2022-11-30T13:10:24Z</time>
      </trkpt>
      <trkpt lat="50.0387" lon="2.27486">
        <ele>70</ele>
        <time>2022-11-30T13:10:25Z</time>
      </trkpt>
      <trkpt lat="50.0387" lon="2.27485">
        <ele>69.9</ele>
        <time>2022-11-30T13:10:26Z</time>
      </trkpt>
      <trkpt lat="50.0387" lon="2.27483">
        <ele>69.9</ele>
        <time>2022-11-30T13:10:27Z</time>
      </trkpt>
      <trkpt lat="50.0387" lon="2.27481">
        <ele>69.9</ele>
        <time>2022-11-30T13:10:28Z</time>
      </trkpt>
      <trkpt lat="50.0387" lon="2.2748">
        <ele>69.9</ele>
        <time>2022-11-30T13:10:29Z</time>
      </trkpt>
      <trkpt lat="50.0387" lon="2.27478">
        <ele>69.9</ele>
        <time>2022-11-30T13:10:30Z</time>
      </trkpt>
      <trkpt lat="50.0387" lon="2.27474">
        <ele>69.9</ele>
        <time>2022-11-30T13:10:31Z</time>
      </trkpt>
      <trkpt lat="50.0387" lon="2.27473">
        <ele>69.9</ele>
        <time>2022-11-30T13:10:32Z</time>
      </trkpt>
      <trkpt lat="50.0387" lon="2.27472">
        <ele>69.8</ele>
        <time>2022-11-30T13:10:33Z</time>
      </trkpt>
      <trkpt lat="50.03871" lon="2.27468">
        <ele>69.8</ele>
        <time>2022-11-30T13:10:34Z</time>
      </trkpt>
      <trkpt lat="50.03871" lon="2.27467">
        <ele>69.8</ele>
        <time>2022-11-30T13:10:35Z</time>
      </trkpt>
      <trkpt lat="50.03871" lon="2.27465">
        <ele>69.8</ele>
        <time>2022-11-30T13:10:36Z</time>
      </trkpt>
      <trkpt lat="50.03871" lon="2.27462">
        <ele>69.8</ele>
        <time>2022-11-30T13:10:37Z</time>
      </trkpt>
      <trkpt lat="50.03871" lon="2.27461">
        <ele>69.8</ele>
        <time>2022-11-30T13:10:38Z</time>
      </trkpt>
      <trkpt lat="50.03872" lon="2.2746">
        <ele>69.8</ele>
        <time>2022-11-30T13:10:39Z</time>
      </trkpt>
      <trkpt lat="50.03872" lon="2.27458">
        <ele>69.8</ele>
        <time>2022-11-30T13:10:40Z</time>
      </trkpt>
      <trkpt lat="50.03872" lon="2.27456">
        <ele>69.7</ele>
        <time>2022-11-30T13:10:41Z</time>
      </trkpt>
      <trkpt lat="50.03872" lon="2.27454">
        <ele>69.7</ele>
        <time>2022-11-30T13:10:42Z</time>
      </trkpt>
      <trkpt lat="50.03872" lon="2.27452">
        <ele>69.7</ele>
        <time>2022-11-30T13:10:44Z</time>
      </trkpt>
      <trkpt lat="50.03872" lon="2.27451">
        <ele>69.7</ele>
        <time>2022-11-30T13:10:45Z</time>
      </trkpt>
      <trkpt lat="50.03872" lon="2.27449">
        <ele>69.7</ele>
        <time>2022-11-30T13:10:46Z</time>
      </trkpt>
      <trkpt lat="50.03872" lon="2.27447">
        <ele>69.7</ele>
        <time>2022-11-30T13:10:47Z</time>
      </trkpt>
      <trkpt lat="50.03872" lon="2.27444">
        <ele>69.7</ele>
        <time>2022-11-30T13:10:48Z</time>
      </trkpt>
      <trkpt lat="50.03871" lon="2.27442">
        <ele>69.7</ele>
        <time>2022-11-30T13:10:49Z</time>
      </trkpt>
      <trkpt lat="50.03871" lon="2.2744">
        <ele>69.6</ele>
        <time>2022-11-30T13:10:50Z</time>
      </trkpt>
      <trkpt lat="50.0387" lon="2.27437">
        <ele>69.6</ele>
        <time>2022-11-30T13:10:51Z</time>
      </trkpt>
      <trkpt lat="50.0387" lon="2.27436">
        <ele>69.6</ele>
        <time>2022-11-30T13:10:53Z</time>
      </trkpt>
      <trkpt lat="50.03869" lon="2.27434">
        <ele>69.6</ele>
        <time>2022-11-30T13:10:54Z</time>
      </trkpt>
      <trkpt lat="50.03869" lon="2.27431">
        <ele>69.6</ele>
        <time>2022-11-30T13:10:55Z</time>
      </trkpt>
      <trkpt lat="50.03869" lon="2.2743">
        <ele>69.6</ele>
        <time>2022-11-30T13:10:57Z</time>
      </trkpt>
      <trkpt lat="50.03869" lon="2.27428">
        <ele>69.6</ele>
        <time>2022-11-30T13:10:58Z</time>
      </trkpt>
      <trkpt lat="50.03869" lon="2.27426">
        <ele>69.6</ele>
        <time>2022-11-30T13:10:59Z</time>
      </trkpt>
      <trkpt lat="50.03869" lon="2.27424">
        <ele>69.6</ele>
        <time>2022-11-30T13:11:00Z</time>
      </trkpt>
      <trkpt lat="50.03868" lon="2.27421">
        <ele>69.5</ele>
        <time>2022-11-30T13:11:01Z</time>
      </trkpt>
      <trkpt lat="50.03868" lon="2.2742">
        <ele>69.5</ele>
        <time>2022-11-30T13:11:02Z</time>
      </trkpt>
      <trkpt lat="50.03868" lon="2.27418">
        <ele>69.5</ele>
        <time>2022-11-30T13:11:03Z</time>
      </trkpt>
      <trkpt lat="50.03867" lon="2.27417">
        <ele>69.5</ele>
        <time>2022-11-30T13:11:04Z</time>
      </trkpt>
      <trkpt lat="50.03867" lon="2.27416">
        <ele>69.5</ele>
        <time>2022-11-30T13:11:05Z</time>
      </trkpt>
      <trkpt lat="50.03866" lon="2.27414">
        <ele>69.5</ele>
        <time>2022-11-30T13:11:06Z</time>
      </trkpt>
      <trkpt lat="50.03866" lon="2.27413">
        <ele>69.5</ele>
        <time>2022-11-30T13:11:07Z</time>
      </trkpt>
      <trkpt lat="50.03865" lon="2.27411">
        <ele>69.5</ele>
        <time>2022-11-30T13:11:08Z</time>
      </trkpt>
      <trkpt lat="50.03864" lon="2.27409">
        <ele>69.5</ele>
        <time>2022-11-30T13:11:10Z</time>
      </trkpt>
      <trkpt lat="50.03864" lon="2.27407">
        <ele>69.5</ele>
        <time>2022-11-30T13:11:11Z</time>
      </trkpt>
      <trkpt lat="50.03864" lon="2.27405">
        <ele>69.5</ele>
        <time>2022-11-30T13:11:12Z</time>
      </trkpt>
      <trkpt lat="50.03864" lon="2.27404">
        <ele>69.5</ele>
        <time>2022-11-30T13:11:13Z</time>
      </trkpt>
      <trkpt lat="50.03864" lon="2.274">
        <ele>69.5</ele>
        <time>2022-11-30T13:11:14Z</time>
      </trkpt>
      <trkpt lat="50.03864" lon="2.27399">
        <ele>69.5</ele>
        <time>2022-11-30T13:11:15Z</time>
      </trkpt>
      <trkpt lat="50.03864" lon="2.27398">
        <ele>69.5</ele>
        <time>2022-11-30T13:11:16Z</time>
      </trkpt>
      <trkpt lat="50.03863" lon="2.27395">
        <ele>69.5</ele>
        <time>2022-11-30T13:11:17Z</time>
      </trkpt>
      <trkpt lat="50.03863" lon="2.27394">
        <ele>69.4</ele>
        <time>2022-11-30T13:11:19Z</time>
      </trkpt>
      <trkpt lat="50.03863" lon="2.27392">
        <ele>69.4</ele>
        <time>2022-11-30T13:11:20Z</time>
      </trkpt>
      <trkpt lat="50.03863" lon="2.2739">
        <ele>69.4</ele>
        <time>2022-11-30T13:11:21Z</time>
      </trkpt>
      <trkpt lat="50.03863" lon="2.27388">
        <ele>69.4</ele>
        <time>2022-11-30T13:11:22Z</time>
      </trkpt>
      <trkpt lat="50.03863" lon="2.27386">
        <ele>69.4</ele>
        <time>2022-11-30T13:11:23Z</time>
      </trkpt>
      <trkpt lat="50.03863" lon="2.27384">
        <ele>69.4</ele>
        <time>2022-11-30T13:11:24Z</time>
      </trkpt>
      <trkpt lat="50.03862" lon="2.27381">
        <ele>69.4</ele>
        <time>2022-11-30T13:11:26Z</time>
      </trkpt>
      <trkpt lat="50.03862" lon="2.27379">
        <ele>69.4</ele>
        <time>2022-11-30T13:11:27Z</time>
      </trkpt>
      <trkpt lat="50.03861" lon="2.27376">
        <ele>69.4</ele>
        <time>2022-11-30T13:11:28Z</time>
      </trkpt>
      <trkpt lat="50.03861" lon="2.27375">
        <ele>69.4</ele>
        <time>2022-11-30T13:11:29Z</time>
      </trkpt>
      <trkpt lat="50.03861" lon="2.27374">
        <ele>69.4</ele>
        <time>2022-11-30T13:11:30Z</time>
      </trkpt>
      <trkpt lat="50.0386" lon="2.2737">
        <ele>69.4</ele>
        <time>2022-11-30T13:11:31Z</time>
      </trkpt>
      <trkpt lat="50.0386" lon="2.27368">
        <ele>69.4</ele>
        <time>2022-11-30T13:11:33Z</time>
      </trkpt>
      <trkpt lat="50.03859" lon="2.27367">
        <ele>69.4</ele>
        <time>2022-11-30T13:11:34Z</time>
      </trkpt>
      <trkpt lat="50.03859" lon="2.27365">
        <ele>69.4</ele>
        <time>2022-11-30T13:11:35Z</time>
      </trkpt>
      <trkpt lat="50.03859" lon="2.27364">
        <ele>69.4</ele>
        <time>2022-11-30T13:11:36Z</time>
      </trkpt>
      <trkpt lat="50.03858" lon="2.27362">
        <ele>69.4</ele>
        <time>2022-11-30T13:11:37Z</time>
      </trkpt>
      <trkpt lat="50.03858" lon="2.2736">
        <ele>69.4</ele>
        <time>2022-11-30T13:11:38Z</time>
      </trkpt>
      <trkpt lat="50.03857" lon="2.27358">
        <ele>69.4</ele>
        <time>2022-11-30T13:11:39Z</time>
      </trkpt>
      <trkpt lat="50.03857" lon="2.27357">
        <ele>69.4</ele>
        <time>2022-11-30T13:11:40Z</time>
      </trkpt>
      <trkpt lat="50.03857" lon="2.27355">
        <ele>69.4</ele>
        <time>2022-11-30T13:11:41Z</time>
      </trkpt>
      <trkpt lat="50.03856" lon="2.27353">
        <ele>69.4</ele>
        <time>2022-11-30T13:11:42Z</time>
      </trkpt>
      <trkpt lat="50.03856" lon="2.27349">
        <ele>69.4</ele>
        <time>2022-11-30T13:11:43Z</time>
      </trkpt>
      <trkpt lat="50.03855" lon="2.27348">
        <ele>69.4</ele>
        <time>2022-11-30T13:11:45Z</time>
      </trkpt>
      <trkpt lat="50.03855" lon="2.27346">
        <ele>69.4</ele>
        <time>2022-11-30T13:11:46Z</time>
      </trkpt>
      <trkpt lat="50.03854" lon="2.27345">
        <ele>69.4</ele>
        <time>2022-11-30T13:11:47Z</time>
      </trkpt>
      <trkpt lat="50.03854" lon="2.27343">
        <ele>69.4</ele>
        <time>2022-11-30T13:11:48Z</time>
      </trkpt>
      <trkpt lat="50.03854" lon="2.27341">
        <ele>69.4</ele>
        <time>2022-11-30T13:11:49Z</time>
      </trkpt>
      <trkpt lat="50.03853" lon="2.27338">
        <ele>69.4</ele>
        <time>2022-11-30T13:11:50Z</time>
      </trkpt>
      <trkpt lat="50.03853" lon="2.27336">
        <ele>69.4</ele>
        <time>2022-11-30T13:11:51Z</time>
      </trkpt>
      <trkpt lat="50.03852" lon="2.27334">
        <ele>69.4</ele>
        <time>2022-11-30T13:11:52Z</time>
      </trkpt>
      <trkpt lat="50.03851" lon="2.2733">
        <ele>69.4</ele>
        <time>2022-11-30T13:11:53Z</time>
      </trkpt>
      <trkpt lat="50.03851" lon="2.27329">
        <ele>69.4</ele>
        <time>2022-11-30T13:11:55Z</time>
      </trkpt>
      <trkpt lat="50.0385" lon="2.27328">
        <ele>69.5</ele>
        <time>2022-11-30T13:11:56Z</time>
      </trkpt>
      <trkpt lat="50.0385" lon="2.27326">
        <ele>69.5</ele>
        <time>2022-11-30T13:11:57Z</time>
      </trkpt>
      <trkpt lat="50.03849" lon="2.27324">
        <ele>69.5</ele>
        <time>2022-11-30T13:11:58Z</time>
      </trkpt>
      <trkpt lat="50.03849" lon="2.27322">
        <ele>69.5</ele>
        <time>2022-11-30T13:11:59Z</time>
      </trkpt>
      <trkpt lat="50.03848" lon="2.27321">
        <ele>69.5</ele>
        <time>2022-11-30T13:12:00Z</time>
      </trkpt>
      <trkpt lat="50.03848" lon="2.27319">
        <ele>69.5</ele>
        <time>2022-11-30T13:12:01Z</time>
      </trkpt>
      <trkpt lat="50.03847" lon="2.27316">
        <ele>69.5</ele>
        <time>2022-11-30T13:12:02Z</time>
      </trkpt>
      <trkpt lat="50.03846" lon="2.27315">
        <ele>69.5</ele>
        <time>2022-11-30T13:12:03Z</time>
      </trkpt>
      <trkpt lat="50.03846" lon="2.27314">
        <ele>69.5</ele>
        <time>2022-11-30T13:12:04Z</time>
      </trkpt>
      <trkpt lat="50.03845" lon="2.27313">
        <ele>69.5</ele>
        <time>2022-11-30T13:12:05Z</time>
      </trkpt>
      <trkpt lat="50.03845" lon="2.27311">
        <ele>69.5</ele>
        <time>2022-11-30T13:12:06Z</time>
      </trkpt>
      <trkpt lat="50.03844" lon="2.27309">
        <ele>69.5</ele>
        <time>2022-11-30T13:12:07Z</time>
      </trkpt>
      <trkpt lat="50.03844" lon="2.27307">
        <ele>69.5</ele>
        <time>2022-11-30T13:12:08Z</time>
      </trkpt>
      <trkpt lat="50.03843" lon="2.27305">
        <ele>69.5</ele>
        <time>2022-11-30T13:12:09Z</time>
      </trkpt>
      <trkpt lat="50.03843" lon="2.27302">
        <ele>69.6</ele>
        <time>2022-11-30T13:12:11Z</time>
      </trkpt>
      <trkpt lat="50.03842" lon="2.273">
        <ele>69.6</ele>
        <time>2022-11-30T13:12:12Z</time>
      </trkpt>
      <trkpt lat="50.03842" lon="2.27297">
        <ele>69.6</ele>
        <time>2022-11-30T13:12:13Z</time>
      </trkpt>
      <trkpt lat="50.03842" lon="2.27296">
        <ele>69.6</ele>
        <time>2022-11-30T13:12:14Z</time>
      </trkpt>
      <trkpt lat="50.03842" lon="2.27294">
        <ele>69.6</ele>
        <time>2022-11-30T13:12:15Z</time>
      </trkpt>
      <trkpt lat="50.03841" lon="2.27293">
        <ele>69.6</ele>
        <time>2022-11-30T13:12:16Z</time>
      </trkpt>
      <trkpt lat="50.03841" lon="2.2729">
        <ele>69.6</ele>
        <time>2022-11-30T13:12:18Z</time>
      </trkpt>
      <trkpt lat="50.0384" lon="2.27289">
        <ele>69.6</ele>
        <time>2022-11-30T13:12:19Z</time>
      </trkpt>
      <trkpt lat="50.0384" lon="2.27287">
        <ele>69.6</ele>
        <time>2022-11-30T13:12:20Z</time>
      </trkpt>
      <trkpt lat="50.03839" lon="2.27286">
        <ele>69.6</ele>
        <time>2022-11-30T13:12:21Z</time>
      </trkpt>
      <trkpt lat="50.03838" lon="2.27283">
        <ele>69.7</ele>
        <time>2022-11-30T13:12:22Z</time>
      </trkpt>
      <trkpt lat="50.03837" lon="2.27282">
        <ele>69.7</ele>
        <time>2022-11-30T13:12:23Z</time>
      </trkpt>
      <trkpt lat="50.03837" lon="2.27281">
        <ele>69.7</ele>
        <time>2022-11-30T13:12:24Z</time>
      </trkpt>
      <trkpt lat="50.03836" lon="2.27278">
        <ele>69.7</ele>
        <time>2022-11-30T13:12:26Z</time>
      </trkpt>
      <trkpt lat="50.03836" lon="2.27277">
        <ele>69.7</ele>
        <time>2022-11-30T13:12:27Z</time>
      </trkpt>
      <trkpt lat="50.03836" lon="2.27275">
        <ele>69.7</ele>
        <time>2022-11-30T13:12:28Z</time>
      </trkpt>
      <trkpt lat="50.03835" lon="2.27273">
        <ele>69.7</ele>
        <time>2022-11-30T13:12:29Z</time>
      </trkpt>
      <trkpt lat="50.03835" lon="2.27272">
        <ele>69.7</ele>
        <time>2022-11-30T13:12:30Z</time>
      </trkpt>
      <trkpt lat="50.03834" lon="2.2727">
        <ele>69.7</ele>
        <time>2022-11-30T13:12:31Z</time>
      </trkpt>
      <trkpt lat="50.03834" lon="2.27268">
        <ele>69.7</ele>
        <time>2022-11-30T13:12:32Z</time>
      </trkpt>
      <trkpt lat="50.03834" lon="2.27267">
        <ele>69.7</ele>
        <time>2022-11-30T13:12:33Z</time>
      </trkpt>
      <trkpt lat="50.03833" lon="2.27265">
        <ele>69.7</ele>
        <time>2022-11-30T13:12:34Z</time>
      </trkpt>
      <trkpt lat="50.03833" lon="2.27263">
        <ele>69.7</ele>
        <time>2022-11-30T13:12:35Z</time>
      </trkpt>
      <trkpt lat="50.03833" lon="2.2726">
        <ele>69.7</ele>
        <time>2022-11-30T13:12:37Z</time>
      </trkpt>
      <trkpt lat="50.03832" lon="2.27257">
        <ele>69.7</ele>
        <time>2022-11-30T13:12:38Z</time>
      </trkpt>
      <trkpt lat="50.03832" lon="2.27256">
        <ele>69.7</ele>
        <time>2022-11-30T13:12:39Z</time>
      </trkpt>
      <trkpt lat="50.03832" lon="2.27255">
        <ele>69.7</ele>
        <time>2022-11-30T13:12:40Z</time>
      </trkpt>
      <trkpt lat="50.03832" lon="2.27251">
        <ele>69.7</ele>
        <time>2022-11-30T13:12:41Z</time>
      </trkpt>
      <trkpt lat="50.03832" lon="2.2725">
        <ele>69.7</ele>
        <time>2022-11-30T13:12:42Z</time>
      </trkpt>
      <trkpt lat="50.03831" lon="2.27249">
        <ele>69.7</ele>
        <time>2022-11-30T13:12:43Z</time>
      </trkpt>
      <trkpt lat="50.03831" lon="2.27246">
        <ele>69.7</ele>
        <time>2022-11-30T13:12:44Z</time>
      </trkpt>
      <trkpt lat="50.03831" lon="2.27244">
        <ele>69.7</ele>
        <time>2022-11-30T13:12:45Z</time>
      </trkpt>
      <trkpt lat="50.0383" lon="2.27243">
        <ele>69.7</ele>
        <time>2022-11-30T13:12:46Z</time>
      </trkpt>
      <trkpt lat="50.0383" lon="2.2724">
        <ele>69.7</ele>
        <time>2022-11-30T13:12:48Z</time>
      </trkpt>
      <trkpt lat="50.03829" lon="2.27238">
        <ele>69.7</ele>
        <time>2022-11-30T13:12:49Z</time>
      </trkpt>
      <trkpt lat="50.03829" lon="2.27235">
        <ele>69.7</ele>
        <time>2022-11-30T13:12:50Z</time>
      </trkpt>
      <trkpt lat="50.03828" lon="2.27233">
        <ele>69.8</ele>
        <time>2022-11-30T13:12:51Z</time>
      </trkpt>
      <trkpt lat="50.03828" lon="2.27232">
        <ele>69.8</ele>
        <time>2022-11-30T13:12:52Z</time>
      </trkpt>
      <trkpt lat="50.03828" lon="2.2723">
        <ele>69.8</ele>
        <time>2022-11-30T13:12:53Z</time>
      </trkpt>
      <trkpt lat="50.03827" lon="2.27228">
        <ele>69.8</ele>
        <time>2022-11-30T13:12:54Z</time>
      </trkpt>
      <trkpt lat="50.03827" lon="2.27225">
        <ele>69.8</ele>
        <time>2022-11-30T13:12:55Z</time>
      </trkpt>
      <trkpt lat="50.03826" lon="2.27224">
        <ele>69.8</ele>
        <time>2022-11-30T13:12:56Z</time>
      </trkpt>
      <trkpt lat="50.03826" lon="2.27222">
        <ele>69.8</ele>
        <time>2022-11-30T13:12:57Z</time>
      </trkpt>
      <trkpt lat="50.03826" lon="2.27221">
        <ele>69.8</ele>
        <time>2022-11-30T13:12:58Z</time>
      </trkpt>
      <trkpt lat="50.03825" lon="2.27219">
        <ele>69.8</ele>
        <time>2022-11-30T13:12:59Z</time>
      </trkpt>
      <trkpt lat="50.03825" lon="2.27217">
        <ele>69.9</ele>
        <time>2022-11-30T13:13:00Z</time>
      </trkpt>
      <trkpt lat="50.03824" lon="2.27214">
        <ele>69.9</ele>
        <time>2022-11-30T13:13:01Z</time>
      </trkpt>
      <trkpt lat="50.03824" lon="2.27213">
        <ele>69.9</ele>
        <time>2022-11-30T13:13:03Z</time>
      </trkpt>
      <trkpt lat="50.03824" lon="2.27211">
        <ele>69.9</ele>
        <time>2022-11-30T13:13:04Z</time>
      </trkpt>
      <trkpt lat="50.03823" lon="2.27208">
        <ele>69.9</ele>
        <time>2022-11-30T13:13:05Z</time>
      </trkpt>
      <trkpt lat="50.03823" lon="2.27207">
        <ele>69.9</ele>
        <time>2022-11-30T13:13:06Z</time>
      </trkpt>
      <trkpt lat="50.03823" lon="2.27205">
        <ele>69.9</ele>
        <time>2022-11-30T13:13:07Z</time>
      </trkpt>
      <trkpt lat="50.03823" lon="2.27203">
        <ele>70</ele>
        <time>2022-11-30T13:13:08Z</time>
      </trkpt>
      <trkpt lat="50.03823" lon="2.27202">
        <ele>70</ele>
        <time>2022-11-30T13:13:09Z</time>
      </trkpt>
      <trkpt lat="50.03823" lon="2.272">
        <ele>70</ele>
        <time>2022-11-30T13:13:10Z</time>
      </trkpt>
      <trkpt lat="50.03823" lon="2.27198">
        <ele>70</ele>
        <time>2022-11-30T13:13:11Z</time>
      </trkpt>
      <trkpt lat="50.03823" lon="2.27196">
        <ele>70</ele>
        <time>2022-11-30T13:13:13Z</time>
      </trkpt>
      <trkpt lat="50.03824" lon="2.27195">
        <ele>70</ele>
        <time>2022-11-30T13:13:14Z</time>
      </trkpt>
      <trkpt lat="50.03824" lon="2.27193">
        <ele>70</ele>
        <time>2022-11-30T13:13:15Z</time>
      </trkpt>
      <trkpt lat="50.03825" lon="2.27191">
        <ele>70.2</ele>
        <time>2022-11-30T13:13:17Z</time>
      </trkpt>
      <trkpt lat="50.03825" lon="2.2719">
        <ele>70.2</ele>
        <time>2022-11-30T13:13:18Z</time>
      </trkpt>
      <trkpt lat="50.03826" lon="2.27189">
        <ele>70.2</ele>
        <time>2022-11-30T13:13:19Z</time>
      </trkpt>
      <trkpt lat="50.03827" lon="2.27189">
        <ele>70.2</ele>
        <time>2022-11-30T13:13:20Z</time>
      </trkpt>
      <trkpt lat="50.03827" lon="2.27189">
        <ele>70.3</ele>
        <time>2022-11-30T13:13:21Z</time>
      </trkpt>
      <trkpt lat="50.03828" lon="2.27189">
        <ele>70.3</ele>
        <time>2022-11-30T13:13:22Z</time>
      </trkpt>
      <trkpt lat="50.03828" lon="2.27189">
        <ele>70.3</ele>
        <time>2022-11-30T13:13:23Z</time>
      </trkpt>
      <trkpt lat="50.03829" lon="2.27189">
        <ele>70.3</ele>
        <time>2022-11-30T13:13:24Z</time>
      </trkpt>
      <trkpt lat="50.03829" lon="2.27189">
        <ele>70.3</ele>
        <time>2022-11-30T13:13:25Z</time>
      </trkpt>
      <trkpt lat="50.03829" lon="2.27189">
        <ele>70.3</ele>
        <time>2022-11-30T13:13:26Z</time>
      </trkpt>
      <trkpt lat="50.03829" lon="2.27189">
        <ele>70.3</ele>
        <time>2022-11-30T13:13:27Z</time>
      </trkpt>
      <trkpt lat="50.03829" lon="2.27188">
        <ele>70.3</ele>
        <time>2022-11-30T13:13:28Z</time>
      </trkpt>
      <trkpt lat="50.03829" lon="2.27188">
        <ele>70.3</ele>
        <time>2022-11-30T13:13:29Z</time>
      </trkpt>
      <trkpt lat="50.03828" lon="2.27188">
        <ele>70.4</ele>
        <time>2022-11-30T13:13:30Z</time>
      </trkpt>
      <trkpt lat="50.03828" lon="2.27188">
        <ele>70.4</ele>
        <time>2022-11-30T13:13:31Z</time>
      </trkpt>
      <trkpt lat="50.03828" lon="2.27188">
        <ele>70.4</ele>
        <time>2022-11-30T13:13:32Z</time>
      </trkpt>
      <trkpt lat="50.03827" lon="2.27188">
        <ele>70.4</ele>
        <time>2022-11-30T13:13:33Z</time>
      </trkpt>
      <trkpt lat="50.03827" lon="2.27188">
        <ele>70.4</ele>
        <time>2022-11-30T13:13:34Z</time>
      </trkpt>
      <trkpt lat="50.03827" lon="2.27188">
        <ele>70.4</ele>
        <time>2022-11-30T13:13:35Z</time>
      </trkpt>
      <trkpt lat="50.03827" lon="2.27188">
        <ele>70.4</ele>
        <time>2022-11-30T13:13:36Z</time>
      </trkpt>
      <trkpt lat="50.03827" lon="2.27188">
        <ele>70.4</ele>
        <time>2022-11-30T13:13:37Z</time>
      </trkpt>
      <trkpt lat="50.03827" lon="2.27189">
        <ele>70.4</ele>
        <time>2022-11-30T13:13:38Z</time>
      </trkpt>
      <trkpt lat="50.03827" lon="2.27189">
        <ele>70.4</ele>
        <time>2022-11-30T13:13:39Z</time>
      </trkpt>
      <trkpt lat="50.03827" lon="2.27189">
        <ele>70.4</ele>
        <time>2022-11-30T13:13:40Z</time>
      </trkpt>
      <trkpt lat="50.03827" lon="2.27189">
        <ele>70.4</ele>
        <time>2022-11-30T13:13:41Z</time>
      </trkpt>
      <trkpt lat="50.03827" lon="2.2719">
        <ele>70.4</ele>
        <time>2022-11-30T13:13:42Z</time>
      </trkpt>
      <trkpt lat="50.03827" lon="2.2719">
        <ele>70.4</ele>
        <time>2022-11-30T13:13:43Z</time>
      </trkpt>
      <trkpt lat="50.03827" lon="2.2719">
        <ele>70.4</ele>
        <time>2022-11-30T13:13:44Z</time>
      </trkpt>
      <trkpt lat="50.03827" lon="2.2719">
        <ele>70.4</ele>
        <time>2022-11-30T13:13:45Z</time>
      </trkpt>
      <trkpt lat="50.03827" lon="2.2719">
        <ele>70.4</ele>
        <time>2022-11-30T13:13:46Z</time>
      </trkpt>
      <trkpt lat="50.03827" lon="2.2719">
        <ele>70.4</ele>
        <time>2022-11-30T13:13:47Z</time>
      </trkpt>
      <trkpt lat="50.03827" lon="2.2719">
        <ele>70.4</ele>
        <time>2022-11-30T13:13:48Z</time>
      </trkpt>
      <trkpt lat="50.03827" lon="2.2719">
        <ele>70.4</ele>
        <time>2022-11-30T13:13:49Z</time>
      </trkpt>
      <trkpt lat="50.03827" lon="2.2719">
        <ele>70.4</ele>
        <time>2022-11-30T13:13:50Z</time>
      </trkpt>
      <trkpt lat="50.03827" lon="2.2719">
        <ele>70.4</ele>
        <time>2022-11-30T13:13:51Z</time>
      </trkpt>
      <trkpt lat="50.03827" lon="2.2719">
        <ele>70.4</ele>
        <time>2022-11-30T13:13:52Z</time>
      </trkpt>
      <trkpt lat="50.03827" lon="2.2719">
        <ele>70.4</ele>
        <time>2022-11-30T13:13:53Z</time>
      </trkpt>
      <trkpt lat="50.03827" lon="2.2719">
        <ele>70.4</ele>
        <time>2022-11-30T13:13:54Z</time>
      </trkpt>
      <trkpt lat="50.03827" lon="2.2719">
        <ele>70.4</ele>
        <time>2022-11-30T13:13:55Z</time>
      </trkpt>
      <trkpt lat="50.03827" lon="2.2719">
        <ele>70.4</ele>
        <time>2022-11-30T13:13:56Z</time>
      </trkpt>
      <trkpt lat="50.03827" lon="2.2719">
        <ele>70.4</ele>
        <time>2022-11-30T13:13:57Z</time>
      </trkpt>
      <trkpt lat="50.03827" lon="2.2719">
        <ele>70.4</ele>
        <time>2022-11-30T13:13:58Z</time>
      </trkpt>
      <trkpt lat="50.03827" lon="2.2719">
        <ele>70.4</ele>
        <time>2022-11-30T13:13:59Z</time>
      </trkpt>
      <trkpt lat="50.03827" lon="2.2719">
        <ele>70.4</ele>
        <time>2022-11-30T13:14:00Z</time>
      </trkpt>
      <trkpt lat="50.03827" lon="2.2719">
        <ele>70.4</ele>
        <time>2022-11-30T13:14:01Z</time>
      </trkpt>
      <trkpt lat="50.03827" lon="2.2719">
        <ele>70.4</ele>
        <time>2022-11-30T13:14:02Z</time>
      </trkpt>
      <trkpt lat="50.03827" lon="2.2719">
        <ele>70.4</ele>
        <time>2022-11-30T13:14:03Z</time>
      </trkpt>
      <trkpt lat="50.03827" lon="2.2719">
        <ele>70.4</ele>
        <time>2022-11-30T13:14:04Z</time>
      </trkpt>
      <trkpt lat="50.03827" lon="2.2719">
        <ele>70.4</ele>
        <time>2022-11-30T13:14:05Z</time>
      </trkpt>
      <trkpt lat="50.03827" lon="2.2719">
        <ele>70.4</ele>
        <time>2022-11-30T13:14:06Z</time>
      </trkpt>
      <trkpt lat="50.03827" lon="2.2719">
        <ele>70.4</ele>
        <time>2022-11-30T13:14:07Z</time>
      </trkpt>
      <trkpt lat="50.03827" lon="2.2719">
        <ele>70.4</ele>
        <time>2022-11-30T13:14:08Z</time>
      </trkpt>
      <trkpt lat="50.03827" lon="2.2719">
        <ele>70.4</ele>
        <time>2022-11-30T13:14:09Z</time>
      </trkpt>
      <trkpt lat="50.03827" lon="2.2719">
        <ele>70.4</ele>
        <time>2022-11-30T13:14:10Z</time>
      </trkpt>
      <trkpt lat="50.03827" lon="2.2719">
        <ele>70.4</ele>
        <time>2022-11-30T13:14:11Z</time>
      </trkpt>
      <trkpt lat="50.03825" lon="2.27192">
        <ele>70.5</ele>
        <time>2022-11-30T13:14:12Z</time>
      </trkpt>
      <trkpt lat="50.03824" lon="2.27192">
        <ele>70.5</ele>
        <time>2022-11-30T13:14:13Z</time>
      </trkpt>
      <trkpt lat="50.03825" lon="2.27192">
        <ele>70.5</ele>
        <time>2022-11-30T13:14:14Z</time>
      </trkpt>
      <trkpt lat="50.03825" lon="2.27192">
        <ele>70.5</ele>
        <time>2022-11-30T13:14:15Z</time>
      </trkpt>
      <trkpt lat="50.03826" lon="2.27191">
        <ele>70.6</ele>
        <time>2022-11-30T13:14:16Z</time>
      </trkpt>
      <trkpt lat="50.03827" lon="2.27191">
        <ele>70.6</ele>
        <time>2022-11-30T13:14:17Z</time>
      </trkpt>
      <trkpt lat="50.03827" lon="2.27191">
        <ele>70.6</ele>
        <time>2022-11-30T13:14:18Z</time>
      </trkpt>
      <trkpt lat="50.03828" lon="2.2719">
        <ele>70.6</ele>
        <time>2022-11-30T13:14:19Z</time>
      </trkpt>
      <trkpt lat="50.03829" lon="2.2719">
        <ele>70.7</ele>
        <time>2022-11-30T13:14:20Z</time>
      </trkpt>
      <trkpt lat="50.0383" lon="2.27189">
        <ele>70.7</ele>
        <time>2022-11-30T13:14:21Z</time>
      </trkpt>
      <trkpt lat="50.03831" lon="2.27188">
        <ele>70.7</ele>
        <time>2022-11-30T13:14:22Z</time>
      </trkpt>
      <trkpt lat="50.03832" lon="2.27188">
        <ele>70.8</ele>
        <time>2022-11-30T13:14:23Z</time>
      </trkpt>
      <trkpt lat="50.03833" lon="2.27187">
        <ele>70.8</ele>
        <time>2022-11-30T13:14:24Z</time>
      </trkpt>
      <trkpt lat="50.03834" lon="2.27186">
        <ele>70.8</ele>
        <time>2022-11-30T13:14:25Z</time>
      </trkpt>
      <trkpt lat="50.03835" lon="2.27185">
        <ele>70.9</ele>
        <time>2022-11-30T13:14:26Z</time>
      </trkpt>
      <trkpt lat="50.03836" lon="2.27183">
        <ele>70.9</ele>
        <time>2022-11-30T13:14:27Z</time>
      </trkpt>
      <trkpt lat="50.03837" lon="2.27182">
        <ele>71</ele>
        <time>2022-11-30T13:14:28Z</time>
      </trkpt>
      <trkpt lat="50.03839" lon="2.27181">
        <ele>71</ele>
        <time>2022-11-30T13:14:29Z</time>
      </trkpt>
      <trkpt lat="50.0384" lon="2.27181">
        <ele>71.1</ele>
        <time>2022-11-30T13:14:30Z</time>
      </trkpt>
      <trkpt lat="50.03841" lon="2.2718">
        <ele>71.1</ele>
        <time>2022-11-30T13:14:31Z</time>
      </trkpt>
      <trkpt lat="50.03842" lon="2.27179">
        <ele>71.2</ele>
        <time>2022-11-30T13:14:32Z</time>
      </trkpt>
      <trkpt lat="50.03844" lon="2.27178">
        <ele>71.2</ele>
        <time>2022-11-30T13:14:33Z</time>
      </trkpt>
      <trkpt lat="50.03844" lon="2.27177">
        <ele>71.3</ele>
        <time>2022-11-30T13:14:34Z</time>
      </trkpt>
      <trkpt lat="50.03845" lon="2.27177">
        <ele>71.3</ele>
        <time>2022-11-30T13:14:35Z</time>
      </trkpt>
      <trkpt lat="50.03847" lon="2.27176">
        <ele>71.4</ele>
        <time>2022-11-30T13:14:36Z</time>
      </trkpt>
      <trkpt lat="50.03848" lon="2.27176">
        <ele>71.4</ele>
        <time>2022-11-30T13:14:37Z</time>
      </trkpt>
      <trkpt lat="50.03849" lon="2.27175">
        <ele>71.4</ele>
        <time>2022-11-30T13:14:38Z</time>
      </trkpt>
      <trkpt lat="50.0385" lon="2.27174">
        <ele>71.5</ele>
        <time>2022-11-30T13:14:39Z</time>
      </trkpt>
      <trkpt lat="50.03852" lon="2.27173">
        <ele>71.6</ele>
        <time>2022-11-30T13:14:40Z</time>
      </trkpt>
      <trkpt lat="50.03853" lon="2.27171">
        <ele>71.6</ele>
        <time>2022-11-30T13:14:41Z</time>
      </trkpt>
      <trkpt lat="50.03854" lon="2.2717">
        <ele>71.7</ele>
        <time>2022-11-30T13:14:42Z</time>
      </trkpt>
      <trkpt lat="50.03855" lon="2.27169">
        <ele>71.7</ele>
        <time>2022-11-30T13:14:43Z</time>
      </trkpt>
      <trkpt lat="50.03857" lon="2.27167">
        <ele>71.8</ele>
        <time>2022-11-30T13:14:44Z</time>
      </trkpt>
      <trkpt lat="50.03858" lon="2.27166">
        <ele>71.9</ele>
        <time>2022-11-30T13:14:45Z</time>
      </trkpt>
      <trkpt lat="50.03859" lon="2.27164">
        <ele>71.9</ele>
        <time>2022-11-30T13:14:47Z</time>
      </trkpt>
      <trkpt lat="50.0386" lon="2.27163">
        <ele>72</ele>
        <time>2022-11-30T13:14:48Z</time>
      </trkpt>
      <trkpt lat="50.03861" lon="2.27162">
        <ele>72</ele>
        <time>2022-11-30T13:14:49Z</time>
      </trkpt>
      <trkpt lat="50.03863" lon="2.27161">
        <ele>72.1</ele>
        <time>2022-11-30T13:14:50Z</time>
      </trkpt>
      <trkpt lat="50.03864" lon="2.2716">
        <ele>72.1</ele>
        <time>2022-11-30T13:14:51Z</time>
      </trkpt>
      <trkpt lat="50.03865" lon="2.27159">
        <ele>72.2</ele>
        <time>2022-11-30T13:14:52Z</time>
      </trkpt>
      <trkpt lat="50.03866" lon="2.27158">
        <ele>72.3</ele>
        <time>2022-11-30T13:14:53Z</time>
      </trkpt>
      <trkpt lat="50.03868" lon="2.27157">
        <ele>72.3</ele>
        <time>2022-11-30T13:14:54Z</time>
      </trkpt>
      <trkpt lat="50.03869" lon="2.27157">
        <ele>72.3</ele>
        <time>2022-11-30T13:14:55Z</time>
      </trkpt>
      <trkpt lat="50.0387" lon="2.27156">
        <ele>72.4</ele>
        <time>2022-11-30T13:14:56Z</time>
      </trkpt>
      <trkpt lat="50.03871" lon="2.27156">
        <ele>72.4</ele>
        <time>2022-11-30T13:14:57Z</time>
      </trkpt>
      <trkpt lat="50.03872" lon="2.27156">
        <ele>72.5</ele>
        <time>2022-11-30T13:14:58Z</time>
      </trkpt>
      <trkpt lat="50.03873" lon="2.27155">
        <ele>72.5</ele>
        <time>2022-11-30T13:15:00Z</time>
      </trkpt>
      <trkpt lat="50.03874" lon="2.27155">
        <ele>72.6</ele>
        <time>2022-11-30T13:15:01Z</time>
      </trkpt>
      <trkpt lat="50.03875" lon="2.27155">
        <ele>72.6</ele>
        <time>2022-11-30T13:15:02Z</time>
      </trkpt>
      <trkpt lat="50.03876" lon="2.27154">
        <ele>72.6</ele>
        <time>2022-11-30T13:15:03Z</time>
      </trkpt>
      <trkpt lat="50.03878" lon="2.27154">
        <ele>72.7</ele>
        <time>2022-11-30T13:15:04Z</time>
      </trkpt>
      <trkpt lat="50.03879" lon="2.27154">
        <ele>72.8</ele>
        <time>2022-11-30T13:15:05Z</time>
      </trkpt>
      <trkpt lat="50.0388" lon="2.27154">
        <ele>72.8</ele>
        <time>2022-11-30T13:15:06Z</time>
      </trkpt>
      <trkpt lat="50.03882" lon="2.27154">
        <ele>72.9</ele>
        <time>2022-11-30T13:15:07Z</time>
      </trkpt>
      <trkpt lat="50.03883" lon="2.27154">
        <ele>72.9</ele>
        <time>2022-11-30T13:15:08Z</time>
      </trkpt>
      <trkpt lat="50.03884" lon="2.27153">
        <ele>73</ele>
        <time>2022-11-30T13:15:10Z</time>
      </trkpt>
      <trkpt lat="50.03885" lon="2.27153">
        <ele>73</ele>
        <time>2022-11-30T13:15:11Z</time>
      </trkpt>
      <trkpt lat="50.03886" lon="2.27153">
        <ele>73</ele>
        <time>2022-11-30T13:15:12Z</time>
      </trkpt>
      <trkpt lat="50.03887" lon="2.27152">
        <ele>73.1</ele>
        <time>2022-11-30T13:15:13Z</time>
      </trkpt>
      <trkpt lat="50.03888" lon="2.27152">
        <ele>73.1</ele>
        <time>2022-11-30T13:15:14Z</time>
      </trkpt>
      <trkpt lat="50.0389" lon="2.27151">
        <ele>73.2</ele>
        <time>2022-11-30T13:15:15Z</time>
      </trkpt>
      <trkpt lat="50.03892" lon="2.2715">
        <ele>73.3</ele>
        <time>2022-11-30T13:15:16Z</time>
      </trkpt>
      <trkpt lat="50.03892" lon="2.2715">
        <ele>73.3</ele>
        <time>2022-11-30T13:15:17Z</time>
      </trkpt>
      <trkpt lat="50.03893" lon="2.27149">
        <ele>73.3</ele>
        <time>2022-11-30T13:15:18Z</time>
      </trkpt>
      <trkpt lat="50.03895" lon="2.27148">
        <ele>73.4</ele>
        <time>2022-11-30T13:15:19Z</time>
      </trkpt>
      <trkpt lat="50.03895" lon="2.27147">
        <ele>73.4</ele>
        <time>2022-11-30T13:15:21Z</time>
      </trkpt>
      <trkpt lat="50.03896" lon="2.27146">
        <ele>73.5</ele>
        <time>2022-11-30T13:15:22Z</time>
      </trkpt>
      <trkpt lat="50.03897" lon="2.27145">
        <ele>73.5</ele>
        <time>2022-11-30T13:15:23Z</time>
      </trkpt>
      <trkpt lat="50.03898" lon="2.27143">
        <ele>73.6</ele>
        <time>2022-11-30T13:15:24Z</time>
      </trkpt>
      <trkpt lat="50.039" lon="2.27141">
        <ele>73.7</ele>
        <time>2022-11-30T13:15:25Z</time>
      </trkpt>
      <trkpt lat="50.03901" lon="2.2714">
        <ele>73.7</ele>
        <time>2022-11-30T13:15:26Z</time>
      </trkpt>
      <trkpt lat="50.03902" lon="2.2714">
        <ele>73.7</ele>
        <time>2022-11-30T13:15:27Z</time>
      </trkpt>
      <trkpt lat="50.03903" lon="2.27138">
        <ele>73.8</ele>
        <time>2022-11-30T13:15:28Z</time>
      </trkpt>
      <trkpt lat="50.03904" lon="2.27138">
        <ele>73.8</ele>
        <time>2022-11-30T13:15:29Z</time>
      </trkpt>
      <trkpt lat="50.03905" lon="2.27137">
        <ele>73.9</ele>
        <time>2022-11-30T13:15:30Z</time>
      </trkpt>
      <trkpt lat="50.03907" lon="2.27136">
        <ele>74</ele>
        <time>2022-11-30T13:15:31Z</time>
      </trkpt>
      <trkpt lat="50.03907" lon="2.27135">
        <ele>74</ele>
        <time>2022-11-30T13:15:33Z</time>
      </trkpt>
      <trkpt lat="50.03908" lon="2.27134">
        <ele>74</ele>
        <time>2022-11-30T13:15:34Z</time>
      </trkpt>
      <trkpt lat="50.03909" lon="2.27133">
        <ele>74.1</ele>
        <time>2022-11-30T13:15:35Z</time>
      </trkpt>
      <trkpt lat="50.03911" lon="2.27132">
        <ele>74.1</ele>
        <time>2022-11-30T13:15:36Z</time>
      </trkpt>
      <trkpt lat="50.03912" lon="2.27132">
        <ele>74.2</ele>
        <time>2022-11-30T13:15:37Z</time>
      </trkpt>
      <trkpt lat="50.03913" lon="2.2713">
        <ele>74.3</ele>
        <time>2022-11-30T13:15:38Z</time>
      </trkpt>
      <trkpt lat="50.03915" lon="2.27129">
        <ele>74.3</ele>
        <time>2022-11-30T13:15:39Z</time>
      </trkpt>
      <trkpt lat="50.03916" lon="2.27129">
        <ele>74.4</ele>
        <time>2022-11-30T13:15:40Z</time>
      </trkpt>
      <trkpt lat="50.03917" lon="2.27128">
        <ele>74.5</ele>
        <time>2022-11-30T13:15:41Z</time>
      </trkpt>
      <trkpt lat="50.03919" lon="2.27126">
        <ele>74.5</ele>
        <time>2022-11-30T13:15:42Z</time>
      </trkpt>
      <trkpt lat="50.0392" lon="2.27125">
        <ele>74.6</ele>
        <time>2022-11-30T13:15:43Z</time>
      </trkpt>
      <trkpt lat="50.03921" lon="2.27124">
        <ele>74.6</ele>
        <time>2022-11-30T13:15:45Z</time>
      </trkpt>
      <trkpt lat="50.03922" lon="2.27123">
        <ele>74.7</ele>
        <time>2022-11-30T13:15:46Z</time>
      </trkpt>
      <trkpt lat="50.03924" lon="2.27122">
        <ele>74.8</ele>
        <time>2022-11-30T13:15:47Z</time>
      </trkpt>
      <trkpt lat="50.03926" lon="2.27121">
        <ele>74.9</ele>
        <time>2022-11-30T13:15:48Z</time>
      </trkpt>
      <trkpt lat="50.03927" lon="2.27121">
        <ele>74.9</ele>
        <time>2022-11-30T13:15:49Z</time>
      </trkpt>
      <trkpt lat="50.03928" lon="2.27121">
        <ele>75</ele>
        <time>2022-11-30T13:15:50Z</time>
      </trkpt>
      <trkpt lat="50.0393" lon="2.27119">
        <ele>75.1</ele>
        <time>2022-11-30T13:15:51Z</time>
      </trkpt>
      <trkpt lat="50.0393" lon="2.27119">
        <ele>75.1</ele>
        <time>2022-11-30T13:15:52Z</time>
      </trkpt>
      <trkpt lat="50.03931" lon="2.27118">
        <ele>75.1</ele>
        <time>2022-11-30T13:15:53Z</time>
      </trkpt>
      <trkpt lat="50.03933" lon="2.27117">
        <ele>75.2</ele>
        <time>2022-11-30T13:15:54Z</time>
      </trkpt>
      <trkpt lat="50.03934" lon="2.27116">
        <ele>75.3</ele>
        <time>2022-11-30T13:15:56Z</time>
      </trkpt>
      <trkpt lat="50.03935" lon="2.27116">
        <ele>75.3</ele>
        <time>2022-11-30T13:15:57Z</time>
      </trkpt>
      <trkpt lat="50.03935" lon="2.27115">
        <ele>75.3</ele>
        <time>2022-11-30T13:15:58Z</time>
      </trkpt>
      <trkpt lat="50.03937" lon="2.27115">
        <ele>75.4</ele>
        <time>2022-11-30T13:15:59Z</time>
      </trkpt>
      <trkpt lat="50.03938" lon="2.27115">
        <ele>75.4</ele>
        <time>2022-11-30T13:16:00Z</time>
      </trkpt>
      <trkpt lat="50.03939" lon="2.27115">
        <ele>75.5</ele>
        <time>2022-11-30T13:16:01Z</time>
      </trkpt>
      <trkpt lat="50.0394" lon="2.27114">
        <ele>75.5</ele>
        <time>2022-11-30T13:16:02Z</time>
      </trkpt>
      <trkpt lat="50.03941" lon="2.27114">
        <ele>75.6</ele>
        <time>2022-11-30T13:16:03Z</time>
      </trkpt>
      <trkpt lat="50.03943" lon="2.27113">
        <ele>75.7</ele>
        <time>2022-11-30T13:16:04Z</time>
      </trkpt>
      <trkpt lat="50.03944" lon="2.27112">
        <ele>75.7</ele>
        <time>2022-11-30T13:16:05Z</time>
      </trkpt>
      <trkpt lat="50.03945" lon="2.27112">
        <ele>75.8</ele>
        <time>2022-11-30T13:16:06Z</time>
      </trkpt>
      <trkpt lat="50.03946" lon="2.27111">
        <ele>75.8</ele>
        <time>2022-11-30T13:16:08Z</time>
      </trkpt>
      <trkpt lat="50.03946" lon="2.27111">
        <ele>75.9</ele>
        <time>2022-11-30T13:16:09Z</time>
      </trkpt>
      <trkpt lat="50.03947" lon="2.2711">
        <ele>75.9</ele>
        <time>2022-11-30T13:16:10Z</time>
      </trkpt>
      <trkpt lat="50.03948" lon="2.2711">
        <ele>76</ele>
        <time>2022-11-30T13:16:11Z</time>
      </trkpt>
      <trkpt lat="50.0395" lon="2.2711">
        <ele>76</ele>
        <time>2022-11-30T13:16:12Z</time>
      </trkpt>
      <trkpt lat="50.03951" lon="2.27109">
        <ele>76.1</ele>
        <time>2022-11-30T13:16:13Z</time>
      </trkpt>
      <trkpt lat="50.03952" lon="2.27108">
        <ele>76.1</ele>
        <time>2022-11-30T13:16:14Z</time>
      </trkpt>
      <trkpt lat="50.03953" lon="2.27108">
        <ele>76.2</ele>
        <time>2022-11-30T13:16:15Z</time>
      </trkpt>
      <trkpt lat="50.03954" lon="2.27107">
        <ele>76.2</ele>
        <time>2022-11-30T13:16:16Z</time>
      </trkpt>
      <trkpt lat="50.03955" lon="2.27107">
        <ele>76.3</ele>
        <time>2022-11-30T13:16:17Z</time>
      </trkpt>
      <trkpt lat="50.03956" lon="2.27106">
        <ele>76.3</ele>
        <time>2022-11-30T13:16:18Z</time>
      </trkpt>
      <trkpt lat="50.03958" lon="2.27106">
        <ele>76.4</ele>
        <time>2022-11-30T13:16:20Z</time>
      </trkpt>
      <trkpt lat="50.0396" lon="2.27105">
        <ele>76.5</ele>
        <time>2022-11-30T13:16:21Z</time>
      </trkpt>
      <trkpt lat="50.03961" lon="2.27104">
        <ele>76.5</ele>
        <time>2022-11-30T13:16:22Z</time>
      </trkpt>
      <trkpt lat="50.03961" lon="2.27104">
        <ele>76.6</ele>
        <time>2022-11-30T13:16:23Z</time>
      </trkpt>
      <trkpt lat="50.03963" lon="2.27103">
        <ele>76.6</ele>
        <time>2022-11-30T13:16:24Z</time>
      </trkpt>
      <trkpt lat="50.03964" lon="2.27103">
        <ele>76.7</ele>
        <time>2022-11-30T13:16:25Z</time>
      </trkpt>
      <trkpt lat="50.03965" lon="2.27102">
        <ele>76.7</ele>
        <time>2022-11-30T13:16:27Z</time>
      </trkpt>
      <trkpt lat="50.03966" lon="2.27102">
        <ele>76.8</ele>
        <time>2022-11-30T13:16:28Z</time>
      </trkpt>
      <trkpt lat="50.03967" lon="2.27102">
        <ele>76.8</ele>
        <time>2022-11-30T13:16:29Z</time>
      </trkpt>
      <trkpt lat="50.03968" lon="2.27101">
        <ele>76.8</ele>
        <time>2022-11-30T13:16:30Z</time>
      </trkpt>
      <trkpt lat="50.0397" lon="2.27101">
        <ele>76.9</ele>
        <time>2022-11-30T13:16:31Z</time>
      </trkpt>
      <trkpt lat="50.03971" lon="2.27101">
        <ele>77</ele>
        <time>2022-11-30T13:16:32Z</time>
      </trkpt>
      <trkpt lat="50.03972" lon="2.27101">
        <ele>77</ele>
        <time>2022-11-30T13:16:33Z</time>
      </trkpt>
      <trkpt lat="50.03973" lon="2.27101">
        <ele>77</ele>
        <time>2022-11-30T13:16:34Z</time>
      </trkpt>
      <trkpt lat="50.03974" lon="2.271">
        <ele>77.1</ele>
        <time>2022-11-30T13:16:36Z</time>
      </trkpt>
      <trkpt lat="50.03975" lon="2.271">
        <ele>77.1</ele>
        <time>2022-11-30T13:16:37Z</time>
      </trkpt>
      <trkpt lat="50.03976" lon="2.27099">
        <ele>77.2</ele>
        <time>2022-11-30T13:16:38Z</time>
      </trkpt>
      <trkpt lat="50.03977" lon="2.27099">
        <ele>77.2</ele>
        <time>2022-11-30T13:16:39Z</time>
      </trkpt>
      <trkpt lat="50.03978" lon="2.27099">
        <ele>77.3</ele>
        <time>2022-11-30T13:16:40Z</time>
      </trkpt>
      <trkpt lat="50.0398" lon="2.27098">
        <ele>77.4</ele>
        <time>2022-11-30T13:16:41Z</time>
      </trkpt>
      <trkpt lat="50.03981" lon="2.27098">
        <ele>77.4</ele>
        <time>2022-11-30T13:16:43Z</time>
      </trkpt>
      <trkpt lat="50.03982" lon="2.27098">
        <ele>77.4</ele>
        <time>2022-11-30T13:16:44Z</time>
      </trkpt>
      <trkpt lat="50.03984" lon="2.27097">
        <ele>77.5</ele>
        <time>2022-11-30T13:16:45Z</time>
      </trkpt>
      <trkpt lat="50.03985" lon="2.27096">
        <ele>77.6</ele>
        <time>2022-11-30T13:16:46Z</time>
      </trkpt>
      <trkpt lat="50.03985" lon="2.27096">
        <ele>77.6</ele>
        <time>2022-11-30T13:16:47Z</time>
      </trkpt>
      <trkpt lat="50.03987" lon="2.27096">
        <ele>77.7</ele>
        <time>2022-11-30T13:16:48Z</time>
      </trkpt>
      <trkpt lat="50.03988" lon="2.27095">
        <ele>77.7</ele>
        <time>2022-11-30T13:16:49Z</time>
      </trkpt>
      <trkpt lat="50.03989" lon="2.27095">
        <ele>77.8</ele>
        <time>2022-11-30T13:16:51Z</time>
      </trkpt>
      <trkpt lat="50.0399" lon="2.27095">
        <ele>77.8</ele>
        <time>2022-11-30T13:16:52Z</time>
      </trkpt>
      <trkpt lat="50.03992" lon="2.27095">
        <ele>77.9</ele>
        <time>2022-11-30T13:16:53Z</time>
      </trkpt>
      <trkpt lat="50.03993" lon="2.27095">
        <ele>77.9</ele>
        <time>2022-11-30T13:16:54Z</time>
      </trkpt>
      <trkpt lat="50.03995" lon="2.27094">
        <ele>78</ele>
        <time>2022-11-30T13:16:55Z</time>
      </trkpt>
      <trkpt lat="50.03995" lon="2.27094">
        <ele>78.1</ele>
        <time>2022-11-30T13:16:56Z</time>
      </trkpt>
      <trkpt lat="50.03996" lon="2.27094">
        <ele>78.1</ele>
        <time>2022-11-30T13:16:57Z</time>
      </trkpt>
      <trkpt lat="50.03998" lon="2.27092">
        <ele>78.2</ele>
        <time>2022-11-30T13:16:58Z</time>
      </trkpt>
      <trkpt lat="50.03999" lon="2.27092">
        <ele>78.3</ele>
        <time>2022-11-30T13:17:00Z</time>
      </trkpt>
      <trkpt lat="50.04" lon="2.27092">
        <ele>78.3</ele>
        <time>2022-11-30T13:17:01Z</time>
      </trkpt>
      <trkpt lat="50.04002" lon="2.27091">
        <ele>78.4</ele>
        <time>2022-11-30T13:17:02Z</time>
      </trkpt>
      <trkpt lat="50.04003" lon="2.27091">
        <ele>78.4</ele>
        <time>2022-11-30T13:17:03Z</time>
      </trkpt>
      <trkpt lat="50.04004" lon="2.27091">
        <ele>78.5</ele>
        <time>2022-11-30T13:17:04Z</time>
      </trkpt>
      <trkpt lat="50.04006" lon="2.2709">
        <ele>78.6</ele>
        <time>2022-11-30T13:17:05Z</time>
      </trkpt>
      <trkpt lat="50.04006" lon="2.2709">
        <ele>78.6</ele>
        <time>2022-11-30T13:17:07Z</time>
      </trkpt>
      <trkpt lat="50.04007" lon="2.2709">
        <ele>78.7</ele>
        <time>2022-11-30T13:17:08Z</time>
      </trkpt>
      <trkpt lat="50.04008" lon="2.27089">
        <ele>78.7</ele>
        <time>2022-11-30T13:17:09Z</time>
      </trkpt>
      <trkpt lat="50.04009" lon="2.27089">
        <ele>78.8</ele>
        <time>2022-11-30T13:17:10Z</time>
      </trkpt>
      <trkpt lat="50.0401" lon="2.27089">
        <ele>78.8</ele>
        <time>2022-11-30T13:17:11Z</time>
      </trkpt>
      <trkpt lat="50.0401" lon="2.27089">
        <ele>78.8</ele>
        <time>2022-11-30T13:17:12Z</time>
      </trkpt>
      <trkpt lat="50.04011" lon="2.27089">
        <ele>78.9</ele>
        <time>2022-11-30T13:17:13Z</time>
      </trkpt>
      <trkpt lat="50.04013" lon="2.27088">
        <ele>79</ele>
        <time>2022-11-30T13:17:14Z</time>
      </trkpt>
      <trkpt lat="50.04014" lon="2.27088">
        <ele>79</ele>
        <time>2022-11-30T13:17:16Z</time>
      </trkpt>
      <trkpt lat="50.04015" lon="2.27088">
        <ele>79.1</ele>
        <time>2022-11-30T13:17:17Z</time>
      </trkpt>
      <trkpt lat="50.04016" lon="2.27087">
        <ele>79.2</ele>
        <time>2022-11-30T13:17:18Z</time>
      </trkpt>
      <trkpt lat="50.04017" lon="2.27087">
        <ele>79.2</ele>
        <time>2022-11-30T13:17:19Z</time>
      </trkpt>
      <trkpt lat="50.04019" lon="2.27086">
        <ele>79.5</ele>
        <time>2022-11-30T13:17:20Z</time>
      </trkpt>
      <trkpt lat="50.04021" lon="2.27086">
        <ele>79.6</ele>
        <time>2022-11-30T13:17:21Z</time>
      </trkpt>
      <trkpt lat="50.04022" lon="2.27086">
        <ele>79.8</ele>
        <time>2022-11-30T13:17:23Z</time>
      </trkpt>
      <trkpt lat="50.04022" lon="2.27086">
        <ele>79.9</ele>
        <time>2022-11-30T13:17:24Z</time>
      </trkpt>
      <trkpt lat="50.04023" lon="2.27085">
        <ele>80</ele>
        <time>2022-11-30T13:17:25Z</time>
      </trkpt>
      <trkpt lat="50.04024" lon="2.27085">
        <ele>80.1</ele>
        <time>2022-11-30T13:17:26Z</time>
      </trkpt>
      <trkpt lat="50.04026" lon="2.27085">
        <ele>80.3</ele>
        <time>2022-11-30T13:17:27Z</time>
      </trkpt>
      <trkpt lat="50.04027" lon="2.27084">
        <ele>80.4</ele>
        <time>2022-11-30T13:17:29Z</time>
      </trkpt>
      <trkpt lat="50.04028" lon="2.27084">
        <ele>80.6</ele>
        <time>2022-11-30T13:17:30Z</time>
      </trkpt>
      <trkpt lat="50.04029" lon="2.27083">
        <ele>80.7</ele>
        <time>2022-11-30T13:17:31Z</time>
      </trkpt>
      <trkpt lat="50.0403" lon="2.27083">
        <ele>80.8</ele>
        <time>2022-11-30T13:17:32Z</time>
      </trkpt>
      <trkpt lat="50.04031" lon="2.27082">
        <ele>81</ele>
        <time>2022-11-30T13:17:33Z</time>
      </trkpt>
      <trkpt lat="50.04032" lon="2.27082">
        <ele>81.1</ele>
        <time>2022-11-30T13:17:35Z</time>
      </trkpt>
      <trkpt lat="50.04032" lon="2.27081">
        <ele>81.2</ele>
        <time>2022-11-30T13:17:36Z</time>
      </trkpt>
      <trkpt lat="50.04033" lon="2.27081">
        <ele>81.3</ele>
        <time>2022-11-30T13:17:37Z</time>
      </trkpt>
      <trkpt lat="50.04034" lon="2.27081">
        <ele>81.4</ele>
        <time>2022-11-30T13:17:38Z</time>
      </trkpt>
      <trkpt lat="50.04035" lon="2.27081">
        <ele>81.5</ele>
        <time>2022-11-30T13:17:39Z</time>
      </trkpt>
      <trkpt lat="50.04036" lon="2.2708">
        <ele>81.7</ele>
        <time>2022-11-30T13:17:40Z</time>
      </trkpt>
      <trkpt lat="50.04038" lon="2.2708">
        <ele>81.9</ele>
        <time>2022-11-30T13:17:42Z</time>
      </trkpt>
      <trkpt lat="50.04038" lon="2.2708">
        <ele>81.9</ele>
        <time>2022-11-30T13:17:43Z</time>
      </trkpt>
      <trkpt lat="50.04039" lon="2.2708">
        <ele>82</ele>
        <time>2022-11-30T13:17:44Z</time>
      </trkpt>
      <trkpt lat="50.0404" lon="2.2708">
        <ele>82.1</ele>
        <time>2022-11-30T13:17:45Z</time>
      </trkpt>
      <trkpt lat="50.04041" lon="2.2708">
        <ele>82.3</ele>
        <time>2022-11-30T13:17:46Z</time>
      </trkpt>
      <trkpt lat="50.04042" lon="2.2708">
        <ele>82.4</ele>
        <time>2022-11-30T13:17:48Z</time>
      </trkpt>
      <trkpt lat="50.04042" lon="2.2708">
        <ele>82.4</ele>
        <time>2022-11-30T13:17:49Z</time>
      </trkpt>
      <trkpt lat="50.04042" lon="2.2708">
        <ele>82.4</ele>
        <time>2022-11-30T13:17:50Z</time>
      </trkpt>
      <trkpt lat="50.04043" lon="2.2708">
        <ele>82.5</ele>
        <time>2022-11-30T13:17:51Z</time>
      </trkpt>
      <trkpt lat="50.04043" lon="2.2708">
        <ele>82.5</ele>
        <time>2022-11-30T13:17:52Z</time>
      </trkpt>
      <trkpt lat="50.04044" lon="2.2708">
        <ele>82.6</ele>
        <time>2022-11-30T13:17:54Z</time>
      </trkpt>
      <trkpt lat="50.04045" lon="2.2708">
        <ele>82.7</ele>
        <time>2022-11-30T13:17:55Z</time>
      </trkpt>
      <trkpt lat="50.04045" lon="2.2708">
        <ele>82.8</ele>
        <time>2022-11-30T13:17:56Z</time>
      </trkpt>
      <trkpt lat="50.04046" lon="2.2708">
        <ele>82.9</ele>
        <time>2022-11-30T13:17:57Z</time>
      </trkpt>
      <trkpt lat="50.04047" lon="2.2708">
        <ele>83</ele>
        <time>2022-11-30T13:17:58Z</time>
      </trkpt>
      <trkpt lat="50.04048" lon="2.27079">
        <ele>83.1</ele>
        <time>2022-11-30T13:18:00Z</time>
      </trkpt>
      <trkpt lat="50.04048" lon="2.27079">
        <ele>83.2</ele>
        <time>2022-11-30T13:18:01Z</time>
      </trkpt>
      <trkpt lat="50.0405" lon="2.27078">
        <ele>83.4</ele>
        <time>2022-11-30T13:18:02Z</time>
      </trkpt>
      <trkpt lat="50.0405" lon="2.27078">
        <ele>83.5</ele>
        <time>2022-11-30T13:18:03Z</time>
      </trkpt>
      <trkpt lat="50.04051" lon="2.27077">
        <ele>83.6</ele>
        <time>2022-11-30T13:18:05Z</time>
      </trkpt>
      <trkpt lat="50.04052" lon="2.27077">
        <ele>83.7</ele>
        <time>2022-11-30T13:18:06Z</time>
      </trkpt>
      <trkpt lat="50.04052" lon="2.27077">
        <ele>83.7</ele>
        <time>2022-11-30T13:18:07Z</time>
      </trkpt>
      <trkpt lat="50.04052" lon="2.27077">
        <ele>83.7</ele>
        <time>2022-11-30T13:18:08Z</time>
      </trkpt>
      <trkpt lat="50.04053" lon="2.27077">
        <ele>83.8</ele>
        <time>2022-11-30T13:18:09Z</time>
      </trkpt>
      <trkpt lat="50.04054" lon="2.27076">
        <ele>83.9</ele>
        <time>2022-11-30T13:18:11Z</time>
      </trkpt>
      <trkpt lat="50.04055" lon="2.27076">
        <ele>84</ele>
        <time>2022-11-30T13:18:12Z</time>
      </trkpt>
      <trkpt lat="50.04056" lon="2.27076">
        <ele>84.1</ele>
        <time>2022-11-30T13:18:13Z</time>
      </trkpt>
      <trkpt lat="50.04057" lon="2.27076">
        <ele>84.2</ele>
        <time>2022-11-30T13:18:14Z</time>
      </trkpt>
      <trkpt lat="50.04058" lon="2.27076">
        <ele>84.4</ele>
        <time>2022-11-30T13:18:15Z</time>
      </trkpt>
      <trkpt lat="50.04059" lon="2.27076">
        <ele>84.4</ele>
        <time>2022-11-30T13:18:17Z</time>
      </trkpt>
      <trkpt lat="50.0406" lon="2.27076">
        <ele>84.6</ele>
        <time>2022-11-30T13:18:18Z</time>
      </trkpt>
      <trkpt lat="50.04061" lon="2.27076">
        <ele>84.7</ele>
        <time>2022-11-30T13:18:19Z</time>
      </trkpt>
      <trkpt lat="50.04062" lon="2.27076">
        <ele>84.8</ele>
        <time>2022-11-30T13:18:20Z</time>
      </trkpt>
      <trkpt lat="50.04063" lon="2.27076">
        <ele>84.9</ele>
        <time>2022-11-30T13:18:21Z</time>
      </trkpt>
      <trkpt lat="50.04063" lon="2.27076">
        <ele>85</ele>
        <time>2022-11-30T13:18:23Z</time>
      </trkpt>
      <trkpt lat="50.04064" lon="2.27076">
        <ele>85</ele>
        <time>2022-11-30T13:18:24Z</time>
      </trkpt>
      <trkpt lat="50.04065" lon="2.27076">
        <ele>85.1</ele>
        <time>2022-11-30T13:18:25Z</time>
      </trkpt>
      <trkpt lat="50.04066" lon="2.27076">
        <ele>85.2</ele>
        <time>2022-11-30T13:18:26Z</time>
      </trkpt>
      <trkpt lat="50.04067" lon="2.27076">
        <ele>85.3</ele>
        <time>2022-11-30T13:18:27Z</time>
      </trkpt>
      <trkpt lat="50.04068" lon="2.27076">
        <ele>85.4</ele>
        <time>2022-11-30T13:18:28Z</time>
      </trkpt>
      <trkpt lat="50.04068" lon="2.27076">
        <ele>85.5</ele>
        <time>2022-11-30T13:18:29Z</time>
      </trkpt>
      <trkpt lat="50.04069" lon="2.27076">
        <ele>85.6</ele>
        <time>2022-11-30T13:18:30Z</time>
      </trkpt>
      <trkpt lat="50.0407" lon="2.27076">
        <ele>85.7</ele>
        <time>2022-11-30T13:18:31Z</time>
      </trkpt>
      <trkpt lat="50.04072" lon="2.27077">
        <ele>85.9</ele>
        <time>2022-11-30T13:18:32Z</time>
      </trkpt>
      <trkpt lat="50.04073" lon="2.27077">
        <ele>86.1</ele>
        <time>2022-11-30T13:18:33Z</time>
      </trkpt>
      <trkpt lat="50.04075" lon="2.27077">
        <ele>86.3</ele>
        <time>2022-11-30T13:18:35Z</time>
      </trkpt>
      <trkpt lat="50.04076" lon="2.27077">
        <ele>86.4</ele>
        <time>2022-11-30T13:18:36Z</time>
      </trkpt>
      <trkpt lat="50.04077" lon="2.27078">
        <ele>86.5</ele>
        <time>2022-11-30T13:18:37Z</time>
      </trkpt>
      <trkpt lat="50.04078" lon="2.27077">
        <ele>86.6</ele>
        <time>2022-11-30T13:18:38Z</time>
      </trkpt>
      <trkpt lat="50.04079" lon="2.27077">
        <ele>86.7</ele>
        <time>2022-11-30T13:18:39Z</time>
      </trkpt>
      <trkpt lat="50.04081" lon="2.27077">
        <ele>86.9</ele>
        <time>2022-11-30T13:18:40Z</time>
      </trkpt>
      <trkpt lat="50.04083" lon="2.27077">
        <ele>87.1</ele>
        <time>2022-11-30T13:18:41Z</time>
      </trkpt>
      <trkpt lat="50.04084" lon="2.27077">
        <ele>87.2</ele>
        <time>2022-11-30T13:18:43Z</time>
      </trkpt>
      <trkpt lat="50.04084" lon="2.27077">
        <ele>87.3</ele>
        <time>2022-11-30T13:18:44Z</time>
      </trkpt>
      <trkpt lat="50.04086" lon="2.27077">
        <ele>87.5</ele>
        <time>2022-11-30T13:18:45Z</time>
      </trkpt>
      <trkpt lat="50.04087" lon="2.27077">
        <ele>87.6</ele>
        <time>2022-11-30T13:18:46Z</time>
      </trkpt>
      <trkpt lat="50.04088" lon="2.27076">
        <ele>87.8</ele>
        <time>2022-11-30T13:18:48Z</time>
      </trkpt>
      <trkpt lat="50.0409" lon="2.27076">
        <ele>88</ele>
        <time>2022-11-30T13:18:49Z</time>
      </trkpt>
      <trkpt lat="50.04091" lon="2.27076">
        <ele>88.1</ele>
        <time>2022-11-30T13:18:50Z</time>
      </trkpt>
      <trkpt lat="50.04092" lon="2.27076">
        <ele>88.2</ele>
        <time>2022-11-30T13:18:51Z</time>
      </trkpt>
      <trkpt lat="50.04093" lon="2.27076">
        <ele>88.3</ele>
        <time>2022-11-30T13:18:53Z</time>
      </trkpt>
      <trkpt lat="50.04094" lon="2.27076">
        <ele>88.4</ele>
        <time>2022-11-30T13:18:54Z</time>
      </trkpt>
      <trkpt lat="50.04095" lon="2.27076">
        <ele>88.6</ele>
        <time>2022-11-30T13:18:55Z</time>
      </trkpt>
      <trkpt lat="50.04096" lon="2.27076">
        <ele>88.7</ele>
        <time>2022-11-30T13:18:56Z</time>
      </trkpt>
      <trkpt lat="50.04097" lon="2.27075">
        <ele>88.8</ele>
        <time>2022-11-30T13:18:58Z</time>
      </trkpt>
      <trkpt lat="50.04098" lon="2.27075">
        <ele>88.9</ele>
        <time>2022-11-30T13:18:59Z</time>
      </trkpt>
      <trkpt lat="50.04099" lon="2.27075">
        <ele>89</ele>
        <time>2022-11-30T13:19:00Z</time>
      </trkpt>
      <trkpt lat="50.041" lon="2.27075">
        <ele>89.2</ele>
        <time>2022-11-30T13:19:01Z</time>
      </trkpt>
      <trkpt lat="50.04101" lon="2.27075">
        <ele>89.3</ele>
        <time>2022-11-30T13:19:02Z</time>
      </trkpt>
      <trkpt lat="50.04103" lon="2.27074">
        <ele>89.5</ele>
        <time>2022-11-30T13:19:03Z</time>
      </trkpt>
      <trkpt lat="50.04104" lon="2.27074">
        <ele>89.6</ele>
        <time>2022-11-30T13:19:04Z</time>
      </trkpt>
      <trkpt lat="50.04105" lon="2.27074">
        <ele>89.8</ele>
        <time>2022-11-30T13:19:06Z</time>
      </trkpt>
      <trkpt lat="50.04107" lon="2.27073">
        <ele>89.9</ele>
        <time>2022-11-30T13:19:07Z</time>
      </trkpt>
      <trkpt lat="50.04108" lon="2.27074">
        <ele>90.1</ele>
        <time>2022-11-30T13:19:08Z</time>
      </trkpt>
      <trkpt lat="50.04109" lon="2.27074">
        <ele>90.3</ele>
        <time>2022-11-30T13:19:09Z</time>
      </trkpt>
      <trkpt lat="50.04111" lon="2.27074">
        <ele>90.5</ele>
        <time>2022-11-30T13:19:10Z</time>
      </trkpt>
      <trkpt lat="50.04113" lon="2.27075">
        <ele>90.7</ele>
        <time>2022-11-30T13:19:12Z</time>
      </trkpt>
      <trkpt lat="50.04114" lon="2.27075">
        <ele>90.8</ele>
        <time>2022-11-30T13:19:13Z</time>
      </trkpt>
      <trkpt lat="50.04115" lon="2.27075">
        <ele>91</ele>
        <time>2022-11-30T13:19:14Z</time>
      </trkpt>
      <trkpt lat="50.04117" lon="2.27074">
        <ele>91.2</ele>
        <time>2022-11-30T13:19:15Z</time>
      </trkpt>
      <trkpt lat="50.04119" lon="2.27074">
        <ele>91.4</ele>
        <time>2022-11-30T13:19:16Z</time>
      </trkpt>
      <trkpt lat="50.0412" lon="2.27074">
        <ele>91.5</ele>
        <time>2022-11-30T13:19:18Z</time>
      </trkpt>
      <trkpt lat="50.04121" lon="2.27074">
        <ele>91.6</ele>
        <time>2022-11-30T13:19:19Z</time>
      </trkpt>
      <trkpt lat="50.04123" lon="2.27074">
        <ele>91.8</ele>
        <time>2022-11-30T13:19:20Z</time>
      </trkpt>
      <trkpt lat="50.04123" lon="2.27073">
        <ele>91.9</ele>
        <time>2022-11-30T13:19:21Z</time>
      </trkpt>
      <trkpt lat="50.04124" lon="2.27073">
        <ele>92</ele>
        <time>2022-11-30T13:19:22Z</time>
      </trkpt>
      <trkpt lat="50.04125" lon="2.27073">
        <ele>92.1</ele>
        <time>2022-11-30T13:19:23Z</time>
      </trkpt>
      <trkpt lat="50.04126" lon="2.27073">
        <ele>92.2</ele>
        <time>2022-11-30T13:19:25Z</time>
      </trkpt>
      <trkpt lat="50.04127" lon="2.27073">
        <ele>92.3</ele>
        <time>2022-11-30T13:19:26Z</time>
      </trkpt>
      <trkpt lat="50.04128" lon="2.27072">
        <ele>92.4</ele>
        <time>2022-11-30T13:19:27Z</time>
      </trkpt>
      <trkpt lat="50.04129" lon="2.27072">
        <ele>92.5</ele>
        <time>2022-11-30T13:19:28Z</time>
      </trkpt>
      <trkpt lat="50.0413" lon="2.27072">
        <ele>92.6</ele>
        <time>2022-11-30T13:19:29Z</time>
      </trkpt>
      <trkpt lat="50.04131" lon="2.27072">
        <ele>92.8</ele>
        <time>2022-11-30T13:19:30Z</time>
      </trkpt>
      <trkpt lat="50.04132" lon="2.27072">
        <ele>92.9</ele>
        <time>2022-11-30T13:19:32Z</time>
      </trkpt>
      <trkpt lat="50.04133" lon="2.27072">
        <ele>93</ele>
        <time>2022-11-30T13:19:33Z</time>
      </trkpt>
      <trkpt lat="50.04135" lon="2.27072">
        <ele>93.2</ele>
        <time>2022-11-30T13:19:34Z</time>
      </trkpt>
      <trkpt lat="50.04136" lon="2.27072">
        <ele>93.3</ele>
        <time>2022-11-30T13:19:35Z</time>
      </trkpt>
      <trkpt lat="50.04137" lon="2.27072">
        <ele>93.5</ele>
        <time>2022-11-30T13:19:36Z</time>
      </trkpt>
      <trkpt lat="50.04139" lon="2.27071">
        <ele>93.7</ele>
        <time>2022-11-30T13:19:38Z</time>
      </trkpt>
      <trkpt lat="50.0414" lon="2.27071">
        <ele>93.8</ele>
        <time>2022-11-30T13:19:39Z</time>
      </trkpt>
      <trkpt lat="50.04141" lon="2.27071">
        <ele>93.9</ele>
        <time>2022-11-30T13:19:40Z</time>
      </trkpt>
      <trkpt lat="50.04142" lon="2.2707">
        <ele>94</ele>
        <time>2022-11-30T13:19:41Z</time>
      </trkpt>
      <trkpt lat="50.04143" lon="2.2707">
        <ele>94.1</ele>
        <time>2022-11-30T13:19:42Z</time>
      </trkpt>
      <trkpt lat="50.04144" lon="2.27069">
        <ele>94.2</ele>
        <time>2022-11-30T13:19:44Z</time>
      </trkpt>
      <trkpt lat="50.04145" lon="2.27069">
        <ele>94.3</ele>
        <time>2022-11-30T13:19:45Z</time>
      </trkpt>
      <trkpt lat="50.04146" lon="2.27068">
        <ele>94.4</ele>
        <time>2022-11-30T13:19:46Z</time>
      </trkpt>
      <trkpt lat="50.04147" lon="2.27068">
        <ele>94.5</ele>
        <time>2022-11-30T13:19:47Z</time>
      </trkpt>
      <trkpt lat="50.04149" lon="2.27067">
        <ele>94.8</ele>
        <time>2022-11-30T13:19:49Z</time>
      </trkpt>
      <trkpt lat="50.0415" lon="2.27067">
        <ele>94.8</ele>
        <time>2022-11-30T13:19:50Z</time>
      </trkpt>
      <trkpt lat="50.04151" lon="2.27067">
        <ele>94.9</ele>
        <time>2022-11-30T13:19:51Z</time>
      </trkpt>
      <trkpt lat="50.04152" lon="2.27066">
        <ele>95</ele>
        <time>2022-11-30T13:19:52Z</time>
      </trkpt>
      <trkpt lat="50.04153" lon="2.27066">
        <ele>95.1</ele>
        <time>2022-11-30T13:19:54Z</time>
      </trkpt>
      <trkpt lat="50.04153" lon="2.27066">
        <ele>95.2</ele>
        <time>2022-11-30T13:19:55Z</time>
      </trkpt>
      <trkpt lat="50.04154" lon="2.27066">
        <ele>95.3</ele>
        <time>2022-11-30T13:19:56Z</time>
      </trkpt>
      <trkpt lat="50.04155" lon="2.27066">
        <ele>95.3</ele>
        <time>2022-11-30T13:19:57Z</time>
      </trkpt>
      <trkpt lat="50.04155" lon="2.27066">
        <ele>95.4</ele>
        <time>2022-11-30T13:19:58Z</time>
      </trkpt>
      <trkpt lat="50.04156" lon="2.27066">
        <ele>95.5</ele>
        <time>2022-11-30T13:19:59Z</time>
      </trkpt>
      <trkpt lat="50.04158" lon="2.27066">
        <ele>95.6</ele>
        <time>2022-11-30T13:20:00Z</time>
      </trkpt>
      <trkpt lat="50.04159" lon="2.27067">
        <ele>95.7</ele>
        <time>2022-11-30T13:20:02Z</time>
      </trkpt>
      <trkpt lat="50.0416" lon="2.27067">
        <ele>95.8</ele>
        <time>2022-11-30T13:20:03Z</time>
      </trkpt>
      <trkpt lat="50.0416" lon="2.27067">
        <ele>95.9</ele>
        <time>2022-11-30T13:20:04Z</time>
      </trkpt>
      <trkpt lat="50.04161" lon="2.27066">
        <ele>96</ele>
        <time>2022-11-30T13:20:05Z</time>
      </trkpt>
      <trkpt lat="50.04162" lon="2.27066">
        <ele>96.1</ele>
        <time>2022-11-30T13:20:06Z</time>
      </trkpt>
      <trkpt lat="50.04163" lon="2.27066">
        <ele>96.1</ele>
        <time>2022-11-30T13:20:07Z</time>
      </trkpt>
      <trkpt lat="50.04164" lon="2.27065">
        <ele>96.2</ele>
        <time>2022-11-30T13:20:08Z</time>
      </trkpt>
      <trkpt lat="50.04165" lon="2.27065">
        <ele>96.3</ele>
        <time>2022-11-30T13:20:10Z</time>
      </trkpt>
      <trkpt lat="50.04166" lon="2.27065">
        <ele>96.4</ele>
        <time>2022-11-30T13:20:11Z</time>
      </trkpt>
      <trkpt lat="50.04167" lon="2.27065">
        <ele>96.5</ele>
        <time>2022-11-30T13:20:12Z</time>
      </trkpt>
      <trkpt lat="50.04167" lon="2.27064">
        <ele>96.6</ele>
        <time>2022-11-30T13:20:13Z</time>
      </trkpt>
      <trkpt lat="50.04168" lon="2.27064">
        <ele>96.7</ele>
        <time>2022-11-30T13:20:15Z</time>
      </trkpt>
      <trkpt lat="50.04168" lon="2.27065">
        <ele>96.7</ele>
        <time>2022-11-30T13:20:16Z</time>
      </trkpt>
      <trkpt lat="50.04169" lon="2.27064">
        <ele>96.8</ele>
        <time>2022-11-30T13:20:17Z</time>
      </trkpt>
      <trkpt lat="50.04169" lon="2.27064">
        <ele>96.8</ele>
        <time>2022-11-30T13:20:18Z</time>
      </trkpt>
      <trkpt lat="50.0417" lon="2.27064">
        <ele>96.9</ele>
        <time>2022-11-30T13:20:19Z</time>
      </trkpt>
      <trkpt lat="50.04171" lon="2.27064">
        <ele>97</ele>
        <time>2022-11-30T13:20:20Z</time>
      </trkpt>
      <trkpt lat="50.04172" lon="2.27064">
        <ele>97.1</ele>
        <time>2022-11-30T13:20:21Z</time>
      </trkpt>
      <trkpt lat="50.04173" lon="2.27063">
        <ele>97.2</ele>
        <time>2022-11-30T13:20:23Z</time>
      </trkpt>
      <trkpt lat="50.04174" lon="2.27063">
        <ele>97.3</ele>
        <time>2022-11-30T13:20:24Z</time>
      </trkpt>
      <trkpt lat="50.04175" lon="2.27063">
        <ele>97.4</ele>
        <time>2022-11-30T13:20:25Z</time>
      </trkpt>
      <trkpt lat="50.04176" lon="2.27063">
        <ele>97.5</ele>
        <time>2022-11-30T13:20:26Z</time>
      </trkpt>
      <trkpt lat="50.04177" lon="2.27063">
        <ele>97.6</ele>
        <time>2022-11-30T13:20:27Z</time>
      </trkpt>
      <trkpt lat="50.04178" lon="2.27063">
        <ele>97.7</ele>
        <time>2022-11-30T13:20:29Z</time>
      </trkpt>
      <trkpt lat="50.04179" lon="2.27064">
        <ele>97.8</ele>
        <time>2022-11-30T13:20:30Z</time>
      </trkpt>
      <trkpt lat="50.0418" lon="2.27064">
        <ele>97.9</ele>
        <time>2022-11-30T13:20:31Z</time>
      </trkpt>
      <trkpt lat="50.04181" lon="2.27064">
        <ele>98</ele>
        <time>2022-11-30T13:20:32Z</time>
      </trkpt>
      <trkpt lat="50.04182" lon="2.27064">
        <ele>98.1</ele>
        <time>2022-11-30T13:20:34Z</time>
      </trkpt>
      <trkpt lat="50.04183" lon="2.27064">
        <ele>98.2</ele>
        <time>2022-11-30T13:20:35Z</time>
      </trkpt>
      <trkpt lat="50.04183" lon="2.27064">
        <ele>98.2</ele>
        <time>2022-11-30T13:20:36Z</time>
      </trkpt>
      <trkpt lat="50.04183" lon="2.27065">
        <ele>98.2</ele>
        <time>2022-11-30T13:20:37Z</time>
      </trkpt>
      <trkpt lat="50.04184" lon="2.27065">
        <ele>98.3</ele>
        <time>2022-11-30T13:20:38Z</time>
      </trkpt>
      <trkpt lat="50.04184" lon="2.27065">
        <ele>98.3</ele>
        <time>2022-11-30T13:20:39Z</time>
      </trkpt>
      <trkpt lat="50.04185" lon="2.27065">
        <ele>98.4</ele>
        <time>2022-11-30T13:20:40Z</time>
      </trkpt>
      <trkpt lat="50.04186" lon="2.27065">
        <ele>98.5</ele>
        <time>2022-11-30T13:20:41Z</time>
      </trkpt>
      <trkpt lat="50.04186" lon="2.27065">
        <ele>98.6</ele>
        <time>2022-11-30T13:20:43Z</time>
      </trkpt>
      <trkpt lat="50.04187" lon="2.27066">
        <ele>98.6</ele>
        <time>2022-11-30T13:20:44Z</time>
      </trkpt>
      <trkpt lat="50.04188" lon="2.27066">
        <ele>98.7</ele>
        <time>2022-11-30T13:20:45Z</time>
      </trkpt>
      <trkpt lat="50.04189" lon="2.27066">
        <ele>98.8</ele>
        <time>2022-11-30T13:20:46Z</time>
      </trkpt>
      <trkpt lat="50.0419" lon="2.27066">
        <ele>99</ele>
        <time>2022-11-30T13:20:48Z</time>
      </trkpt>
      <trkpt lat="50.04192" lon="2.27066">
        <ele>99.1</ele>
        <time>2022-11-30T13:20:49Z</time>
      </trkpt>
      <trkpt lat="50.04193" lon="2.27066">
        <ele>99.2</ele>
        <time>2022-11-30T13:20:50Z</time>
      </trkpt>
      <trkpt lat="50.04194" lon="2.27066">
        <ele>99.4</ele>
        <time>2022-11-30T13:20:51Z</time>
      </trkpt>
      <trkpt lat="50.04195" lon="2.27065">
        <ele>99.5</ele>
        <time>2022-11-30T13:20:53Z</time>
      </trkpt>
      <trkpt lat="50.04196" lon="2.27065">
        <ele>99.6</ele>
        <time>2022-11-30T13:20:54Z</time>
      </trkpt>
      <trkpt lat="50.04197" lon="2.27065">
        <ele>99.7</ele>
        <time>2022-11-30T13:20:55Z</time>
      </trkpt>
      <trkpt lat="50.04199" lon="2.27065">
        <ele>99.9</ele>
        <time>2022-11-30T13:20:56Z</time>
      </trkpt>
      <trkpt lat="50.042" lon="2.27065">
        <ele>100</ele>
        <time>2022-11-30T13:20:58Z</time>
      </trkpt>
      <trkpt lat="50.04201" lon="2.27065">
        <ele>100.1</ele>
        <time>2022-11-30T13:20:59Z</time>
      </trkpt>
      <trkpt lat="50.04202" lon="2.27065">
        <ele>100.2</ele>
        <time>2022-11-30T13:21:00Z</time>
      </trkpt>
      <trkpt lat="50.04203" lon="2.27065">
        <ele>100.3</ele>
        <time>2022-11-30T13:21:01Z</time>
      </trkpt>
      <trkpt lat="50.04204" lon="2.27065">
        <ele>100.4</ele>
        <time>2022-11-30T13:21:02Z</time>
      </trkpt>
      <trkpt lat="50.04205" lon="2.27064">
        <ele>100.5</ele>
        <time>2022-11-30T13:21:03Z</time>
      </trkpt>
      <trkpt lat="50.04207" lon="2.27064">
        <ele>100.6</ele>
        <time>2022-11-30T13:21:04Z</time>
      </trkpt>
      <trkpt lat="50.04209" lon="2.27064">
        <ele>100.9</ele>
        <time>2022-11-30T13:21:05Z</time>
      </trkpt>
      <trkpt lat="50.0421" lon="2.27064">
        <ele>101</ele>
        <time>2022-11-30T13:21:07Z</time>
      </trkpt>
      <trkpt lat="50.04211" lon="2.27064">
        <ele>101.1</ele>
        <time>2022-11-30T13:21:08Z</time>
      </trkpt>
      <trkpt lat="50.04212" lon="2.27064">
        <ele>101.2</ele>
        <time>2022-11-30T13:21:09Z</time>
      </trkpt>
      <trkpt lat="50.04214" lon="2.27064">
        <ele>101.3</ele>
        <time>2022-11-30T13:21:10Z</time>
      </trkpt>
      <trkpt lat="50.04216" lon="2.27065">
        <ele>101.5</ele>
        <time>2022-11-30T13:21:11Z</time>
      </trkpt>
      <trkpt lat="50.04216" lon="2.27065">
        <ele>101.6</ele>
        <time>2022-11-30T13:21:12Z</time>
      </trkpt>
      <trkpt lat="50.04217" lon="2.27065">
        <ele>101.7</ele>
        <time>2022-11-30T13:21:13Z</time>
      </trkpt>
      <trkpt lat="50.04218" lon="2.27065">
        <ele>101.8</ele>
        <time>2022-11-30T13:21:14Z</time>
      </trkpt>
      <trkpt lat="50.04219" lon="2.27065">
        <ele>101.9</ele>
        <time>2022-11-30T13:21:15Z</time>
      </trkpt>
      <trkpt lat="50.0422" lon="2.27065">
        <ele>101.9</ele>
        <time>2022-11-30T13:21:16Z</time>
      </trkpt>
      <trkpt lat="50.04221" lon="2.27065">
        <ele>102</ele>
        <time>2022-11-30T13:21:17Z</time>
      </trkpt>
      <trkpt lat="50.04222" lon="2.27065">
        <ele>102.1</ele>
        <time>2022-11-30T13:21:18Z</time>
      </trkpt>
      <trkpt lat="50.04223" lon="2.27065">
        <ele>102.2</ele>
        <time>2022-11-30T13:21:19Z</time>
      </trkpt>
      <trkpt lat="50.04224" lon="2.27065">
        <ele>102.3</ele>
        <time>2022-11-30T13:21:21Z</time>
      </trkpt>
      <trkpt lat="50.04225" lon="2.27065">
        <ele>102.3</ele>
        <time>2022-11-30T13:21:22Z</time>
      </trkpt>
      <trkpt lat="50.04226" lon="2.27065">
        <ele>102.4</ele>
        <time>2022-11-30T13:21:23Z</time>
      </trkpt>
      <trkpt lat="50.04226" lon="2.27065">
        <ele>102.4</ele>
        <time>2022-11-30T13:21:24Z</time>
      </trkpt>
      <trkpt lat="50.04226" lon="2.27065">
        <ele>102.5</ele>
        <time>2022-11-30T13:21:25Z</time>
      </trkpt>
      <trkpt lat="50.04227" lon="2.27065">
        <ele>102.5</ele>
        <time>2022-11-30T13:21:26Z</time>
      </trkpt>
      <trkpt lat="50.04228" lon="2.27065">
        <ele>102.6</ele>
        <time>2022-11-30T13:21:27Z</time>
      </trkpt>
      <trkpt lat="50.04229" lon="2.27065">
        <ele>102.7</ele>
        <time>2022-11-30T13:21:28Z</time>
      </trkpt>
      <trkpt lat="50.0423" lon="2.27066">
        <ele>102.8</ele>
        <time>2022-11-30T13:21:30Z</time>
      </trkpt>
      <trkpt lat="50.04231" lon="2.27066">
        <ele>102.9</ele>
        <time>2022-11-30T13:21:31Z</time>
      </trkpt>
      <trkpt lat="50.04232" lon="2.27066">
        <ele>103</ele>
        <time>2022-11-30T13:21:32Z</time>
      </trkpt>
      <trkpt lat="50.04233" lon="2.27067">
        <ele>103.1</ele>
        <time>2022-11-30T13:21:33Z</time>
      </trkpt>
      <trkpt lat="50.04235" lon="2.27067">
        <ele>103.3</ele>
        <time>2022-11-30T13:21:34Z</time>
      </trkpt>
      <trkpt lat="50.04236" lon="2.27067">
        <ele>103.3</ele>
        <time>2022-11-30T13:21:35Z</time>
      </trkpt>
      <trkpt lat="50.04237" lon="2.27067">
        <ele>103.4</ele>
        <time>2022-11-30T13:21:36Z</time>
      </trkpt>
      <trkpt lat="50.04239" lon="2.27068">
        <ele>103.7</ele>
        <time>2022-11-30T13:21:37Z</time>
      </trkpt>
      <trkpt lat="50.04241" lon="2.27069">
        <ele>103.8</ele>
        <time>2022-11-30T13:21:38Z</time>
      </trkpt>
      <trkpt lat="50.04244" lon="2.2707">
        <ele>104.1</ele>
        <time>2022-11-30T13:21:39Z</time>
      </trkpt>
      <trkpt lat="50.04247" lon="2.27071">
        <ele>104.4</ele>
        <time>2022-11-30T13:21:40Z</time>
      </trkpt>
      <trkpt lat="50.04249" lon="2.27071">
        <ele>104.5</ele>
        <time>2022-11-30T13:21:41Z</time>
      </trkpt>
      <trkpt lat="50.04251" lon="2.27072">
        <ele>104.7</ele>
        <time>2022-11-30T13:21:42Z</time>
      </trkpt>
      <trkpt lat="50.04253" lon="2.27073">
        <ele>104.8</ele>
        <time>2022-11-30T13:21:44Z</time>
      </trkpt>
      <trkpt lat="50.04254" lon="2.27073">
        <ele>104.9</ele>
        <time>2022-11-30T13:21:45Z</time>
      </trkpt>
      <trkpt lat="50.04256" lon="2.27074">
        <ele>105</ele>
        <time>2022-11-30T13:21:46Z</time>
      </trkpt>
      <trkpt lat="50.04258" lon="2.27074">
        <ele>105.2</ele>
        <time>2022-11-30T13:21:47Z</time>
      </trkpt>
      <trkpt lat="50.04258" lon="2.27074">
        <ele>105.3</ele>
        <time>2022-11-30T13:21:48Z</time>
      </trkpt>
      <trkpt lat="50.04259" lon="2.27075">
        <ele>105.3</ele>
        <time>2022-11-30T13:21:49Z</time>
      </trkpt>
      <trkpt lat="50.04261" lon="2.27075">
        <ele>105.4</ele>
        <time>2022-11-30T13:21:50Z</time>
      </trkpt>
      <trkpt lat="50.04262" lon="2.27075">
        <ele>105.5</ele>
        <time>2022-11-30T13:21:51Z</time>
      </trkpt>
      <trkpt lat="50.04264" lon="2.27076">
        <ele>105.7</ele>
        <time>2022-11-30T13:21:53Z</time>
      </trkpt>
      <trkpt lat="50.04265" lon="2.27076">
        <ele>105.7</ele>
        <time>2022-11-30T13:21:54Z</time>
      </trkpt>
      <trkpt lat="50.04266" lon="2.27076">
        <ele>105.8</ele>
        <time>2022-11-30T13:21:55Z</time>
      </trkpt>
      <trkpt lat="50.04267" lon="2.27076">
        <ele>105.8</ele>
        <time>2022-11-30T13:21:56Z</time>
      </trkpt>
      <trkpt lat="50.04268" lon="2.27076">
        <ele>105.9</ele>
        <time>2022-11-30T13:21:57Z</time>
      </trkpt>
      <trkpt lat="50.04269" lon="2.27077">
        <ele>106</ele>
        <time>2022-11-30T13:21:58Z</time>
      </trkpt>
      <trkpt lat="50.0427" lon="2.27077">
        <ele>106</ele>
        <time>2022-11-30T13:21:59Z</time>
      </trkpt>
      <trkpt lat="50.0427" lon="2.27078">
        <ele>106.1</ele>
        <time>2022-11-30T13:22:00Z</time>
      </trkpt>
      <trkpt lat="50.04271" lon="2.27078">
        <ele>106.1</ele>
        <time>2022-11-30T13:22:01Z</time>
      </trkpt>
      <trkpt lat="50.04273" lon="2.27079">
        <ele>106.3</ele>
        <time>2022-11-30T13:22:02Z</time>
      </trkpt>
      <trkpt lat="50.04274" lon="2.27079">
        <ele>106.3</ele>
        <time>2022-11-30T13:22:03Z</time>
      </trkpt>
      <trkpt lat="50.04275" lon="2.2708">
        <ele>106.4</ele>
        <time>2022-11-30T13:22:04Z</time>
      </trkpt>
      <trkpt lat="50.04276" lon="2.2708">
        <ele>106.4</ele>
        <time>2022-11-30T13:22:06Z</time>
      </trkpt>
      <trkpt lat="50.04277" lon="2.2708">
        <ele>106.5</ele>
        <time>2022-11-30T13:22:07Z</time>
      </trkpt>
      <trkpt lat="50.04278" lon="2.27081">
        <ele>106.6</ele>
        <time>2022-11-30T13:22:08Z</time>
      </trkpt>
      <trkpt lat="50.04279" lon="2.27081">
        <ele>106.6</ele>
        <time>2022-11-30T13:22:09Z</time>
      </trkpt>
      <trkpt lat="50.0428" lon="2.27081">
        <ele>106.7</ele>
        <time>2022-11-30T13:22:10Z</time>
      </trkpt>
      <trkpt lat="50.04281" lon="2.27081">
        <ele>106.8</ele>
        <time>2022-11-30T13:22:11Z</time>
      </trkpt>
      <trkpt lat="50.04282" lon="2.27082">
        <ele>106.8</ele>
        <time>2022-11-30T13:22:13Z</time>
      </trkpt>
      <trkpt lat="50.04283" lon="2.27082">
        <ele>106.9</ele>
        <time>2022-11-30T13:22:14Z</time>
      </trkpt>
      <trkpt lat="50.04284" lon="2.27083">
        <ele>106.9</ele>
        <time>2022-11-30T13:22:15Z</time>
      </trkpt>
      <trkpt lat="50.04286" lon="2.27084">
        <ele>107</ele>
        <time>2022-11-30T13:22:16Z</time>
      </trkpt>
      <trkpt lat="50.04287" lon="2.27084">
        <ele>107.1</ele>
        <time>2022-11-30T13:22:17Z</time>
      </trkpt>
      <trkpt lat="50.04288" lon="2.27084">
        <ele>107.1</ele>
        <time>2022-11-30T13:22:18Z</time>
      </trkpt>
      <trkpt lat="50.0429" lon="2.27085">
        <ele>107.2</ele>
        <time>2022-11-30T13:22:19Z</time>
      </trkpt>
      <trkpt lat="50.04292" lon="2.27086">
        <ele>107.3</ele>
        <time>2022-11-30T13:22:21Z</time>
      </trkpt>
      <trkpt lat="50.04293" lon="2.27086">
        <ele>107.3</ele>
        <time>2022-11-30T13:22:22Z</time>
      </trkpt>
      <trkpt lat="50.04294" lon="2.27087">
        <ele>107.4</ele>
        <time>2022-11-30T13:22:23Z</time>
      </trkpt>
      <trkpt lat="50.04295" lon="2.27088">
        <ele>107.4</ele>
        <time>2022-11-30T13:22:24Z</time>
      </trkpt>
      <trkpt lat="50.04296" lon="2.27088">
        <ele>107.5</ele>
        <time>2022-11-30T13:22:25Z</time>
      </trkpt>
      <trkpt lat="50.04297" lon="2.27089">
        <ele>107.5</ele>
        <time>2022-11-30T13:22:26Z</time>
      </trkpt>
      <trkpt lat="50.04298" lon="2.2709">
        <ele>107.6</ele>
        <time>2022-11-30T13:22:28Z</time>
      </trkpt>
      <trkpt lat="50.043" lon="2.27091">
        <ele>107.7</ele>
        <time>2022-11-30T13:22:29Z</time>
      </trkpt>
      <trkpt lat="50.04301" lon="2.27092">
        <ele>107.7</ele>
        <time>2022-11-30T13:22:30Z</time>
      </trkpt>
      <trkpt lat="50.04301" lon="2.27092">
        <ele>107.7</ele>
        <time>2022-11-30T13:22:31Z</time>
      </trkpt>
      <trkpt lat="50.04304" lon="2.27094">
        <ele>107.9</ele>
        <time>2022-11-30T13:22:32Z</time>
      </trkpt>
      <trkpt lat="50.04305" lon="2.27095">
        <ele>107.9</ele>
        <time>2022-11-30T13:22:33Z</time>
      </trkpt>
      <trkpt lat="50.04307" lon="2.27096">
        <ele>108</ele>
        <time>2022-11-30T13:22:35Z</time>
      </trkpt>
      <trkpt lat="50.04308" lon="2.27096">
        <ele>108.1</ele>
        <time>2022-11-30T13:22:36Z</time>
      </trkpt>
      <trkpt lat="50.0431" lon="2.27097">
        <ele>108.1</ele>
        <time>2022-11-30T13:22:37Z</time>
      </trkpt>
      <trkpt lat="50.04311" lon="2.27097">
        <ele>108.2</ele>
        <time>2022-11-30T13:22:38Z</time>
      </trkpt>
      <trkpt lat="50.04313" lon="2.27097">
        <ele>108.3</ele>
        <time>2022-11-30T13:22:39Z</time>
      </trkpt>
      <trkpt lat="50.04314" lon="2.27097">
        <ele>108.3</ele>
        <time>2022-11-30T13:22:40Z</time>
      </trkpt>
      <trkpt lat="50.04316" lon="2.27098">
        <ele>108.5</ele>
        <time>2022-11-30T13:22:41Z</time>
      </trkpt>
      <trkpt lat="50.04317" lon="2.27099">
        <ele>108.5</ele>
        <time>2022-11-30T13:22:43Z</time>
      </trkpt>
      <trkpt lat="50.04318" lon="2.27099">
        <ele>108.5</ele>
        <time>2022-11-30T13:22:44Z</time>
      </trkpt>
      <trkpt lat="50.04319" lon="2.271">
        <ele>108.6</ele>
        <time>2022-11-30T13:22:45Z</time>
      </trkpt>
      <trkpt lat="50.0432" lon="2.271">
        <ele>108.7</ele>
        <time>2022-11-30T13:22:46Z</time>
      </trkpt>
      <trkpt lat="50.04321" lon="2.27101">
        <ele>108.7</ele>
        <time>2022-11-30T13:22:47Z</time>
      </trkpt>
      <trkpt lat="50.04322" lon="2.27101">
        <ele>108.8</ele>
        <time>2022-11-30T13:22:48Z</time>
      </trkpt>
      <trkpt lat="50.04323" lon="2.27101">
        <ele>108.8</ele>
        <time>2022-11-30T13:22:50Z</time>
      </trkpt>
      <trkpt lat="50.04325" lon="2.27102">
        <ele>108.9</ele>
        <time>2022-11-30T13:22:51Z</time>
      </trkpt>
      <trkpt lat="50.04326" lon="2.27102">
        <ele>109</ele>
        <time>2022-11-30T13:22:52Z</time>
      </trkpt>
      <trkpt lat="50.04327" lon="2.27103">
        <ele>109</ele>
        <time>2022-11-30T13:22:53Z</time>
      </trkpt>
      <trkpt lat="50.04328" lon="2.27103">
        <ele>109.1</ele>
        <time>2022-11-30T13:22:54Z</time>
      </trkpt>
      <trkpt lat="50.04329" lon="2.27103">
        <ele>109.2</ele>
        <time>2022-11-30T13:22:55Z</time>
      </trkpt>
      <trkpt lat="50.04331" lon="2.27104">
        <ele>109.3</ele>
        <time>2022-11-30T13:22:57Z</time>
      </trkpt>
      <trkpt lat="50.04331" lon="2.27104">
        <ele>109.3</ele>
        <time>2022-11-30T13:22:58Z</time>
      </trkpt>
      <trkpt lat="50.04333" lon="2.27105">
        <ele>109.4</ele>
        <time>2022-11-30T13:22:59Z</time>
      </trkpt>
      <trkpt lat="50.04333" lon="2.27105">
        <ele>109.4</ele>
        <time>2022-11-30T13:23:00Z</time>
      </trkpt>
      <trkpt lat="50.04334" lon="2.27105">
        <ele>109.5</ele>
        <time>2022-11-30T13:23:01Z</time>
      </trkpt>
      <trkpt lat="50.04334" lon="2.27105">
        <ele>109.5</ele>
        <time>2022-11-30T13:23:02Z</time>
      </trkpt>
      <trkpt lat="50.04335" lon="2.27106">
        <ele>109.5</ele>
        <time>2022-11-30T13:23:03Z</time>
      </trkpt>
      <trkpt lat="50.04336" lon="2.27106">
        <ele>109.6</ele>
        <time>2022-11-30T13:23:04Z</time>
      </trkpt>
      <trkpt lat="50.04337" lon="2.27106">
        <ele>109.7</ele>
        <time>2022-11-30T13:23:05Z</time>
      </trkpt>
      <trkpt lat="50.04338" lon="2.27106">
        <ele>109.7</ele>
        <time>2022-11-30T13:23:06Z</time>
      </trkpt>
      <trkpt lat="50.04339" lon="2.27107">
        <ele>109.8</ele>
        <time>2022-11-30T13:23:07Z</time>
      </trkpt>
      <trkpt lat="50.0434" lon="2.27107">
        <ele>109.9</ele>
        <time>2022-11-30T13:23:08Z</time>
      </trkpt>
      <trkpt lat="50.04341" lon="2.27108">
        <ele>109.9</ele>
        <time>2022-11-30T13:23:09Z</time>
      </trkpt>
      <trkpt lat="50.04342" lon="2.27108">
        <ele>110</ele>
        <time>2022-11-30T13:23:10Z</time>
      </trkpt>
      <trkpt lat="50.04343" lon="2.27109">
        <ele>110</ele>
        <time>2022-11-30T13:23:11Z</time>
      </trkpt>
      <trkpt lat="50.04343" lon="2.27109">
        <ele>110.1</ele>
        <time>2022-11-30T13:23:12Z</time>
      </trkpt>
      <trkpt lat="50.04344" lon="2.27109">
        <ele>110.2</ele>
        <time>2022-11-30T13:23:13Z</time>
      </trkpt>
      <trkpt lat="50.04345" lon="2.27109">
        <ele>110.2</ele>
        <time>2022-11-30T13:23:14Z</time>
      </trkpt>
      <trkpt lat="50.04347" lon="2.2711">
        <ele>110.3</ele>
        <time>2022-11-30T13:23:15Z</time>
      </trkpt>
      <trkpt lat="50.04349" lon="2.27111">
        <ele>110.5</ele>
        <time>2022-11-30T13:23:16Z</time>
      </trkpt>
      <trkpt lat="50.0435" lon="2.27111">
        <ele>110.6</ele>
        <time>2022-11-30T13:23:18Z</time>
      </trkpt>
      <trkpt lat="50.04351" lon="2.27111">
        <ele>110.6</ele>
        <time>2022-11-30T13:23:19Z</time>
      </trkpt>
      <trkpt lat="50.04352" lon="2.27112">
        <ele>110.7</ele>
        <time>2022-11-30T13:23:20Z</time>
      </trkpt>
      <trkpt lat="50.04353" lon="2.27112">
        <ele>110.8</ele>
        <time>2022-11-30T13:23:21Z</time>
      </trkpt>
      <trkpt lat="50.04355" lon="2.27113">
        <ele>110.9</ele>
        <time>2022-11-30T13:23:22Z</time>
      </trkpt>
      <trkpt lat="50.04356" lon="2.27113">
        <ele>111</ele>
        <time>2022-11-30T13:23:23Z</time>
      </trkpt>
      <trkpt lat="50.04357" lon="2.27113">
        <ele>111.1</ele>
        <time>2022-11-30T13:23:25Z</time>
      </trkpt>
      <trkpt lat="50.04358" lon="2.27114">
        <ele>111.1</ele>
        <time>2022-11-30T13:23:26Z</time>
      </trkpt>
      <trkpt lat="50.04359" lon="2.27114">
        <ele>111.2</ele>
        <time>2022-11-30T13:23:27Z</time>
      </trkpt>
      <trkpt lat="50.04361" lon="2.27115">
        <ele>111.3</ele>
        <time>2022-11-30T13:23:28Z</time>
      </trkpt>
      <trkpt lat="50.04362" lon="2.27115">
        <ele>111.4</ele>
        <time>2022-11-30T13:23:29Z</time>
      </trkpt>
      <trkpt lat="50.04363" lon="2.27115">
        <ele>111.5</ele>
        <time>2022-11-30T13:23:30Z</time>
      </trkpt>
      <trkpt lat="50.04364" lon="2.27116">
        <ele>111.6</ele>
        <time>2022-11-30T13:23:32Z</time>
      </trkpt>
      <trkpt lat="50.04365" lon="2.27116">
        <ele>111.6</ele>
        <time>2022-11-30T13:23:33Z</time>
      </trkpt>
      <trkpt lat="50.04366" lon="2.27116">
        <ele>111.7</ele>
        <time>2022-11-30T13:23:34Z</time>
      </trkpt>
      <trkpt lat="50.04367" lon="2.27116">
        <ele>111.7</ele>
        <time>2022-11-30T13:23:35Z</time>
      </trkpt>
      <trkpt lat="50.04368" lon="2.27116">
        <ele>111.8</ele>
        <time>2022-11-30T13:23:36Z</time>
      </trkpt>
      <trkpt lat="50.04369" lon="2.27117">
        <ele>111.9</ele>
        <time>2022-11-30T13:23:38Z</time>
      </trkpt>
      <trkpt lat="50.0437" lon="2.27117">
        <ele>112</ele>
        <time>2022-11-30T13:23:39Z</time>
      </trkpt>
      <trkpt lat="50.04371" lon="2.27118">
        <ele>112.1</ele>
        <time>2022-11-30T13:23:40Z</time>
      </trkpt>
      <trkpt lat="50.04372" lon="2.27118">
        <ele>112.1</ele>
        <time>2022-11-30T13:23:41Z</time>
      </trkpt>
      <trkpt lat="50.04373" lon="2.27119">
        <ele>112.2</ele>
        <time>2022-11-30T13:23:42Z</time>
      </trkpt>
      <trkpt lat="50.04374" lon="2.2712">
        <ele>112.3</ele>
        <time>2022-11-30T13:23:43Z</time>
      </trkpt>
      <trkpt lat="50.04375" lon="2.2712">
        <ele>112.4</ele>
        <time>2022-11-30T13:23:44Z</time>
      </trkpt>
      <trkpt lat="50.04376" lon="2.27121">
        <ele>112.5</ele>
        <time>2022-11-30T13:23:45Z</time>
      </trkpt>
      <trkpt lat="50.04377" lon="2.27121">
        <ele>112.5</ele>
        <time>2022-11-30T13:23:46Z</time>
      </trkpt>
      <trkpt lat="50.04378" lon="2.27122">
        <ele>112.6</ele>
        <time>2022-11-30T13:23:47Z</time>
      </trkpt>
      <trkpt lat="50.04379" lon="2.27122">
        <ele>112.7</ele>
        <time>2022-11-30T13:23:48Z</time>
      </trkpt>
      <trkpt lat="50.0438" lon="2.27123">
        <ele>112.7</ele>
        <time>2022-11-30T13:23:49Z</time>
      </trkpt>
      <trkpt lat="50.04381" lon="2.27124">
        <ele>112.8</ele>
        <time>2022-11-30T13:23:50Z</time>
      </trkpt>
      <trkpt lat="50.04382" lon="2.27125">
        <ele>112.9</ele>
        <time>2022-11-30T13:23:51Z</time>
      </trkpt>
      <trkpt lat="50.04384" lon="2.27125">
        <ele>113</ele>
        <time>2022-11-30T13:23:52Z</time>
      </trkpt>
      <trkpt lat="50.04385" lon="2.27126">
        <ele>113.2</ele>
        <time>2022-11-30T13:23:53Z</time>
      </trkpt>
      <trkpt lat="50.04387" lon="2.27127">
        <ele>113.3</ele>
        <time>2022-11-30T13:23:55Z</time>
      </trkpt>
      <trkpt lat="50.04388" lon="2.27128">
        <ele>113.4</ele>
        <time>2022-11-30T13:23:56Z</time>
      </trkpt>
      <trkpt lat="50.04389" lon="2.27128">
        <ele>113.4</ele>
        <time>2022-11-30T13:23:57Z</time>
      </trkpt>
      <trkpt lat="50.0439" lon="2.27129">
        <ele>113.5</ele>
        <time>2022-11-30T13:23:58Z</time>
      </trkpt>
      <trkpt lat="50.04391" lon="2.2713">
        <ele>113.7</ele>
        <time>2022-11-30T13:23:59Z</time>
      </trkpt>
      <trkpt lat="50.04393" lon="2.27132">
        <ele>113.8</ele>
        <time>2022-11-30T13:24:01Z</time>
      </trkpt>
      <trkpt lat="50.04394" lon="2.27133">
        <ele>113.9</ele>
        <time>2022-11-30T13:24:02Z</time>
      </trkpt>
      <trkpt lat="50.04396" lon="2.27134">
        <ele>114.1</ele>
        <time>2022-11-30T13:24:03Z</time>
      </trkpt>
      <trkpt lat="50.04397" lon="2.27135">
        <ele>114.2</ele>
        <time>2022-11-30T13:24:04Z</time>
      </trkpt>
      <trkpt lat="50.04399" lon="2.27136">
        <ele>114.3</ele>
        <time>2022-11-30T13:24:05Z</time>
      </trkpt>
      <trkpt lat="50.044" lon="2.27136">
        <ele>114.4</ele>
        <time>2022-11-30T13:24:07Z</time>
      </trkpt>
      <trkpt lat="50.04401" lon="2.27137">
        <ele>114.5</ele>
        <time>2022-11-30T13:24:08Z</time>
      </trkpt>
      <trkpt lat="50.04402" lon="2.27138">
        <ele>114.5</ele>
        <time>2022-11-30T13:24:09Z</time>
      </trkpt>
      <trkpt lat="50.04403" lon="2.27138">
        <ele>114.6</ele>
        <time>2022-11-30T13:24:10Z</time>
      </trkpt>
      <trkpt lat="50.04404" lon="2.27139">
        <ele>114.7</ele>
        <time>2022-11-30T13:24:11Z</time>
      </trkpt>
      <trkpt lat="50.04405" lon="2.2714">
        <ele>114.8</ele>
        <time>2022-11-30T13:24:12Z</time>
      </trkpt>
      <trkpt lat="50.04406" lon="2.2714">
        <ele>114.9</ele>
        <time>2022-11-30T13:24:14Z</time>
      </trkpt>
      <trkpt lat="50.04407" lon="2.2714">
        <ele>114.9</ele>
        <time>2022-11-30T13:24:15Z</time>
      </trkpt>
      <trkpt lat="50.04408" lon="2.2714">
        <ele>115</ele>
        <time>2022-11-30T13:24:16Z</time>
      </trkpt>
      <trkpt lat="50.04408" lon="2.2714">
        <ele>115</ele>
        <time>2022-11-30T13:24:17Z</time>
      </trkpt>
      <trkpt lat="50.04409" lon="2.2714">
        <ele>115.1</ele>
        <time>2022-11-30T13:24:18Z</time>
      </trkpt>
      <trkpt lat="50.0441" lon="2.2714">
        <ele>115.1</ele>
        <time>2022-11-30T13:24:19Z</time>
      </trkpt>
      <trkpt lat="50.0441" lon="2.2714">
        <ele>115.1</ele>
        <time>2022-11-30T13:24:20Z</time>
      </trkpt>
      <trkpt lat="50.04411" lon="2.2714">
        <ele>115.2</ele>
        <time>2022-11-30T13:24:21Z</time>
      </trkpt>
      <trkpt lat="50.04412" lon="2.27141">
        <ele>115.2</ele>
        <time>2022-11-30T13:24:22Z</time>
      </trkpt>
      <trkpt lat="50.04412" lon="2.2714">
        <ele>115.2</ele>
        <time>2022-11-30T13:24:24Z</time>
      </trkpt>
      <trkpt lat="50.04413" lon="2.2714">
        <ele>115.3</ele>
        <time>2022-11-30T13:24:25Z</time>
      </trkpt>
      <trkpt lat="50.04414" lon="2.2714">
        <ele>115.3</ele>
        <time>2022-11-30T13:24:26Z</time>
      </trkpt>
      <trkpt lat="50.04414" lon="2.2714">
        <ele>115.4</ele>
        <time>2022-11-30T13:24:27Z</time>
      </trkpt>
      <trkpt lat="50.04415" lon="2.2714">
        <ele>115.4</ele>
        <time>2022-11-30T13:24:28Z</time>
      </trkpt>
      <trkpt lat="50.04417" lon="2.2714">
        <ele>115.5</ele>
        <time>2022-11-30T13:24:29Z</time>
      </trkpt>
      <trkpt lat="50.04418" lon="2.2714">
        <ele>115.6</ele>
        <time>2022-11-30T13:24:30Z</time>
      </trkpt>
      <trkpt lat="50.04419" lon="2.2714">
        <ele>115.6</ele>
        <time>2022-11-30T13:24:32Z</time>
      </trkpt>
      <trkpt lat="50.0442" lon="2.27139">
        <ele>115.7</ele>
        <time>2022-11-30T13:24:33Z</time>
      </trkpt>
      <trkpt lat="50.04421" lon="2.27139">
        <ele>115.7</ele>
        <time>2022-11-30T13:24:34Z</time>
      </trkpt>
      <trkpt lat="50.04422" lon="2.27139">
        <ele>115.8</ele>
        <time>2022-11-30T13:24:35Z</time>
      </trkpt>
      <trkpt lat="50.04424" lon="2.27139">
        <ele>115.9</ele>
        <time>2022-11-30T13:24:36Z</time>
      </trkpt>
      <trkpt lat="50.04425" lon="2.27139">
        <ele>115.9</ele>
        <time>2022-11-30T13:24:37Z</time>
      </trkpt>
      <trkpt lat="50.04427" lon="2.27139">
        <ele>116</ele>
        <time>2022-11-30T13:24:38Z</time>
      </trkpt>
      <trkpt lat="50.04429" lon="2.27139">
        <ele>116.1</ele>
        <time>2022-11-30T13:24:40Z</time>
      </trkpt>
      <trkpt lat="50.0443" lon="2.27139">
        <ele>116.2</ele>
        <time>2022-11-30T13:24:41Z</time>
      </trkpt>
      <trkpt lat="50.04432" lon="2.27139">
        <ele>116.3</ele>
        <time>2022-11-30T13:24:42Z</time>
      </trkpt>
      <trkpt lat="50.04434" lon="2.27139">
        <ele>116.3</ele>
        <time>2022-11-30T13:24:43Z</time>
      </trkpt>
      <trkpt lat="50.04435" lon="2.27139">
        <ele>116.4</ele>
        <time>2022-11-30T13:24:44Z</time>
      </trkpt>
      <trkpt lat="50.04437" lon="2.27139">
        <ele>116.4</ele>
        <time>2022-11-30T13:24:45Z</time>
      </trkpt>
      <trkpt lat="50.04438" lon="2.27139">
        <ele>116.5</ele>
        <time>2022-11-30T13:24:47Z</time>
      </trkpt>
      <trkpt lat="50.0444" lon="2.27139">
        <ele>116.6</ele>
        <time>2022-11-30T13:24:48Z</time>
      </trkpt>
      <trkpt lat="50.04441" lon="2.27139">
        <ele>116.6</ele>
        <time>2022-11-30T13:24:49Z</time>
      </trkpt>
      <trkpt lat="50.04443" lon="2.27138">
        <ele>116.7</ele>
        <time>2022-11-30T13:24:50Z</time>
      </trkpt>
      <trkpt lat="50.04444" lon="2.27138">
        <ele>116.7</ele>
        <time>2022-11-30T13:24:51Z</time>
      </trkpt>
      <trkpt lat="50.04445" lon="2.27138">
        <ele>116.8</ele>
        <time>2022-11-30T13:24:52Z</time>
      </trkpt>
      <trkpt lat="50.04447" lon="2.27138">
        <ele>116.8</ele>
        <time>2022-11-30T13:24:53Z</time>
      </trkpt>
      <trkpt lat="50.04448" lon="2.27139">
        <ele>116.9</ele>
        <time>2022-11-30T13:24:55Z</time>
      </trkpt>
      <trkpt lat="50.0445" lon="2.27139">
        <ele>116.9</ele>
        <time>2022-11-30T13:24:56Z</time>
      </trkpt>
      <trkpt lat="50.04451" lon="2.27139">
        <ele>117</ele>
        <time>2022-11-30T13:24:57Z</time>
      </trkpt>
      <trkpt lat="50.04453" lon="2.2714">
        <ele>117.1</ele>
        <time>2022-11-30T13:24:58Z</time>
      </trkpt>
      <trkpt lat="50.04454" lon="2.27141">
        <ele>117.1</ele>
        <time>2022-11-30T13:24:59Z</time>
      </trkpt>
      <trkpt lat="50.04455" lon="2.27141">
        <ele>117.1</ele>
        <time>2022-11-30T13:25:00Z</time>
      </trkpt>
      <trkpt lat="50.04456" lon="2.27141">
        <ele>117.2</ele>
        <time>2022-11-30T13:25:01Z</time>
      </trkpt>
      <trkpt lat="50.04458" lon="2.27142">
        <ele>117.2</ele>
        <time>2022-11-30T13:25:02Z</time>
      </trkpt>
      <trkpt lat="50.04459" lon="2.27142">
        <ele>117.3</ele>
        <time>2022-11-30T13:25:03Z</time>
      </trkpt>
      <trkpt lat="50.0446" lon="2.27142">
        <ele>117.3</ele>
        <time>2022-11-30T13:25:04Z</time>
      </trkpt>
      <trkpt lat="50.04462" lon="2.27142">
        <ele>117.4</ele>
        <time>2022-11-30T13:25:06Z</time>
      </trkpt>
      <trkpt lat="50.04464" lon="2.27143">
        <ele>117.5</ele>
        <time>2022-11-30T13:25:07Z</time>
      </trkpt>
      <trkpt lat="50.04465" lon="2.27143">
        <ele>117.5</ele>
        <time>2022-11-30T13:25:08Z</time>
      </trkpt>
      <trkpt lat="50.04465" lon="2.27143">
        <ele>117.5</ele>
        <time>2022-11-30T13:25:09Z</time>
      </trkpt>
      <trkpt lat="50.04468" lon="2.27143">
        <ele>117.6</ele>
        <time>2022-11-30T13:25:10Z</time>
      </trkpt>
      <trkpt lat="50.04468" lon="2.27143">
        <ele>117.6</ele>
        <time>2022-11-30T13:25:11Z</time>
      </trkpt>
      <trkpt lat="50.04469" lon="2.27144">
        <ele>117.7</ele>
        <time>2022-11-30T13:25:12Z</time>
      </trkpt>
      <trkpt lat="50.04471" lon="2.27144">
        <ele>117.7</ele>
        <time>2022-11-30T13:25:14Z</time>
      </trkpt>
      <trkpt lat="50.04472" lon="2.27144">
        <ele>117.8</ele>
        <time>2022-11-30T13:25:15Z</time>
      </trkpt>
      <trkpt lat="50.04473" lon="2.27144">
        <ele>117.8</ele>
        <time>2022-11-30T13:25:16Z</time>
      </trkpt>
      <trkpt lat="50.04475" lon="2.27144">
        <ele>117.9</ele>
        <time>2022-11-30T13:25:17Z</time>
      </trkpt>
      <trkpt lat="50.04475" lon="2.27143">
        <ele>117.9</ele>
        <time>2022-11-30T13:25:18Z</time>
      </trkpt>
      <trkpt lat="50.04476" lon="2.27143">
        <ele>118</ele>
        <time>2022-11-30T13:25:19Z</time>
      </trkpt>
      <trkpt lat="50.04478" lon="2.27143">
        <ele>118</ele>
        <time>2022-11-30T13:25:20Z</time>
      </trkpt>
      <trkpt lat="50.04479" lon="2.27143">
        <ele>118.1</ele>
        <time>2022-11-30T13:25:21Z</time>
      </trkpt>
      <trkpt lat="50.0448" lon="2.27143">
        <ele>118.1</ele>
        <time>2022-11-30T13:25:23Z</time>
      </trkpt>
      <trkpt lat="50.04481" lon="2.27143">
        <ele>118.1</ele>
        <time>2022-11-30T13:25:24Z</time>
      </trkpt>
      <trkpt lat="50.04482" lon="2.27143">
        <ele>118.2</ele>
        <time>2022-11-30T13:25:25Z</time>
      </trkpt>
      <trkpt lat="50.04483" lon="2.27143">
        <ele>118.2</ele>
        <time>2022-11-30T13:25:26Z</time>
      </trkpt>
      <trkpt lat="50.04485" lon="2.27142">
        <ele>118.3</ele>
        <time>2022-11-30T13:25:27Z</time>
      </trkpt>
      <trkpt lat="50.04486" lon="2.27142">
        <ele>118.4</ele>
        <time>2022-11-30T13:25:28Z</time>
      </trkpt>
      <trkpt lat="50.04487" lon="2.27141">
        <ele>118.4</ele>
        <time>2022-11-30T13:25:29Z</time>
      </trkpt>
      <trkpt lat="50.04489" lon="2.27141">
        <ele>118.5</ele>
        <time>2022-11-30T13:25:31Z</time>
      </trkpt>
      <trkpt lat="50.0449" lon="2.2714">
        <ele>118.5</ele>
        <time>2022-11-30T13:25:32Z</time>
      </trkpt>
      <trkpt lat="50.04491" lon="2.2714">
        <ele>118.6</ele>
        <time>2022-11-30T13:25:33Z</time>
      </trkpt>
      <trkpt lat="50.04492" lon="2.2714">
        <ele>118.6</ele>
        <time>2022-11-30T13:25:34Z</time>
      </trkpt>
      <trkpt lat="50.04493" lon="2.2714">
        <ele>118.7</ele>
        <time>2022-11-30T13:25:35Z</time>
      </trkpt>
      <trkpt lat="50.04494" lon="2.27141">
        <ele>118.7</ele>
        <time>2022-11-30T13:25:36Z</time>
      </trkpt>
      <trkpt lat="50.04496" lon="2.27141">
        <ele>118.8</ele>
        <time>2022-11-30T13:25:37Z</time>
      </trkpt>
      <trkpt lat="50.04496" lon="2.27141">
        <ele>118.8</ele>
        <time>2022-11-30T13:25:38Z</time>
      </trkpt>
      <trkpt lat="50.04497" lon="2.2714">
        <ele>118.9</ele>
        <time>2022-11-30T13:25:40Z</time>
      </trkpt>
      <trkpt lat="50.04498" lon="2.2714">
        <ele>118.9</ele>
        <time>2022-11-30T13:25:41Z</time>
      </trkpt>
      <trkpt lat="50.04499" lon="2.2714">
        <ele>119</ele>
        <time>2022-11-30T13:25:42Z</time>
      </trkpt>
      <trkpt lat="50.045" lon="2.2714">
        <ele>119</ele>
        <time>2022-11-30T13:25:43Z</time>
      </trkpt>
      <trkpt lat="50.04501" lon="2.2714">
        <ele>119</ele>
        <time>2022-11-30T13:25:44Z</time>
      </trkpt>
      <trkpt lat="50.04504" lon="2.2714">
        <ele>119.2</ele>
        <time>2022-11-30T13:25:45Z</time>
      </trkpt>
      <trkpt lat="50.04505" lon="2.2714">
        <ele>119.2</ele>
        <time>2022-11-30T13:25:46Z</time>
      </trkpt>
      <trkpt lat="50.04506" lon="2.2714">
        <ele>119.2</ele>
        <time>2022-11-30T13:25:48Z</time>
      </trkpt>
      <trkpt lat="50.04507" lon="2.2714">
        <ele>119.3</ele>
        <time>2022-11-30T13:25:49Z</time>
      </trkpt>
      <trkpt lat="50.04508" lon="2.2714">
        <ele>119.3</ele>
        <time>2022-11-30T13:25:50Z</time>
      </trkpt>
      <trkpt lat="50.04509" lon="2.27141">
        <ele>119.4</ele>
        <time>2022-11-30T13:25:51Z</time>
      </trkpt>
      <trkpt lat="50.0451" lon="2.27141">
        <ele>119.5</ele>
        <time>2022-11-30T13:25:52Z</time>
      </trkpt>
      <trkpt lat="50.04511" lon="2.27141">
        <ele>119.5</ele>
        <time>2022-11-30T13:25:53Z</time>
      </trkpt>
      <trkpt lat="50.04512" lon="2.27141">
        <ele>119.5</ele>
        <time>2022-11-30T13:25:54Z</time>
      </trkpt>
      <trkpt lat="50.04512" lon="2.27142">
        <ele>119.6</ele>
        <time>2022-11-30T13:25:56Z</time>
      </trkpt>
      <trkpt lat="50.04513" lon="2.27142">
        <ele>119.6</ele>
        <time>2022-11-30T13:25:57Z</time>
      </trkpt>
      <trkpt lat="50.04514" lon="2.27142">
        <ele>119.7</ele>
        <time>2022-11-30T13:25:58Z</time>
      </trkpt>
      <trkpt lat="50.04515" lon="2.27143">
        <ele>119.7</ele>
        <time>2022-11-30T13:25:59Z</time>
      </trkpt>
      <trkpt lat="50.04517" lon="2.27143">
        <ele>119.8</ele>
        <time>2022-11-30T13:26:00Z</time>
      </trkpt>
      <trkpt lat="50.04518" lon="2.27144">
        <ele>119.9</ele>
        <time>2022-11-30T13:26:01Z</time>
      </trkpt>
      <trkpt lat="50.04519" lon="2.27144">
        <ele>119.9</ele>
        <time>2022-11-30T13:26:02Z</time>
      </trkpt>
      <trkpt lat="50.04521" lon="2.27144">
        <ele>120</ele>
        <time>2022-11-30T13:26:04Z</time>
      </trkpt>
      <trkpt lat="50.04522" lon="2.27145">
        <ele>120.1</ele>
        <time>2022-11-30T13:26:05Z</time>
      </trkpt>
      <trkpt lat="50.04523" lon="2.27145">
        <ele>120.1</ele>
        <time>2022-11-30T13:26:06Z</time>
      </trkpt>
      <trkpt lat="50.04524" lon="2.27145">
        <ele>120.2</ele>
        <time>2022-11-30T13:26:07Z</time>
      </trkpt>
      <trkpt lat="50.04525" lon="2.27145">
        <ele>120.2</ele>
        <time>2022-11-30T13:26:08Z</time>
      </trkpt>
      <trkpt lat="50.04526" lon="2.27145">
        <ele>120.3</ele>
        <time>2022-11-30T13:26:09Z</time>
      </trkpt>
      <trkpt lat="50.04527" lon="2.27146">
        <ele>120.3</ele>
        <time>2022-11-30T13:26:10Z</time>
      </trkpt>
      <trkpt lat="50.04528" lon="2.27146">
        <ele>120.4</ele>
        <time>2022-11-30T13:26:12Z</time>
      </trkpt>
      <trkpt lat="50.04529" lon="2.27146">
        <ele>120.4</ele>
        <time>2022-11-30T13:26:13Z</time>
      </trkpt>
      <trkpt lat="50.0453" lon="2.27146">
        <ele>120.5</ele>
        <time>2022-11-30T13:26:14Z</time>
      </trkpt>
      <trkpt lat="50.04531" lon="2.27146">
        <ele>120.5</ele>
        <time>2022-11-30T13:26:15Z</time>
      </trkpt>
      <trkpt lat="50.04532" lon="2.27146">
        <ele>120.6</ele>
        <time>2022-11-30T13:26:16Z</time>
      </trkpt>
      <trkpt lat="50.04533" lon="2.27146">
        <ele>120.7</ele>
        <time>2022-11-30T13:26:17Z</time>
      </trkpt>
      <trkpt lat="50.04534" lon="2.27146">
        <ele>120.7</ele>
        <time>2022-11-30T13:26:19Z</time>
      </trkpt>
      <trkpt lat="50.04535" lon="2.27146">
        <ele>120.8</ele>
        <time>2022-11-30T13:26:20Z</time>
      </trkpt>
      <trkpt lat="50.04536" lon="2.27147">
        <ele>120.8</ele>
        <time>2022-11-30T13:26:21Z</time>
      </trkpt>
      <trkpt lat="50.04537" lon="2.27147">
        <ele>120.9</ele>
        <time>2022-11-30T13:26:22Z</time>
      </trkpt>
      <trkpt lat="50.04538" lon="2.27147">
        <ele>121</ele>
        <time>2022-11-30T13:26:23Z</time>
      </trkpt>
      <trkpt lat="50.04539" lon="2.27147">
        <ele>121</ele>
        <time>2022-11-30T13:26:25Z</time>
      </trkpt>
      <trkpt lat="50.0454" lon="2.27146">
        <ele>121.1</ele>
        <time>2022-11-30T13:26:26Z</time>
      </trkpt>
      <trkpt lat="50.04541" lon="2.27146">
        <ele>121.1</ele>
        <time>2022-11-30T13:26:27Z</time>
      </trkpt>
      <trkpt lat="50.04542" lon="2.27146">
        <ele>121.2</ele>
        <time>2022-11-30T13:26:28Z</time>
      </trkpt>
      <trkpt lat="50.04543" lon="2.27146">
        <ele>121.2</ele>
        <time>2022-11-30T13:26:29Z</time>
      </trkpt>
      <trkpt lat="50.04544" lon="2.27147">
        <ele>121.3</ele>
        <time>2022-11-30T13:26:30Z</time>
      </trkpt>
      <trkpt lat="50.04545" lon="2.27147">
        <ele>121.3</ele>
        <time>2022-11-30T13:26:31Z</time>
      </trkpt>
      <trkpt lat="50.04545" lon="2.27147">
        <ele>121.4</ele>
        <time>2022-11-30T13:26:32Z</time>
      </trkpt>
      <trkpt lat="50.04546" lon="2.27147">
        <ele>121.4</ele>
        <time>2022-11-30T13:26:33Z</time>
      </trkpt>
      <trkpt lat="50.04547" lon="2.27147">
        <ele>121.5</ele>
        <time>2022-11-30T13:26:34Z</time>
      </trkpt>
      <trkpt lat="50.04548" lon="2.27147">
        <ele>121.6</ele>
        <time>2022-11-30T13:26:36Z</time>
      </trkpt>
      <trkpt lat="50.04549" lon="2.27147">
        <ele>121.6</ele>
        <time>2022-11-30T13:26:37Z</time>
      </trkpt>
      <trkpt lat="50.0455" lon="2.27147">
        <ele>121.7</ele>
        <time>2022-11-30T13:26:38Z</time>
      </trkpt>
      <trkpt lat="50.04552" lon="2.27148">
        <ele>121.8</ele>
        <time>2022-11-30T13:26:39Z</time>
      </trkpt>
      <trkpt lat="50.04553" lon="2.27148">
        <ele>121.9</ele>
        <time>2022-11-30T13:26:40Z</time>
      </trkpt>
      <trkpt lat="50.04554" lon="2.27148">
        <ele>122</ele>
        <time>2022-11-30T13:26:41Z</time>
      </trkpt>
      <trkpt lat="50.04555" lon="2.27149">
        <ele>122</ele>
        <time>2022-11-30T13:26:42Z</time>
      </trkpt>
      <trkpt lat="50.04556" lon="2.27149">
        <ele>122.1</ele>
        <time>2022-11-30T13:26:44Z</time>
      </trkpt>
      <trkpt lat="50.04557" lon="2.2715">
        <ele>122.2</ele>
        <time>2022-11-30T13:26:45Z</time>
      </trkpt>
      <trkpt lat="50.04558" lon="2.2715">
        <ele>122.3</ele>
        <time>2022-11-30T13:26:46Z</time>
      </trkpt>
      <trkpt lat="50.0456" lon="2.2715">
        <ele>122.3</ele>
        <time>2022-11-30T13:26:47Z</time>
      </trkpt>
      <trkpt lat="50.04561" lon="2.27151">
        <ele>122.4</ele>
        <time>2022-11-30T13:26:48Z</time>
      </trkpt>
      <trkpt lat="50.04563" lon="2.27152">
        <ele>122.5</ele>
        <time>2022-11-30T13:26:50Z</time>
      </trkpt>
      <trkpt lat="50.04563" lon="2.27153">
        <ele>122.6</ele>
        <time>2022-11-30T13:26:51Z</time>
      </trkpt>
      <trkpt lat="50.04564" lon="2.27153">
        <ele>122.6</ele>
        <time>2022-11-30T13:26:52Z</time>
      </trkpt>
      <trkpt lat="50.04566" lon="2.27155">
        <ele>122.7</ele>
        <time>2022-11-30T13:26:53Z</time>
      </trkpt>
      <trkpt lat="50.04567" lon="2.27155">
        <ele>122.8</ele>
        <time>2022-11-30T13:26:54Z</time>
      </trkpt>
      <trkpt lat="50.04569" lon="2.27156">
        <ele>122.9</ele>
        <time>2022-11-30T13:26:55Z</time>
      </trkpt>
      <trkpt lat="50.0457" lon="2.27157">
        <ele>123</ele>
        <time>2022-11-30T13:26:57Z</time>
      </trkpt>
      <trkpt lat="50.04572" lon="2.27158">
        <ele>123.1</ele>
        <time>2022-11-30T13:26:58Z</time>
      </trkpt>
      <trkpt lat="50.04573" lon="2.27158">
        <ele>123.1</ele>
        <time>2022-11-30T13:26:59Z</time>
      </trkpt>
      <trkpt lat="50.04576" lon="2.27159">
        <ele>123.3</ele>
        <time>2022-11-30T13:27:00Z</time>
      </trkpt>
      <trkpt lat="50.04576" lon="2.27159">
        <ele>123.3</ele>
        <time>2022-11-30T13:27:01Z</time>
      </trkpt>
      <trkpt lat="50.04577" lon="2.2716">
        <ele>123.3</ele>
        <time>2022-11-30T13:27:02Z</time>
      </trkpt>
      <trkpt lat="50.0458" lon="2.2716">
        <ele>123.5</ele>
        <time>2022-11-30T13:27:03Z</time>
      </trkpt>
      <trkpt lat="50.04581" lon="2.27161">
        <ele>123.5</ele>
        <time>2022-11-30T13:27:05Z</time>
      </trkpt>
      <trkpt lat="50.04583" lon="2.27161">
        <ele>123.6</ele>
        <time>2022-11-30T13:27:06Z</time>
      </trkpt>
      <trkpt lat="50.04584" lon="2.27162">
        <ele>123.7</ele>
        <time>2022-11-30T13:27:07Z</time>
      </trkpt>
      <trkpt lat="50.04585" lon="2.27162">
        <ele>123.7</ele>
        <time>2022-11-30T13:27:08Z</time>
      </trkpt>
      <trkpt lat="50.04587" lon="2.27162">
        <ele>123.8</ele>
        <time>2022-11-30T13:27:09Z</time>
      </trkpt>
      <trkpt lat="50.04588" lon="2.27163">
        <ele>123.8</ele>
        <time>2022-11-30T13:27:10Z</time>
      </trkpt>
      <trkpt lat="50.04589" lon="2.27164">
        <ele>123.9</ele>
        <time>2022-11-30T13:27:12Z</time>
      </trkpt>
      <trkpt lat="50.0459" lon="2.27164">
        <ele>124</ele>
        <time>2022-11-30T13:27:13Z</time>
      </trkpt>
      <trkpt lat="50.04591" lon="2.27164">
        <ele>124</ele>
        <time>2022-11-30T13:27:14Z</time>
      </trkpt>
      <trkpt lat="50.04592" lon="2.27164">
        <ele>124.1</ele>
        <time>2022-11-30T13:27:15Z</time>
      </trkpt>
      <trkpt lat="50.04593" lon="2.27164">
        <ele>124.1</ele>
        <time>2022-11-30T13:27:16Z</time>
      </trkpt>
      <trkpt lat="50.04593" lon="2.27164">
        <ele>124.1</ele>
        <time>2022-11-30T13:27:17Z</time>
      </trkpt>
      <trkpt lat="50.04595" lon="2.27163">
        <ele>124.2</ele>
        <time>2022-11-30T13:27:19Z</time>
      </trkpt>
      <trkpt lat="50.04595" lon="2.27164">
        <ele>124.2</ele>
        <time>2022-11-30T13:27:20Z</time>
      </trkpt>
      <trkpt lat="50.04596" lon="2.27164">
        <ele>124.2</ele>
        <time>2022-11-30T13:27:21Z</time>
      </trkpt>
      <trkpt lat="50.04596" lon="2.27164">
        <ele>124.3</ele>
        <time>2022-11-30T13:27:22Z</time>
      </trkpt>
      <trkpt lat="50.04596" lon="2.27164">
        <ele>124.3</ele>
        <time>2022-11-30T13:27:23Z</time>
      </trkpt>
      <trkpt lat="50.04596" lon="2.27164">
        <ele>124.3</ele>
        <time>2022-11-30T13:27:24Z</time>
      </trkpt>
      <trkpt lat="50.04596" lon="2.27164">
        <ele>124.3</ele>
        <time>2022-11-30T13:27:25Z</time>
      </trkpt>
      <trkpt lat="50.04596" lon="2.27164">
        <ele>124.3</ele>
        <time>2022-11-30T13:27:26Z</time>
      </trkpt>
      <trkpt lat="50.04596" lon="2.27164">
        <ele>124.3</ele>
        <time>2022-11-30T13:27:27Z</time>
      </trkpt>
      <trkpt lat="50.04596" lon="2.27164">
        <ele>124.3</ele>
        <time>2022-11-30T13:27:28Z</time>
      </trkpt>
      <trkpt lat="50.04596" lon="2.27164">
        <ele>124.3</ele>
        <time>2022-11-30T13:27:29Z</time>
      </trkpt>
      <trkpt lat="50.04596" lon="2.27164">
        <ele>124.3</ele>
        <time>2022-11-30T13:27:30Z</time>
      </trkpt>
      <trkpt lat="50.04595" lon="2.27164">
        <ele>124.3</ele>
        <time>2022-11-30T13:27:31Z</time>
      </trkpt>
      <trkpt lat="50.04595" lon="2.27164">
        <ele>124.3</ele>
        <time>2022-11-30T13:27:32Z</time>
      </trkpt>
      <trkpt lat="50.04595" lon="2.27164">
        <ele>124.3</ele>
        <time>2022-11-30T13:27:33Z</time>
      </trkpt>
      <trkpt lat="50.04595" lon="2.27164">
        <ele>124.3</ele>
        <time>2022-11-30T13:27:34Z</time>
      </trkpt>
      <trkpt lat="50.04595" lon="2.27164">
        <ele>124.3</ele>
        <time>2022-11-30T13:27:35Z</time>
      </trkpt>
      <trkpt lat="50.04595" lon="2.27164">
        <ele>124.3</ele>
        <time>2022-11-30T13:27:36Z</time>
      </trkpt>
      <trkpt lat="50.04594" lon="2.27164">
        <ele>124.4</ele>
        <time>2022-11-30T13:27:37Z</time>
      </trkpt>
      <trkpt lat="50.04594" lon="2.27164">
        <ele>124.4</ele>
        <time>2022-11-30T13:27:38Z</time>
      </trkpt>
      <trkpt lat="50.04594" lon="2.27164">
        <ele>124.4</ele>
        <time>2022-11-30T13:27:39Z</time>
      </trkpt>
      <trkpt lat="50.04594" lon="2.27164">
        <ele>124.4</ele>
        <time>2022-11-30T13:27:40Z</time>
      </trkpt>
      <trkpt lat="50.04594" lon="2.27164">
        <ele>124.4</ele>
        <time>2022-11-30T13:27:41Z</time>
      </trkpt>
      <trkpt lat="50.04594" lon="2.27164">
        <ele>124.4</ele>
        <time>2022-11-30T13:27:42Z</time>
      </trkpt>
      <trkpt lat="50.04594" lon="2.27164">
        <ele>124.4</ele>
        <time>2022-11-30T13:27:43Z</time>
      </trkpt>
      <trkpt lat="50.04594" lon="2.27164">
        <ele>124.4</ele>
        <time>2022-11-30T13:27:44Z</time>
      </trkpt>
      <trkpt lat="50.04594" lon="2.27164">
        <ele>124.4</ele>
        <time>2022-11-30T13:27:45Z</time>
      </trkpt>
      <trkpt lat="50.04592" lon="2.27164">
        <ele>124.5</ele>
        <time>2022-11-30T13:27:46Z</time>
      </trkpt>
      <trkpt lat="50.0459" lon="2.27164">
        <ele>124.5</ele>
        <time>2022-11-30T13:27:47Z</time>
      </trkpt>
      <trkpt lat="50.04589" lon="2.27164">
        <ele>124.6</ele>
        <time>2022-11-30T13:27:48Z</time>
      </trkpt>
      <trkpt lat="50.04589" lon="2.27164">
        <ele>124.6</ele>
        <time>2022-11-30T13:27:49Z</time>
      </trkpt>
      <trkpt lat="50.04589" lon="2.27164">
        <ele>124.6</ele>
        <time>2022-11-30T13:27:50Z</time>
      </trkpt>
      <trkpt lat="50.04588" lon="2.27164">
        <ele>124.6</ele>
        <time>2022-11-30T13:27:51Z</time>
      </trkpt>
      <trkpt lat="50.04588" lon="2.27164">
        <ele>124.6</ele>
        <time>2022-11-30T13:27:52Z</time>
      </trkpt>
      <trkpt lat="50.04588" lon="2.27164">
        <ele>124.6</ele>
        <time>2022-11-30T13:27:53Z</time>
      </trkpt>
      <trkpt lat="50.04588" lon="2.27164">
        <ele>124.6</ele>
        <time>2022-11-30T13:27:54Z</time>
      </trkpt>
      <trkpt lat="50.04588" lon="2.27164">
        <ele>124.6</ele>
        <time>2022-11-30T13:27:55Z</time>
      </trkpt>
      <trkpt lat="50.04588" lon="2.27164">
        <ele>124.6</ele>
        <time>2022-11-30T13:27:56Z</time>
      </trkpt>
      <trkpt lat="50.04588" lon="2.27164">
        <ele>124.6</ele>
        <time>2022-11-30T13:27:57Z</time>
      </trkpt>
      <trkpt lat="50.04588" lon="2.27164">
        <ele>124.6</ele>
        <time>2022-11-30T13:27:58Z</time>
      </trkpt>
      <trkpt lat="50.04588" lon="2.27164">
        <ele>124.6</ele>
        <time>2022-11-30T13:27:59Z</time>
      </trkpt>
      <trkpt lat="50.04588" lon="2.27164">
        <ele>124.6</ele>
        <time>2022-11-30T13:28:00Z</time>
      </trkpt>
      <trkpt lat="50.04588" lon="2.27164">
        <ele>124.6</ele>
        <time>2022-11-30T13:28:01Z</time>
      </trkpt>
      <trkpt lat="50.04588" lon="2.27164">
        <ele>124.6</ele>
        <time>2022-11-30T13:28:02Z</time>
      </trkpt>
      <trkpt lat="50.04588" lon="2.27164">
        <ele>124.6</ele>
        <time>2022-11-30T13:28:03Z</time>
      </trkpt>
      <trkpt lat="50.04588" lon="2.27164">
        <ele>124.6</ele>
        <time>2022-11-30T13:28:04Z</time>
      </trkpt>
      <trkpt lat="50.04588" lon="2.27164">
        <ele>124.6</ele>
        <time>2022-11-30T13:28:05Z</time>
      </trkpt>
      <trkpt lat="50.04588" lon="2.27164">
        <ele>124.6</ele>
        <time>2022-11-30T13:28:06Z</time>
      </trkpt>
      <trkpt lat="50.04588" lon="2.27164">
        <ele>124.6</ele>
        <time>2022-11-30T13:28:07Z</time>
      </trkpt>
      <trkpt lat="50.04588" lon="2.27164">
        <ele>124.6</ele>
        <time>2022-11-30T13:28:08Z</time>
      </trkpt>
      <trkpt lat="50.04588" lon="2.27164">
        <ele>124.6</ele>
        <time>2022-11-30T13:28:09Z</time>
      </trkpt>
      <trkpt lat="50.04588" lon="2.27164">
        <ele>124.6</ele>
        <time>2022-11-30T13:28:10Z</time>
      </trkpt>
      <trkpt lat="50.04588" lon="2.27164">
        <ele>124.6</ele>
        <time>2022-11-30T13:28:11Z</time>
      </trkpt>
      <trkpt lat="50.04588" lon="2.27164">
        <ele>124.6</ele>
        <time>2022-11-30T13:28:12Z</time>
      </trkpt>
      <trkpt lat="50.04588" lon="2.27164">
        <ele>124.6</ele>
        <time>2022-11-30T13:28:13Z</time>
      </trkpt>
      <trkpt lat="50.04588" lon="2.27164">
        <ele>124.6</ele>
        <time>2022-11-30T13:28:14Z</time>
      </trkpt>
      <trkpt lat="50.04588" lon="2.27164">
        <ele>124.6</ele>
        <time>2022-11-30T13:28:15Z</time>
      </trkpt>
      <trkpt lat="50.04588" lon="2.27164">
        <ele>124.6</ele>
        <time>2022-11-30T13:28:16Z</time>
      </trkpt>
      <trkpt lat="50.04588" lon="2.27164">
        <ele>124.6</ele>
        <time>2022-11-30T13:28:17Z</time>
      </trkpt>
      <trkpt lat="50.04588" lon="2.27164">
        <ele>124.6</ele>
        <time>2022-11-30T13:28:18Z</time>
      </trkpt>
      <trkpt lat="50.04588" lon="2.27164">
        <ele>124.6</ele>
        <time>2022-11-30T13:28:19Z</time>
      </trkpt>
      <trkpt lat="50.04588" lon="2.27164">
        <ele>124.6</ele>
        <time>2022-11-30T13:28:20Z</time>
      </trkpt>
      <trkpt lat="50.04588" lon="2.27164">
        <ele>124.6</ele>
        <time>2022-11-30T13:28:21Z</time>
      </trkpt>
      <trkpt lat="50.04588" lon="2.27164">
        <ele>124.6</ele>
        <time>2022-11-30T13:28:22Z</time>
      </trkpt>
      <trkpt lat="50.04588" lon="2.27164">
        <ele>124.6</ele>
        <time>2022-11-30T13:28:23Z</time>
      </trkpt>
      <trkpt lat="50.04588" lon="2.27164">
        <ele>124.6</ele>
        <time>2022-11-30T13:28:24Z</time>
      </trkpt>
      <trkpt lat="50.04588" lon="2.27164">
        <ele>124.6</ele>
        <time>2022-11-30T13:28:25Z</time>
      </trkpt>
      <trkpt lat="50.04588" lon="2.27164">
        <ele>124.6</ele>
        <time>2022-11-30T13:28:26Z</time>
      </trkpt>
      <trkpt lat="50.04588" lon="2.27164">
        <ele>124.6</ele>
        <time>2022-11-30T13:28:27Z</time>
      </trkpt>
      <trkpt lat="50.04588" lon="2.27164">
        <ele>124.6</ele>
        <time>2022-11-30T13:28:28Z</time>
      </trkpt>
      <trkpt lat="50.04588" lon="2.27164">
        <ele>124.6</ele>
        <time>2022-11-30T13:28:29Z</time>
      </trkpt>
      <trkpt lat="50.04588" lon="2.27164">
        <ele>124.6</ele>
        <time>2022-11-30T13:28:30Z</time>
      </trkpt>
      <trkpt lat="50.04588" lon="2.27164">
        <ele>124.6</ele>
        <time>2022-11-30T13:28:31Z</time>
      </trkpt>
      <trkpt lat="50.04588" lon="2.27164">
        <ele>124.6</ele>
        <time>2022-11-30T13:28:32Z</time>
      </trkpt>
      <trkpt lat="50.04588" lon="2.27164">
        <ele>124.6</ele>
        <time>2022-11-30T13:28:33Z</time>
      </trkpt>
      <trkpt lat="50.04588" lon="2.27164">
        <ele>124.6</ele>
        <time>2022-11-30T13:28:34Z</time>
      </trkpt>
      <trkpt lat="50.04588" lon="2.27164">
        <ele>124.6</ele>
        <time>2022-11-30T13:28:35Z</time>
      </trkpt>
      <trkpt lat="50.04588" lon="2.27164">
        <ele>124.6</ele>
        <time>2022-11-30T13:28:36Z</time>
      </trkpt>
      <trkpt lat="50.04588" lon="2.27164">
        <ele>124.6</ele>
        <time>2022-11-30T13:28:37Z</time>
      </trkpt>
      <trkpt lat="50.04588" lon="2.27164">
        <ele>124.6</ele>
        <time>2022-11-30T13:28:38Z</time>
      </trkpt>
      <trkpt lat="50.04588" lon="2.27164">
        <ele>124.6</ele>
        <time>2022-11-30T13:28:39Z</time>
      </trkpt>
      <trkpt lat="50.04588" lon="2.27164">
        <ele>124.6</ele>
        <time>2022-11-30T13:28:40Z</time>
      </trkpt>
      <trkpt lat="50.04588" lon="2.27164">
        <ele>124.6</ele>
        <time>2022-11-30T13:28:41Z</time>
      </trkpt>
      <trkpt lat="50.04588" lon="2.27164">
        <ele>124.6</ele>
        <time>2022-11-30T13:28:42Z</time>
      </trkpt>
      <trkpt lat="50.04588" lon="2.27164">
        <ele>124.6</ele>
        <time>2022-11-30T13:28:43Z</time>
      </trkpt>
      <trkpt lat="50.04588" lon="2.27164">
        <ele>124.6</ele>
        <time>2022-11-30T13:28:44Z</time>
      </trkpt>
      <trkpt lat="50.04588" lon="2.27164">
        <ele>124.6</ele>
        <time>2022-11-30T13:28:45Z</time>
      </trkpt>
      <trkpt lat="50.04588" lon="2.27164">
        <ele>124.6</ele>
        <time>2022-11-30T13:28:46Z</time>
      </trkpt>
      <trkpt lat="50.04588" lon="2.27164">
        <ele>124.6</ele>
        <time>2022-11-30T13:28:47Z</time>
      </trkpt>
      <trkpt lat="50.04588" lon="2.27164">
        <ele>124.6</ele>
        <time>2022-11-30T13:28:48Z</time>
      </trkpt>
      <trkpt lat="50.04588" lon="2.27164">
        <ele>124.6</ele>
        <time>2022-11-30T13:28:49Z</time>
      </trkpt>
      <trkpt lat="50.04588" lon="2.27164">
        <ele>124.6</ele>
        <time>2022-11-30T13:28:50Z</time>
      </trkpt>
      <trkpt lat="50.04588" lon="2.27164">
        <ele>124.6</ele>
        <time>2022-11-30T13:28:51Z</time>
      </trkpt>
      <trkpt lat="50.04588" lon="2.27164">
        <ele>124.6</ele>
        <time>2022-11-30T13:28:52Z</time>
      </trkpt>
      <trkpt lat="50.04588" lon="2.27164">
        <ele>124.6</ele>
        <time>2022-11-30T13:28:53Z</time>
      </trkpt>
      <trkpt lat="50.04588" lon="2.27164">
        <ele>124.6</ele>
        <time>2022-11-30T13:28:54Z</time>
      </trkpt>
      <trkpt lat="50.04588" lon="2.27164">
        <ele>124.6</ele>
        <time>2022-11-30T13:28:55Z</time>
      </trkpt>
      <trkpt lat="50.04588" lon="2.27164">
        <ele>124.6</ele>
        <time>2022-11-30T13:28:56Z</time>
      </trkpt>
      <trkpt lat="50.04588" lon="2.27164">
        <ele>124.6</ele>
        <time>2022-11-30T13:28:57Z</time>
      </trkpt>
      <trkpt lat="50.04588" lon="2.27164">
        <ele>124.6</ele>
        <time>2022-11-30T13:28:58Z</time>
      </trkpt>
      <trkpt lat="50.04588" lon="2.27164">
        <ele>124.6</ele>
        <time>2022-11-30T13:28:59Z</time>
      </trkpt>
      <trkpt lat="50.04588" lon="2.27164">
        <ele>124.6</ele>
        <time>2022-11-30T13:29:00Z</time>
      </trkpt>
      <trkpt lat="50.04588" lon="2.27164">
        <ele>124.6</ele>
        <time>2022-11-30T13:29:01Z</time>
      </trkpt>
      <trkpt lat="50.04588" lon="2.27164">
        <ele>124.6</ele>
        <time>2022-11-30T13:29:02Z</time>
      </trkpt>
      <trkpt lat="50.04588" lon="2.27164">
        <ele>124.6</ele>
        <time>2022-11-30T13:29:03Z</time>
      </trkpt>
      <trkpt lat="50.04588" lon="2.27164">
        <ele>124.6</ele>
        <time>2022-11-30T13:29:04Z</time>
      </trkpt>
      <trkpt lat="50.04588" lon="2.27164">
        <ele>124.6</ele>
        <time>2022-11-30T13:29:05Z</time>
      </trkpt>
      <trkpt lat="50.04588" lon="2.27164">
        <ele>124.6</ele>
        <time>2022-11-30T13:29:06Z</time>
      </trkpt>
      <trkpt lat="50.04588" lon="2.27164">
        <ele>124.6</ele>
        <time>2022-11-30T13:29:07Z</time>
      </trkpt>
      <trkpt lat="50.04588" lon="2.27164">
        <ele>124.6</ele>
        <time>2022-11-30T13:29:08Z</time>
      </trkpt>
      <trkpt lat="50.04588" lon="2.27164">
        <ele>124.6</ele>
        <time>2022-11-30T13:29:09Z</time>
      </trkpt>
      <trkpt lat="50.04588" lon="2.27164">
        <ele>124.6</ele>
        <time>2022-11-30T13:29:10Z</time>
      </trkpt>
      <trkpt lat="50.04588" lon="2.27164">
        <ele>124.6</ele>
        <time>2022-11-30T13:29:11Z</time>
      </trkpt>
      <trkpt lat="50.04588" lon="2.27164">
        <ele>124.6</ele>
        <time>2022-11-30T13:29:12Z</time>
      </trkpt>
      <trkpt lat="50.04588" lon="2.27164">
        <ele>124.6</ele>
        <time>2022-11-30T13:29:13Z</time>
      </trkpt>
      <trkpt lat="50.04588" lon="2.27164">
        <ele>124.6</ele>
        <time>2022-11-30T13:29:14Z</time>
      </trkpt>
      <trkpt lat="50.04588" lon="2.27164">
        <ele>124.6</ele>
        <time>2022-11-30T13:29:15Z</time>
      </trkpt>
      <trkpt lat="50.04588" lon="2.27164">
        <ele>124.6</ele>
        <time>2022-11-30T13:29:16Z</time>
      </trkpt>
      <trkpt lat="50.04588" lon="2.27164">
        <ele>124.6</ele>
        <time>2022-11-30T13:29:17Z</time>
      </trkpt>
      <trkpt lat="50.04588" lon="2.27164">
        <ele>124.6</ele>
        <time>2022-11-30T13:29:18Z</time>
      </trkpt>
      <trkpt lat="50.04588" lon="2.27164">
        <ele>124.6</ele>
        <time>2022-11-30T13:29:19Z</time>
      </trkpt>
      <trkpt lat="50.04588" lon="2.27164">
        <ele>124.6</ele>
        <time>2022-11-30T13:29:20Z</time>
      </trkpt>
      <trkpt lat="50.04588" lon="2.27164">
        <ele>124.6</ele>
        <time>2022-11-30T13:29:21Z</time>
      </trkpt>
      <trkpt lat="50.04588" lon="2.27164">
        <ele>124.6</ele>
        <time>2022-11-30T13:29:22Z</time>
      </trkpt>
      <trkpt lat="50.04588" lon="2.27164">
        <ele>124.6</ele>
        <time>2022-11-30T13:29:23Z</time>
      </trkpt>
      <trkpt lat="50.04588" lon="2.27164">
        <ele>124.6</ele>
        <time>2022-11-30T13:29:24Z</time>
      </trkpt>
      <trkpt lat="50.04588" lon="2.27164">
        <ele>124.6</ele>
        <time>2022-11-30T13:29:25Z</time>
      </trkpt>
      <trkpt lat="50.04588" lon="2.27164">
        <ele>124.6</ele>
        <time>2022-11-30T13:29:26Z</time>
      </trkpt>
      <trkpt lat="50.04588" lon="2.27164">
        <ele>124.6</ele>
        <time>2022-11-30T13:29:27Z</time>
      </trkpt>
      <trkpt lat="50.04588" lon="2.27164">
        <ele>124.6</ele>
        <time>2022-11-30T13:29:28Z</time>
      </trkpt>
      <trkpt lat="50.04588" lon="2.27164">
        <ele>124.6</ele>
        <time>2022-11-30T13:29:29Z</time>
      </trkpt>
      <trkpt lat="50.04588" lon="2.27164">
        <ele>124.6</ele>
        <time>2022-11-30T13:29:30Z</time>
      </trkpt>
      <trkpt lat="50.04588" lon="2.27164">
        <ele>124.6</ele>
        <time>2022-11-30T13:29:31Z</time>
      </trkpt>
      <trkpt lat="50.04588" lon="2.27164">
        <ele>124.6</ele>
        <time>2022-11-30T13:29:32Z</time>
      </trkpt>
      <trkpt lat="50.04588" lon="2.27164">
        <ele>124.6</ele>
        <time>2022-11-30T13:29:33Z</time>
      </trkpt>
      <trkpt lat="50.04588" lon="2.27164">
        <ele>124.6</ele>
        <time>2022-11-30T13:29:34Z</time>
      </trkpt>
      <trkpt lat="50.04588" lon="2.27164">
        <ele>124.6</ele>
        <time>2022-11-30T13:29:35Z</time>
      </trkpt>
      <trkpt lat="50.04588" lon="2.27164">
        <ele>124.6</ele>
        <time>2022-11-30T13:29:36Z</time>
      </trkpt>
      <trkpt lat="50.04588" lon="2.27164">
        <ele>124.6</ele>
        <time>2022-11-30T13:29:37Z</time>
      </trkpt>
      <trkpt lat="50.04588" lon="2.27164">
        <ele>124.6</ele>
        <time>2022-11-30T13:29:38Z</time>
      </trkpt>
      <trkpt lat="50.04588" lon="2.27164">
        <ele>124.6</ele>
        <time>2022-11-30T13:29:39Z</time>
      </trkpt>
      <trkpt lat="50.04588" lon="2.27164">
        <ele>124.6</ele>
        <time>2022-11-30T13:29:40Z</time>
      </trkpt>
      <trkpt lat="50.04588" lon="2.27164">
        <ele>124.6</ele>
        <time>2022-11-30T13:29:41Z</time>
      </trkpt>
      <trkpt lat="50.04588" lon="2.27164">
        <ele>124.6</ele>
        <time>2022-11-30T13:29:42Z</time>
      </trkpt>
      <trkpt lat="50.04588" lon="2.27164">
        <ele>124.6</ele>
        <time>2022-11-30T13:29:43Z</time>
      </trkpt>
      <trkpt lat="50.04588" lon="2.27164">
        <ele>124.6</ele>
        <time>2022-11-30T13:29:44Z</time>
      </trkpt>
      <trkpt lat="50.04588" lon="2.27164">
        <ele>124.6</ele>
        <time>2022-11-30T13:29:45Z</time>
      </trkpt>
      <trkpt lat="50.04588" lon="2.27164">
        <ele>124.6</ele>
        <time>2022-11-30T13:29:46Z</time>
      </trkpt>
      <trkpt lat="50.04588" lon="2.27164">
        <ele>124.6</ele>
        <time>2022-11-30T13:29:47Z</time>
      </trkpt>
      <trkpt lat="50.04588" lon="2.27164">
        <ele>124.6</ele>
        <time>2022-11-30T13:29:48Z</time>
      </trkpt>
      <trkpt lat="50.04588" lon="2.27164">
        <ele>124.6</ele>
        <time>2022-11-30T13:29:49Z</time>
      </trkpt>
      <trkpt lat="50.04588" lon="2.27164">
        <ele>124.6</ele>
        <time>2022-11-30T13:29:50Z</time>
      </trkpt>
      <trkpt lat="50.04588" lon="2.27164">
        <ele>124.6</ele>
        <time>2022-11-30T13:29:51Z</time>
      </trkpt>
      <trkpt lat="50.04587" lon="2.27164">
        <ele>124.6</ele>
        <time>2022-11-30T13:29:52Z</time>
      </trkpt>
      <trkpt lat="50.04587" lon="2.27164">
        <ele>124.7</ele>
        <time>2022-11-30T13:29:53Z</time>
      </trkpt>
      <trkpt lat="50.04587" lon="2.27165">
        <ele>124.7</ele>
        <time>2022-11-30T13:29:54Z</time>
      </trkpt>
      <trkpt lat="50.04587" lon="2.27165">
        <ele>124.7</ele>
        <time>2022-11-30T13:29:55Z</time>
      </trkpt>
      <trkpt lat="50.04588" lon="2.27165">
        <ele>124.7</ele>
        <time>2022-11-30T13:29:56Z</time>
      </trkpt>
      <trkpt lat="50.04589" lon="2.27165">
        <ele>124.7</ele>
        <time>2022-11-30T13:29:57Z</time>
      </trkpt>
      <trkpt lat="50.04589" lon="2.27165">
        <ele>124.7</ele>
        <time>2022-11-30T13:29:58Z</time>
      </trkpt>
      <trkpt lat="50.0459" lon="2.27165">
        <ele>124.8</ele>
        <time>2022-11-30T13:29:59Z</time>
      </trkpt>
      <trkpt lat="50.04591" lon="2.27165">
        <ele>124.8</ele>
        <time>2022-11-30T13:30:00Z</time>
      </trkpt>
      <trkpt lat="50.04591" lon="2.27165">
        <ele>124.8</ele>
        <time>2022-11-30T13:30:01Z</time>
      </trkpt>
      <trkpt lat="50.04592" lon="2.27165">
        <ele>124.8</ele>
        <time>2022-11-30T13:30:02Z</time>
      </trkpt>
      <trkpt lat="50.04593" lon="2.27165">
        <ele>124.9</ele>
        <time>2022-11-30T13:30:03Z</time>
      </trkpt>
      <trkpt lat="50.04594" lon="2.27164">
        <ele>124.9</ele>
        <time>2022-11-30T13:30:04Z</time>
      </trkpt>
      <trkpt lat="50.04595" lon="2.27163">
        <ele>124.9</ele>
        <time>2022-11-30T13:30:06Z</time>
      </trkpt>
      <trkpt lat="50.04596" lon="2.27163">
        <ele>125</ele>
        <time>2022-11-30T13:30:07Z</time>
      </trkpt>
      <trkpt lat="50.04598" lon="2.27162">
        <ele>125</ele>
        <time>2022-11-30T13:30:08Z</time>
      </trkpt>
      <trkpt lat="50.04599" lon="2.27161">
        <ele>125.1</ele>
        <time>2022-11-30T13:30:09Z</time>
      </trkpt>
      <trkpt lat="50.04601" lon="2.2716">
        <ele>125.1</ele>
        <time>2022-11-30T13:30:10Z</time>
      </trkpt>
      <trkpt lat="50.04603" lon="2.2716">
        <ele>125.2</ele>
        <time>2022-11-30T13:30:11Z</time>
      </trkpt>
      <trkpt lat="50.04605" lon="2.27159">
        <ele>125.3</ele>
        <time>2022-11-30T13:30:13Z</time>
      </trkpt>
      <trkpt lat="50.04606" lon="2.27159">
        <ele>125.3</ele>
        <time>2022-11-30T13:30:14Z</time>
      </trkpt>
      <trkpt lat="50.04608" lon="2.27158">
        <ele>125.4</ele>
        <time>2022-11-30T13:30:15Z</time>
      </trkpt>
      <trkpt lat="50.0461" lon="2.27158">
        <ele>125.4</ele>
        <time>2022-11-30T13:30:16Z</time>
      </trkpt>
      <trkpt lat="50.04611" lon="2.27158">
        <ele>125.5</ele>
        <time>2022-11-30T13:30:17Z</time>
      </trkpt>
      <trkpt lat="50.04613" lon="2.27158">
        <ele>125.5</ele>
        <time>2022-11-30T13:30:18Z</time>
      </trkpt>
      <trkpt lat="50.04614" lon="2.27158">
        <ele>125.6</ele>
        <time>2022-11-30T13:30:19Z</time>
      </trkpt>
      <trkpt lat="50.04615" lon="2.27157">
        <ele>125.6</ele>
        <time>2022-11-30T13:30:20Z</time>
      </trkpt>
      <trkpt lat="50.04617" lon="2.27157">
        <ele>125.7</ele>
        <time>2022-11-30T13:30:22Z</time>
      </trkpt>
      <trkpt lat="50.04618" lon="2.27157">
        <ele>125.8</ele>
        <time>2022-11-30T13:30:23Z</time>
      </trkpt>
      <trkpt lat="50.0462" lon="2.27157">
        <ele>125.8</ele>
        <time>2022-11-30T13:30:24Z</time>
      </trkpt>
      <trkpt lat="50.04621" lon="2.27157">
        <ele>125.9</ele>
        <time>2022-11-30T13:30:25Z</time>
      </trkpt>
      <trkpt lat="50.04623" lon="2.27157">
        <ele>125.9</ele>
        <time>2022-11-30T13:30:26Z</time>
      </trkpt>
      <trkpt lat="50.04625" lon="2.27157">
        <ele>126</ele>
        <time>2022-11-30T13:30:27Z</time>
      </trkpt>
      <trkpt lat="50.04625" lon="2.27157">
        <ele>126</ele>
        <time>2022-11-30T13:30:28Z</time>
      </trkpt>
      <trkpt lat="50.04626" lon="2.27157">
        <ele>126</ele>
        <time>2022-11-30T13:30:29Z</time>
      </trkpt>
      <trkpt lat="50.04628" lon="2.27157">
        <ele>126.1</ele>
        <time>2022-11-30T13:30:31Z</time>
      </trkpt>
      <trkpt lat="50.04629" lon="2.27157">
        <ele>126.1</ele>
        <time>2022-11-30T13:30:32Z</time>
      </trkpt>
      <trkpt lat="50.0463" lon="2.27158">
        <ele>126.1</ele>
        <time>2022-11-30T13:30:33Z</time>
      </trkpt>
      <trkpt lat="50.04632" lon="2.27158">
        <ele>126.2</ele>
        <time>2022-11-30T13:30:34Z</time>
      </trkpt>
      <trkpt lat="50.04633" lon="2.27158">
        <ele>126.2</ele>
        <time>2022-11-30T13:30:35Z</time>
      </trkpt>
      <trkpt lat="50.04634" lon="2.27158">
        <ele>126.2</ele>
        <time>2022-11-30T13:30:36Z</time>
      </trkpt>
      <trkpt lat="50.04635" lon="2.27159">
        <ele>126.3</ele>
        <time>2022-11-30T13:30:37Z</time>
      </trkpt>
      <trkpt lat="50.04636" lon="2.27159">
        <ele>126.3</ele>
        <time>2022-11-30T13:30:39Z</time>
      </trkpt>
      <trkpt lat="50.04637" lon="2.27159">
        <ele>126.3</ele>
        <time>2022-11-30T13:30:40Z</time>
      </trkpt>
      <trkpt lat="50.0464" lon="2.27159">
        <ele>126.4</ele>
        <time>2022-11-30T13:30:41Z</time>
      </trkpt>
      <trkpt lat="50.0464" lon="2.27159">
        <ele>126.4</ele>
        <time>2022-11-30T13:30:42Z</time>
      </trkpt>
      <trkpt lat="50.04641" lon="2.27159">
        <ele>126.4</ele>
        <time>2022-11-30T13:30:43Z</time>
      </trkpt>
      <trkpt lat="50.04643" lon="2.27159">
        <ele>126.5</ele>
        <time>2022-11-30T13:30:44Z</time>
      </trkpt>
      <trkpt lat="50.04644" lon="2.27159">
        <ele>126.5</ele>
        <time>2022-11-30T13:30:45Z</time>
      </trkpt>
      <trkpt lat="50.04645" lon="2.27159">
        <ele>126.5</ele>
        <time>2022-11-30T13:30:46Z</time>
      </trkpt>
      <trkpt lat="50.04647" lon="2.27159">
        <ele>126.5</ele>
        <time>2022-11-30T13:30:48Z</time>
      </trkpt>
      <trkpt lat="50.04648" lon="2.27159">
        <ele>126.6</ele>
        <time>2022-11-30T13:30:49Z</time>
      </trkpt>
      <trkpt lat="50.04649" lon="2.27159">
        <ele>126.6</ele>
        <time>2022-11-30T13:30:50Z</time>
      </trkpt>
      <trkpt lat="50.0465" lon="2.27159">
        <ele>126.6</ele>
        <time>2022-11-30T13:30:51Z</time>
      </trkpt>
      <trkpt lat="50.04651" lon="2.27159">
        <ele>126.6</ele>
        <time>2022-11-30T13:30:52Z</time>
      </trkpt>
      <trkpt lat="50.04652" lon="2.27159">
        <ele>126.6</ele>
        <time>2022-11-30T13:30:53Z</time>
      </trkpt>
      <trkpt lat="50.04653" lon="2.27158">
        <ele>126.7</ele>
        <time>2022-11-30T13:30:54Z</time>
      </trkpt>
      <trkpt lat="50.04654" lon="2.27158">
        <ele>126.7</ele>
        <time>2022-11-30T13:30:55Z</time>
      </trkpt>
      <trkpt lat="50.04655" lon="2.27158">
        <ele>126.7</ele>
        <time>2022-11-30T13:30:57Z</time>
      </trkpt>
      <trkpt lat="50.04657" lon="2.27158">
        <ele>126.7</ele>
        <time>2022-11-30T13:30:58Z</time>
      </trkpt>
      <trkpt lat="50.04658" lon="2.27158">
        <ele>126.8</ele>
        <time>2022-11-30T13:30:59Z</time>
      </trkpt>
      <trkpt lat="50.04659" lon="2.27158">
        <ele>126.8</ele>
        <time>2022-11-30T13:31:00Z</time>
      </trkpt>
      <trkpt lat="50.0466" lon="2.27158">
        <ele>126.8</ele>
        <time>2022-11-30T13:31:01Z</time>
      </trkpt>
      <trkpt lat="50.04661" lon="2.27158">
        <ele>126.9</ele>
        <time>2022-11-30T13:31:02Z</time>
      </trkpt>
      <trkpt lat="50.04662" lon="2.27159">
        <ele>126.9</ele>
        <time>2022-11-30T13:31:03Z</time>
      </trkpt>
      <trkpt lat="50.04663" lon="2.27159">
        <ele>126.9</ele>
        <time>2022-11-30T13:31:04Z</time>
      </trkpt>
      <trkpt lat="50.04664" lon="2.27159">
        <ele>126.9</ele>
        <time>2022-11-30T13:31:05Z</time>
      </trkpt>
      <trkpt lat="50.04665" lon="2.27159">
        <ele>127</ele>
        <time>2022-11-30T13:31:06Z</time>
      </trkpt>
      <trkpt lat="50.04667" lon="2.27159">
        <ele>127</ele>
        <time>2022-11-30T13:31:07Z</time>
      </trkpt>
      <trkpt lat="50.04668" lon="2.27158">
        <ele>127</ele>
        <time>2022-11-30T13:31:09Z</time>
      </trkpt>
      <trkpt lat="50.04669" lon="2.27158">
        <ele>127.1</ele>
        <time>2022-11-30T13:31:10Z</time>
      </trkpt>
      <trkpt lat="50.0467" lon="2.27158">
        <ele>127.1</ele>
        <time>2022-11-30T13:31:11Z</time>
      </trkpt>
      <trkpt lat="50.04672" lon="2.27158">
        <ele>127.1</ele>
        <time>2022-11-30T13:31:12Z</time>
      </trkpt>
      <trkpt lat="50.04673" lon="2.27157">
        <ele>127.2</ele>
        <time>2022-11-30T13:31:13Z</time>
      </trkpt>
      <trkpt lat="50.04675" lon="2.27157">
        <ele>127.2</ele>
        <time>2022-11-30T13:31:14Z</time>
      </trkpt>
      <trkpt lat="50.04676" lon="2.27157">
        <ele>127.3</ele>
        <time>2022-11-30T13:31:15Z</time>
      </trkpt>
      <trkpt lat="50.04677" lon="2.27157">
        <ele>127.3</ele>
        <time>2022-11-30T13:31:16Z</time>
      </trkpt>
      <trkpt lat="50.04678" lon="2.27157">
        <ele>127.3</ele>
        <time>2022-11-30T13:31:17Z</time>
      </trkpt>
      <trkpt lat="50.04679" lon="2.27157">
        <ele>127.3</ele>
        <time>2022-11-30T13:31:18Z</time>
      </trkpt>
      <trkpt lat="50.0468" lon="2.27157">
        <ele>127.4</ele>
        <time>2022-11-30T13:31:20Z</time>
      </trkpt>
      <trkpt lat="50.04682" lon="2.27157">
        <ele>127.4</ele>
        <time>2022-11-30T13:31:21Z</time>
      </trkpt>
      <trkpt lat="50.04683" lon="2.27157">
        <ele>127.4</ele>
        <time>2022-11-30T13:31:22Z</time>
      </trkpt>
      <trkpt lat="50.04684" lon="2.27157">
        <ele>127.5</ele>
        <time>2022-11-30T13:31:23Z</time>
      </trkpt>
      <trkpt lat="50.04685" lon="2.27157">
        <ele>127.5</ele>
        <time>2022-11-30T13:31:24Z</time>
      </trkpt>
      <trkpt lat="50.04686" lon="2.27157">
        <ele>127.5</ele>
        <time>2022-11-30T13:31:25Z</time>
      </trkpt>
      <trkpt lat="50.04687" lon="2.27157">
        <ele>127.6</ele>
        <time>2022-11-30T13:31:26Z</time>
      </trkpt>
      <trkpt lat="50.04688" lon="2.27157">
        <ele>127.6</ele>
        <time>2022-11-30T13:31:27Z</time>
      </trkpt>
      <trkpt lat="50.04689" lon="2.27157">
        <ele>127.6</ele>
        <time>2022-11-30T13:31:28Z</time>
      </trkpt>
      <trkpt lat="50.0469" lon="2.27157">
        <ele>127.6</ele>
        <time>2022-11-30T13:31:29Z</time>
      </trkpt>
      <trkpt lat="50.04691" lon="2.27157">
        <ele>127.7</ele>
        <time>2022-11-30T13:31:30Z</time>
      </trkpt>
      <trkpt lat="50.04694" lon="2.27157">
        <ele>127.7</ele>
        <time>2022-11-30T13:31:32Z</time>
      </trkpt>
      <trkpt lat="50.04694" lon="2.27157">
        <ele>127.7</ele>
        <time>2022-11-30T13:31:33Z</time>
      </trkpt>
      <trkpt lat="50.04695" lon="2.27157">
        <ele>127.8</ele>
        <time>2022-11-30T13:31:34Z</time>
      </trkpt>
      <trkpt lat="50.04697" lon="2.27157">
        <ele>127.8</ele>
        <time>2022-11-30T13:31:36Z</time>
      </trkpt>
      <trkpt lat="50.04699" lon="2.27157">
        <ele>127.8</ele>
        <time>2022-11-30T13:31:37Z</time>
      </trkpt>
      <trkpt lat="50.047" lon="2.27157">
        <ele>127.9</ele>
        <time>2022-11-30T13:31:38Z</time>
      </trkpt>
      <trkpt lat="50.04701" lon="2.27157">
        <ele>127.9</ele>
        <time>2022-11-30T13:31:39Z</time>
      </trkpt>
      <trkpt lat="50.04702" lon="2.27157">
        <ele>127.9</ele>
        <time>2022-11-30T13:31:40Z</time>
      </trkpt>
      <trkpt lat="50.04704" lon="2.27158">
        <ele>128</ele>
        <time>2022-11-30T13:31:41Z</time>
      </trkpt>
      <trkpt lat="50.04705" lon="2.27158">
        <ele>128</ele>
        <time>2022-11-30T13:31:42Z</time>
      </trkpt>
      <trkpt lat="50.04706" lon="2.27158">
        <ele>128</ele>
        <time>2022-11-30T13:31:43Z</time>
      </trkpt>
      <trkpt lat="50.04707" lon="2.27158">
        <ele>128.1</ele>
        <time>2022-11-30T13:31:44Z</time>
      </trkpt>
      <trkpt lat="50.04709" lon="2.27158">
        <ele>128.1</ele>
        <time>2022-11-30T13:31:46Z</time>
      </trkpt>
      <trkpt lat="50.0471" lon="2.27158">
        <ele>128.1</ele>
        <time>2022-11-30T13:31:47Z</time>
      </trkpt>
      <trkpt lat="50.04712" lon="2.27158">
        <ele>128.1</ele>
        <time>2022-11-30T13:31:48Z</time>
      </trkpt>
      <trkpt lat="50.04713" lon="2.27158">
        <ele>128.2</ele>
        <time>2022-11-30T13:31:49Z</time>
      </trkpt>
      <trkpt lat="50.04714" lon="2.27158">
        <ele>128.2</ele>
        <time>2022-11-30T13:31:50Z</time>
      </trkpt>
      <trkpt lat="50.04715" lon="2.27159">
        <ele>128.2</ele>
        <time>2022-11-30T13:31:51Z</time>
      </trkpt>
      <trkpt lat="50.04717" lon="2.27159">
        <ele>128.3</ele>
        <time>2022-11-30T13:31:52Z</time>
      </trkpt>
      <trkpt lat="50.04718" lon="2.27159">
        <ele>128.3</ele>
        <time>2022-11-30T13:31:53Z</time>
      </trkpt>
      <trkpt lat="50.04719" lon="2.27159">
        <ele>128.3</ele>
        <time>2022-11-30T13:31:54Z</time>
      </trkpt>
      <trkpt lat="50.0472" lon="2.27159">
        <ele>128.3</ele>
        <time>2022-11-30T13:31:56Z</time>
      </trkpt>
      <trkpt lat="50.04722" lon="2.27159">
        <ele>128.4</ele>
        <time>2022-11-30T13:31:57Z</time>
      </trkpt>
      <trkpt lat="50.04723" lon="2.2716">
        <ele>128.4</ele>
        <time>2022-11-30T13:31:58Z</time>
      </trkpt>
      <trkpt lat="50.04725" lon="2.2716">
        <ele>128.4</ele>
        <time>2022-11-30T13:31:59Z</time>
      </trkpt>
      <trkpt lat="50.04726" lon="2.2716">
        <ele>128.5</ele>
        <time>2022-11-30T13:32:00Z</time>
      </trkpt>
      <trkpt lat="50.04727" lon="2.27161">
        <ele>128.5</ele>
        <time>2022-11-30T13:32:01Z</time>
      </trkpt>
      <trkpt lat="50.04728" lon="2.27161">
        <ele>128.5</ele>
        <time>2022-11-30T13:32:02Z</time>
      </trkpt>
      <trkpt lat="50.0473" lon="2.27161">
        <ele>128.6</ele>
        <time>2022-11-30T13:32:03Z</time>
      </trkpt>
      <trkpt lat="50.04731" lon="2.27161">
        <ele>128.6</ele>
        <time>2022-11-30T13:32:04Z</time>
      </trkpt>
      <trkpt lat="50.04732" lon="2.27161">
        <ele>128.6</ele>
        <time>2022-11-30T13:32:05Z</time>
      </trkpt>
      <trkpt lat="50.04734" lon="2.27161">
        <ele>128.6</ele>
        <time>2022-11-30T13:32:07Z</time>
      </trkpt>
      <trkpt lat="50.04735" lon="2.27161">
        <ele>128.7</ele>
        <time>2022-11-30T13:32:08Z</time>
      </trkpt>
      <trkpt lat="50.04737" lon="2.27161">
        <ele>128.7</ele>
        <time>2022-11-30T13:32:09Z</time>
      </trkpt>
      <trkpt lat="50.04738" lon="2.27161">
        <ele>128.7</ele>
        <time>2022-11-30T13:32:10Z</time>
      </trkpt>
      <trkpt lat="50.04739" lon="2.27161">
        <ele>128.7</ele>
        <time>2022-11-30T13:32:11Z</time>
      </trkpt>
      <trkpt lat="50.04741" lon="2.27161">
        <ele>128.8</ele>
        <time>2022-11-30T13:32:12Z</time>
      </trkpt>
      <trkpt lat="50.04742" lon="2.27161">
        <ele>128.8</ele>
        <time>2022-11-30T13:32:13Z</time>
      </trkpt>
      <trkpt lat="50.04743" lon="2.27161">
        <ele>128.8</ele>
        <time>2022-11-30T13:32:14Z</time>
      </trkpt>
      <trkpt lat="50.04744" lon="2.27161">
        <ele>128.9</ele>
        <time>2022-11-30T13:32:15Z</time>
      </trkpt>
      <trkpt lat="50.04746" lon="2.27161">
        <ele>128.9</ele>
        <time>2022-11-30T13:32:16Z</time>
      </trkpt>
      <trkpt lat="50.04748" lon="2.27161">
        <ele>128.9</ele>
        <time>2022-11-30T13:32:17Z</time>
      </trkpt>
      <trkpt lat="50.04748" lon="2.27161">
        <ele>128.9</ele>
        <time>2022-11-30T13:32:19Z</time>
      </trkpt>
      <trkpt lat="50.04749" lon="2.27161">
        <ele>129</ele>
        <time>2022-11-30T13:32:20Z</time>
      </trkpt>
      <trkpt lat="50.04751" lon="2.2716">
        <ele>129</ele>
        <time>2022-11-30T13:32:21Z</time>
      </trkpt>
      <trkpt lat="50.04752" lon="2.2716">
        <ele>129</ele>
        <time>2022-11-30T13:32:22Z</time>
      </trkpt>
      <trkpt lat="50.04753" lon="2.2716">
        <ele>129</ele>
        <time>2022-11-30T13:32:23Z</time>
      </trkpt>
      <trkpt lat="50.04755" lon="2.2716">
        <ele>129</ele>
        <time>2022-11-30T13:32:24Z</time>
      </trkpt>
      <trkpt lat="50.04756" lon="2.2716">
        <ele>129.1</ele>
        <time>2022-11-30T13:32:25Z</time>
      </trkpt>
      <trkpt lat="50.04757" lon="2.27159">
        <ele>129.1</ele>
        <time>2022-11-30T13:32:26Z</time>
      </trkpt>
      <trkpt lat="50.04758" lon="2.27159">
        <ele>129.1</ele>
        <time>2022-11-30T13:32:27Z</time>
      </trkpt>
      <trkpt lat="50.0476" lon="2.27159">
        <ele>129.1</ele>
        <time>2022-11-30T13:32:28Z</time>
      </trkpt>
      <trkpt lat="50.04761" lon="2.27159">
        <ele>129.1</ele>
        <time>2022-11-30T13:32:30Z</time>
      </trkpt>
      <trkpt lat="50.04762" lon="2.27158">
        <ele>129.2</ele>
        <time>2022-11-30T13:32:31Z</time>
      </trkpt>
      <trkpt lat="50.04763" lon="2.27158">
        <ele>129.2</ele>
        <time>2022-11-30T13:32:32Z</time>
      </trkpt>
      <trkpt lat="50.04764" lon="2.27158">
        <ele>129.2</ele>
        <time>2022-11-30T13:32:33Z</time>
      </trkpt>
      <trkpt lat="50.04764" lon="2.27158">
        <ele>129.2</ele>
        <time>2022-11-30T13:32:34Z</time>
      </trkpt>
      <trkpt lat="50.04766" lon="2.27158">
        <ele>129.2</ele>
        <time>2022-11-30T13:32:36Z</time>
      </trkpt>
      <trkpt lat="50.04767" lon="2.27157">
        <ele>129.2</ele>
        <time>2022-11-30T13:32:37Z</time>
      </trkpt>
      <trkpt lat="50.04769" lon="2.27156">
        <ele>129.3</ele>
        <time>2022-11-30T13:32:38Z</time>
      </trkpt>
      <trkpt lat="50.0477" lon="2.27156">
        <ele>129.3</ele>
        <time>2022-11-30T13:32:39Z</time>
      </trkpt>
      <trkpt lat="50.04771" lon="2.27155">
        <ele>129.3</ele>
        <time>2022-11-30T13:32:40Z</time>
      </trkpt>
      <trkpt lat="50.04772" lon="2.27155">
        <ele>129.3</ele>
        <time>2022-11-30T13:32:42Z</time>
      </trkpt>
      <trkpt lat="50.04773" lon="2.27154">
        <ele>129.3</ele>
        <time>2022-11-30T13:32:43Z</time>
      </trkpt>
      <trkpt lat="50.04775" lon="2.27153">
        <ele>129.3</ele>
        <time>2022-11-30T13:32:44Z</time>
      </trkpt>
      <trkpt lat="50.04776" lon="2.27152">
        <ele>129.3</ele>
        <time>2022-11-30T13:32:45Z</time>
      </trkpt>
      <trkpt lat="50.04777" lon="2.27152">
        <ele>129.3</ele>
        <time>2022-11-30T13:32:46Z</time>
      </trkpt>
      <trkpt lat="50.04778" lon="2.27152">
        <ele>129.4</ele>
        <time>2022-11-30T13:32:47Z</time>
      </trkpt>
      <trkpt lat="50.04779" lon="2.27152">
        <ele>129.4</ele>
        <time>2022-11-30T13:32:48Z</time>
      </trkpt>
      <trkpt lat="50.04781" lon="2.27151">
        <ele>129.4</ele>
        <time>2022-11-30T13:32:49Z</time>
      </trkpt>
      <trkpt lat="50.04782" lon="2.27151">
        <ele>129.4</ele>
        <time>2022-11-30T13:32:50Z</time>
      </trkpt>
      <trkpt lat="50.04783" lon="2.27151">
        <ele>129.4</ele>
        <time>2022-11-30T13:32:51Z</time>
      </trkpt>
      <trkpt lat="50.04785" lon="2.2715">
        <ele>129.4</ele>
        <time>2022-11-30T13:32:52Z</time>
      </trkpt>
      <trkpt lat="50.04785" lon="2.2715">
        <ele>129.4</ele>
        <time>2022-11-30T13:32:53Z</time>
      </trkpt>
      <trkpt lat="50.04786" lon="2.2715">
        <ele>129.4</ele>
        <time>2022-11-30T13:32:54Z</time>
      </trkpt>
      <trkpt lat="50.04788" lon="2.27149">
        <ele>129.4</ele>
        <time>2022-11-30T13:32:55Z</time>
      </trkpt>
      <trkpt lat="50.04789" lon="2.27148">
        <ele>129.4</ele>
        <time>2022-11-30T13:32:56Z</time>
      </trkpt>
      <trkpt lat="50.04791" lon="2.27147">
        <ele>129.4</ele>
        <time>2022-11-30T13:32:58Z</time>
      </trkpt>
      <trkpt lat="50.04792" lon="2.27146">
        <ele>129.4</ele>
        <time>2022-11-30T13:32:59Z</time>
      </trkpt>
      <trkpt lat="50.04793" lon="2.27145">
        <ele>129.4</ele>
        <time>2022-11-30T13:33:00Z</time>
      </trkpt>
      <trkpt lat="50.04794" lon="2.27144">
        <ele>129.4</ele>
        <time>2022-11-30T13:33:01Z</time>
      </trkpt>
      <trkpt lat="50.04795" lon="2.27144">
        <ele>129.4</ele>
        <time>2022-11-30T13:33:02Z</time>
      </trkpt>
      <trkpt lat="50.04797" lon="2.27141">
        <ele>129.4</ele>
        <time>2022-11-30T13:33:03Z</time>
      </trkpt>
      <trkpt lat="50.04797" lon="2.2714">
        <ele>129.4</ele>
        <time>2022-11-30T13:33:05Z</time>
      </trkpt>
      <trkpt lat="50.04798" lon="2.27139">
        <ele>129.3</ele>
        <time>2022-11-30T13:33:06Z</time>
      </trkpt>
      <trkpt lat="50.04799" lon="2.27138">
        <ele>129.3</ele>
        <time>2022-11-30T13:33:07Z</time>
      </trkpt>
      <trkpt lat="50.048" lon="2.27137">
        <ele>129.3</ele>
        <time>2022-11-30T13:33:08Z</time>
      </trkpt>
      <trkpt lat="50.04801" lon="2.27136">
        <ele>129.3</ele>
        <time>2022-11-30T13:33:09Z</time>
      </trkpt>
      <trkpt lat="50.04803" lon="2.27135">
        <ele>129.3</ele>
        <time>2022-11-30T13:33:10Z</time>
      </trkpt>
      <trkpt lat="50.04804" lon="2.27134">
        <ele>129.3</ele>
        <time>2022-11-30T13:33:11Z</time>
      </trkpt>
      <trkpt lat="50.04805" lon="2.27133">
        <ele>129.3</ele>
        <time>2022-11-30T13:33:12Z</time>
      </trkpt>
      <trkpt lat="50.04806" lon="2.27132">
        <ele>129.3</ele>
        <time>2022-11-30T13:33:13Z</time>
      </trkpt>
      <trkpt lat="50.04807" lon="2.27131">
        <ele>129.3</ele>
        <time>2022-11-30T13:33:14Z</time>
      </trkpt>
      <trkpt lat="50.04808" lon="2.27129">
        <ele>129.3</ele>
        <time>2022-11-30T13:33:16Z</time>
      </trkpt>
      <trkpt lat="50.0481" lon="2.27128">
        <ele>129.3</ele>
        <time>2022-11-30T13:33:17Z</time>
      </trkpt>
      <trkpt lat="50.04811" lon="2.27127">
        <ele>129.3</ele>
        <time>2022-11-30T13:33:18Z</time>
      </trkpt>
      <trkpt lat="50.04811" lon="2.27126">
        <ele>129.3</ele>
        <time>2022-11-30T13:33:19Z</time>
      </trkpt>
      <trkpt lat="50.04813" lon="2.27124">
        <ele>129.2</ele>
        <time>2022-11-30T13:33:20Z</time>
      </trkpt>
      <trkpt lat="50.04814" lon="2.27123">
        <ele>129.2</ele>
        <time>2022-11-30T13:33:21Z</time>
      </trkpt>
      <trkpt lat="50.04815" lon="2.27122">
        <ele>129.2</ele>
        <time>2022-11-30T13:33:22Z</time>
      </trkpt>
      <trkpt lat="50.04817" lon="2.2712">
        <ele>129.2</ele>
        <time>2022-11-30T13:33:24Z</time>
      </trkpt>
      <trkpt lat="50.04818" lon="2.27119">
        <ele>129.2</ele>
        <time>2022-11-30T13:33:26Z</time>
      </trkpt>
      <trkpt lat="50.04819" lon="2.27118">
        <ele>129.2</ele>
        <time>2022-11-30T13:33:27Z</time>
      </trkpt>
      <trkpt lat="50.04819" lon="2.27116">
        <ele>129.2</ele>
        <time>2022-11-30T13:33:28Z</time>
      </trkpt>
      <trkpt lat="50.0482" lon="2.27115">
        <ele>129.2</ele>
        <time>2022-11-30T13:33:29Z</time>
      </trkpt>
      <trkpt lat="50.04821" lon="2.27113">
        <ele>129.1</ele>
        <time>2022-11-30T13:33:30Z</time>
      </trkpt>
      <trkpt lat="50.04822" lon="2.27112">
        <ele>129.1</ele>
        <time>2022-11-30T13:33:31Z</time>
      </trkpt>
      <trkpt lat="50.04823" lon="2.27111">
        <ele>129.1</ele>
        <time>2022-11-30T13:33:32Z</time>
      </trkpt>
      <trkpt lat="50.04824" lon="2.2711">
        <ele>129.1</ele>
        <time>2022-11-30T13:33:33Z</time>
      </trkpt>
      <trkpt lat="50.04824" lon="2.27109">
        <ele>129.1</ele>
        <time>2022-11-30T13:33:34Z</time>
      </trkpt>
      <trkpt lat="50.04825" lon="2.27108">
        <ele>129.1</ele>
        <time>2022-11-30T13:33:35Z</time>
      </trkpt>
      <trkpt lat="50.04826" lon="2.27107">
        <ele>129.1</ele>
        <time>2022-11-30T13:33:36Z</time>
      </trkpt>
      <trkpt lat="50.04827" lon="2.27106">
        <ele>129.1</ele>
        <time>2022-11-30T13:33:38Z</time>
      </trkpt>
      <trkpt lat="50.04828" lon="2.27105">
        <ele>129.1</ele>
        <time>2022-11-30T13:33:39Z</time>
      </trkpt>
      <trkpt lat="50.04829" lon="2.27104">
        <ele>129.1</ele>
        <time>2022-11-30T13:33:40Z</time>
      </trkpt>
      <trkpt lat="50.0483" lon="2.27104">
        <ele>129.1</ele>
        <time>2022-11-30T13:33:41Z</time>
      </trkpt>
      <trkpt lat="50.0483" lon="2.27103">
        <ele>129.1</ele>
        <time>2022-11-30T13:33:42Z</time>
      </trkpt>
      <trkpt lat="50.04831" lon="2.27103">
        <ele>129.1</ele>
        <time>2022-11-30T13:33:43Z</time>
      </trkpt>
      <trkpt lat="50.04832" lon="2.27102">
        <ele>129.1</ele>
        <time>2022-11-30T13:33:44Z</time>
      </trkpt>
      <trkpt lat="50.04833" lon="2.27101">
        <ele>129.1</ele>
        <time>2022-11-30T13:33:45Z</time>
      </trkpt>
      <trkpt lat="50.04835" lon="2.27101">
        <ele>129.1</ele>
        <time>2022-11-30T13:33:46Z</time>
      </trkpt>
      <trkpt lat="50.04836" lon="2.27101">
        <ele>129.1</ele>
        <time>2022-11-30T13:33:48Z</time>
      </trkpt>
      <trkpt lat="50.04837" lon="2.27101">
        <ele>129.1</ele>
        <time>2022-11-30T13:33:49Z</time>
      </trkpt>
      <trkpt lat="50.04838" lon="2.27101">
        <ele>129.1</ele>
        <time>2022-11-30T13:33:50Z</time>
      </trkpt>
      <trkpt lat="50.04839" lon="2.27101">
        <ele>129.1</ele>
        <time>2022-11-30T13:33:51Z</time>
      </trkpt>
      <trkpt lat="50.04839" lon="2.27101">
        <ele>129.1</ele>
        <time>2022-11-30T13:33:52Z</time>
      </trkpt>
      <trkpt lat="50.0484" lon="2.271">
        <ele>129.1</ele>
        <time>2022-11-30T13:33:53Z</time>
      </trkpt>
      <trkpt lat="50.04841" lon="2.271">
        <ele>129.1</ele>
        <time>2022-11-30T13:33:54Z</time>
      </trkpt>
      <trkpt lat="50.04842" lon="2.271">
        <ele>129.1</ele>
        <time>2022-11-30T13:33:55Z</time>
      </trkpt>
      <trkpt lat="50.04843" lon="2.27101">
        <ele>129.1</ele>
        <time>2022-11-30T13:33:56Z</time>
      </trkpt>
      <trkpt lat="50.04844" lon="2.27101">
        <ele>129.1</ele>
        <time>2022-11-30T13:33:58Z</time>
      </trkpt>
      <trkpt lat="50.04844" lon="2.27101">
        <ele>129.1</ele>
        <time>2022-11-30T13:33:59Z</time>
      </trkpt>
      <trkpt lat="50.04845" lon="2.27101">
        <ele>129.1</ele>
        <time>2022-11-30T13:34:00Z</time>
      </trkpt>
      <trkpt lat="50.04847" lon="2.27101">
        <ele>129.1</ele>
        <time>2022-11-30T13:34:01Z</time>
      </trkpt>
      <trkpt lat="50.04848" lon="2.27101">
        <ele>129.1</ele>
        <time>2022-11-30T13:34:02Z</time>
      </trkpt>
      <trkpt lat="50.04849" lon="2.27102">
        <ele>129.1</ele>
        <time>2022-11-30T13:34:03Z</time>
      </trkpt>
      <trkpt lat="50.04851" lon="2.27102">
        <ele>129.1</ele>
        <time>2022-11-30T13:34:04Z</time>
      </trkpt>
      <trkpt lat="50.04852" lon="2.27103">
        <ele>129.1</ele>
        <time>2022-11-30T13:34:05Z</time>
      </trkpt>
      <trkpt lat="50.04854" lon="2.27104">
        <ele>129.1</ele>
        <time>2022-11-30T13:34:06Z</time>
      </trkpt>
      <trkpt lat="50.04855" lon="2.27104">
        <ele>129.1</ele>
        <time>2022-11-30T13:34:07Z</time>
      </trkpt>
      <trkpt lat="50.04856" lon="2.27105">
        <ele>129.1</ele>
        <time>2022-11-30T13:34:09Z</time>
      </trkpt>
      <trkpt lat="50.04858" lon="2.27106">
        <ele>129.1</ele>
        <time>2022-11-30T13:34:10Z</time>
      </trkpt>
      <trkpt lat="50.0486" lon="2.27106">
        <ele>129.1</ele>
        <time>2022-11-30T13:34:11Z</time>
      </trkpt>
      <trkpt lat="50.04861" lon="2.27107">
        <ele>129.1</ele>
        <time>2022-11-30T13:34:12Z</time>
      </trkpt>
      <trkpt lat="50.04862" lon="2.27107">
        <ele>129.1</ele>
        <time>2022-11-30T13:34:13Z</time>
      </trkpt>
      <trkpt lat="50.04863" lon="2.27107">
        <ele>129.1</ele>
        <time>2022-11-30T13:34:14Z</time>
      </trkpt>
      <trkpt lat="50.04865" lon="2.27108">
        <ele>129.1</ele>
        <time>2022-11-30T13:34:16Z</time>
      </trkpt>
      <trkpt lat="50.04867" lon="2.27108">
        <ele>129.1</ele>
        <time>2022-11-30T13:34:17Z</time>
      </trkpt>
      <trkpt lat="50.04869" lon="2.27109">
        <ele>129.1</ele>
        <time>2022-11-30T13:34:18Z</time>
      </trkpt>
      <trkpt lat="50.0487" lon="2.27109">
        <ele>129.2</ele>
        <time>2022-11-30T13:34:19Z</time>
      </trkpt>
      <trkpt lat="50.04872" lon="2.2711">
        <ele>129.2</ele>
        <time>2022-11-30T13:34:20Z</time>
      </trkpt>
      <trkpt lat="50.04875" lon="2.27111">
        <ele>129.2</ele>
        <time>2022-11-30T13:34:21Z</time>
      </trkpt>
      <trkpt lat="50.04876" lon="2.27111">
        <ele>129.2</ele>
        <time>2022-11-30T13:34:22Z</time>
      </trkpt>
      <trkpt lat="50.04878" lon="2.27112">
        <ele>129.2</ele>
        <time>2022-11-30T13:34:23Z</time>
      </trkpt>
      <trkpt lat="50.04879" lon="2.27112">
        <ele>129.2</ele>
        <time>2022-11-30T13:34:24Z</time>
      </trkpt>
      <trkpt lat="50.0488" lon="2.27112">
        <ele>129.2</ele>
        <time>2022-11-30T13:34:26Z</time>
      </trkpt>
      <trkpt lat="50.04882" lon="2.27112">
        <ele>129.2</ele>
        <time>2022-11-30T13:34:27Z</time>
      </trkpt>
      <trkpt lat="50.04884" lon="2.27113">
        <ele>129.3</ele>
        <time>2022-11-30T13:34:28Z</time>
      </trkpt>
      <trkpt lat="50.04885" lon="2.27114">
        <ele>129.3</ele>
        <time>2022-11-30T13:34:29Z</time>
      </trkpt>
      <trkpt lat="50.04886" lon="2.27114">
        <ele>129.3</ele>
        <time>2022-11-30T13:34:30Z</time>
      </trkpt>
      <trkpt lat="50.04888" lon="2.27115">
        <ele>129.3</ele>
        <time>2022-11-30T13:34:31Z</time>
      </trkpt>
      <trkpt lat="50.04889" lon="2.27115">
        <ele>129.3</ele>
        <time>2022-11-30T13:34:32Z</time>
      </trkpt>
      <trkpt lat="50.04891" lon="2.27116">
        <ele>129.3</ele>
        <time>2022-11-30T13:34:33Z</time>
      </trkpt>
      <trkpt lat="50.04892" lon="2.27116">
        <ele>129.3</ele>
        <time>2022-11-30T13:34:34Z</time>
      </trkpt>
      <trkpt lat="50.04894" lon="2.27116">
        <ele>129.3</ele>
        <time>2022-11-30T13:34:35Z</time>
      </trkpt>
      <trkpt lat="50.04895" lon="2.27117">
        <ele>129.3</ele>
        <time>2022-11-30T13:34:37Z</time>
      </trkpt>
      <trkpt lat="50.04896" lon="2.27117">
        <ele>129.4</ele>
        <time>2022-11-30T13:34:38Z</time>
      </trkpt>
      <trkpt lat="50.04898" lon="2.27117">
        <ele>129.4</ele>
        <time>2022-11-30T13:34:39Z</time>
      </trkpt>
      <trkpt lat="50.04899" lon="2.27117">
        <ele>129.4</ele>
        <time>2022-11-30T13:34:40Z</time>
      </trkpt>
      <trkpt lat="50.049" lon="2.27116">
        <ele>129.4</ele>
        <time>2022-11-30T13:34:42Z</time>
      </trkpt>
      <trkpt lat="50.04901" lon="2.27116">
        <ele>129.4</ele>
        <time>2022-11-30T13:34:43Z</time>
      </trkpt>
      <trkpt lat="50.04902" lon="2.27116">
        <ele>129.4</ele>
        <time>2022-11-30T13:34:44Z</time>
      </trkpt>
      <trkpt lat="50.04903" lon="2.27116">
        <ele>129.4</ele>
        <time>2022-11-30T13:34:45Z</time>
      </trkpt>
      <trkpt lat="50.04905" lon="2.27116">
        <ele>129.4</ele>
        <time>2022-11-30T13:34:46Z</time>
      </trkpt>
      <trkpt lat="50.04906" lon="2.27116">
        <ele>129.4</ele>
        <time>2022-11-30T13:34:47Z</time>
      </trkpt>
      <trkpt lat="50.04906" lon="2.27116">
        <ele>129.5</ele>
        <time>2022-11-30T13:34:48Z</time>
      </trkpt>
      <trkpt lat="50.04907" lon="2.27115">
        <ele>129.5</ele>
        <time>2022-11-30T13:34:49Z</time>
      </trkpt>
      <trkpt lat="50.04908" lon="2.27115">
        <ele>129.5</ele>
        <time>2022-11-30T13:34:50Z</time>
      </trkpt>
      <trkpt lat="50.04909" lon="2.27115">
        <ele>129.5</ele>
        <time>2022-11-30T13:34:52Z</time>
      </trkpt>
      <trkpt lat="50.0491" lon="2.27115">
        <ele>129.5</ele>
        <time>2022-11-30T13:34:53Z</time>
      </trkpt>
      <trkpt lat="50.04912" lon="2.27115">
        <ele>129.5</ele>
        <time>2022-11-30T13:34:54Z</time>
      </trkpt>
      <trkpt lat="50.04913" lon="2.27115">
        <ele>129.5</ele>
        <time>2022-11-30T13:34:55Z</time>
      </trkpt>
      <trkpt lat="50.04913" lon="2.27115">
        <ele>129.6</ele>
        <time>2022-11-30T13:34:56Z</time>
      </trkpt>
      <trkpt lat="50.04914" lon="2.27115">
        <ele>129.6</ele>
        <time>2022-11-30T13:34:57Z</time>
      </trkpt>
      <trkpt lat="50.04916" lon="2.27115">
        <ele>129.6</ele>
        <time>2022-11-30T13:34:58Z</time>
      </trkpt>
      <trkpt lat="50.04917" lon="2.27115">
        <ele>129.6</ele>
        <time>2022-11-30T13:34:59Z</time>
      </trkpt>
      <trkpt lat="50.04918" lon="2.27115">
        <ele>129.6</ele>
        <time>2022-11-30T13:35:00Z</time>
      </trkpt>
      <trkpt lat="50.0492" lon="2.27115">
        <ele>129.6</ele>
        <time>2022-11-30T13:35:01Z</time>
      </trkpt>
      <trkpt lat="50.04921" lon="2.27115">
        <ele>129.7</ele>
        <time>2022-11-30T13:35:03Z</time>
      </trkpt>
      <trkpt lat="50.04922" lon="2.27115">
        <ele>129.7</ele>
        <time>2022-11-30T13:35:04Z</time>
      </trkpt>
      <trkpt lat="50.04923" lon="2.27115">
        <ele>129.7</ele>
        <time>2022-11-30T13:35:05Z</time>
      </trkpt>
      <trkpt lat="50.04924" lon="2.27115">
        <ele>129.7</ele>
        <time>2022-11-30T13:35:06Z</time>
      </trkpt>
      <trkpt lat="50.04925" lon="2.27115">
        <ele>129.7</ele>
        <time>2022-11-30T13:35:07Z</time>
      </trkpt>
      <trkpt lat="50.04926" lon="2.27116">
        <ele>129.8</ele>
        <time>2022-11-30T13:35:08Z</time>
      </trkpt>
      <trkpt lat="50.04927" lon="2.27116">
        <ele>129.8</ele>
        <time>2022-11-30T13:35:09Z</time>
      </trkpt>
      <trkpt lat="50.04929" lon="2.27116">
        <ele>129.8</ele>
        <time>2022-11-30T13:35:11Z</time>
      </trkpt>
      <trkpt lat="50.0493" lon="2.27115">
        <ele>129.8</ele>
        <time>2022-11-30T13:35:12Z</time>
      </trkpt>
      <trkpt lat="50.04932" lon="2.27115">
        <ele>129.9</ele>
        <time>2022-11-30T13:35:13Z</time>
      </trkpt>
      <trkpt lat="50.04933" lon="2.27114">
        <ele>129.9</ele>
        <time>2022-11-30T13:35:14Z</time>
      </trkpt>
      <trkpt lat="50.04934" lon="2.27114">
        <ele>129.9</ele>
        <time>2022-11-30T13:35:15Z</time>
      </trkpt>
      <trkpt lat="50.04935" lon="2.27114">
        <ele>129.9</ele>
        <time>2022-11-30T13:35:16Z</time>
      </trkpt>
      <trkpt lat="50.04936" lon="2.27114">
        <ele>130</ele>
        <time>2022-11-30T13:35:17Z</time>
      </trkpt>
      <trkpt lat="50.04937" lon="2.27115">
        <ele>130</ele>
        <time>2022-11-30T13:35:18Z</time>
      </trkpt>
      <trkpt lat="50.04938" lon="2.27115">
        <ele>130</ele>
        <time>2022-11-30T13:35:20Z</time>
      </trkpt>
      <trkpt lat="50.04939" lon="2.27115">
        <ele>130</ele>
        <time>2022-11-30T13:35:21Z</time>
      </trkpt>
      <trkpt lat="50.0494" lon="2.27115">
        <ele>130.1</ele>
        <time>2022-11-30T13:35:22Z</time>
      </trkpt>
      <trkpt lat="50.04941" lon="2.27115">
        <ele>130.1</ele>
        <time>2022-11-30T13:35:23Z</time>
      </trkpt>
      <trkpt lat="50.04942" lon="2.27114">
        <ele>130.1</ele>
        <time>2022-11-30T13:35:24Z</time>
      </trkpt>
      <trkpt lat="50.04943" lon="2.27114">
        <ele>130.1</ele>
        <time>2022-11-30T13:35:25Z</time>
      </trkpt>
      <trkpt lat="50.04945" lon="2.27113">
        <ele>130.2</ele>
        <time>2022-11-30T13:35:26Z</time>
      </trkpt>
      <trkpt lat="50.04946" lon="2.27113">
        <ele>130.2</ele>
        <time>2022-11-30T13:35:27Z</time>
      </trkpt>
      <trkpt lat="50.04947" lon="2.27113">
        <ele>130.2</ele>
        <time>2022-11-30T13:35:28Z</time>
      </trkpt>
      <trkpt lat="50.04948" lon="2.27113">
        <ele>130.2</ele>
        <time>2022-11-30T13:35:30Z</time>
      </trkpt>
      <trkpt lat="50.04949" lon="2.27112">
        <ele>130.3</ele>
        <time>2022-11-30T13:35:31Z</time>
      </trkpt>
      <trkpt lat="50.0495" lon="2.2711">
        <ele>130.3</ele>
        <time>2022-11-30T13:35:32Z</time>
      </trkpt>
      <trkpt lat="50.04951" lon="2.27109">
        <ele>130.3</ele>
        <time>2022-11-30T13:35:33Z</time>
      </trkpt>
      <trkpt lat="50.04952" lon="2.27109">
        <ele>130.4</ele>
        <time>2022-11-30T13:35:34Z</time>
      </trkpt>
      <trkpt lat="50.04953" lon="2.27109">
        <ele>130.4</ele>
        <time>2022-11-30T13:35:35Z</time>
      </trkpt>
      <trkpt lat="50.04954" lon="2.27109">
        <ele>130.4</ele>
        <time>2022-11-30T13:35:36Z</time>
      </trkpt>
      <trkpt lat="50.04955" lon="2.27109">
        <ele>130.5</ele>
        <time>2022-11-30T13:35:37Z</time>
      </trkpt>
      <trkpt lat="50.04956" lon="2.27109">
        <ele>130.5</ele>
        <time>2022-11-30T13:35:39Z</time>
      </trkpt>
      <trkpt lat="50.04957" lon="2.27108">
        <ele>130.5</ele>
        <time>2022-11-30T13:35:40Z</time>
      </trkpt>
      <trkpt lat="50.04958" lon="2.27108">
        <ele>130.5</ele>
        <time>2022-11-30T13:35:41Z</time>
      </trkpt>
      <trkpt lat="50.04958" lon="2.27108">
        <ele>130.6</ele>
        <time>2022-11-30T13:35:42Z</time>
      </trkpt>
      <trkpt lat="50.0496" lon="2.27108">
        <ele>130.6</ele>
        <time>2022-11-30T13:35:43Z</time>
      </trkpt>
      <trkpt lat="50.04961" lon="2.27108">
        <ele>130.6</ele>
        <time>2022-11-30T13:35:44Z</time>
      </trkpt>
      <trkpt lat="50.04961" lon="2.27108">
        <ele>130.7</ele>
        <time>2022-11-30T13:35:46Z</time>
      </trkpt>
      <trkpt lat="50.04962" lon="2.27108">
        <ele>130.7</ele>
        <time>2022-11-30T13:35:47Z</time>
      </trkpt>
      <trkpt lat="50.04963" lon="2.27107">
        <ele>130.7</ele>
        <time>2022-11-30T13:35:48Z</time>
      </trkpt>
      <trkpt lat="50.04964" lon="2.27107">
        <ele>130.8</ele>
        <time>2022-11-30T13:35:49Z</time>
      </trkpt>
      <trkpt lat="50.04965" lon="2.27106">
        <ele>130.8</ele>
        <time>2022-11-30T13:35:50Z</time>
      </trkpt>
      <trkpt lat="50.04967" lon="2.27105">
        <ele>130.9</ele>
        <time>2022-11-30T13:35:51Z</time>
      </trkpt>
      <trkpt lat="50.04967" lon="2.27104">
        <ele>130.9</ele>
        <time>2022-11-30T13:35:53Z</time>
      </trkpt>
      <trkpt lat="50.04968" lon="2.27104">
        <ele>131</ele>
        <time>2022-11-30T13:35:54Z</time>
      </trkpt>
      <trkpt lat="50.04969" lon="2.27103">
        <ele>131</ele>
        <time>2022-11-30T13:35:55Z</time>
      </trkpt>
      <trkpt lat="50.0497" lon="2.27102">
        <ele>131</ele>
        <time>2022-11-30T13:35:56Z</time>
      </trkpt>
      <trkpt lat="50.04971" lon="2.27101">
        <ele>131.1</ele>
        <time>2022-11-30T13:35:57Z</time>
      </trkpt>
      <trkpt lat="50.04972" lon="2.27101">
        <ele>131.1</ele>
        <time>2022-11-30T13:35:58Z</time>
      </trkpt>
      <trkpt lat="50.04973" lon="2.271">
        <ele>131.1</ele>
        <time>2022-11-30T13:35:59Z</time>
      </trkpt>
      <trkpt lat="50.04973" lon="2.271">
        <ele>131.1</ele>
        <time>2022-11-30T13:36:00Z</time>
      </trkpt>
      <trkpt lat="50.04974" lon="2.27098">
        <ele>131.1</ele>
        <time>2022-11-30T13:36:02Z</time>
      </trkpt>
      <trkpt lat="50.04974" lon="2.27097">
        <ele>131.1</ele>
        <time>2022-11-30T13:36:03Z</time>
      </trkpt>
      <trkpt lat="50.04975" lon="2.27096">
        <ele>131.1</ele>
        <time>2022-11-30T13:36:04Z</time>
      </trkpt>
      <trkpt lat="50.04976" lon="2.27094">
        <ele>131.1</ele>
        <time>2022-11-30T13:36:05Z</time>
      </trkpt>
      <trkpt lat="50.04976" lon="2.27093">
        <ele>131.1</ele>
        <time>2022-11-30T13:36:06Z</time>
      </trkpt>
      <trkpt lat="50.04976" lon="2.27093">
        <ele>131.1</ele>
        <time>2022-11-30T13:36:07Z</time>
      </trkpt>
      <trkpt lat="50.04976" lon="2.27092">
        <ele>131.1</ele>
        <time>2022-11-30T13:36:08Z</time>
      </trkpt>
      <trkpt lat="50.04976" lon="2.27091">
        <ele>131.1</ele>
        <time>2022-11-30T13:36:09Z</time>
      </trkpt>
      <trkpt lat="50.04975" lon="2.27091">
        <ele>131.1</ele>
        <time>2022-11-30T13:36:10Z</time>
      </trkpt>
      <trkpt lat="50.04975" lon="2.27091">
        <ele>131.1</ele>
        <time>2022-11-30T13:36:11Z</time>
      </trkpt>
      <trkpt lat="50.04975" lon="2.27092">
        <ele>131.1</ele>
        <time>2022-11-30T13:36:12Z</time>
      </trkpt>
      <trkpt lat="50.04975" lon="2.27092">
        <ele>131.1</ele>
        <time>2022-11-30T13:36:13Z</time>
      </trkpt>
      <trkpt lat="50.04975" lon="2.27092">
        <ele>131.1</ele>
        <time>2022-11-30T13:36:15Z</time>
      </trkpt>
      <trkpt lat="50.04975" lon="2.27092">
        <ele>131.1</ele>
        <time>2022-11-30T13:36:16Z</time>
      </trkpt>
      <trkpt lat="50.04975" lon="2.27092">
        <ele>131.1</ele>
        <time>2022-11-30T13:36:17Z</time>
      </trkpt>
      <trkpt lat="50.04976" lon="2.27092">
        <ele>131.1</ele>
        <time>2022-11-30T13:36:18Z</time>
      </trkpt>
      <trkpt lat="50.04977" lon="2.27092">
        <ele>131.1</ele>
        <time>2022-11-30T13:36:19Z</time>
      </trkpt>
      <trkpt lat="50.04978" lon="2.27093">
        <ele>131.1</ele>
        <time>2022-11-30T13:36:21Z</time>
      </trkpt>
      <trkpt lat="50.04979" lon="2.27094">
        <ele>131.1</ele>
        <time>2022-11-30T13:36:22Z</time>
      </trkpt>
      <trkpt lat="50.0498" lon="2.27094">
        <ele>131.1</ele>
        <time>2022-11-30T13:36:23Z</time>
      </trkpt>
      <trkpt lat="50.04981" lon="2.27094">
        <ele>131.1</ele>
        <time>2022-11-30T13:36:24Z</time>
      </trkpt>
      <trkpt lat="50.04982" lon="2.27094">
        <ele>131.1</ele>
        <time>2022-11-30T13:36:25Z</time>
      </trkpt>
      <trkpt lat="50.04983" lon="2.27094">
        <ele>131.1</ele>
        <time>2022-11-30T13:36:26Z</time>
      </trkpt>
      <trkpt lat="50.04985" lon="2.27093">
        <ele>131.2</ele>
        <time>2022-11-30T13:36:27Z</time>
      </trkpt>
      <trkpt lat="50.04986" lon="2.27093">
        <ele>131.2</ele>
        <time>2022-11-30T13:36:29Z</time>
      </trkpt>
      <trkpt lat="50.04987" lon="2.27092">
        <ele>131.2</ele>
        <time>2022-11-30T13:36:30Z</time>
      </trkpt>
      <trkpt lat="50.04989" lon="2.27091">
        <ele>131.2</ele>
        <time>2022-11-30T13:36:31Z</time>
      </trkpt>
      <trkpt lat="50.0499" lon="2.27091">
        <ele>131.2</ele>
        <time>2022-11-30T13:36:32Z</time>
      </trkpt>
      <trkpt lat="50.04991" lon="2.2709">
        <ele>131.2</ele>
        <time>2022-11-30T13:36:33Z</time>
      </trkpt>
      <trkpt lat="50.04992" lon="2.27089">
        <ele>131.2</ele>
        <time>2022-11-30T13:36:35Z</time>
      </trkpt>
      <trkpt lat="50.04993" lon="2.27089">
        <ele>131.3</ele>
        <time>2022-11-30T13:36:36Z</time>
      </trkpt>
      <trkpt lat="50.04994" lon="2.27088">
        <ele>131.3</ele>
        <time>2022-11-30T13:36:37Z</time>
      </trkpt>
      <trkpt lat="50.04995" lon="2.27088">
        <ele>131.3</ele>
        <time>2022-11-30T13:36:38Z</time>
      </trkpt>
      <trkpt lat="50.04996" lon="2.27087">
        <ele>131.3</ele>
        <time>2022-11-30T13:36:39Z</time>
      </trkpt>
      <trkpt lat="50.04998" lon="2.27086">
        <ele>131.3</ele>
        <time>2022-11-30T13:36:40Z</time>
      </trkpt>
      <trkpt lat="50.04999" lon="2.27086">
        <ele>131.4</ele>
        <time>2022-11-30T13:36:41Z</time>
      </trkpt>
      <trkpt lat="50.04999" lon="2.27085">
        <ele>131.4</ele>
        <time>2022-11-30T13:36:42Z</time>
      </trkpt>
      <trkpt lat="50.05" lon="2.27084">
        <ele>131.4</ele>
        <time>2022-11-30T13:36:44Z</time>
      </trkpt>
      <trkpt lat="50.05001" lon="2.27084">
        <ele>131.4</ele>
        <time>2022-11-30T13:36:45Z</time>
      </trkpt>
      <trkpt lat="50.05002" lon="2.27083">
        <ele>131.4</ele>
        <time>2022-11-30T13:36:46Z</time>
      </trkpt>
      <trkpt lat="50.05003" lon="2.27082">
        <ele>131.5</ele>
        <time>2022-11-30T13:36:47Z</time>
      </trkpt>
      <trkpt lat="50.05004" lon="2.27081">
        <ele>131.5</ele>
        <time>2022-11-30T13:36:48Z</time>
      </trkpt>
      <trkpt lat="50.05005" lon="2.27081">
        <ele>131.5</ele>
        <time>2022-11-30T13:36:49Z</time>
      </trkpt>
      <trkpt lat="50.05005" lon="2.2708">
        <ele>131.5</ele>
        <time>2022-11-30T13:36:50Z</time>
      </trkpt>
      <trkpt lat="50.05006" lon="2.27079">
        <ele>131.6</ele>
        <time>2022-11-30T13:36:51Z</time>
      </trkpt>
      <trkpt lat="50.05007" lon="2.27078">
        <ele>131.6</ele>
        <time>2022-11-30T13:36:52Z</time>
      </trkpt>
      <trkpt lat="50.05009" lon="2.27077">
        <ele>131.6</ele>
        <time>2022-11-30T13:36:54Z</time>
      </trkpt>
      <trkpt lat="50.0501" lon="2.27077">
        <ele>131.7</ele>
        <time>2022-11-30T13:36:55Z</time>
      </trkpt>
      <trkpt lat="50.05011" lon="2.27076">
        <ele>131.7</ele>
        <time>2022-11-30T13:36:56Z</time>
      </trkpt>
      <trkpt lat="50.05012" lon="2.27075">
        <ele>131.7</ele>
        <time>2022-11-30T13:36:57Z</time>
      </trkpt>
      <trkpt lat="50.05013" lon="2.27074">
        <ele>131.8</ele>
        <time>2022-11-30T13:36:58Z</time>
      </trkpt>
      <trkpt lat="50.05014" lon="2.27073">
        <ele>131.8</ele>
        <time>2022-11-30T13:36:59Z</time>
      </trkpt>
      <trkpt lat="50.05015" lon="2.27072">
        <ele>131.8</ele>
        <time>2022-11-30T13:37:01Z</time>
      </trkpt>
      <trkpt lat="50.05016" lon="2.27071">
        <ele>131.8</ele>
        <time>2022-11-30T13:37:02Z</time>
      </trkpt>
      <trkpt lat="50.05017" lon="2.2707">
        <ele>131.9</ele>
        <time>2022-11-30T13:37:03Z</time>
      </trkpt>
      <trkpt lat="50.05018" lon="2.27069">
        <ele>131.9</ele>
        <time>2022-11-30T13:37:04Z</time>
      </trkpt>
      <trkpt lat="50.0502" lon="2.27068">
        <ele>132</ele>
        <time>2022-11-30T13:37:05Z</time>
      </trkpt>
      <trkpt lat="50.05021" lon="2.27067">
        <ele>132</ele>
        <time>2022-11-30T13:37:06Z</time>
      </trkpt>
      <trkpt lat="50.05021" lon="2.27066">
        <ele>132</ele>
        <time>2022-11-30T13:37:07Z</time>
      </trkpt>
      <trkpt lat="50.05022" lon="2.27065">
        <ele>132</ele>
        <time>2022-11-30T13:37:09Z</time>
      </trkpt>
      <trkpt lat="50.05023" lon="2.27064">
        <ele>132.1</ele>
        <time>2022-11-30T13:37:10Z</time>
      </trkpt>
      <trkpt lat="50.05024" lon="2.27063">
        <ele>132.1</ele>
        <time>2022-11-30T13:37:11Z</time>
      </trkpt>
      <trkpt lat="50.05025" lon="2.27062">
        <ele>132.1</ele>
        <time>2022-11-30T13:37:12Z</time>
      </trkpt>
      <trkpt lat="50.05026" lon="2.27061">
        <ele>132.2</ele>
        <time>2022-11-30T13:37:13Z</time>
      </trkpt>
      <trkpt lat="50.05027" lon="2.27059">
        <ele>132.2</ele>
        <time>2022-11-30T13:37:15Z</time>
      </trkpt>
      <trkpt lat="50.05028" lon="2.27058">
        <ele>132.2</ele>
        <time>2022-11-30T13:37:16Z</time>
      </trkpt>
      <trkpt lat="50.05029" lon="2.27057">
        <ele>132.3</ele>
        <time>2022-11-30T13:37:17Z</time>
      </trkpt>
      <trkpt lat="50.0503" lon="2.27057">
        <ele>132.3</ele>
        <time>2022-11-30T13:37:18Z</time>
      </trkpt>
      <trkpt lat="50.05031" lon="2.27056">
        <ele>132.3</ele>
        <time>2022-11-30T13:37:19Z</time>
      </trkpt>
      <trkpt lat="50.05032" lon="2.27055">
        <ele>132.4</ele>
        <time>2022-11-30T13:37:20Z</time>
      </trkpt>
      <trkpt lat="50.05034" lon="2.27054">
        <ele>132.4</ele>
        <time>2022-11-30T13:37:22Z</time>
      </trkpt>
      <trkpt lat="50.05035" lon="2.27053">
        <ele>132.5</ele>
        <time>2022-11-30T13:37:23Z</time>
      </trkpt>
      <trkpt lat="50.05036" lon="2.27052">
        <ele>132.5</ele>
        <time>2022-11-30T13:37:24Z</time>
      </trkpt>
      <trkpt lat="50.05037" lon="2.27052">
        <ele>132.5</ele>
        <time>2022-11-30T13:37:25Z</time>
      </trkpt>
      <trkpt lat="50.05037" lon="2.27051">
        <ele>132.6</ele>
        <time>2022-11-30T13:37:26Z</time>
      </trkpt>
      <trkpt lat="50.05038" lon="2.2705">
        <ele>132.6</ele>
        <time>2022-11-30T13:37:27Z</time>
      </trkpt>
      <trkpt lat="50.05039" lon="2.27049">
        <ele>132.6</ele>
        <time>2022-11-30T13:37:28Z</time>
      </trkpt>
      <trkpt lat="50.0504" lon="2.27048">
        <ele>132.7</ele>
        <time>2022-11-30T13:37:30Z</time>
      </trkpt>
      <trkpt lat="50.05041" lon="2.27047">
        <ele>132.7</ele>
        <time>2022-11-30T13:37:31Z</time>
      </trkpt>
      <trkpt lat="50.05042" lon="2.27047">
        <ele>132.7</ele>
        <time>2022-11-30T13:37:32Z</time>
      </trkpt>
      <trkpt lat="50.05043" lon="2.27046">
        <ele>132.8</ele>
        <time>2022-11-30T13:37:33Z</time>
      </trkpt>
      <trkpt lat="50.05044" lon="2.27045">
        <ele>132.8</ele>
        <time>2022-11-30T13:37:34Z</time>
      </trkpt>
      <trkpt lat="50.05045" lon="2.27044">
        <ele>132.9</ele>
        <time>2022-11-30T13:37:35Z</time>
      </trkpt>
      <trkpt lat="50.05046" lon="2.27044">
        <ele>132.9</ele>
        <time>2022-11-30T13:37:37Z</time>
      </trkpt>
      <trkpt lat="50.05047" lon="2.27043">
        <ele>132.9</ele>
        <time>2022-11-30T13:37:38Z</time>
      </trkpt>
      <trkpt lat="50.05048" lon="2.27042">
        <ele>133</ele>
        <time>2022-11-30T13:37:39Z</time>
      </trkpt>
      <trkpt lat="50.05048" lon="2.27041">
        <ele>133</ele>
        <time>2022-11-30T13:37:40Z</time>
      </trkpt>
      <trkpt lat="50.05049" lon="2.27041">
        <ele>133</ele>
        <time>2022-11-30T13:37:41Z</time>
      </trkpt>
      <trkpt lat="50.0505" lon="2.2704">
        <ele>133.1</ele>
        <time>2022-11-30T13:37:42Z</time>
      </trkpt>
      <trkpt lat="50.05051" lon="2.27039">
        <ele>133.1</ele>
        <time>2022-11-30T13:37:44Z</time>
      </trkpt>
      <trkpt lat="50.05052" lon="2.27038">
        <ele>133.2</ele>
        <time>2022-11-30T13:37:45Z</time>
      </trkpt>
      <trkpt lat="50.05053" lon="2.27037">
        <ele>133.2</ele>
        <time>2022-11-30T13:37:46Z</time>
      </trkpt>
      <trkpt lat="50.05054" lon="2.27037">
        <ele>133.2</ele>
        <time>2022-11-30T13:37:47Z</time>
      </trkpt>
      <trkpt lat="50.05055" lon="2.27036">
        <ele>133.3</ele>
        <time>2022-11-30T13:37:48Z</time>
      </trkpt>
      <trkpt lat="50.05056" lon="2.27035">
        <ele>133.3</ele>
        <time>2022-11-30T13:37:49Z</time>
      </trkpt>
      <trkpt lat="50.05057" lon="2.27034">
        <ele>133.4</ele>
        <time>2022-11-30T13:37:51Z</time>
      </trkpt>
      <trkpt lat="50.05058" lon="2.27033">
        <ele>133.4</ele>
        <time>2022-11-30T13:37:52Z</time>
      </trkpt>
      <trkpt lat="50.05059" lon="2.27032">
        <ele>133.4</ele>
        <time>2022-11-30T13:37:53Z</time>
      </trkpt>
      <trkpt lat="50.0506" lon="2.27032">
        <ele>133.5</ele>
        <time>2022-11-30T13:37:54Z</time>
      </trkpt>
      <trkpt lat="50.05062" lon="2.27031">
        <ele>133.5</ele>
        <time>2022-11-30T13:37:55Z</time>
      </trkpt>
      <trkpt lat="50.05063" lon="2.2703">
        <ele>133.6</ele>
        <time>2022-11-30T13:37:56Z</time>
      </trkpt>
      <trkpt lat="50.05064" lon="2.2703">
        <ele>133.6</ele>
        <time>2022-11-30T13:37:57Z</time>
      </trkpt>
      <trkpt lat="50.05065" lon="2.27029">
        <ele>133.6</ele>
        <time>2022-11-30T13:37:59Z</time>
      </trkpt>
      <trkpt lat="50.05066" lon="2.27028">
        <ele>133.7</ele>
        <time>2022-11-30T13:38:00Z</time>
      </trkpt>
      <trkpt lat="50.05067" lon="2.27027">
        <ele>133.7</ele>
        <time>2022-11-30T13:38:01Z</time>
      </trkpt>
      <trkpt lat="50.05069" lon="2.27026">
        <ele>133.8</ele>
        <time>2022-11-30T13:38:02Z</time>
      </trkpt>
      <trkpt lat="50.05069" lon="2.27025">
        <ele>133.8</ele>
        <time>2022-11-30T13:38:03Z</time>
      </trkpt>
      <trkpt lat="50.0507" lon="2.27025">
        <ele>133.8</ele>
        <time>2022-11-30T13:38:04Z</time>
      </trkpt>
      <trkpt lat="50.05071" lon="2.27024">
        <ele>133.9</ele>
        <time>2022-11-30T13:38:06Z</time>
      </trkpt>
      <trkpt lat="50.05072" lon="2.27023">
        <ele>133.9</ele>
        <time>2022-11-30T13:38:07Z</time>
      </trkpt>
      <trkpt lat="50.05073" lon="2.27022">
        <ele>134</ele>
        <time>2022-11-30T13:38:08Z</time>
      </trkpt>
      <trkpt lat="50.05075" lon="2.2702">
        <ele>134</ele>
        <time>2022-11-30T13:38:09Z</time>
      </trkpt>
      <trkpt lat="50.05076" lon="2.27019">
        <ele>134.1</ele>
        <time>2022-11-30T13:38:10Z</time>
      </trkpt>
      <trkpt lat="50.05077" lon="2.27018">
        <ele>134.1</ele>
        <time>2022-11-30T13:38:12Z</time>
      </trkpt>
      <trkpt lat="50.05077" lon="2.27017">
        <ele>134.1</ele>
        <time>2022-11-30T13:38:13Z</time>
      </trkpt>
      <trkpt lat="50.05078" lon="2.27016">
        <ele>134.1</ele>
        <time>2022-11-30T13:38:14Z</time>
      </trkpt>
      <trkpt lat="50.05079" lon="2.27015">
        <ele>134.2</ele>
        <time>2022-11-30T13:38:15Z</time>
      </trkpt>
      <trkpt lat="50.0508" lon="2.27014">
        <ele>134.2</ele>
        <time>2022-11-30T13:38:16Z</time>
      </trkpt>
      <trkpt lat="50.05081" lon="2.27013">
        <ele>134.2</ele>
        <time>2022-11-30T13:38:17Z</time>
      </trkpt>
      <trkpt lat="50.05083" lon="2.27012">
        <ele>134.3</ele>
        <time>2022-11-30T13:38:18Z</time>
      </trkpt>
      <trkpt lat="50.05084" lon="2.27011">
        <ele>134.3</ele>
        <time>2022-11-30T13:38:20Z</time>
      </trkpt>
      <trkpt lat="50.05085" lon="2.2701">
        <ele>134.3</ele>
        <time>2022-11-30T13:38:21Z</time>
      </trkpt>
      <trkpt lat="50.05086" lon="2.27009">
        <ele>134.4</ele>
        <time>2022-11-30T13:38:22Z</time>
      </trkpt>
      <trkpt lat="50.05087" lon="2.27008">
        <ele>134.4</ele>
        <time>2022-11-30T13:38:23Z</time>
      </trkpt>
      <trkpt lat="50.05088" lon="2.27007">
        <ele>134.4</ele>
        <time>2022-11-30T13:38:24Z</time>
      </trkpt>
      <trkpt lat="50.0509" lon="2.27006">
        <ele>134.5</ele>
        <time>2022-11-30T13:38:25Z</time>
      </trkpt>
      <trkpt lat="50.05091" lon="2.27005">
        <ele>134.5</ele>
        <time>2022-11-30T13:38:27Z</time>
      </trkpt>
      <trkpt lat="50.05093" lon="2.27004">
        <ele>134.5</ele>
        <time>2022-11-30T13:38:28Z</time>
      </trkpt>
      <trkpt lat="50.05093" lon="2.27003">
        <ele>134.5</ele>
        <time>2022-11-30T13:38:29Z</time>
      </trkpt>
      <trkpt lat="50.05094" lon="2.27003">
        <ele>134.6</ele>
        <time>2022-11-30T13:38:30Z</time>
      </trkpt>
      <trkpt lat="50.05095" lon="2.27002">
        <ele>134.6</ele>
        <time>2022-11-30T13:38:31Z</time>
      </trkpt>
      <trkpt lat="50.05096" lon="2.27001">
        <ele>134.6</ele>
        <time>2022-11-30T13:38:32Z</time>
      </trkpt>
      <trkpt lat="50.05097" lon="2.27001">
        <ele>134.6</ele>
        <time>2022-11-30T13:38:33Z</time>
      </trkpt>
      <trkpt lat="50.05099" lon="2.27">
        <ele>134.7</ele>
        <time>2022-11-30T13:38:34Z</time>
      </trkpt>
      <trkpt lat="50.051" lon="2.27">
        <ele>134.7</ele>
        <time>2022-11-30T13:38:36Z</time>
      </trkpt>
      <trkpt lat="50.05101" lon="2.26999">
        <ele>134.7</ele>
        <time>2022-11-30T13:38:37Z</time>
      </trkpt>
      <trkpt lat="50.05102" lon="2.26999">
        <ele>134.7</ele>
        <time>2022-11-30T13:38:38Z</time>
      </trkpt>
      <trkpt lat="50.05103" lon="2.26998">
        <ele>134.7</ele>
        <time>2022-11-30T13:38:39Z</time>
      </trkpt>
      <trkpt lat="50.05104" lon="2.26998">
        <ele>134.7</ele>
        <time>2022-11-30T13:38:40Z</time>
      </trkpt>
      <trkpt lat="50.05106" lon="2.26997">
        <ele>134.8</ele>
        <time>2022-11-30T13:38:42Z</time>
      </trkpt>
      <trkpt lat="50.05107" lon="2.26996">
        <ele>134.8</ele>
        <time>2022-11-30T13:38:43Z</time>
      </trkpt>
      <trkpt lat="50.05107" lon="2.26996">
        <ele>134.8</ele>
        <time>2022-11-30T13:38:44Z</time>
      </trkpt>
      <trkpt lat="50.05109" lon="2.26995">
        <ele>134.8</ele>
        <time>2022-11-30T13:38:45Z</time>
      </trkpt>
      <trkpt lat="50.0511" lon="2.26995">
        <ele>134.9</ele>
        <time>2022-11-30T13:38:46Z</time>
      </trkpt>
      <trkpt lat="50.05111" lon="2.26994">
        <ele>134.9</ele>
        <time>2022-11-30T13:38:47Z</time>
      </trkpt>
      <trkpt lat="50.05112" lon="2.26994">
        <ele>134.9</ele>
        <time>2022-11-30T13:38:48Z</time>
      </trkpt>
      <trkpt lat="50.05113" lon="2.26993">
        <ele>134.9</ele>
        <time>2022-11-30T13:38:49Z</time>
      </trkpt>
      <trkpt lat="50.05114" lon="2.26993">
        <ele>134.9</ele>
        <time>2022-11-30T13:38:50Z</time>
      </trkpt>
      <trkpt lat="50.05115" lon="2.26992">
        <ele>135</ele>
        <time>2022-11-30T13:38:51Z</time>
      </trkpt>
      <trkpt lat="50.05117" lon="2.26992">
        <ele>135</ele>
        <time>2022-11-30T13:38:52Z</time>
      </trkpt>
      <trkpt lat="50.05118" lon="2.26991">
        <ele>135</ele>
        <time>2022-11-30T13:38:54Z</time>
      </trkpt>
      <trkpt lat="50.05119" lon="2.2699">
        <ele>135.1</ele>
        <time>2022-11-30T13:38:55Z</time>
      </trkpt>
      <trkpt lat="50.0512" lon="2.2699">
        <ele>135.1</ele>
        <time>2022-11-30T13:38:56Z</time>
      </trkpt>
      <trkpt lat="50.05121" lon="2.26989">
        <ele>135.1</ele>
        <time>2022-11-30T13:38:57Z</time>
      </trkpt>
      <trkpt lat="50.05121" lon="2.26989">
        <ele>135.1</ele>
        <time>2022-11-30T13:38:58Z</time>
      </trkpt>
      <trkpt lat="50.05122" lon="2.26988">
        <ele>135.1</ele>
        <time>2022-11-30T13:38:59Z</time>
      </trkpt>
      <trkpt lat="50.05124" lon="2.26987">
        <ele>135.2</ele>
        <time>2022-11-30T13:39:00Z</time>
      </trkpt>
      <trkpt lat="50.05125" lon="2.26987">
        <ele>135.2</ele>
        <time>2022-11-30T13:39:01Z</time>
      </trkpt>
      <trkpt lat="50.05126" lon="2.26986">
        <ele>135.2</ele>
        <time>2022-11-30T13:39:02Z</time>
      </trkpt>
      <trkpt lat="50.05128" lon="2.26985">
        <ele>135.3</ele>
        <time>2022-11-30T13:39:04Z</time>
      </trkpt>
      <trkpt lat="50.05129" lon="2.26984">
        <ele>135.3</ele>
        <time>2022-11-30T13:39:05Z</time>
      </trkpt>
      <trkpt lat="50.0513" lon="2.26984">
        <ele>135.3</ele>
        <time>2022-11-30T13:39:06Z</time>
      </trkpt>
      <trkpt lat="50.05132" lon="2.26983">
        <ele>135.4</ele>
        <time>2022-11-30T13:39:07Z</time>
      </trkpt>
      <trkpt lat="50.05133" lon="2.26983">
        <ele>135.4</ele>
        <time>2022-11-30T13:39:08Z</time>
      </trkpt>
      <trkpt lat="50.05134" lon="2.26982">
        <ele>135.4</ele>
        <time>2022-11-30T13:39:09Z</time>
      </trkpt>
      <trkpt lat="50.05135" lon="2.26982">
        <ele>135.4</ele>
        <time>2022-11-30T13:39:10Z</time>
      </trkpt>
      <trkpt lat="50.05136" lon="2.26981">
        <ele>135.5</ele>
        <time>2022-11-30T13:39:11Z</time>
      </trkpt>
      <trkpt lat="50.05138" lon="2.26981">
        <ele>135.5</ele>
        <time>2022-11-30T13:39:13Z</time>
      </trkpt>
      <trkpt lat="50.05139" lon="2.26981">
        <ele>135.5</ele>
        <time>2022-11-30T13:39:14Z</time>
      </trkpt>
      <trkpt lat="50.0514" lon="2.2698">
        <ele>135.5</ele>
        <time>2022-11-30T13:39:15Z</time>
      </trkpt>
      <trkpt lat="50.05141" lon="2.2698">
        <ele>135.6</ele>
        <time>2022-11-30T13:39:16Z</time>
      </trkpt>
      <trkpt lat="50.05142" lon="2.2698">
        <ele>135.6</ele>
        <time>2022-11-30T13:39:17Z</time>
      </trkpt>
      <trkpt lat="50.05144" lon="2.2698">
        <ele>135.6</ele>
        <time>2022-11-30T13:39:18Z</time>
      </trkpt>
      <trkpt lat="50.05145" lon="2.26979">
        <ele>135.6</ele>
        <time>2022-11-30T13:39:19Z</time>
      </trkpt>
      <trkpt lat="50.05146" lon="2.26979">
        <ele>135.6</ele>
        <time>2022-11-30T13:39:20Z</time>
      </trkpt>
      <trkpt lat="50.05148" lon="2.26979">
        <ele>135.7</ele>
        <time>2022-11-30T13:39:22Z</time>
      </trkpt>
      <trkpt lat="50.0515" lon="2.26978">
        <ele>135.7</ele>
        <time>2022-11-30T13:39:23Z</time>
      </trkpt>
      <trkpt lat="50.05151" lon="2.26978">
        <ele>135.7</ele>
        <time>2022-11-30T13:39:24Z</time>
      </trkpt>
      <trkpt lat="50.05151" lon="2.26978">
        <ele>135.7</ele>
        <time>2022-11-30T13:39:25Z</time>
      </trkpt>
      <trkpt lat="50.05153" lon="2.26977">
        <ele>135.8</ele>
        <time>2022-11-30T13:39:26Z</time>
      </trkpt>
      <trkpt lat="50.05154" lon="2.26976">
        <ele>135.8</ele>
        <time>2022-11-30T13:39:27Z</time>
      </trkpt>
      <trkpt lat="50.05155" lon="2.26976">
        <ele>135.8</ele>
        <time>2022-11-30T13:39:28Z</time>
      </trkpt>
      <trkpt lat="50.05156" lon="2.26975">
        <ele>135.8</ele>
        <time>2022-11-30T13:39:29Z</time>
      </trkpt>
      <trkpt lat="50.05158" lon="2.26975">
        <ele>135.9</ele>
        <time>2022-11-30T13:39:30Z</time>
      </trkpt>
      <trkpt lat="50.05159" lon="2.26974">
        <ele>135.9</ele>
        <time>2022-11-30T13:39:32Z</time>
      </trkpt>
      <trkpt lat="50.0516" lon="2.26974">
        <ele>135.9</ele>
        <time>2022-11-30T13:39:33Z</time>
      </trkpt>
      <trkpt lat="50.05161" lon="2.26973">
        <ele>135.9</ele>
        <time>2022-11-30T13:39:34Z</time>
      </trkpt>
      <trkpt lat="50.05162" lon="2.26973">
        <ele>136</ele>
        <time>2022-11-30T13:39:35Z</time>
      </trkpt>
      <trkpt lat="50.05164" lon="2.26972">
        <ele>136</ele>
        <time>2022-11-30T13:39:36Z</time>
      </trkpt>
      <trkpt lat="50.05165" lon="2.26971">
        <ele>136</ele>
        <time>2022-11-30T13:39:37Z</time>
      </trkpt>
      <trkpt lat="50.05166" lon="2.26971">
        <ele>136</ele>
        <time>2022-11-30T13:39:38Z</time>
      </trkpt>
      <trkpt lat="50.05168" lon="2.2697">
        <ele>136</ele>
        <time>2022-11-30T13:39:39Z</time>
      </trkpt>
      <trkpt lat="50.05169" lon="2.2697">
        <ele>136.1</ele>
        <time>2022-11-30T13:39:41Z</time>
      </trkpt>
      <trkpt lat="50.05169" lon="2.2697">
        <ele>136.1</ele>
        <time>2022-11-30T13:39:42Z</time>
      </trkpt>
      <trkpt lat="50.05171" lon="2.26969">
        <ele>136.1</ele>
        <time>2022-11-30T13:39:43Z</time>
      </trkpt>
      <trkpt lat="50.05172" lon="2.26969">
        <ele>136.1</ele>
        <time>2022-11-30T13:39:44Z</time>
      </trkpt>
      <trkpt lat="50.05173" lon="2.26969">
        <ele>136.1</ele>
        <time>2022-11-30T13:39:45Z</time>
      </trkpt>
      <trkpt lat="50.05174" lon="2.26969">
        <ele>136.1</ele>
        <time>2022-11-30T13:39:46Z</time>
      </trkpt>
      <trkpt lat="50.05176" lon="2.26968">
        <ele>136.2</ele>
        <time>2022-11-30T13:39:47Z</time>
      </trkpt>
      <trkpt lat="50.05178" lon="2.26967">
        <ele>136.2</ele>
        <time>2022-11-30T13:39:48Z</time>
      </trkpt>
      <trkpt lat="50.05179" lon="2.26966">
        <ele>136.2</ele>
        <time>2022-11-30T13:39:50Z</time>
      </trkpt>
      <trkpt lat="50.0518" lon="2.26966">
        <ele>136.2</ele>
        <time>2022-11-30T13:39:51Z</time>
      </trkpt>
      <trkpt lat="50.05181" lon="2.26965">
        <ele>136.3</ele>
        <time>2022-11-30T13:39:52Z</time>
      </trkpt>
      <trkpt lat="50.05182" lon="2.26965">
        <ele>136.3</ele>
        <time>2022-11-30T13:39:53Z</time>
      </trkpt>
      <trkpt lat="50.05184" lon="2.26963">
        <ele>136.3</ele>
        <time>2022-11-30T13:39:54Z</time>
      </trkpt>
      <trkpt lat="50.05184" lon="2.26963">
        <ele>136.3</ele>
        <time>2022-11-30T13:39:55Z</time>
      </trkpt>
      <trkpt lat="50.05185" lon="2.26962">
        <ele>136.3</ele>
        <time>2022-11-30T13:39:56Z</time>
      </trkpt>
      <trkpt lat="50.05186" lon="2.26961">
        <ele>136.3</ele>
        <time>2022-11-30T13:39:57Z</time>
      </trkpt>
      <trkpt lat="50.05187" lon="2.2696">
        <ele>136.4</ele>
        <time>2022-11-30T13:39:58Z</time>
      </trkpt>
      <trkpt lat="50.05188" lon="2.2696">
        <ele>136.4</ele>
        <time>2022-11-30T13:40:00Z</time>
      </trkpt>
      <trkpt lat="50.05189" lon="2.26959">
        <ele>136.4</ele>
        <time>2022-11-30T13:40:01Z</time>
      </trkpt>
      <trkpt lat="50.0519" lon="2.26958">
        <ele>136.4</ele>
        <time>2022-11-30T13:40:02Z</time>
      </trkpt>
      <trkpt lat="50.05191" lon="2.26957">
        <ele>136.4</ele>
        <time>2022-11-30T13:40:03Z</time>
      </trkpt>
      <trkpt lat="50.05193" lon="2.26956">
        <ele>136.5</ele>
        <time>2022-11-30T13:40:04Z</time>
      </trkpt>
      <trkpt lat="50.05194" lon="2.26955">
        <ele>136.5</ele>
        <time>2022-11-30T13:40:05Z</time>
      </trkpt>
      <trkpt lat="50.05194" lon="2.26955">
        <ele>136.5</ele>
        <time>2022-11-30T13:40:06Z</time>
      </trkpt>
      <trkpt lat="50.05196" lon="2.26954">
        <ele>136.5</ele>
        <time>2022-11-30T13:40:07Z</time>
      </trkpt>
      <trkpt lat="50.05197" lon="2.26954">
        <ele>136.5</ele>
        <time>2022-11-30T13:40:08Z</time>
      </trkpt>
      <trkpt lat="50.05198" lon="2.26953">
        <ele>136.6</ele>
        <time>2022-11-30T13:40:10Z</time>
      </trkpt>
      <trkpt lat="50.052" lon="2.26952">
        <ele>136.6</ele>
        <time>2022-11-30T13:40:11Z</time>
      </trkpt>
      <trkpt lat="50.05201" lon="2.26951">
        <ele>136.6</ele>
        <time>2022-11-30T13:40:12Z</time>
      </trkpt>
      <trkpt lat="50.05202" lon="2.2695">
        <ele>136.6</ele>
        <time>2022-11-30T13:40:13Z</time>
      </trkpt>
      <trkpt lat="50.05203" lon="2.26949">
        <ele>136.6</ele>
        <time>2022-11-30T13:40:14Z</time>
      </trkpt>
      <trkpt lat="50.05205" lon="2.26947">
        <ele>136.7</ele>
        <time>2022-11-30T13:40:15Z</time>
      </trkpt>
      <trkpt lat="50.05205" lon="2.26946">
        <ele>136.7</ele>
        <time>2022-11-30T13:40:16Z</time>
      </trkpt>
      <trkpt lat="50.05206" lon="2.26946">
        <ele>136.7</ele>
        <time>2022-11-30T13:40:17Z</time>
      </trkpt>
      <trkpt lat="50.05208" lon="2.26944">
        <ele>136.7</ele>
        <time>2022-11-30T13:40:18Z</time>
      </trkpt>
      <trkpt lat="50.05209" lon="2.26944">
        <ele>136.7</ele>
        <time>2022-11-30T13:40:20Z</time>
      </trkpt>
      <trkpt lat="50.0521" lon="2.26943">
        <ele>136.7</ele>
        <time>2022-11-30T13:40:21Z</time>
      </trkpt>
      <trkpt lat="50.05211" lon="2.26943">
        <ele>136.8</ele>
        <time>2022-11-30T13:40:22Z</time>
      </trkpt>
      <trkpt lat="50.05212" lon="2.26942">
        <ele>136.8</ele>
        <time>2022-11-30T13:40:23Z</time>
      </trkpt>
      <trkpt lat="50.05212" lon="2.26942">
        <ele>136.8</ele>
        <time>2022-11-30T13:40:24Z</time>
      </trkpt>
      <trkpt lat="50.05213" lon="2.26942">
        <ele>136.8</ele>
        <time>2022-11-30T13:40:25Z</time>
      </trkpt>
      <trkpt lat="50.05215" lon="2.26941">
        <ele>136.8</ele>
        <time>2022-11-30T13:40:26Z</time>
      </trkpt>
      <trkpt lat="50.05216" lon="2.26941">
        <ele>136.8</ele>
        <time>2022-11-30T13:40:27Z</time>
      </trkpt>
      <trkpt lat="50.05217" lon="2.26941">
        <ele>136.8</ele>
        <time>2022-11-30T13:40:28Z</time>
      </trkpt>
      <trkpt lat="50.05218" lon="2.2694">
        <ele>136.8</ele>
        <time>2022-11-30T13:40:30Z</time>
      </trkpt>
      <trkpt lat="50.0522" lon="2.2694">
        <ele>136.8</ele>
        <time>2022-11-30T13:40:31Z</time>
      </trkpt>
      <trkpt lat="50.05221" lon="2.26939">
        <ele>136.9</ele>
        <time>2022-11-30T13:40:32Z</time>
      </trkpt>
      <trkpt lat="50.05222" lon="2.26939">
        <ele>136.9</ele>
        <time>2022-11-30T13:40:33Z</time>
      </trkpt>
      <trkpt lat="50.05223" lon="2.26938">
        <ele>136.9</ele>
        <time>2022-11-30T13:40:34Z</time>
      </trkpt>
      <trkpt lat="50.05224" lon="2.26938">
        <ele>136.9</ele>
        <time>2022-11-30T13:40:35Z</time>
      </trkpt>
      <trkpt lat="50.05225" lon="2.26938">
        <ele>136.9</ele>
        <time>2022-11-30T13:40:36Z</time>
      </trkpt>
      <trkpt lat="50.05228" lon="2.26937">
        <ele>136.9</ele>
        <time>2022-11-30T13:40:37Z</time>
      </trkpt>
      <trkpt lat="50.05229" lon="2.26936">
        <ele>136.9</ele>
        <time>2022-11-30T13:40:39Z</time>
      </trkpt>
      <trkpt lat="50.0523" lon="2.26936">
        <ele>136.9</ele>
        <time>2022-11-30T13:40:40Z</time>
      </trkpt>
      <trkpt lat="50.05231" lon="2.26936">
        <ele>136.9</ele>
        <time>2022-11-30T13:40:41Z</time>
      </trkpt>
      <trkpt lat="50.05232" lon="2.26936">
        <ele>137</ele>
        <time>2022-11-30T13:40:42Z</time>
      </trkpt>
      <trkpt lat="50.05232" lon="2.26935">
        <ele>137</ele>
        <time>2022-11-30T13:40:43Z</time>
      </trkpt>
      <trkpt lat="50.05233" lon="2.26935">
        <ele>137</ele>
        <time>2022-11-30T13:40:44Z</time>
      </trkpt>
      <trkpt lat="50.05234" lon="2.26934">
        <ele>137</ele>
        <time>2022-11-30T13:40:45Z</time>
      </trkpt>
      <trkpt lat="50.05236" lon="2.26933">
        <ele>137</ele>
        <time>2022-11-30T13:40:46Z</time>
      </trkpt>
      <trkpt lat="50.05237" lon="2.26932">
        <ele>137</ele>
        <time>2022-11-30T13:40:47Z</time>
      </trkpt>
      <trkpt lat="50.05238" lon="2.26932">
        <ele>137</ele>
        <time>2022-11-30T13:40:48Z</time>
      </trkpt>
      <trkpt lat="50.0524" lon="2.26931">
        <ele>137</ele>
        <time>2022-11-30T13:40:50Z</time>
      </trkpt>
      <trkpt lat="50.05241" lon="2.26931">
        <ele>137</ele>
        <time>2022-11-30T13:40:51Z</time>
      </trkpt>
      <trkpt lat="50.05242" lon="2.2693">
        <ele>137.1</ele>
        <time>2022-11-30T13:40:52Z</time>
      </trkpt>
      <trkpt lat="50.05242" lon="2.2693">
        <ele>137.1</ele>
        <time>2022-11-30T13:40:53Z</time>
      </trkpt>
      <trkpt lat="50.05243" lon="2.26929">
        <ele>137.1</ele>
        <time>2022-11-30T13:40:54Z</time>
      </trkpt>
      <trkpt lat="50.05245" lon="2.26929">
        <ele>137.1</ele>
        <time>2022-11-30T13:40:55Z</time>
      </trkpt>
      <trkpt lat="50.05246" lon="2.26928">
        <ele>137.1</ele>
        <time>2022-11-30T13:40:56Z</time>
      </trkpt>
      <trkpt lat="50.05247" lon="2.26928">
        <ele>137.1</ele>
        <time>2022-11-30T13:40:57Z</time>
      </trkpt>
      <trkpt lat="50.05248" lon="2.26928">
        <ele>137.1</ele>
        <time>2022-11-30T13:40:58Z</time>
      </trkpt>
      <trkpt lat="50.0525" lon="2.26927">
        <ele>137.1</ele>
        <time>2022-11-30T13:40:59Z</time>
      </trkpt>
      <trkpt lat="50.05251" lon="2.26927">
        <ele>137.1</ele>
        <time>2022-11-30T13:41:01Z</time>
      </trkpt>
      <trkpt lat="50.05252" lon="2.26926">
        <ele>137.2</ele>
        <time>2022-11-30T13:41:02Z</time>
      </trkpt>
      <trkpt lat="50.05253" lon="2.26926">
        <ele>137.2</ele>
        <time>2022-11-30T13:41:03Z</time>
      </trkpt>
      <trkpt lat="50.05254" lon="2.26925">
        <ele>137.2</ele>
        <time>2022-11-30T13:41:04Z</time>
      </trkpt>
      <trkpt lat="50.05255" lon="2.26925">
        <ele>137.2</ele>
        <time>2022-11-30T13:41:05Z</time>
      </trkpt>
      <trkpt lat="50.05256" lon="2.26924">
        <ele>137.2</ele>
        <time>2022-11-30T13:41:06Z</time>
      </trkpt>
      <trkpt lat="50.05257" lon="2.26924">
        <ele>137.2</ele>
        <time>2022-11-30T13:41:07Z</time>
      </trkpt>
      <trkpt lat="50.05259" lon="2.26923">
        <ele>137.2</ele>
        <time>2022-11-30T13:41:08Z</time>
      </trkpt>
      <trkpt lat="50.0526" lon="2.26923">
        <ele>137.2</ele>
        <time>2022-11-30T13:41:09Z</time>
      </trkpt>
      <trkpt lat="50.05261" lon="2.26922">
        <ele>137.3</ele>
        <time>2022-11-30T13:41:10Z</time>
      </trkpt>
      <trkpt lat="50.05262" lon="2.26922">
        <ele>137.3</ele>
        <time>2022-11-30T13:41:12Z</time>
      </trkpt>
      <trkpt lat="50.05263" lon="2.26921">
        <ele>137.3</ele>
        <time>2022-11-30T13:41:13Z</time>
      </trkpt>
      <trkpt lat="50.05264" lon="2.26921">
        <ele>137.3</ele>
        <time>2022-11-30T13:41:14Z</time>
      </trkpt>
      <trkpt lat="50.05265" lon="2.26921">
        <ele>137.3</ele>
        <time>2022-11-30T13:41:15Z</time>
      </trkpt>
      <trkpt lat="50.05266" lon="2.26921">
        <ele>137.3</ele>
        <time>2022-11-30T13:41:16Z</time>
      </trkpt>
      <trkpt lat="50.05267" lon="2.26921">
        <ele>137.3</ele>
        <time>2022-11-30T13:41:17Z</time>
      </trkpt>
      <trkpt lat="50.05269" lon="2.26921">
        <ele>137.3</ele>
        <time>2022-11-30T13:41:18Z</time>
      </trkpt>
      <trkpt lat="50.0527" lon="2.26921">
        <ele>137.3</ele>
        <time>2022-11-30T13:41:19Z</time>
      </trkpt>
      <trkpt lat="50.05271" lon="2.26921">
        <ele>137.4</ele>
        <time>2022-11-30T13:41:20Z</time>
      </trkpt>
      <trkpt lat="50.05272" lon="2.2692">
        <ele>137.4</ele>
        <time>2022-11-30T13:41:21Z</time>
      </trkpt>
      <trkpt lat="50.05273" lon="2.2692">
        <ele>137.4</ele>
        <time>2022-11-30T13:41:22Z</time>
      </trkpt>
      <trkpt lat="50.05275" lon="2.26919">
        <ele>137.4</ele>
        <time>2022-11-30T13:41:24Z</time>
      </trkpt>
      <trkpt lat="50.05276" lon="2.26918">
        <ele>137.4</ele>
        <time>2022-11-30T13:41:25Z</time>
      </trkpt>
      <trkpt lat="50.05277" lon="2.26917">
        <ele>137.4</ele>
        <time>2022-11-30T13:41:26Z</time>
      </trkpt>
      <trkpt lat="50.05278" lon="2.26917">
        <ele>137.5</ele>
        <time>2022-11-30T13:41:27Z</time>
      </trkpt>
      <trkpt lat="50.05279" lon="2.26916">
        <ele>137.5</ele>
        <time>2022-11-30T13:41:28Z</time>
      </trkpt>
      <trkpt lat="50.0528" lon="2.26916">
        <ele>137.5</ele>
        <time>2022-11-30T13:41:29Z</time>
      </trkpt>
      <trkpt lat="50.05281" lon="2.26915">
        <ele>137.5</ele>
        <time>2022-11-30T13:41:30Z</time>
      </trkpt>
      <trkpt lat="50.05281" lon="2.26915">
        <ele>137.5</ele>
        <time>2022-11-30T13:41:31Z</time>
      </trkpt>
      <trkpt lat="50.05283" lon="2.26914">
        <ele>137.5</ele>
        <time>2022-11-30T13:41:32Z</time>
      </trkpt>
      <trkpt lat="50.05284" lon="2.26914">
        <ele>137.5</ele>
        <time>2022-11-30T13:41:33Z</time>
      </trkpt>
      <trkpt lat="50.05285" lon="2.26913">
        <ele>137.6</ele>
        <time>2022-11-30T13:41:34Z</time>
      </trkpt>
      <trkpt lat="50.05287" lon="2.26912">
        <ele>137.6</ele>
        <time>2022-11-30T13:41:36Z</time>
      </trkpt>
      <trkpt lat="50.05288" lon="2.26912">
        <ele>137.6</ele>
        <time>2022-11-30T13:41:37Z</time>
      </trkpt>
      <trkpt lat="50.05288" lon="2.26911">
        <ele>137.6</ele>
        <time>2022-11-30T13:41:38Z</time>
      </trkpt>
      <trkpt lat="50.05289" lon="2.26911">
        <ele>137.6</ele>
        <time>2022-11-30T13:41:39Z</time>
      </trkpt>
      <trkpt lat="50.0529" lon="2.2691">
        <ele>137.6</ele>
        <time>2022-11-30T13:41:40Z</time>
      </trkpt>
      <trkpt lat="50.05291" lon="2.26909">
        <ele>137.6</ele>
        <time>2022-11-30T13:41:41Z</time>
      </trkpt>
      <trkpt lat="50.05292" lon="2.26909">
        <ele>137.7</ele>
        <time>2022-11-30T13:41:42Z</time>
      </trkpt>
      <trkpt lat="50.05293" lon="2.26908">
        <ele>137.7</ele>
        <time>2022-11-30T13:41:43Z</time>
      </trkpt>
      <trkpt lat="50.05295" lon="2.26908">
        <ele>137.7</ele>
        <time>2022-11-30T13:41:44Z</time>
      </trkpt>
      <trkpt lat="50.05296" lon="2.26907">
        <ele>137.7</ele>
        <time>2022-11-30T13:41:45Z</time>
      </trkpt>
      <trkpt lat="50.05297" lon="2.26907">
        <ele>137.7</ele>
        <time>2022-11-30T13:41:47Z</time>
      </trkpt>
      <trkpt lat="50.05298" lon="2.26906">
        <ele>137.7</ele>
        <time>2022-11-30T13:41:48Z</time>
      </trkpt>
      <trkpt lat="50.05299" lon="2.26905">
        <ele>137.7</ele>
        <time>2022-11-30T13:41:49Z</time>
      </trkpt>
      <trkpt lat="50.053" lon="2.26905">
        <ele>137.8</ele>
        <time>2022-11-30T13:41:50Z</time>
      </trkpt>
      <trkpt lat="50.05301" lon="2.26905">
        <ele>137.8</ele>
        <time>2022-11-30T13:41:51Z</time>
      </trkpt>
      <trkpt lat="50.05302" lon="2.26904">
        <ele>137.8</ele>
        <time>2022-11-30T13:41:52Z</time>
      </trkpt>
      <trkpt lat="50.05303" lon="2.26904">
        <ele>137.8</ele>
        <time>2022-11-30T13:41:53Z</time>
      </trkpt>
      <trkpt lat="50.05304" lon="2.26903">
        <ele>137.8</ele>
        <time>2022-11-30T13:41:54Z</time>
      </trkpt>
      <trkpt lat="50.05305" lon="2.26902">
        <ele>137.8</ele>
        <time>2022-11-30T13:41:55Z</time>
      </trkpt>
      <trkpt lat="50.05307" lon="2.26902">
        <ele>137.8</ele>
        <time>2022-11-30T13:41:56Z</time>
      </trkpt>
      <trkpt lat="50.05309" lon="2.26901">
        <ele>137.8</ele>
        <time>2022-11-30T13:41:57Z</time>
      </trkpt>
      <trkpt lat="50.0531" lon="2.269">
        <ele>137.9</ele>
        <time>2022-11-30T13:41:59Z</time>
      </trkpt>
      <trkpt lat="50.05311" lon="2.26899">
        <ele>137.9</ele>
        <time>2022-11-30T13:42:00Z</time>
      </trkpt>
      <trkpt lat="50.05312" lon="2.26899">
        <ele>137.9</ele>
        <time>2022-11-30T13:42:01Z</time>
      </trkpt>
      <trkpt lat="50.05313" lon="2.26898">
        <ele>137.9</ele>
        <time>2022-11-30T13:42:02Z</time>
      </trkpt>
      <trkpt lat="50.05314" lon="2.26898">
        <ele>137.9</ele>
        <time>2022-11-30T13:42:03Z</time>
      </trkpt>
      <trkpt lat="50.05315" lon="2.26897">
        <ele>137.9</ele>
        <time>2022-11-30T13:42:04Z</time>
      </trkpt>
      <trkpt lat="50.05317" lon="2.26897">
        <ele>137.9</ele>
        <time>2022-11-30T13:42:05Z</time>
      </trkpt>
      <trkpt lat="50.05318" lon="2.26896">
        <ele>137.9</ele>
        <time>2022-11-30T13:42:06Z</time>
      </trkpt>
      <trkpt lat="50.05319" lon="2.26896">
        <ele>137.9</ele>
        <time>2022-11-30T13:42:07Z</time>
      </trkpt>
      <trkpt lat="50.0532" lon="2.26895">
        <ele>137.9</ele>
        <time>2022-11-30T13:42:09Z</time>
      </trkpt>
      <trkpt lat="50.05322" lon="2.26894">
        <ele>138</ele>
        <time>2022-11-30T13:42:10Z</time>
      </trkpt>
      <trkpt lat="50.05323" lon="2.26894">
        <ele>138</ele>
        <time>2022-11-30T13:42:11Z</time>
      </trkpt>
      <trkpt lat="50.05324" lon="2.26894">
        <ele>138</ele>
        <time>2022-11-30T13:42:12Z</time>
      </trkpt>
      <trkpt lat="50.05325" lon="2.26895">
        <ele>138</ele>
        <time>2022-11-30T13:42:13Z</time>
      </trkpt>
      <trkpt lat="50.05326" lon="2.26894">
        <ele>138</ele>
        <time>2022-11-30T13:42:14Z</time>
      </trkpt>
      <trkpt lat="50.05327" lon="2.26894">
        <ele>138</ele>
        <time>2022-11-30T13:42:15Z</time>
      </trkpt>
      <trkpt lat="50.05329" lon="2.26893">
        <ele>138</ele>
        <time>2022-11-30T13:42:16Z</time>
      </trkpt>
      <trkpt lat="50.0533" lon="2.26893">
        <ele>138</ele>
        <time>2022-11-30T13:42:18Z</time>
      </trkpt>
      <trkpt lat="50.05331" lon="2.26892">
        <ele>138</ele>
        <time>2022-11-30T13:42:19Z</time>
      </trkpt>
      <trkpt lat="50.05332" lon="2.26892">
        <ele>138</ele>
        <time>2022-11-30T13:42:20Z</time>
      </trkpt>
      <trkpt lat="50.05333" lon="2.26891">
        <ele>138.1</ele>
        <time>2022-11-30T13:42:21Z</time>
      </trkpt>
      <trkpt lat="50.05335" lon="2.2689">
        <ele>138.1</ele>
        <time>2022-11-30T13:42:22Z</time>
      </trkpt>
      <trkpt lat="50.05336" lon="2.26889">
        <ele>138.1</ele>
        <time>2022-11-30T13:42:23Z</time>
      </trkpt>
      <trkpt lat="50.05337" lon="2.26888">
        <ele>138.1</ele>
        <time>2022-11-30T13:42:24Z</time>
      </trkpt>
      <trkpt lat="50.05338" lon="2.26887">
        <ele>138.1</ele>
        <time>2022-11-30T13:42:25Z</time>
      </trkpt>
      <trkpt lat="50.05339" lon="2.26887">
        <ele>138.1</ele>
        <time>2022-11-30T13:42:27Z</time>
      </trkpt>
      <trkpt lat="50.0534" lon="2.26886">
        <ele>138.1</ele>
        <time>2022-11-30T13:42:28Z</time>
      </trkpt>
      <trkpt lat="50.05341" lon="2.26885">
        <ele>138.1</ele>
        <time>2022-11-30T13:42:29Z</time>
      </trkpt>
      <trkpt lat="50.05342" lon="2.26884">
        <ele>138.2</ele>
        <time>2022-11-30T13:42:30Z</time>
      </trkpt>
      <trkpt lat="50.05343" lon="2.26883">
        <ele>138.2</ele>
        <time>2022-11-30T13:42:31Z</time>
      </trkpt>
      <trkpt lat="50.05344" lon="2.26882">
        <ele>138.2</ele>
        <time>2022-11-30T13:42:32Z</time>
      </trkpt>
      <trkpt lat="50.05345" lon="2.26882">
        <ele>138.2</ele>
        <time>2022-11-30T13:42:33Z</time>
      </trkpt>
      <trkpt lat="50.05347" lon="2.26881">
        <ele>138.2</ele>
        <time>2022-11-30T13:42:35Z</time>
      </trkpt>
      <trkpt lat="50.05348" lon="2.2688">
        <ele>138.2</ele>
        <time>2022-11-30T13:42:36Z</time>
      </trkpt>
      <trkpt lat="50.05349" lon="2.2688">
        <ele>138.3</ele>
        <time>2022-11-30T13:42:37Z</time>
      </trkpt>
      <trkpt lat="50.05349" lon="2.2688">
        <ele>138.3</ele>
        <time>2022-11-30T13:42:38Z</time>
      </trkpt>
      <trkpt lat="50.05351" lon="2.2688">
        <ele>138.3</ele>
        <time>2022-11-30T13:42:39Z</time>
      </trkpt>
      <trkpt lat="50.05352" lon="2.2688">
        <ele>138.3</ele>
        <time>2022-11-30T13:42:40Z</time>
      </trkpt>
      <trkpt lat="50.05353" lon="2.26879">
        <ele>138.3</ele>
        <time>2022-11-30T13:42:41Z</time>
      </trkpt>
      <trkpt lat="50.05356" lon="2.26877">
        <ele>138.4</ele>
        <time>2022-11-30T13:42:42Z</time>
      </trkpt>
      <trkpt lat="50.05357" lon="2.26877">
        <ele>138.4</ele>
        <time>2022-11-30T13:42:44Z</time>
      </trkpt>
      <trkpt lat="50.05358" lon="2.26877">
        <ele>138.4</ele>
        <time>2022-11-30T13:42:45Z</time>
      </trkpt>
      <trkpt lat="50.05359" lon="2.26876">
        <ele>138.4</ele>
        <time>2022-11-30T13:42:46Z</time>
      </trkpt>
      <trkpt lat="50.0536" lon="2.26876">
        <ele>138.4</ele>
        <time>2022-11-30T13:42:47Z</time>
      </trkpt>
      <trkpt lat="50.05361" lon="2.26876">
        <ele>138.4</ele>
        <time>2022-11-30T13:42:48Z</time>
      </trkpt>
      <trkpt lat="50.05361" lon="2.26875">
        <ele>138.5</ele>
        <time>2022-11-30T13:42:49Z</time>
      </trkpt>
      <trkpt lat="50.05363" lon="2.26875">
        <ele>138.5</ele>
        <time>2022-11-30T13:42:50Z</time>
      </trkpt>
      <trkpt lat="50.05364" lon="2.26874">
        <ele>138.5</ele>
        <time>2022-11-30T13:42:51Z</time>
      </trkpt>
      <trkpt lat="50.05365" lon="2.26873">
        <ele>138.5</ele>
        <time>2022-11-30T13:42:52Z</time>
      </trkpt>
      <trkpt lat="50.05366" lon="2.26873">
        <ele>138.5</ele>
        <time>2022-11-30T13:42:53Z</time>
      </trkpt>
      <trkpt lat="50.05368" lon="2.26872">
        <ele>138.6</ele>
        <time>2022-11-30T13:42:54Z</time>
      </trkpt>
      <trkpt lat="50.05369" lon="2.26871">
        <ele>138.6</ele>
        <time>2022-11-30T13:42:56Z</time>
      </trkpt>
      <trkpt lat="50.0537" lon="2.26871">
        <ele>138.6</ele>
        <time>2022-11-30T13:42:57Z</time>
      </trkpt>
      <trkpt lat="50.05371" lon="2.2687">
        <ele>138.6</ele>
        <time>2022-11-30T13:42:58Z</time>
      </trkpt>
      <trkpt lat="50.05372" lon="2.2687">
        <ele>138.7</ele>
        <time>2022-11-30T13:42:59Z</time>
      </trkpt>
      <trkpt lat="50.05373" lon="2.2687">
        <ele>138.7</ele>
        <time>2022-11-30T13:43:00Z</time>
      </trkpt>
      <trkpt lat="50.05375" lon="2.26869">
        <ele>138.7</ele>
        <time>2022-11-30T13:43:01Z</time>
      </trkpt>
      <trkpt lat="50.05375" lon="2.26869">
        <ele>138.8</ele>
        <time>2022-11-30T13:43:02Z</time>
      </trkpt>
      <trkpt lat="50.05376" lon="2.26869">
        <ele>138.8</ele>
        <time>2022-11-30T13:43:03Z</time>
      </trkpt>
      <trkpt lat="50.05378" lon="2.26868">
        <ele>138.8</ele>
        <time>2022-11-30T13:43:04Z</time>
      </trkpt>
      <trkpt lat="50.05379" lon="2.26867">
        <ele>138.8</ele>
        <time>2022-11-30T13:43:05Z</time>
      </trkpt>
      <trkpt lat="50.0538" lon="2.26867">
        <ele>138.9</ele>
        <time>2022-11-30T13:43:07Z</time>
      </trkpt>
      <trkpt lat="50.05381" lon="2.26866">
        <ele>138.9</ele>
        <time>2022-11-30T13:43:08Z</time>
      </trkpt>
      <trkpt lat="50.05383" lon="2.26866">
        <ele>138.9</ele>
        <time>2022-11-30T13:43:09Z</time>
      </trkpt>
      <trkpt lat="50.05384" lon="2.26865">
        <ele>138.9</ele>
        <time>2022-11-30T13:43:10Z</time>
      </trkpt>
      <trkpt lat="50.05385" lon="2.26864">
        <ele>139</ele>
        <time>2022-11-30T13:43:11Z</time>
      </trkpt>
      <trkpt lat="50.05386" lon="2.26864">
        <ele>139</ele>
        <time>2022-11-30T13:43:13Z</time>
      </trkpt>
      <trkpt lat="50.05387" lon="2.26863">
        <ele>139</ele>
        <time>2022-11-30T13:43:14Z</time>
      </trkpt>
      <trkpt lat="50.05389" lon="2.26862">
        <ele>139.1</ele>
        <time>2022-11-30T13:43:15Z</time>
      </trkpt>
      <trkpt lat="50.0539" lon="2.26861">
        <ele>139.1</ele>
        <time>2022-11-30T13:43:16Z</time>
      </trkpt>
      <trkpt lat="50.05391" lon="2.26861">
        <ele>139.1</ele>
        <time>2022-11-30T13:43:17Z</time>
      </trkpt>
      <trkpt lat="50.05392" lon="2.2686">
        <ele>139.1</ele>
        <time>2022-11-30T13:43:18Z</time>
      </trkpt>
      <trkpt lat="50.05394" lon="2.26859">
        <ele>139.2</ele>
        <time>2022-11-30T13:43:19Z</time>
      </trkpt>
      <trkpt lat="50.05395" lon="2.26859">
        <ele>139.2</ele>
        <time>2022-11-30T13:43:20Z</time>
      </trkpt>
      <trkpt lat="50.05396" lon="2.26858">
        <ele>139.2</ele>
        <time>2022-11-30T13:43:21Z</time>
      </trkpt>
      <trkpt lat="50.05398" lon="2.26857">
        <ele>139.3</ele>
        <time>2022-11-30T13:43:22Z</time>
      </trkpt>
      <trkpt lat="50.05399" lon="2.26856">
        <ele>139.3</ele>
        <time>2022-11-30T13:43:24Z</time>
      </trkpt>
      <trkpt lat="50.054" lon="2.26856">
        <ele>139.3</ele>
        <time>2022-11-30T13:43:25Z</time>
      </trkpt>
      <trkpt lat="50.05401" lon="2.26855">
        <ele>139.3</ele>
        <time>2022-11-30T13:43:26Z</time>
      </trkpt>
      <trkpt lat="50.05403" lon="2.26854">
        <ele>139.4</ele>
        <time>2022-11-30T13:43:27Z</time>
      </trkpt>
      <trkpt lat="50.05404" lon="2.26854">
        <ele>139.4</ele>
        <time>2022-11-30T13:43:28Z</time>
      </trkpt>
      <trkpt lat="50.05405" lon="2.26853">
        <ele>139.4</ele>
        <time>2022-11-30T13:43:29Z</time>
      </trkpt>
      <trkpt lat="50.05407" lon="2.26852">
        <ele>139.4</ele>
        <time>2022-11-30T13:43:31Z</time>
      </trkpt>
      <trkpt lat="50.05408" lon="2.26852">
        <ele>139.5</ele>
        <time>2022-11-30T13:43:32Z</time>
      </trkpt>
      <trkpt lat="50.05409" lon="2.26851">
        <ele>139.5</ele>
        <time>2022-11-30T13:43:33Z</time>
      </trkpt>
      <trkpt lat="50.0541" lon="2.26851">
        <ele>139.5</ele>
        <time>2022-11-30T13:43:34Z</time>
      </trkpt>
      <trkpt lat="50.05411" lon="2.2685">
        <ele>139.5</ele>
        <time>2022-11-30T13:43:35Z</time>
      </trkpt>
      <trkpt lat="50.05413" lon="2.2685">
        <ele>139.6</ele>
        <time>2022-11-30T13:43:36Z</time>
      </trkpt>
      <trkpt lat="50.05414" lon="2.26849">
        <ele>139.6</ele>
        <time>2022-11-30T13:43:37Z</time>
      </trkpt>
      <trkpt lat="50.05416" lon="2.26848">
        <ele>139.6</ele>
        <time>2022-11-30T13:43:38Z</time>
      </trkpt>
      <trkpt lat="50.05417" lon="2.26847">
        <ele>139.6</ele>
        <time>2022-11-30T13:43:40Z</time>
      </trkpt>
      <trkpt lat="50.05418" lon="2.26846">
        <ele>139.7</ele>
        <time>2022-11-30T13:43:41Z</time>
      </trkpt>
      <trkpt lat="50.05419" lon="2.26845">
        <ele>139.7</ele>
        <time>2022-11-30T13:43:42Z</time>
      </trkpt>
      <trkpt lat="50.0542" lon="2.26845">
        <ele>139.7</ele>
        <time>2022-11-30T13:43:43Z</time>
      </trkpt>
      <trkpt lat="50.05421" lon="2.26845">
        <ele>139.7</ele>
        <time>2022-11-30T13:43:44Z</time>
      </trkpt>
      <trkpt lat="50.05421" lon="2.26844">
        <ele>139.7</ele>
        <time>2022-11-30T13:43:45Z</time>
      </trkpt>
      <trkpt lat="50.05423" lon="2.26844">
        <ele>139.7</ele>
        <time>2022-11-30T13:43:46Z</time>
      </trkpt>
      <trkpt lat="50.05424" lon="2.26843">
        <ele>139.8</ele>
        <time>2022-11-30T13:43:47Z</time>
      </trkpt>
      <trkpt lat="50.05425" lon="2.26843">
        <ele>139.8</ele>
        <time>2022-11-30T13:43:48Z</time>
      </trkpt>
      <trkpt lat="50.05426" lon="2.26842">
        <ele>139.8</ele>
        <time>2022-11-30T13:43:50Z</time>
      </trkpt>
      <trkpt lat="50.05427" lon="2.26841">
        <ele>139.8</ele>
        <time>2022-11-30T13:43:51Z</time>
      </trkpt>
      <trkpt lat="50.05428" lon="2.26841">
        <ele>139.9</ele>
        <time>2022-11-30T13:43:52Z</time>
      </trkpt>
      <trkpt lat="50.05429" lon="2.2684">
        <ele>139.9</ele>
        <time>2022-11-30T13:43:53Z</time>
      </trkpt>
      <trkpt lat="50.0543" lon="2.2684">
        <ele>139.9</ele>
        <time>2022-11-30T13:43:54Z</time>
      </trkpt>
      <trkpt lat="50.05431" lon="2.2684">
        <ele>139.9</ele>
        <time>2022-11-30T13:43:55Z</time>
      </trkpt>
      <trkpt lat="50.05432" lon="2.2684">
        <ele>140</ele>
        <time>2022-11-30T13:43:56Z</time>
      </trkpt>
      <trkpt lat="50.05434" lon="2.26839">
        <ele>140</ele>
        <time>2022-11-30T13:43:57Z</time>
      </trkpt>
      <trkpt lat="50.05435" lon="2.26839">
        <ele>140</ele>
        <time>2022-11-30T13:43:58Z</time>
      </trkpt>
      <trkpt lat="50.05437" lon="2.26838">
        <ele>140.1</ele>
        <time>2022-11-30T13:43:59Z</time>
      </trkpt>
      <trkpt lat="50.05438" lon="2.26838">
        <ele>140.1</ele>
        <time>2022-11-30T13:44:00Z</time>
      </trkpt>
      <trkpt lat="50.0544" lon="2.26837">
        <ele>140.1</ele>
        <time>2022-11-30T13:44:02Z</time>
      </trkpt>
      <trkpt lat="50.05441" lon="2.26837">
        <ele>140.2</ele>
        <time>2022-11-30T13:44:03Z</time>
      </trkpt>
      <trkpt lat="50.05443" lon="2.26836">
        <ele>140.2</ele>
        <time>2022-11-30T13:44:04Z</time>
      </trkpt>
      <trkpt lat="50.05444" lon="2.26836">
        <ele>140.2</ele>
        <time>2022-11-30T13:44:05Z</time>
      </trkpt>
      <trkpt lat="50.05445" lon="2.26835">
        <ele>140.2</ele>
        <time>2022-11-30T13:44:06Z</time>
      </trkpt>
      <trkpt lat="50.05446" lon="2.26835">
        <ele>140.3</ele>
        <time>2022-11-30T13:44:07Z</time>
      </trkpt>
      <trkpt lat="50.05447" lon="2.26834">
        <ele>140.3</ele>
        <time>2022-11-30T13:44:08Z</time>
      </trkpt>
      <trkpt lat="50.05448" lon="2.26833">
        <ele>140.3</ele>
        <time>2022-11-30T13:44:10Z</time>
      </trkpt>
      <trkpt lat="50.0545" lon="2.26832">
        <ele>140.4</ele>
        <time>2022-11-30T13:44:11Z</time>
      </trkpt>
      <trkpt lat="50.05451" lon="2.26832">
        <ele>140.4</ele>
        <time>2022-11-30T13:44:12Z</time>
      </trkpt>
      <trkpt lat="50.05452" lon="2.26832">
        <ele>140.4</ele>
        <time>2022-11-30T13:44:13Z</time>
      </trkpt>
      <trkpt lat="50.05453" lon="2.26831">
        <ele>140.4</ele>
        <time>2022-11-30T13:44:14Z</time>
      </trkpt>
      <trkpt lat="50.05455" lon="2.2683">
        <ele>140.5</ele>
        <time>2022-11-30T13:44:16Z</time>
      </trkpt>
      <trkpt lat="50.05456" lon="2.26829">
        <ele>140.5</ele>
        <time>2022-11-30T13:44:17Z</time>
      </trkpt>
      <trkpt lat="50.05457" lon="2.26829">
        <ele>140.5</ele>
        <time>2022-11-30T13:44:18Z</time>
      </trkpt>
      <trkpt lat="50.05458" lon="2.26828">
        <ele>140.5</ele>
        <time>2022-11-30T13:44:19Z</time>
      </trkpt>
      <trkpt lat="50.0546" lon="2.26827">
        <ele>140.5</ele>
        <time>2022-11-30T13:44:20Z</time>
      </trkpt>
      <trkpt lat="50.05461" lon="2.26827">
        <ele>140.6</ele>
        <time>2022-11-30T13:44:21Z</time>
      </trkpt>
      <trkpt lat="50.05462" lon="2.26827">
        <ele>140.6</ele>
        <time>2022-11-30T13:44:22Z</time>
      </trkpt>
      <trkpt lat="50.05464" lon="2.26826">
        <ele>140.6</ele>
        <time>2022-11-30T13:44:23Z</time>
      </trkpt>
      <trkpt lat="50.05465" lon="2.26826">
        <ele>140.6</ele>
        <time>2022-11-30T13:44:24Z</time>
      </trkpt>
      <trkpt lat="50.05466" lon="2.26826">
        <ele>140.7</ele>
        <time>2022-11-30T13:44:25Z</time>
      </trkpt>
      <trkpt lat="50.05467" lon="2.26826">
        <ele>140.7</ele>
        <time>2022-11-30T13:44:27Z</time>
      </trkpt>
      <trkpt lat="50.05469" lon="2.26825">
        <ele>140.7</ele>
        <time>2022-11-30T13:44:28Z</time>
      </trkpt>
      <trkpt lat="50.05471" lon="2.26825">
        <ele>140.7</ele>
        <time>2022-11-30T13:44:29Z</time>
      </trkpt>
      <trkpt lat="50.05471" lon="2.26825">
        <ele>140.7</ele>
        <time>2022-11-30T13:44:30Z</time>
      </trkpt>
      <trkpt lat="50.05472" lon="2.26824">
        <ele>140.7</ele>
        <time>2022-11-30T13:44:31Z</time>
      </trkpt>
      <trkpt lat="50.05474" lon="2.26824">
        <ele>140.8</ele>
        <time>2022-11-30T13:44:32Z</time>
      </trkpt>
      <trkpt lat="50.05475" lon="2.26823">
        <ele>140.8</ele>
        <time>2022-11-30T13:44:33Z</time>
      </trkpt>
      <trkpt lat="50.05476" lon="2.26823">
        <ele>140.8</ele>
        <time>2022-11-30T13:44:34Z</time>
      </trkpt>
      <trkpt lat="50.05478" lon="2.26822">
        <ele>140.8</ele>
        <time>2022-11-30T13:44:36Z</time>
      </trkpt>
      <trkpt lat="50.05479" lon="2.26821">
        <ele>140.8</ele>
        <time>2022-11-30T13:44:37Z</time>
      </trkpt>
      <trkpt lat="50.05481" lon="2.2682">
        <ele>140.8</ele>
        <time>2022-11-30T13:44:38Z</time>
      </trkpt>
      <trkpt lat="50.05482" lon="2.26819">
        <ele>140.8</ele>
        <time>2022-11-30T13:44:40Z</time>
      </trkpt>
      <trkpt lat="50.05484" lon="2.26818">
        <ele>140.9</ele>
        <time>2022-11-30T13:44:41Z</time>
      </trkpt>
      <trkpt lat="50.05485" lon="2.26818">
        <ele>140.9</ele>
        <time>2022-11-30T13:44:42Z</time>
      </trkpt>
      <trkpt lat="50.05486" lon="2.26817">
        <ele>140.9</ele>
        <time>2022-11-30T13:44:43Z</time>
      </trkpt>
      <trkpt lat="50.05487" lon="2.26817">
        <ele>140.9</ele>
        <time>2022-11-30T13:44:44Z</time>
      </trkpt>
      <trkpt lat="50.05487" lon="2.26817">
        <ele>140.9</ele>
        <time>2022-11-30T13:44:45Z</time>
      </trkpt>
      <trkpt lat="50.05488" lon="2.26817">
        <ele>140.9</ele>
        <time>2022-11-30T13:44:46Z</time>
      </trkpt>
      <trkpt lat="50.05489" lon="2.26817">
        <ele>140.9</ele>
        <time>2022-11-30T13:44:47Z</time>
      </trkpt>
      <trkpt lat="50.05491" lon="2.26816">
        <ele>140.9</ele>
        <time>2022-11-30T13:44:48Z</time>
      </trkpt>
      <trkpt lat="50.05492" lon="2.26816">
        <ele>140.9</ele>
        <time>2022-11-30T13:44:49Z</time>
      </trkpt>
      <trkpt lat="50.05493" lon="2.26816">
        <ele>140.9</ele>
        <time>2022-11-30T13:44:50Z</time>
      </trkpt>
      <trkpt lat="50.05495" lon="2.26815">
        <ele>140.9</ele>
        <time>2022-11-30T13:44:51Z</time>
      </trkpt>
      <trkpt lat="50.05495" lon="2.26815">
        <ele>140.9</ele>
        <time>2022-11-30T13:44:52Z</time>
      </trkpt>
      <trkpt lat="50.05497" lon="2.26813">
        <ele>141</ele>
        <time>2022-11-30T13:44:54Z</time>
      </trkpt>
      <trkpt lat="50.05498" lon="2.26813">
        <ele>141</ele>
        <time>2022-11-30T13:44:55Z</time>
      </trkpt>
      <trkpt lat="50.05499" lon="2.26812">
        <ele>141</ele>
        <time>2022-11-30T13:44:56Z</time>
      </trkpt>
      <trkpt lat="50.055" lon="2.26811">
        <ele>141</ele>
        <time>2022-11-30T13:44:57Z</time>
      </trkpt>
      <trkpt lat="50.05501" lon="2.26811">
        <ele>141</ele>
        <time>2022-11-30T13:44:58Z</time>
      </trkpt>
      <trkpt lat="50.05502" lon="2.2681">
        <ele>141</ele>
        <time>2022-11-30T13:45:00Z</time>
      </trkpt>
      <trkpt lat="50.05503" lon="2.2681">
        <ele>141</ele>
        <time>2022-11-30T13:45:01Z</time>
      </trkpt>
      <trkpt lat="50.05504" lon="2.26809">
        <ele>141</ele>
        <time>2022-11-30T13:45:02Z</time>
      </trkpt>
      <trkpt lat="50.05505" lon="2.26808">
        <ele>141</ele>
        <time>2022-11-30T13:45:03Z</time>
      </trkpt>
      <trkpt lat="50.05506" lon="2.26808">
        <ele>141</ele>
        <time>2022-11-30T13:45:04Z</time>
      </trkpt>
      <trkpt lat="50.05507" lon="2.26807">
        <ele>141</ele>
        <time>2022-11-30T13:45:05Z</time>
      </trkpt>
      <trkpt lat="50.05509" lon="2.26806">
        <ele>141</ele>
        <time>2022-11-30T13:45:07Z</time>
      </trkpt>
      <trkpt lat="50.0551" lon="2.26805">
        <ele>141</ele>
        <time>2022-11-30T13:45:08Z</time>
      </trkpt>
      <trkpt lat="50.05511" lon="2.26805">
        <ele>141</ele>
        <time>2022-11-30T13:45:09Z</time>
      </trkpt>
      <trkpt lat="50.05512" lon="2.26804">
        <ele>141</ele>
        <time>2022-11-30T13:45:10Z</time>
      </trkpt>
      <trkpt lat="50.05513" lon="2.26804">
        <ele>141</ele>
        <time>2022-11-30T13:45:11Z</time>
      </trkpt>
      <trkpt lat="50.05514" lon="2.26803">
        <ele>141</ele>
        <time>2022-11-30T13:45:12Z</time>
      </trkpt>
      <trkpt lat="50.05515" lon="2.26803">
        <ele>141</ele>
        <time>2022-11-30T13:45:13Z</time>
      </trkpt>
      <trkpt lat="50.05516" lon="2.26803">
        <ele>141</ele>
        <time>2022-11-30T13:45:14Z</time>
      </trkpt>
      <trkpt lat="50.05518" lon="2.26803">
        <ele>141</ele>
        <time>2022-11-30T13:45:15Z</time>
      </trkpt>
      <trkpt lat="50.0552" lon="2.26802">
        <ele>141</ele>
        <time>2022-11-30T13:45:16Z</time>
      </trkpt>
      <trkpt lat="50.05521" lon="2.26802">
        <ele>141</ele>
        <time>2022-11-30T13:45:17Z</time>
      </trkpt>
      <trkpt lat="50.05522" lon="2.26802">
        <ele>141</ele>
        <time>2022-11-30T13:45:18Z</time>
      </trkpt>
      <trkpt lat="50.05524" lon="2.26801">
        <ele>141</ele>
        <time>2022-11-30T13:45:19Z</time>
      </trkpt>
      <trkpt lat="50.05524" lon="2.26801">
        <ele>141</ele>
        <time>2022-11-30T13:45:20Z</time>
      </trkpt>
      <trkpt lat="50.05525" lon="2.268">
        <ele>141</ele>
        <time>2022-11-30T13:45:21Z</time>
      </trkpt>
      <trkpt lat="50.05526" lon="2.268">
        <ele>141</ele>
        <time>2022-11-30T13:45:23Z</time>
      </trkpt>
      <trkpt lat="50.05528" lon="2.268">
        <ele>141</ele>
        <time>2022-11-30T13:45:24Z</time>
      </trkpt>
      <trkpt lat="50.05529" lon="2.26799">
        <ele>141</ele>
        <time>2022-11-30T13:45:25Z</time>
      </trkpt>
      <trkpt lat="50.0553" lon="2.26799">
        <ele>141</ele>
        <time>2022-11-30T13:45:26Z</time>
      </trkpt>
      <trkpt lat="50.05531" lon="2.26799">
        <ele>141</ele>
        <time>2022-11-30T13:45:27Z</time>
      </trkpt>
      <trkpt lat="50.05532" lon="2.26799">
        <ele>141</ele>
        <time>2022-11-30T13:45:28Z</time>
      </trkpt>
      <trkpt lat="50.05533" lon="2.26799">
        <ele>141</ele>
        <time>2022-11-30T13:45:29Z</time>
      </trkpt>
      <trkpt lat="50.05534" lon="2.26799">
        <ele>141</ele>
        <time>2022-11-30T13:45:30Z</time>
      </trkpt>
      <trkpt lat="50.05535" lon="2.26798">
        <ele>141</ele>
        <time>2022-11-30T13:45:31Z</time>
      </trkpt>
      <trkpt lat="50.05537" lon="2.26797">
        <ele>141</ele>
        <time>2022-11-30T13:45:32Z</time>
      </trkpt>
      <trkpt lat="50.05538" lon="2.26797">
        <ele>141</ele>
        <time>2022-11-30T13:45:33Z</time>
      </trkpt>
      <trkpt lat="50.05539" lon="2.26796">
        <ele>141</ele>
        <time>2022-11-30T13:45:34Z</time>
      </trkpt>
      <trkpt lat="50.0554" lon="2.26796">
        <ele>140.9</ele>
        <time>2022-11-30T13:45:35Z</time>
      </trkpt>
      <trkpt lat="50.05541" lon="2.26795">
        <ele>140.9</ele>
        <time>2022-11-30T13:45:36Z</time>
      </trkpt>
      <trkpt lat="50.05544" lon="2.26794">
        <ele>140.9</ele>
        <time>2022-11-30T13:45:37Z</time>
      </trkpt>
      <trkpt lat="50.05545" lon="2.26794">
        <ele>140.9</ele>
        <time>2022-11-30T13:45:39Z</time>
      </trkpt>
      <trkpt lat="50.05546" lon="2.26793">
        <ele>140.9</ele>
        <time>2022-11-30T13:45:40Z</time>
      </trkpt>
      <trkpt lat="50.05547" lon="2.26792">
        <ele>140.9</ele>
        <time>2022-11-30T13:45:41Z</time>
      </trkpt>
      <trkpt lat="50.05548" lon="2.26792">
        <ele>140.9</ele>
        <time>2022-11-30T13:45:42Z</time>
      </trkpt>
      <trkpt lat="50.0555" lon="2.26791">
        <ele>140.8</ele>
        <time>2022-11-30T13:45:43Z</time>
      </trkpt>
      <trkpt lat="50.05552" lon="2.2679">
        <ele>140.8</ele>
        <time>2022-11-30T13:45:45Z</time>
      </trkpt>
      <trkpt lat="50.05552" lon="2.2679">
        <ele>140.8</ele>
        <time>2022-11-30T13:45:46Z</time>
      </trkpt>
      <trkpt lat="50.05553" lon="2.26789">
        <ele>140.8</ele>
        <time>2022-11-30T13:45:47Z</time>
      </trkpt>
      <trkpt lat="50.05554" lon="2.26789">
        <ele>140.8</ele>
        <time>2022-11-30T13:45:48Z</time>
      </trkpt>
      <trkpt lat="50.05555" lon="2.26788">
        <ele>140.8</ele>
        <time>2022-11-30T13:45:49Z</time>
      </trkpt>
      <trkpt lat="50.05555" lon="2.26788">
        <ele>140.8</ele>
        <time>2022-11-30T13:45:50Z</time>
      </trkpt>
      <trkpt lat="50.05556" lon="2.26787">
        <ele>140.8</ele>
        <time>2022-11-30T13:45:51Z</time>
      </trkpt>
      <trkpt lat="50.05557" lon="2.26786">
        <ele>140.8</ele>
        <time>2022-11-30T13:45:52Z</time>
      </trkpt>
      <trkpt lat="50.05559" lon="2.26785">
        <ele>140.7</ele>
        <time>2022-11-30T13:45:53Z</time>
      </trkpt>
      <trkpt lat="50.0556" lon="2.26784">
        <ele>140.7</ele>
        <time>2022-11-30T13:45:54Z</time>
      </trkpt>
      <trkpt lat="50.05561" lon="2.26784">
        <ele>140.7</ele>
        <time>2022-11-30T13:45:55Z</time>
      </trkpt>
      <trkpt lat="50.05562" lon="2.26783">
        <ele>140.7</ele>
        <time>2022-11-30T13:45:57Z</time>
      </trkpt>
      <trkpt lat="50.05563" lon="2.26782">
        <ele>140.7</ele>
        <time>2022-11-30T13:45:58Z</time>
      </trkpt>
      <trkpt lat="50.05565" lon="2.2678">
        <ele>140.7</ele>
        <time>2022-11-30T13:45:59Z</time>
      </trkpt>
      <trkpt lat="50.05566" lon="2.2678">
        <ele>140.7</ele>
        <time>2022-11-30T13:46:00Z</time>
      </trkpt>
      <trkpt lat="50.05567" lon="2.26779">
        <ele>140.7</ele>
        <time>2022-11-30T13:46:01Z</time>
      </trkpt>
      <trkpt lat="50.05568" lon="2.26778">
        <ele>140.7</ele>
        <time>2022-11-30T13:46:02Z</time>
      </trkpt>
      <trkpt lat="50.05568" lon="2.26778">
        <ele>140.6</ele>
        <time>2022-11-30T13:46:03Z</time>
      </trkpt>
      <trkpt lat="50.05569" lon="2.26777">
        <ele>140.6</ele>
        <time>2022-11-30T13:46:04Z</time>
      </trkpt>
      <trkpt lat="50.05571" lon="2.26776">
        <ele>140.6</ele>
        <time>2022-11-30T13:46:05Z</time>
      </trkpt>
      <trkpt lat="50.05572" lon="2.26775">
        <ele>140.6</ele>
        <time>2022-11-30T13:46:06Z</time>
      </trkpt>
      <trkpt lat="50.05573" lon="2.26775">
        <ele>140.6</ele>
        <time>2022-11-30T13:46:07Z</time>
      </trkpt>
      <trkpt lat="50.05574" lon="2.26774">
        <ele>140.6</ele>
        <time>2022-11-30T13:46:08Z</time>
      </trkpt>
      <trkpt lat="50.05576" lon="2.26774">
        <ele>140.6</ele>
        <time>2022-11-30T13:46:09Z</time>
      </trkpt>
      <trkpt lat="50.05577" lon="2.26773">
        <ele>140.6</ele>
        <time>2022-11-30T13:46:11Z</time>
      </trkpt>
      <trkpt lat="50.05578" lon="2.26772">
        <ele>140.6</ele>
        <time>2022-11-30T13:46:12Z</time>
      </trkpt>
      <trkpt lat="50.05579" lon="2.26772">
        <ele>140.6</ele>
        <time>2022-11-30T13:46:13Z</time>
      </trkpt>
      <trkpt lat="50.0558" lon="2.26771">
        <ele>140.5</ele>
        <time>2022-11-30T13:46:14Z</time>
      </trkpt>
      <trkpt lat="50.05581" lon="2.2677">
        <ele>140.5</ele>
        <time>2022-11-30T13:46:15Z</time>
      </trkpt>
      <trkpt lat="50.05583" lon="2.26769">
        <ele>140.5</ele>
        <time>2022-11-30T13:46:17Z</time>
      </trkpt>
      <trkpt lat="50.05584" lon="2.26769">
        <ele>140.5</ele>
        <time>2022-11-30T13:46:18Z</time>
      </trkpt>
      <trkpt lat="50.05585" lon="2.2677">
        <ele>140.5</ele>
        <time>2022-11-30T13:46:19Z</time>
      </trkpt>
      <trkpt lat="50.05586" lon="2.26771">
        <ele>140.5</ele>
        <time>2022-11-30T13:46:20Z</time>
      </trkpt>
      <trkpt lat="50.05587" lon="2.26772">
        <ele>140.4</ele>
        <time>2022-11-30T13:46:22Z</time>
      </trkpt>
      <trkpt lat="50.05588" lon="2.26772">
        <ele>140.4</ele>
        <time>2022-11-30T13:46:23Z</time>
      </trkpt>
      <trkpt lat="50.05588" lon="2.26772">
        <ele>140.4</ele>
        <time>2022-11-30T13:46:24Z</time>
      </trkpt>
      <trkpt lat="50.05589" lon="2.26772">
        <ele>140.3</ele>
        <time>2022-11-30T13:46:25Z</time>
      </trkpt>
      <trkpt lat="50.0559" lon="2.26771">
        <ele>140.3</ele>
        <time>2022-11-30T13:46:26Z</time>
      </trkpt>
      <trkpt lat="50.0559" lon="2.26771">
        <ele>140.3</ele>
        <time>2022-11-30T13:46:27Z</time>
      </trkpt>
      <trkpt lat="50.0559" lon="2.26771">
        <ele>140.3</ele>
        <time>2022-11-30T13:46:28Z</time>
      </trkpt>
      <trkpt lat="50.05591" lon="2.26771">
        <ele>140.3</ele>
        <time>2022-11-30T13:46:30Z</time>
      </trkpt>
      <trkpt lat="50.05591" lon="2.26771">
        <ele>140.2</ele>
        <time>2022-11-30T13:46:31Z</time>
      </trkpt>
      <trkpt lat="50.05592" lon="2.26771">
        <ele>140.2</ele>
        <time>2022-11-30T13:46:32Z</time>
      </trkpt>
      <trkpt lat="50.05592" lon="2.26771">
        <ele>140.2</ele>
        <time>2022-11-30T13:46:33Z</time>
      </trkpt>
      <trkpt lat="50.05592" lon="2.26771">
        <ele>140.2</ele>
        <time>2022-11-30T13:46:35Z</time>
      </trkpt>
      <trkpt lat="50.05592" lon="2.26772">
        <ele>140.2</ele>
        <time>2022-11-30T13:46:36Z</time>
      </trkpt>
      <trkpt lat="50.05592" lon="2.26772">
        <ele>140.2</ele>
        <time>2022-11-30T13:46:37Z</time>
      </trkpt>
      <trkpt lat="50.05592" lon="2.26772">
        <ele>140.2</ele>
        <time>2022-11-30T13:46:38Z</time>
      </trkpt>
      <trkpt lat="50.05592" lon="2.26772">
        <ele>140.2</ele>
        <time>2022-11-30T13:46:40Z</time>
      </trkpt>
      <trkpt lat="50.05591" lon="2.2677">
        <ele>140.1</ele>
        <time>2022-11-30T13:46:41Z</time>
      </trkpt>
      <trkpt lat="50.05591" lon="2.26769">
        <ele>140.1</ele>
        <time>2022-11-30T13:46:42Z</time>
      </trkpt>
      <trkpt lat="50.0559" lon="2.26769">
        <ele>140</ele>
        <time>2022-11-30T13:46:43Z</time>
      </trkpt>
      <trkpt lat="50.05588" lon="2.26768">
        <ele>140</ele>
        <time>2022-11-30T13:46:44Z</time>
      </trkpt>
      <trkpt lat="50.05588" lon="2.26768">
        <ele>139.9</ele>
        <time>2022-11-30T13:46:45Z</time>
      </trkpt>
      <trkpt lat="50.05587" lon="2.26767">
        <ele>139.9</ele>
        <time>2022-11-30T13:46:46Z</time>
      </trkpt>
      <trkpt lat="50.05586" lon="2.26767">
        <ele>139.9</ele>
        <time>2022-11-30T13:46:47Z</time>
      </trkpt>
      <trkpt lat="50.05586" lon="2.26767">
        <ele>139.9</ele>
        <time>2022-11-30T13:46:48Z</time>
      </trkpt>
      <trkpt lat="50.05585" lon="2.26767">
        <ele>139.8</ele>
        <time>2022-11-30T13:46:49Z</time>
      </trkpt>
      <trkpt lat="50.05585" lon="2.26767">
        <ele>139.8</ele>
        <time>2022-11-30T13:46:50Z</time>
      </trkpt>
      <trkpt lat="50.05585" lon="2.26767">
        <ele>139.8</ele>
        <time>2022-11-30T13:46:51Z</time>
      </trkpt>
      <trkpt lat="50.05585" lon="2.26767">
        <ele>139.8</ele>
        <time>2022-11-30T13:46:52Z</time>
      </trkpt>
      <trkpt lat="50.05585" lon="2.26767">
        <ele>139.8</ele>
        <time>2022-11-30T13:46:53Z</time>
      </trkpt>
      <trkpt lat="50.05584" lon="2.26768">
        <ele>139.8</ele>
        <time>2022-11-30T13:46:54Z</time>
      </trkpt>
      <trkpt lat="50.05584" lon="2.26768">
        <ele>139.8</ele>
        <time>2022-11-30T13:46:55Z</time>
      </trkpt>
      <trkpt lat="50.05584" lon="2.26768">
        <ele>139.8</ele>
        <time>2022-11-30T13:46:56Z</time>
      </trkpt>
      <trkpt lat="50.05584" lon="2.26768">
        <ele>139.8</ele>
        <time>2022-11-30T13:46:57Z</time>
      </trkpt>
      <trkpt lat="50.05584" lon="2.26768">
        <ele>139.8</ele>
        <time>2022-11-30T13:46:58Z</time>
      </trkpt>
      <trkpt lat="50.05584" lon="2.26768">
        <ele>139.8</ele>
        <time>2022-11-30T13:46:59Z</time>
      </trkpt>
      <trkpt lat="50.05584" lon="2.26768">
        <ele>139.8</ele>
        <time>2022-11-30T13:47:00Z</time>
      </trkpt>
      <trkpt lat="50.05584" lon="2.26768">
        <ele>139.8</ele>
        <time>2022-11-30T13:47:01Z</time>
      </trkpt>
      <trkpt lat="50.05584" lon="2.26768">
        <ele>139.8</ele>
        <time>2022-11-30T13:47:02Z</time>
      </trkpt>
      <trkpt lat="50.05584" lon="2.26768">
        <ele>139.8</ele>
        <time>2022-11-30T13:47:03Z</time>
      </trkpt>
      <trkpt lat="50.05584" lon="2.26768">
        <ele>139.8</ele>
        <time>2022-11-30T13:47:04Z</time>
      </trkpt>
      <trkpt lat="50.05584" lon="2.26768">
        <ele>139.8</ele>
        <time>2022-11-30T13:47:05Z</time>
      </trkpt>
      <trkpt lat="50.05584" lon="2.26768">
        <ele>139.8</ele>
        <time>2022-11-30T13:47:06Z</time>
      </trkpt>
      <trkpt lat="50.05584" lon="2.26768">
        <ele>139.8</ele>
        <time>2022-11-30T13:47:07Z</time>
      </trkpt>
      <trkpt lat="50.05584" lon="2.26768">
        <ele>139.8</ele>
        <time>2022-11-30T13:47:08Z</time>
      </trkpt>
      <trkpt lat="50.05584" lon="2.26768">
        <ele>139.8</ele>
        <time>2022-11-30T13:47:09Z</time>
      </trkpt>
      <trkpt lat="50.05583" lon="2.26769">
        <ele>139.7</ele>
        <time>2022-11-30T13:47:10Z</time>
      </trkpt>
      <trkpt lat="50.05582" lon="2.26769">
        <ele>139.6</ele>
        <time>2022-11-30T13:47:11Z</time>
      </trkpt>
      <trkpt lat="50.05582" lon="2.26769">
        <ele>139.6</ele>
        <time>2022-11-30T13:47:13Z</time>
      </trkpt>
      <trkpt lat="50.05581" lon="2.26768">
        <ele>139.6</ele>
        <time>2022-11-30T13:47:14Z</time>
      </trkpt>
      <trkpt lat="50.05581" lon="2.26767">
        <ele>139.6</ele>
        <time>2022-11-30T13:47:15Z</time>
      </trkpt>
      <trkpt lat="50.0558" lon="2.26766">
        <ele>139.5</ele>
        <time>2022-11-30T13:47:16Z</time>
      </trkpt>
      <trkpt lat="50.0558" lon="2.26765">
        <ele>139.5</ele>
        <time>2022-11-30T13:47:17Z</time>
      </trkpt>
      <trkpt lat="50.0558" lon="2.26763">
        <ele>139.4</ele>
        <time>2022-11-30T13:47:19Z</time>
      </trkpt>
      <trkpt lat="50.05581" lon="2.26761">
        <ele>139.4</ele>
        <time>2022-11-30T13:47:20Z</time>
      </trkpt>
      <trkpt lat="50.05581" lon="2.26758">
        <ele>139.3</ele>
        <time>2022-11-30T13:47:21Z</time>
      </trkpt>
      <trkpt lat="50.05581" lon="2.26757">
        <ele>139.3</ele>
        <time>2022-11-30T13:47:22Z</time>
      </trkpt>
      <trkpt lat="50.05582" lon="2.26756">
        <ele>139.2</ele>
        <time>2022-11-30T13:47:23Z</time>
      </trkpt>
      <trkpt lat="50.05582" lon="2.26754">
        <ele>139.2</ele>
        <time>2022-11-30T13:47:25Z</time>
      </trkpt>
      <trkpt lat="50.05583" lon="2.26752">
        <ele>139.1</ele>
        <time>2022-11-30T13:47:26Z</time>
      </trkpt>
      <trkpt lat="50.05584" lon="2.26751">
        <ele>139.1</ele>
        <time>2022-11-30T13:47:27Z</time>
      </trkpt>
      <trkpt lat="50.05586" lon="2.26749">
        <ele>139</ele>
        <time>2022-11-30T13:47:28Z</time>
      </trkpt>
      <trkpt lat="50.05586" lon="2.26747">
        <ele>138.9</ele>
        <time>2022-11-30T13:47:30Z</time>
      </trkpt>
      <trkpt lat="50.05587" lon="2.26746">
        <ele>138.9</ele>
        <time>2022-11-30T13:47:31Z</time>
      </trkpt>
      <trkpt lat="50.05588" lon="2.26745">
        <ele>138.9</ele>
        <time>2022-11-30T13:47:33Z</time>
      </trkpt>
      <trkpt lat="50.05588" lon="2.26744">
        <ele>138.8</ele>
        <time>2022-11-30T13:47:34Z</time>
      </trkpt>
      <trkpt lat="50.05589" lon="2.26743">
        <ele>138.8</ele>
        <time>2022-11-30T13:47:35Z</time>
      </trkpt>
      <trkpt lat="50.05589" lon="2.26741">
        <ele>138.8</ele>
        <time>2022-11-30T13:47:36Z</time>
      </trkpt>
      <trkpt lat="50.0559" lon="2.2674">
        <ele>138.7</ele>
        <time>2022-11-30T13:47:37Z</time>
      </trkpt>
      <trkpt lat="50.0559" lon="2.26739">
        <ele>138.7</ele>
        <time>2022-11-30T13:47:38Z</time>
      </trkpt>
      <trkpt lat="50.0559" lon="2.26737">
        <ele>138.7</ele>
        <time>2022-11-30T13:47:39Z</time>
      </trkpt>
      <trkpt lat="50.0559" lon="2.26735">
        <ele>138.6</ele>
        <time>2022-11-30T13:47:41Z</time>
      </trkpt>
      <trkpt lat="50.0559" lon="2.26735">
        <ele>138.6</ele>
        <time>2022-11-30T13:47:42Z</time>
      </trkpt>
      <trkpt lat="50.0559" lon="2.26734">
        <ele>138.6</ele>
        <time>2022-11-30T13:47:43Z</time>
      </trkpt>
      <trkpt lat="50.0559" lon="2.26734">
        <ele>138.6</ele>
        <time>2022-11-30T13:47:44Z</time>
      </trkpt>
      <trkpt lat="50.0559" lon="2.26733">
        <ele>138.6</ele>
        <time>2022-11-30T13:47:45Z</time>
      </trkpt>
      <trkpt lat="50.0559" lon="2.26733">
        <ele>138.6</ele>
        <time>2022-11-30T13:47:46Z</time>
      </trkpt>
      <trkpt lat="50.0559" lon="2.26733">
        <ele>138.6</ele>
        <time>2022-11-30T13:47:47Z</time>
      </trkpt>
      <trkpt lat="50.0559" lon="2.26733">
        <ele>138.5</ele>
        <time>2022-11-30T13:47:48Z</time>
      </trkpt>
      <trkpt lat="50.0559" lon="2.26732">
        <ele>138.5</ele>
        <time>2022-11-30T13:47:49Z</time>
      </trkpt>
      <trkpt lat="50.0559" lon="2.26732">
        <ele>138.5</ele>
        <time>2022-11-30T13:47:50Z</time>
      </trkpt>
      <trkpt lat="50.0559" lon="2.26731">
        <ele>138.5</ele>
        <time>2022-11-30T13:47:51Z</time>
      </trkpt>
      <trkpt lat="50.0559" lon="2.26731">
        <ele>138.5</ele>
        <time>2022-11-30T13:47:52Z</time>
      </trkpt>
      <trkpt lat="50.0559" lon="2.2673">
        <ele>138.5</ele>
        <time>2022-11-30T13:47:54Z</time>
      </trkpt>
      <trkpt lat="50.0559" lon="2.26729">
        <ele>138.5</ele>
        <time>2022-11-30T13:47:55Z</time>
      </trkpt>
      <trkpt lat="50.0559" lon="2.26729">
        <ele>138.5</ele>
        <time>2022-11-30T13:47:56Z</time>
      </trkpt>
      <trkpt lat="50.0559" lon="2.26728">
        <ele>138.4</ele>
        <time>2022-11-30T13:47:58Z</time>
      </trkpt>
      <trkpt lat="50.0559" lon="2.26727">
        <ele>138.4</ele>
        <time>2022-11-30T13:47:59Z</time>
      </trkpt>
      <trkpt lat="50.0559" lon="2.26726">
        <ele>138.4</ele>
        <time>2022-11-30T13:48:00Z</time>
      </trkpt>
      <trkpt lat="50.0559" lon="2.26724">
        <ele>138.4</ele>
        <time>2022-11-30T13:48:01Z</time>
      </trkpt>
      <trkpt lat="50.05591" lon="2.26723">
        <ele>138.4</ele>
        <time>2022-11-30T13:48:03Z</time>
      </trkpt>
      <trkpt lat="50.05591" lon="2.26721">
        <ele>138.3</ele>
        <time>2022-11-30T13:48:04Z</time>
      </trkpt>
      <trkpt lat="50.05591" lon="2.2672">
        <ele>138.3</ele>
        <time>2022-11-30T13:48:05Z</time>
      </trkpt>
      <trkpt lat="50.05592" lon="2.26719">
        <ele>138.3</ele>
        <time>2022-11-30T13:48:06Z</time>
      </trkpt>
      <trkpt lat="50.05592" lon="2.26717">
        <ele>138.3</ele>
        <time>2022-11-30T13:48:07Z</time>
      </trkpt>
      <trkpt lat="50.05592" lon="2.26716">
        <ele>138.2</ele>
        <time>2022-11-30T13:48:08Z</time>
      </trkpt>
      <trkpt lat="50.05593" lon="2.26713">
        <ele>138.2</ele>
        <time>2022-11-30T13:48:09Z</time>
      </trkpt>
      <trkpt lat="50.05593" lon="2.26712">
        <ele>138.2</ele>
        <time>2022-11-30T13:48:11Z</time>
      </trkpt>
      <trkpt lat="50.05593" lon="2.2671">
        <ele>138.1</ele>
        <time>2022-11-30T13:48:12Z</time>
      </trkpt>
      <trkpt lat="50.05594" lon="2.26709">
        <ele>138.1</ele>
        <time>2022-11-30T13:48:13Z</time>
      </trkpt>
      <trkpt lat="50.05594" lon="2.26707">
        <ele>138.1</ele>
        <time>2022-11-30T13:48:14Z</time>
      </trkpt>
      <trkpt lat="50.05594" lon="2.26706">
        <ele>138.1</ele>
        <time>2022-11-30T13:48:15Z</time>
      </trkpt>
      <trkpt lat="50.05595" lon="2.26704">
        <ele>138.1</ele>
        <time>2022-11-30T13:48:16Z</time>
      </trkpt>
      <trkpt lat="50.05595" lon="2.26702">
        <ele>138</ele>
        <time>2022-11-30T13:48:18Z</time>
      </trkpt>
      <trkpt lat="50.05595" lon="2.26701">
        <ele>138</ele>
        <time>2022-11-30T13:48:19Z</time>
      </trkpt>
      <trkpt lat="50.05596" lon="2.267">
        <ele>138</ele>
        <time>2022-11-30T13:48:20Z</time>
      </trkpt>
      <trkpt lat="50.05596" lon="2.26698">
        <ele>138</ele>
        <time>2022-11-30T13:48:22Z</time>
      </trkpt>
      <trkpt lat="50.05595" lon="2.26697">
        <ele>138</ele>
        <time>2022-11-30T13:48:23Z</time>
      </trkpt>
      <trkpt lat="50.05594" lon="2.26697">
        <ele>137.9</ele>
        <time>2022-11-30T13:48:25Z</time>
      </trkpt>
      <trkpt lat="50.05594" lon="2.26697">
        <ele>137.9</ele>
        <time>2022-11-30T13:48:26Z</time>
      </trkpt>
      <trkpt lat="50.05593" lon="2.26697">
        <ele>137.9</ele>
        <time>2022-11-30T13:48:27Z</time>
      </trkpt>
      <trkpt lat="50.05593" lon="2.26698">
        <ele>137.9</ele>
        <time>2022-11-30T13:48:28Z</time>
      </trkpt>
      <trkpt lat="50.05593" lon="2.26699">
        <ele>137.9</ele>
        <time>2022-11-30T13:48:29Z</time>
      </trkpt>
      <trkpt lat="50.05592" lon="2.26699">
        <ele>137.9</ele>
        <time>2022-11-30T13:48:30Z</time>
      </trkpt>
      <trkpt lat="50.05592" lon="2.267">
        <ele>137.9</ele>
        <time>2022-11-30T13:48:31Z</time>
      </trkpt>
      <trkpt lat="50.05592" lon="2.267">
        <ele>137.9</ele>
        <time>2022-11-30T13:48:32Z</time>
      </trkpt>
      <trkpt lat="50.05592" lon="2.26701">
        <ele>137.9</ele>
        <time>2022-11-30T13:48:33Z</time>
      </trkpt>
      <trkpt lat="50.05592" lon="2.26701">
        <ele>137.9</ele>
        <time>2022-11-30T13:48:34Z</time>
      </trkpt>
      <trkpt lat="50.05592" lon="2.26701">
        <ele>137.9</ele>
        <time>2022-11-30T13:48:35Z</time>
      </trkpt>
      <trkpt lat="50.05592" lon="2.26701">
        <ele>137.9</ele>
        <time>2022-11-30T13:48:36Z</time>
      </trkpt>
      <trkpt lat="50.05592" lon="2.26701">
        <ele>137.9</ele>
        <time>2022-11-30T13:48:37Z</time>
      </trkpt>
      <trkpt lat="50.05592" lon="2.26702">
        <ele>137.9</ele>
        <time>2022-11-30T13:48:38Z</time>
      </trkpt>
      <trkpt lat="50.05592" lon="2.26702">
        <ele>137.9</ele>
        <time>2022-11-30T13:48:39Z</time>
      </trkpt>
      <trkpt lat="50.05592" lon="2.26702">
        <ele>137.9</ele>
        <time>2022-11-30T13:48:40Z</time>
      </trkpt>
      <trkpt lat="50.05592" lon="2.26702">
        <ele>137.9</ele>
        <time>2022-11-30T13:48:41Z</time>
      </trkpt>
      <trkpt lat="50.05592" lon="2.26702">
        <ele>137.9</ele>
        <time>2022-11-30T13:48:42Z</time>
      </trkpt>
      <trkpt lat="50.05592" lon="2.26701">
        <ele>137.9</ele>
        <time>2022-11-30T13:48:43Z</time>
      </trkpt>
      <trkpt lat="50.05592" lon="2.26701">
        <ele>137.9</ele>
        <time>2022-11-30T13:48:44Z</time>
      </trkpt>
      <trkpt lat="50.05592" lon="2.26701">
        <ele>137.9</ele>
        <time>2022-11-30T13:48:45Z</time>
      </trkpt>
      <trkpt lat="50.05592" lon="2.26701">
        <ele>137.9</ele>
        <time>2022-11-30T13:48:46Z</time>
      </trkpt>
      <trkpt lat="50.05592" lon="2.26701">
        <ele>137.9</ele>
        <time>2022-11-30T13:48:47Z</time>
      </trkpt>
      <trkpt lat="50.05592" lon="2.26701">
        <ele>137.9</ele>
        <time>2022-11-30T13:48:48Z</time>
      </trkpt>
      <trkpt lat="50.05592" lon="2.26701">
        <ele>137.9</ele>
        <time>2022-11-30T13:48:49Z</time>
      </trkpt>
      <trkpt lat="50.05592" lon="2.26701">
        <ele>137.9</ele>
        <time>2022-11-30T13:48:50Z</time>
      </trkpt>
      <trkpt lat="50.05592" lon="2.26701">
        <ele>137.9</ele>
        <time>2022-11-30T13:48:51Z</time>
      </trkpt>
      <trkpt lat="50.05592" lon="2.26701">
        <ele>137.9</ele>
        <time>2022-11-30T13:48:52Z</time>
      </trkpt>
      <trkpt lat="50.05592" lon="2.26701">
        <ele>137.9</ele>
        <time>2022-11-30T13:48:53Z</time>
      </trkpt>
      <trkpt lat="50.05592" lon="2.26701">
        <ele>137.9</ele>
        <time>2022-11-30T13:48:54Z</time>
      </trkpt>
      <trkpt lat="50.05592" lon="2.26701">
        <ele>137.9</ele>
        <time>2022-11-30T13:48:55Z</time>
      </trkpt>
      <trkpt lat="50.05592" lon="2.26701">
        <ele>137.9</ele>
        <time>2022-11-30T13:48:56Z</time>
      </trkpt>
      <trkpt lat="50.05592" lon="2.26701">
        <ele>137.9</ele>
        <time>2022-11-30T13:48:57Z</time>
      </trkpt>
      <trkpt lat="50.05592" lon="2.26701">
        <ele>137.9</ele>
        <time>2022-11-30T13:48:58Z</time>
      </trkpt>
      <trkpt lat="50.05592" lon="2.26701">
        <ele>137.9</ele>
        <time>2022-11-30T13:48:59Z</time>
      </trkpt>
      <trkpt lat="50.05592" lon="2.26701">
        <ele>137.9</ele>
        <time>2022-11-30T13:49:00Z</time>
      </trkpt>
      <trkpt lat="50.05592" lon="2.26701">
        <ele>137.9</ele>
        <time>2022-11-30T13:49:01Z</time>
      </trkpt>
      <trkpt lat="50.05592" lon="2.26701">
        <ele>137.9</ele>
        <time>2022-11-30T13:49:02Z</time>
      </trkpt>
      <trkpt lat="50.05592" lon="2.26701">
        <ele>137.9</ele>
        <time>2022-11-30T13:49:03Z</time>
      </trkpt>
      <trkpt lat="50.05592" lon="2.26701">
        <ele>137.9</ele>
        <time>2022-11-30T13:49:04Z</time>
      </trkpt>
      <trkpt lat="50.05592" lon="2.26701">
        <ele>137.9</ele>
        <time>2022-11-30T13:49:05Z</time>
      </trkpt>
      <trkpt lat="50.05592" lon="2.26701">
        <ele>137.9</ele>
        <time>2022-11-30T13:49:06Z</time>
      </trkpt>
      <trkpt lat="50.05592" lon="2.26701">
        <ele>137.9</ele>
        <time>2022-11-30T13:49:07Z</time>
      </trkpt>
      <trkpt lat="50.05592" lon="2.26701">
        <ele>137.9</ele>
        <time>2022-11-30T13:49:08Z</time>
      </trkpt>
      <trkpt lat="50.05592" lon="2.26701">
        <ele>137.9</ele>
        <time>2022-11-30T13:49:09Z</time>
      </trkpt>
      <trkpt lat="50.05592" lon="2.26701">
        <ele>137.9</ele>
        <time>2022-11-30T13:49:10Z</time>
      </trkpt>
      <trkpt lat="50.05592" lon="2.26701">
        <ele>137.9</ele>
        <time>2022-11-30T13:49:11Z</time>
      </trkpt>
      <trkpt lat="50.05592" lon="2.26701">
        <ele>137.9</ele>
        <time>2022-11-30T13:49:12Z</time>
      </trkpt>
      <trkpt lat="50.05592" lon="2.26701">
        <ele>137.9</ele>
        <time>2022-11-30T13:49:13Z</time>
      </trkpt>
      <trkpt lat="50.05592" lon="2.26701">
        <ele>137.9</ele>
        <time>2022-11-30T13:49:14Z</time>
      </trkpt>
      <trkpt lat="50.05592" lon="2.26701">
        <ele>137.9</ele>
        <time>2022-11-30T13:49:15Z</time>
      </trkpt>
      <trkpt lat="50.05592" lon="2.26701">
        <ele>137.9</ele>
        <time>2022-11-30T13:49:16Z</time>
      </trkpt>
      <trkpt lat="50.05592" lon="2.26701">
        <ele>137.9</ele>
        <time>2022-11-30T13:49:17Z</time>
      </trkpt>
      <trkpt lat="50.05592" lon="2.26701">
        <ele>137.9</ele>
        <time>2022-11-30T13:49:18Z</time>
      </trkpt>
      <trkpt lat="50.05592" lon="2.26701">
        <ele>137.9</ele>
        <time>2022-11-30T13:49:19Z</time>
      </trkpt>
      <trkpt lat="50.05592" lon="2.26701">
        <ele>137.9</ele>
        <time>2022-11-30T13:49:20Z</time>
      </trkpt>
      <trkpt lat="50.05592" lon="2.26701">
        <ele>137.9</ele>
        <time>2022-11-30T13:49:21Z</time>
      </trkpt>
      <trkpt lat="50.05592" lon="2.26701">
        <ele>137.9</ele>
        <time>2022-11-30T13:49:22Z</time>
      </trkpt>
      <trkpt lat="50.05592" lon="2.26701">
        <ele>137.9</ele>
        <time>2022-11-30T13:49:23Z</time>
      </trkpt>
      <trkpt lat="50.05592" lon="2.26701">
        <ele>137.9</ele>
        <time>2022-11-30T13:49:24Z</time>
      </trkpt>
      <trkpt lat="50.05592" lon="2.26701">
        <ele>137.9</ele>
        <time>2022-11-30T13:49:25Z</time>
      </trkpt>
      <trkpt lat="50.05592" lon="2.26701">
        <ele>137.9</ele>
        <time>2022-11-30T13:49:26Z</time>
      </trkpt>
      <trkpt lat="50.05592" lon="2.26701">
        <ele>137.9</ele>
        <time>2022-11-30T13:49:27Z</time>
      </trkpt>
      <trkpt lat="50.05592" lon="2.26701">
        <ele>137.9</ele>
        <time>2022-11-30T13:49:28Z</time>
      </trkpt>
      <trkpt lat="50.05592" lon="2.26701">
        <ele>137.9</ele>
        <time>2022-11-30T13:49:29Z</time>
      </trkpt>
      <trkpt lat="50.05592" lon="2.26701">
        <ele>137.9</ele>
        <time>2022-11-30T13:49:30Z</time>
      </trkpt>
      <trkpt lat="50.05592" lon="2.26701">
        <ele>137.9</ele>
        <time>2022-11-30T13:49:31Z</time>
      </trkpt>
      <trkpt lat="50.05592" lon="2.26701">
        <ele>137.9</ele>
        <time>2022-11-30T13:49:32Z</time>
      </trkpt>
      <trkpt lat="50.05592" lon="2.26701">
        <ele>137.9</ele>
        <time>2022-11-30T13:49:33Z</time>
      </trkpt>
      <trkpt lat="50.05592" lon="2.26701">
        <ele>137.9</ele>
        <time>2022-11-30T13:49:34Z</time>
      </trkpt>
      <trkpt lat="50.05592" lon="2.26701">
        <ele>137.9</ele>
        <time>2022-11-30T13:49:35Z</time>
      </trkpt>
      <trkpt lat="50.05592" lon="2.26701">
        <ele>137.9</ele>
        <time>2022-11-30T13:49:36Z</time>
      </trkpt>
      <trkpt lat="50.05592" lon="2.26701">
        <ele>137.9</ele>
        <time>2022-11-30T13:49:37Z</time>
      </trkpt>
      <trkpt lat="50.05592" lon="2.26701">
        <ele>137.9</ele>
        <time>2022-11-30T13:49:38Z</time>
      </trkpt>
      <trkpt lat="50.05592" lon="2.26701">
        <ele>137.9</ele>
        <time>2022-11-30T13:49:39Z</time>
      </trkpt>
      <trkpt lat="50.05592" lon="2.26701">
        <ele>137.9</ele>
        <time>2022-11-30T13:49:40Z</time>
      </trkpt>
      <trkpt lat="50.05592" lon="2.26701">
        <ele>137.9</ele>
        <time>2022-11-30T13:49:41Z</time>
      </trkpt>
      <trkpt lat="50.05592" lon="2.26701">
        <ele>137.9</ele>
        <time>2022-11-30T13:49:42Z</time>
      </trkpt>
      <trkpt lat="50.05592" lon="2.26701">
        <ele>137.9</ele>
        <time>2022-11-30T13:49:43Z</time>
      </trkpt>
      <trkpt lat="50.05592" lon="2.26701">
        <ele>137.9</ele>
        <time>2022-11-30T13:49:44Z</time>
      </trkpt>
      <trkpt lat="50.05592" lon="2.26701">
        <ele>137.9</ele>
        <time>2022-11-30T13:49:45Z</time>
      </trkpt>
      <trkpt lat="50.05592" lon="2.26701">
        <ele>137.9</ele>
        <time>2022-11-30T13:49:46Z</time>
      </trkpt>
      <trkpt lat="50.05592" lon="2.26701">
        <ele>137.9</ele>
        <time>2022-11-30T13:49:47Z</time>
      </trkpt>
      <trkpt lat="50.05592" lon="2.26701">
        <ele>137.9</ele>
        <time>2022-11-30T13:49:48Z</time>
      </trkpt>
      <trkpt lat="50.05592" lon="2.26701">
        <ele>137.9</ele>
        <time>2022-11-30T13:49:49Z</time>
      </trkpt>
      <trkpt lat="50.05592" lon="2.26701">
        <ele>137.9</ele>
        <time>2022-11-30T13:49:50Z</time>
      </trkpt>
      <trkpt lat="50.05592" lon="2.26701">
        <ele>137.9</ele>
        <time>2022-11-30T13:49:51Z</time>
      </trkpt>
      <trkpt lat="50.05592" lon="2.26701">
        <ele>137.9</ele>
        <time>2022-11-30T13:49:52Z</time>
      </trkpt>
      <trkpt lat="50.05592" lon="2.26701">
        <ele>137.9</ele>
        <time>2022-11-30T13:49:53Z</time>
      </trkpt>
      <trkpt lat="50.05592" lon="2.26701">
        <ele>137.9</ele>
        <time>2022-11-30T13:49:54Z</time>
      </trkpt>
      <trkpt lat="50.05592" lon="2.26701">
        <ele>137.9</ele>
        <time>2022-11-30T13:49:55Z</time>
      </trkpt>
      <trkpt lat="50.05592" lon="2.26701">
        <ele>137.9</ele>
        <time>2022-11-30T13:49:56Z</time>
      </trkpt>
      <trkpt lat="50.05592" lon="2.26701">
        <ele>137.9</ele>
        <time>2022-11-30T13:49:57Z</time>
      </trkpt>
      <trkpt lat="50.05592" lon="2.26701">
        <ele>137.9</ele>
        <time>2022-11-30T13:49:58Z</time>
      </trkpt>
      <trkpt lat="50.05592" lon="2.26701">
        <ele>137.9</ele>
        <time>2022-11-30T13:49:59Z</time>
      </trkpt>
      <trkpt lat="50.05592" lon="2.26701">
        <ele>137.9</ele>
        <time>2022-11-30T13:50:00Z</time>
      </trkpt>
      <trkpt lat="50.05592" lon="2.26701">
        <ele>137.9</ele>
        <time>2022-11-30T13:50:01Z</time>
      </trkpt>
      <trkpt lat="50.05592" lon="2.26701">
        <ele>137.9</ele>
        <time>2022-11-30T13:50:02Z</time>
      </trkpt>
      <trkpt lat="50.05592" lon="2.26701">
        <ele>137.9</ele>
        <time>2022-11-30T13:50:03Z</time>
      </trkpt>
      <trkpt lat="50.05592" lon="2.26701">
        <ele>137.9</ele>
        <time>2022-11-30T13:50:04Z</time>
      </trkpt>
      <trkpt lat="50.05592" lon="2.26701">
        <ele>137.9</ele>
        <time>2022-11-30T13:50:05Z</time>
      </trkpt>
      <trkpt lat="50.05592" lon="2.26701">
        <ele>137.9</ele>
        <time>2022-11-30T13:50:06Z</time>
      </trkpt>
      <trkpt lat="50.05592" lon="2.26701">
        <ele>137.9</ele>
        <time>2022-11-30T13:50:07Z</time>
      </trkpt>
      <trkpt lat="50.05592" lon="2.26701">
        <ele>137.9</ele>
        <time>2022-11-30T13:50:08Z</time>
      </trkpt>
      <trkpt lat="50.05592" lon="2.26701">
        <ele>137.9</ele>
        <time>2022-11-30T13:50:09Z</time>
      </trkpt>
      <trkpt lat="50.05592" lon="2.26701">
        <ele>137.9</ele>
        <time>2022-11-30T13:50:10Z</time>
      </trkpt>
      <trkpt lat="50.05592" lon="2.26701">
        <ele>137.9</ele>
        <time>2022-11-30T13:50:11Z</time>
      </trkpt>
      <trkpt lat="50.05592" lon="2.26701">
        <ele>137.9</ele>
        <time>2022-11-30T13:50:12Z</time>
      </trkpt>
      <trkpt lat="50.05592" lon="2.26701">
        <ele>137.9</ele>
        <time>2022-11-30T13:50:13Z</time>
      </trkpt>
      <trkpt lat="50.05592" lon="2.26701">
        <ele>137.9</ele>
        <time>2022-11-30T13:50:14Z</time>
      </trkpt>
      <trkpt lat="50.05592" lon="2.26701">
        <ele>137.9</ele>
        <time>2022-11-30T13:50:15Z</time>
      </trkpt>
      <trkpt lat="50.05594" lon="2.26704">
        <ele>137.8</ele>
        <time>2022-11-30T13:50:16Z</time>
      </trkpt>
      <trkpt lat="50.05595" lon="2.26706">
        <ele>137.8</ele>
        <time>2022-11-30T13:50:17Z</time>
      </trkpt>
      <trkpt lat="50.05596" lon="2.26707">
        <ele>137.8</ele>
        <time>2022-11-30T13:50:18Z</time>
      </trkpt>
      <trkpt lat="50.05597" lon="2.26708">
        <ele>137.7</ele>
        <time>2022-11-30T13:50:19Z</time>
      </trkpt>
      <trkpt lat="50.05598" lon="2.26709">
        <ele>137.7</ele>
        <time>2022-11-30T13:50:20Z</time>
      </trkpt>
      <trkpt lat="50.05598" lon="2.26709">
        <ele>137.7</ele>
        <time>2022-11-30T13:50:21Z</time>
      </trkpt>
      <trkpt lat="50.05598" lon="2.26708">
        <ele>137.7</ele>
        <time>2022-11-30T13:50:22Z</time>
      </trkpt>
      <trkpt lat="50.05598" lon="2.26706">
        <ele>137.7</ele>
        <time>2022-11-30T13:50:23Z</time>
      </trkpt>
      <trkpt lat="50.05598" lon="2.26704">
        <ele>137.7</ele>
        <time>2022-11-30T13:50:24Z</time>
      </trkpt>
      <trkpt lat="50.05598" lon="2.26703">
        <ele>137.7</ele>
        <time>2022-11-30T13:50:25Z</time>
      </trkpt>
      <trkpt lat="50.05598" lon="2.26701">
        <ele>137.6</ele>
        <time>2022-11-30T13:50:26Z</time>
      </trkpt>
      <trkpt lat="50.05598" lon="2.26701">
        <ele>137.6</ele>
        <time>2022-11-30T13:50:27Z</time>
      </trkpt>
      <trkpt lat="50.05598" lon="2.267">
        <ele>137.6</ele>
        <time>2022-11-30T13:50:28Z</time>
      </trkpt>
      <trkpt lat="50.05598" lon="2.26699">
        <ele>137.6</ele>
        <time>2022-11-30T13:50:29Z</time>
      </trkpt>
      <trkpt lat="50.05598" lon="2.26698">
        <ele>137.6</ele>
        <time>2022-11-30T13:50:30Z</time>
      </trkpt>
      <trkpt lat="50.05598" lon="2.26697">
        <ele>137.6</ele>
        <time>2022-11-30T13:50:31Z</time>
      </trkpt>
      <trkpt lat="50.05598" lon="2.26696">
        <ele>137.6</ele>
        <time>2022-11-30T13:50:32Z</time>
      </trkpt>
      <trkpt lat="50.05598" lon="2.26695">
        <ele>137.6</ele>
        <time>2022-11-30T13:50:33Z</time>
      </trkpt>
      <trkpt lat="50.05598" lon="2.26694">
        <ele>137.6</ele>
        <time>2022-11-30T13:50:34Z</time>
      </trkpt>
      <trkpt lat="50.05598" lon="2.26693">
        <ele>137.5</ele>
        <time>2022-11-30T13:50:35Z</time>
      </trkpt>
      <trkpt lat="50.05598" lon="2.26692">
        <ele>137.5</ele>
        <time>2022-11-30T13:50:36Z</time>
      </trkpt>
      <trkpt lat="50.05597" lon="2.26691">
        <ele>137.5</ele>
        <time>2022-11-30T13:50:37Z</time>
      </trkpt>
      <trkpt lat="50.05597" lon="2.2669">
        <ele>137.5</ele>
        <time>2022-11-30T13:50:38Z</time>
      </trkpt>
      <trkpt lat="50.05596" lon="2.26691">
        <ele>137.5</ele>
        <time>2022-11-30T13:50:39Z</time>
      </trkpt>
      <trkpt lat="50.05596" lon="2.26691">
        <ele>137.5</ele>
        <time>2022-11-30T13:50:40Z</time>
      </trkpt>
      <trkpt lat="50.05595" lon="2.26691">
        <ele>137.5</ele>
        <time>2022-11-30T13:50:41Z</time>
      </trkpt>
      <trkpt lat="50.05595" lon="2.26691">
        <ele>137.5</ele>
        <time>2022-11-30T13:50:42Z</time>
      </trkpt>
      <trkpt lat="50.05595" lon="2.26691">
        <ele>137.5</ele>
        <time>2022-11-30T13:50:43Z</time>
      </trkpt>
      <trkpt lat="50.05595" lon="2.26691">
        <ele>137.5</ele>
        <time>2022-11-30T13:50:44Z</time>
      </trkpt>
      <trkpt lat="50.05595" lon="2.26691">
        <ele>137.5</ele>
        <time>2022-11-30T13:50:45Z</time>
      </trkpt>
      <trkpt lat="50.05595" lon="2.26691">
        <ele>137.5</ele>
        <time>2022-11-30T13:50:46Z</time>
      </trkpt>
      <trkpt lat="50.05595" lon="2.26691">
        <ele>137.5</ele>
        <time>2022-11-30T13:50:47Z</time>
      </trkpt>
      <trkpt lat="50.05595" lon="2.26692">
        <ele>137.5</ele>
        <time>2022-11-30T13:50:48Z</time>
      </trkpt>
      <trkpt lat="50.05595" lon="2.26692">
        <ele>137.5</ele>
        <time>2022-11-30T13:50:49Z</time>
      </trkpt>
      <trkpt lat="50.05595" lon="2.26692">
        <ele>137.5</ele>
        <time>2022-11-30T13:50:50Z</time>
      </trkpt>
      <trkpt lat="50.05595" lon="2.26692">
        <ele>137.5</ele>
        <time>2022-11-30T13:50:51Z</time>
      </trkpt>
      <trkpt lat="50.05595" lon="2.26692">
        <ele>137.5</ele>
        <time>2022-11-30T13:50:52Z</time>
      </trkpt>
      <trkpt lat="50.05595" lon="2.26692">
        <ele>137.5</ele>
        <time>2022-11-30T13:50:53Z</time>
      </trkpt>
      <trkpt lat="50.05595" lon="2.26692">
        <ele>137.5</ele>
        <time>2022-11-30T13:50:54Z</time>
      </trkpt>
      <trkpt lat="50.05595" lon="2.26692">
        <ele>137.5</ele>
        <time>2022-11-30T13:50:55Z</time>
      </trkpt>
      <trkpt lat="50.05595" lon="2.26693">
        <ele>137.5</ele>
        <time>2022-11-30T13:50:56Z</time>
      </trkpt>
      <trkpt lat="50.05594" lon="2.26693">
        <ele>137.5</ele>
        <time>2022-11-30T13:50:57Z</time>
      </trkpt>
      <trkpt lat="50.05595" lon="2.26692">
        <ele>137.4</ele>
        <time>2022-11-30T13:50:58Z</time>
      </trkpt>
      <trkpt lat="50.05595" lon="2.2669">
        <ele>137.4</ele>
        <time>2022-11-30T13:50:59Z</time>
      </trkpt>
      <trkpt lat="50.05595" lon="2.26689">
        <ele>137.4</ele>
        <time>2022-11-30T13:51:00Z</time>
      </trkpt>
      <trkpt lat="50.05595" lon="2.26688">
        <ele>137.4</ele>
        <time>2022-11-30T13:51:01Z</time>
      </trkpt>
      <trkpt lat="50.05596" lon="2.26687">
        <ele>137.4</ele>
        <time>2022-11-30T13:51:02Z</time>
      </trkpt>
      <trkpt lat="50.05596" lon="2.26686">
        <ele>137.4</ele>
        <time>2022-11-30T13:51:03Z</time>
      </trkpt>
      <trkpt lat="50.05595" lon="2.26685">
        <ele>137.4</ele>
        <time>2022-11-30T13:51:04Z</time>
      </trkpt>
      <trkpt lat="50.05595" lon="2.26685">
        <ele>137.4</ele>
        <time>2022-11-30T13:51:05Z</time>
      </trkpt>
      <trkpt lat="50.05595" lon="2.26684">
        <ele>137.4</ele>
        <time>2022-11-30T13:51:06Z</time>
      </trkpt>
      <trkpt lat="50.05596" lon="2.26685">
        <ele>137.3</ele>
        <time>2022-11-30T13:51:07Z</time>
      </trkpt>
      <trkpt lat="50.05596" lon="2.26685">
        <ele>137.3</ele>
        <time>2022-11-30T13:51:08Z</time>
      </trkpt>
      <trkpt lat="50.05596" lon="2.26686">
        <ele>137.3</ele>
        <time>2022-11-30T13:51:09Z</time>
      </trkpt>
      <trkpt lat="50.05596" lon="2.26686">
        <ele>137.3</ele>
        <time>2022-11-30T13:51:10Z</time>
      </trkpt>
      <trkpt lat="50.05596" lon="2.26686">
        <ele>137.3</ele>
        <time>2022-11-30T13:51:11Z</time>
      </trkpt>
      <trkpt lat="50.05596" lon="2.26686">
        <ele>137.3</ele>
        <time>2022-11-30T13:51:12Z</time>
      </trkpt>
      <trkpt lat="50.05596" lon="2.26687">
        <ele>137.3</ele>
        <time>2022-11-30T13:51:13Z</time>
      </trkpt>
      <trkpt lat="50.05596" lon="2.26687">
        <ele>137.3</ele>
        <time>2022-11-30T13:51:14Z</time>
      </trkpt>
      <trkpt lat="50.05596" lon="2.26687">
        <ele>137.3</ele>
        <time>2022-11-30T13:51:15Z</time>
      </trkpt>
      <trkpt lat="50.05596" lon="2.26687">
        <ele>137.3</ele>
        <time>2022-11-30T13:51:16Z</time>
      </trkpt>
      <trkpt lat="50.05596" lon="2.26687">
        <ele>137.3</ele>
        <time>2022-11-30T13:51:17Z</time>
      </trkpt>
      <trkpt lat="50.05596" lon="2.26687">
        <ele>137.3</ele>
        <time>2022-11-30T13:51:18Z</time>
      </trkpt>
      <trkpt lat="50.05596" lon="2.26687">
        <ele>137.3</ele>
        <time>2022-11-30T13:51:19Z</time>
      </trkpt>
      <trkpt lat="50.05596" lon="2.26687">
        <ele>137.3</ele>
        <time>2022-11-30T13:51:20Z</time>
      </trkpt>
      <trkpt lat="50.05596" lon="2.26687">
        <ele>137.3</ele>
        <time>2022-11-30T13:51:21Z</time>
      </trkpt>
      <trkpt lat="50.05596" lon="2.26687">
        <ele>137.3</ele>
        <time>2022-11-30T13:51:22Z</time>
      </trkpt>
      <trkpt lat="50.05596" lon="2.26687">
        <ele>137.3</ele>
        <time>2022-11-30T13:51:23Z</time>
      </trkpt>
      <trkpt lat="50.05596" lon="2.26687">
        <ele>137.3</ele>
        <time>2022-11-30T13:51:24Z</time>
      </trkpt>
      <trkpt lat="50.05596" lon="2.26687">
        <ele>137.3</ele>
        <time>2022-11-30T13:51:25Z</time>
      </trkpt>
      <trkpt lat="50.05596" lon="2.26687">
        <ele>137.3</ele>
        <time>2022-11-30T13:51:26Z</time>
      </trkpt>
      <trkpt lat="50.05596" lon="2.26687">
        <ele>137.3</ele>
        <time>2022-11-30T13:51:27Z</time>
      </trkpt>
      <trkpt lat="50.05596" lon="2.26687">
        <ele>137.3</ele>
        <time>2022-11-30T13:51:28Z</time>
      </trkpt>
      <trkpt lat="50.05595" lon="2.26686">
        <ele>137.3</ele>
        <time>2022-11-30T13:51:29Z</time>
      </trkpt>
      <trkpt lat="50.05595" lon="2.26686">
        <ele>137.3</ele>
        <time>2022-11-30T13:51:30Z</time>
      </trkpt>
      <trkpt lat="50.05594" lon="2.26685">
        <ele>137.3</ele>
        <time>2022-11-30T13:51:31Z</time>
      </trkpt>
      <trkpt lat="50.05594" lon="2.26684">
        <ele>137.3</ele>
        <time>2022-11-30T13:51:32Z</time>
      </trkpt>
      <trkpt lat="50.05594" lon="2.26683">
        <ele>137.3</ele>
        <time>2022-11-30T13:51:33Z</time>
      </trkpt>
      <trkpt lat="50.05594" lon="2.26681">
        <ele>137.2</ele>
        <time>2022-11-30T13:51:34Z</time>
      </trkpt>
      <trkpt lat="50.05594" lon="2.26679">
        <ele>137.2</ele>
        <time>2022-11-30T13:51:35Z</time>
      </trkpt>
      <trkpt lat="50.05595" lon="2.26678">
        <ele>137.2</ele>
        <time>2022-11-30T13:51:36Z</time>
      </trkpt>
      <trkpt lat="50.05594" lon="2.26676">
        <ele>137.2</ele>
        <time>2022-11-30T13:51:37Z</time>
      </trkpt>
      <trkpt lat="50.05594" lon="2.26673">
        <ele>137.2</ele>
        <time>2022-11-30T13:51:38Z</time>
      </trkpt>
      <trkpt lat="50.05594" lon="2.26672">
        <ele>137.1</ele>
        <time>2022-11-30T13:51:39Z</time>
      </trkpt>
      <trkpt lat="50.05594" lon="2.26671">
        <ele>137.1</ele>
        <time>2022-11-30T13:51:40Z</time>
      </trkpt>
      <trkpt lat="50.05594" lon="2.26669">
        <ele>137.1</ele>
        <time>2022-11-30T13:51:41Z</time>
      </trkpt>
      <trkpt lat="50.05594" lon="2.26667">
        <ele>137.1</ele>
        <time>2022-11-30T13:51:42Z</time>
      </trkpt>
      <trkpt lat="50.05594" lon="2.26665">
        <ele>137.1</ele>
        <time>2022-11-30T13:51:43Z</time>
      </trkpt>
      <trkpt lat="50.05594" lon="2.26664">
        <ele>137.1</ele>
        <time>2022-11-30T13:51:45Z</time>
      </trkpt>
      <trkpt lat="50.05594" lon="2.26662">
        <ele>137</ele>
        <time>2022-11-30T13:51:46Z</time>
      </trkpt>
      <trkpt lat="50.05594" lon="2.26661">
        <ele>137</ele>
        <time>2022-11-30T13:51:47Z</time>
      </trkpt>
      <trkpt lat="50.05594" lon="2.26659">
        <ele>137</ele>
        <time>2022-11-30T13:51:48Z</time>
      </trkpt>
      <trkpt lat="50.05594" lon="2.26658">
        <ele>137</ele>
        <time>2022-11-30T13:51:49Z</time>
      </trkpt>
      <trkpt lat="50.05594" lon="2.26656">
        <ele>137</ele>
        <time>2022-11-30T13:51:50Z</time>
      </trkpt>
      <trkpt lat="50.05594" lon="2.26654">
        <ele>137</ele>
        <time>2022-11-30T13:51:51Z</time>
      </trkpt>
      <trkpt lat="50.05594" lon="2.26651">
        <ele>136.9</ele>
        <time>2022-11-30T13:51:52Z</time>
      </trkpt>
      <trkpt lat="50.05594" lon="2.2665">
        <ele>136.9</ele>
        <time>2022-11-30T13:51:54Z</time>
      </trkpt>
      <trkpt lat="50.05594" lon="2.26648">
        <ele>136.9</ele>
        <time>2022-11-30T13:51:55Z</time>
      </trkpt>
      <trkpt lat="50.05594" lon="2.26646">
        <ele>136.9</ele>
        <time>2022-11-30T13:51:56Z</time>
      </trkpt>
      <trkpt lat="50.05594" lon="2.26645">
        <ele>136.9</ele>
        <time>2022-11-30T13:51:57Z</time>
      </trkpt>
      <trkpt lat="50.05594" lon="2.26643">
        <ele>136.9</ele>
        <time>2022-11-30T13:51:58Z</time>
      </trkpt>
      <trkpt lat="50.05594" lon="2.2664">
        <ele>136.8</ele>
        <time>2022-11-30T13:51:59Z</time>
      </trkpt>
      <trkpt lat="50.05593" lon="2.26638">
        <ele>136.8</ele>
        <time>2022-11-30T13:52:00Z</time>
      </trkpt>
      <trkpt lat="50.05593" lon="2.26637">
        <ele>136.8</ele>
        <time>2022-11-30T13:52:01Z</time>
      </trkpt>
      <trkpt lat="50.05593" lon="2.26633">
        <ele>136.8</ele>
        <time>2022-11-30T13:52:02Z</time>
      </trkpt>
      <trkpt lat="50.05592" lon="2.26632">
        <ele>136.8</ele>
        <time>2022-11-30T13:52:04Z</time>
      </trkpt>
      <trkpt lat="50.05592" lon="2.2663">
        <ele>136.8</ele>
        <time>2022-11-30T13:52:05Z</time>
      </trkpt>
      <trkpt lat="50.05592" lon="2.26628">
        <ele>136.7</ele>
        <time>2022-11-30T13:52:06Z</time>
      </trkpt>
      <trkpt lat="50.05591" lon="2.26626">
        <ele>136.7</ele>
        <time>2022-11-30T13:52:07Z</time>
      </trkpt>
      <trkpt lat="50.05591" lon="2.26625">
        <ele>136.7</ele>
        <time>2022-11-30T13:52:08Z</time>
      </trkpt>
      <trkpt lat="50.05591" lon="2.26623">
        <ele>136.7</ele>
        <time>2022-11-30T13:52:09Z</time>
      </trkpt>
      <trkpt lat="50.0559" lon="2.26621">
        <ele>136.7</ele>
        <time>2022-11-30T13:52:11Z</time>
      </trkpt>
      <trkpt lat="50.0559" lon="2.26619">
        <ele>136.7</ele>
        <time>2022-11-30T13:52:12Z</time>
      </trkpt>
      <trkpt lat="50.0559" lon="2.26618">
        <ele>136.7</ele>
        <time>2022-11-30T13:52:13Z</time>
      </trkpt>
      <trkpt lat="50.0559" lon="2.26616">
        <ele>136.6</ele>
        <time>2022-11-30T13:52:14Z</time>
      </trkpt>
      <trkpt lat="50.0559" lon="2.26614">
        <ele>136.6</ele>
        <time>2022-11-30T13:52:15Z</time>
      </trkpt>
      <trkpt lat="50.0559" lon="2.26613">
        <ele>136.6</ele>
        <time>2022-11-30T13:52:16Z</time>
      </trkpt>
      <trkpt lat="50.0559" lon="2.26612">
        <ele>136.6</ele>
        <time>2022-11-30T13:52:17Z</time>
      </trkpt>
      <trkpt lat="50.0559" lon="2.2661">
        <ele>136.6</ele>
        <time>2022-11-30T13:52:18Z</time>
      </trkpt>
      <trkpt lat="50.0559" lon="2.26609">
        <ele>136.6</ele>
        <time>2022-11-30T13:52:19Z</time>
      </trkpt>
      <trkpt lat="50.05589" lon="2.26607">
        <ele>136.6</ele>
        <time>2022-11-30T13:52:20Z</time>
      </trkpt>
      <trkpt lat="50.05589" lon="2.26605">
        <ele>136.6</ele>
        <time>2022-11-30T13:52:21Z</time>
      </trkpt>
      <trkpt lat="50.05589" lon="2.26603">
        <ele>136.6</ele>
        <time>2022-11-30T13:52:23Z</time>
      </trkpt>
      <trkpt lat="50.05589" lon="2.26602">
        <ele>136.6</ele>
        <time>2022-11-30T13:52:24Z</time>
      </trkpt>
      <trkpt lat="50.05589" lon="2.266">
        <ele>136.5</ele>
        <time>2022-11-30T13:52:25Z</time>
      </trkpt>
      <trkpt lat="50.05589" lon="2.26598">
        <ele>136.5</ele>
        <time>2022-11-30T13:52:26Z</time>
      </trkpt>
      <trkpt lat="50.05589" lon="2.26596">
        <ele>136.5</ele>
        <time>2022-11-30T13:52:27Z</time>
      </trkpt>
      <trkpt lat="50.05589" lon="2.26594">
        <ele>136.5</ele>
        <time>2022-11-30T13:52:29Z</time>
      </trkpt>
      <trkpt lat="50.05588" lon="2.26593">
        <ele>136.5</ele>
        <time>2022-11-30T13:52:30Z</time>
      </trkpt>
      <trkpt lat="50.05588" lon="2.26591">
        <ele>136.5</ele>
        <time>2022-11-30T13:52:31Z</time>
      </trkpt>
      <trkpt lat="50.05588" lon="2.2659">
        <ele>136.5</ele>
        <time>2022-11-30T13:52:32Z</time>
      </trkpt>
      <trkpt lat="50.05587" lon="2.26589">
        <ele>136.5</ele>
        <time>2022-11-30T13:52:33Z</time>
      </trkpt>
      <trkpt lat="50.05587" lon="2.26587">
        <ele>136.5</ele>
        <time>2022-11-30T13:52:34Z</time>
      </trkpt>
      <trkpt lat="50.05587" lon="2.26585">
        <ele>136.5</ele>
        <time>2022-11-30T13:52:35Z</time>
      </trkpt>
      <trkpt lat="50.05586" lon="2.26582">
        <ele>136.5</ele>
        <time>2022-11-30T13:52:36Z</time>
      </trkpt>
      <trkpt lat="50.05586" lon="2.26581">
        <ele>136.5</ele>
        <time>2022-11-30T13:52:38Z</time>
      </trkpt>
      <trkpt lat="50.05586" lon="2.26579">
        <ele>136.5</ele>
        <time>2022-11-30T13:52:39Z</time>
      </trkpt>
      <trkpt lat="50.05586" lon="2.26578">
        <ele>136.4</ele>
        <time>2022-11-30T13:52:40Z</time>
      </trkpt>
      <trkpt lat="50.05586" lon="2.26576">
        <ele>136.4</ele>
        <time>2022-11-30T13:52:41Z</time>
      </trkpt>
      <trkpt lat="50.05586" lon="2.26575">
        <ele>136.4</ele>
        <time>2022-11-30T13:52:42Z</time>
      </trkpt>
      <trkpt lat="50.05585" lon="2.26573">
        <ele>136.4</ele>
        <time>2022-11-30T13:52:43Z</time>
      </trkpt>
      <trkpt lat="50.05585" lon="2.26572">
        <ele>136.4</ele>
        <time>2022-11-30T13:52:44Z</time>
      </trkpt>
      <trkpt lat="50.05585" lon="2.2657">
        <ele>136.4</ele>
        <time>2022-11-30T13:52:45Z</time>
      </trkpt>
      <trkpt lat="50.05585" lon="2.26568">
        <ele>136.4</ele>
        <time>2022-11-30T13:52:47Z</time>
      </trkpt>
      <trkpt lat="50.05584" lon="2.26566">
        <ele>136.4</ele>
        <time>2022-11-30T13:52:48Z</time>
      </trkpt>
      <trkpt lat="50.05584" lon="2.26565">
        <ele>136.4</ele>
        <time>2022-11-30T13:52:49Z</time>
      </trkpt>
      <trkpt lat="50.05583" lon="2.26563">
        <ele>136.4</ele>
        <time>2022-11-30T13:52:50Z</time>
      </trkpt>
      <trkpt lat="50.05583" lon="2.26562">
        <ele>136.4</ele>
        <time>2022-11-30T13:52:51Z</time>
      </trkpt>
      <trkpt lat="50.05582" lon="2.2656">
        <ele>136.4</ele>
        <time>2022-11-30T13:52:52Z</time>
      </trkpt>
      <trkpt lat="50.05582" lon="2.26557">
        <ele>136.4</ele>
        <time>2022-11-30T13:52:53Z</time>
      </trkpt>
      <trkpt lat="50.05582" lon="2.26555">
        <ele>136.4</ele>
        <time>2022-11-30T13:52:55Z</time>
      </trkpt>
      <trkpt lat="50.05582" lon="2.26554">
        <ele>136.4</ele>
        <time>2022-11-30T13:52:56Z</time>
      </trkpt>
      <trkpt lat="50.05582" lon="2.26552">
        <ele>136.4</ele>
        <time>2022-11-30T13:52:57Z</time>
      </trkpt>
      <trkpt lat="50.05582" lon="2.2655">
        <ele>136.4</ele>
        <time>2022-11-30T13:52:58Z</time>
      </trkpt>
      <trkpt lat="50.05581" lon="2.26549">
        <ele>136.4</ele>
        <time>2022-11-30T13:52:59Z</time>
      </trkpt>
      <trkpt lat="50.05581" lon="2.26548">
        <ele>136.4</ele>
        <time>2022-11-30T13:53:00Z</time>
      </trkpt>
      <trkpt lat="50.05581" lon="2.26547">
        <ele>136.4</ele>
        <time>2022-11-30T13:53:01Z</time>
      </trkpt>
      <trkpt lat="50.05581" lon="2.26546">
        <ele>136.4</ele>
        <time>2022-11-30T13:53:02Z</time>
      </trkpt>
      <trkpt lat="50.05581" lon="2.26544">
        <ele>136.4</ele>
        <time>2022-11-30T13:53:03Z</time>
      </trkpt>
      <trkpt lat="50.05581" lon="2.26543">
        <ele>136.4</ele>
        <time>2022-11-30T13:53:04Z</time>
      </trkpt>
      <trkpt lat="50.0558" lon="2.26541">
        <ele>136.4</ele>
        <time>2022-11-30T13:53:05Z</time>
      </trkpt>
      <trkpt lat="50.0558" lon="2.26539">
        <ele>136.4</ele>
        <time>2022-11-30T13:53:06Z</time>
      </trkpt>
      <trkpt lat="50.0558" lon="2.26537">
        <ele>136.4</ele>
        <time>2022-11-30T13:53:07Z</time>
      </trkpt>
      <trkpt lat="50.0558" lon="2.26535">
        <ele>136.4</ele>
        <time>2022-11-30T13:53:08Z</time>
      </trkpt>
      <trkpt lat="50.0558" lon="2.26532">
        <ele>136.4</ele>
        <time>2022-11-30T13:53:09Z</time>
      </trkpt>
      <trkpt lat="50.0558" lon="2.2653">
        <ele>136.4</ele>
        <time>2022-11-30T13:53:10Z</time>
      </trkpt>
      <trkpt lat="50.0558" lon="2.26529">
        <ele>136.4</ele>
        <time>2022-11-30T13:53:11Z</time>
      </trkpt>
      <trkpt lat="50.0558" lon="2.26528">
        <ele>136.4</ele>
        <time>2022-11-30T13:53:13Z</time>
      </trkpt>
      <trkpt lat="50.0558" lon="2.26526">
        <ele>136.5</ele>
        <time>2022-11-30T13:53:14Z</time>
      </trkpt>
      <trkpt lat="50.0558" lon="2.26524">
        <ele>136.5</ele>
        <time>2022-11-30T13:53:15Z</time>
      </trkpt>
      <trkpt lat="50.0558" lon="2.26522">
        <ele>136.5</ele>
        <time>2022-11-30T13:53:16Z</time>
      </trkpt>
      <trkpt lat="50.0558" lon="2.26521">
        <ele>136.5</ele>
        <time>2022-11-30T13:53:17Z</time>
      </trkpt>
      <trkpt lat="50.05581" lon="2.26519">
        <ele>136.5</ele>
        <time>2022-11-30T13:53:19Z</time>
      </trkpt>
      <trkpt lat="50.05581" lon="2.26517">
        <ele>136.5</ele>
        <time>2022-11-30T13:53:20Z</time>
      </trkpt>
      <trkpt lat="50.05582" lon="2.26515">
        <ele>136.5</ele>
        <time>2022-11-30T13:53:21Z</time>
      </trkpt>
      <trkpt lat="50.05582" lon="2.26514">
        <ele>136.5</ele>
        <time>2022-11-30T13:53:22Z</time>
      </trkpt>
      <trkpt lat="50.05582" lon="2.26512">
        <ele>136.5</ele>
        <time>2022-11-30T13:53:23Z</time>
      </trkpt>
      <trkpt lat="50.05582" lon="2.26511">
        <ele>136.5</ele>
        <time>2022-11-30T13:53:24Z</time>
      </trkpt>
      <trkpt lat="50.05582" lon="2.26509">
        <ele>136.5</ele>
        <time>2022-11-30T13:53:25Z</time>
      </trkpt>
      <trkpt lat="50.05582" lon="2.26507">
        <ele>136.5</ele>
        <time>2022-11-30T13:53:26Z</time>
      </trkpt>
      <trkpt lat="50.05582" lon="2.26505">
        <ele>136.5</ele>
        <time>2022-11-30T13:53:28Z</time>
      </trkpt>
      <trkpt lat="50.05581" lon="2.26504">
        <ele>136.5</ele>
        <time>2022-11-30T13:53:29Z</time>
      </trkpt>
      <trkpt lat="50.05581" lon="2.26502">
        <ele>136.6</ele>
        <time>2022-11-30T13:53:30Z</time>
      </trkpt>
      <trkpt lat="50.0558" lon="2.26501">
        <ele>136.6</ele>
        <time>2022-11-30T13:53:31Z</time>
      </trkpt>
      <trkpt lat="50.0558" lon="2.265">
        <ele>136.6</ele>
        <time>2022-11-30T13:53:32Z</time>
      </trkpt>
      <trkpt lat="50.05579" lon="2.26499">
        <ele>136.6</ele>
        <time>2022-11-30T13:53:33Z</time>
      </trkpt>
      <trkpt lat="50.05579" lon="2.26498">
        <ele>136.6</ele>
        <time>2022-11-30T13:53:34Z</time>
      </trkpt>
      <trkpt lat="50.05579" lon="2.26497">
        <ele>136.6</ele>
        <time>2022-11-30T13:53:35Z</time>
      </trkpt>
      <trkpt lat="50.05579" lon="2.26495">
        <ele>136.6</ele>
        <time>2022-11-30T13:53:36Z</time>
      </trkpt>
      <trkpt lat="50.05579" lon="2.26494">
        <ele>136.6</ele>
        <time>2022-11-30T13:53:37Z</time>
      </trkpt>
      <trkpt lat="50.05579" lon="2.26493">
        <ele>136.6</ele>
        <time>2022-11-30T13:53:39Z</time>
      </trkpt>
      <trkpt lat="50.05578" lon="2.26492">
        <ele>136.6</ele>
        <time>2022-11-30T13:53:40Z</time>
      </trkpt>
      <trkpt lat="50.05579" lon="2.26491">
        <ele>136.6</ele>
        <time>2022-11-30T13:53:41Z</time>
      </trkpt>
      <trkpt lat="50.05579" lon="2.26489">
        <ele>136.7</ele>
        <time>2022-11-30T13:53:42Z</time>
      </trkpt>
      <trkpt lat="50.05579" lon="2.26487">
        <ele>136.7</ele>
        <time>2022-11-30T13:53:43Z</time>
      </trkpt>
      <trkpt lat="50.05578" lon="2.26486">
        <ele>136.7</ele>
        <time>2022-11-30T13:53:44Z</time>
      </trkpt>
      <trkpt lat="50.05578" lon="2.26483">
        <ele>136.7</ele>
        <time>2022-11-30T13:53:45Z</time>
      </trkpt>
      <trkpt lat="50.05578" lon="2.26482">
        <ele>136.7</ele>
        <time>2022-11-30T13:53:46Z</time>
      </trkpt>
      <trkpt lat="50.05578" lon="2.2648">
        <ele>136.7</ele>
        <time>2022-11-30T13:53:47Z</time>
      </trkpt>
      <trkpt lat="50.05578" lon="2.26479">
        <ele>136.7</ele>
        <time>2022-11-30T13:53:48Z</time>
      </trkpt>
      <trkpt lat="50.05578" lon="2.26477">
        <ele>136.7</ele>
        <time>2022-11-30T13:53:49Z</time>
      </trkpt>
      <trkpt lat="50.05578" lon="2.26475">
        <ele>136.8</ele>
        <time>2022-11-30T13:53:51Z</time>
      </trkpt>
      <trkpt lat="50.05577" lon="2.26473">
        <ele>136.8</ele>
        <time>2022-11-30T13:53:52Z</time>
      </trkpt>
      <trkpt lat="50.05577" lon="2.26472">
        <ele>136.8</ele>
        <time>2022-11-30T13:53:53Z</time>
      </trkpt>
      <trkpt lat="50.05577" lon="2.2647">
        <ele>136.8</ele>
        <time>2022-11-30T13:53:54Z</time>
      </trkpt>
      <trkpt lat="50.05577" lon="2.26469">
        <ele>136.8</ele>
        <time>2022-11-30T13:53:55Z</time>
      </trkpt>
      <trkpt lat="50.05577" lon="2.26466">
        <ele>136.8</ele>
        <time>2022-11-30T13:53:56Z</time>
      </trkpt>
      <trkpt lat="50.05577" lon="2.26464">
        <ele>136.8</ele>
        <time>2022-11-30T13:53:57Z</time>
      </trkpt>
      <trkpt lat="50.05577" lon="2.26462">
        <ele>136.9</ele>
        <time>2022-11-30T13:53:58Z</time>
      </trkpt>
      <trkpt lat="50.05577" lon="2.2646">
        <ele>136.9</ele>
        <time>2022-11-30T13:53:59Z</time>
      </trkpt>
      <trkpt lat="50.05577" lon="2.26457">
        <ele>136.9</ele>
        <time>2022-11-30T13:54:01Z</time>
      </trkpt>
      <trkpt lat="50.05577" lon="2.26455">
        <ele>136.9</ele>
        <time>2022-11-30T13:54:02Z</time>
      </trkpt>
      <trkpt lat="50.05577" lon="2.26454">
        <ele>136.9</ele>
        <time>2022-11-30T13:54:03Z</time>
      </trkpt>
      <trkpt lat="50.05577" lon="2.26452">
        <ele>136.9</ele>
        <time>2022-11-30T13:54:04Z</time>
      </trkpt>
      <trkpt lat="50.05577" lon="2.2645">
        <ele>136.9</ele>
        <time>2022-11-30T13:54:05Z</time>
      </trkpt>
      <trkpt lat="50.05577" lon="2.26449">
        <ele>136.9</ele>
        <time>2022-11-30T13:54:06Z</time>
      </trkpt>
      <trkpt lat="50.05577" lon="2.26446">
        <ele>137</ele>
        <time>2022-11-30T13:54:07Z</time>
      </trkpt>
      <trkpt lat="50.05577" lon="2.26444">
        <ele>137</ele>
        <time>2022-11-30T13:54:08Z</time>
      </trkpt>
      <trkpt lat="50.05577" lon="2.26441">
        <ele>137</ele>
        <time>2022-11-30T13:54:09Z</time>
      </trkpt>
      <trkpt lat="50.05578" lon="2.2644">
        <ele>137</ele>
        <time>2022-11-30T13:54:11Z</time>
      </trkpt>
      <trkpt lat="50.05578" lon="2.26438">
        <ele>137</ele>
        <time>2022-11-30T13:54:12Z</time>
      </trkpt>
      <trkpt lat="50.05578" lon="2.26436">
        <ele>137</ele>
        <time>2022-11-30T13:54:13Z</time>
      </trkpt>
      <trkpt lat="50.05578" lon="2.26435">
        <ele>137</ele>
        <time>2022-11-30T13:54:14Z</time>
      </trkpt>
      <trkpt lat="50.05578" lon="2.26433">
        <ele>137</ele>
        <time>2022-11-30T13:54:15Z</time>
      </trkpt>
      <trkpt lat="50.05578" lon="2.26432">
        <ele>137</ele>
        <time>2022-11-30T13:54:16Z</time>
      </trkpt>
      <trkpt lat="50.05577" lon="2.2643">
        <ele>137</ele>
        <time>2022-11-30T13:54:18Z</time>
      </trkpt>
      <trkpt lat="50.05577" lon="2.26428">
        <ele>137</ele>
        <time>2022-11-30T13:54:19Z</time>
      </trkpt>
      <trkpt lat="50.05577" lon="2.26426">
        <ele>137</ele>
        <time>2022-11-30T13:54:20Z</time>
      </trkpt>
      <trkpt lat="50.05577" lon="2.26425">
        <ele>137</ele>
        <time>2022-11-30T13:54:21Z</time>
      </trkpt>
      <trkpt lat="50.05577" lon="2.26423">
        <ele>137.1</ele>
        <time>2022-11-30T13:54:22Z</time>
      </trkpt>
      <trkpt lat="50.05577" lon="2.26421">
        <ele>137.1</ele>
        <time>2022-11-30T13:54:23Z</time>
      </trkpt>
      <trkpt lat="50.05577" lon="2.26419">
        <ele>137.1</ele>
        <time>2022-11-30T13:54:24Z</time>
      </trkpt>
      <trkpt lat="50.05577" lon="2.26418">
        <ele>137.1</ele>
        <time>2022-11-30T13:54:26Z</time>
      </trkpt>
      <trkpt lat="50.05576" lon="2.26416">
        <ele>137.1</ele>
        <time>2022-11-30T13:54:27Z</time>
      </trkpt>
      <trkpt lat="50.05576" lon="2.26414">
        <ele>137.1</ele>
        <time>2022-11-30T13:54:28Z</time>
      </trkpt>
      <trkpt lat="50.05576" lon="2.26412">
        <ele>137.1</ele>
        <time>2022-11-30T13:54:29Z</time>
      </trkpt>
      <trkpt lat="50.05576" lon="2.26411">
        <ele>137.1</ele>
        <time>2022-11-30T13:54:30Z</time>
      </trkpt>
      <trkpt lat="50.05576" lon="2.2641">
        <ele>137.1</ele>
        <time>2022-11-30T13:54:31Z</time>
      </trkpt>
      <trkpt lat="50.05576" lon="2.26408">
        <ele>137.1</ele>
        <time>2022-11-30T13:54:32Z</time>
      </trkpt>
      <trkpt lat="50.05575" lon="2.26404">
        <ele>137.1</ele>
        <time>2022-11-30T13:54:33Z</time>
      </trkpt>
      <trkpt lat="50.05575" lon="2.26403">
        <ele>137.1</ele>
        <time>2022-11-30T13:54:35Z</time>
      </trkpt>
      <trkpt lat="50.05575" lon="2.26402">
        <ele>137.1</ele>
        <time>2022-11-30T13:54:36Z</time>
      </trkpt>
      <trkpt lat="50.05575" lon="2.264">
        <ele>137.1</ele>
        <time>2022-11-30T13:54:37Z</time>
      </trkpt>
      <trkpt lat="50.05574" lon="2.26398">
        <ele>137.1</ele>
        <time>2022-11-30T13:54:38Z</time>
      </trkpt>
      <trkpt lat="50.05574" lon="2.26396">
        <ele>137.2</ele>
        <time>2022-11-30T13:54:39Z</time>
      </trkpt>
      <trkpt lat="50.05573" lon="2.26395">
        <ele>137.2</ele>
        <time>2022-11-30T13:54:40Z</time>
      </trkpt>
      <trkpt lat="50.05573" lon="2.26392">
        <ele>137.2</ele>
        <time>2022-11-30T13:54:41Z</time>
      </trkpt>
      <trkpt lat="50.05573" lon="2.2639">
        <ele>137.2</ele>
        <time>2022-11-30T13:54:42Z</time>
      </trkpt>
      <trkpt lat="50.05573" lon="2.26388">
        <ele>137.2</ele>
        <time>2022-11-30T13:54:43Z</time>
      </trkpt>
      <trkpt lat="50.05573" lon="2.26384">
        <ele>137.2</ele>
        <time>2022-11-30T13:54:44Z</time>
      </trkpt>
      <trkpt lat="50.05574" lon="2.26383">
        <ele>137.2</ele>
        <time>2022-11-30T13:54:46Z</time>
      </trkpt>
      <trkpt lat="50.05574" lon="2.26381">
        <ele>137.2</ele>
        <time>2022-11-30T13:54:47Z</time>
      </trkpt>
      <trkpt lat="50.05574" lon="2.26378">
        <ele>137.2</ele>
        <time>2022-11-30T13:54:48Z</time>
      </trkpt>
      <trkpt lat="50.05574" lon="2.26377">
        <ele>137.2</ele>
        <time>2022-11-30T13:54:49Z</time>
      </trkpt>
      <trkpt lat="50.05574" lon="2.26376">
        <ele>137.2</ele>
        <time>2022-11-30T13:54:50Z</time>
      </trkpt>
      <trkpt lat="50.05573" lon="2.26374">
        <ele>137.2</ele>
        <time>2022-11-30T13:54:51Z</time>
      </trkpt>
      <trkpt lat="50.05573" lon="2.26371">
        <ele>137.2</ele>
        <time>2022-11-30T13:54:53Z</time>
      </trkpt>
      <trkpt lat="50.05573" lon="2.26369">
        <ele>137.2</ele>
        <time>2022-11-30T13:54:54Z</time>
      </trkpt>
      <trkpt lat="50.05573" lon="2.26367">
        <ele>137.2</ele>
        <time>2022-11-30T13:54:55Z</time>
      </trkpt>
      <trkpt lat="50.05573" lon="2.26365">
        <ele>137.2</ele>
        <time>2022-11-30T13:54:56Z</time>
      </trkpt>
      <trkpt lat="50.05573" lon="2.26363">
        <ele>137.2</ele>
        <time>2022-11-30T13:54:57Z</time>
      </trkpt>
      <trkpt lat="50.05573" lon="2.26361">
        <ele>137.2</ele>
        <time>2022-11-30T13:54:58Z</time>
      </trkpt>
      <trkpt lat="50.05572" lon="2.26359">
        <ele>137.2</ele>
        <time>2022-11-30T13:55:00Z</time>
      </trkpt>
      <trkpt lat="50.05572" lon="2.26357">
        <ele>137.2</ele>
        <time>2022-11-30T13:55:01Z</time>
      </trkpt>
      <trkpt lat="50.05572" lon="2.26355">
        <ele>137.2</ele>
        <time>2022-11-30T13:55:02Z</time>
      </trkpt>
      <trkpt lat="50.05572" lon="2.26354">
        <ele>137.2</ele>
        <time>2022-11-30T13:55:03Z</time>
      </trkpt>
      <trkpt lat="50.05572" lon="2.26352">
        <ele>137.2</ele>
        <time>2022-11-30T13:55:04Z</time>
      </trkpt>
      <trkpt lat="50.05571" lon="2.2635">
        <ele>137.2</ele>
        <time>2022-11-30T13:55:05Z</time>
      </trkpt>
      <trkpt lat="50.05571" lon="2.26349">
        <ele>137.2</ele>
        <time>2022-11-30T13:55:06Z</time>
      </trkpt>
      <trkpt lat="50.05571" lon="2.26347">
        <ele>137.2</ele>
        <time>2022-11-30T13:55:07Z</time>
      </trkpt>
      <trkpt lat="50.05571" lon="2.26346">
        <ele>137.2</ele>
        <time>2022-11-30T13:55:09Z</time>
      </trkpt>
      <trkpt lat="50.05571" lon="2.26344">
        <ele>137.2</ele>
        <time>2022-11-30T13:55:10Z</time>
      </trkpt>
      <trkpt lat="50.05571" lon="2.26342">
        <ele>137.2</ele>
        <time>2022-11-30T13:55:11Z</time>
      </trkpt>
      <trkpt lat="50.05571" lon="2.2634">
        <ele>137.2</ele>
        <time>2022-11-30T13:55:12Z</time>
      </trkpt>
      <trkpt lat="50.05571" lon="2.26338">
        <ele>137.2</ele>
        <time>2022-11-30T13:55:13Z</time>
      </trkpt>
      <trkpt lat="50.05572" lon="2.26337">
        <ele>137.2</ele>
        <time>2022-11-30T13:55:14Z</time>
      </trkpt>
      <trkpt lat="50.05571" lon="2.26335">
        <ele>137.2</ele>
        <time>2022-11-30T13:55:15Z</time>
      </trkpt>
      <trkpt lat="50.05572" lon="2.26333">
        <ele>137.2</ele>
        <time>2022-11-30T13:55:16Z</time>
      </trkpt>
      <trkpt lat="50.05572" lon="2.26332">
        <ele>137.2</ele>
        <time>2022-11-30T13:55:18Z</time>
      </trkpt>
      <trkpt lat="50.05572" lon="2.26331">
        <ele>137.2</ele>
        <time>2022-11-30T13:55:19Z</time>
      </trkpt>
      <trkpt lat="50.05572" lon="2.2633">
        <ele>137.2</ele>
        <time>2022-11-30T13:55:20Z</time>
      </trkpt>
      <trkpt lat="50.05572" lon="2.26328">
        <ele>137.2</ele>
        <time>2022-11-30T13:55:21Z</time>
      </trkpt>
      <trkpt lat="50.05572" lon="2.26325">
        <ele>137.2</ele>
        <time>2022-11-30T13:55:23Z</time>
      </trkpt>
      <trkpt lat="50.05572" lon="2.26323">
        <ele>137.2</ele>
        <time>2022-11-30T13:55:24Z</time>
      </trkpt>
      <trkpt lat="50.05572" lon="2.26321">
        <ele>137.2</ele>
        <time>2022-11-30T13:55:25Z</time>
      </trkpt>
      <trkpt lat="50.05572" lon="2.2632">
        <ele>137.2</ele>
        <time>2022-11-30T13:55:26Z</time>
      </trkpt>
      <trkpt lat="50.05572" lon="2.26318">
        <ele>137.2</ele>
        <time>2022-11-30T13:55:27Z</time>
      </trkpt>
      <trkpt lat="50.05572" lon="2.26317">
        <ele>137.2</ele>
        <time>2022-11-30T13:55:28Z</time>
      </trkpt>
      <trkpt lat="50.05572" lon="2.26315">
        <ele>137.2</ele>
        <time>2022-11-30T13:55:29Z</time>
      </trkpt>
      <trkpt lat="50.05572" lon="2.26314">
        <ele>137.2</ele>
        <time>2022-11-30T13:55:30Z</time>
      </trkpt>
      <trkpt lat="50.05572" lon="2.26312">
        <ele>137.2</ele>
        <time>2022-11-30T13:55:31Z</time>
      </trkpt>
      <trkpt lat="50.05572" lon="2.2631">
        <ele>137.2</ele>
        <time>2022-11-30T13:55:32Z</time>
      </trkpt>
      <trkpt lat="50.05572" lon="2.26308">
        <ele>137.2</ele>
        <time>2022-11-30T13:55:33Z</time>
      </trkpt>
      <trkpt lat="50.05571" lon="2.26306">
        <ele>137.2</ele>
        <time>2022-11-30T13:55:35Z</time>
      </trkpt>
      <trkpt lat="50.05571" lon="2.26305">
        <ele>137.2</ele>
        <time>2022-11-30T13:55:36Z</time>
      </trkpt>
      <trkpt lat="50.05571" lon="2.26303">
        <ele>137.2</ele>
        <time>2022-11-30T13:55:37Z</time>
      </trkpt>
      <trkpt lat="50.05571" lon="2.26302">
        <ele>137.2</ele>
        <time>2022-11-30T13:55:38Z</time>
      </trkpt>
      <trkpt lat="50.05571" lon="2.263">
        <ele>137.2</ele>
        <time>2022-11-30T13:55:39Z</time>
      </trkpt>
      <trkpt lat="50.05571" lon="2.26298">
        <ele>137.3</ele>
        <time>2022-11-30T13:55:40Z</time>
      </trkpt>
      <trkpt lat="50.05571" lon="2.26296">
        <ele>137.3</ele>
        <time>2022-11-30T13:55:41Z</time>
      </trkpt>
      <trkpt lat="50.05571" lon="2.26293">
        <ele>137.3</ele>
        <time>2022-11-30T13:55:43Z</time>
      </trkpt>
      <trkpt lat="50.05571" lon="2.2629">
        <ele>137.3</ele>
        <time>2022-11-30T13:55:44Z</time>
      </trkpt>
      <trkpt lat="50.05571" lon="2.26289">
        <ele>137.3</ele>
        <time>2022-11-30T13:55:45Z</time>
      </trkpt>
      <trkpt lat="50.05571" lon="2.26287">
        <ele>137.3</ele>
        <time>2022-11-30T13:55:46Z</time>
      </trkpt>
      <trkpt lat="50.0557" lon="2.26285">
        <ele>137.3</ele>
        <time>2022-11-30T13:55:47Z</time>
      </trkpt>
      <trkpt lat="50.0557" lon="2.26283">
        <ele>137.3</ele>
        <time>2022-11-30T13:55:48Z</time>
      </trkpt>
      <trkpt lat="50.0557" lon="2.2628">
        <ele>137.3</ele>
        <time>2022-11-30T13:55:49Z</time>
      </trkpt>
      <trkpt lat="50.05569" lon="2.26278">
        <ele>137.3</ele>
        <time>2022-11-30T13:55:51Z</time>
      </trkpt>
      <trkpt lat="50.05569" lon="2.26277">
        <ele>137.3</ele>
        <time>2022-11-30T13:55:52Z</time>
      </trkpt>
      <trkpt lat="50.05569" lon="2.26274">
        <ele>137.3</ele>
        <time>2022-11-30T13:55:53Z</time>
      </trkpt>
      <trkpt lat="50.05568" lon="2.26273">
        <ele>137.3</ele>
        <time>2022-11-30T13:55:54Z</time>
      </trkpt>
      <trkpt lat="50.05568" lon="2.26271">
        <ele>137.3</ele>
        <time>2022-11-30T13:55:55Z</time>
      </trkpt>
      <trkpt lat="50.05568" lon="2.26269">
        <ele>137.3</ele>
        <time>2022-11-30T13:55:56Z</time>
      </trkpt>
      <trkpt lat="50.05567" lon="2.26268">
        <ele>137.3</ele>
        <time>2022-11-30T13:55:57Z</time>
      </trkpt>
      <trkpt lat="50.05567" lon="2.26266">
        <ele>137.3</ele>
        <time>2022-11-30T13:55:58Z</time>
      </trkpt>
      <trkpt lat="50.05567" lon="2.26265">
        <ele>137.3</ele>
        <time>2022-11-30T13:56:00Z</time>
      </trkpt>
      <trkpt lat="50.05567" lon="2.26263">
        <ele>137.3</ele>
        <time>2022-11-30T13:56:01Z</time>
      </trkpt>
      <trkpt lat="50.05566" lon="2.26262">
        <ele>137.3</ele>
        <time>2022-11-30T13:56:02Z</time>
      </trkpt>
      <trkpt lat="50.05566" lon="2.2626">
        <ele>137.3</ele>
        <time>2022-11-30T13:56:03Z</time>
      </trkpt>
      <trkpt lat="50.05566" lon="2.26259">
        <ele>137.3</ele>
        <time>2022-11-30T13:56:04Z</time>
      </trkpt>
      <trkpt lat="50.05565" lon="2.26257">
        <ele>137.3</ele>
        <time>2022-11-30T13:56:05Z</time>
      </trkpt>
      <trkpt lat="50.05565" lon="2.26256">
        <ele>137.3</ele>
        <time>2022-11-30T13:56:06Z</time>
      </trkpt>
      <trkpt lat="50.05565" lon="2.26254">
        <ele>137.3</ele>
        <time>2022-11-30T13:56:07Z</time>
      </trkpt>
      <trkpt lat="50.05565" lon="2.26253">
        <ele>137.3</ele>
        <time>2022-11-30T13:56:08Z</time>
      </trkpt>
      <trkpt lat="50.05564" lon="2.26252">
        <ele>137.3</ele>
        <time>2022-11-30T13:56:10Z</time>
      </trkpt>
      <trkpt lat="50.05564" lon="2.2625">
        <ele>137.3</ele>
        <time>2022-11-30T13:56:11Z</time>
      </trkpt>
      <trkpt lat="50.05564" lon="2.26249">
        <ele>137.3</ele>
        <time>2022-11-30T13:56:12Z</time>
      </trkpt>
      <trkpt lat="50.05563" lon="2.26248">
        <ele>137.3</ele>
        <time>2022-11-30T13:56:13Z</time>
      </trkpt>
      <trkpt lat="50.05562" lon="2.26245">
        <ele>137.3</ele>
        <time>2022-11-30T13:56:14Z</time>
      </trkpt>
      <trkpt lat="50.05562" lon="2.26244">
        <ele>137.3</ele>
        <time>2022-11-30T13:56:15Z</time>
      </trkpt>
      <trkpt lat="50.05562" lon="2.26243">
        <ele>137.3</ele>
        <time>2022-11-30T13:56:16Z</time>
      </trkpt>
      <trkpt lat="50.05561" lon="2.26241">
        <ele>137.3</ele>
        <time>2022-11-30T13:56:17Z</time>
      </trkpt>
      <trkpt lat="50.05561" lon="2.26239">
        <ele>137.3</ele>
        <time>2022-11-30T13:56:18Z</time>
      </trkpt>
      <trkpt lat="50.05561" lon="2.26236">
        <ele>137.3</ele>
        <time>2022-11-30T13:56:20Z</time>
      </trkpt>
      <trkpt lat="50.0556" lon="2.26233">
        <ele>137.3</ele>
        <time>2022-11-30T13:56:21Z</time>
      </trkpt>
      <trkpt lat="50.0556" lon="2.26232">
        <ele>137.3</ele>
        <time>2022-11-30T13:56:22Z</time>
      </trkpt>
      <trkpt lat="50.0556" lon="2.26231">
        <ele>137.3</ele>
        <time>2022-11-30T13:56:23Z</time>
      </trkpt>
      <trkpt lat="50.05559" lon="2.26227">
        <ele>137.3</ele>
        <time>2022-11-30T13:56:24Z</time>
      </trkpt>
      <trkpt lat="50.05559" lon="2.26226">
        <ele>137.3</ele>
        <time>2022-11-30T13:56:25Z</time>
      </trkpt>
      <trkpt lat="50.05559" lon="2.26225">
        <ele>137.3</ele>
        <time>2022-11-30T13:56:26Z</time>
      </trkpt>
      <trkpt lat="50.05558" lon="2.26223">
        <ele>137.3</ele>
        <time>2022-11-30T13:56:28Z</time>
      </trkpt>
      <trkpt lat="50.05558" lon="2.26221">
        <ele>137.2</ele>
        <time>2022-11-30T13:56:29Z</time>
      </trkpt>
      <trkpt lat="50.05557" lon="2.26219">
        <ele>137.2</ele>
        <time>2022-11-30T13:56:30Z</time>
      </trkpt>
      <trkpt lat="50.05557" lon="2.26217">
        <ele>137.2</ele>
        <time>2022-11-30T13:56:31Z</time>
      </trkpt>
      <trkpt lat="50.05557" lon="2.26216">
        <ele>137.2</ele>
        <time>2022-11-30T13:56:32Z</time>
      </trkpt>
      <trkpt lat="50.05556" lon="2.26213">
        <ele>137.2</ele>
        <time>2022-11-30T13:56:33Z</time>
      </trkpt>
      <trkpt lat="50.05556" lon="2.26212">
        <ele>137.2</ele>
        <time>2022-11-30T13:56:35Z</time>
      </trkpt>
      <trkpt lat="50.05556" lon="2.2621">
        <ele>137.2</ele>
        <time>2022-11-30T13:56:36Z</time>
      </trkpt>
      <trkpt lat="50.05555" lon="2.26209">
        <ele>137.2</ele>
        <time>2022-11-30T13:56:37Z</time>
      </trkpt>
      <trkpt lat="50.05555" lon="2.26207">
        <ele>137.2</ele>
        <time>2022-11-30T13:56:38Z</time>
      </trkpt>
      <trkpt lat="50.05554" lon="2.26206">
        <ele>137.2</ele>
        <time>2022-11-30T13:56:39Z</time>
      </trkpt>
      <trkpt lat="50.05553" lon="2.26203">
        <ele>137.2</ele>
        <time>2022-11-30T13:56:40Z</time>
      </trkpt>
      <trkpt lat="50.05553" lon="2.26202">
        <ele>137.2</ele>
        <time>2022-11-30T13:56:41Z</time>
      </trkpt>
      <trkpt lat="50.05552" lon="2.262">
        <ele>137.2</ele>
        <time>2022-11-30T13:56:42Z</time>
      </trkpt>
      <trkpt lat="50.05552" lon="2.26199">
        <ele>137.2</ele>
        <time>2022-11-30T13:56:43Z</time>
      </trkpt>
      <trkpt lat="50.05551" lon="2.26197">
        <ele>137.2</ele>
        <time>2022-11-30T13:56:44Z</time>
      </trkpt>
      <trkpt lat="50.05551" lon="2.26196">
        <ele>137.2</ele>
        <time>2022-11-30T13:56:45Z</time>
      </trkpt>
      <trkpt lat="50.05551" lon="2.26194">
        <ele>137.2</ele>
        <time>2022-11-30T13:56:47Z</time>
      </trkpt>
      <trkpt lat="50.0555" lon="2.26192">
        <ele>137.2</ele>
        <time>2022-11-30T13:56:48Z</time>
      </trkpt>
      <trkpt lat="50.0555" lon="2.26191">
        <ele>137.2</ele>
        <time>2022-11-30T13:56:49Z</time>
      </trkpt>
      <trkpt lat="50.05549" lon="2.26189">
        <ele>137.2</ele>
        <time>2022-11-30T13:56:50Z</time>
      </trkpt>
      <trkpt lat="50.05549" lon="2.26187">
        <ele>137.2</ele>
        <time>2022-11-30T13:56:52Z</time>
      </trkpt>
      <trkpt lat="50.05548" lon="2.26185">
        <ele>137.2</ele>
        <time>2022-11-30T13:56:53Z</time>
      </trkpt>
      <trkpt lat="50.05548" lon="2.26183">
        <ele>137.2</ele>
        <time>2022-11-30T13:56:54Z</time>
      </trkpt>
      <trkpt lat="50.05547" lon="2.26182">
        <ele>137.2</ele>
        <time>2022-11-30T13:56:55Z</time>
      </trkpt>
      <trkpt lat="50.05546" lon="2.2618">
        <ele>137.2</ele>
        <time>2022-11-30T13:56:56Z</time>
      </trkpt>
      <trkpt lat="50.05546" lon="2.26179">
        <ele>137.2</ele>
        <time>2022-11-30T13:56:57Z</time>
      </trkpt>
      <trkpt lat="50.05545" lon="2.26178">
        <ele>137.2</ele>
        <time>2022-11-30T13:56:58Z</time>
      </trkpt>
      <trkpt lat="50.05545" lon="2.26177">
        <ele>137.2</ele>
        <time>2022-11-30T13:56:59Z</time>
      </trkpt>
      <trkpt lat="50.05545" lon="2.26176">
        <ele>137.2</ele>
        <time>2022-11-30T13:57:00Z</time>
      </trkpt>
      <trkpt lat="50.05544" lon="2.26174">
        <ele>137.2</ele>
        <time>2022-11-30T13:57:01Z</time>
      </trkpt>
      <trkpt lat="50.05544" lon="2.26173">
        <ele>137.2</ele>
        <time>2022-11-30T13:57:02Z</time>
      </trkpt>
      <trkpt lat="50.05543" lon="2.26171">
        <ele>137.2</ele>
        <time>2022-11-30T13:57:03Z</time>
      </trkpt>
      <trkpt lat="50.05543" lon="2.2617">
        <ele>137.2</ele>
        <time>2022-11-30T13:57:04Z</time>
      </trkpt>
      <trkpt lat="50.05542" lon="2.26168">
        <ele>137.2</ele>
        <time>2022-11-30T13:57:05Z</time>
      </trkpt>
      <trkpt lat="50.05542" lon="2.26166">
        <ele>137.2</ele>
        <time>2022-11-30T13:57:06Z</time>
      </trkpt>
      <trkpt lat="50.05542" lon="2.26163">
        <ele>137.2</ele>
        <time>2022-11-30T13:57:08Z</time>
      </trkpt>
      <trkpt lat="50.05541" lon="2.26161">
        <ele>137.2</ele>
        <time>2022-11-30T13:57:09Z</time>
      </trkpt>
      <trkpt lat="50.05541" lon="2.2616">
        <ele>137.2</ele>
        <time>2022-11-30T13:57:10Z</time>
      </trkpt>
      <trkpt lat="50.05541" lon="2.26159">
        <ele>137.1</ele>
        <time>2022-11-30T13:57:11Z</time>
      </trkpt>
      <trkpt lat="50.05541" lon="2.26158">
        <ele>137.1</ele>
        <time>2022-11-30T13:57:12Z</time>
      </trkpt>
      <trkpt lat="50.0554" lon="2.26156">
        <ele>137.1</ele>
        <time>2022-11-30T13:57:13Z</time>
      </trkpt>
      <trkpt lat="50.0554" lon="2.26155">
        <ele>137.1</ele>
        <time>2022-11-30T13:57:14Z</time>
      </trkpt>
      <trkpt lat="50.05539" lon="2.26153">
        <ele>137.1</ele>
        <time>2022-11-30T13:57:15Z</time>
      </trkpt>
      <trkpt lat="50.05539" lon="2.26151">
        <ele>137.1</ele>
        <time>2022-11-30T13:57:17Z</time>
      </trkpt>
      <trkpt lat="50.05538" lon="2.2615">
        <ele>137.1</ele>
        <time>2022-11-30T13:57:18Z</time>
      </trkpt>
      <trkpt lat="50.05538" lon="2.26148">
        <ele>137.1</ele>
        <time>2022-11-30T13:57:19Z</time>
      </trkpt>
      <trkpt lat="50.05537" lon="2.26147">
        <ele>137.1</ele>
        <time>2022-11-30T13:57:20Z</time>
      </trkpt>
      <trkpt lat="50.05537" lon="2.26146">
        <ele>137.1</ele>
        <time>2022-11-30T13:57:21Z</time>
      </trkpt>
      <trkpt lat="50.05537" lon="2.26144">
        <ele>137.1</ele>
        <time>2022-11-30T13:57:22Z</time>
      </trkpt>
      <trkpt lat="50.05537" lon="2.26143">
        <ele>137.1</ele>
        <time>2022-11-30T13:57:23Z</time>
      </trkpt>
      <trkpt lat="50.05536" lon="2.26141">
        <ele>137.1</ele>
        <time>2022-11-30T13:57:24Z</time>
      </trkpt>
      <trkpt lat="50.05536" lon="2.26138">
        <ele>137</ele>
        <time>2022-11-30T13:57:25Z</time>
      </trkpt>
      <trkpt lat="50.05535" lon="2.26137">
        <ele>137</ele>
        <time>2022-11-30T13:57:26Z</time>
      </trkpt>
      <trkpt lat="50.05535" lon="2.26135">
        <ele>137</ele>
        <time>2022-11-30T13:57:27Z</time>
      </trkpt>
      <trkpt lat="50.05534" lon="2.26133">
        <ele>137</ele>
        <time>2022-11-30T13:57:29Z</time>
      </trkpt>
      <trkpt lat="50.05533" lon="2.26132">
        <ele>137</ele>
        <time>2022-11-30T13:57:30Z</time>
      </trkpt>
      <trkpt lat="50.05533" lon="2.26131">
        <ele>137</ele>
        <time>2022-11-30T13:57:31Z</time>
      </trkpt>
      <trkpt lat="50.05531" lon="2.2613">
        <ele>137</ele>
        <time>2022-11-30T13:57:32Z</time>
      </trkpt>
      <trkpt lat="50.0553" lon="2.2613">
        <ele>136.9</ele>
        <time>2022-11-30T13:57:33Z</time>
      </trkpt>
      <trkpt lat="50.0553" lon="2.26128">
        <ele>136.9</ele>
        <time>2022-11-30T13:57:34Z</time>
      </trkpt>
      <trkpt lat="50.05528" lon="2.26125">
        <ele>136.9</ele>
        <time>2022-11-30T13:57:35Z</time>
      </trkpt>
      <trkpt lat="50.05528" lon="2.26124">
        <ele>136.9</ele>
        <time>2022-11-30T13:57:36Z</time>
      </trkpt>
      <trkpt lat="50.05527" lon="2.26123">
        <ele>136.9</ele>
        <time>2022-11-30T13:57:37Z</time>
      </trkpt>
      <trkpt lat="50.05527" lon="2.26122">
        <ele>136.9</ele>
        <time>2022-11-30T13:57:38Z</time>
      </trkpt>
      <trkpt lat="50.05526" lon="2.2612">
        <ele>136.8</ele>
        <time>2022-11-30T13:57:39Z</time>
      </trkpt>
      <trkpt lat="50.05526" lon="2.26118">
        <ele>136.8</ele>
        <time>2022-11-30T13:57:40Z</time>
      </trkpt>
      <trkpt lat="50.05525" lon="2.26115">
        <ele>136.8</ele>
        <time>2022-11-30T13:57:42Z</time>
      </trkpt>
      <trkpt lat="50.05525" lon="2.26113">
        <ele>136.8</ele>
        <time>2022-11-30T13:57:43Z</time>
      </trkpt>
      <trkpt lat="50.05525" lon="2.26112">
        <ele>136.8</ele>
        <time>2022-11-30T13:57:44Z</time>
      </trkpt>
      <trkpt lat="50.05524" lon="2.26109">
        <ele>136.8</ele>
        <time>2022-11-30T13:57:45Z</time>
      </trkpt>
      <trkpt lat="50.05524" lon="2.26108">
        <ele>136.7</ele>
        <time>2022-11-30T13:57:46Z</time>
      </trkpt>
      <trkpt lat="50.05524" lon="2.26107">
        <ele>136.7</ele>
        <time>2022-11-30T13:57:47Z</time>
      </trkpt>
      <trkpt lat="50.05523" lon="2.26105">
        <ele>136.7</ele>
        <time>2022-11-30T13:57:49Z</time>
      </trkpt>
      <trkpt lat="50.05523" lon="2.26104">
        <ele>136.7</ele>
        <time>2022-11-30T13:57:50Z</time>
      </trkpt>
      <trkpt lat="50.05522" lon="2.26102">
        <ele>136.7</ele>
        <time>2022-11-30T13:57:51Z</time>
      </trkpt>
      <trkpt lat="50.05522" lon="2.26101">
        <ele>136.7</ele>
        <time>2022-11-30T13:57:52Z</time>
      </trkpt>
      <trkpt lat="50.05522" lon="2.26099">
        <ele>136.6</ele>
        <time>2022-11-30T13:57:53Z</time>
      </trkpt>
      <trkpt lat="50.05522" lon="2.26098">
        <ele>136.6</ele>
        <time>2022-11-30T13:57:54Z</time>
      </trkpt>
      <trkpt lat="50.05521" lon="2.26096">
        <ele>136.6</ele>
        <time>2022-11-30T13:57:55Z</time>
      </trkpt>
      <trkpt lat="50.05521" lon="2.26094">
        <ele>136.6</ele>
        <time>2022-11-30T13:57:56Z</time>
      </trkpt>
      <trkpt lat="50.05521" lon="2.26093">
        <ele>136.6</ele>
        <time>2022-11-30T13:57:57Z</time>
      </trkpt>
      <trkpt lat="50.0552" lon="2.2609">
        <ele>136.6</ele>
        <time>2022-11-30T13:57:58Z</time>
      </trkpt>
      <trkpt lat="50.0552" lon="2.26089">
        <ele>136.6</ele>
        <time>2022-11-30T13:57:59Z</time>
      </trkpt>
      <trkpt lat="50.0552" lon="2.26087">
        <ele>136.6</ele>
        <time>2022-11-30T13:58:01Z</time>
      </trkpt>
      <trkpt lat="50.05519" lon="2.26086">
        <ele>136.6</ele>
        <time>2022-11-30T13:58:02Z</time>
      </trkpt>
      <trkpt lat="50.05519" lon="2.26085">
        <ele>136.6</ele>
        <time>2022-11-30T13:58:03Z</time>
      </trkpt>
      <trkpt lat="50.05519" lon="2.26083">
        <ele>136.6</ele>
        <time>2022-11-30T13:58:04Z</time>
      </trkpt>
      <trkpt lat="50.05518" lon="2.26081">
        <ele>136.5</ele>
        <time>2022-11-30T13:58:05Z</time>
      </trkpt>
      <trkpt lat="50.05518" lon="2.2608">
        <ele>136.5</ele>
        <time>2022-11-30T13:58:07Z</time>
      </trkpt>
      <trkpt lat="50.05518" lon="2.26078">
        <ele>136.5</ele>
        <time>2022-11-30T13:58:08Z</time>
      </trkpt>
      <trkpt lat="50.05517" lon="2.26077">
        <ele>136.5</ele>
        <time>2022-11-30T13:58:09Z</time>
      </trkpt>
      <trkpt lat="50.05517" lon="2.26075">
        <ele>136.5</ele>
        <time>2022-11-30T13:58:10Z</time>
      </trkpt>
      <trkpt lat="50.05517" lon="2.26074">
        <ele>136.5</ele>
        <time>2022-11-30T13:58:11Z</time>
      </trkpt>
      <trkpt lat="50.05516" lon="2.26071">
        <ele>136.5</ele>
        <time>2022-11-30T13:58:12Z</time>
      </trkpt>
      <trkpt lat="50.05515" lon="2.2607">
        <ele>136.5</ele>
        <time>2022-11-30T13:58:13Z</time>
      </trkpt>
      <trkpt lat="50.05515" lon="2.26069">
        <ele>136.5</ele>
        <time>2022-11-30T13:58:14Z</time>
      </trkpt>
      <trkpt lat="50.05514" lon="2.26067">
        <ele>136.5</ele>
        <time>2022-11-30T13:58:15Z</time>
      </trkpt>
      <trkpt lat="50.05514" lon="2.26065">
        <ele>136.5</ele>
        <time>2022-11-30T13:58:16Z</time>
      </trkpt>
      <trkpt lat="50.05514" lon="2.26064">
        <ele>136.5</ele>
        <time>2022-11-30T13:58:17Z</time>
      </trkpt>
      <trkpt lat="50.05513" lon="2.26062">
        <ele>136.5</ele>
        <time>2022-11-30T13:58:19Z</time>
      </trkpt>
      <trkpt lat="50.05512" lon="2.2606">
        <ele>136.5</ele>
        <time>2022-11-30T13:58:20Z</time>
      </trkpt>
      <trkpt lat="50.05512" lon="2.26059">
        <ele>136.5</ele>
        <time>2022-11-30T13:58:21Z</time>
      </trkpt>
      <trkpt lat="50.05512" lon="2.26057">
        <ele>136.5</ele>
        <time>2022-11-30T13:58:22Z</time>
      </trkpt>
      <trkpt lat="50.05511" lon="2.26056">
        <ele>136.5</ele>
        <time>2022-11-30T13:58:23Z</time>
      </trkpt>
      <trkpt lat="50.05511" lon="2.26054">
        <ele>136.5</ele>
        <time>2022-11-30T13:58:24Z</time>
      </trkpt>
      <trkpt lat="50.0551" lon="2.26051">
        <ele>136.4</ele>
        <time>2022-11-30T13:58:25Z</time>
      </trkpt>
      <trkpt lat="50.0551" lon="2.2605">
        <ele>136.4</ele>
        <time>2022-11-30T13:58:26Z</time>
      </trkpt>
      <trkpt lat="50.0551" lon="2.26048">
        <ele>136.5</ele>
        <time>2022-11-30T13:58:27Z</time>
      </trkpt>
      <trkpt lat="50.0551" lon="2.26046">
        <ele>136.4</ele>
        <time>2022-11-30T13:58:28Z</time>
      </trkpt>
      <trkpt lat="50.05509" lon="2.26044">
        <ele>136.4</ele>
        <time>2022-11-30T13:58:30Z</time>
      </trkpt>
      <trkpt lat="50.05509" lon="2.26042">
        <ele>136.4</ele>
        <time>2022-11-30T13:58:31Z</time>
      </trkpt>
      <trkpt lat="50.05508" lon="2.2604">
        <ele>136.4</ele>
        <time>2022-11-30T13:58:32Z</time>
      </trkpt>
      <trkpt lat="50.05508" lon="2.26038">
        <ele>136.4</ele>
        <time>2022-11-30T13:58:33Z</time>
      </trkpt>
      <trkpt lat="50.05508" lon="2.26037">
        <ele>136.4</ele>
        <time>2022-11-30T13:58:34Z</time>
      </trkpt>
      <trkpt lat="50.05507" lon="2.26035">
        <ele>136.4</ele>
        <time>2022-11-30T13:58:35Z</time>
      </trkpt>
      <trkpt lat="50.05507" lon="2.26032">
        <ele>136.4</ele>
        <time>2022-11-30T13:58:36Z</time>
      </trkpt>
      <trkpt lat="50.05507" lon="2.26031">
        <ele>136.4</ele>
        <time>2022-11-30T13:58:37Z</time>
      </trkpt>
      <trkpt lat="50.05506" lon="2.2603">
        <ele>136.4</ele>
        <time>2022-11-30T13:58:38Z</time>
      </trkpt>
      <trkpt lat="50.05506" lon="2.26028">
        <ele>136.4</ele>
        <time>2022-11-30T13:58:40Z</time>
      </trkpt>
      <trkpt lat="50.05506" lon="2.26026">
        <ele>136.4</ele>
        <time>2022-11-30T13:58:41Z</time>
      </trkpt>
      <trkpt lat="50.05505" lon="2.26025">
        <ele>136.4</ele>
        <time>2022-11-30T13:58:42Z</time>
      </trkpt>
      <trkpt lat="50.05504" lon="2.26022">
        <ele>136.4</ele>
        <time>2022-11-30T13:58:43Z</time>
      </trkpt>
      <trkpt lat="50.05504" lon="2.26021">
        <ele>136.4</ele>
        <time>2022-11-30T13:58:44Z</time>
      </trkpt>
      <trkpt lat="50.05503" lon="2.26019">
        <ele>136.4</ele>
        <time>2022-11-30T13:58:46Z</time>
      </trkpt>
      <trkpt lat="50.05502" lon="2.26017">
        <ele>136.4</ele>
        <time>2022-11-30T13:58:47Z</time>
      </trkpt>
      <trkpt lat="50.05502" lon="2.26016">
        <ele>136.4</ele>
        <time>2022-11-30T13:58:48Z</time>
      </trkpt>
      <trkpt lat="50.05501" lon="2.26014">
        <ele>136.4</ele>
        <time>2022-11-30T13:58:49Z</time>
      </trkpt>
      <trkpt lat="50.05501" lon="2.26012">
        <ele>136.4</ele>
        <time>2022-11-30T13:58:50Z</time>
      </trkpt>
      <trkpt lat="50.055" lon="2.2601">
        <ele>136.4</ele>
        <time>2022-11-30T13:58:52Z</time>
      </trkpt>
      <trkpt lat="50.055" lon="2.26009">
        <ele>136.4</ele>
        <time>2022-11-30T13:58:53Z</time>
      </trkpt>
      <trkpt lat="50.05499" lon="2.26007">
        <ele>136.4</ele>
        <time>2022-11-30T13:58:54Z</time>
      </trkpt>
      <trkpt lat="50.05499" lon="2.26006">
        <ele>136.4</ele>
        <time>2022-11-30T13:58:55Z</time>
      </trkpt>
      <trkpt lat="50.05498" lon="2.26004">
        <ele>136.4</ele>
        <time>2022-11-30T13:58:56Z</time>
      </trkpt>
      <trkpt lat="50.05497" lon="2.26001">
        <ele>136.4</ele>
        <time>2022-11-30T13:58:57Z</time>
      </trkpt>
      <trkpt lat="50.05497" lon="2.26">
        <ele>136.4</ele>
        <time>2022-11-30T13:58:58Z</time>
      </trkpt>
      <trkpt lat="50.05497" lon="2.25999">
        <ele>136.4</ele>
        <time>2022-11-30T13:58:59Z</time>
      </trkpt>
      <trkpt lat="50.05496" lon="2.25997">
        <ele>136.4</ele>
        <time>2022-11-30T13:59:01Z</time>
      </trkpt>
      <trkpt lat="50.05495" lon="2.25996">
        <ele>136.4</ele>
        <time>2022-11-30T13:59:02Z</time>
      </trkpt>
      <trkpt lat="50.05495" lon="2.25995">
        <ele>136.4</ele>
        <time>2022-11-30T13:59:03Z</time>
      </trkpt>
      <trkpt lat="50.05494" lon="2.25993">
        <ele>136.4</ele>
        <time>2022-11-30T13:59:04Z</time>
      </trkpt>
      <trkpt lat="50.05494" lon="2.25992">
        <ele>136.3</ele>
        <time>2022-11-30T13:59:05Z</time>
      </trkpt>
      <trkpt lat="50.05493" lon="2.25991">
        <ele>136.4</ele>
        <time>2022-11-30T13:59:06Z</time>
      </trkpt>
      <trkpt lat="50.05492" lon="2.25988">
        <ele>136.3</ele>
        <time>2022-11-30T13:59:07Z</time>
      </trkpt>
      <trkpt lat="50.05492" lon="2.25987">
        <ele>136.3</ele>
        <time>2022-11-30T13:59:08Z</time>
      </trkpt>
      <trkpt lat="50.05491" lon="2.25986">
        <ele>136.3</ele>
        <time>2022-11-30T13:59:09Z</time>
      </trkpt>
      <trkpt lat="50.05491" lon="2.25984">
        <ele>136.3</ele>
        <time>2022-11-30T13:59:11Z</time>
      </trkpt>
      <trkpt lat="50.0549" lon="2.25983">
        <ele>136.3</ele>
        <time>2022-11-30T13:59:12Z</time>
      </trkpt>
      <trkpt lat="50.0549" lon="2.25982">
        <ele>136.3</ele>
        <time>2022-11-30T13:59:13Z</time>
      </trkpt>
      <trkpt lat="50.0549" lon="2.2598">
        <ele>136.3</ele>
        <time>2022-11-30T13:59:14Z</time>
      </trkpt>
      <trkpt lat="50.05489" lon="2.25979">
        <ele>136.3</ele>
        <time>2022-11-30T13:59:15Z</time>
      </trkpt>
      <trkpt lat="50.05489" lon="2.25978">
        <ele>136.3</ele>
        <time>2022-11-30T13:59:16Z</time>
      </trkpt>
      <trkpt lat="50.05488" lon="2.25976">
        <ele>136.3</ele>
        <time>2022-11-30T13:59:17Z</time>
      </trkpt>
      <trkpt lat="50.05488" lon="2.25975">
        <ele>136.3</ele>
        <time>2022-11-30T13:59:19Z</time>
      </trkpt>
      <trkpt lat="50.05488" lon="2.25973">
        <ele>136.3</ele>
        <time>2022-11-30T13:59:20Z</time>
      </trkpt>
      <trkpt lat="50.05487" lon="2.25971">
        <ele>136.3</ele>
        <time>2022-11-30T13:59:21Z</time>
      </trkpt>
      <trkpt lat="50.05487" lon="2.2597">
        <ele>136.3</ele>
        <time>2022-11-30T13:59:22Z</time>
      </trkpt>
      <trkpt lat="50.05487" lon="2.25969">
        <ele>136.3</ele>
        <time>2022-11-30T13:59:23Z</time>
      </trkpt>
      <trkpt lat="50.05487" lon="2.25967">
        <ele>136.3</ele>
        <time>2022-11-30T13:59:25Z</time>
      </trkpt>
      <trkpt lat="50.05486" lon="2.25966">
        <ele>136.2</ele>
        <time>2022-11-30T13:59:26Z</time>
      </trkpt>
      <trkpt lat="50.05486" lon="2.25964">
        <ele>136.2</ele>
        <time>2022-11-30T13:59:27Z</time>
      </trkpt>
      <trkpt lat="50.05485" lon="2.2596">
        <ele>136.2</ele>
        <time>2022-11-30T13:59:28Z</time>
      </trkpt>
      <trkpt lat="50.05485" lon="2.25959">
        <ele>136.2</ele>
        <time>2022-11-30T13:59:29Z</time>
      </trkpt>
      <trkpt lat="50.05485" lon="2.25958">
        <ele>136.2</ele>
        <time>2022-11-30T13:59:30Z</time>
      </trkpt>
      <trkpt lat="50.05484" lon="2.25956">
        <ele>136.2</ele>
        <time>2022-11-30T13:59:31Z</time>
      </trkpt>
      <trkpt lat="50.05484" lon="2.25954">
        <ele>136.2</ele>
        <time>2022-11-30T13:59:33Z</time>
      </trkpt>
      <trkpt lat="50.05483" lon="2.25953">
        <ele>136.2</ele>
        <time>2022-11-30T13:59:34Z</time>
      </trkpt>
      <trkpt lat="50.05483" lon="2.25951">
        <ele>136.2</ele>
        <time>2022-11-30T13:59:35Z</time>
      </trkpt>
      <trkpt lat="50.05483" lon="2.2595">
        <ele>136.2</ele>
        <time>2022-11-30T13:59:36Z</time>
      </trkpt>
      <trkpt lat="50.05483" lon="2.25948">
        <ele>136.1</ele>
        <time>2022-11-30T13:59:37Z</time>
      </trkpt>
      <trkpt lat="50.05483" lon="2.25947">
        <ele>136.1</ele>
        <time>2022-11-30T13:59:38Z</time>
      </trkpt>
      <trkpt lat="50.05483" lon="2.25945">
        <ele>136.1</ele>
        <time>2022-11-30T13:59:39Z</time>
      </trkpt>
      <trkpt lat="50.05482" lon="2.25944">
        <ele>136.1</ele>
        <time>2022-11-30T13:59:40Z</time>
      </trkpt>
      <trkpt lat="50.05482" lon="2.25943">
        <ele>136.1</ele>
        <time>2022-11-30T13:59:42Z</time>
      </trkpt>
      <trkpt lat="50.05481" lon="2.25942">
        <ele>136.1</ele>
        <time>2022-11-30T13:59:43Z</time>
      </trkpt>
      <trkpt lat="50.0548" lon="2.25941">
        <ele>136.1</ele>
        <time>2022-11-30T13:59:44Z</time>
      </trkpt>
      <trkpt lat="50.05479" lon="2.2594">
        <ele>136.1</ele>
        <time>2022-11-30T13:59:45Z</time>
      </trkpt>
      <trkpt lat="50.05478" lon="2.25938">
        <ele>136.1</ele>
        <time>2022-11-30T13:59:46Z</time>
      </trkpt>
      <trkpt lat="50.05478" lon="2.25936">
        <ele>136.1</ele>
        <time>2022-11-30T13:59:48Z</time>
      </trkpt>
      <trkpt lat="50.05478" lon="2.25934">
        <ele>136.1</ele>
        <time>2022-11-30T13:59:49Z</time>
      </trkpt>
      <trkpt lat="50.05477" lon="2.25933">
        <ele>136.1</ele>
        <time>2022-11-30T13:59:50Z</time>
      </trkpt>
      <trkpt lat="50.05477" lon="2.25931">
        <ele>136.1</ele>
        <time>2022-11-30T13:59:51Z</time>
      </trkpt>
      <trkpt lat="50.05477" lon="2.2593">
        <ele>136.1</ele>
        <time>2022-11-30T13:59:52Z</time>
      </trkpt>
      <trkpt lat="50.05477" lon="2.25928">
        <ele>136.1</ele>
        <time>2022-11-30T13:59:53Z</time>
      </trkpt>
      <trkpt lat="50.05477" lon="2.25926">
        <ele>136.1</ele>
        <time>2022-11-30T13:59:54Z</time>
      </trkpt>
      <trkpt lat="50.05477" lon="2.25924">
        <ele>136.1</ele>
        <time>2022-11-30T13:59:56Z</time>
      </trkpt>
      <trkpt lat="50.05477" lon="2.25922">
        <ele>136</ele>
        <time>2022-11-30T13:59:57Z</time>
      </trkpt>
      <trkpt lat="50.05477" lon="2.25921">
        <ele>136</ele>
        <time>2022-11-30T13:59:58Z</time>
      </trkpt>
      <trkpt lat="50.05477" lon="2.2592">
        <ele>136</ele>
        <time>2022-11-30T13:59:59Z</time>
      </trkpt>
      <trkpt lat="50.05477" lon="2.25919">
        <ele>136</ele>
        <time>2022-11-30T14:00:00Z</time>
      </trkpt>
      <trkpt lat="50.05477" lon="2.25917">
        <ele>136</ele>
        <time>2022-11-30T14:00:01Z</time>
      </trkpt>
      <trkpt lat="50.05476" lon="2.25915">
        <ele>136</ele>
        <time>2022-11-30T14:00:03Z</time>
      </trkpt>
      <trkpt lat="50.05476" lon="2.25914">
        <ele>136</ele>
        <time>2022-11-30T14:00:04Z</time>
      </trkpt>
      <trkpt lat="50.05475" lon="2.25913">
        <ele>136</ele>
        <time>2022-11-30T14:00:06Z</time>
      </trkpt>
      <trkpt lat="50.05474" lon="2.25913">
        <ele>136</ele>
        <time>2022-11-30T14:00:07Z</time>
      </trkpt>
      <trkpt lat="50.05474" lon="2.25913">
        <ele>136</ele>
        <time>2022-11-30T14:00:08Z</time>
      </trkpt>
      <trkpt lat="50.05473" lon="2.25913">
        <ele>136</ele>
        <time>2022-11-30T14:00:09Z</time>
      </trkpt>
      <trkpt lat="50.05473" lon="2.25913">
        <ele>136</ele>
        <time>2022-11-30T14:00:10Z</time>
      </trkpt>
      <trkpt lat="50.05473" lon="2.25913">
        <ele>136</ele>
        <time>2022-11-30T14:00:11Z</time>
      </trkpt>
      <trkpt lat="50.05473" lon="2.25913">
        <ele>136</ele>
        <time>2022-11-30T14:00:12Z</time>
      </trkpt>
      <trkpt lat="50.05473" lon="2.25913">
        <ele>136</ele>
        <time>2022-11-30T14:00:13Z</time>
      </trkpt>
      <trkpt lat="50.05473" lon="2.25914">
        <ele>136</ele>
        <time>2022-11-30T14:00:14Z</time>
      </trkpt>
      <trkpt lat="50.05473" lon="2.25914">
        <ele>136</ele>
        <time>2022-11-30T14:00:15Z</time>
      </trkpt>
      <trkpt lat="50.05473" lon="2.25914">
        <ele>136</ele>
        <time>2022-11-30T14:00:16Z</time>
      </trkpt>
      <trkpt lat="50.05473" lon="2.25914">
        <ele>136</ele>
        <time>2022-11-30T14:00:17Z</time>
      </trkpt>
      <trkpt lat="50.05473" lon="2.25915">
        <ele>136</ele>
        <time>2022-11-30T14:00:18Z</time>
      </trkpt>
      <trkpt lat="50.05473" lon="2.25915">
        <ele>136</ele>
        <time>2022-11-30T14:00:19Z</time>
      </trkpt>
      <trkpt lat="50.05473" lon="2.25915">
        <ele>136</ele>
        <time>2022-11-30T14:00:20Z</time>
      </trkpt>
      <trkpt lat="50.05473" lon="2.25915">
        <ele>136</ele>
        <time>2022-11-30T14:00:21Z</time>
      </trkpt>
      <trkpt lat="50.05473" lon="2.25915">
        <ele>136</ele>
        <time>2022-11-30T14:00:22Z</time>
      </trkpt>
      <trkpt lat="50.05473" lon="2.25915">
        <ele>136</ele>
        <time>2022-11-30T14:00:23Z</time>
      </trkpt>
      <trkpt lat="50.05473" lon="2.25915">
        <ele>136</ele>
        <time>2022-11-30T14:00:24Z</time>
      </trkpt>
      <trkpt lat="50.05473" lon="2.25915">
        <ele>136</ele>
        <time>2022-11-30T14:00:25Z</time>
      </trkpt>
      <trkpt lat="50.05473" lon="2.25915">
        <ele>136</ele>
        <time>2022-11-30T14:00:26Z</time>
      </trkpt>
      <trkpt lat="50.05474" lon="2.25915">
        <ele>136</ele>
        <time>2022-11-30T14:00:27Z</time>
      </trkpt>
      <trkpt lat="50.05474" lon="2.25915">
        <ele>136</ele>
        <time>2022-11-30T14:00:28Z</time>
      </trkpt>
      <trkpt lat="50.05474" lon="2.25915">
        <ele>136</ele>
        <time>2022-11-30T14:00:29Z</time>
      </trkpt>
      <trkpt lat="50.05474" lon="2.25915">
        <ele>136</ele>
        <time>2022-11-30T14:00:30Z</time>
      </trkpt>
      <trkpt lat="50.05474" lon="2.25915">
        <ele>136</ele>
        <time>2022-11-30T14:00:31Z</time>
      </trkpt>
      <trkpt lat="50.05474" lon="2.25915">
        <ele>136</ele>
        <time>2022-11-30T14:00:32Z</time>
      </trkpt>
      <trkpt lat="50.05474" lon="2.25915">
        <ele>136</ele>
        <time>2022-11-30T14:00:33Z</time>
      </trkpt>
      <trkpt lat="50.05474" lon="2.25915">
        <ele>136</ele>
        <time>2022-11-30T14:00:34Z</time>
      </trkpt>
      <trkpt lat="50.05474" lon="2.25915">
        <ele>136</ele>
        <time>2022-11-30T14:00:35Z</time>
      </trkpt>
      <trkpt lat="50.05474" lon="2.25915">
        <ele>136</ele>
        <time>2022-11-30T14:00:36Z</time>
      </trkpt>
      <trkpt lat="50.05474" lon="2.25915">
        <ele>136</ele>
        <time>2022-11-30T14:00:37Z</time>
      </trkpt>
      <trkpt lat="50.05474" lon="2.25915">
        <ele>136</ele>
        <time>2022-11-30T14:00:38Z</time>
      </trkpt>
      <trkpt lat="50.05474" lon="2.25915">
        <ele>136</ele>
        <time>2022-11-30T14:00:39Z</time>
      </trkpt>
      <trkpt lat="50.05474" lon="2.25915">
        <ele>136</ele>
        <time>2022-11-30T14:00:40Z</time>
      </trkpt>
      <trkpt lat="50.05474" lon="2.25915">
        <ele>136</ele>
        <time>2022-11-30T14:00:41Z</time>
      </trkpt>
      <trkpt lat="50.05474" lon="2.25915">
        <ele>136</ele>
        <time>2022-11-30T14:00:42Z</time>
      </trkpt>
      <trkpt lat="50.05474" lon="2.25915">
        <ele>136</ele>
        <time>2022-11-30T14:00:43Z</time>
      </trkpt>
      <trkpt lat="50.05474" lon="2.25915">
        <ele>136</ele>
        <time>2022-11-30T14:00:44Z</time>
      </trkpt>
      <trkpt lat="50.05474" lon="2.25915">
        <ele>136</ele>
        <time>2022-11-30T14:00:45Z</time>
      </trkpt>
      <trkpt lat="50.05474" lon="2.25915">
        <ele>136</ele>
        <time>2022-11-30T14:00:46Z</time>
      </trkpt>
      <trkpt lat="50.05474" lon="2.25915">
        <ele>136</ele>
        <time>2022-11-30T14:00:47Z</time>
      </trkpt>
      <trkpt lat="50.05474" lon="2.25915">
        <ele>136</ele>
        <time>2022-11-30T14:00:48Z</time>
      </trkpt>
      <trkpt lat="50.05474" lon="2.25915">
        <ele>136</ele>
        <time>2022-11-30T14:00:49Z</time>
      </trkpt>
      <trkpt lat="50.05474" lon="2.25915">
        <ele>136</ele>
        <time>2022-11-30T14:00:50Z</time>
      </trkpt>
      <trkpt lat="50.05474" lon="2.25915">
        <ele>136</ele>
        <time>2022-11-30T14:00:51Z</time>
      </trkpt>
      <trkpt lat="50.05474" lon="2.25915">
        <ele>136</ele>
        <time>2022-11-30T14:00:52Z</time>
      </trkpt>
      <trkpt lat="50.05474" lon="2.25915">
        <ele>136</ele>
        <time>2022-11-30T14:00:53Z</time>
      </trkpt>
      <trkpt lat="50.05474" lon="2.25915">
        <ele>136</ele>
        <time>2022-11-30T14:00:54Z</time>
      </trkpt>
      <trkpt lat="50.05474" lon="2.25915">
        <ele>136</ele>
        <time>2022-11-30T14:00:55Z</time>
      </trkpt>
      <trkpt lat="50.05474" lon="2.25915">
        <ele>136</ele>
        <time>2022-11-30T14:00:56Z</time>
      </trkpt>
      <trkpt lat="50.05474" lon="2.25915">
        <ele>136</ele>
        <time>2022-11-30T14:00:57Z</time>
      </trkpt>
      <trkpt lat="50.05474" lon="2.25915">
        <ele>136</ele>
        <time>2022-11-30T14:00:58Z</time>
      </trkpt>
      <trkpt lat="50.05474" lon="2.25915">
        <ele>136</ele>
        <time>2022-11-30T14:00:59Z</time>
      </trkpt>
      <trkpt lat="50.05474" lon="2.25915">
        <ele>136</ele>
        <time>2022-11-30T14:01:00Z</time>
      </trkpt>
      <trkpt lat="50.05474" lon="2.25915">
        <ele>136</ele>
        <time>2022-11-30T14:01:01Z</time>
      </trkpt>
      <trkpt lat="50.05474" lon="2.25915">
        <ele>136</ele>
        <time>2022-11-30T14:01:02Z</time>
      </trkpt>
      <trkpt lat="50.05474" lon="2.25915">
        <ele>136</ele>
        <time>2022-11-30T14:01:03Z</time>
      </trkpt>
      <trkpt lat="50.05474" lon="2.25915">
        <ele>136</ele>
        <time>2022-11-30T14:01:04Z</time>
      </trkpt>
      <trkpt lat="50.05474" lon="2.25915">
        <ele>136</ele>
        <time>2022-11-30T14:01:05Z</time>
      </trkpt>
      <trkpt lat="50.05474" lon="2.25915">
        <ele>136</ele>
        <time>2022-11-30T14:01:06Z</time>
      </trkpt>
      <trkpt lat="50.05476" lon="2.25917">
        <ele>136</ele>
        <time>2022-11-30T14:01:07Z</time>
      </trkpt>
      <trkpt lat="50.05477" lon="2.25918">
        <ele>136</ele>
        <time>2022-11-30T14:01:08Z</time>
      </trkpt>
      <trkpt lat="50.05476" lon="2.25918">
        <ele>136</ele>
        <time>2022-11-30T14:01:09Z</time>
      </trkpt>
      <trkpt lat="50.05475" lon="2.25918">
        <ele>136</ele>
        <time>2022-11-30T14:01:10Z</time>
      </trkpt>
      <trkpt lat="50.05475" lon="2.25918">
        <ele>136</ele>
        <time>2022-11-30T14:01:11Z</time>
      </trkpt>
      <trkpt lat="50.05474" lon="2.25917">
        <ele>136</ele>
        <time>2022-11-30T14:01:13Z</time>
      </trkpt>
      <trkpt lat="50.05474" lon="2.25917">
        <ele>136</ele>
        <time>2022-11-30T14:01:14Z</time>
      </trkpt>
      <trkpt lat="50.05473" lon="2.25917">
        <ele>136</ele>
        <time>2022-11-30T14:01:15Z</time>
      </trkpt>
      <trkpt lat="50.05472" lon="2.25917">
        <ele>136</ele>
        <time>2022-11-30T14:01:16Z</time>
      </trkpt>
      <trkpt lat="50.05472" lon="2.25917">
        <ele>136</ele>
        <time>2022-11-30T14:01:17Z</time>
      </trkpt>
      <trkpt lat="50.05471" lon="2.25916">
        <ele>136.1</ele>
        <time>2022-11-30T14:01:19Z</time>
      </trkpt>
      <trkpt lat="50.0547" lon="2.25916">
        <ele>136.1</ele>
        <time>2022-11-30T14:01:20Z</time>
      </trkpt>
      <trkpt lat="50.0547" lon="2.25916">
        <ele>136.1</ele>
        <time>2022-11-30T14:01:21Z</time>
      </trkpt>
      <trkpt lat="50.05469" lon="2.25916">
        <ele>136.1</ele>
        <time>2022-11-30T14:01:22Z</time>
      </trkpt>
      <trkpt lat="50.05469" lon="2.25915">
        <ele>136.1</ele>
        <time>2022-11-30T14:01:23Z</time>
      </trkpt>
      <trkpt lat="50.05467" lon="2.25915">
        <ele>136.1</ele>
        <time>2022-11-30T14:01:25Z</time>
      </trkpt>
      <trkpt lat="50.05467" lon="2.25916">
        <ele>136.1</ele>
        <time>2022-11-30T14:01:26Z</time>
      </trkpt>
      <trkpt lat="50.05466" lon="2.25916">
        <ele>136.1</ele>
        <time>2022-11-30T14:01:27Z</time>
      </trkpt>
      <trkpt lat="50.05466" lon="2.25917">
        <ele>136.1</ele>
        <time>2022-11-30T14:01:28Z</time>
      </trkpt>
      <trkpt lat="50.05465" lon="2.25917">
        <ele>136.2</ele>
        <time>2022-11-30T14:01:29Z</time>
      </trkpt>
      <trkpt lat="50.05465" lon="2.25917">
        <ele>136.2</ele>
        <time>2022-11-30T14:01:30Z</time>
      </trkpt>
      <trkpt lat="50.05464" lon="2.25917">
        <ele>136.2</ele>
        <time>2022-11-30T14:01:31Z</time>
      </trkpt>
      <trkpt lat="50.05464" lon="2.25917">
        <ele>136.2</ele>
        <time>2022-11-30T14:01:33Z</time>
      </trkpt>
      <trkpt lat="50.05463" lon="2.25917">
        <ele>136.2</ele>
        <time>2022-11-30T14:01:34Z</time>
      </trkpt>
      <trkpt lat="50.05463" lon="2.25917">
        <ele>136.2</ele>
        <time>2022-11-30T14:01:35Z</time>
      </trkpt>
      <trkpt lat="50.05462" lon="2.25917">
        <ele>136.2</ele>
        <time>2022-11-30T14:01:36Z</time>
      </trkpt>
      <trkpt lat="50.05461" lon="2.25917">
        <ele>136.2</ele>
        <time>2022-11-30T14:01:38Z</time>
      </trkpt>
      <trkpt lat="50.0546" lon="2.25917">
        <ele>136.3</ele>
        <time>2022-11-30T14:01:39Z</time>
      </trkpt>
      <trkpt lat="50.05459" lon="2.25917">
        <ele>136.3</ele>
        <time>2022-11-30T14:01:40Z</time>
      </trkpt>
      <trkpt lat="50.05458" lon="2.25916">
        <ele>136.3</ele>
        <time>2022-11-30T14:01:41Z</time>
      </trkpt>
      <trkpt lat="50.05457" lon="2.25916">
        <ele>136.3</ele>
        <time>2022-11-30T14:01:42Z</time>
      </trkpt>
      <trkpt lat="50.05456" lon="2.25916">
        <ele>136.3</ele>
        <time>2022-11-30T14:01:43Z</time>
      </trkpt>
      <trkpt lat="50.05454" lon="2.25914">
        <ele>136.3</ele>
        <time>2022-11-30T14:01:44Z</time>
      </trkpt>
      <trkpt lat="50.05453" lon="2.25913">
        <ele>136.3</ele>
        <time>2022-11-30T14:01:46Z</time>
      </trkpt>
      <trkpt lat="50.05453" lon="2.25912">
        <ele>136.3</ele>
        <time>2022-11-30T14:01:47Z</time>
      </trkpt>
      <trkpt lat="50.05452" lon="2.25911">
        <ele>136.4</ele>
        <time>2022-11-30T14:01:48Z</time>
      </trkpt>
      <trkpt lat="50.0545" lon="2.25909">
        <ele>136.3</ele>
        <time>2022-11-30T14:01:49Z</time>
      </trkpt>
      <trkpt lat="50.05449" lon="2.25908">
        <ele>136.4</ele>
        <time>2022-11-30T14:01:50Z</time>
      </trkpt>
      <trkpt lat="50.05448" lon="2.25906">
        <ele>136.4</ele>
        <time>2022-11-30T14:01:51Z</time>
      </trkpt>
      <trkpt lat="50.05447" lon="2.25905">
        <ele>136.4</ele>
        <time>2022-11-30T14:01:52Z</time>
      </trkpt>
      <trkpt lat="50.05447" lon="2.25903">
        <ele>136.4</ele>
        <time>2022-11-30T14:01:53Z</time>
      </trkpt>
      <trkpt lat="50.05446" lon="2.259">
        <ele>136.4</ele>
        <time>2022-11-30T14:01:55Z</time>
      </trkpt>
      <trkpt lat="50.05446" lon="2.25899">
        <ele>136.4</ele>
        <time>2022-11-30T14:01:56Z</time>
      </trkpt>
      <trkpt lat="50.05445" lon="2.25898">
        <ele>136.4</ele>
        <time>2022-11-30T14:01:57Z</time>
      </trkpt>
      <trkpt lat="50.05445" lon="2.25894">
        <ele>136.4</ele>
        <time>2022-11-30T14:01:58Z</time>
      </trkpt>
      <trkpt lat="50.05445" lon="2.25893">
        <ele>136.3</ele>
        <time>2022-11-30T14:01:59Z</time>
      </trkpt>
      <trkpt lat="50.05444" lon="2.25892">
        <ele>136.3</ele>
        <time>2022-11-30T14:02:00Z</time>
      </trkpt>
      <trkpt lat="50.05444" lon="2.2589">
        <ele>136.3</ele>
        <time>2022-11-30T14:02:02Z</time>
      </trkpt>
      <trkpt lat="50.05444" lon="2.25888">
        <ele>136.4</ele>
        <time>2022-11-30T14:02:03Z</time>
      </trkpt>
      <trkpt lat="50.05443" lon="2.25886">
        <ele>136.4</ele>
        <time>2022-11-30T14:02:04Z</time>
      </trkpt>
      <trkpt lat="50.05443" lon="2.25884">
        <ele>136.3</ele>
        <time>2022-11-30T14:02:05Z</time>
      </trkpt>
      <trkpt lat="50.05443" lon="2.25882">
        <ele>136.3</ele>
        <time>2022-11-30T14:02:06Z</time>
      </trkpt>
      <trkpt lat="50.05442" lon="2.25879">
        <ele>136.3</ele>
        <time>2022-11-30T14:02:07Z</time>
      </trkpt>
      <trkpt lat="50.05442" lon="2.25878">
        <ele>136.3</ele>
        <time>2022-11-30T14:02:09Z</time>
      </trkpt>
      <trkpt lat="50.05442" lon="2.25877">
        <ele>136.3</ele>
        <time>2022-11-30T14:02:10Z</time>
      </trkpt>
      <trkpt lat="50.05442" lon="2.25873">
        <ele>136.3</ele>
        <time>2022-11-30T14:02:11Z</time>
      </trkpt>
      <trkpt lat="50.05441" lon="2.25872">
        <ele>136.3</ele>
        <time>2022-11-30T14:02:12Z</time>
      </trkpt>
      <trkpt lat="50.05441" lon="2.25871">
        <ele>136.3</ele>
        <time>2022-11-30T14:02:13Z</time>
      </trkpt>
      <trkpt lat="50.0544" lon="2.25869">
        <ele>136.3</ele>
        <time>2022-11-30T14:02:14Z</time>
      </trkpt>
      <trkpt lat="50.0544" lon="2.25867">
        <ele>136.3</ele>
        <time>2022-11-30T14:02:16Z</time>
      </trkpt>
      <trkpt lat="50.05439" lon="2.25865">
        <ele>136.3</ele>
        <time>2022-11-30T14:02:17Z</time>
      </trkpt>
      <trkpt lat="50.05439" lon="2.25864">
        <ele>136.3</ele>
        <time>2022-11-30T14:02:18Z</time>
      </trkpt>
      <trkpt lat="50.05439" lon="2.25862">
        <ele>136.3</ele>
        <time>2022-11-30T14:02:19Z</time>
      </trkpt>
      <trkpt lat="50.05438" lon="2.25861">
        <ele>136.3</ele>
        <time>2022-11-30T14:02:20Z</time>
      </trkpt>
      <trkpt lat="50.05438" lon="2.25859">
        <ele>136.3</ele>
        <time>2022-11-30T14:02:21Z</time>
      </trkpt>
      <trkpt lat="50.05438" lon="2.25858">
        <ele>136.3</ele>
        <time>2022-11-30T14:02:22Z</time>
      </trkpt>
      <trkpt lat="50.05437" lon="2.25856">
        <ele>136.3</ele>
        <time>2022-11-30T14:02:23Z</time>
      </trkpt>
      <trkpt lat="50.05437" lon="2.25855">
        <ele>136.3</ele>
        <time>2022-11-30T14:02:24Z</time>
      </trkpt>
      <trkpt lat="50.05437" lon="2.25853">
        <ele>136.2</ele>
        <time>2022-11-30T14:02:25Z</time>
      </trkpt>
      <trkpt lat="50.05436" lon="2.25851">
        <ele>136.2</ele>
        <time>2022-11-30T14:02:26Z</time>
      </trkpt>
      <trkpt lat="50.05435" lon="2.25849">
        <ele>136.3</ele>
        <time>2022-11-30T14:02:27Z</time>
      </trkpt>
      <trkpt lat="50.05435" lon="2.25848">
        <ele>136.3</ele>
        <time>2022-11-30T14:02:29Z</time>
      </trkpt>
      <trkpt lat="50.05435" lon="2.25846">
        <ele>136.2</ele>
        <time>2022-11-30T14:02:30Z</time>
      </trkpt>
      <trkpt lat="50.05435" lon="2.25844">
        <ele>136.2</ele>
        <time>2022-11-30T14:02:31Z</time>
      </trkpt>
      <trkpt lat="50.05434" lon="2.25843">
        <ele>136.2</ele>
        <time>2022-11-30T14:02:32Z</time>
      </trkpt>
      <trkpt lat="50.05434" lon="2.25841">
        <ele>136.2</ele>
        <time>2022-11-30T14:02:33Z</time>
      </trkpt>
      <trkpt lat="50.05433" lon="2.25839">
        <ele>136.2</ele>
        <time>2022-11-30T14:02:34Z</time>
      </trkpt>
      <trkpt lat="50.05433" lon="2.25837">
        <ele>136.2</ele>
        <time>2022-11-30T14:02:36Z</time>
      </trkpt>
      <trkpt lat="50.05432" lon="2.25834">
        <ele>136.2</ele>
        <time>2022-11-30T14:02:37Z</time>
      </trkpt>
      <trkpt lat="50.05432" lon="2.25833">
        <ele>136.2</ele>
        <time>2022-11-30T14:02:38Z</time>
      </trkpt>
      <trkpt lat="50.05432" lon="2.25832">
        <ele>136.2</ele>
        <time>2022-11-30T14:02:39Z</time>
      </trkpt>
      <trkpt lat="50.05431" lon="2.2583">
        <ele>136.2</ele>
        <time>2022-11-30T14:02:40Z</time>
      </trkpt>
      <trkpt lat="50.05431" lon="2.25828">
        <ele>136.2</ele>
        <time>2022-11-30T14:02:41Z</time>
      </trkpt>
      <trkpt lat="50.0543" lon="2.25827">
        <ele>136.2</ele>
        <time>2022-11-30T14:02:42Z</time>
      </trkpt>
      <trkpt lat="50.0543" lon="2.25824">
        <ele>136.2</ele>
        <time>2022-11-30T14:02:44Z</time>
      </trkpt>
      <trkpt lat="50.05429" lon="2.25823">
        <ele>136.2</ele>
        <time>2022-11-30T14:02:45Z</time>
      </trkpt>
      <trkpt lat="50.05429" lon="2.25822">
        <ele>136.2</ele>
        <time>2022-11-30T14:02:46Z</time>
      </trkpt>
      <trkpt lat="50.05429" lon="2.2582">
        <ele>136.2</ele>
        <time>2022-11-30T14:02:47Z</time>
      </trkpt>
      <trkpt lat="50.05428" lon="2.25818">
        <ele>136.2</ele>
        <time>2022-11-30T14:02:48Z</time>
      </trkpt>
      <trkpt lat="50.05428" lon="2.25817">
        <ele>136.2</ele>
        <time>2022-11-30T14:02:49Z</time>
      </trkpt>
      <trkpt lat="50.05427" lon="2.25814">
        <ele>136.2</ele>
        <time>2022-11-30T14:02:51Z</time>
      </trkpt>
      <trkpt lat="50.05427" lon="2.25813">
        <ele>136.2</ele>
        <time>2022-11-30T14:02:52Z</time>
      </trkpt>
      <trkpt lat="50.05426" lon="2.25811">
        <ele>136.1</ele>
        <time>2022-11-30T14:02:53Z</time>
      </trkpt>
      <trkpt lat="50.05426" lon="2.2581">
        <ele>136.1</ele>
        <time>2022-11-30T14:02:54Z</time>
      </trkpt>
      <trkpt lat="50.05426" lon="2.25808">
        <ele>136.1</ele>
        <time>2022-11-30T14:02:55Z</time>
      </trkpt>
      <trkpt lat="50.05425" lon="2.25807">
        <ele>136.1</ele>
        <time>2022-11-30T14:02:56Z</time>
      </trkpt>
      <trkpt lat="50.05425" lon="2.25803">
        <ele>136.1</ele>
        <time>2022-11-30T14:02:57Z</time>
      </trkpt>
      <trkpt lat="50.05424" lon="2.25802">
        <ele>136.1</ele>
        <time>2022-11-30T14:02:59Z</time>
      </trkpt>
      <trkpt lat="50.05424" lon="2.25801">
        <ele>136.1</ele>
        <time>2022-11-30T14:03:00Z</time>
      </trkpt>
      <trkpt lat="50.05424" lon="2.25799">
        <ele>136.1</ele>
        <time>2022-11-30T14:03:01Z</time>
      </trkpt>
      <trkpt lat="50.05424" lon="2.25798">
        <ele>136.1</ele>
        <time>2022-11-30T14:03:02Z</time>
      </trkpt>
      <trkpt lat="50.05424" lon="2.25796">
        <ele>136.1</ele>
        <time>2022-11-30T14:03:03Z</time>
      </trkpt>
      <trkpt lat="50.05423" lon="2.25794">
        <ele>136.1</ele>
        <time>2022-11-30T14:03:04Z</time>
      </trkpt>
      <trkpt lat="50.05423" lon="2.25793">
        <ele>136.1</ele>
        <time>2022-11-30T14:03:05Z</time>
      </trkpt>
      <trkpt lat="50.05422" lon="2.25791">
        <ele>136.1</ele>
        <time>2022-11-30T14:03:07Z</time>
      </trkpt>
      <trkpt lat="50.05422" lon="2.2579">
        <ele>136.1</ele>
        <time>2022-11-30T14:03:08Z</time>
      </trkpt>
      <trkpt lat="50.05421" lon="2.25788">
        <ele>136.1</ele>
        <time>2022-11-30T14:03:09Z</time>
      </trkpt>
      <trkpt lat="50.05421" lon="2.25787">
        <ele>136.1</ele>
        <time>2022-11-30T14:03:10Z</time>
      </trkpt>
      <trkpt lat="50.05421" lon="2.25785">
        <ele>136</ele>
        <time>2022-11-30T14:03:11Z</time>
      </trkpt>
      <trkpt lat="50.0542" lon="2.25784">
        <ele>136</ele>
        <time>2022-11-30T14:03:12Z</time>
      </trkpt>
      <trkpt lat="50.0542" lon="2.25782">
        <ele>136</ele>
        <time>2022-11-30T14:03:13Z</time>
      </trkpt>
      <trkpt lat="50.0542" lon="2.25778">
        <ele>136</ele>
        <time>2022-11-30T14:03:15Z</time>
      </trkpt>
      <trkpt lat="50.05419" lon="2.25777">
        <ele>136</ele>
        <time>2022-11-30T14:03:16Z</time>
      </trkpt>
      <trkpt lat="50.05419" lon="2.25776">
        <ele>136</ele>
        <time>2022-11-30T14:03:17Z</time>
      </trkpt>
      <trkpt lat="50.05419" lon="2.25775">
        <ele>136</ele>
        <time>2022-11-30T14:03:18Z</time>
      </trkpt>
      <trkpt lat="50.05419" lon="2.25773">
        <ele>136</ele>
        <time>2022-11-30T14:03:19Z</time>
      </trkpt>
      <trkpt lat="50.05418" lon="2.25771">
        <ele>136</ele>
        <time>2022-11-30T14:03:20Z</time>
      </trkpt>
      <trkpt lat="50.05418" lon="2.25769">
        <ele>136</ele>
        <time>2022-11-30T14:03:22Z</time>
      </trkpt>
      <trkpt lat="50.05417" lon="2.25767">
        <ele>136</ele>
        <time>2022-11-30T14:03:23Z</time>
      </trkpt>
      <trkpt lat="50.05417" lon="2.25766">
        <ele>136</ele>
        <time>2022-11-30T14:03:24Z</time>
      </trkpt>
      <trkpt lat="50.05417" lon="2.25764">
        <ele>136</ele>
        <time>2022-11-30T14:03:25Z</time>
      </trkpt>
      <trkpt lat="50.05417" lon="2.25762">
        <ele>136</ele>
        <time>2022-11-30T14:03:26Z</time>
      </trkpt>
      <trkpt lat="50.05416" lon="2.25761">
        <ele>136</ele>
        <time>2022-11-30T14:03:27Z</time>
      </trkpt>
      <trkpt lat="50.05416" lon="2.25759">
        <ele>136</ele>
        <time>2022-11-30T14:03:29Z</time>
      </trkpt>
      <trkpt lat="50.05416" lon="2.25757">
        <ele>136</ele>
        <time>2022-11-30T14:03:30Z</time>
      </trkpt>
      <trkpt lat="50.05415" lon="2.25756">
        <ele>136</ele>
        <time>2022-11-30T14:03:31Z</time>
      </trkpt>
      <trkpt lat="50.05415" lon="2.25754">
        <ele>136</ele>
        <time>2022-11-30T14:03:32Z</time>
      </trkpt>
      <trkpt lat="50.05415" lon="2.25753">
        <ele>136</ele>
        <time>2022-11-30T14:03:33Z</time>
      </trkpt>
      <trkpt lat="50.05415" lon="2.25752">
        <ele>136</ele>
        <time>2022-11-30T14:03:34Z</time>
      </trkpt>
      <trkpt lat="50.05414" lon="2.2575">
        <ele>136</ele>
        <time>2022-11-30T14:03:35Z</time>
      </trkpt>
      <trkpt lat="50.05414" lon="2.25748">
        <ele>136</ele>
        <time>2022-11-30T14:03:36Z</time>
      </trkpt>
      <trkpt lat="50.05413" lon="2.25746">
        <ele>136</ele>
        <time>2022-11-30T14:03:37Z</time>
      </trkpt>
      <trkpt lat="50.05413" lon="2.25744">
        <ele>136</ele>
        <time>2022-11-30T14:03:39Z</time>
      </trkpt>
      <trkpt lat="50.05413" lon="2.25743">
        <ele>136</ele>
        <time>2022-11-30T14:03:40Z</time>
      </trkpt>
      <trkpt lat="50.05413" lon="2.25742">
        <ele>136</ele>
        <time>2022-11-30T14:03:41Z</time>
      </trkpt>
      <trkpt lat="50.05412" lon="2.2574">
        <ele>136</ele>
        <time>2022-11-30T14:03:42Z</time>
      </trkpt>
      <trkpt lat="50.05412" lon="2.25739">
        <ele>136</ele>
        <time>2022-11-30T14:03:43Z</time>
      </trkpt>
      <trkpt lat="50.05411" lon="2.25738">
        <ele>136</ele>
        <time>2022-11-30T14:03:44Z</time>
      </trkpt>
      <trkpt lat="50.05411" lon="2.25737">
        <ele>136</ele>
        <time>2022-11-30T14:03:45Z</time>
      </trkpt>
      <trkpt lat="50.0541" lon="2.25735">
        <ele>136</ele>
        <time>2022-11-30T14:03:46Z</time>
      </trkpt>
      <trkpt lat="50.0541" lon="2.25734">
        <ele>136</ele>
        <time>2022-11-30T14:03:47Z</time>
      </trkpt>
      <trkpt lat="50.0541" lon="2.25732">
        <ele>136</ele>
        <time>2022-11-30T14:03:48Z</time>
      </trkpt>
      <trkpt lat="50.05409" lon="2.2573">
        <ele>136</ele>
        <time>2022-11-30T14:03:50Z</time>
      </trkpt>
      <trkpt lat="50.05409" lon="2.25727">
        <ele>136</ele>
        <time>2022-11-30T14:03:51Z</time>
      </trkpt>
      <trkpt lat="50.05408" lon="2.25725">
        <ele>136</ele>
        <time>2022-11-30T14:03:52Z</time>
      </trkpt>
      <trkpt lat="50.05408" lon="2.25723">
        <ele>136</ele>
        <time>2022-11-30T14:03:54Z</time>
      </trkpt>
      <trkpt lat="50.05408" lon="2.25721">
        <ele>136</ele>
        <time>2022-11-30T14:03:55Z</time>
      </trkpt>
      <trkpt lat="50.05408" lon="2.2572">
        <ele>136</ele>
        <time>2022-11-30T14:03:56Z</time>
      </trkpt>
      <trkpt lat="50.05407" lon="2.25718">
        <ele>136</ele>
        <time>2022-11-30T14:03:57Z</time>
      </trkpt>
      <trkpt lat="50.05407" lon="2.25717">
        <ele>136</ele>
        <time>2022-11-30T14:03:58Z</time>
      </trkpt>
      <trkpt lat="50.05407" lon="2.25715">
        <ele>136</ele>
        <time>2022-11-30T14:03:59Z</time>
      </trkpt>
      <trkpt lat="50.05407" lon="2.25713">
        <ele>136</ele>
        <time>2022-11-30T14:04:00Z</time>
      </trkpt>
      <trkpt lat="50.05406" lon="2.25712">
        <ele>136</ele>
        <time>2022-11-30T14:04:01Z</time>
      </trkpt>
      <trkpt lat="50.05406" lon="2.2571">
        <ele>136</ele>
        <time>2022-11-30T14:04:03Z</time>
      </trkpt>
      <trkpt lat="50.05406" lon="2.25708">
        <ele>136</ele>
        <time>2022-11-30T14:04:04Z</time>
      </trkpt>
      <trkpt lat="50.05405" lon="2.25707">
        <ele>136</ele>
        <time>2022-11-30T14:04:05Z</time>
      </trkpt>
      <trkpt lat="50.05404" lon="2.25704">
        <ele>136</ele>
        <time>2022-11-30T14:04:06Z</time>
      </trkpt>
      <trkpt lat="50.05404" lon="2.25702">
        <ele>136</ele>
        <time>2022-11-30T14:04:07Z</time>
      </trkpt>
      <trkpt lat="50.05404" lon="2.25701">
        <ele>136</ele>
        <time>2022-11-30T14:04:08Z</time>
      </trkpt>
      <trkpt lat="50.05404" lon="2.25698">
        <ele>136</ele>
        <time>2022-11-30T14:04:09Z</time>
      </trkpt>
      <trkpt lat="50.05403" lon="2.25697">
        <ele>136</ele>
        <time>2022-11-30T14:04:10Z</time>
      </trkpt>
      <trkpt lat="50.05403" lon="2.25696">
        <ele>136</ele>
        <time>2022-11-30T14:04:11Z</time>
      </trkpt>
      <trkpt lat="50.05403" lon="2.25693">
        <ele>136</ele>
        <time>2022-11-30T14:04:13Z</time>
      </trkpt>
      <trkpt lat="50.05402" lon="2.25691">
        <ele>136</ele>
        <time>2022-11-30T14:04:14Z</time>
      </trkpt>
      <trkpt lat="50.05402" lon="2.2569">
        <ele>136</ele>
        <time>2022-11-30T14:04:15Z</time>
      </trkpt>
      <trkpt lat="50.05402" lon="2.25687">
        <ele>136</ele>
        <time>2022-11-30T14:04:16Z</time>
      </trkpt>
      <trkpt lat="50.05402" lon="2.25686">
        <ele>136</ele>
        <time>2022-11-30T14:04:17Z</time>
      </trkpt>
      <trkpt lat="50.05401" lon="2.25684">
        <ele>136</ele>
        <time>2022-11-30T14:04:18Z</time>
      </trkpt>
      <trkpt lat="50.05401" lon="2.25682">
        <ele>136</ele>
        <time>2022-11-30T14:04:19Z</time>
      </trkpt>
      <trkpt lat="50.05401" lon="2.25681">
        <ele>136</ele>
        <time>2022-11-30T14:04:20Z</time>
      </trkpt>
      <trkpt lat="50.054" lon="2.25679">
        <ele>136</ele>
        <time>2022-11-30T14:04:22Z</time>
      </trkpt>
      <trkpt lat="50.054" lon="2.25678">
        <ele>136</ele>
        <time>2022-11-30T14:04:23Z</time>
      </trkpt>
      <trkpt lat="50.05399" lon="2.25676">
        <ele>136</ele>
        <time>2022-11-30T14:04:24Z</time>
      </trkpt>
      <trkpt lat="50.05399" lon="2.25674">
        <ele>136.1</ele>
        <time>2022-11-30T14:04:25Z</time>
      </trkpt>
      <trkpt lat="50.05398" lon="2.25672">
        <ele>136.1</ele>
        <time>2022-11-30T14:04:26Z</time>
      </trkpt>
      <trkpt lat="50.05398" lon="2.2567">
        <ele>136.1</ele>
        <time>2022-11-30T14:04:27Z</time>
      </trkpt>
      <trkpt lat="50.05397" lon="2.25667">
        <ele>136.1</ele>
        <time>2022-11-30T14:04:28Z</time>
      </trkpt>
      <trkpt lat="50.05396" lon="2.25666">
        <ele>136.1</ele>
        <time>2022-11-30T14:04:29Z</time>
      </trkpt>
      <trkpt lat="50.05396" lon="2.25665">
        <ele>136.1</ele>
        <time>2022-11-30T14:04:30Z</time>
      </trkpt>
      <trkpt lat="50.05396" lon="2.25662">
        <ele>136.1</ele>
        <time>2022-11-30T14:04:32Z</time>
      </trkpt>
      <trkpt lat="50.05395" lon="2.25661">
        <ele>136.1</ele>
        <time>2022-11-30T14:04:33Z</time>
      </trkpt>
      <trkpt lat="50.05395" lon="2.25659">
        <ele>136.1</ele>
        <time>2022-11-30T14:04:34Z</time>
      </trkpt>
      <trkpt lat="50.05395" lon="2.25658">
        <ele>136.1</ele>
        <time>2022-11-30T14:04:35Z</time>
      </trkpt>
      <trkpt lat="50.05394" lon="2.25656">
        <ele>136.1</ele>
        <time>2022-11-30T14:04:36Z</time>
      </trkpt>
      <trkpt lat="50.05393" lon="2.25654">
        <ele>136.1</ele>
        <time>2022-11-30T14:04:37Z</time>
      </trkpt>
      <trkpt lat="50.05392" lon="2.25652">
        <ele>136.1</ele>
        <time>2022-11-30T14:04:38Z</time>
      </trkpt>
      <trkpt lat="50.05392" lon="2.2565">
        <ele>136.1</ele>
        <time>2022-11-30T14:04:39Z</time>
      </trkpt>
      <trkpt lat="50.05392" lon="2.25648">
        <ele>136.1</ele>
        <time>2022-11-30T14:04:40Z</time>
      </trkpt>
      <trkpt lat="50.05391" lon="2.25647">
        <ele>136.1</ele>
        <time>2022-11-30T14:04:41Z</time>
      </trkpt>
      <trkpt lat="50.05391" lon="2.25645">
        <ele>136.1</ele>
        <time>2022-11-30T14:04:43Z</time>
      </trkpt>
      <trkpt lat="50.05391" lon="2.25644">
        <ele>136.1</ele>
        <time>2022-11-30T14:04:44Z</time>
      </trkpt>
      <trkpt lat="50.05391" lon="2.25642">
        <ele>136.1</ele>
        <time>2022-11-30T14:04:45Z</time>
      </trkpt>
      <trkpt lat="50.0539" lon="2.25641">
        <ele>136.1</ele>
        <time>2022-11-30T14:04:46Z</time>
      </trkpt>
      <trkpt lat="50.0539" lon="2.25639">
        <ele>136.1</ele>
        <time>2022-11-30T14:04:47Z</time>
      </trkpt>
      <trkpt lat="50.0539" lon="2.25638">
        <ele>136.1</ele>
        <time>2022-11-30T14:04:48Z</time>
      </trkpt>
      <trkpt lat="50.05389" lon="2.25634">
        <ele>136.1</ele>
        <time>2022-11-30T14:04:49Z</time>
      </trkpt>
      <trkpt lat="50.05389" lon="2.25633">
        <ele>136.1</ele>
        <time>2022-11-30T14:04:50Z</time>
      </trkpt>
      <trkpt lat="50.05389" lon="2.25631">
        <ele>136.1</ele>
        <time>2022-11-30T14:04:51Z</time>
      </trkpt>
      <trkpt lat="50.05389" lon="2.2563">
        <ele>136.1</ele>
        <time>2022-11-30T14:04:52Z</time>
      </trkpt>
      <trkpt lat="50.05388" lon="2.25628">
        <ele>136.1</ele>
        <time>2022-11-30T14:04:54Z</time>
      </trkpt>
      <trkpt lat="50.05388" lon="2.25626">
        <ele>136.1</ele>
        <time>2022-11-30T14:04:55Z</time>
      </trkpt>
      <trkpt lat="50.05388" lon="2.25625">
        <ele>136.1</ele>
        <time>2022-11-30T14:04:56Z</time>
      </trkpt>
      <trkpt lat="50.05388" lon="2.25623">
        <ele>136.1</ele>
        <time>2022-11-30T14:04:57Z</time>
      </trkpt>
      <trkpt lat="50.05387" lon="2.25621">
        <ele>136.1</ele>
        <time>2022-11-30T14:04:58Z</time>
      </trkpt>
      <trkpt lat="50.05387" lon="2.2562">
        <ele>136.1</ele>
        <time>2022-11-30T14:04:59Z</time>
      </trkpt>
      <trkpt lat="50.05387" lon="2.25618">
        <ele>136.1</ele>
        <time>2022-11-30T14:05:00Z</time>
      </trkpt>
      <trkpt lat="50.05387" lon="2.25616">
        <ele>136.1</ele>
        <time>2022-11-30T14:05:01Z</time>
      </trkpt>
      <trkpt lat="50.05387" lon="2.25614">
        <ele>136.1</ele>
        <time>2022-11-30T14:05:02Z</time>
      </trkpt>
      <trkpt lat="50.05386" lon="2.25612">
        <ele>136.1</ele>
        <time>2022-11-30T14:05:03Z</time>
      </trkpt>
      <trkpt lat="50.05386" lon="2.25611">
        <ele>136.1</ele>
        <time>2022-11-30T14:05:05Z</time>
      </trkpt>
      <trkpt lat="50.05386" lon="2.25609">
        <ele>136.2</ele>
        <time>2022-11-30T14:05:06Z</time>
      </trkpt>
      <trkpt lat="50.05386" lon="2.25607">
        <ele>136.1</ele>
        <time>2022-11-30T14:05:07Z</time>
      </trkpt>
      <trkpt lat="50.05385" lon="2.25605">
        <ele>136.1</ele>
        <time>2022-11-30T14:05:08Z</time>
      </trkpt>
      <trkpt lat="50.05385" lon="2.25604">
        <ele>136.1</ele>
        <time>2022-11-30T14:05:09Z</time>
      </trkpt>
      <trkpt lat="50.05385" lon="2.25602">
        <ele>136.1</ele>
        <time>2022-11-30T14:05:10Z</time>
      </trkpt>
      <trkpt lat="50.05384" lon="2.256">
        <ele>136.1</ele>
        <time>2022-11-30T14:05:11Z</time>
      </trkpt>
      <trkpt lat="50.05384" lon="2.25598">
        <ele>136.1</ele>
        <time>2022-11-30T14:05:12Z</time>
      </trkpt>
      <trkpt lat="50.05383" lon="2.25596">
        <ele>136.2</ele>
        <time>2022-11-30T14:05:14Z</time>
      </trkpt>
      <trkpt lat="50.05383" lon="2.25593">
        <ele>136.2</ele>
        <time>2022-11-30T14:05:15Z</time>
      </trkpt>
      <trkpt lat="50.05383" lon="2.25591">
        <ele>136.2</ele>
        <time>2022-11-30T14:05:17Z</time>
      </trkpt>
      <trkpt lat="50.05382" lon="2.25589">
        <ele>136.2</ele>
        <time>2022-11-30T14:05:18Z</time>
      </trkpt>
      <trkpt lat="50.05382" lon="2.25587">
        <ele>136.2</ele>
        <time>2022-11-30T14:05:19Z</time>
      </trkpt>
      <trkpt lat="50.05381" lon="2.25583">
        <ele>136.2</ele>
        <time>2022-11-30T14:05:20Z</time>
      </trkpt>
      <trkpt lat="50.05381" lon="2.25582">
        <ele>136.2</ele>
        <time>2022-11-30T14:05:21Z</time>
      </trkpt>
      <trkpt lat="50.05381" lon="2.2558">
        <ele>136.3</ele>
        <time>2022-11-30T14:05:22Z</time>
      </trkpt>
      <trkpt lat="50.05381" lon="2.25578">
        <ele>136.3</ele>
        <time>2022-11-30T14:05:23Z</time>
      </trkpt>
      <trkpt lat="50.0538" lon="2.25576">
        <ele>136.3</ele>
        <time>2022-11-30T14:05:25Z</time>
      </trkpt>
      <trkpt lat="50.0538" lon="2.25575">
        <ele>136.3</ele>
        <time>2022-11-30T14:05:26Z</time>
      </trkpt>
      <trkpt lat="50.0538" lon="2.25573">
        <ele>136.3</ele>
        <time>2022-11-30T14:05:27Z</time>
      </trkpt>
      <trkpt lat="50.05379" lon="2.25572">
        <ele>136.3</ele>
        <time>2022-11-30T14:05:28Z</time>
      </trkpt>
      <trkpt lat="50.05379" lon="2.2557">
        <ele>136.3</ele>
        <time>2022-11-30T14:05:29Z</time>
      </trkpt>
      <trkpt lat="50.05379" lon="2.25568">
        <ele>136.3</ele>
        <time>2022-11-30T14:05:30Z</time>
      </trkpt>
      <trkpt lat="50.05378" lon="2.25567">
        <ele>136.4</ele>
        <time>2022-11-30T14:05:31Z</time>
      </trkpt>
      <trkpt lat="50.05378" lon="2.25565">
        <ele>136.4</ele>
        <time>2022-11-30T14:05:32Z</time>
      </trkpt>
      <trkpt lat="50.05378" lon="2.25563">
        <ele>136.4</ele>
        <time>2022-11-30T14:05:33Z</time>
      </trkpt>
      <trkpt lat="50.05377" lon="2.25561">
        <ele>136.4</ele>
        <time>2022-11-30T14:05:34Z</time>
      </trkpt>
      <trkpt lat="50.05377" lon="2.2556">
        <ele>136.4</ele>
        <time>2022-11-30T14:05:36Z</time>
      </trkpt>
      <trkpt lat="50.05377" lon="2.25559">
        <ele>136.4</ele>
        <time>2022-11-30T14:05:37Z</time>
      </trkpt>
      <trkpt lat="50.05377" lon="2.25557">
        <ele>136.4</ele>
        <time>2022-11-30T14:05:38Z</time>
      </trkpt>
      <trkpt lat="50.05376" lon="2.25555">
        <ele>136.4</ele>
        <time>2022-11-30T14:05:39Z</time>
      </trkpt>
      <trkpt lat="50.05376" lon="2.25553">
        <ele>136.5</ele>
        <time>2022-11-30T14:05:40Z</time>
      </trkpt>
      <trkpt lat="50.05376" lon="2.25552">
        <ele>136.5</ele>
        <time>2022-11-30T14:05:41Z</time>
      </trkpt>
      <trkpt lat="50.05376" lon="2.2555">
        <ele>136.5</ele>
        <time>2022-11-30T14:05:42Z</time>
      </trkpt>
      <trkpt lat="50.05375" lon="2.25548">
        <ele>136.5</ele>
        <time>2022-11-30T14:05:43Z</time>
      </trkpt>
      <trkpt lat="50.05375" lon="2.25546">
        <ele>136.5</ele>
        <time>2022-11-30T14:05:44Z</time>
      </trkpt>
      <trkpt lat="50.05375" lon="2.25544">
        <ele>136.5</ele>
        <time>2022-11-30T14:05:46Z</time>
      </trkpt>
      <trkpt lat="50.05374" lon="2.25542">
        <ele>136.6</ele>
        <time>2022-11-30T14:05:47Z</time>
      </trkpt>
      <trkpt lat="50.05374" lon="2.25541">
        <ele>136.6</ele>
        <time>2022-11-30T14:05:48Z</time>
      </trkpt>
      <trkpt lat="50.05373" lon="2.25538">
        <ele>136.6</ele>
        <time>2022-11-30T14:05:49Z</time>
      </trkpt>
      <trkpt lat="50.05373" lon="2.25536">
        <ele>136.6</ele>
        <time>2022-11-30T14:05:50Z</time>
      </trkpt>
      <trkpt lat="50.05373" lon="2.25535">
        <ele>136.6</ele>
        <time>2022-11-30T14:05:51Z</time>
      </trkpt>
      <trkpt lat="50.05372" lon="2.25533">
        <ele>136.7</ele>
        <time>2022-11-30T14:05:52Z</time>
      </trkpt>
      <trkpt lat="50.05372" lon="2.25531">
        <ele>136.7</ele>
        <time>2022-11-30T14:05:53Z</time>
      </trkpt>
      <trkpt lat="50.05371" lon="2.25529">
        <ele>136.7</ele>
        <time>2022-11-30T14:05:54Z</time>
      </trkpt>
      <trkpt lat="50.05371" lon="2.25528">
        <ele>136.7</ele>
        <time>2022-11-30T14:05:55Z</time>
      </trkpt>
      <trkpt lat="50.05371" lon="2.25526">
        <ele>136.7</ele>
        <time>2022-11-30T14:05:56Z</time>
      </trkpt>
      <trkpt lat="50.0537" lon="2.25524">
        <ele>136.8</ele>
        <time>2022-11-30T14:05:58Z</time>
      </trkpt>
      <trkpt lat="50.0537" lon="2.25522">
        <ele>136.8</ele>
        <time>2022-11-30T14:05:59Z</time>
      </trkpt>
      <trkpt lat="50.05369" lon="2.25521">
        <ele>136.8</ele>
        <time>2022-11-30T14:06:00Z</time>
      </trkpt>
      <trkpt lat="50.05369" lon="2.2552">
        <ele>136.8</ele>
        <time>2022-11-30T14:06:01Z</time>
      </trkpt>
      <trkpt lat="50.05368" lon="2.25518">
        <ele>136.8</ele>
        <time>2022-11-30T14:06:02Z</time>
      </trkpt>
      <trkpt lat="50.05368" lon="2.25516">
        <ele>136.8</ele>
        <time>2022-11-30T14:06:03Z</time>
      </trkpt>
      <trkpt lat="50.05368" lon="2.25515">
        <ele>136.8</ele>
        <time>2022-11-30T14:06:04Z</time>
      </trkpt>
      <trkpt lat="50.05367" lon="2.25513">
        <ele>136.8</ele>
        <time>2022-11-30T14:06:05Z</time>
      </trkpt>
      <trkpt lat="50.05367" lon="2.25511">
        <ele>136.9</ele>
        <time>2022-11-30T14:06:07Z</time>
      </trkpt>
      <trkpt lat="50.05366" lon="2.25508">
        <ele>136.9</ele>
        <time>2022-11-30T14:06:08Z</time>
      </trkpt>
      <trkpt lat="50.05366" lon="2.25507">
        <ele>137</ele>
        <time>2022-11-30T14:06:09Z</time>
      </trkpt>
      <trkpt lat="50.05366" lon="2.25505">
        <ele>137</ele>
        <time>2022-11-30T14:06:10Z</time>
      </trkpt>
      <trkpt lat="50.05365" lon="2.25502">
        <ele>137</ele>
        <time>2022-11-30T14:06:11Z</time>
      </trkpt>
      <trkpt lat="50.05365" lon="2.25501">
        <ele>137</ele>
        <time>2022-11-30T14:06:12Z</time>
      </trkpt>
      <trkpt lat="50.05365" lon="2.255">
        <ele>137</ele>
        <time>2022-11-30T14:06:13Z</time>
      </trkpt>
      <trkpt lat="50.05364" lon="2.25496">
        <ele>137</ele>
        <time>2022-11-30T14:06:14Z</time>
      </trkpt>
      <trkpt lat="50.05364" lon="2.25494">
        <ele>137.1</ele>
        <time>2022-11-30T14:06:16Z</time>
      </trkpt>
      <trkpt lat="50.05363" lon="2.25492">
        <ele>137.1</ele>
        <time>2022-11-30T14:06:17Z</time>
      </trkpt>
      <trkpt lat="50.05363" lon="2.25491">
        <ele>137.2</ele>
        <time>2022-11-30T14:06:18Z</time>
      </trkpt>
      <trkpt lat="50.05362" lon="2.25489">
        <ele>137.2</ele>
        <time>2022-11-30T14:06:19Z</time>
      </trkpt>
      <trkpt lat="50.05362" lon="2.25486">
        <ele>137.2</ele>
        <time>2022-11-30T14:06:20Z</time>
      </trkpt>
      <trkpt lat="50.05362" lon="2.25484">
        <ele>137.2</ele>
        <time>2022-11-30T14:06:21Z</time>
      </trkpt>
      <trkpt lat="50.05361" lon="2.2548">
        <ele>137.2</ele>
        <time>2022-11-30T14:06:22Z</time>
      </trkpt>
      <trkpt lat="50.05361" lon="2.25479">
        <ele>137.2</ele>
        <time>2022-11-30T14:06:24Z</time>
      </trkpt>
      <trkpt lat="50.0536" lon="2.25477">
        <ele>137.3</ele>
        <time>2022-11-30T14:06:25Z</time>
      </trkpt>
      <trkpt lat="50.0536" lon="2.25475">
        <ele>137.4</ele>
        <time>2022-11-30T14:06:27Z</time>
      </trkpt>
      <trkpt lat="50.05359" lon="2.25473">
        <ele>137.4</ele>
        <time>2022-11-30T14:06:28Z</time>
      </trkpt>
      <trkpt lat="50.05359" lon="2.25471">
        <ele>137.4</ele>
        <time>2022-11-30T14:06:29Z</time>
      </trkpt>
      <trkpt lat="50.05359" lon="2.25469">
        <ele>137.4</ele>
        <time>2022-11-30T14:06:30Z</time>
      </trkpt>
      <trkpt lat="50.05358" lon="2.25468">
        <ele>137.4</ele>
        <time>2022-11-30T14:06:31Z</time>
      </trkpt>
      <trkpt lat="50.05358" lon="2.25466">
        <ele>137.4</ele>
        <time>2022-11-30T14:06:32Z</time>
      </trkpt>
      <trkpt lat="50.05358" lon="2.25465">
        <ele>137.5</ele>
        <time>2022-11-30T14:06:33Z</time>
      </trkpt>
      <trkpt lat="50.05357" lon="2.25461">
        <ele>137.5</ele>
        <time>2022-11-30T14:06:34Z</time>
      </trkpt>
      <trkpt lat="50.05357" lon="2.2546">
        <ele>137.6</ele>
        <time>2022-11-30T14:06:35Z</time>
      </trkpt>
      <trkpt lat="50.05357" lon="2.25458">
        <ele>137.6</ele>
        <time>2022-11-30T14:06:37Z</time>
      </trkpt>
      <trkpt lat="50.05356" lon="2.25457">
        <ele>137.6</ele>
        <time>2022-11-30T14:06:38Z</time>
      </trkpt>
      <trkpt lat="50.05356" lon="2.25455">
        <ele>137.6</ele>
        <time>2022-11-30T14:06:39Z</time>
      </trkpt>
      <trkpt lat="50.05356" lon="2.25454">
        <ele>137.6</ele>
        <time>2022-11-30T14:06:40Z</time>
      </trkpt>
      <trkpt lat="50.05356" lon="2.25451">
        <ele>137.6</ele>
        <time>2022-11-30T14:06:42Z</time>
      </trkpt>
      <trkpt lat="50.05355" lon="2.25449">
        <ele>137.7</ele>
        <time>2022-11-30T14:06:43Z</time>
      </trkpt>
      <trkpt lat="50.05355" lon="2.25448">
        <ele>137.7</ele>
        <time>2022-11-30T14:06:44Z</time>
      </trkpt>
      <trkpt lat="50.05355" lon="2.25446">
        <ele>137.7</ele>
        <time>2022-11-30T14:06:45Z</time>
      </trkpt>
      <trkpt lat="50.05355" lon="2.25445">
        <ele>137.7</ele>
        <time>2022-11-30T14:06:46Z</time>
      </trkpt>
      <trkpt lat="50.05354" lon="2.25443">
        <ele>137.7</ele>
        <time>2022-11-30T14:06:47Z</time>
      </trkpt>
      <trkpt lat="50.05354" lon="2.25442">
        <ele>137.7</ele>
        <time>2022-11-30T14:06:48Z</time>
      </trkpt>
      <trkpt lat="50.05354" lon="2.2544">
        <ele>137.7</ele>
        <time>2022-11-30T14:06:49Z</time>
      </trkpt>
      <trkpt lat="50.05353" lon="2.25437">
        <ele>137.8</ele>
        <time>2022-11-30T14:06:50Z</time>
      </trkpt>
      <trkpt lat="50.05353" lon="2.25435">
        <ele>137.9</ele>
        <time>2022-11-30T14:06:51Z</time>
      </trkpt>
      <trkpt lat="50.05353" lon="2.25434">
        <ele>137.9</ele>
        <time>2022-11-30T14:06:52Z</time>
      </trkpt>
      <trkpt lat="50.05353" lon="2.25432">
        <ele>137.9</ele>
        <time>2022-11-30T14:06:54Z</time>
      </trkpt>
      <trkpt lat="50.05353" lon="2.25429">
        <ele>137.9</ele>
        <time>2022-11-30T14:06:55Z</time>
      </trkpt>
      <trkpt lat="50.05353" lon="2.25428">
        <ele>137.9</ele>
        <time>2022-11-30T14:06:56Z</time>
      </trkpt>
      <trkpt lat="50.05353" lon="2.25426">
        <ele>137.9</ele>
        <time>2022-11-30T14:06:57Z</time>
      </trkpt>
      <trkpt lat="50.05352" lon="2.25424">
        <ele>137.9</ele>
        <time>2022-11-30T14:06:58Z</time>
      </trkpt>
      <trkpt lat="50.05351" lon="2.25421">
        <ele>137.9</ele>
        <time>2022-11-30T14:06:59Z</time>
      </trkpt>
      <trkpt lat="50.05351" lon="2.25419">
        <ele>137.9</ele>
        <time>2022-11-30T14:07:00Z</time>
      </trkpt>
      <trkpt lat="50.05351" lon="2.25418">
        <ele>137.9</ele>
        <time>2022-11-30T14:07:01Z</time>
      </trkpt>
      <trkpt lat="50.0535" lon="2.25416">
        <ele>137.9</ele>
        <time>2022-11-30T14:07:02Z</time>
      </trkpt>
      <trkpt lat="50.05349" lon="2.25414">
        <ele>137.9</ele>
        <time>2022-11-30T14:07:03Z</time>
      </trkpt>
      <trkpt lat="50.05349" lon="2.25412">
        <ele>137.9</ele>
        <time>2022-11-30T14:07:04Z</time>
      </trkpt>
      <trkpt lat="50.05348" lon="2.25409">
        <ele>137.9</ele>
        <time>2022-11-30T14:07:05Z</time>
      </trkpt>
      <trkpt lat="50.05348" lon="2.25407">
        <ele>137.9</ele>
        <time>2022-11-30T14:07:06Z</time>
      </trkpt>
      <trkpt lat="50.05348" lon="2.25405">
        <ele>137.9</ele>
        <time>2022-11-30T14:07:08Z</time>
      </trkpt>
      <trkpt lat="50.05348" lon="2.25403">
        <ele>137.9</ele>
        <time>2022-11-30T14:07:09Z</time>
      </trkpt>
      <trkpt lat="50.05347" lon="2.25402">
        <ele>137.9</ele>
        <time>2022-11-30T14:07:10Z</time>
      </trkpt>
      <trkpt lat="50.05347" lon="2.25401">
        <ele>137.9</ele>
        <time>2022-11-30T14:07:11Z</time>
      </trkpt>
      <trkpt lat="50.05347" lon="2.25399">
        <ele>137.9</ele>
        <time>2022-11-30T14:07:12Z</time>
      </trkpt>
      <trkpt lat="50.05346" lon="2.25398">
        <ele>137.9</ele>
        <time>2022-11-30T14:07:13Z</time>
      </trkpt>
      <trkpt lat="50.05346" lon="2.25396">
        <ele>137.9</ele>
        <time>2022-11-30T14:07:14Z</time>
      </trkpt>
      <trkpt lat="50.05345" lon="2.25393">
        <ele>138</ele>
        <time>2022-11-30T14:07:15Z</time>
      </trkpt>
      <trkpt lat="50.05345" lon="2.25391">
        <ele>138</ele>
        <time>2022-11-30T14:07:16Z</time>
      </trkpt>
      <trkpt lat="50.05345" lon="2.2539">
        <ele>138</ele>
        <time>2022-11-30T14:07:17Z</time>
      </trkpt>
      <trkpt lat="50.05344" lon="2.25388">
        <ele>138</ele>
        <time>2022-11-30T14:07:18Z</time>
      </trkpt>
      <trkpt lat="50.05344" lon="2.25386">
        <ele>138</ele>
        <time>2022-11-30T14:07:20Z</time>
      </trkpt>
      <trkpt lat="50.05344" lon="2.25384">
        <ele>138</ele>
        <time>2022-11-30T14:07:21Z</time>
      </trkpt>
      <trkpt lat="50.05344" lon="2.25382">
        <ele>138</ele>
        <time>2022-11-30T14:07:22Z</time>
      </trkpt>
      <trkpt lat="50.05344" lon="2.25381">
        <ele>138</ele>
        <time>2022-11-30T14:07:23Z</time>
      </trkpt>
      <trkpt lat="50.05343" lon="2.2538">
        <ele>138</ele>
        <time>2022-11-30T14:07:24Z</time>
      </trkpt>
      <trkpt lat="50.05343" lon="2.25378">
        <ele>138</ele>
        <time>2022-11-30T14:07:25Z</time>
      </trkpt>
      <trkpt lat="50.05343" lon="2.25376">
        <ele>138</ele>
        <time>2022-11-30T14:07:26Z</time>
      </trkpt>
      <trkpt lat="50.05342" lon="2.25375">
        <ele>138</ele>
        <time>2022-11-30T14:07:27Z</time>
      </trkpt>
      <trkpt lat="50.05342" lon="2.25373">
        <ele>138</ele>
        <time>2022-11-30T14:07:28Z</time>
      </trkpt>
      <trkpt lat="50.05342" lon="2.25372">
        <ele>138</ele>
        <time>2022-11-30T14:07:29Z</time>
      </trkpt>
      <trkpt lat="50.05342" lon="2.2537">
        <ele>138</ele>
        <time>2022-11-30T14:07:31Z</time>
      </trkpt>
      <trkpt lat="50.05341" lon="2.25368">
        <ele>138</ele>
        <time>2022-11-30T14:07:32Z</time>
      </trkpt>
      <trkpt lat="50.05341" lon="2.25367">
        <ele>138</ele>
        <time>2022-11-30T14:07:33Z</time>
      </trkpt>
      <trkpt lat="50.05341" lon="2.25365">
        <ele>138</ele>
        <time>2022-11-30T14:07:34Z</time>
      </trkpt>
      <trkpt lat="50.05341" lon="2.25363">
        <ele>138</ele>
        <time>2022-11-30T14:07:35Z</time>
      </trkpt>
      <trkpt lat="50.0534" lon="2.25362">
        <ele>138</ele>
        <time>2022-11-30T14:07:36Z</time>
      </trkpt>
      <trkpt lat="50.05339" lon="2.25359">
        <ele>138</ele>
        <time>2022-11-30T14:07:37Z</time>
      </trkpt>
      <trkpt lat="50.05339" lon="2.25358">
        <ele>138</ele>
        <time>2022-11-30T14:07:38Z</time>
      </trkpt>
      <trkpt lat="50.05339" lon="2.25357">
        <ele>138</ele>
        <time>2022-11-30T14:07:39Z</time>
      </trkpt>
      <trkpt lat="50.05338" lon="2.25355">
        <ele>138</ele>
        <time>2022-11-30T14:07:40Z</time>
      </trkpt>
      <trkpt lat="50.05338" lon="2.25353">
        <ele>138</ele>
        <time>2022-11-30T14:07:41Z</time>
      </trkpt>
      <trkpt lat="50.05338" lon="2.25351">
        <ele>138</ele>
        <time>2022-11-30T14:07:43Z</time>
      </trkpt>
      <trkpt lat="50.05338" lon="2.25349">
        <ele>138</ele>
        <time>2022-11-30T14:07:44Z</time>
      </trkpt>
      <trkpt lat="50.05337" lon="2.25347">
        <ele>137.9</ele>
        <time>2022-11-30T14:07:45Z</time>
      </trkpt>
      <trkpt lat="50.05337" lon="2.25346">
        <ele>137.9</ele>
        <time>2022-11-30T14:07:46Z</time>
      </trkpt>
      <trkpt lat="50.05337" lon="2.25344">
        <ele>137.9</ele>
        <time>2022-11-30T14:07:47Z</time>
      </trkpt>
      <trkpt lat="50.05336" lon="2.25343">
        <ele>138</ele>
        <time>2022-11-30T14:07:48Z</time>
      </trkpt>
      <trkpt lat="50.05336" lon="2.25341">
        <ele>138</ele>
        <time>2022-11-30T14:07:49Z</time>
      </trkpt>
      <trkpt lat="50.05335" lon="2.2534">
        <ele>137.9</ele>
        <time>2022-11-30T14:07:50Z</time>
      </trkpt>
      <trkpt lat="50.05335" lon="2.25338">
        <ele>137.9</ele>
        <time>2022-11-30T14:07:51Z</time>
      </trkpt>
      <trkpt lat="50.05334" lon="2.25336">
        <ele>137.9</ele>
        <time>2022-11-30T14:07:53Z</time>
      </trkpt>
      <trkpt lat="50.05334" lon="2.25334">
        <ele>137.9</ele>
        <time>2022-11-30T14:07:54Z</time>
      </trkpt>
      <trkpt lat="50.05333" lon="2.25332">
        <ele>138</ele>
        <time>2022-11-30T14:07:55Z</time>
      </trkpt>
      <trkpt lat="50.05333" lon="2.25331">
        <ele>137.9</ele>
        <time>2022-11-30T14:07:56Z</time>
      </trkpt>
      <trkpt lat="50.05333" lon="2.25329">
        <ele>137.9</ele>
        <time>2022-11-30T14:07:57Z</time>
      </trkpt>
      <trkpt lat="50.05332" lon="2.25328">
        <ele>137.9</ele>
        <time>2022-11-30T14:07:58Z</time>
      </trkpt>
      <trkpt lat="50.05332" lon="2.25326">
        <ele>137.9</ele>
        <time>2022-11-30T14:07:59Z</time>
      </trkpt>
      <trkpt lat="50.05332" lon="2.25325">
        <ele>137.9</ele>
        <time>2022-11-30T14:08:00Z</time>
      </trkpt>
      <trkpt lat="50.05332" lon="2.25324">
        <ele>137.9</ele>
        <time>2022-11-30T14:08:02Z</time>
      </trkpt>
      <trkpt lat="50.05332" lon="2.25322">
        <ele>137.9</ele>
        <time>2022-11-30T14:08:03Z</time>
      </trkpt>
      <trkpt lat="50.05331" lon="2.25321">
        <ele>137.9</ele>
        <time>2022-11-30T14:08:04Z</time>
      </trkpt>
      <trkpt lat="50.05331" lon="2.2532">
        <ele>138</ele>
        <time>2022-11-30T14:08:05Z</time>
      </trkpt>
      <trkpt lat="50.05331" lon="2.25318">
        <ele>137.9</ele>
        <time>2022-11-30T14:08:06Z</time>
      </trkpt>
      <trkpt lat="50.0533" lon="2.25317">
        <ele>137.9</ele>
        <time>2022-11-30T14:08:07Z</time>
      </trkpt>
      <trkpt lat="50.0533" lon="2.25315">
        <ele>137.9</ele>
        <time>2022-11-30T14:08:09Z</time>
      </trkpt>
      <trkpt lat="50.05329" lon="2.25314">
        <ele>137.9</ele>
        <time>2022-11-30T14:08:10Z</time>
      </trkpt>
      <trkpt lat="50.05329" lon="2.25312">
        <ele>137.9</ele>
        <time>2022-11-30T14:08:11Z</time>
      </trkpt>
      <trkpt lat="50.05328" lon="2.25309">
        <ele>137.9</ele>
        <time>2022-11-30T14:08:12Z</time>
      </trkpt>
      <trkpt lat="50.05328" lon="2.25308">
        <ele>137.9</ele>
        <time>2022-11-30T14:08:13Z</time>
      </trkpt>
      <trkpt lat="50.05327" lon="2.25307">
        <ele>137.9</ele>
        <time>2022-11-30T14:08:14Z</time>
      </trkpt>
      <trkpt lat="50.05327" lon="2.25304">
        <ele>137.9</ele>
        <time>2022-11-30T14:08:15Z</time>
      </trkpt>
      <trkpt lat="50.05327" lon="2.25302">
        <ele>137.9</ele>
        <time>2022-11-30T14:08:17Z</time>
      </trkpt>
      <trkpt lat="50.05327" lon="2.25301">
        <ele>137.9</ele>
        <time>2022-11-30T14:08:18Z</time>
      </trkpt>
      <trkpt lat="50.05326" lon="2.25299">
        <ele>137.9</ele>
        <time>2022-11-30T14:08:19Z</time>
      </trkpt>
      <trkpt lat="50.05326" lon="2.25298">
        <ele>137.9</ele>
        <time>2022-11-30T14:08:20Z</time>
      </trkpt>
      <trkpt lat="50.05326" lon="2.25297">
        <ele>137.9</ele>
        <time>2022-11-30T14:08:21Z</time>
      </trkpt>
      <trkpt lat="50.05325" lon="2.25295">
        <ele>137.9</ele>
        <time>2022-11-30T14:08:23Z</time>
      </trkpt>
      <trkpt lat="50.05325" lon="2.25293">
        <ele>137.9</ele>
        <time>2022-11-30T14:08:24Z</time>
      </trkpt>
      <trkpt lat="50.05325" lon="2.25292">
        <ele>137.9</ele>
        <time>2022-11-30T14:08:25Z</time>
      </trkpt>
      <trkpt lat="50.05325" lon="2.25291">
        <ele>137.9</ele>
        <time>2022-11-30T14:08:26Z</time>
      </trkpt>
      <trkpt lat="50.05325" lon="2.2529">
        <ele>137.9</ele>
        <time>2022-11-30T14:08:27Z</time>
      </trkpt>
      <trkpt lat="50.05325" lon="2.25288">
        <ele>137.9</ele>
        <time>2022-11-30T14:08:28Z</time>
      </trkpt>
      <trkpt lat="50.05325" lon="2.25287">
        <ele>137.9</ele>
        <time>2022-11-30T14:08:29Z</time>
      </trkpt>
      <trkpt lat="50.05326" lon="2.25286">
        <ele>137.9</ele>
        <time>2022-11-30T14:08:30Z</time>
      </trkpt>
      <trkpt lat="50.05326" lon="2.25285">
        <ele>137.9</ele>
        <time>2022-11-30T14:08:31Z</time>
      </trkpt>
      <trkpt lat="50.05326" lon="2.25285">
        <ele>137.9</ele>
        <time>2022-11-30T14:08:32Z</time>
      </trkpt>
      <trkpt lat="50.05326" lon="2.25284">
        <ele>137.9</ele>
        <time>2022-11-30T14:08:33Z</time>
      </trkpt>
      <trkpt lat="50.05327" lon="2.25284">
        <ele>137.9</ele>
        <time>2022-11-30T14:08:34Z</time>
      </trkpt>
      <trkpt lat="50.05327" lon="2.25284">
        <ele>137.9</ele>
        <time>2022-11-30T14:08:35Z</time>
      </trkpt>
      <trkpt lat="50.05327" lon="2.25284">
        <ele>137.9</ele>
        <time>2022-11-30T14:08:36Z</time>
      </trkpt>
      <trkpt lat="50.05327" lon="2.25284">
        <ele>137.9</ele>
        <time>2022-11-30T14:08:37Z</time>
      </trkpt>
      <trkpt lat="50.05327" lon="2.25284">
        <ele>137.9</ele>
        <time>2022-11-30T14:08:38Z</time>
      </trkpt>
      <trkpt lat="50.05327" lon="2.25284">
        <ele>137.9</ele>
        <time>2022-11-30T14:08:39Z</time>
      </trkpt>
      <trkpt lat="50.05327" lon="2.25284">
        <ele>137.9</ele>
        <time>2022-11-30T14:08:40Z</time>
      </trkpt>
      <trkpt lat="50.05327" lon="2.25284">
        <ele>137.9</ele>
        <time>2022-11-30T14:08:41Z</time>
      </trkpt>
      <trkpt lat="50.05327" lon="2.25285">
        <ele>137.9</ele>
        <time>2022-11-30T14:08:42Z</time>
      </trkpt>
      <trkpt lat="50.05327" lon="2.25285">
        <ele>137.9</ele>
        <time>2022-11-30T14:08:43Z</time>
      </trkpt>
      <trkpt lat="50.05327" lon="2.25285">
        <ele>137.9</ele>
        <time>2022-11-30T14:08:44Z</time>
      </trkpt>
      <trkpt lat="50.05327" lon="2.25285">
        <ele>137.9</ele>
        <time>2022-11-30T14:08:45Z</time>
      </trkpt>
      <trkpt lat="50.05327" lon="2.25285">
        <ele>137.9</ele>
        <time>2022-11-30T14:08:46Z</time>
      </trkpt>
      <trkpt lat="50.05327" lon="2.25285">
        <ele>137.9</ele>
        <time>2022-11-30T14:08:47Z</time>
      </trkpt>
      <trkpt lat="50.05327" lon="2.25286">
        <ele>137.9</ele>
        <time>2022-11-30T14:08:48Z</time>
      </trkpt>
      <trkpt lat="50.05327" lon="2.25286">
        <ele>137.9</ele>
        <time>2022-11-30T14:08:49Z</time>
      </trkpt>
      <trkpt lat="50.05327" lon="2.25286">
        <ele>137.9</ele>
        <time>2022-11-30T14:08:50Z</time>
      </trkpt>
      <trkpt lat="50.05327" lon="2.25286">
        <ele>137.9</ele>
        <time>2022-11-30T14:08:51Z</time>
      </trkpt>
      <trkpt lat="50.05327" lon="2.25286">
        <ele>137.9</ele>
        <time>2022-11-30T14:08:52Z</time>
      </trkpt>
      <trkpt lat="50.05327" lon="2.25286">
        <ele>137.9</ele>
        <time>2022-11-30T14:08:53Z</time>
      </trkpt>
      <trkpt lat="50.05327" lon="2.25286">
        <ele>137.9</ele>
        <time>2022-11-30T14:08:54Z</time>
      </trkpt>
      <trkpt lat="50.05327" lon="2.25286">
        <ele>137.9</ele>
        <time>2022-11-30T14:08:55Z</time>
      </trkpt>
      <trkpt lat="50.05327" lon="2.25286">
        <ele>137.9</ele>
        <time>2022-11-30T14:08:56Z</time>
      </trkpt>
      <trkpt lat="50.05327" lon="2.25286">
        <ele>137.9</ele>
        <time>2022-11-30T14:08:57Z</time>
      </trkpt>
      <trkpt lat="50.05327" lon="2.25286">
        <ele>137.9</ele>
        <time>2022-11-30T14:08:58Z</time>
      </trkpt>
      <trkpt lat="50.05327" lon="2.25286">
        <ele>137.9</ele>
        <time>2022-11-30T14:08:59Z</time>
      </trkpt>
      <trkpt lat="50.05327" lon="2.25286">
        <ele>137.9</ele>
        <time>2022-11-30T14:09:00Z</time>
      </trkpt>
      <trkpt lat="50.05327" lon="2.25286">
        <ele>137.9</ele>
        <time>2022-11-30T14:09:01Z</time>
      </trkpt>
      <trkpt lat="50.05327" lon="2.25286">
        <ele>137.9</ele>
        <time>2022-11-30T14:09:02Z</time>
      </trkpt>
      <trkpt lat="50.05327" lon="2.25286">
        <ele>137.9</ele>
        <time>2022-11-30T14:09:03Z</time>
      </trkpt>
      <trkpt lat="50.05327" lon="2.25286">
        <ele>137.9</ele>
        <time>2022-11-30T14:09:04Z</time>
      </trkpt>
      <trkpt lat="50.05327" lon="2.25286">
        <ele>137.9</ele>
        <time>2022-11-30T14:09:05Z</time>
      </trkpt>
      <trkpt lat="50.05327" lon="2.25286">
        <ele>137.9</ele>
        <time>2022-11-30T14:09:06Z</time>
      </trkpt>
      <trkpt lat="50.05327" lon="2.25286">
        <ele>137.9</ele>
        <time>2022-11-30T14:09:07Z</time>
      </trkpt>
      <trkpt lat="50.05327" lon="2.25286">
        <ele>137.9</ele>
        <time>2022-11-30T14:09:08Z</time>
      </trkpt>
      <trkpt lat="50.05327" lon="2.25286">
        <ele>137.9</ele>
        <time>2022-11-30T14:09:09Z</time>
      </trkpt>
      <trkpt lat="50.05327" lon="2.25286">
        <ele>137.9</ele>
        <time>2022-11-30T14:09:10Z</time>
      </trkpt>
      <trkpt lat="50.05327" lon="2.25286">
        <ele>137.9</ele>
        <time>2022-11-30T14:09:11Z</time>
      </trkpt>
      <trkpt lat="50.05327" lon="2.25286">
        <ele>137.9</ele>
        <time>2022-11-30T14:09:12Z</time>
      </trkpt>
      <trkpt lat="50.05327" lon="2.25286">
        <ele>137.9</ele>
        <time>2022-11-30T14:09:13Z</time>
      </trkpt>
      <trkpt lat="50.05327" lon="2.25286">
        <ele>137.9</ele>
        <time>2022-11-30T14:09:14Z</time>
      </trkpt>
      <trkpt lat="50.05327" lon="2.25286">
        <ele>137.9</ele>
        <time>2022-11-30T14:09:15Z</time>
      </trkpt>
      <trkpt lat="50.05327" lon="2.25286">
        <ele>137.9</ele>
        <time>2022-11-30T14:09:16Z</time>
      </trkpt>
      <trkpt lat="50.05327" lon="2.25286">
        <ele>137.9</ele>
        <time>2022-11-30T14:09:17Z</time>
      </trkpt>
      <trkpt lat="50.05327" lon="2.25286">
        <ele>137.9</ele>
        <time>2022-11-30T14:09:18Z</time>
      </trkpt>
      <trkpt lat="50.05327" lon="2.25286">
        <ele>137.9</ele>
        <time>2022-11-30T14:09:19Z</time>
      </trkpt>
      <trkpt lat="50.05327" lon="2.25286">
        <ele>137.9</ele>
        <time>2022-11-30T14:09:20Z</time>
      </trkpt>
      <trkpt lat="50.05327" lon="2.25286">
        <ele>137.9</ele>
        <time>2022-11-30T14:09:21Z</time>
      </trkpt>
      <trkpt lat="50.05327" lon="2.25286">
        <ele>137.9</ele>
        <time>2022-11-30T14:09:22Z</time>
      </trkpt>
      <trkpt lat="50.05327" lon="2.25286">
        <ele>137.9</ele>
        <time>2022-11-30T14:09:23Z</time>
      </trkpt>
      <trkpt lat="50.05327" lon="2.25286">
        <ele>137.9</ele>
        <time>2022-11-30T14:09:24Z</time>
      </trkpt>
      <trkpt lat="50.05327" lon="2.25286">
        <ele>137.9</ele>
        <time>2022-11-30T14:09:25Z</time>
      </trkpt>
      <trkpt lat="50.05327" lon="2.25286">
        <ele>137.9</ele>
        <time>2022-11-30T14:09:26Z</time>
      </trkpt>
      <trkpt lat="50.05327" lon="2.25286">
        <ele>137.9</ele>
        <time>2022-11-30T14:09:27Z</time>
      </trkpt>
      <trkpt lat="50.05327" lon="2.25286">
        <ele>137.9</ele>
        <time>2022-11-30T14:09:28Z</time>
      </trkpt>
      <trkpt lat="50.05327" lon="2.25286">
        <ele>137.9</ele>
        <time>2022-11-30T14:09:29Z</time>
      </trkpt>
      <trkpt lat="50.05327" lon="2.25286">
        <ele>137.9</ele>
        <time>2022-11-30T14:09:30Z</time>
      </trkpt>
      <trkpt lat="50.05327" lon="2.25286">
        <ele>137.9</ele>
        <time>2022-11-30T14:09:31Z</time>
      </trkpt>
      <trkpt lat="50.05327" lon="2.25286">
        <ele>137.9</ele>
        <time>2022-11-30T14:09:32Z</time>
      </trkpt>
      <trkpt lat="50.05327" lon="2.25286">
        <ele>137.9</ele>
        <time>2022-11-30T14:09:33Z</time>
      </trkpt>
      <trkpt lat="50.05327" lon="2.25286">
        <ele>137.9</ele>
        <time>2022-11-30T14:09:34Z</time>
      </trkpt>
      <trkpt lat="50.05327" lon="2.25286">
        <ele>137.9</ele>
        <time>2022-11-30T14:09:35Z</time>
      </trkpt>
      <trkpt lat="50.05327" lon="2.25286">
        <ele>137.9</ele>
        <time>2022-11-30T14:09:36Z</time>
      </trkpt>
      <trkpt lat="50.05327" lon="2.25286">
        <ele>137.9</ele>
        <time>2022-11-30T14:09:37Z</time>
      </trkpt>
      <trkpt lat="50.05326" lon="2.2529">
        <ele>137.9</ele>
        <time>2022-11-30T14:09:38Z</time>
      </trkpt>
      <trkpt lat="50.05326" lon="2.25292">
        <ele>137.9</ele>
        <time>2022-11-30T14:09:39Z</time>
      </trkpt>
      <trkpt lat="50.05326" lon="2.25292">
        <ele>137.9</ele>
        <time>2022-11-30T14:09:40Z</time>
      </trkpt>
      <trkpt lat="50.05326" lon="2.25292">
        <ele>137.9</ele>
        <time>2022-11-30T14:09:41Z</time>
      </trkpt>
      <trkpt lat="50.05326" lon="2.25292">
        <ele>137.9</ele>
        <time>2022-11-30T14:09:42Z</time>
      </trkpt>
      <trkpt lat="50.05326" lon="2.25292">
        <ele>137.9</ele>
        <time>2022-11-30T14:09:43Z</time>
      </trkpt>
      <trkpt lat="50.05326" lon="2.25292">
        <ele>137.9</ele>
        <time>2022-11-30T14:09:44Z</time>
      </trkpt>
      <trkpt lat="50.05326" lon="2.25292">
        <ele>137.9</ele>
        <time>2022-11-30T14:09:45Z</time>
      </trkpt>
      <trkpt lat="50.05326" lon="2.25292">
        <ele>137.9</ele>
        <time>2022-11-30T14:09:46Z</time>
      </trkpt>
      <trkpt lat="50.05326" lon="2.25292">
        <ele>137.9</ele>
        <time>2022-11-30T14:09:47Z</time>
      </trkpt>
      <trkpt lat="50.05326" lon="2.25292">
        <ele>137.9</ele>
        <time>2022-11-30T14:09:48Z</time>
      </trkpt>
      <trkpt lat="50.05326" lon="2.25292">
        <ele>137.9</ele>
        <time>2022-11-30T14:09:49Z</time>
      </trkpt>
      <trkpt lat="50.05326" lon="2.25292">
        <ele>137.9</ele>
        <time>2022-11-30T14:09:50Z</time>
      </trkpt>
      <trkpt lat="50.05326" lon="2.25292">
        <ele>137.9</ele>
        <time>2022-11-30T14:09:51Z</time>
      </trkpt>
      <trkpt lat="50.05326" lon="2.25292">
        <ele>137.9</ele>
        <time>2022-11-30T14:09:52Z</time>
      </trkpt>
      <trkpt lat="50.05326" lon="2.25292">
        <ele>137.9</ele>
        <time>2022-11-30T14:09:53Z</time>
      </trkpt>
      <trkpt lat="50.05326" lon="2.25292">
        <ele>137.9</ele>
        <time>2022-11-30T14:09:54Z</time>
      </trkpt>
      <trkpt lat="50.05326" lon="2.25292">
        <ele>137.9</ele>
        <time>2022-11-30T14:09:55Z</time>
      </trkpt>
      <trkpt lat="50.05326" lon="2.25292">
        <ele>137.9</ele>
        <time>2022-11-30T14:09:56Z</time>
      </trkpt>
      <trkpt lat="50.05326" lon="2.25292">
        <ele>137.9</ele>
        <time>2022-11-30T14:09:57Z</time>
      </trkpt>
      <trkpt lat="50.05326" lon="2.25292">
        <ele>137.9</ele>
        <time>2022-11-30T14:09:58Z</time>
      </trkpt>
      <trkpt lat="50.05326" lon="2.25292">
        <ele>137.9</ele>
        <time>2022-11-30T14:09:59Z</time>
      </trkpt>
      <trkpt lat="50.05326" lon="2.25292">
        <ele>137.9</ele>
        <time>2022-11-30T14:10:00Z</time>
      </trkpt>
      <trkpt lat="50.05326" lon="2.25292">
        <ele>137.9</ele>
        <time>2022-11-30T14:10:01Z</time>
      </trkpt>
      <trkpt lat="50.05326" lon="2.25292">
        <ele>137.9</ele>
        <time>2022-11-30T14:10:02Z</time>
      </trkpt>
      <trkpt lat="50.05326" lon="2.25292">
        <ele>137.9</ele>
        <time>2022-11-30T14:10:03Z</time>
      </trkpt>
      <trkpt lat="50.05326" lon="2.25292">
        <ele>137.9</ele>
        <time>2022-11-30T14:10:04Z</time>
      </trkpt>
      <trkpt lat="50.05326" lon="2.25292">
        <ele>137.9</ele>
        <time>2022-11-30T14:10:05Z</time>
      </trkpt>
      <trkpt lat="50.05326" lon="2.25292">
        <ele>137.9</ele>
        <time>2022-11-30T14:10:06Z</time>
      </trkpt>
      <trkpt lat="50.05326" lon="2.25292">
        <ele>137.9</ele>
        <time>2022-11-30T14:10:07Z</time>
      </trkpt>
      <trkpt lat="50.05326" lon="2.25292">
        <ele>137.9</ele>
        <time>2022-11-30T14:10:08Z</time>
      </trkpt>
      <trkpt lat="50.05326" lon="2.25292">
        <ele>137.9</ele>
        <time>2022-11-30T14:10:09Z</time>
      </trkpt>
      <trkpt lat="50.05326" lon="2.25292">
        <ele>137.9</ele>
        <time>2022-11-30T14:10:10Z</time>
      </trkpt>
      <trkpt lat="50.05326" lon="2.25292">
        <ele>137.9</ele>
        <time>2022-11-30T14:10:11Z</time>
      </trkpt>
      <trkpt lat="50.05326" lon="2.25292">
        <ele>137.9</ele>
        <time>2022-11-30T14:10:12Z</time>
      </trkpt>
      <trkpt lat="50.05326" lon="2.25292">
        <ele>137.9</ele>
        <time>2022-11-30T14:10:13Z</time>
      </trkpt>
      <trkpt lat="50.05326" lon="2.25292">
        <ele>137.9</ele>
        <time>2022-11-30T14:10:14Z</time>
      </trkpt>
      <trkpt lat="50.05326" lon="2.25292">
        <ele>137.9</ele>
        <time>2022-11-30T14:10:15Z</time>
      </trkpt>
      <trkpt lat="50.05326" lon="2.25292">
        <ele>137.9</ele>
        <time>2022-11-30T14:10:16Z</time>
      </trkpt>
      <trkpt lat="50.05326" lon="2.25292">
        <ele>137.9</ele>
        <time>2022-11-30T14:10:17Z</time>
      </trkpt>
      <trkpt lat="50.05326" lon="2.25292">
        <ele>137.9</ele>
        <time>2022-11-30T14:10:18Z</time>
      </trkpt>
      <trkpt lat="50.05326" lon="2.25292">
        <ele>137.9</ele>
        <time>2022-11-30T14:10:19Z</time>
      </trkpt>
      <trkpt lat="50.05326" lon="2.25292">
        <ele>137.9</ele>
        <time>2022-11-30T14:10:20Z</time>
      </trkpt>
      <trkpt lat="50.05326" lon="2.25292">
        <ele>137.9</ele>
        <time>2022-11-30T14:10:21Z</time>
      </trkpt>
      <trkpt lat="50.05326" lon="2.25292">
        <ele>137.9</ele>
        <time>2022-11-30T14:10:22Z</time>
      </trkpt>
      <trkpt lat="50.05326" lon="2.25292">
        <ele>137.9</ele>
        <time>2022-11-30T14:10:23Z</time>
      </trkpt>
      <trkpt lat="50.05326" lon="2.25292">
        <ele>137.9</ele>
        <time>2022-11-30T14:10:24Z</time>
      </trkpt>
      <trkpt lat="50.05326" lon="2.25292">
        <ele>137.9</ele>
        <time>2022-11-30T14:10:25Z</time>
      </trkpt>
      <trkpt lat="50.05326" lon="2.25292">
        <ele>137.9</ele>
        <time>2022-11-30T14:10:26Z</time>
      </trkpt>
      <trkpt lat="50.05326" lon="2.25292">
        <ele>137.9</ele>
        <time>2022-11-30T14:10:27Z</time>
      </trkpt>
      <trkpt lat="50.05326" lon="2.25292">
        <ele>137.9</ele>
        <time>2022-11-30T14:10:28Z</time>
      </trkpt>
      <trkpt lat="50.05326" lon="2.25292">
        <ele>137.9</ele>
        <time>2022-11-30T14:10:29Z</time>
      </trkpt>
      <trkpt lat="50.05326" lon="2.25292">
        <ele>137.9</ele>
        <time>2022-11-30T14:10:30Z</time>
      </trkpt>
      <trkpt lat="50.05326" lon="2.25292">
        <ele>137.9</ele>
        <time>2022-11-30T14:10:31Z</time>
      </trkpt>
      <trkpt lat="50.05326" lon="2.25292">
        <ele>137.9</ele>
        <time>2022-11-30T14:10:32Z</time>
      </trkpt>
      <trkpt lat="50.05326" lon="2.25292">
        <ele>137.9</ele>
        <time>2022-11-30T14:10:33Z</time>
      </trkpt>
      <trkpt lat="50.05326" lon="2.25292">
        <ele>137.9</ele>
        <time>2022-11-30T14:10:34Z</time>
      </trkpt>
      <trkpt lat="50.05326" lon="2.25292">
        <ele>137.9</ele>
        <time>2022-11-30T14:10:35Z</time>
      </trkpt>
      <trkpt lat="50.05326" lon="2.25292">
        <ele>137.9</ele>
        <time>2022-11-30T14:10:36Z</time>
      </trkpt>
      <trkpt lat="50.05326" lon="2.25292">
        <ele>137.9</ele>
        <time>2022-11-30T14:10:37Z</time>
      </trkpt>
      <trkpt lat="50.05326" lon="2.25292">
        <ele>137.9</ele>
        <time>2022-11-30T14:10:38Z</time>
      </trkpt>
      <trkpt lat="50.05326" lon="2.25292">
        <ele>137.9</ele>
        <time>2022-11-30T14:10:39Z</time>
      </trkpt>
      <trkpt lat="50.05326" lon="2.25292">
        <ele>137.9</ele>
        <time>2022-11-30T14:10:40Z</time>
      </trkpt>
      <trkpt lat="50.05326" lon="2.25292">
        <ele>137.9</ele>
        <time>2022-11-30T14:10:41Z</time>
      </trkpt>
      <trkpt lat="50.05326" lon="2.25292">
        <ele>137.9</ele>
        <time>2022-11-30T14:10:42Z</time>
      </trkpt>
      <trkpt lat="50.05326" lon="2.25292">
        <ele>137.9</ele>
        <time>2022-11-30T14:10:43Z</time>
      </trkpt>
      <trkpt lat="50.05326" lon="2.25292">
        <ele>137.9</ele>
        <time>2022-11-30T14:10:44Z</time>
      </trkpt>
      <trkpt lat="50.05326" lon="2.25292">
        <ele>137.9</ele>
        <time>2022-11-30T14:10:45Z</time>
      </trkpt>
      <trkpt lat="50.05326" lon="2.25292">
        <ele>137.9</ele>
        <time>2022-11-30T14:10:46Z</time>
      </trkpt>
      <trkpt lat="50.05326" lon="2.25292">
        <ele>137.9</ele>
        <time>2022-11-30T14:10:47Z</time>
      </trkpt>
      <trkpt lat="50.05326" lon="2.25292">
        <ele>137.9</ele>
        <time>2022-11-30T14:10:48Z</time>
      </trkpt>
      <trkpt lat="50.05326" lon="2.25292">
        <ele>137.9</ele>
        <time>2022-11-30T14:10:49Z</time>
      </trkpt>
      <trkpt lat="50.05326" lon="2.25292">
        <ele>137.9</ele>
        <time>2022-11-30T14:10:50Z</time>
      </trkpt>
      <trkpt lat="50.05326" lon="2.25292">
        <ele>137.9</ele>
        <time>2022-11-30T14:10:51Z</time>
      </trkpt>
      <trkpt lat="50.05326" lon="2.25292">
        <ele>137.9</ele>
        <time>2022-11-30T14:10:52Z</time>
      </trkpt>
      <trkpt lat="50.05326" lon="2.25292">
        <ele>137.9</ele>
        <time>2022-11-30T14:10:53Z</time>
      </trkpt>
      <trkpt lat="50.05326" lon="2.25292">
        <ele>137.9</ele>
        <time>2022-11-30T14:10:54Z</time>
      </trkpt>
      <trkpt lat="50.05326" lon="2.25292">
        <ele>137.9</ele>
        <time>2022-11-30T14:10:55Z</time>
      </trkpt>
      <trkpt lat="50.05326" lon="2.25292">
        <ele>137.9</ele>
        <time>2022-11-30T14:10:56Z</time>
      </trkpt>
      <trkpt lat="50.05326" lon="2.25292">
        <ele>137.9</ele>
        <time>2022-11-30T14:10:57Z</time>
      </trkpt>
      <trkpt lat="50.05326" lon="2.25292">
        <ele>137.9</ele>
        <time>2022-11-30T14:10:58Z</time>
      </trkpt>
      <trkpt lat="50.05326" lon="2.25292">
        <ele>137.9</ele>
        <time>2022-11-30T14:10:59Z</time>
      </trkpt>
      <trkpt lat="50.05326" lon="2.25292">
        <ele>137.9</ele>
        <time>2022-11-30T14:11:00Z</time>
      </trkpt>
      <trkpt lat="50.05326" lon="2.25292">
        <ele>137.9</ele>
        <time>2022-11-30T14:11:01Z</time>
      </trkpt>
      <trkpt lat="50.05326" lon="2.25292">
        <ele>137.9</ele>
        <time>2022-11-30T14:11:02Z</time>
      </trkpt>
      <trkpt lat="50.05326" lon="2.25292">
        <ele>137.9</ele>
        <time>2022-11-30T14:11:03Z</time>
      </trkpt>
      <trkpt lat="50.05326" lon="2.25292">
        <ele>137.9</ele>
        <time>2022-11-30T14:11:04Z</time>
      </trkpt>
      <trkpt lat="50.05326" lon="2.25292">
        <ele>137.9</ele>
        <time>2022-11-30T14:11:05Z</time>
      </trkpt>
      <trkpt lat="50.05326" lon="2.25292">
        <ele>137.9</ele>
        <time>2022-11-30T14:11:06Z</time>
      </trkpt>
      <trkpt lat="50.05326" lon="2.25292">
        <ele>137.9</ele>
        <time>2022-11-30T14:11:07Z</time>
      </trkpt>
      <trkpt lat="50.05326" lon="2.25292">
        <ele>137.9</ele>
        <time>2022-11-30T14:11:08Z</time>
      </trkpt>
      <trkpt lat="50.05326" lon="2.25292">
        <ele>137.9</ele>
        <time>2022-11-30T14:11:09Z</time>
      </trkpt>
      <trkpt lat="50.05326" lon="2.25292">
        <ele>137.9</ele>
        <time>2022-11-30T14:11:10Z</time>
      </trkpt>
      <trkpt lat="50.05326" lon="2.25292">
        <ele>137.9</ele>
        <time>2022-11-30T14:11:11Z</time>
      </trkpt>
      <trkpt lat="50.05326" lon="2.25292">
        <ele>137.9</ele>
        <time>2022-11-30T14:11:12Z</time>
      </trkpt>
      <trkpt lat="50.05326" lon="2.25292">
        <ele>137.9</ele>
        <time>2022-11-30T14:11:13Z</time>
      </trkpt>
      <trkpt lat="50.05326" lon="2.25292">
        <ele>137.9</ele>
        <time>2022-11-30T14:11:14Z</time>
      </trkpt>
      <trkpt lat="50.05326" lon="2.25292">
        <ele>137.9</ele>
        <time>2022-11-30T14:11:15Z</time>
      </trkpt>
      <trkpt lat="50.05326" lon="2.25292">
        <ele>137.9</ele>
        <time>2022-11-30T14:11:16Z</time>
      </trkpt>
      <trkpt lat="50.05326" lon="2.25292">
        <ele>137.9</ele>
        <time>2022-11-30T14:11:17Z</time>
      </trkpt>
      <trkpt lat="50.05326" lon="2.25292">
        <ele>137.9</ele>
        <time>2022-11-30T14:11:18Z</time>
      </trkpt>
      <trkpt lat="50.05326" lon="2.25292">
        <ele>137.9</ele>
        <time>2022-11-30T14:11:19Z</time>
      </trkpt>
      <trkpt lat="50.05326" lon="2.25292">
        <ele>137.9</ele>
        <time>2022-11-30T14:11:20Z</time>
      </trkpt>
      <trkpt lat="50.05326" lon="2.25292">
        <ele>137.9</ele>
        <time>2022-11-30T14:11:21Z</time>
      </trkpt>
      <trkpt lat="50.05326" lon="2.25292">
        <ele>137.9</ele>
        <time>2022-11-30T14:11:22Z</time>
      </trkpt>
      <trkpt lat="50.05326" lon="2.25292">
        <ele>137.9</ele>
        <time>2022-11-30T14:11:23Z</time>
      </trkpt>
      <trkpt lat="50.05326" lon="2.25292">
        <ele>137.9</ele>
        <time>2022-11-30T14:11:24Z</time>
      </trkpt>
      <trkpt lat="50.05326" lon="2.25292">
        <ele>137.9</ele>
        <time>2022-11-30T14:11:25Z</time>
      </trkpt>
      <trkpt lat="50.05326" lon="2.25292">
        <ele>137.9</ele>
        <time>2022-11-30T14:11:26Z</time>
      </trkpt>
      <trkpt lat="50.05326" lon="2.25292">
        <ele>137.9</ele>
        <time>2022-11-30T14:11:27Z</time>
      </trkpt>
      <trkpt lat="50.05326" lon="2.25292">
        <ele>137.9</ele>
        <time>2022-11-30T14:11:28Z</time>
      </trkpt>
      <trkpt lat="50.05326" lon="2.25292">
        <ele>137.9</ele>
        <time>2022-11-30T14:11:29Z</time>
      </trkpt>
      <trkpt lat="50.05326" lon="2.25292">
        <ele>137.9</ele>
        <time>2022-11-30T14:11:30Z</time>
      </trkpt>
      <trkpt lat="50.05326" lon="2.25292">
        <ele>137.9</ele>
        <time>2022-11-30T14:11:31Z</time>
      </trkpt>
      <trkpt lat="50.05326" lon="2.25292">
        <ele>137.9</ele>
        <time>2022-11-30T14:11:32Z</time>
      </trkpt>
      <trkpt lat="50.05326" lon="2.25292">
        <ele>137.9</ele>
        <time>2022-11-30T14:11:33Z</time>
      </trkpt>
      <trkpt lat="50.05326" lon="2.25292">
        <ele>137.9</ele>
        <time>2022-11-30T14:11:34Z</time>
      </trkpt>
      <trkpt lat="50.05326" lon="2.25292">
        <ele>137.9</ele>
        <time>2022-11-30T14:11:35Z</time>
      </trkpt>
      <trkpt lat="50.05326" lon="2.25292">
        <ele>137.9</ele>
        <time>2022-11-30T14:11:36Z</time>
      </trkpt>
      <trkpt lat="50.05326" lon="2.25292">
        <ele>137.9</ele>
        <time>2022-11-30T14:11:37Z</time>
      </trkpt>
      <trkpt lat="50.05326" lon="2.25292">
        <ele>137.9</ele>
        <time>2022-11-30T14:11:38Z</time>
      </trkpt>
      <trkpt lat="50.05326" lon="2.25292">
        <ele>137.9</ele>
        <time>2022-11-30T14:11:39Z</time>
      </trkpt>
      <trkpt lat="50.05326" lon="2.25292">
        <ele>137.9</ele>
        <time>2022-11-30T14:11:40Z</time>
      </trkpt>
      <trkpt lat="50.05326" lon="2.25292">
        <ele>137.9</ele>
        <time>2022-11-30T14:11:41Z</time>
      </trkpt>
      <trkpt lat="50.05326" lon="2.25292">
        <ele>137.9</ele>
        <time>2022-11-30T14:11:42Z</time>
      </trkpt>
      <trkpt lat="50.05326" lon="2.25292">
        <ele>137.9</ele>
        <time>2022-11-30T14:11:43Z</time>
      </trkpt>
      <trkpt lat="50.05326" lon="2.25292">
        <ele>137.9</ele>
        <time>2022-11-30T14:11:44Z</time>
      </trkpt>
      <trkpt lat="50.05326" lon="2.25292">
        <ele>137.9</ele>
        <time>2022-11-30T14:11:45Z</time>
      </trkpt>
      <trkpt lat="50.05325" lon="2.25293">
        <ele>137.9</ele>
        <time>2022-11-30T14:11:46Z</time>
      </trkpt>
      <trkpt lat="50.05325" lon="2.25294">
        <ele>137.9</ele>
        <time>2022-11-30T14:11:47Z</time>
      </trkpt>
      <trkpt lat="50.05324" lon="2.25294">
        <ele>137.9</ele>
        <time>2022-11-30T14:11:48Z</time>
      </trkpt>
      <trkpt lat="50.05323" lon="2.25294">
        <ele>137.9</ele>
        <time>2022-11-30T14:11:49Z</time>
      </trkpt>
      <trkpt lat="50.05323" lon="2.25294">
        <ele>137.9</ele>
        <time>2022-11-30T14:11:50Z</time>
      </trkpt>
      <trkpt lat="50.05322" lon="2.25293">
        <ele>138</ele>
        <time>2022-11-30T14:11:51Z</time>
      </trkpt>
      <trkpt lat="50.05321" lon="2.25294">
        <ele>138</ele>
        <time>2022-11-30T14:11:52Z</time>
      </trkpt>
      <trkpt lat="50.0532" lon="2.25294">
        <ele>138</ele>
        <time>2022-11-30T14:11:53Z</time>
      </trkpt>
      <trkpt lat="50.05319" lon="2.25294">
        <ele>138</ele>
        <time>2022-11-30T14:11:54Z</time>
      </trkpt>
      <trkpt lat="50.05319" lon="2.25294">
        <ele>138</ele>
        <time>2022-11-30T14:11:55Z</time>
      </trkpt>
      <trkpt lat="50.05318" lon="2.25295">
        <ele>138</ele>
        <time>2022-11-30T14:11:56Z</time>
      </trkpt>
      <trkpt lat="50.05317" lon="2.25295">
        <ele>138</ele>
        <time>2022-11-30T14:11:57Z</time>
      </trkpt>
      <trkpt lat="50.05316" lon="2.25295">
        <ele>138</ele>
        <time>2022-11-30T14:11:58Z</time>
      </trkpt>
      <trkpt lat="50.05315" lon="2.25296">
        <ele>138</ele>
        <time>2022-11-30T14:11:59Z</time>
      </trkpt>
      <trkpt lat="50.05314" lon="2.25296">
        <ele>138</ele>
        <time>2022-11-30T14:12:00Z</time>
      </trkpt>
      <trkpt lat="50.05313" lon="2.25297">
        <ele>138</ele>
        <time>2022-11-30T14:12:01Z</time>
      </trkpt>
      <trkpt lat="50.05312" lon="2.25298">
        <ele>138</ele>
        <time>2022-11-30T14:12:02Z</time>
      </trkpt>
      <trkpt lat="50.05312" lon="2.25298">
        <ele>138</ele>
        <time>2022-11-30T14:12:03Z</time>
      </trkpt>
      <trkpt lat="50.05311" lon="2.25299">
        <ele>138</ele>
        <time>2022-11-30T14:12:04Z</time>
      </trkpt>
      <trkpt lat="50.0531" lon="2.25299">
        <ele>138</ele>
        <time>2022-11-30T14:12:05Z</time>
      </trkpt>
      <trkpt lat="50.05309" lon="2.253">
        <ele>138</ele>
        <time>2022-11-30T14:12:06Z</time>
      </trkpt>
      <trkpt lat="50.05308" lon="2.25301">
        <ele>138</ele>
        <time>2022-11-30T14:12:07Z</time>
      </trkpt>
      <trkpt lat="50.05307" lon="2.25301">
        <ele>138</ele>
        <time>2022-11-30T14:12:08Z</time>
      </trkpt>
      <trkpt lat="50.05307" lon="2.25302">
        <ele>138</ele>
        <time>2022-11-30T14:12:09Z</time>
      </trkpt>
      <trkpt lat="50.05306" lon="2.25302">
        <ele>138.1</ele>
        <time>2022-11-30T14:12:10Z</time>
      </trkpt>
      <trkpt lat="50.05305" lon="2.25303">
        <ele>138.1</ele>
        <time>2022-11-30T14:12:11Z</time>
      </trkpt>
      <trkpt lat="50.05304" lon="2.25304">
        <ele>138.1</ele>
        <time>2022-11-30T14:12:12Z</time>
      </trkpt>
      <trkpt lat="50.05302" lon="2.25304">
        <ele>138.1</ele>
        <time>2022-11-30T14:12:13Z</time>
      </trkpt>
      <trkpt lat="50.05301" lon="2.25305">
        <ele>138.1</ele>
        <time>2022-11-30T14:12:14Z</time>
      </trkpt>
      <trkpt lat="50.053" lon="2.25305">
        <ele>138.1</ele>
        <time>2022-11-30T14:12:15Z</time>
      </trkpt>
      <trkpt lat="50.05299" lon="2.25306">
        <ele>138.1</ele>
        <time>2022-11-30T14:12:16Z</time>
      </trkpt>
      <trkpt lat="50.05298" lon="2.25306">
        <ele>138.1</ele>
        <time>2022-11-30T14:12:17Z</time>
      </trkpt>
      <trkpt lat="50.05297" lon="2.25307">
        <ele>138.1</ele>
        <time>2022-11-30T14:12:19Z</time>
      </trkpt>
      <trkpt lat="50.05296" lon="2.25307">
        <ele>138.1</ele>
        <time>2022-11-30T14:12:20Z</time>
      </trkpt>
      <trkpt lat="50.05295" lon="2.25308">
        <ele>138.2</ele>
        <time>2022-11-30T14:12:21Z</time>
      </trkpt>
      <trkpt lat="50.05294" lon="2.25308">
        <ele>138.2</ele>
        <time>2022-11-30T14:12:22Z</time>
      </trkpt>
      <trkpt lat="50.05293" lon="2.25308">
        <ele>138.2</ele>
        <time>2022-11-30T14:12:23Z</time>
      </trkpt>
      <trkpt lat="50.05292" lon="2.25309">
        <ele>138.2</ele>
        <time>2022-11-30T14:12:24Z</time>
      </trkpt>
      <trkpt lat="50.05291" lon="2.2531">
        <ele>138.2</ele>
        <time>2022-11-30T14:12:25Z</time>
      </trkpt>
      <trkpt lat="50.0529" lon="2.2531">
        <ele>138.2</ele>
        <time>2022-11-30T14:12:26Z</time>
      </trkpt>
      <trkpt lat="50.05289" lon="2.25311">
        <ele>138.2</ele>
        <time>2022-11-30T14:12:28Z</time>
      </trkpt>
      <trkpt lat="50.05288" lon="2.25312">
        <ele>138.2</ele>
        <time>2022-11-30T14:12:29Z</time>
      </trkpt>
      <trkpt lat="50.05287" lon="2.25312">
        <ele>138.3</ele>
        <time>2022-11-30T14:12:30Z</time>
      </trkpt>
      <trkpt lat="50.05286" lon="2.25312">
        <ele>138.3</ele>
        <time>2022-11-30T14:12:31Z</time>
      </trkpt>
      <trkpt lat="50.05285" lon="2.25313">
        <ele>138.3</ele>
        <time>2022-11-30T14:12:32Z</time>
      </trkpt>
      <trkpt lat="50.05283" lon="2.25315">
        <ele>138.3</ele>
        <time>2022-11-30T14:12:33Z</time>
      </trkpt>
      <trkpt lat="50.05282" lon="2.25316">
        <ele>138.3</ele>
        <time>2022-11-30T14:12:34Z</time>
      </trkpt>
      <trkpt lat="50.05282" lon="2.25316">
        <ele>138.3</ele>
        <time>2022-11-30T14:12:35Z</time>
      </trkpt>
      <trkpt lat="50.0528" lon="2.25318">
        <ele>138.4</ele>
        <time>2022-11-30T14:12:36Z</time>
      </trkpt>
      <trkpt lat="50.05279" lon="2.25318">
        <ele>138.4</ele>
        <time>2022-11-30T14:12:38Z</time>
      </trkpt>
      <trkpt lat="50.05278" lon="2.25319">
        <ele>138.4</ele>
        <time>2022-11-30T14:12:39Z</time>
      </trkpt>
      <trkpt lat="50.05277" lon="2.2532">
        <ele>138.4</ele>
        <time>2022-11-30T14:12:40Z</time>
      </trkpt>
      <trkpt lat="50.05276" lon="2.2532">
        <ele>138.4</ele>
        <time>2022-11-30T14:12:41Z</time>
      </trkpt>
      <trkpt lat="50.05274" lon="2.25321">
        <ele>138.5</ele>
        <time>2022-11-30T14:12:42Z</time>
      </trkpt>
      <trkpt lat="50.05273" lon="2.25322">
        <ele>138.5</ele>
        <time>2022-11-30T14:12:43Z</time>
      </trkpt>
      <trkpt lat="50.05272" lon="2.25322">
        <ele>138.5</ele>
        <time>2022-11-30T14:12:44Z</time>
      </trkpt>
      <trkpt lat="50.05271" lon="2.25323">
        <ele>138.5</ele>
        <time>2022-11-30T14:12:45Z</time>
      </trkpt>
      <trkpt lat="50.0527" lon="2.25324">
        <ele>138.5</ele>
        <time>2022-11-30T14:12:46Z</time>
      </trkpt>
      <trkpt lat="50.05268" lon="2.25325">
        <ele>138.5</ele>
        <time>2022-11-30T14:12:48Z</time>
      </trkpt>
      <trkpt lat="50.05267" lon="2.25326">
        <ele>138.6</ele>
        <time>2022-11-30T14:12:49Z</time>
      </trkpt>
      <trkpt lat="50.05266" lon="2.25327">
        <ele>138.6</ele>
        <time>2022-11-30T14:12:50Z</time>
      </trkpt>
      <trkpt lat="50.05265" lon="2.25327">
        <ele>138.6</ele>
        <time>2022-11-30T14:12:51Z</time>
      </trkpt>
      <trkpt lat="50.05264" lon="2.25328">
        <ele>138.6</ele>
        <time>2022-11-30T14:12:52Z</time>
      </trkpt>
      <trkpt lat="50.05263" lon="2.25329">
        <ele>138.6</ele>
        <time>2022-11-30T14:12:53Z</time>
      </trkpt>
      <trkpt lat="50.05262" lon="2.2533">
        <ele>138.6</ele>
        <time>2022-11-30T14:12:54Z</time>
      </trkpt>
      <trkpt lat="50.05261" lon="2.2533">
        <ele>138.6</ele>
        <time>2022-11-30T14:12:55Z</time>
      </trkpt>
      <trkpt lat="50.0526" lon="2.25331">
        <ele>138.7</ele>
        <time>2022-11-30T14:12:56Z</time>
      </trkpt>
      <trkpt lat="50.05259" lon="2.25332">
        <ele>138.7</ele>
        <time>2022-11-30T14:12:57Z</time>
      </trkpt>
      <trkpt lat="50.05258" lon="2.25333">
        <ele>138.7</ele>
        <time>2022-11-30T14:12:59Z</time>
      </trkpt>
      <trkpt lat="50.05257" lon="2.25334">
        <ele>138.7</ele>
        <time>2022-11-30T14:13:00Z</time>
      </trkpt>
      <trkpt lat="50.05256" lon="2.25334">
        <ele>138.7</ele>
        <time>2022-11-30T14:13:01Z</time>
      </trkpt>
      <trkpt lat="50.05255" lon="2.25334">
        <ele>138.8</ele>
        <time>2022-11-30T14:13:02Z</time>
      </trkpt>
      <trkpt lat="50.05254" lon="2.25335">
        <ele>138.8</ele>
        <time>2022-11-30T14:13:03Z</time>
      </trkpt>
      <trkpt lat="50.05253" lon="2.25335">
        <ele>138.8</ele>
        <time>2022-11-30T14:13:04Z</time>
      </trkpt>
      <trkpt lat="50.05252" lon="2.25336">
        <ele>138.8</ele>
        <time>2022-11-30T14:13:05Z</time>
      </trkpt>
      <trkpt lat="50.05251" lon="2.25337">
        <ele>138.8</ele>
        <time>2022-11-30T14:13:06Z</time>
      </trkpt>
      <trkpt lat="50.0525" lon="2.25337">
        <ele>138.8</ele>
        <time>2022-11-30T14:13:07Z</time>
      </trkpt>
      <trkpt lat="50.05248" lon="2.25338">
        <ele>138.9</ele>
        <time>2022-11-30T14:13:09Z</time>
      </trkpt>
      <trkpt lat="50.05247" lon="2.25339">
        <ele>138.9</ele>
        <time>2022-11-30T14:13:10Z</time>
      </trkpt>
      <trkpt lat="50.05247" lon="2.25339">
        <ele>138.9</ele>
        <time>2022-11-30T14:13:11Z</time>
      </trkpt>
      <trkpt lat="50.05246" lon="2.2534">
        <ele>138.9</ele>
        <time>2022-11-30T14:13:12Z</time>
      </trkpt>
      <trkpt lat="50.05245" lon="2.2534">
        <ele>139</ele>
        <time>2022-11-30T14:13:13Z</time>
      </trkpt>
      <trkpt lat="50.05244" lon="2.25341">
        <ele>139</ele>
        <time>2022-11-30T14:13:14Z</time>
      </trkpt>
      <trkpt lat="50.05242" lon="2.25342">
        <ele>139</ele>
        <time>2022-11-30T14:13:15Z</time>
      </trkpt>
      <trkpt lat="50.05241" lon="2.25343">
        <ele>139</ele>
        <time>2022-11-30T14:13:16Z</time>
      </trkpt>
      <trkpt lat="50.0524" lon="2.25343">
        <ele>139</ele>
        <time>2022-11-30T14:13:17Z</time>
      </trkpt>
      <trkpt lat="50.05239" lon="2.25344">
        <ele>139.1</ele>
        <time>2022-11-30T14:13:19Z</time>
      </trkpt>
      <trkpt lat="50.05238" lon="2.25345">
        <ele>139.1</ele>
        <time>2022-11-30T14:13:20Z</time>
      </trkpt>
      <trkpt lat="50.05237" lon="2.25345">
        <ele>139.1</ele>
        <time>2022-11-30T14:13:21Z</time>
      </trkpt>
      <trkpt lat="50.05236" lon="2.25346">
        <ele>139.1</ele>
        <time>2022-11-30T14:13:22Z</time>
      </trkpt>
      <trkpt lat="50.05235" lon="2.25346">
        <ele>139.2</ele>
        <time>2022-11-30T14:13:23Z</time>
      </trkpt>
      <trkpt lat="50.05234" lon="2.25347">
        <ele>139.2</ele>
        <time>2022-11-30T14:13:24Z</time>
      </trkpt>
      <trkpt lat="50.05233" lon="2.25348">
        <ele>139.2</ele>
        <time>2022-11-30T14:13:25Z</time>
      </trkpt>
      <trkpt lat="50.05232" lon="2.25348">
        <ele>139.3</ele>
        <time>2022-11-30T14:13:26Z</time>
      </trkpt>
      <trkpt lat="50.05231" lon="2.25349">
        <ele>139.3</ele>
        <time>2022-11-30T14:13:27Z</time>
      </trkpt>
      <trkpt lat="50.0523" lon="2.25349">
        <ele>139.3</ele>
        <time>2022-11-30T14:13:28Z</time>
      </trkpt>
      <trkpt lat="50.05229" lon="2.2535">
        <ele>139.3</ele>
        <time>2022-11-30T14:13:29Z</time>
      </trkpt>
      <trkpt lat="50.05227" lon="2.25351">
        <ele>139.4</ele>
        <time>2022-11-30T14:13:31Z</time>
      </trkpt>
      <trkpt lat="50.05226" lon="2.25351">
        <ele>139.4</ele>
        <time>2022-11-30T14:13:32Z</time>
      </trkpt>
      <trkpt lat="50.05225" lon="2.25352">
        <ele>139.5</ele>
        <time>2022-11-30T14:13:33Z</time>
      </trkpt>
      <trkpt lat="50.05224" lon="2.25353">
        <ele>139.5</ele>
        <time>2022-11-30T14:13:34Z</time>
      </trkpt>
      <trkpt lat="50.05223" lon="2.25353">
        <ele>139.5</ele>
        <time>2022-11-30T14:13:35Z</time>
      </trkpt>
      <trkpt lat="50.05222" lon="2.25354">
        <ele>139.6</ele>
        <time>2022-11-30T14:13:36Z</time>
      </trkpt>
      <trkpt lat="50.05221" lon="2.25354">
        <ele>139.6</ele>
        <time>2022-11-30T14:13:37Z</time>
      </trkpt>
      <trkpt lat="50.05219" lon="2.25355">
        <ele>139.7</ele>
        <time>2022-11-30T14:13:38Z</time>
      </trkpt>
      <trkpt lat="50.05218" lon="2.25355">
        <ele>139.7</ele>
        <time>2022-11-30T14:13:40Z</time>
      </trkpt>
      <trkpt lat="50.05217" lon="2.25355">
        <ele>139.8</ele>
        <time>2022-11-30T14:13:41Z</time>
      </trkpt>
      <trkpt lat="50.05216" lon="2.25356">
        <ele>139.8</ele>
        <time>2022-11-30T14:13:42Z</time>
      </trkpt>
      <trkpt lat="50.05215" lon="2.25356">
        <ele>139.9</ele>
        <time>2022-11-30T14:13:43Z</time>
      </trkpt>
      <trkpt lat="50.05214" lon="2.25357">
        <ele>139.9</ele>
        <time>2022-11-30T14:13:44Z</time>
      </trkpt>
      <trkpt lat="50.05214" lon="2.25357">
        <ele>140</ele>
        <time>2022-11-30T14:13:45Z</time>
      </trkpt>
      <trkpt lat="50.05212" lon="2.25357">
        <ele>140</ele>
        <time>2022-11-30T14:13:46Z</time>
      </trkpt>
      <trkpt lat="50.05211" lon="2.25357">
        <ele>140.1</ele>
        <time>2022-11-30T14:13:47Z</time>
      </trkpt>
      <trkpt lat="50.05209" lon="2.25357">
        <ele>140.2</ele>
        <time>2022-11-30T14:13:48Z</time>
      </trkpt>
      <trkpt lat="50.05208" lon="2.25357">
        <ele>140.3</ele>
        <time>2022-11-30T14:13:50Z</time>
      </trkpt>
      <trkpt lat="50.05207" lon="2.25357">
        <ele>140.3</ele>
        <time>2022-11-30T14:13:51Z</time>
      </trkpt>
      <trkpt lat="50.05206" lon="2.25358">
        <ele>140.4</ele>
        <time>2022-11-30T14:13:52Z</time>
      </trkpt>
      <trkpt lat="50.05205" lon="2.25358">
        <ele>140.4</ele>
        <time>2022-11-30T14:13:53Z</time>
      </trkpt>
      <trkpt lat="50.05204" lon="2.25358">
        <ele>140.5</ele>
        <time>2022-11-30T14:13:54Z</time>
      </trkpt>
      <trkpt lat="50.05202" lon="2.25359">
        <ele>140.6</ele>
        <time>2022-11-30T14:13:55Z</time>
      </trkpt>
      <trkpt lat="50.05201" lon="2.25359">
        <ele>140.6</ele>
        <time>2022-11-30T14:13:57Z</time>
      </trkpt>
      <trkpt lat="50.052" lon="2.2536">
        <ele>140.7</ele>
        <time>2022-11-30T14:13:58Z</time>
      </trkpt>
      <trkpt lat="50.05199" lon="2.25361">
        <ele>140.8</ele>
        <time>2022-11-30T14:13:59Z</time>
      </trkpt>
      <trkpt lat="50.05198" lon="2.25361">
        <ele>140.8</ele>
        <time>2022-11-30T14:14:00Z</time>
      </trkpt>
      <trkpt lat="50.05197" lon="2.25362">
        <ele>140.9</ele>
        <time>2022-11-30T14:14:01Z</time>
      </trkpt>
      <trkpt lat="50.05195" lon="2.25362">
        <ele>141</ele>
        <time>2022-11-30T14:14:02Z</time>
      </trkpt>
      <trkpt lat="50.05193" lon="2.25363">
        <ele>141.1</ele>
        <time>2022-11-30T14:14:03Z</time>
      </trkpt>
      <trkpt lat="50.05192" lon="2.25364">
        <ele>141.2</ele>
        <time>2022-11-30T14:14:05Z</time>
      </trkpt>
      <trkpt lat="50.05191" lon="2.25364">
        <ele>141.2</ele>
        <time>2022-11-30T14:14:06Z</time>
      </trkpt>
      <trkpt lat="50.0519" lon="2.25365">
        <ele>141.3</ele>
        <time>2022-11-30T14:14:07Z</time>
      </trkpt>
      <trkpt lat="50.05189" lon="2.25366">
        <ele>141.4</ele>
        <time>2022-11-30T14:14:08Z</time>
      </trkpt>
      <trkpt lat="50.05188" lon="2.25367">
        <ele>141.4</ele>
        <time>2022-11-30T14:14:09Z</time>
      </trkpt>
      <trkpt lat="50.05187" lon="2.25368">
        <ele>141.5</ele>
        <time>2022-11-30T14:14:10Z</time>
      </trkpt>
      <trkpt lat="50.05186" lon="2.25369">
        <ele>141.6</ele>
        <time>2022-11-30T14:14:11Z</time>
      </trkpt>
      <trkpt lat="50.05184" lon="2.2537">
        <ele>141.6</ele>
        <time>2022-11-30T14:14:12Z</time>
      </trkpt>
      <trkpt lat="50.05183" lon="2.25371">
        <ele>141.7</ele>
        <time>2022-11-30T14:14:14Z</time>
      </trkpt>
      <trkpt lat="50.05182" lon="2.25372">
        <ele>141.8</ele>
        <time>2022-11-30T14:14:15Z</time>
      </trkpt>
      <trkpt lat="50.05181" lon="2.25373">
        <ele>141.8</ele>
        <time>2022-11-30T14:14:16Z</time>
      </trkpt>
      <trkpt lat="50.0518" lon="2.25374">
        <ele>141.9</ele>
        <time>2022-11-30T14:14:17Z</time>
      </trkpt>
      <trkpt lat="50.05178" lon="2.25376">
        <ele>142</ele>
        <time>2022-11-30T14:14:18Z</time>
      </trkpt>
      <trkpt lat="50.05177" lon="2.25377">
        <ele>142</ele>
        <time>2022-11-30T14:14:19Z</time>
      </trkpt>
      <trkpt lat="50.05176" lon="2.25378">
        <ele>142.1</ele>
        <time>2022-11-30T14:14:20Z</time>
      </trkpt>
      <trkpt lat="50.05175" lon="2.25379">
        <ele>142.1</ele>
        <time>2022-11-30T14:14:21Z</time>
      </trkpt>
      <trkpt lat="50.05174" lon="2.2538">
        <ele>142.2</ele>
        <time>2022-11-30T14:14:22Z</time>
      </trkpt>
      <trkpt lat="50.05173" lon="2.25381">
        <ele>142.2</ele>
        <time>2022-11-30T14:14:24Z</time>
      </trkpt>
      <trkpt lat="50.05172" lon="2.25382">
        <ele>142.3</ele>
        <time>2022-11-30T14:14:25Z</time>
      </trkpt>
      <trkpt lat="50.05171" lon="2.25383">
        <ele>142.3</ele>
        <time>2022-11-30T14:14:26Z</time>
      </trkpt>
      <trkpt lat="50.05171" lon="2.25383">
        <ele>142.4</ele>
        <time>2022-11-30T14:14:27Z</time>
      </trkpt>
      <trkpt lat="50.0517" lon="2.25384">
        <ele>142.4</ele>
        <time>2022-11-30T14:14:28Z</time>
      </trkpt>
      <trkpt lat="50.05169" lon="2.25385">
        <ele>142.5</ele>
        <time>2022-11-30T14:14:29Z</time>
      </trkpt>
      <trkpt lat="50.05167" lon="2.25386">
        <ele>142.5</ele>
        <time>2022-11-30T14:14:30Z</time>
      </trkpt>
      <trkpt lat="50.05166" lon="2.25387">
        <ele>142.6</ele>
        <time>2022-11-30T14:14:31Z</time>
      </trkpt>
      <trkpt lat="50.05165" lon="2.25388">
        <ele>142.6</ele>
        <time>2022-11-30T14:14:33Z</time>
      </trkpt>
      <trkpt lat="50.05164" lon="2.25388">
        <ele>142.7</ele>
        <time>2022-11-30T14:14:34Z</time>
      </trkpt>
      <trkpt lat="50.05163" lon="2.25389">
        <ele>142.7</ele>
        <time>2022-11-30T14:14:35Z</time>
      </trkpt>
      <trkpt lat="50.05162" lon="2.2539">
        <ele>142.8</ele>
        <time>2022-11-30T14:14:36Z</time>
      </trkpt>
      <trkpt lat="50.05161" lon="2.25391">
        <ele>142.8</ele>
        <time>2022-11-30T14:14:37Z</time>
      </trkpt>
      <trkpt lat="50.0516" lon="2.25393">
        <ele>142.9</ele>
        <time>2022-11-30T14:14:38Z</time>
      </trkpt>
      <trkpt lat="50.05159" lon="2.25393">
        <ele>142.9</ele>
        <time>2022-11-30T14:14:39Z</time>
      </trkpt>
      <trkpt lat="50.05158" lon="2.25394">
        <ele>143</ele>
        <time>2022-11-30T14:14:40Z</time>
      </trkpt>
      <trkpt lat="50.05157" lon="2.25396">
        <ele>143.1</ele>
        <time>2022-11-30T14:14:41Z</time>
      </trkpt>
      <trkpt lat="50.05156" lon="2.25397">
        <ele>143.1</ele>
        <time>2022-11-30T14:14:43Z</time>
      </trkpt>
      <trkpt lat="50.05155" lon="2.25398">
        <ele>143.1</ele>
        <time>2022-11-30T14:14:44Z</time>
      </trkpt>
      <trkpt lat="50.05153" lon="2.25399">
        <ele>143.2</ele>
        <time>2022-11-30T14:14:45Z</time>
      </trkpt>
      <trkpt lat="50.05152" lon="2.254">
        <ele>143.3</ele>
        <time>2022-11-30T14:14:46Z</time>
      </trkpt>
      <trkpt lat="50.05152" lon="2.254">
        <ele>143.3</ele>
        <time>2022-11-30T14:14:47Z</time>
      </trkpt>
      <trkpt lat="50.0515" lon="2.25402">
        <ele>143.4</ele>
        <time>2022-11-30T14:14:48Z</time>
      </trkpt>
      <trkpt lat="50.05149" lon="2.25402">
        <ele>143.4</ele>
        <time>2022-11-30T14:14:49Z</time>
      </trkpt>
      <trkpt lat="50.05149" lon="2.25403">
        <ele>143.4</ele>
        <time>2022-11-30T14:14:50Z</time>
      </trkpt>
      <trkpt lat="50.05147" lon="2.25404">
        <ele>143.5</ele>
        <time>2022-11-30T14:14:51Z</time>
      </trkpt>
      <trkpt lat="50.05146" lon="2.25405">
        <ele>143.5</ele>
        <time>2022-11-30T14:14:52Z</time>
      </trkpt>
      <trkpt lat="50.05145" lon="2.25405">
        <ele>143.5</ele>
        <time>2022-11-30T14:14:53Z</time>
      </trkpt>
      <trkpt lat="50.05144" lon="2.25406">
        <ele>143.6</ele>
        <time>2022-11-30T14:14:55Z</time>
      </trkpt>
      <trkpt lat="50.05143" lon="2.25407">
        <ele>143.6</ele>
        <time>2022-11-30T14:14:56Z</time>
      </trkpt>
      <trkpt lat="50.05142" lon="2.25408">
        <ele>143.7</ele>
        <time>2022-11-30T14:14:57Z</time>
      </trkpt>
      <trkpt lat="50.05141" lon="2.25409">
        <ele>143.7</ele>
        <time>2022-11-30T14:14:58Z</time>
      </trkpt>
      <trkpt lat="50.0514" lon="2.2541">
        <ele>143.7</ele>
        <time>2022-11-30T14:14:59Z</time>
      </trkpt>
      <trkpt lat="50.05139" lon="2.25412">
        <ele>143.8</ele>
        <time>2022-11-30T14:15:01Z</time>
      </trkpt>
      <trkpt lat="50.05138" lon="2.25413">
        <ele>143.8</ele>
        <time>2022-11-30T14:15:02Z</time>
      </trkpt>
      <trkpt lat="50.05136" lon="2.25414">
        <ele>143.9</ele>
        <time>2022-11-30T14:15:03Z</time>
      </trkpt>
      <trkpt lat="50.05135" lon="2.25415">
        <ele>143.9</ele>
        <time>2022-11-30T14:15:04Z</time>
      </trkpt>
      <trkpt lat="50.05134" lon="2.25416">
        <ele>143.9</ele>
        <time>2022-11-30T14:15:05Z</time>
      </trkpt>
      <trkpt lat="50.05133" lon="2.25417">
        <ele>144</ele>
        <time>2022-11-30T14:15:06Z</time>
      </trkpt>
      <trkpt lat="50.05132" lon="2.25418">
        <ele>144</ele>
        <time>2022-11-30T14:15:07Z</time>
      </trkpt>
      <trkpt lat="50.0513" lon="2.25419">
        <ele>144</ele>
        <time>2022-11-30T14:15:08Z</time>
      </trkpt>
      <trkpt lat="50.05129" lon="2.2542">
        <ele>144.1</ele>
        <time>2022-11-30T14:15:09Z</time>
      </trkpt>
      <trkpt lat="50.05127" lon="2.25422">
        <ele>144.1</ele>
        <time>2022-11-30T14:15:10Z</time>
      </trkpt>
      <trkpt lat="50.05127" lon="2.25423">
        <ele>144.1</ele>
        <time>2022-11-30T14:15:11Z</time>
      </trkpt>
      <trkpt lat="50.05126" lon="2.25423">
        <ele>144.2</ele>
        <time>2022-11-30T14:15:12Z</time>
      </trkpt>
      <trkpt lat="50.05125" lon="2.25424">
        <ele>144.2</ele>
        <time>2022-11-30T14:15:14Z</time>
      </trkpt>
      <trkpt lat="50.05123" lon="2.25426">
        <ele>144.2</ele>
        <time>2022-11-30T14:15:15Z</time>
      </trkpt>
      <trkpt lat="50.05122" lon="2.25427">
        <ele>144.3</ele>
        <time>2022-11-30T14:15:16Z</time>
      </trkpt>
      <trkpt lat="50.05121" lon="2.25428">
        <ele>144.3</ele>
        <time>2022-11-30T14:15:17Z</time>
      </trkpt>
      <trkpt lat="50.0512" lon="2.25429">
        <ele>144.3</ele>
        <time>2022-11-30T14:15:18Z</time>
      </trkpt>
      <trkpt lat="50.05119" lon="2.2543">
        <ele>144.4</ele>
        <time>2022-11-30T14:15:20Z</time>
      </trkpt>
      <trkpt lat="50.05118" lon="2.25431">
        <ele>144.4</ele>
        <time>2022-11-30T14:15:21Z</time>
      </trkpt>
      <trkpt lat="50.05117" lon="2.25432">
        <ele>144.4</ele>
        <time>2022-11-30T14:15:22Z</time>
      </trkpt>
      <trkpt lat="50.05116" lon="2.25433">
        <ele>144.5</ele>
        <time>2022-11-30T14:15:23Z</time>
      </trkpt>
      <trkpt lat="50.05115" lon="2.25434">
        <ele>144.5</ele>
        <time>2022-11-30T14:15:24Z</time>
      </trkpt>
      <trkpt lat="50.05113" lon="2.25435">
        <ele>144.5</ele>
        <time>2022-11-30T14:15:25Z</time>
      </trkpt>
      <trkpt lat="50.05112" lon="2.25436">
        <ele>144.6</ele>
        <time>2022-11-30T14:15:26Z</time>
      </trkpt>
      <trkpt lat="50.05112" lon="2.25436">
        <ele>144.6</ele>
        <time>2022-11-30T14:15:27Z</time>
      </trkpt>
      <trkpt lat="50.0511" lon="2.25437">
        <ele>144.6</ele>
        <time>2022-11-30T14:15:28Z</time>
      </trkpt>
      <trkpt lat="50.05109" lon="2.25438">
        <ele>144.6</ele>
        <time>2022-11-30T14:15:29Z</time>
      </trkpt>
      <trkpt lat="50.05107" lon="2.2544">
        <ele>144.7</ele>
        <time>2022-11-30T14:15:30Z</time>
      </trkpt>
      <trkpt lat="50.05106" lon="2.2544">
        <ele>144.7</ele>
        <time>2022-11-30T14:15:32Z</time>
      </trkpt>
      <trkpt lat="50.05106" lon="2.25441">
        <ele>144.7</ele>
        <time>2022-11-30T14:15:33Z</time>
      </trkpt>
      <trkpt lat="50.05105" lon="2.25442">
        <ele>144.7</ele>
        <time>2022-11-30T14:15:34Z</time>
      </trkpt>
      <trkpt lat="50.05104" lon="2.25443">
        <ele>144.7</ele>
        <time>2022-11-30T14:15:35Z</time>
      </trkpt>
      <trkpt lat="50.05103" lon="2.25444">
        <ele>144.7</ele>
        <time>2022-11-30T14:15:36Z</time>
      </trkpt>
      <trkpt lat="50.05102" lon="2.25445">
        <ele>144.7</ele>
        <time>2022-11-30T14:15:37Z</time>
      </trkpt>
      <trkpt lat="50.05102" lon="2.25446">
        <ele>144.7</ele>
        <time>2022-11-30T14:15:38Z</time>
      </trkpt>
      <trkpt lat="50.05101" lon="2.25448">
        <ele>144.7</ele>
        <time>2022-11-30T14:15:39Z</time>
      </trkpt>
      <trkpt lat="50.051" lon="2.25449">
        <ele>144.7</ele>
        <time>2022-11-30T14:15:40Z</time>
      </trkpt>
      <trkpt lat="50.05099" lon="2.2545">
        <ele>144.7</ele>
        <time>2022-11-30T14:15:41Z</time>
      </trkpt>
      <trkpt lat="50.05098" lon="2.25452">
        <ele>144.7</ele>
        <time>2022-11-30T14:15:42Z</time>
      </trkpt>
      <trkpt lat="50.05096" lon="2.25453">
        <ele>144.7</ele>
        <time>2022-11-30T14:15:43Z</time>
      </trkpt>
      <trkpt lat="50.05095" lon="2.25454">
        <ele>144.7</ele>
        <time>2022-11-30T14:15:44Z</time>
      </trkpt>
      <trkpt lat="50.05094" lon="2.25456">
        <ele>144.7</ele>
        <time>2022-11-30T14:15:45Z</time>
      </trkpt>
      <trkpt lat="50.05093" lon="2.25457">
        <ele>144.6</ele>
        <time>2022-11-30T14:15:46Z</time>
      </trkpt>
      <trkpt lat="50.05092" lon="2.25458">
        <ele>144.6</ele>
        <time>2022-11-30T14:15:47Z</time>
      </trkpt>
      <trkpt lat="50.05092" lon="2.25459">
        <ele>144.6</ele>
        <time>2022-11-30T14:15:49Z</time>
      </trkpt>
      <trkpt lat="50.05091" lon="2.25461">
        <ele>144.6</ele>
        <time>2022-11-30T14:15:50Z</time>
      </trkpt>
      <trkpt lat="50.0509" lon="2.25462">
        <ele>144.6</ele>
        <time>2022-11-30T14:15:51Z</time>
      </trkpt>
      <trkpt lat="50.05089" lon="2.25463">
        <ele>144.6</ele>
        <time>2022-11-30T14:15:52Z</time>
      </trkpt>
      <trkpt lat="50.05088" lon="2.25465">
        <ele>144.6</ele>
        <time>2022-11-30T14:15:53Z</time>
      </trkpt>
      <trkpt lat="50.05087" lon="2.25466">
        <ele>144.5</ele>
        <time>2022-11-30T14:15:54Z</time>
      </trkpt>
      <trkpt lat="50.05087" lon="2.25467">
        <ele>144.5</ele>
        <time>2022-11-30T14:15:55Z</time>
      </trkpt>
      <trkpt lat="50.05086" lon="2.25469">
        <ele>144.5</ele>
        <time>2022-11-30T14:15:56Z</time>
      </trkpt>
      <trkpt lat="50.05085" lon="2.2547">
        <ele>144.5</ele>
        <time>2022-11-30T14:15:57Z</time>
      </trkpt>
      <trkpt lat="50.05085" lon="2.25471">
        <ele>144.5</ele>
        <time>2022-11-30T14:15:58Z</time>
      </trkpt>
      <trkpt lat="50.05084" lon="2.25472">
        <ele>144.5</ele>
        <time>2022-11-30T14:15:59Z</time>
      </trkpt>
      <trkpt lat="50.05084" lon="2.25473">
        <ele>144.4</ele>
        <time>2022-11-30T14:16:00Z</time>
      </trkpt>
      <trkpt lat="50.05083" lon="2.25475">
        <ele>144.4</ele>
        <time>2022-11-30T14:16:01Z</time>
      </trkpt>
      <trkpt lat="50.05082" lon="2.25477">
        <ele>144.4</ele>
        <time>2022-11-30T14:16:03Z</time>
      </trkpt>
      <trkpt lat="50.05082" lon="2.25478">
        <ele>144.3</ele>
        <time>2022-11-30T14:16:04Z</time>
      </trkpt>
      <trkpt lat="50.05081" lon="2.2548">
        <ele>144.3</ele>
        <time>2022-11-30T14:16:05Z</time>
      </trkpt>
      <trkpt lat="50.05079" lon="2.25482">
        <ele>144.3</ele>
        <time>2022-11-30T14:16:06Z</time>
      </trkpt>
      <trkpt lat="50.05079" lon="2.25483">
        <ele>144.2</ele>
        <time>2022-11-30T14:16:07Z</time>
      </trkpt>
      <trkpt lat="50.05078" lon="2.25484">
        <ele>144.2</ele>
        <time>2022-11-30T14:16:08Z</time>
      </trkpt>
      <trkpt lat="50.05077" lon="2.25487">
        <ele>144.2</ele>
        <time>2022-11-30T14:16:09Z</time>
      </trkpt>
      <trkpt lat="50.05076" lon="2.25488">
        <ele>144.1</ele>
        <time>2022-11-30T14:16:10Z</time>
      </trkpt>
      <trkpt lat="50.05075" lon="2.25489">
        <ele>144.1</ele>
        <time>2022-11-30T14:16:11Z</time>
      </trkpt>
      <trkpt lat="50.05075" lon="2.2549">
        <ele>144.1</ele>
        <time>2022-11-30T14:16:12Z</time>
      </trkpt>
      <trkpt lat="50.05074" lon="2.25492">
        <ele>144</ele>
        <time>2022-11-30T14:16:14Z</time>
      </trkpt>
      <trkpt lat="50.05074" lon="2.25493">
        <ele>144</ele>
        <time>2022-11-30T14:16:15Z</time>
      </trkpt>
      <trkpt lat="50.05073" lon="2.25496">
        <ele>143.9</ele>
        <time>2022-11-30T14:16:16Z</time>
      </trkpt>
      <trkpt lat="50.05073" lon="2.25497">
        <ele>143.9</ele>
        <time>2022-11-30T14:16:17Z</time>
      </trkpt>
      <trkpt lat="50.05072" lon="2.25499">
        <ele>143.9</ele>
        <time>2022-11-30T14:16:18Z</time>
      </trkpt>
      <trkpt lat="50.05072" lon="2.255">
        <ele>143.9</ele>
        <time>2022-11-30T14:16:19Z</time>
      </trkpt>
      <trkpt lat="50.05071" lon="2.25502">
        <ele>143.8</ele>
        <time>2022-11-30T14:16:20Z</time>
      </trkpt>
      <trkpt lat="50.05071" lon="2.25503">
        <ele>143.8</ele>
        <time>2022-11-30T14:16:21Z</time>
      </trkpt>
      <trkpt lat="50.0507" lon="2.25506">
        <ele>143.7</ele>
        <time>2022-11-30T14:16:22Z</time>
      </trkpt>
      <trkpt lat="50.0507" lon="2.25507">
        <ele>143.7</ele>
        <time>2022-11-30T14:16:23Z</time>
      </trkpt>
      <trkpt lat="50.05069" lon="2.25508">
        <ele>143.7</ele>
        <time>2022-11-30T14:16:24Z</time>
      </trkpt>
      <trkpt lat="50.05068" lon="2.25511">
        <ele>143.6</ele>
        <time>2022-11-30T14:16:25Z</time>
      </trkpt>
      <trkpt lat="50.05068" lon="2.25513">
        <ele>143.6</ele>
        <time>2022-11-30T14:16:26Z</time>
      </trkpt>
      <trkpt lat="50.05067" lon="2.25516">
        <ele>143.5</ele>
        <time>2022-11-30T14:16:28Z</time>
      </trkpt>
      <trkpt lat="50.05067" lon="2.25518">
        <ele>143.4</ele>
        <time>2022-11-30T14:16:29Z</time>
      </trkpt>
      <trkpt lat="50.05066" lon="2.2552">
        <ele>143.4</ele>
        <time>2022-11-30T14:16:30Z</time>
      </trkpt>
      <trkpt lat="50.05065" lon="2.25522">
        <ele>143.3</ele>
        <time>2022-11-30T14:16:31Z</time>
      </trkpt>
      <trkpt lat="50.05065" lon="2.25525">
        <ele>143.3</ele>
        <time>2022-11-30T14:16:32Z</time>
      </trkpt>
      <trkpt lat="50.05064" lon="2.25526">
        <ele>143.3</ele>
        <time>2022-11-30T14:16:33Z</time>
      </trkpt>
      <trkpt lat="50.05064" lon="2.25527">
        <ele>143.2</ele>
        <time>2022-11-30T14:16:34Z</time>
      </trkpt>
      <trkpt lat="50.05063" lon="2.2553">
        <ele>143.2</ele>
        <time>2022-11-30T14:16:35Z</time>
      </trkpt>
      <trkpt lat="50.05063" lon="2.25531">
        <ele>143.1</ele>
        <time>2022-11-30T14:16:36Z</time>
      </trkpt>
      <trkpt lat="50.05063" lon="2.25533">
        <ele>143.1</ele>
        <time>2022-11-30T14:16:37Z</time>
      </trkpt>
      <trkpt lat="50.05062" lon="2.25535">
        <ele>143</ele>
        <time>2022-11-30T14:16:38Z</time>
      </trkpt>
      <trkpt lat="50.05061" lon="2.25537">
        <ele>143</ele>
        <time>2022-11-30T14:16:40Z</time>
      </trkpt>
      <trkpt lat="50.05061" lon="2.25538">
        <ele>142.9</ele>
        <time>2022-11-30T14:16:41Z</time>
      </trkpt>
      <trkpt lat="50.0506" lon="2.2554">
        <ele>142.9</ele>
        <time>2022-11-30T14:16:42Z</time>
      </trkpt>
      <trkpt lat="50.0506" lon="2.25541">
        <ele>142.9</ele>
        <time>2022-11-30T14:16:43Z</time>
      </trkpt>
      <trkpt lat="50.05059" lon="2.25544">
        <ele>142.8</ele>
        <time>2022-11-30T14:16:44Z</time>
      </trkpt>
      <trkpt lat="50.05058" lon="2.25545">
        <ele>142.8</ele>
        <time>2022-11-30T14:16:45Z</time>
      </trkpt>
      <trkpt lat="50.05058" lon="2.25546">
        <ele>142.8</ele>
        <time>2022-11-30T14:16:46Z</time>
      </trkpt>
      <trkpt lat="50.05057" lon="2.25549">
        <ele>142.7</ele>
        <time>2022-11-30T14:16:48Z</time>
      </trkpt>
      <trkpt lat="50.05056" lon="2.25551">
        <ele>142.6</ele>
        <time>2022-11-30T14:16:49Z</time>
      </trkpt>
      <trkpt lat="50.05055" lon="2.25553">
        <ele>142.6</ele>
        <time>2022-11-30T14:16:50Z</time>
      </trkpt>
      <trkpt lat="50.05054" lon="2.25554">
        <ele>142.5</ele>
        <time>2022-11-30T14:16:51Z</time>
      </trkpt>
      <trkpt lat="50.05054" lon="2.25555">
        <ele>142.5</ele>
        <time>2022-11-30T14:16:52Z</time>
      </trkpt>
      <trkpt lat="50.05053" lon="2.25557">
        <ele>142.4</ele>
        <time>2022-11-30T14:16:53Z</time>
      </trkpt>
      <trkpt lat="50.05052" lon="2.25559">
        <ele>142.4</ele>
        <time>2022-11-30T14:16:54Z</time>
      </trkpt>
      <trkpt lat="50.05051" lon="2.2556">
        <ele>142.3</ele>
        <time>2022-11-30T14:16:55Z</time>
      </trkpt>
      <trkpt lat="50.0505" lon="2.25562">
        <ele>142.3</ele>
        <time>2022-11-30T14:16:56Z</time>
      </trkpt>
      <trkpt lat="50.05049" lon="2.25564">
        <ele>142.2</ele>
        <time>2022-11-30T14:16:58Z</time>
      </trkpt>
      <trkpt lat="50.05049" lon="2.25566">
        <ele>142.2</ele>
        <time>2022-11-30T14:16:59Z</time>
      </trkpt>
      <trkpt lat="50.05048" lon="2.25567">
        <ele>142.1</ele>
        <time>2022-11-30T14:17:00Z</time>
      </trkpt>
      <trkpt lat="50.05047" lon="2.25568">
        <ele>142.1</ele>
        <time>2022-11-30T14:17:01Z</time>
      </trkpt>
      <trkpt lat="50.05047" lon="2.25569">
        <ele>142.1</ele>
        <time>2022-11-30T14:17:02Z</time>
      </trkpt>
      <trkpt lat="50.05046" lon="2.25571">
        <ele>142</ele>
        <time>2022-11-30T14:17:03Z</time>
      </trkpt>
      <trkpt lat="50.05045" lon="2.25572">
        <ele>142</ele>
        <time>2022-11-30T14:17:04Z</time>
      </trkpt>
      <trkpt lat="50.05045" lon="2.25574">
        <ele>141.9</ele>
        <time>2022-11-30T14:17:05Z</time>
      </trkpt>
      <trkpt lat="50.05044" lon="2.25576">
        <ele>141.9</ele>
        <time>2022-11-30T14:17:07Z</time>
      </trkpt>
      <trkpt lat="50.05043" lon="2.25578">
        <ele>141.8</ele>
        <time>2022-11-30T14:17:08Z</time>
      </trkpt>
      <trkpt lat="50.05043" lon="2.2558">
        <ele>141.8</ele>
        <time>2022-11-30T14:17:09Z</time>
      </trkpt>
      <trkpt lat="50.05042" lon="2.25581">
        <ele>141.7</ele>
        <time>2022-11-30T14:17:10Z</time>
      </trkpt>
      <trkpt lat="50.05041" lon="2.25583">
        <ele>141.7</ele>
        <time>2022-11-30T14:17:11Z</time>
      </trkpt>
      <trkpt lat="50.05041" lon="2.25585">
        <ele>141.6</ele>
        <time>2022-11-30T14:17:12Z</time>
      </trkpt>
      <trkpt lat="50.0504" lon="2.25586">
        <ele>141.6</ele>
        <time>2022-11-30T14:17:13Z</time>
      </trkpt>
      <trkpt lat="50.05039" lon="2.25588">
        <ele>141.6</ele>
        <time>2022-11-30T14:17:14Z</time>
      </trkpt>
      <trkpt lat="50.05038" lon="2.2559">
        <ele>141.5</ele>
        <time>2022-11-30T14:17:15Z</time>
      </trkpt>
      <trkpt lat="50.05037" lon="2.25591">
        <ele>141.5</ele>
        <time>2022-11-30T14:17:16Z</time>
      </trkpt>
      <trkpt lat="50.05036" lon="2.25592">
        <ele>141.4</ele>
        <time>2022-11-30T14:17:18Z</time>
      </trkpt>
      <trkpt lat="50.05036" lon="2.25593">
        <ele>141.4</ele>
        <time>2022-11-30T14:17:19Z</time>
      </trkpt>
      <trkpt lat="50.05035" lon="2.25594">
        <ele>141.4</ele>
        <time>2022-11-30T14:17:20Z</time>
      </trkpt>
      <trkpt lat="50.05034" lon="2.25596">
        <ele>141.4</ele>
        <time>2022-11-30T14:17:21Z</time>
      </trkpt>
      <trkpt lat="50.05033" lon="2.25597">
        <ele>141.3</ele>
        <time>2022-11-30T14:17:22Z</time>
      </trkpt>
      <trkpt lat="50.05032" lon="2.25598">
        <ele>141.3</ele>
        <time>2022-11-30T14:17:23Z</time>
      </trkpt>
      <trkpt lat="50.05031" lon="2.25599">
        <ele>141.2</ele>
        <time>2022-11-30T14:17:24Z</time>
      </trkpt>
      <trkpt lat="50.0503" lon="2.256">
        <ele>141.2</ele>
        <time>2022-11-30T14:17:25Z</time>
      </trkpt>
      <trkpt lat="50.05029" lon="2.25602">
        <ele>141.2</ele>
        <time>2022-11-30T14:17:26Z</time>
      </trkpt>
      <trkpt lat="50.05028" lon="2.25603">
        <ele>141.1</ele>
        <time>2022-11-30T14:17:27Z</time>
      </trkpt>
      <trkpt lat="50.05027" lon="2.25604">
        <ele>141.1</ele>
        <time>2022-11-30T14:17:28Z</time>
      </trkpt>
      <trkpt lat="50.05026" lon="2.25605">
        <ele>141.1</ele>
        <time>2022-11-30T14:17:29Z</time>
      </trkpt>
      <trkpt lat="50.05025" lon="2.25606">
        <ele>141</ele>
        <time>2022-11-30T14:17:30Z</time>
      </trkpt>
      <trkpt lat="50.05025" lon="2.25607">
        <ele>141</ele>
        <time>2022-11-30T14:17:31Z</time>
      </trkpt>
      <trkpt lat="50.05024" lon="2.25609">
        <ele>141</ele>
        <time>2022-11-30T14:17:32Z</time>
      </trkpt>
      <trkpt lat="50.05023" lon="2.2561">
        <ele>140.9</ele>
        <time>2022-11-30T14:17:34Z</time>
      </trkpt>
      <trkpt lat="50.05022" lon="2.25611">
        <ele>140.9</ele>
        <time>2022-11-30T14:17:35Z</time>
      </trkpt>
      <trkpt lat="50.05021" lon="2.25613">
        <ele>140.8</ele>
        <time>2022-11-30T14:17:36Z</time>
      </trkpt>
      <trkpt lat="50.05019" lon="2.25615">
        <ele>140.8</ele>
        <time>2022-11-30T14:17:37Z</time>
      </trkpt>
      <trkpt lat="50.05018" lon="2.25616">
        <ele>140.7</ele>
        <time>2022-11-30T14:17:38Z</time>
      </trkpt>
      <trkpt lat="50.05017" lon="2.25618">
        <ele>140.7</ele>
        <time>2022-11-30T14:17:39Z</time>
      </trkpt>
      <trkpt lat="50.05016" lon="2.25619">
        <ele>140.6</ele>
        <time>2022-11-30T14:17:41Z</time>
      </trkpt>
      <trkpt lat="50.05015" lon="2.2562">
        <ele>140.6</ele>
        <time>2022-11-30T14:17:42Z</time>
      </trkpt>
      <trkpt lat="50.05014" lon="2.25621">
        <ele>140.6</ele>
        <time>2022-11-30T14:17:43Z</time>
      </trkpt>
      <trkpt lat="50.05013" lon="2.25623">
        <ele>140.5</ele>
        <time>2022-11-30T14:17:44Z</time>
      </trkpt>
      <trkpt lat="50.05012" lon="2.25624">
        <ele>140.5</ele>
        <time>2022-11-30T14:17:45Z</time>
      </trkpt>
      <trkpt lat="50.05011" lon="2.25626">
        <ele>140.4</ele>
        <time>2022-11-30T14:17:46Z</time>
      </trkpt>
      <trkpt lat="50.0501" lon="2.25627">
        <ele>140.4</ele>
        <time>2022-11-30T14:17:48Z</time>
      </trkpt>
      <trkpt lat="50.05009" lon="2.25628">
        <ele>140.3</ele>
        <time>2022-11-30T14:17:49Z</time>
      </trkpt>
      <trkpt lat="50.05008" lon="2.25629">
        <ele>140.3</ele>
        <time>2022-11-30T14:17:50Z</time>
      </trkpt>
      <trkpt lat="50.05008" lon="2.2563">
        <ele>140.3</ele>
        <time>2022-11-30T14:17:51Z</time>
      </trkpt>
      <trkpt lat="50.05007" lon="2.25631">
        <ele>140.3</ele>
        <time>2022-11-30T14:17:52Z</time>
      </trkpt>
      <trkpt lat="50.05006" lon="2.25632">
        <ele>140.2</ele>
        <time>2022-11-30T14:17:53Z</time>
      </trkpt>
      <trkpt lat="50.05005" lon="2.25634">
        <ele>140.2</ele>
        <time>2022-11-30T14:17:54Z</time>
      </trkpt>
      <trkpt lat="50.05003" lon="2.25635">
        <ele>140.1</ele>
        <time>2022-11-30T14:17:56Z</time>
      </trkpt>
      <trkpt lat="50.05002" lon="2.25637">
        <ele>140.1</ele>
        <time>2022-11-30T14:17:57Z</time>
      </trkpt>
      <trkpt lat="50.05001" lon="2.25638">
        <ele>140.1</ele>
        <time>2022-11-30T14:17:58Z</time>
      </trkpt>
      <trkpt lat="50.05001" lon="2.25639">
        <ele>140</ele>
        <time>2022-11-30T14:17:59Z</time>
      </trkpt>
      <trkpt lat="50.04999" lon="2.2564">
        <ele>140</ele>
        <time>2022-11-30T14:18:00Z</time>
      </trkpt>
      <trkpt lat="50.04998" lon="2.25641">
        <ele>140</ele>
        <time>2022-11-30T14:18:01Z</time>
      </trkpt>
      <trkpt lat="50.04996" lon="2.25643">
        <ele>139.9</ele>
        <time>2022-11-30T14:18:02Z</time>
      </trkpt>
      <trkpt lat="50.04996" lon="2.25644">
        <ele>139.9</ele>
        <time>2022-11-30T14:18:03Z</time>
      </trkpt>
      <trkpt lat="50.04995" lon="2.25644">
        <ele>139.9</ele>
        <time>2022-11-30T14:18:04Z</time>
      </trkpt>
      <trkpt lat="50.04993" lon="2.25646">
        <ele>139.8</ele>
        <time>2022-11-30T14:18:06Z</time>
      </trkpt>
      <trkpt lat="50.04992" lon="2.25647">
        <ele>139.8</ele>
        <time>2022-11-30T14:18:07Z</time>
      </trkpt>
      <trkpt lat="50.0499" lon="2.25648">
        <ele>139.7</ele>
        <time>2022-11-30T14:18:08Z</time>
      </trkpt>
      <trkpt lat="50.0499" lon="2.25648">
        <ele>139.7</ele>
        <time>2022-11-30T14:18:09Z</time>
      </trkpt>
      <trkpt lat="50.04989" lon="2.25649">
        <ele>139.7</ele>
        <time>2022-11-30T14:18:10Z</time>
      </trkpt>
      <trkpt lat="50.04988" lon="2.25649">
        <ele>139.7</ele>
        <time>2022-11-30T14:18:11Z</time>
      </trkpt>
      <trkpt lat="50.04986" lon="2.2565">
        <ele>139.6</ele>
        <time>2022-11-30T14:18:12Z</time>
      </trkpt>
      <trkpt lat="50.04985" lon="2.25651">
        <ele>139.6</ele>
        <time>2022-11-30T14:18:13Z</time>
      </trkpt>
      <trkpt lat="50.04983" lon="2.25651">
        <ele>139.5</ele>
        <time>2022-11-30T14:18:15Z</time>
      </trkpt>
      <trkpt lat="50.04982" lon="2.25652">
        <ele>139.5</ele>
        <time>2022-11-30T14:18:16Z</time>
      </trkpt>
      <trkpt lat="50.0498" lon="2.25653">
        <ele>139.5</ele>
        <time>2022-11-30T14:18:17Z</time>
      </trkpt>
      <trkpt lat="50.04978" lon="2.25654">
        <ele>139.4</ele>
        <time>2022-11-30T14:18:18Z</time>
      </trkpt>
      <trkpt lat="50.04978" lon="2.25654">
        <ele>139.4</ele>
        <time>2022-11-30T14:18:19Z</time>
      </trkpt>
      <trkpt lat="50.04977" lon="2.25654">
        <ele>139.4</ele>
        <time>2022-11-30T14:18:20Z</time>
      </trkpt>
      <trkpt lat="50.04976" lon="2.25654">
        <ele>139.3</ele>
        <time>2022-11-30T14:18:21Z</time>
      </trkpt>
      <trkpt lat="50.04974" lon="2.25655">
        <ele>139.3</ele>
        <time>2022-11-30T14:18:22Z</time>
      </trkpt>
      <trkpt lat="50.04973" lon="2.25655">
        <ele>139.3</ele>
        <time>2022-11-30T14:18:23Z</time>
      </trkpt>
      <trkpt lat="50.04972" lon="2.25655">
        <ele>139.2</ele>
        <time>2022-11-30T14:18:24Z</time>
      </trkpt>
      <trkpt lat="50.04971" lon="2.25655">
        <ele>139.2</ele>
        <time>2022-11-30T14:18:25Z</time>
      </trkpt>
      <trkpt lat="50.0497" lon="2.25655">
        <ele>139.2</ele>
        <time>2022-11-30T14:18:27Z</time>
      </trkpt>
      <trkpt lat="50.04968" lon="2.25655">
        <ele>139.1</ele>
        <time>2022-11-30T14:18:28Z</time>
      </trkpt>
      <trkpt lat="50.04967" lon="2.25656">
        <ele>139.1</ele>
        <time>2022-11-30T14:18:29Z</time>
      </trkpt>
      <trkpt lat="50.04965" lon="2.25656">
        <ele>139.1</ele>
        <time>2022-11-30T14:18:30Z</time>
      </trkpt>
      <trkpt lat="50.04964" lon="2.25657">
        <ele>139</ele>
        <time>2022-11-30T14:18:31Z</time>
      </trkpt>
      <trkpt lat="50.04963" lon="2.25657">
        <ele>139</ele>
        <time>2022-11-30T14:18:32Z</time>
      </trkpt>
      <trkpt lat="50.04961" lon="2.25657">
        <ele>139</ele>
        <time>2022-11-30T14:18:33Z</time>
      </trkpt>
      <trkpt lat="50.0496" lon="2.25658">
        <ele>138.9</ele>
        <time>2022-11-30T14:18:34Z</time>
      </trkpt>
      <trkpt lat="50.04959" lon="2.25658">
        <ele>138.9</ele>
        <time>2022-11-30T14:18:35Z</time>
      </trkpt>
      <trkpt lat="50.04958" lon="2.25658">
        <ele>138.9</ele>
        <time>2022-11-30T14:18:36Z</time>
      </trkpt>
      <trkpt lat="50.04956" lon="2.25659">
        <ele>138.8</ele>
        <time>2022-11-30T14:18:38Z</time>
      </trkpt>
      <trkpt lat="50.04955" lon="2.25659">
        <ele>138.8</ele>
        <time>2022-11-30T14:18:39Z</time>
      </trkpt>
      <trkpt lat="50.04954" lon="2.2566">
        <ele>138.8</ele>
        <time>2022-11-30T14:18:40Z</time>
      </trkpt>
      <trkpt lat="50.04953" lon="2.2566">
        <ele>138.8</ele>
        <time>2022-11-30T14:18:41Z</time>
      </trkpt>
      <trkpt lat="50.04951" lon="2.25661">
        <ele>138.7</ele>
        <time>2022-11-30T14:18:42Z</time>
      </trkpt>
      <trkpt lat="50.0495" lon="2.25661">
        <ele>138.7</ele>
        <time>2022-11-30T14:18:43Z</time>
      </trkpt>
      <trkpt lat="50.04949" lon="2.25661">
        <ele>138.7</ele>
        <time>2022-11-30T14:18:45Z</time>
      </trkpt>
      <trkpt lat="50.04948" lon="2.25661">
        <ele>138.7</ele>
        <time>2022-11-30T14:18:46Z</time>
      </trkpt>
      <trkpt lat="50.04947" lon="2.25661">
        <ele>138.6</ele>
        <time>2022-11-30T14:18:47Z</time>
      </trkpt>
      <trkpt lat="50.04946" lon="2.25662">
        <ele>138.6</ele>
        <time>2022-11-30T14:18:48Z</time>
      </trkpt>
      <trkpt lat="50.04944" lon="2.25662">
        <ele>138.6</ele>
        <time>2022-11-30T14:18:49Z</time>
      </trkpt>
      <trkpt lat="50.04943" lon="2.25662">
        <ele>138.6</ele>
        <time>2022-11-30T14:18:50Z</time>
      </trkpt>
      <trkpt lat="50.04942" lon="2.25663">
        <ele>138.5</ele>
        <time>2022-11-30T14:18:51Z</time>
      </trkpt>
      <trkpt lat="50.0494" lon="2.25663">
        <ele>138.5</ele>
        <time>2022-11-30T14:18:52Z</time>
      </trkpt>
      <trkpt lat="50.04939" lon="2.25664">
        <ele>138.5</ele>
        <time>2022-11-30T14:18:53Z</time>
      </trkpt>
      <trkpt lat="50.04938" lon="2.25664">
        <ele>138.5</ele>
        <time>2022-11-30T14:18:54Z</time>
      </trkpt>
      <trkpt lat="50.04936" lon="2.25665">
        <ele>138.4</ele>
        <time>2022-11-30T14:18:56Z</time>
      </trkpt>
      <trkpt lat="50.04935" lon="2.25665">
        <ele>138.4</ele>
        <time>2022-11-30T14:18:57Z</time>
      </trkpt>
      <trkpt lat="50.04934" lon="2.25666">
        <ele>138.4</ele>
        <time>2022-11-30T14:18:58Z</time>
      </trkpt>
      <trkpt lat="50.04933" lon="2.25667">
        <ele>138.4</ele>
        <time>2022-11-30T14:18:59Z</time>
      </trkpt>
      <trkpt lat="50.04932" lon="2.25668">
        <ele>138.3</ele>
        <time>2022-11-30T14:19:00Z</time>
      </trkpt>
      <trkpt lat="50.04932" lon="2.25668">
        <ele>138.3</ele>
        <time>2022-11-30T14:19:01Z</time>
      </trkpt>
      <trkpt lat="50.0493" lon="2.25669">
        <ele>138.3</ele>
        <time>2022-11-30T14:19:02Z</time>
      </trkpt>
      <trkpt lat="50.04929" lon="2.25669">
        <ele>138.3</ele>
        <time>2022-11-30T14:19:03Z</time>
      </trkpt>
      <trkpt lat="50.04928" lon="2.2567">
        <ele>138.2</ele>
        <time>2022-11-30T14:19:04Z</time>
      </trkpt>
      <trkpt lat="50.04927" lon="2.2567">
        <ele>138.2</ele>
        <time>2022-11-30T14:19:05Z</time>
      </trkpt>
      <trkpt lat="50.04924" lon="2.25671">
        <ele>138.1</ele>
        <time>2022-11-30T14:19:06Z</time>
      </trkpt>
      <trkpt lat="50.04924" lon="2.25671">
        <ele>138.1</ele>
        <time>2022-11-30T14:19:07Z</time>
      </trkpt>
      <trkpt lat="50.04923" lon="2.25671">
        <ele>138.1</ele>
        <time>2022-11-30T14:19:08Z</time>
      </trkpt>
      <trkpt lat="50.04921" lon="2.25672">
        <ele>138.1</ele>
        <time>2022-11-30T14:19:09Z</time>
      </trkpt>
      <trkpt lat="50.0492" lon="2.25673">
        <ele>138</ele>
        <time>2022-11-30T14:19:11Z</time>
      </trkpt>
      <trkpt lat="50.04919" lon="2.25673">
        <ele>138</ele>
        <time>2022-11-30T14:19:12Z</time>
      </trkpt>
      <trkpt lat="50.04918" lon="2.25674">
        <ele>138</ele>
        <time>2022-11-30T14:19:13Z</time>
      </trkpt>
      <trkpt lat="50.04917" lon="2.25674">
        <ele>138</ele>
        <time>2022-11-30T14:19:14Z</time>
      </trkpt>
      <trkpt lat="50.04916" lon="2.25674">
        <ele>137.9</ele>
        <time>2022-11-30T14:19:15Z</time>
      </trkpt>
      <trkpt lat="50.04915" lon="2.25674">
        <ele>137.9</ele>
        <time>2022-11-30T14:19:16Z</time>
      </trkpt>
      <trkpt lat="50.04914" lon="2.25675">
        <ele>137.9</ele>
        <time>2022-11-30T14:19:17Z</time>
      </trkpt>
      <trkpt lat="50.04912" lon="2.25675">
        <ele>137.9</ele>
        <time>2022-11-30T14:19:18Z</time>
      </trkpt>
      <trkpt lat="50.04911" lon="2.25676">
        <ele>137.8</ele>
        <time>2022-11-30T14:19:19Z</time>
      </trkpt>
      <trkpt lat="50.04909" lon="2.25676">
        <ele>137.8</ele>
        <time>2022-11-30T14:19:20Z</time>
      </trkpt>
      <trkpt lat="50.04908" lon="2.25677">
        <ele>137.8</ele>
        <time>2022-11-30T14:19:21Z</time>
      </trkpt>
      <trkpt lat="50.04906" lon="2.25677">
        <ele>137.7</ele>
        <time>2022-11-30T14:19:22Z</time>
      </trkpt>
      <trkpt lat="50.04905" lon="2.25678">
        <ele>137.7</ele>
        <time>2022-11-30T14:19:23Z</time>
      </trkpt>
      <trkpt lat="50.04903" lon="2.25679">
        <ele>137.7</ele>
        <time>2022-11-30T14:19:25Z</time>
      </trkpt>
      <trkpt lat="50.04902" lon="2.25679">
        <ele>137.7</ele>
        <time>2022-11-30T14:19:26Z</time>
      </trkpt>
      <trkpt lat="50.04901" lon="2.25679">
        <ele>137.7</ele>
        <time>2022-11-30T14:19:27Z</time>
      </trkpt>
      <trkpt lat="50.04899" lon="2.2568">
        <ele>137.6</ele>
        <time>2022-11-30T14:19:28Z</time>
      </trkpt>
      <trkpt lat="50.04898" lon="2.25681">
        <ele>137.6</ele>
        <time>2022-11-30T14:19:29Z</time>
      </trkpt>
      <trkpt lat="50.04897" lon="2.25681">
        <ele>137.6</ele>
        <time>2022-11-30T14:19:30Z</time>
      </trkpt>
      <trkpt lat="50.04896" lon="2.25681">
        <ele>137.6</ele>
        <time>2022-11-30T14:19:31Z</time>
      </trkpt>
      <trkpt lat="50.04895" lon="2.25682">
        <ele>137.6</ele>
        <time>2022-11-30T14:19:32Z</time>
      </trkpt>
      <trkpt lat="50.04894" lon="2.25682">
        <ele>137.5</ele>
        <time>2022-11-30T14:19:33Z</time>
      </trkpt>
      <trkpt lat="50.04893" lon="2.25683">
        <ele>137.5</ele>
        <time>2022-11-30T14:19:34Z</time>
      </trkpt>
      <trkpt lat="50.04891" lon="2.25683">
        <ele>137.5</ele>
        <time>2022-11-30T14:19:35Z</time>
      </trkpt>
      <trkpt lat="50.0489" lon="2.25684">
        <ele>137.5</ele>
        <time>2022-11-30T14:19:36Z</time>
      </trkpt>
      <trkpt lat="50.04889" lon="2.25685">
        <ele>137.5</ele>
        <time>2022-11-30T14:19:37Z</time>
      </trkpt>
      <trkpt lat="50.04887" lon="2.25686">
        <ele>137.5</ele>
        <time>2022-11-30T14:19:38Z</time>
      </trkpt>
      <trkpt lat="50.04886" lon="2.25686">
        <ele>137.4</ele>
        <time>2022-11-30T14:19:39Z</time>
      </trkpt>
      <trkpt lat="50.04885" lon="2.25687">
        <ele>137.4</ele>
        <time>2022-11-30T14:19:41Z</time>
      </trkpt>
      <trkpt lat="50.04884" lon="2.25687">
        <ele>137.4</ele>
        <time>2022-11-30T14:19:42Z</time>
      </trkpt>
      <trkpt lat="50.04882" lon="2.25688">
        <ele>137.4</ele>
        <time>2022-11-30T14:19:43Z</time>
      </trkpt>
      <trkpt lat="50.04881" lon="2.25688">
        <ele>137.4</ele>
        <time>2022-11-30T14:19:44Z</time>
      </trkpt>
      <trkpt lat="50.0488" lon="2.25689">
        <ele>137.4</ele>
        <time>2022-11-30T14:19:45Z</time>
      </trkpt>
      <trkpt lat="50.04879" lon="2.25689">
        <ele>137.4</ele>
        <time>2022-11-30T14:19:46Z</time>
      </trkpt>
      <trkpt lat="50.04878" lon="2.2569">
        <ele>137.3</ele>
        <time>2022-11-30T14:19:47Z</time>
      </trkpt>
      <trkpt lat="50.04877" lon="2.2569">
        <ele>137.3</ele>
        <time>2022-11-30T14:19:48Z</time>
      </trkpt>
      <trkpt lat="50.04875" lon="2.25691">
        <ele>137.3</ele>
        <time>2022-11-30T14:19:49Z</time>
      </trkpt>
      <trkpt lat="50.04874" lon="2.25691">
        <ele>137.3</ele>
        <time>2022-11-30T14:19:50Z</time>
      </trkpt>
      <trkpt lat="50.04873" lon="2.25692">
        <ele>137.3</ele>
        <time>2022-11-30T14:19:51Z</time>
      </trkpt>
      <trkpt lat="50.04872" lon="2.25692">
        <ele>137.3</ele>
        <time>2022-11-30T14:19:52Z</time>
      </trkpt>
      <trkpt lat="50.04871" lon="2.25693">
        <ele>137.3</ele>
        <time>2022-11-30T14:19:54Z</time>
      </trkpt>
      <trkpt lat="50.0487" lon="2.25694">
        <ele>137.2</ele>
        <time>2022-11-30T14:19:55Z</time>
      </trkpt>
      <trkpt lat="50.04868" lon="2.25694">
        <ele>137.2</ele>
        <time>2022-11-30T14:19:56Z</time>
      </trkpt>
      <trkpt lat="50.04867" lon="2.25695">
        <ele>137.2</ele>
        <time>2022-11-30T14:19:57Z</time>
      </trkpt>
      <trkpt lat="50.04866" lon="2.25696">
        <ele>137.2</ele>
        <time>2022-11-30T14:19:58Z</time>
      </trkpt>
      <trkpt lat="50.04865" lon="2.25697">
        <ele>137.2</ele>
        <time>2022-11-30T14:19:59Z</time>
      </trkpt>
      <trkpt lat="50.04864" lon="2.25697">
        <ele>137.2</ele>
        <time>2022-11-30T14:20:00Z</time>
      </trkpt>
      <trkpt lat="50.04863" lon="2.25698">
        <ele>137.2</ele>
        <time>2022-11-30T14:20:01Z</time>
      </trkpt>
      <trkpt lat="50.04862" lon="2.25698">
        <ele>137.1</ele>
        <time>2022-11-30T14:20:02Z</time>
      </trkpt>
      <trkpt lat="50.04861" lon="2.25699">
        <ele>137.1</ele>
        <time>2022-11-30T14:20:03Z</time>
      </trkpt>
      <trkpt lat="50.04859" lon="2.257">
        <ele>137.1</ele>
        <time>2022-11-30T14:20:05Z</time>
      </trkpt>
      <trkpt lat="50.04859" lon="2.257">
        <ele>137.1</ele>
        <time>2022-11-30T14:20:06Z</time>
      </trkpt>
      <trkpt lat="50.04858" lon="2.257">
        <ele>137.1</ele>
        <time>2022-11-30T14:20:07Z</time>
      </trkpt>
      <trkpt lat="50.04856" lon="2.25701">
        <ele>137.1</ele>
        <time>2022-11-30T14:20:08Z</time>
      </trkpt>
      <trkpt lat="50.04855" lon="2.25701">
        <ele>137</ele>
        <time>2022-11-30T14:20:09Z</time>
      </trkpt>
      <trkpt lat="50.04854" lon="2.25702">
        <ele>137</ele>
        <time>2022-11-30T14:20:10Z</time>
      </trkpt>
      <trkpt lat="50.04852" lon="2.25702">
        <ele>137</ele>
        <time>2022-11-30T14:20:12Z</time>
      </trkpt>
      <trkpt lat="50.04851" lon="2.25702">
        <ele>137</ele>
        <time>2022-11-30T14:20:13Z</time>
      </trkpt>
      <trkpt lat="50.0485" lon="2.25702">
        <ele>136.9</ele>
        <time>2022-11-30T14:20:14Z</time>
      </trkpt>
      <trkpt lat="50.04849" lon="2.25703">
        <ele>136.9</ele>
        <time>2022-11-30T14:20:15Z</time>
      </trkpt>
      <trkpt lat="50.04848" lon="2.25703">
        <ele>136.9</ele>
        <time>2022-11-30T14:20:16Z</time>
      </trkpt>
      <trkpt lat="50.04847" lon="2.25702">
        <ele>136.9</ele>
        <time>2022-11-30T14:20:17Z</time>
      </trkpt>
      <trkpt lat="50.04846" lon="2.25702">
        <ele>136.9</ele>
        <time>2022-11-30T14:20:18Z</time>
      </trkpt>
      <trkpt lat="50.04845" lon="2.25703">
        <ele>136.8</ele>
        <time>2022-11-30T14:20:19Z</time>
      </trkpt>
      <trkpt lat="50.04843" lon="2.25704">
        <ele>136.8</ele>
        <time>2022-11-30T14:20:20Z</time>
      </trkpt>
      <trkpt lat="50.04842" lon="2.25704">
        <ele>136.8</ele>
        <time>2022-11-30T14:20:21Z</time>
      </trkpt>
      <trkpt lat="50.04842" lon="2.25705">
        <ele>136.7</ele>
        <time>2022-11-30T14:20:22Z</time>
      </trkpt>
      <trkpt lat="50.0484" lon="2.25706">
        <ele>136.7</ele>
        <time>2022-11-30T14:20:23Z</time>
      </trkpt>
      <trkpt lat="50.04839" lon="2.25706">
        <ele>136.7</ele>
        <time>2022-11-30T14:20:24Z</time>
      </trkpt>
      <trkpt lat="50.04838" lon="2.25707">
        <ele>136.6</ele>
        <time>2022-11-30T14:20:26Z</time>
      </trkpt>
      <trkpt lat="50.04837" lon="2.25708">
        <ele>136.6</ele>
        <time>2022-11-30T14:20:27Z</time>
      </trkpt>
      <trkpt lat="50.04836" lon="2.25708">
        <ele>136.6</ele>
        <time>2022-11-30T14:20:28Z</time>
      </trkpt>
      <trkpt lat="50.04835" lon="2.25709">
        <ele>136.5</ele>
        <time>2022-11-30T14:20:29Z</time>
      </trkpt>
      <trkpt lat="50.04833" lon="2.2571">
        <ele>136.5</ele>
        <time>2022-11-30T14:20:30Z</time>
      </trkpt>
      <trkpt lat="50.04833" lon="2.25711">
        <ele>136.5</ele>
        <time>2022-11-30T14:20:31Z</time>
      </trkpt>
      <trkpt lat="50.04832" lon="2.25712">
        <ele>136.4</ele>
        <time>2022-11-30T14:20:32Z</time>
      </trkpt>
      <trkpt lat="50.0483" lon="2.25714">
        <ele>136.4</ele>
        <time>2022-11-30T14:20:33Z</time>
      </trkpt>
      <trkpt lat="50.0483" lon="2.25715">
        <ele>136.4</ele>
        <time>2022-11-30T14:20:34Z</time>
      </trkpt>
      <trkpt lat="50.04829" lon="2.25715">
        <ele>136.3</ele>
        <time>2022-11-30T14:20:35Z</time>
      </trkpt>
      <trkpt lat="50.04828" lon="2.25717">
        <ele>136.3</ele>
        <time>2022-11-30T14:20:36Z</time>
      </trkpt>
      <trkpt lat="50.04827" lon="2.25718">
        <ele>136.2</ele>
        <time>2022-11-30T14:20:37Z</time>
      </trkpt>
      <trkpt lat="50.04826" lon="2.2572">
        <ele>136.2</ele>
        <time>2022-11-30T14:20:38Z</time>
      </trkpt>
      <trkpt lat="50.04825" lon="2.25722">
        <ele>136.2</ele>
        <time>2022-11-30T14:20:39Z</time>
      </trkpt>
      <trkpt lat="50.04824" lon="2.25723">
        <ele>136.1</ele>
        <time>2022-11-30T14:20:40Z</time>
      </trkpt>
      <trkpt lat="50.04823" lon="2.25725">
        <ele>136.1</ele>
        <time>2022-11-30T14:20:41Z</time>
      </trkpt>
      <trkpt lat="50.04822" lon="2.25727">
        <ele>136</ele>
        <time>2022-11-30T14:20:42Z</time>
      </trkpt>
      <trkpt lat="50.04821" lon="2.25728">
        <ele>136</ele>
        <time>2022-11-30T14:20:44Z</time>
      </trkpt>
      <trkpt lat="50.04821" lon="2.2573">
        <ele>135.9</ele>
        <time>2022-11-30T14:20:45Z</time>
      </trkpt>
      <trkpt lat="50.0482" lon="2.25731">
        <ele>135.9</ele>
        <time>2022-11-30T14:20:46Z</time>
      </trkpt>
      <trkpt lat="50.04819" lon="2.25733">
        <ele>135.9</ele>
        <time>2022-11-30T14:20:47Z</time>
      </trkpt>
      <trkpt lat="50.04819" lon="2.25734">
        <ele>135.9</ele>
        <time>2022-11-30T14:20:48Z</time>
      </trkpt>
      <trkpt lat="50.04818" lon="2.25735">
        <ele>135.8</ele>
        <time>2022-11-30T14:20:49Z</time>
      </trkpt>
      <trkpt lat="50.04817" lon="2.25736">
        <ele>135.8</ele>
        <time>2022-11-30T14:20:50Z</time>
      </trkpt>
      <trkpt lat="50.04816" lon="2.25739">
        <ele>135.7</ele>
        <time>2022-11-30T14:20:51Z</time>
      </trkpt>
      <trkpt lat="50.04815" lon="2.2574">
        <ele>135.7</ele>
        <time>2022-11-30T14:20:52Z</time>
      </trkpt>
      <trkpt lat="50.04815" lon="2.25741">
        <ele>135.7</ele>
        <time>2022-11-30T14:20:53Z</time>
      </trkpt>
      <trkpt lat="50.04814" lon="2.25742">
        <ele>135.6</ele>
        <time>2022-11-30T14:20:54Z</time>
      </trkpt>
      <trkpt lat="50.04813" lon="2.25744">
        <ele>135.6</ele>
        <time>2022-11-30T14:20:55Z</time>
      </trkpt>
      <trkpt lat="50.04812" lon="2.25746">
        <ele>135.6</ele>
        <time>2022-11-30T14:20:57Z</time>
      </trkpt>
      <trkpt lat="50.04811" lon="2.25749">
        <ele>135.5</ele>
        <time>2022-11-30T14:20:58Z</time>
      </trkpt>
      <trkpt lat="50.04811" lon="2.2575">
        <ele>135.5</ele>
        <time>2022-11-30T14:20:59Z</time>
      </trkpt>
      <trkpt lat="50.0481" lon="2.25751">
        <ele>135.4</ele>
        <time>2022-11-30T14:21:00Z</time>
      </trkpt>
      <trkpt lat="50.0481" lon="2.25753">
        <ele>135.4</ele>
        <time>2022-11-30T14:21:01Z</time>
      </trkpt>
      <trkpt lat="50.04809" lon="2.25755">
        <ele>135.3</ele>
        <time>2022-11-30T14:21:02Z</time>
      </trkpt>
      <trkpt lat="50.04809" lon="2.25757">
        <ele>135.3</ele>
        <time>2022-11-30T14:21:03Z</time>
      </trkpt>
      <trkpt lat="50.04808" lon="2.25758">
        <ele>135.3</ele>
        <time>2022-11-30T14:21:04Z</time>
      </trkpt>
      <trkpt lat="50.04808" lon="2.2576">
        <ele>135.2</ele>
        <time>2022-11-30T14:21:05Z</time>
      </trkpt>
      <trkpt lat="50.04807" lon="2.25763">
        <ele>135.2</ele>
        <time>2022-11-30T14:21:06Z</time>
      </trkpt>
      <trkpt lat="50.04806" lon="2.25764">
        <ele>135.1</ele>
        <time>2022-11-30T14:21:08Z</time>
      </trkpt>
      <trkpt lat="50.04806" lon="2.25765">
        <ele>135.1</ele>
        <time>2022-11-30T14:21:09Z</time>
      </trkpt>
      <trkpt lat="50.04805" lon="2.25767">
        <ele>135.1</ele>
        <time>2022-11-30T14:21:10Z</time>
      </trkpt>
      <trkpt lat="50.04805" lon="2.25769">
        <ele>135</ele>
        <time>2022-11-30T14:21:11Z</time>
      </trkpt>
      <trkpt lat="50.04803" lon="2.25771">
        <ele>134.9</ele>
        <time>2022-11-30T14:21:12Z</time>
      </trkpt>
      <trkpt lat="50.04803" lon="2.25773">
        <ele>134.9</ele>
        <time>2022-11-30T14:21:13Z</time>
      </trkpt>
      <trkpt lat="50.04802" lon="2.25774">
        <ele>134.9</ele>
        <time>2022-11-30T14:21:14Z</time>
      </trkpt>
      <trkpt lat="50.04801" lon="2.25776">
        <ele>134.8</ele>
        <time>2022-11-30T14:21:15Z</time>
      </trkpt>
      <trkpt lat="50.048" lon="2.25778">
        <ele>134.8</ele>
        <time>2022-11-30T14:21:17Z</time>
      </trkpt>
      <trkpt lat="50.048" lon="2.25779">
        <ele>134.7</ele>
        <time>2022-11-30T14:21:18Z</time>
      </trkpt>
      <trkpt lat="50.04799" lon="2.2578">
        <ele>134.7</ele>
        <time>2022-11-30T14:21:19Z</time>
      </trkpt>
      <trkpt lat="50.04798" lon="2.25781">
        <ele>134.7</ele>
        <time>2022-11-30T14:21:20Z</time>
      </trkpt>
      <trkpt lat="50.04797" lon="2.25783">
        <ele>134.6</ele>
        <time>2022-11-30T14:21:21Z</time>
      </trkpt>
      <trkpt lat="50.04796" lon="2.25785">
        <ele>134.6</ele>
        <time>2022-11-30T14:21:22Z</time>
      </trkpt>
      <trkpt lat="50.04795" lon="2.25787">
        <ele>134.5</ele>
        <time>2022-11-30T14:21:23Z</time>
      </trkpt>
      <trkpt lat="50.04794" lon="2.25789">
        <ele>134.4</ele>
        <time>2022-11-30T14:21:25Z</time>
      </trkpt>
      <trkpt lat="50.04793" lon="2.25791">
        <ele>134.4</ele>
        <time>2022-11-30T14:21:26Z</time>
      </trkpt>
      <trkpt lat="50.04793" lon="2.25793">
        <ele>134.3</ele>
        <time>2022-11-30T14:21:27Z</time>
      </trkpt>
      <trkpt lat="50.04792" lon="2.25795">
        <ele>134.3</ele>
        <time>2022-11-30T14:21:28Z</time>
      </trkpt>
      <trkpt lat="50.04791" lon="2.25797">
        <ele>134.2</ele>
        <time>2022-11-30T14:21:29Z</time>
      </trkpt>
      <trkpt lat="50.0479" lon="2.258">
        <ele>134.1</ele>
        <time>2022-11-30T14:21:30Z</time>
      </trkpt>
      <trkpt lat="50.0479" lon="2.25801">
        <ele>134.1</ele>
        <time>2022-11-30T14:21:31Z</time>
      </trkpt>
      <trkpt lat="50.0479" lon="2.25802">
        <ele>134.1</ele>
        <time>2022-11-30T14:21:32Z</time>
      </trkpt>
      <trkpt lat="50.04789" lon="2.25804">
        <ele>134</ele>
        <time>2022-11-30T14:21:33Z</time>
      </trkpt>
      <trkpt lat="50.04788" lon="2.25806">
        <ele>134</ele>
        <time>2022-11-30T14:21:35Z</time>
      </trkpt>
      <trkpt lat="50.04788" lon="2.25807">
        <ele>133.9</ele>
        <time>2022-11-30T14:21:36Z</time>
      </trkpt>
      <trkpt lat="50.04788" lon="2.25808">
        <ele>133.9</ele>
        <time>2022-11-30T14:21:37Z</time>
      </trkpt>
      <trkpt lat="50.04787" lon="2.25809">
        <ele>133.8</ele>
        <time>2022-11-30T14:21:38Z</time>
      </trkpt>
      <trkpt lat="50.04786" lon="2.25811">
        <ele>133.8</ele>
        <time>2022-11-30T14:21:39Z</time>
      </trkpt>
      <trkpt lat="50.04785" lon="2.25814">
        <ele>133.7</ele>
        <time>2022-11-30T14:21:40Z</time>
      </trkpt>
      <trkpt lat="50.04785" lon="2.25815">
        <ele>133.6</ele>
        <time>2022-11-30T14:21:41Z</time>
      </trkpt>
      <trkpt lat="50.04785" lon="2.25816">
        <ele>133.6</ele>
        <time>2022-11-30T14:21:42Z</time>
      </trkpt>
      <trkpt lat="50.04784" lon="2.25819">
        <ele>133.5</ele>
        <time>2022-11-30T14:21:44Z</time>
      </trkpt>
      <trkpt lat="50.04783" lon="2.25821">
        <ele>133.4</ele>
        <time>2022-11-30T14:21:45Z</time>
      </trkpt>
      <trkpt lat="50.04782" lon="2.25824">
        <ele>133.3</ele>
        <time>2022-11-30T14:21:46Z</time>
      </trkpt>
      <trkpt lat="50.04782" lon="2.25825">
        <ele>133.3</ele>
        <time>2022-11-30T14:21:47Z</time>
      </trkpt>
      <trkpt lat="50.04782" lon="2.25826">
        <ele>133.2</ele>
        <time>2022-11-30T14:21:48Z</time>
      </trkpt>
      <trkpt lat="50.04781" lon="2.25828">
        <ele>133.2</ele>
        <time>2022-11-30T14:21:49Z</time>
      </trkpt>
      <trkpt lat="50.04781" lon="2.25829">
        <ele>133.1</ele>
        <time>2022-11-30T14:21:50Z</time>
      </trkpt>
      <trkpt lat="50.0478" lon="2.25831">
        <ele>133.1</ele>
        <time>2022-11-30T14:21:51Z</time>
      </trkpt>
      <trkpt lat="50.04779" lon="2.25834">
        <ele>133</ele>
        <time>2022-11-30T14:21:52Z</time>
      </trkpt>
      <trkpt lat="50.04779" lon="2.25835">
        <ele>133</ele>
        <time>2022-11-30T14:21:53Z</time>
      </trkpt>
      <trkpt lat="50.04778" lon="2.25836">
        <ele>132.9</ele>
        <time>2022-11-30T14:21:54Z</time>
      </trkpt>
      <trkpt lat="50.04777" lon="2.25837">
        <ele>132.9</ele>
        <time>2022-11-30T14:21:55Z</time>
      </trkpt>
      <trkpt lat="50.04777" lon="2.25839">
        <ele>132.8</ele>
        <time>2022-11-30T14:21:56Z</time>
      </trkpt>
      <trkpt lat="50.04776" lon="2.25841">
        <ele>132.8</ele>
        <time>2022-11-30T14:21:58Z</time>
      </trkpt>
      <trkpt lat="50.04775" lon="2.25843">
        <ele>132.8</ele>
        <time>2022-11-30T14:21:59Z</time>
      </trkpt>
      <trkpt lat="50.04774" lon="2.25845">
        <ele>132.7</ele>
        <time>2022-11-30T14:22:00Z</time>
      </trkpt>
      <trkpt lat="50.04773" lon="2.25846">
        <ele>132.7</ele>
        <time>2022-11-30T14:22:01Z</time>
      </trkpt>
      <trkpt lat="50.04773" lon="2.25848">
        <ele>132.7</ele>
        <time>2022-11-30T14:22:02Z</time>
      </trkpt>
      <trkpt lat="50.04772" lon="2.25849">
        <ele>132.6</ele>
        <time>2022-11-30T14:22:03Z</time>
      </trkpt>
      <trkpt lat="50.04771" lon="2.25852">
        <ele>132.6</ele>
        <time>2022-11-30T14:22:04Z</time>
      </trkpt>
      <trkpt lat="50.0477" lon="2.25853">
        <ele>132.6</ele>
        <time>2022-11-30T14:22:05Z</time>
      </trkpt>
      <trkpt lat="50.0477" lon="2.25854">
        <ele>132.5</ele>
        <time>2022-11-30T14:22:06Z</time>
      </trkpt>
      <trkpt lat="50.04768" lon="2.25856">
        <ele>132.5</ele>
        <time>2022-11-30T14:22:07Z</time>
      </trkpt>
      <trkpt lat="50.04768" lon="2.25857">
        <ele>132.5</ele>
        <time>2022-11-30T14:22:08Z</time>
      </trkpt>
      <trkpt lat="50.04767" lon="2.25858">
        <ele>132.4</ele>
        <time>2022-11-30T14:22:09Z</time>
      </trkpt>
      <trkpt lat="50.04766" lon="2.25861">
        <ele>132.4</ele>
        <time>2022-11-30T14:22:10Z</time>
      </trkpt>
      <trkpt lat="50.04765" lon="2.25862">
        <ele>132.3</ele>
        <time>2022-11-30T14:22:12Z</time>
      </trkpt>
      <trkpt lat="50.04764" lon="2.25864">
        <ele>132.3</ele>
        <time>2022-11-30T14:22:13Z</time>
      </trkpt>
      <trkpt lat="50.04764" lon="2.25865">
        <ele>132.3</ele>
        <time>2022-11-30T14:22:14Z</time>
      </trkpt>
      <trkpt lat="50.04763" lon="2.25866">
        <ele>132.2</ele>
        <time>2022-11-30T14:22:15Z</time>
      </trkpt>
      <trkpt lat="50.04762" lon="2.25868">
        <ele>132.2</ele>
        <time>2022-11-30T14:22:16Z</time>
      </trkpt>
      <trkpt lat="50.04761" lon="2.25869">
        <ele>132.2</ele>
        <time>2022-11-30T14:22:17Z</time>
      </trkpt>
      <trkpt lat="50.04761" lon="2.25871">
        <ele>132.1</ele>
        <time>2022-11-30T14:22:18Z</time>
      </trkpt>
      <trkpt lat="50.04759" lon="2.25873">
        <ele>132.1</ele>
        <time>2022-11-30T14:22:19Z</time>
      </trkpt>
      <trkpt lat="50.04759" lon="2.25874">
        <ele>132</ele>
        <time>2022-11-30T14:22:20Z</time>
      </trkpt>
      <trkpt lat="50.04758" lon="2.25875">
        <ele>132</ele>
        <time>2022-11-30T14:22:21Z</time>
      </trkpt>
      <trkpt lat="50.04757" lon="2.25876">
        <ele>132</ele>
        <time>2022-11-30T14:22:22Z</time>
      </trkpt>
      <trkpt lat="50.04756" lon="2.25877">
        <ele>131.9</ele>
        <time>2022-11-30T14:22:23Z</time>
      </trkpt>
      <trkpt lat="50.04755" lon="2.25878">
        <ele>131.9</ele>
        <time>2022-11-30T14:22:24Z</time>
      </trkpt>
      <trkpt lat="50.04754" lon="2.2588">
        <ele>131.9</ele>
        <time>2022-11-30T14:22:25Z</time>
      </trkpt>
      <trkpt lat="50.04752" lon="2.25881">
        <ele>131.8</ele>
        <time>2022-11-30T14:22:27Z</time>
      </trkpt>
      <trkpt lat="50.04751" lon="2.25882">
        <ele>131.7</ele>
        <time>2022-11-30T14:22:28Z</time>
      </trkpt>
      <trkpt lat="50.0475" lon="2.25883">
        <ele>131.7</ele>
        <time>2022-11-30T14:22:29Z</time>
      </trkpt>
      <trkpt lat="50.04749" lon="2.25884">
        <ele>131.7</ele>
        <time>2022-11-30T14:22:30Z</time>
      </trkpt>
      <trkpt lat="50.04748" lon="2.25885">
        <ele>131.7</ele>
        <time>2022-11-30T14:22:31Z</time>
      </trkpt>
      <trkpt lat="50.04747" lon="2.25886">
        <ele>131.6</ele>
        <time>2022-11-30T14:22:32Z</time>
      </trkpt>
      <trkpt lat="50.04745" lon="2.25887">
        <ele>131.6</ele>
        <time>2022-11-30T14:22:33Z</time>
      </trkpt>
      <trkpt lat="50.04743" lon="2.25888">
        <ele>131.5</ele>
        <time>2022-11-30T14:22:35Z</time>
      </trkpt>
      <trkpt lat="50.04742" lon="2.25889">
        <ele>131.5</ele>
        <time>2022-11-30T14:22:36Z</time>
      </trkpt>
      <trkpt lat="50.0474" lon="2.25889">
        <ele>131.5</ele>
        <time>2022-11-30T14:22:37Z</time>
      </trkpt>
      <trkpt lat="50.04739" lon="2.2589">
        <ele>131.5</ele>
        <time>2022-11-30T14:22:38Z</time>
      </trkpt>
      <trkpt lat="50.04738" lon="2.2589">
        <ele>131.4</ele>
        <time>2022-11-30T14:22:39Z</time>
      </trkpt>
      <trkpt lat="50.04736" lon="2.25891">
        <ele>131.4</ele>
        <time>2022-11-30T14:22:40Z</time>
      </trkpt>
      <trkpt lat="50.04735" lon="2.25892">
        <ele>131.4</ele>
        <time>2022-11-30T14:22:41Z</time>
      </trkpt>
      <trkpt lat="50.04733" lon="2.25892">
        <ele>131.3</ele>
        <time>2022-11-30T14:22:42Z</time>
      </trkpt>
      <trkpt lat="50.04732" lon="2.25893">
        <ele>131.3</ele>
        <time>2022-11-30T14:22:44Z</time>
      </trkpt>
      <trkpt lat="50.04731" lon="2.25894">
        <ele>131.3</ele>
        <time>2022-11-30T14:22:45Z</time>
      </trkpt>
      <trkpt lat="50.0473" lon="2.25894">
        <ele>131.3</ele>
        <time>2022-11-30T14:22:46Z</time>
      </trkpt>
      <trkpt lat="50.04729" lon="2.25895">
        <ele>131.2</ele>
        <time>2022-11-30T14:22:47Z</time>
      </trkpt>
      <trkpt lat="50.04727" lon="2.25895">
        <ele>131.2</ele>
        <time>2022-11-30T14:22:48Z</time>
      </trkpt>
      <trkpt lat="50.04726" lon="2.25895">
        <ele>131.2</ele>
        <time>2022-11-30T14:22:49Z</time>
      </trkpt>
      <trkpt lat="50.04725" lon="2.25896">
        <ele>131.2</ele>
        <time>2022-11-30T14:22:50Z</time>
      </trkpt>
      <trkpt lat="50.04724" lon="2.25896">
        <ele>131.1</ele>
        <time>2022-11-30T14:22:51Z</time>
      </trkpt>
      <trkpt lat="50.04723" lon="2.25897">
        <ele>131.1</ele>
        <time>2022-11-30T14:22:52Z</time>
      </trkpt>
      <trkpt lat="50.04721" lon="2.25897">
        <ele>131.1</ele>
        <time>2022-11-30T14:22:53Z</time>
      </trkpt>
      <trkpt lat="50.0472" lon="2.25898">
        <ele>131.1</ele>
        <time>2022-11-30T14:22:55Z</time>
      </trkpt>
      <trkpt lat="50.04718" lon="2.25898">
        <ele>131</ele>
        <time>2022-11-30T14:22:56Z</time>
      </trkpt>
      <trkpt lat="50.04717" lon="2.25898">
        <ele>131</ele>
        <time>2022-11-30T14:22:57Z</time>
      </trkpt>
      <trkpt lat="50.04716" lon="2.25899">
        <ele>131</ele>
        <time>2022-11-30T14:22:58Z</time>
      </trkpt>
      <trkpt lat="50.04714" lon="2.25899">
        <ele>131</ele>
        <time>2022-11-30T14:22:59Z</time>
      </trkpt>
      <trkpt lat="50.04713" lon="2.259">
        <ele>131</ele>
        <time>2022-11-30T14:23:00Z</time>
      </trkpt>
      <trkpt lat="50.04712" lon="2.259">
        <ele>130.9</ele>
        <time>2022-11-30T14:23:01Z</time>
      </trkpt>
      <trkpt lat="50.04711" lon="2.259">
        <ele>130.9</ele>
        <time>2022-11-30T14:23:02Z</time>
      </trkpt>
      <trkpt lat="50.04709" lon="2.259">
        <ele>130.9</ele>
        <time>2022-11-30T14:23:03Z</time>
      </trkpt>
      <trkpt lat="50.04707" lon="2.25901">
        <ele>130.9</ele>
        <time>2022-11-30T14:23:05Z</time>
      </trkpt>
      <trkpt lat="50.04706" lon="2.25901">
        <ele>130.9</ele>
        <time>2022-11-30T14:23:06Z</time>
      </trkpt>
      <trkpt lat="50.04705" lon="2.25902">
        <ele>130.9</ele>
        <time>2022-11-30T14:23:07Z</time>
      </trkpt>
      <trkpt lat="50.04704" lon="2.25902">
        <ele>130.9</ele>
        <time>2022-11-30T14:23:08Z</time>
      </trkpt>
      <trkpt lat="50.04703" lon="2.25902">
        <ele>130.9</ele>
        <time>2022-11-30T14:23:09Z</time>
      </trkpt>
      <trkpt lat="50.04701" lon="2.25903">
        <ele>130.8</ele>
        <time>2022-11-30T14:23:10Z</time>
      </trkpt>
      <trkpt lat="50.04701" lon="2.25903">
        <ele>130.8</ele>
        <time>2022-11-30T14:23:11Z</time>
      </trkpt>
      <trkpt lat="50.047" lon="2.25904">
        <ele>130.8</ele>
        <time>2022-11-30T14:23:12Z</time>
      </trkpt>
      <trkpt lat="50.04698" lon="2.25904">
        <ele>130.8</ele>
        <time>2022-11-30T14:23:13Z</time>
      </trkpt>
      <trkpt lat="50.04697" lon="2.25905">
        <ele>130.8</ele>
        <time>2022-11-30T14:23:14Z</time>
      </trkpt>
      <trkpt lat="50.04696" lon="2.25905">
        <ele>130.8</ele>
        <time>2022-11-30T14:23:15Z</time>
      </trkpt>
      <trkpt lat="50.04694" lon="2.25906">
        <ele>130.8</ele>
        <time>2022-11-30T14:23:16Z</time>
      </trkpt>
      <trkpt lat="50.04693" lon="2.25907">
        <ele>130.8</ele>
        <time>2022-11-30T14:23:17Z</time>
      </trkpt>
      <trkpt lat="50.04692" lon="2.25907">
        <ele>130.8</ele>
        <time>2022-11-30T14:23:18Z</time>
      </trkpt>
      <trkpt lat="50.04691" lon="2.25908">
        <ele>130.8</ele>
        <time>2022-11-30T14:23:19Z</time>
      </trkpt>
      <trkpt lat="50.04689" lon="2.25908">
        <ele>130.8</ele>
        <time>2022-11-30T14:23:20Z</time>
      </trkpt>
      <trkpt lat="50.04688" lon="2.25909">
        <ele>130.8</ele>
        <time>2022-11-30T14:23:21Z</time>
      </trkpt>
      <trkpt lat="50.04687" lon="2.2591">
        <ele>130.8</ele>
        <time>2022-11-30T14:23:22Z</time>
      </trkpt>
      <trkpt lat="50.04686" lon="2.25911">
        <ele>130.8</ele>
        <time>2022-11-30T14:23:24Z</time>
      </trkpt>
      <trkpt lat="50.04684" lon="2.25911">
        <ele>130.8</ele>
        <time>2022-11-30T14:23:25Z</time>
      </trkpt>
      <trkpt lat="50.04683" lon="2.25912">
        <ele>130.8</ele>
        <time>2022-11-30T14:23:26Z</time>
      </trkpt>
      <trkpt lat="50.04682" lon="2.25913">
        <ele>130.8</ele>
        <time>2022-11-30T14:23:27Z</time>
      </trkpt>
      <trkpt lat="50.04681" lon="2.25913">
        <ele>130.8</ele>
        <time>2022-11-30T14:23:28Z</time>
      </trkpt>
      <trkpt lat="50.0468" lon="2.25914">
        <ele>130.8</ele>
        <time>2022-11-30T14:23:29Z</time>
      </trkpt>
      <trkpt lat="50.04679" lon="2.25914">
        <ele>130.8</ele>
        <time>2022-11-30T14:23:30Z</time>
      </trkpt>
      <trkpt lat="50.04677" lon="2.25915">
        <ele>130.8</ele>
        <time>2022-11-30T14:23:31Z</time>
      </trkpt>
      <trkpt lat="50.04676" lon="2.25916">
        <ele>130.8</ele>
        <time>2022-11-30T14:23:32Z</time>
      </trkpt>
      <trkpt lat="50.04676" lon="2.25916">
        <ele>130.7</ele>
        <time>2022-11-30T14:23:33Z</time>
      </trkpt>
      <trkpt lat="50.04674" lon="2.25917">
        <ele>130.7</ele>
        <time>2022-11-30T14:23:34Z</time>
      </trkpt>
      <trkpt lat="50.04673" lon="2.25918">
        <ele>130.7</ele>
        <time>2022-11-30T14:23:35Z</time>
      </trkpt>
      <trkpt lat="50.04672" lon="2.25919">
        <ele>130.7</ele>
        <time>2022-11-30T14:23:36Z</time>
      </trkpt>
      <trkpt lat="50.04671" lon="2.2592">
        <ele>130.7</ele>
        <time>2022-11-30T14:23:37Z</time>
      </trkpt>
      <trkpt lat="50.04669" lon="2.2592">
        <ele>130.7</ele>
        <time>2022-11-30T14:23:39Z</time>
      </trkpt>
      <trkpt lat="50.04667" lon="2.25921">
        <ele>130.7</ele>
        <time>2022-11-30T14:23:41Z</time>
      </trkpt>
      <trkpt lat="50.04666" lon="2.25921">
        <ele>130.7</ele>
        <time>2022-11-30T14:23:42Z</time>
      </trkpt>
      <trkpt lat="50.04664" lon="2.25922">
        <ele>130.7</ele>
        <time>2022-11-30T14:23:43Z</time>
      </trkpt>
      <trkpt lat="50.04663" lon="2.25922">
        <ele>130.7</ele>
        <time>2022-11-30T14:23:44Z</time>
      </trkpt>
      <trkpt lat="50.04662" lon="2.25922">
        <ele>130.7</ele>
        <time>2022-11-30T14:23:45Z</time>
      </trkpt>
      <trkpt lat="50.04661" lon="2.25923">
        <ele>130.6</ele>
        <time>2022-11-30T14:23:46Z</time>
      </trkpt>
      <trkpt lat="50.04661" lon="2.25923">
        <ele>130.6</ele>
        <time>2022-11-30T14:23:47Z</time>
      </trkpt>
      <trkpt lat="50.04659" lon="2.25923">
        <ele>130.6</ele>
        <time>2022-11-30T14:23:48Z</time>
      </trkpt>
      <trkpt lat="50.04658" lon="2.25924">
        <ele>130.6</ele>
        <time>2022-11-30T14:23:49Z</time>
      </trkpt>
      <trkpt lat="50.04657" lon="2.25924">
        <ele>130.6</ele>
        <time>2022-11-30T14:23:50Z</time>
      </trkpt>
      <trkpt lat="50.04655" lon="2.25925">
        <ele>130.6</ele>
        <time>2022-11-30T14:23:51Z</time>
      </trkpt>
      <trkpt lat="50.04653" lon="2.25925">
        <ele>130.6</ele>
        <time>2022-11-30T14:23:53Z</time>
      </trkpt>
      <trkpt lat="50.04652" lon="2.25925">
        <ele>130.6</ele>
        <time>2022-11-30T14:23:54Z</time>
      </trkpt>
      <trkpt lat="50.0465" lon="2.25926">
        <ele>130.5</ele>
        <time>2022-11-30T14:23:55Z</time>
      </trkpt>
      <trkpt lat="50.04649" lon="2.25926">
        <ele>130.5</ele>
        <time>2022-11-30T14:23:56Z</time>
      </trkpt>
      <trkpt lat="50.04647" lon="2.25926">
        <ele>130.5</ele>
        <time>2022-11-30T14:23:57Z</time>
      </trkpt>
      <trkpt lat="50.04645" lon="2.25926">
        <ele>130.5</ele>
        <time>2022-11-30T14:23:58Z</time>
      </trkpt>
      <trkpt lat="50.04644" lon="2.25927">
        <ele>130.5</ele>
        <time>2022-11-30T14:23:59Z</time>
      </trkpt>
      <trkpt lat="50.04643" lon="2.25927">
        <ele>130.5</ele>
        <time>2022-11-30T14:24:00Z</time>
      </trkpt>
      <trkpt lat="50.04642" lon="2.25927">
        <ele>130.5</ele>
        <time>2022-11-30T14:24:01Z</time>
      </trkpt>
      <trkpt lat="50.0464" lon="2.25928">
        <ele>130.5</ele>
        <time>2022-11-30T14:24:02Z</time>
      </trkpt>
      <trkpt lat="50.04638" lon="2.25928">
        <ele>130.4</ele>
        <time>2022-11-30T14:24:03Z</time>
      </trkpt>
      <trkpt lat="50.04637" lon="2.25928">
        <ele>130.4</ele>
        <time>2022-11-30T14:24:04Z</time>
      </trkpt>
      <trkpt lat="50.04636" lon="2.25928">
        <ele>130.4</ele>
        <time>2022-11-30T14:24:05Z</time>
      </trkpt>
      <trkpt lat="50.04635" lon="2.25928">
        <ele>130.4</ele>
        <time>2022-11-30T14:24:06Z</time>
      </trkpt>
      <trkpt lat="50.04634" lon="2.25928">
        <ele>130.4</ele>
        <time>2022-11-30T14:24:08Z</time>
      </trkpt>
      <trkpt lat="50.04633" lon="2.25928">
        <ele>130.4</ele>
        <time>2022-11-30T14:24:09Z</time>
      </trkpt>
      <trkpt lat="50.04631" lon="2.25928">
        <ele>130.4</ele>
        <time>2022-11-30T14:24:10Z</time>
      </trkpt>
      <trkpt lat="50.0463" lon="2.25928">
        <ele>130.4</ele>
        <time>2022-11-30T14:24:11Z</time>
      </trkpt>
      <trkpt lat="50.04629" lon="2.25928">
        <ele>130.4</ele>
        <time>2022-11-30T14:24:12Z</time>
      </trkpt>
      <trkpt lat="50.04627" lon="2.25928">
        <ele>130.3</ele>
        <time>2022-11-30T14:24:13Z</time>
      </trkpt>
      <trkpt lat="50.04626" lon="2.25928">
        <ele>130.3</ele>
        <time>2022-11-30T14:24:14Z</time>
      </trkpt>
      <trkpt lat="50.04625" lon="2.25928">
        <ele>130.3</ele>
        <time>2022-11-30T14:24:15Z</time>
      </trkpt>
      <trkpt lat="50.04623" lon="2.25928">
        <ele>130.3</ele>
        <time>2022-11-30T14:24:17Z</time>
      </trkpt>
      <trkpt lat="50.04621" lon="2.25928">
        <ele>130.3</ele>
        <time>2022-11-30T14:24:18Z</time>
      </trkpt>
      <trkpt lat="50.0462" lon="2.25928">
        <ele>130.2</ele>
        <time>2022-11-30T14:24:19Z</time>
      </trkpt>
      <trkpt lat="50.04618" lon="2.25928">
        <ele>130.2</ele>
        <time>2022-11-30T14:24:20Z</time>
      </trkpt>
      <trkpt lat="50.04617" lon="2.25928">
        <ele>130.2</ele>
        <time>2022-11-30T14:24:21Z</time>
      </trkpt>
      <trkpt lat="50.04615" lon="2.25928">
        <ele>130.2</ele>
        <time>2022-11-30T14:24:22Z</time>
      </trkpt>
      <trkpt lat="50.04614" lon="2.25929">
        <ele>130.2</ele>
        <time>2022-11-30T14:24:23Z</time>
      </trkpt>
      <trkpt lat="50.04612" lon="2.25929">
        <ele>130.1</ele>
        <time>2022-11-30T14:24:24Z</time>
      </trkpt>
      <trkpt lat="50.04611" lon="2.25929">
        <ele>130.1</ele>
        <time>2022-11-30T14:24:25Z</time>
      </trkpt>
      <trkpt lat="50.0461" lon="2.25929">
        <ele>130.1</ele>
        <time>2022-11-30T14:24:26Z</time>
      </trkpt>
      <trkpt lat="50.04609" lon="2.25929">
        <ele>130.1</ele>
        <time>2022-11-30T14:24:28Z</time>
      </trkpt>
      <trkpt lat="50.04607" lon="2.25929">
        <ele>130</ele>
        <time>2022-11-30T14:24:29Z</time>
      </trkpt>
      <trkpt lat="50.04605" lon="2.2593">
        <ele>130</ele>
        <time>2022-11-30T14:24:30Z</time>
      </trkpt>
      <trkpt lat="50.04605" lon="2.2593">
        <ele>130</ele>
        <time>2022-11-30T14:24:31Z</time>
      </trkpt>
      <trkpt lat="50.04604" lon="2.2593">
        <ele>130</ele>
        <time>2022-11-30T14:24:32Z</time>
      </trkpt>
      <trkpt lat="50.04602" lon="2.25931">
        <ele>130</ele>
        <time>2022-11-30T14:24:34Z</time>
      </trkpt>
      <trkpt lat="50.04601" lon="2.25931">
        <ele>129.9</ele>
        <time>2022-11-30T14:24:35Z</time>
      </trkpt>
      <trkpt lat="50.04598" lon="2.25931">
        <ele>129.9</ele>
        <time>2022-11-30T14:24:36Z</time>
      </trkpt>
      <trkpt lat="50.04597" lon="2.25931">
        <ele>129.9</ele>
        <time>2022-11-30T14:24:37Z</time>
      </trkpt>
      <trkpt lat="50.04597" lon="2.25931">
        <ele>129.8</ele>
        <time>2022-11-30T14:24:38Z</time>
      </trkpt>
      <trkpt lat="50.04595" lon="2.25931">
        <ele>129.8</ele>
        <time>2022-11-30T14:24:39Z</time>
      </trkpt>
      <trkpt lat="50.04593" lon="2.25931">
        <ele>129.8</ele>
        <time>2022-11-30T14:24:41Z</time>
      </trkpt>
      <trkpt lat="50.04592" lon="2.25931">
        <ele>129.7</ele>
        <time>2022-11-30T14:24:42Z</time>
      </trkpt>
      <trkpt lat="50.04591" lon="2.25931">
        <ele>129.7</ele>
        <time>2022-11-30T14:24:43Z</time>
      </trkpt>
      <trkpt lat="50.0459" lon="2.25931">
        <ele>129.7</ele>
        <time>2022-11-30T14:24:44Z</time>
      </trkpt>
      <trkpt lat="50.04589" lon="2.25931">
        <ele>129.7</ele>
        <time>2022-11-30T14:24:45Z</time>
      </trkpt>
      <trkpt lat="50.04588" lon="2.25931">
        <ele>129.6</ele>
        <time>2022-11-30T14:24:46Z</time>
      </trkpt>
      <trkpt lat="50.04587" lon="2.25932">
        <ele>129.6</ele>
        <time>2022-11-30T14:24:47Z</time>
      </trkpt>
      <trkpt lat="50.04585" lon="2.25931">
        <ele>129.6</ele>
        <time>2022-11-30T14:24:48Z</time>
      </trkpt>
      <trkpt lat="50.04584" lon="2.25931">
        <ele>129.6</ele>
        <time>2022-11-30T14:24:49Z</time>
      </trkpt>
      <trkpt lat="50.04583" lon="2.25931">
        <ele>129.5</ele>
        <time>2022-11-30T14:24:50Z</time>
      </trkpt>
      <trkpt lat="50.04581" lon="2.25931">
        <ele>129.5</ele>
        <time>2022-11-30T14:24:52Z</time>
      </trkpt>
      <trkpt lat="50.0458" lon="2.25931">
        <ele>129.5</ele>
        <time>2022-11-30T14:24:53Z</time>
      </trkpt>
      <trkpt lat="50.04578" lon="2.25931">
        <ele>129.5</ele>
        <time>2022-11-30T14:24:54Z</time>
      </trkpt>
      <trkpt lat="50.04578" lon="2.25931">
        <ele>129.5</ele>
        <time>2022-11-30T14:24:55Z</time>
      </trkpt>
      <trkpt lat="50.04577" lon="2.25932">
        <ele>129.4</ele>
        <time>2022-11-30T14:24:56Z</time>
      </trkpt>
      <trkpt lat="50.04575" lon="2.25932">
        <ele>129.4</ele>
        <time>2022-11-30T14:24:57Z</time>
      </trkpt>
      <trkpt lat="50.04574" lon="2.25932">
        <ele>129.4</ele>
        <time>2022-11-30T14:24:58Z</time>
      </trkpt>
      <trkpt lat="50.04573" lon="2.25932">
        <ele>129.4</ele>
        <time>2022-11-30T14:24:59Z</time>
      </trkpt>
      <trkpt lat="50.04572" lon="2.25932">
        <ele>129.4</ele>
        <time>2022-11-30T14:25:00Z</time>
      </trkpt>
      <trkpt lat="50.0457" lon="2.25932">
        <ele>129.3</ele>
        <time>2022-11-30T14:25:02Z</time>
      </trkpt>
      <trkpt lat="50.04568" lon="2.25932">
        <ele>129.3</ele>
        <time>2022-11-30T14:25:03Z</time>
      </trkpt>
      <trkpt lat="50.04567" lon="2.25933">
        <ele>129.3</ele>
        <time>2022-11-30T14:25:04Z</time>
      </trkpt>
      <trkpt lat="50.04565" lon="2.25933">
        <ele>129.3</ele>
        <time>2022-11-30T14:25:05Z</time>
      </trkpt>
      <trkpt lat="50.04564" lon="2.25933">
        <ele>129.3</ele>
        <time>2022-11-30T14:25:06Z</time>
      </trkpt>
      <trkpt lat="50.04562" lon="2.25933">
        <ele>129.2</ele>
        <time>2022-11-30T14:25:07Z</time>
      </trkpt>
      <trkpt lat="50.04561" lon="2.25933">
        <ele>129.2</ele>
        <time>2022-11-30T14:25:08Z</time>
      </trkpt>
      <trkpt lat="50.04559" lon="2.25933">
        <ele>129.2</ele>
        <time>2022-11-30T14:25:09Z</time>
      </trkpt>
      <trkpt lat="50.04558" lon="2.25933">
        <ele>129.2</ele>
        <time>2022-11-30T14:25:11Z</time>
      </trkpt>
      <trkpt lat="50.04557" lon="2.25933">
        <ele>129.1</ele>
        <time>2022-11-30T14:25:12Z</time>
      </trkpt>
      <trkpt lat="50.04556" lon="2.25933">
        <ele>129.1</ele>
        <time>2022-11-30T14:25:13Z</time>
      </trkpt>
      <trkpt lat="50.04554" lon="2.25933">
        <ele>129.1</ele>
        <time>2022-11-30T14:25:14Z</time>
      </trkpt>
      <trkpt lat="50.04552" lon="2.25934">
        <ele>129.1</ele>
        <time>2022-11-30T14:25:15Z</time>
      </trkpt>
      <trkpt lat="50.04551" lon="2.25934">
        <ele>129.1</ele>
        <time>2022-11-30T14:25:16Z</time>
      </trkpt>
      <trkpt lat="50.0455" lon="2.25934">
        <ele>129.1</ele>
        <time>2022-11-30T14:25:17Z</time>
      </trkpt>
      <trkpt lat="50.04549" lon="2.25934">
        <ele>129</ele>
        <time>2022-11-30T14:25:18Z</time>
      </trkpt>
      <trkpt lat="50.04548" lon="2.25934">
        <ele>129</ele>
        <time>2022-11-30T14:25:19Z</time>
      </trkpt>
      <trkpt lat="50.04546" lon="2.25934">
        <ele>129</ele>
        <time>2022-11-30T14:25:20Z</time>
      </trkpt>
      <trkpt lat="50.04545" lon="2.25934">
        <ele>129</ele>
        <time>2022-11-30T14:25:21Z</time>
      </trkpt>
      <trkpt lat="50.04543" lon="2.25935">
        <ele>129</ele>
        <time>2022-11-30T14:25:22Z</time>
      </trkpt>
      <trkpt lat="50.04543" lon="2.25935">
        <ele>128.9</ele>
        <time>2022-11-30T14:25:23Z</time>
      </trkpt>
      <trkpt lat="50.04541" lon="2.25935">
        <ele>128.9</ele>
        <time>2022-11-30T14:25:24Z</time>
      </trkpt>
      <trkpt lat="50.04539" lon="2.25935">
        <ele>128.9</ele>
        <time>2022-11-30T14:25:25Z</time>
      </trkpt>
      <trkpt lat="50.04538" lon="2.25935">
        <ele>128.9</ele>
        <time>2022-11-30T14:25:27Z</time>
      </trkpt>
      <trkpt lat="50.04538" lon="2.25935">
        <ele>128.9</ele>
        <time>2022-11-30T14:25:28Z</time>
      </trkpt>
      <trkpt lat="50.04536" lon="2.25936">
        <ele>128.9</ele>
        <time>2022-11-30T14:25:29Z</time>
      </trkpt>
      <trkpt lat="50.04535" lon="2.25936">
        <ele>128.8</ele>
        <time>2022-11-30T14:25:30Z</time>
      </trkpt>
      <trkpt lat="50.04535" lon="2.25936">
        <ele>128.8</ele>
        <time>2022-11-30T14:25:31Z</time>
      </trkpt>
      <trkpt lat="50.04534" lon="2.25936">
        <ele>128.8</ele>
        <time>2022-11-30T14:25:32Z</time>
      </trkpt>
      <trkpt lat="50.04532" lon="2.25936">
        <ele>128.8</ele>
        <time>2022-11-30T14:25:33Z</time>
      </trkpt>
      <trkpt lat="50.04531" lon="2.25936">
        <ele>128.8</ele>
        <time>2022-11-30T14:25:34Z</time>
      </trkpt>
      <trkpt lat="50.0453" lon="2.25936">
        <ele>128.7</ele>
        <time>2022-11-30T14:25:35Z</time>
      </trkpt>
      <trkpt lat="50.04529" lon="2.25936">
        <ele>128.7</ele>
        <time>2022-11-30T14:25:36Z</time>
      </trkpt>
      <trkpt lat="50.04528" lon="2.25936">
        <ele>128.7</ele>
        <time>2022-11-30T14:25:37Z</time>
      </trkpt>
      <trkpt lat="50.04526" lon="2.25936">
        <ele>128.7</ele>
        <time>2022-11-30T14:25:38Z</time>
      </trkpt>
      <trkpt lat="50.04525" lon="2.25936">
        <ele>128.6</ele>
        <time>2022-11-30T14:25:39Z</time>
      </trkpt>
      <trkpt lat="50.04522" lon="2.25936">
        <ele>128.6</ele>
        <time>2022-11-30T14:25:40Z</time>
      </trkpt>
      <trkpt lat="50.04521" lon="2.25936">
        <ele>128.6</ele>
        <time>2022-11-30T14:25:42Z</time>
      </trkpt>
      <trkpt lat="50.0452" lon="2.25936">
        <ele>128.6</ele>
        <time>2022-11-30T14:25:43Z</time>
      </trkpt>
      <trkpt lat="50.04519" lon="2.25936">
        <ele>128.5</ele>
        <time>2022-11-30T14:25:44Z</time>
      </trkpt>
      <trkpt lat="50.04517" lon="2.25936">
        <ele>128.5</ele>
        <time>2022-11-30T14:25:45Z</time>
      </trkpt>
      <trkpt lat="50.04516" lon="2.25937">
        <ele>128.5</ele>
        <time>2022-11-30T14:25:46Z</time>
      </trkpt>
      <trkpt lat="50.04514" lon="2.25937">
        <ele>128.5</ele>
        <time>2022-11-30T14:25:48Z</time>
      </trkpt>
      <trkpt lat="50.04513" lon="2.25937">
        <ele>128.5</ele>
        <time>2022-11-30T14:25:49Z</time>
      </trkpt>
      <trkpt lat="50.04512" lon="2.25937">
        <ele>128.4</ele>
        <time>2022-11-30T14:25:50Z</time>
      </trkpt>
      <trkpt lat="50.04511" lon="2.25938">
        <ele>128.4</ele>
        <time>2022-11-30T14:25:51Z</time>
      </trkpt>
      <trkpt lat="50.0451" lon="2.25938">
        <ele>128.4</ele>
        <time>2022-11-30T14:25:52Z</time>
      </trkpt>
      <trkpt lat="50.04509" lon="2.25938">
        <ele>128.4</ele>
        <time>2022-11-30T14:25:53Z</time>
      </trkpt>
      <trkpt lat="50.04508" lon="2.25939">
        <ele>128.4</ele>
        <time>2022-11-30T14:25:54Z</time>
      </trkpt>
      <trkpt lat="50.04506" lon="2.25939">
        <ele>128.4</ele>
        <time>2022-11-30T14:25:55Z</time>
      </trkpt>
      <trkpt lat="50.04505" lon="2.2594">
        <ele>128.4</ele>
        <time>2022-11-30T14:25:56Z</time>
      </trkpt>
      <trkpt lat="50.04504" lon="2.2594">
        <ele>128.3</ele>
        <time>2022-11-30T14:25:57Z</time>
      </trkpt>
      <trkpt lat="50.04503" lon="2.2594">
        <ele>128.3</ele>
        <time>2022-11-30T14:25:58Z</time>
      </trkpt>
      <trkpt lat="50.04501" lon="2.2594">
        <ele>128.3</ele>
        <time>2022-11-30T14:25:59Z</time>
      </trkpt>
      <trkpt lat="50.04499" lon="2.25941">
        <ele>128.3</ele>
        <time>2022-11-30T14:26:00Z</time>
      </trkpt>
      <trkpt lat="50.04498" lon="2.25941">
        <ele>128.3</ele>
        <time>2022-11-30T14:26:01Z</time>
      </trkpt>
      <trkpt lat="50.04497" lon="2.25941">
        <ele>128.3</ele>
        <time>2022-11-30T14:26:02Z</time>
      </trkpt>
      <trkpt lat="50.04496" lon="2.25941">
        <ele>128.3</ele>
        <time>2022-11-30T14:26:04Z</time>
      </trkpt>
      <trkpt lat="50.04495" lon="2.25942">
        <ele>128.3</ele>
        <time>2022-11-30T14:26:05Z</time>
      </trkpt>
      <trkpt lat="50.04494" lon="2.25942">
        <ele>128.2</ele>
        <time>2022-11-30T14:26:06Z</time>
      </trkpt>
      <trkpt lat="50.04493" lon="2.25943">
        <ele>128.2</ele>
        <time>2022-11-30T14:26:07Z</time>
      </trkpt>
      <trkpt lat="50.04492" lon="2.25943">
        <ele>128.2</ele>
        <time>2022-11-30T14:26:08Z</time>
      </trkpt>
      <trkpt lat="50.04491" lon="2.25943">
        <ele>128.2</ele>
        <time>2022-11-30T14:26:09Z</time>
      </trkpt>
      <trkpt lat="50.0449" lon="2.25944">
        <ele>128.2</ele>
        <time>2022-11-30T14:26:10Z</time>
      </trkpt>
      <trkpt lat="50.04489" lon="2.25945">
        <ele>128.2</ele>
        <time>2022-11-30T14:26:11Z</time>
      </trkpt>
      <trkpt lat="50.04487" lon="2.25945">
        <ele>128.2</ele>
        <time>2022-11-30T14:26:12Z</time>
      </trkpt>
      <trkpt lat="50.04486" lon="2.25945">
        <ele>128.1</ele>
        <time>2022-11-30T14:26:13Z</time>
      </trkpt>
      <trkpt lat="50.04485" lon="2.25946">
        <ele>128.1</ele>
        <time>2022-11-30T14:26:14Z</time>
      </trkpt>
      <trkpt lat="50.04483" lon="2.25946">
        <ele>128.1</ele>
        <time>2022-11-30T14:26:16Z</time>
      </trkpt>
      <trkpt lat="50.04482" lon="2.25947">
        <ele>128.1</ele>
        <time>2022-11-30T14:26:17Z</time>
      </trkpt>
      <trkpt lat="50.0448" lon="2.25947">
        <ele>128</ele>
        <time>2022-11-30T14:26:18Z</time>
      </trkpt>
      <trkpt lat="50.04479" lon="2.25947">
        <ele>128</ele>
        <time>2022-11-30T14:26:19Z</time>
      </trkpt>
      <trkpt lat="50.04478" lon="2.25948">
        <ele>128</ele>
        <time>2022-11-30T14:26:20Z</time>
      </trkpt>
      <trkpt lat="50.04476" lon="2.25948">
        <ele>128</ele>
        <time>2022-11-30T14:26:21Z</time>
      </trkpt>
      <trkpt lat="50.04475" lon="2.25949">
        <ele>128</ele>
        <time>2022-11-30T14:26:22Z</time>
      </trkpt>
      <trkpt lat="50.04474" lon="2.25949">
        <ele>128</ele>
        <time>2022-11-30T14:26:23Z</time>
      </trkpt>
      <trkpt lat="50.04473" lon="2.25949">
        <ele>127.9</ele>
        <time>2022-11-30T14:26:24Z</time>
      </trkpt>
      <trkpt lat="50.04472" lon="2.25949">
        <ele>127.9</ele>
        <time>2022-11-30T14:26:25Z</time>
      </trkpt>
      <trkpt lat="50.04471" lon="2.2595">
        <ele>127.9</ele>
        <time>2022-11-30T14:26:26Z</time>
      </trkpt>
      <trkpt lat="50.0447" lon="2.2595">
        <ele>127.9</ele>
        <time>2022-11-30T14:26:27Z</time>
      </trkpt>
      <trkpt lat="50.04469" lon="2.25951">
        <ele>127.9</ele>
        <time>2022-11-30T14:26:28Z</time>
      </trkpt>
      <trkpt lat="50.04468" lon="2.25951">
        <ele>127.8</ele>
        <time>2022-11-30T14:26:30Z</time>
      </trkpt>
      <trkpt lat="50.04466" lon="2.25951">
        <ele>127.8</ele>
        <time>2022-11-30T14:26:31Z</time>
      </trkpt>
      <trkpt lat="50.04465" lon="2.25951">
        <ele>127.8</ele>
        <time>2022-11-30T14:26:32Z</time>
      </trkpt>
      <trkpt lat="50.04463" lon="2.25951">
        <ele>127.8</ele>
        <time>2022-11-30T14:26:33Z</time>
      </trkpt>
      <trkpt lat="50.04462" lon="2.25952">
        <ele>127.7</ele>
        <time>2022-11-30T14:26:34Z</time>
      </trkpt>
      <trkpt lat="50.0446" lon="2.25952">
        <ele>127.7</ele>
        <time>2022-11-30T14:26:35Z</time>
      </trkpt>
      <trkpt lat="50.04459" lon="2.25952">
        <ele>127.7</ele>
        <time>2022-11-30T14:26:36Z</time>
      </trkpt>
      <trkpt lat="50.04458" lon="2.25952">
        <ele>127.7</ele>
        <time>2022-11-30T14:26:37Z</time>
      </trkpt>
      <trkpt lat="50.04456" lon="2.25953">
        <ele>127.6</ele>
        <time>2022-11-30T14:26:39Z</time>
      </trkpt>
      <trkpt lat="50.04455" lon="2.25953">
        <ele>127.6</ele>
        <time>2022-11-30T14:26:40Z</time>
      </trkpt>
      <trkpt lat="50.04454" lon="2.25953">
        <ele>127.6</ele>
        <time>2022-11-30T14:26:41Z</time>
      </trkpt>
      <trkpt lat="50.04453" lon="2.25953">
        <ele>127.6</ele>
        <time>2022-11-30T14:26:42Z</time>
      </trkpt>
      <trkpt lat="50.04452" lon="2.25953">
        <ele>127.6</ele>
        <time>2022-11-30T14:26:43Z</time>
      </trkpt>
      <trkpt lat="50.04451" lon="2.25954">
        <ele>127.5</ele>
        <time>2022-11-30T14:26:44Z</time>
      </trkpt>
      <trkpt lat="50.0445" lon="2.25954">
        <ele>127.5</ele>
        <time>2022-11-30T14:26:45Z</time>
      </trkpt>
      <trkpt lat="50.04448" lon="2.25954">
        <ele>127.5</ele>
        <time>2022-11-30T14:26:46Z</time>
      </trkpt>
      <trkpt lat="50.04447" lon="2.25955">
        <ele>127.5</ele>
        <time>2022-11-30T14:26:47Z</time>
      </trkpt>
      <trkpt lat="50.04446" lon="2.25955">
        <ele>127.4</ele>
        <time>2022-11-30T14:26:48Z</time>
      </trkpt>
      <trkpt lat="50.04444" lon="2.25955">
        <ele>127.4</ele>
        <time>2022-11-30T14:26:49Z</time>
      </trkpt>
      <trkpt lat="50.04443" lon="2.25956">
        <ele>127.4</ele>
        <time>2022-11-30T14:26:50Z</time>
      </trkpt>
      <trkpt lat="50.04442" lon="2.25956">
        <ele>127.4</ele>
        <time>2022-11-30T14:26:51Z</time>
      </trkpt>
      <trkpt lat="50.0444" lon="2.25957">
        <ele>127.3</ele>
        <time>2022-11-30T14:26:52Z</time>
      </trkpt>
      <trkpt lat="50.04439" lon="2.25957">
        <ele>127.3</ele>
        <time>2022-11-30T14:26:53Z</time>
      </trkpt>
      <trkpt lat="50.04438" lon="2.25958">
        <ele>127.3</ele>
        <time>2022-11-30T14:26:54Z</time>
      </trkpt>
      <trkpt lat="50.04436" lon="2.25958">
        <ele>127.2</ele>
        <time>2022-11-30T14:26:55Z</time>
      </trkpt>
      <trkpt lat="50.04435" lon="2.25959">
        <ele>127.2</ele>
        <time>2022-11-30T14:26:57Z</time>
      </trkpt>
      <trkpt lat="50.04433" lon="2.25959">
        <ele>127.2</ele>
        <time>2022-11-30T14:26:58Z</time>
      </trkpt>
      <trkpt lat="50.04432" lon="2.25959">
        <ele>127.1</ele>
        <time>2022-11-30T14:26:59Z</time>
      </trkpt>
      <trkpt lat="50.04431" lon="2.25959">
        <ele>127.1</ele>
        <time>2022-11-30T14:27:00Z</time>
      </trkpt>
      <trkpt lat="50.04429" lon="2.2596">
        <ele>127.1</ele>
        <time>2022-11-30T14:27:01Z</time>
      </trkpt>
      <trkpt lat="50.04428" lon="2.2596">
        <ele>127</ele>
        <time>2022-11-30T14:27:02Z</time>
      </trkpt>
      <trkpt lat="50.04427" lon="2.2596">
        <ele>127</ele>
        <time>2022-11-30T14:27:03Z</time>
      </trkpt>
      <trkpt lat="50.04426" lon="2.2596">
        <ele>127</ele>
        <time>2022-11-30T14:27:04Z</time>
      </trkpt>
      <trkpt lat="50.04425" lon="2.2596">
        <ele>127</ele>
        <time>2022-11-30T14:27:05Z</time>
      </trkpt>
      <trkpt lat="50.04424" lon="2.25961">
        <ele>127</ele>
        <time>2022-11-30T14:27:06Z</time>
      </trkpt>
      <trkpt lat="50.04422" lon="2.25961">
        <ele>126.9</ele>
        <time>2022-11-30T14:27:07Z</time>
      </trkpt>
      <trkpt lat="50.04421" lon="2.25961">
        <ele>126.9</ele>
        <time>2022-11-30T14:27:08Z</time>
      </trkpt>
      <trkpt lat="50.0442" lon="2.25962">
        <ele>126.9</ele>
        <time>2022-11-30T14:27:09Z</time>
      </trkpt>
      <trkpt lat="50.04418" lon="2.25962">
        <ele>126.8</ele>
        <time>2022-11-30T14:27:10Z</time>
      </trkpt>
      <trkpt lat="50.04417" lon="2.25962">
        <ele>126.8</ele>
        <time>2022-11-30T14:27:11Z</time>
      </trkpt>
      <trkpt lat="50.04416" lon="2.25963">
        <ele>126.8</ele>
        <time>2022-11-30T14:27:12Z</time>
      </trkpt>
      <trkpt lat="50.04414" lon="2.25964">
        <ele>126.7</ele>
        <time>2022-11-30T14:27:13Z</time>
      </trkpt>
      <trkpt lat="50.04413" lon="2.25965">
        <ele>126.7</ele>
        <time>2022-11-30T14:27:15Z</time>
      </trkpt>
      <trkpt lat="50.04412" lon="2.25965">
        <ele>126.7</ele>
        <time>2022-11-30T14:27:16Z</time>
      </trkpt>
      <trkpt lat="50.04409" lon="2.25966">
        <ele>126.6</ele>
        <time>2022-11-30T14:27:17Z</time>
      </trkpt>
      <trkpt lat="50.04409" lon="2.25966">
        <ele>126.6</ele>
        <time>2022-11-30T14:27:18Z</time>
      </trkpt>
      <trkpt lat="50.04408" lon="2.25966">
        <ele>126.6</ele>
        <time>2022-11-30T14:27:19Z</time>
      </trkpt>
      <trkpt lat="50.04407" lon="2.25966">
        <ele>126.6</ele>
        <time>2022-11-30T14:27:20Z</time>
      </trkpt>
      <trkpt lat="50.04405" lon="2.25967">
        <ele>126.6</ele>
        <time>2022-11-30T14:27:21Z</time>
      </trkpt>
      <trkpt lat="50.04404" lon="2.25967">
        <ele>126.6</ele>
        <time>2022-11-30T14:27:22Z</time>
      </trkpt>
      <trkpt lat="50.04403" lon="2.25967">
        <ele>126.5</ele>
        <time>2022-11-30T14:27:23Z</time>
      </trkpt>
      <trkpt lat="50.04402" lon="2.25967">
        <ele>126.5</ele>
        <time>2022-11-30T14:27:24Z</time>
      </trkpt>
      <trkpt lat="50.04401" lon="2.25968">
        <ele>126.5</ele>
        <time>2022-11-30T14:27:25Z</time>
      </trkpt>
      <trkpt lat="50.04399" lon="2.25968">
        <ele>126.5</ele>
        <time>2022-11-30T14:27:26Z</time>
      </trkpt>
      <trkpt lat="50.04398" lon="2.25968">
        <ele>126.5</ele>
        <time>2022-11-30T14:27:28Z</time>
      </trkpt>
      <trkpt lat="50.04398" lon="2.25968">
        <ele>126.5</ele>
        <time>2022-11-30T14:27:29Z</time>
      </trkpt>
      <trkpt lat="50.04395" lon="2.25969">
        <ele>126.4</ele>
        <time>2022-11-30T14:27:30Z</time>
      </trkpt>
      <trkpt lat="50.04394" lon="2.2597">
        <ele>126.4</ele>
        <time>2022-11-30T14:27:31Z</time>
      </trkpt>
      <trkpt lat="50.04393" lon="2.2597">
        <ele>126.4</ele>
        <time>2022-11-30T14:27:32Z</time>
      </trkpt>
      <trkpt lat="50.04391" lon="2.25971">
        <ele>126.4</ele>
        <time>2022-11-30T14:27:33Z</time>
      </trkpt>
      <trkpt lat="50.0439" lon="2.25971">
        <ele>126.4</ele>
        <time>2022-11-30T14:27:34Z</time>
      </trkpt>
      <trkpt lat="50.04389" lon="2.25971">
        <ele>126.4</ele>
        <time>2022-11-30T14:27:35Z</time>
      </trkpt>
      <trkpt lat="50.04387" lon="2.25972">
        <ele>126.3</ele>
        <time>2022-11-30T14:27:37Z</time>
      </trkpt>
      <trkpt lat="50.04387" lon="2.25972">
        <ele>126.3</ele>
        <time>2022-11-30T14:27:38Z</time>
      </trkpt>
      <trkpt lat="50.04386" lon="2.25972">
        <ele>126.3</ele>
        <time>2022-11-30T14:27:39Z</time>
      </trkpt>
      <trkpt lat="50.04385" lon="2.25972">
        <ele>126.3</ele>
        <time>2022-11-30T14:27:40Z</time>
      </trkpt>
      <trkpt lat="50.04384" lon="2.25973">
        <ele>126.3</ele>
        <time>2022-11-30T14:27:41Z</time>
      </trkpt>
      <trkpt lat="50.04383" lon="2.25973">
        <ele>126.3</ele>
        <time>2022-11-30T14:27:42Z</time>
      </trkpt>
      <trkpt lat="50.04382" lon="2.25974">
        <ele>126.2</ele>
        <time>2022-11-30T14:27:43Z</time>
      </trkpt>
      <trkpt lat="50.04381" lon="2.25975">
        <ele>126.2</ele>
        <time>2022-11-30T14:27:44Z</time>
      </trkpt>
      <trkpt lat="50.04379" lon="2.25975">
        <ele>126.2</ele>
        <time>2022-11-30T14:27:46Z</time>
      </trkpt>
      <trkpt lat="50.04378" lon="2.25976">
        <ele>126.2</ele>
        <time>2022-11-30T14:27:47Z</time>
      </trkpt>
      <trkpt lat="50.04377" lon="2.25976">
        <ele>126.1</ele>
        <time>2022-11-30T14:27:48Z</time>
      </trkpt>
      <trkpt lat="50.04376" lon="2.25977">
        <ele>126.1</ele>
        <time>2022-11-30T14:27:49Z</time>
      </trkpt>
      <trkpt lat="50.04374" lon="2.25977">
        <ele>126.1</ele>
        <time>2022-11-30T14:27:50Z</time>
      </trkpt>
      <trkpt lat="50.04373" lon="2.25978">
        <ele>126.1</ele>
        <time>2022-11-30T14:27:51Z</time>
      </trkpt>
      <trkpt lat="50.04372" lon="2.25978">
        <ele>126</ele>
        <time>2022-11-30T14:27:52Z</time>
      </trkpt>
      <trkpt lat="50.04371" lon="2.25978">
        <ele>126</ele>
        <time>2022-11-30T14:27:53Z</time>
      </trkpt>
      <trkpt lat="50.04369" lon="2.25978">
        <ele>126</ele>
        <time>2022-11-30T14:27:55Z</time>
      </trkpt>
      <trkpt lat="50.04368" lon="2.25978">
        <ele>125.9</ele>
        <time>2022-11-30T14:27:56Z</time>
      </trkpt>
      <trkpt lat="50.04367" lon="2.25978">
        <ele>125.9</ele>
        <time>2022-11-30T14:27:57Z</time>
      </trkpt>
      <trkpt lat="50.04366" lon="2.25978">
        <ele>125.9</ele>
        <time>2022-11-30T14:27:58Z</time>
      </trkpt>
      <trkpt lat="50.04365" lon="2.25979">
        <ele>125.8</ele>
        <time>2022-11-30T14:27:59Z</time>
      </trkpt>
      <trkpt lat="50.04364" lon="2.25979">
        <ele>125.8</ele>
        <time>2022-11-30T14:28:00Z</time>
      </trkpt>
      <trkpt lat="50.04363" lon="2.25979">
        <ele>125.8</ele>
        <time>2022-11-30T14:28:01Z</time>
      </trkpt>
      <trkpt lat="50.04362" lon="2.25979">
        <ele>125.7</ele>
        <time>2022-11-30T14:28:02Z</time>
      </trkpt>
      <trkpt lat="50.04361" lon="2.25979">
        <ele>125.7</ele>
        <time>2022-11-30T14:28:03Z</time>
      </trkpt>
      <trkpt lat="50.04359" lon="2.25979">
        <ele>125.7</ele>
        <time>2022-11-30T14:28:04Z</time>
      </trkpt>
      <trkpt lat="50.04357" lon="2.2598">
        <ele>125.6</ele>
        <time>2022-11-30T14:28:05Z</time>
      </trkpt>
      <trkpt lat="50.04356" lon="2.2598">
        <ele>125.6</ele>
        <time>2022-11-30T14:28:06Z</time>
      </trkpt>
      <trkpt lat="50.04355" lon="2.2598">
        <ele>125.6</ele>
        <time>2022-11-30T14:28:07Z</time>
      </trkpt>
      <trkpt lat="50.04354" lon="2.2598">
        <ele>125.5</ele>
        <time>2022-11-30T14:28:08Z</time>
      </trkpt>
      <trkpt lat="50.04352" lon="2.25981">
        <ele>125.5</ele>
        <time>2022-11-30T14:28:09Z</time>
      </trkpt>
      <trkpt lat="50.0435" lon="2.25981">
        <ele>125.4</ele>
        <time>2022-11-30T14:28:11Z</time>
      </trkpt>
      <trkpt lat="50.04349" lon="2.25982">
        <ele>125.4</ele>
        <time>2022-11-30T14:28:12Z</time>
      </trkpt>
      <trkpt lat="50.04347" lon="2.25983">
        <ele>125.3</ele>
        <time>2022-11-30T14:28:13Z</time>
      </trkpt>
      <trkpt lat="50.04346" lon="2.25983">
        <ele>125.3</ele>
        <time>2022-11-30T14:28:14Z</time>
      </trkpt>
      <trkpt lat="50.04345" lon="2.25984">
        <ele>125.3</ele>
        <time>2022-11-30T14:28:15Z</time>
      </trkpt>
      <trkpt lat="50.04344" lon="2.25984">
        <ele>125.3</ele>
        <time>2022-11-30T14:28:16Z</time>
      </trkpt>
      <trkpt lat="50.04343" lon="2.25985">
        <ele>125.2</ele>
        <time>2022-11-30T14:28:17Z</time>
      </trkpt>
      <trkpt lat="50.04342" lon="2.25985">
        <ele>125.2</ele>
        <time>2022-11-30T14:28:18Z</time>
      </trkpt>
      <trkpt lat="50.04341" lon="2.25985">
        <ele>125.1</ele>
        <time>2022-11-30T14:28:20Z</time>
      </trkpt>
      <trkpt lat="50.0434" lon="2.25986">
        <ele>125.1</ele>
        <time>2022-11-30T14:28:21Z</time>
      </trkpt>
      <trkpt lat="50.04339" lon="2.25986">
        <ele>125.1</ele>
        <time>2022-11-30T14:28:22Z</time>
      </trkpt>
      <trkpt lat="50.04337" lon="2.25987">
        <ele>125</ele>
        <time>2022-11-30T14:28:23Z</time>
      </trkpt>
      <trkpt lat="50.04336" lon="2.25988">
        <ele>125</ele>
        <time>2022-11-30T14:28:24Z</time>
      </trkpt>
      <trkpt lat="50.04336" lon="2.25989">
        <ele>124.9</ele>
        <time>2022-11-30T14:28:25Z</time>
      </trkpt>
      <trkpt lat="50.04334" lon="2.2599">
        <ele>124.9</ele>
        <time>2022-11-30T14:28:26Z</time>
      </trkpt>
      <trkpt lat="50.04333" lon="2.25991">
        <ele>124.8</ele>
        <time>2022-11-30T14:28:27Z</time>
      </trkpt>
      <trkpt lat="50.04332" lon="2.25992">
        <ele>124.8</ele>
        <time>2022-11-30T14:28:28Z</time>
      </trkpt>
      <trkpt lat="50.04331" lon="2.25992">
        <ele>124.8</ele>
        <time>2022-11-30T14:28:30Z</time>
      </trkpt>
      <trkpt lat="50.0433" lon="2.25993">
        <ele>124.7</ele>
        <time>2022-11-30T14:28:31Z</time>
      </trkpt>
      <trkpt lat="50.0433" lon="2.25994">
        <ele>124.7</ele>
        <time>2022-11-30T14:28:32Z</time>
      </trkpt>
      <trkpt lat="50.04329" lon="2.25995">
        <ele>124.7</ele>
        <time>2022-11-30T14:28:33Z</time>
      </trkpt>
      <trkpt lat="50.04328" lon="2.25997">
        <ele>124.6</ele>
        <time>2022-11-30T14:28:34Z</time>
      </trkpt>
      <trkpt lat="50.04328" lon="2.25998">
        <ele>124.6</ele>
        <time>2022-11-30T14:28:35Z</time>
      </trkpt>
      <trkpt lat="50.04327" lon="2.25999">
        <ele>124.6</ele>
        <time>2022-11-30T14:28:36Z</time>
      </trkpt>
      <trkpt lat="50.04327" lon="2.26">
        <ele>124.5</ele>
        <time>2022-11-30T14:28:37Z</time>
      </trkpt>
      <trkpt lat="50.04326" lon="2.26">
        <ele>124.5</ele>
        <time>2022-11-30T14:28:38Z</time>
      </trkpt>
      <trkpt lat="50.04326" lon="2.26001">
        <ele>124.5</ele>
        <time>2022-11-30T14:28:39Z</time>
      </trkpt>
      <trkpt lat="50.04325" lon="2.26002">
        <ele>124.5</ele>
        <time>2022-11-30T14:28:40Z</time>
      </trkpt>
      <trkpt lat="50.04325" lon="2.26003">
        <ele>124.5</ele>
        <time>2022-11-30T14:28:41Z</time>
      </trkpt>
      <trkpt lat="50.04325" lon="2.26003">
        <ele>124.4</ele>
        <time>2022-11-30T14:28:42Z</time>
      </trkpt>
      <trkpt lat="50.04325" lon="2.26004">
        <ele>124.4</ele>
        <time>2022-11-30T14:28:43Z</time>
      </trkpt>
      <trkpt lat="50.04325" lon="2.26004">
        <ele>124.4</ele>
        <time>2022-11-30T14:28:44Z</time>
      </trkpt>
      <trkpt lat="50.04325" lon="2.26004">
        <ele>124.4</ele>
        <time>2022-11-30T14:28:45Z</time>
      </trkpt>
      <trkpt lat="50.04325" lon="2.26004">
        <ele>124.4</ele>
        <time>2022-11-30T14:28:46Z</time>
      </trkpt>
      <trkpt lat="50.04326" lon="2.26004">
        <ele>124.4</ele>
        <time>2022-11-30T14:28:47Z</time>
      </trkpt>
      <trkpt lat="50.04326" lon="2.26004">
        <ele>124.4</ele>
        <time>2022-11-30T14:28:48Z</time>
      </trkpt>
      <trkpt lat="50.04326" lon="2.26003">
        <ele>124.4</ele>
        <time>2022-11-30T14:28:49Z</time>
      </trkpt>
      <trkpt lat="50.04326" lon="2.26003">
        <ele>124.4</ele>
        <time>2022-11-30T14:28:50Z</time>
      </trkpt>
      <trkpt lat="50.04326" lon="2.26003">
        <ele>124.4</ele>
        <time>2022-11-30T14:28:51Z</time>
      </trkpt>
      <trkpt lat="50.04326" lon="2.26003">
        <ele>124.4</ele>
        <time>2022-11-30T14:28:52Z</time>
      </trkpt>
      <trkpt lat="50.04326" lon="2.26003">
        <ele>124.4</ele>
        <time>2022-11-30T14:28:53Z</time>
      </trkpt>
      <trkpt lat="50.04327" lon="2.26003">
        <ele>124.4</ele>
        <time>2022-11-30T14:28:54Z</time>
      </trkpt>
      <trkpt lat="50.04327" lon="2.26003">
        <ele>124.4</ele>
        <time>2022-11-30T14:28:55Z</time>
      </trkpt>
      <trkpt lat="50.04327" lon="2.26004">
        <ele>124.4</ele>
        <time>2022-11-30T14:28:56Z</time>
      </trkpt>
      <trkpt lat="50.04327" lon="2.26003">
        <ele>124.3</ele>
        <time>2022-11-30T14:28:57Z</time>
      </trkpt>
      <trkpt lat="50.04327" lon="2.26003">
        <ele>124.3</ele>
        <time>2022-11-30T14:28:58Z</time>
      </trkpt>
      <trkpt lat="50.04327" lon="2.26003">
        <ele>124.3</ele>
        <time>2022-11-30T14:28:59Z</time>
      </trkpt>
      <trkpt lat="50.04327" lon="2.26003">
        <ele>124.3</ele>
        <time>2022-11-30T14:29:00Z</time>
      </trkpt>
      <trkpt lat="50.04327" lon="2.26003">
        <ele>124.3</ele>
        <time>2022-11-30T14:29:01Z</time>
      </trkpt>
      <trkpt lat="50.04327" lon="2.26002">
        <ele>124.3</ele>
        <time>2022-11-30T14:29:02Z</time>
      </trkpt>
      <trkpt lat="50.04327" lon="2.26002">
        <ele>124.3</ele>
        <time>2022-11-30T14:29:03Z</time>
      </trkpt>
      <trkpt lat="50.04327" lon="2.26002">
        <ele>124.3</ele>
        <time>2022-11-30T14:29:04Z</time>
      </trkpt>
      <trkpt lat="50.04327" lon="2.26002">
        <ele>124.3</ele>
        <time>2022-11-30T14:29:05Z</time>
      </trkpt>
      <trkpt lat="50.04327" lon="2.26002">
        <ele>124.3</ele>
        <time>2022-11-30T14:29:06Z</time>
      </trkpt>
      <trkpt lat="50.04327" lon="2.26002">
        <ele>124.3</ele>
        <time>2022-11-30T14:29:07Z</time>
      </trkpt>
      <trkpt lat="50.04327" lon="2.26002">
        <ele>124.3</ele>
        <time>2022-11-30T14:29:08Z</time>
      </trkpt>
      <trkpt lat="50.04327" lon="2.26002">
        <ele>124.3</ele>
        <time>2022-11-30T14:29:09Z</time>
      </trkpt>
      <trkpt lat="50.04327" lon="2.26002">
        <ele>124.3</ele>
        <time>2022-11-30T14:29:10Z</time>
      </trkpt>
      <trkpt lat="50.04327" lon="2.26002">
        <ele>124.3</ele>
        <time>2022-11-30T14:29:11Z</time>
      </trkpt>
      <trkpt lat="50.04327" lon="2.26002">
        <ele>124.3</ele>
        <time>2022-11-30T14:29:12Z</time>
      </trkpt>
      <trkpt lat="50.04327" lon="2.26002">
        <ele>124.3</ele>
        <time>2022-11-30T14:29:13Z</time>
      </trkpt>
      <trkpt lat="50.04327" lon="2.26002">
        <ele>124.3</ele>
        <time>2022-11-30T14:29:14Z</time>
      </trkpt>
      <trkpt lat="50.04327" lon="2.26002">
        <ele>124.3</ele>
        <time>2022-11-30T14:29:15Z</time>
      </trkpt>
      <trkpt lat="50.04327" lon="2.26002">
        <ele>124.3</ele>
        <time>2022-11-30T14:29:16Z</time>
      </trkpt>
      <trkpt lat="50.04327" lon="2.26002">
        <ele>124.3</ele>
        <time>2022-11-30T14:29:17Z</time>
      </trkpt>
      <trkpt lat="50.04327" lon="2.26002">
        <ele>124.3</ele>
        <time>2022-11-30T14:29:18Z</time>
      </trkpt>
      <trkpt lat="50.04327" lon="2.26002">
        <ele>124.3</ele>
        <time>2022-11-30T14:29:19Z</time>
      </trkpt>
      <trkpt lat="50.04327" lon="2.26002">
        <ele>124.3</ele>
        <time>2022-11-30T14:29:20Z</time>
      </trkpt>
      <trkpt lat="50.04327" lon="2.26002">
        <ele>124.3</ele>
        <time>2022-11-30T14:29:21Z</time>
      </trkpt>
      <trkpt lat="50.04327" lon="2.26002">
        <ele>124.3</ele>
        <time>2022-11-30T14:29:22Z</time>
      </trkpt>
      <trkpt lat="50.04327" lon="2.26002">
        <ele>124.3</ele>
        <time>2022-11-30T14:29:23Z</time>
      </trkpt>
      <trkpt lat="50.04327" lon="2.26002">
        <ele>124.3</ele>
        <time>2022-11-30T14:29:24Z</time>
      </trkpt>
      <trkpt lat="50.04327" lon="2.26002">
        <ele>124.3</ele>
        <time>2022-11-30T14:29:25Z</time>
      </trkpt>
      <trkpt lat="50.04327" lon="2.26002">
        <ele>124.3</ele>
        <time>2022-11-30T14:29:26Z</time>
      </trkpt>
      <trkpt lat="50.04327" lon="2.26002">
        <ele>124.3</ele>
        <time>2022-11-30T14:29:27Z</time>
      </trkpt>
      <trkpt lat="50.04327" lon="2.26002">
        <ele>124.3</ele>
        <time>2022-11-30T14:29:28Z</time>
      </trkpt>
      <trkpt lat="50.04327" lon="2.26002">
        <ele>124.3</ele>
        <time>2022-11-30T14:29:29Z</time>
      </trkpt>
      <trkpt lat="50.04327" lon="2.26002">
        <ele>124.3</ele>
        <time>2022-11-30T14:29:30Z</time>
      </trkpt>
      <trkpt lat="50.04327" lon="2.26002">
        <ele>124.3</ele>
        <time>2022-11-30T14:29:31Z</time>
      </trkpt>
      <trkpt lat="50.04327" lon="2.26002">
        <ele>124.3</ele>
        <time>2022-11-30T14:29:32Z</time>
      </trkpt>
      <trkpt lat="50.04327" lon="2.26002">
        <ele>124.3</ele>
        <time>2022-11-30T14:29:33Z</time>
      </trkpt>
      <trkpt lat="50.04327" lon="2.26002">
        <ele>124.3</ele>
        <time>2022-11-30T14:29:34Z</time>
      </trkpt>
      <trkpt lat="50.04327" lon="2.26002">
        <ele>124.3</ele>
        <time>2022-11-30T14:29:35Z</time>
      </trkpt>
      <trkpt lat="50.04327" lon="2.26002">
        <ele>124.3</ele>
        <time>2022-11-30T14:29:36Z</time>
      </trkpt>
      <trkpt lat="50.04327" lon="2.26002">
        <ele>124.3</ele>
        <time>2022-11-30T14:29:37Z</time>
      </trkpt>
      <trkpt lat="50.04327" lon="2.26002">
        <ele>124.3</ele>
        <time>2022-11-30T14:29:38Z</time>
      </trkpt>
      <trkpt lat="50.04327" lon="2.26002">
        <ele>124.3</ele>
        <time>2022-11-30T14:29:39Z</time>
      </trkpt>
      <trkpt lat="50.04327" lon="2.26002">
        <ele>124.3</ele>
        <time>2022-11-30T14:29:40Z</time>
      </trkpt>
      <trkpt lat="50.04327" lon="2.26002">
        <ele>124.3</ele>
        <time>2022-11-30T14:29:41Z</time>
      </trkpt>
      <trkpt lat="50.04327" lon="2.26002">
        <ele>124.3</ele>
        <time>2022-11-30T14:29:42Z</time>
      </trkpt>
      <trkpt lat="50.04327" lon="2.26002">
        <ele>124.3</ele>
        <time>2022-11-30T14:29:43Z</time>
      </trkpt>
      <trkpt lat="50.04327" lon="2.26002">
        <ele>124.3</ele>
        <time>2022-11-30T14:29:44Z</time>
      </trkpt>
      <trkpt lat="50.04327" lon="2.26002">
        <ele>124.3</ele>
        <time>2022-11-30T14:29:45Z</time>
      </trkpt>
      <trkpt lat="50.04327" lon="2.26002">
        <ele>124.3</ele>
        <time>2022-11-30T14:29:46Z</time>
      </trkpt>
      <trkpt lat="50.04327" lon="2.26002">
        <ele>124.3</ele>
        <time>2022-11-30T14:29:47Z</time>
      </trkpt>
      <trkpt lat="50.04327" lon="2.26002">
        <ele>124.3</ele>
        <time>2022-11-30T14:29:48Z</time>
      </trkpt>
      <trkpt lat="50.04327" lon="2.26002">
        <ele>124.3</ele>
        <time>2022-11-30T14:29:49Z</time>
      </trkpt>
      <trkpt lat="50.04327" lon="2.26002">
        <ele>124.3</ele>
        <time>2022-11-30T14:29:50Z</time>
      </trkpt>
      <trkpt lat="50.04327" lon="2.26002">
        <ele>124.3</ele>
        <time>2022-11-30T14:29:51Z</time>
      </trkpt>
      <trkpt lat="50.04327" lon="2.26002">
        <ele>124.3</ele>
        <time>2022-11-30T14:29:52Z</time>
      </trkpt>
      <trkpt lat="50.04327" lon="2.26002">
        <ele>124.3</ele>
        <time>2022-11-30T14:29:53Z</time>
      </trkpt>
      <trkpt lat="50.04327" lon="2.26002">
        <ele>124.3</ele>
        <time>2022-11-30T14:29:54Z</time>
      </trkpt>
      <trkpt lat="50.04327" lon="2.26002">
        <ele>124.3</ele>
        <time>2022-11-30T14:29:55Z</time>
      </trkpt>
      <trkpt lat="50.04327" lon="2.26002">
        <ele>124.3</ele>
        <time>2022-11-30T14:29:56Z</time>
      </trkpt>
      <trkpt lat="50.04327" lon="2.26002">
        <ele>124.3</ele>
        <time>2022-11-30T14:29:57Z</time>
      </trkpt>
      <trkpt lat="50.04327" lon="2.26002">
        <ele>124.3</ele>
        <time>2022-11-30T14:29:58Z</time>
      </trkpt>
      <trkpt lat="50.04327" lon="2.26002">
        <ele>124.3</ele>
        <time>2022-11-30T14:29:59Z</time>
      </trkpt>
      <trkpt lat="50.04327" lon="2.26002">
        <ele>124.3</ele>
        <time>2022-11-30T14:30:00Z</time>
      </trkpt>
      <trkpt lat="50.04327" lon="2.26002">
        <ele>124.3</ele>
        <time>2022-11-30T14:30:01Z</time>
      </trkpt>
      <trkpt lat="50.04327" lon="2.26002">
        <ele>124.3</ele>
        <time>2022-11-30T14:30:02Z</time>
      </trkpt>
      <trkpt lat="50.04327" lon="2.26002">
        <ele>124.3</ele>
        <time>2022-11-30T14:30:03Z</time>
      </trkpt>
      <trkpt lat="50.04327" lon="2.26002">
        <ele>124.3</ele>
        <time>2022-11-30T14:30:04Z</time>
      </trkpt>
      <trkpt lat="50.04327" lon="2.26002">
        <ele>124.3</ele>
        <time>2022-11-30T14:30:05Z</time>
      </trkpt>
      <trkpt lat="50.04327" lon="2.26002">
        <ele>124.3</ele>
        <time>2022-11-30T14:30:06Z</time>
      </trkpt>
      <trkpt lat="50.04327" lon="2.26002">
        <ele>124.3</ele>
        <time>2022-11-30T14:30:07Z</time>
      </trkpt>
      <trkpt lat="50.04327" lon="2.26002">
        <ele>124.3</ele>
        <time>2022-11-30T14:30:08Z</time>
      </trkpt>
      <trkpt lat="50.04327" lon="2.26002">
        <ele>124.3</ele>
        <time>2022-11-30T14:30:09Z</time>
      </trkpt>
      <trkpt lat="50.04327" lon="2.26002">
        <ele>124.3</ele>
        <time>2022-11-30T14:30:10Z</time>
      </trkpt>
      <trkpt lat="50.04327" lon="2.26002">
        <ele>124.3</ele>
        <time>2022-11-30T14:30:11Z</time>
      </trkpt>
      <trkpt lat="50.04327" lon="2.26002">
        <ele>124.3</ele>
        <time>2022-11-30T14:30:12Z</time>
      </trkpt>
      <trkpt lat="50.04327" lon="2.26002">
        <ele>124.3</ele>
        <time>2022-11-30T14:30:13Z</time>
      </trkpt>
      <trkpt lat="50.04327" lon="2.26002">
        <ele>124.3</ele>
        <time>2022-11-30T14:30:14Z</time>
      </trkpt>
      <trkpt lat="50.04327" lon="2.26002">
        <ele>124.3</ele>
        <time>2022-11-30T14:30:15Z</time>
      </trkpt>
      <trkpt lat="50.04327" lon="2.26002">
        <ele>124.3</ele>
        <time>2022-11-30T14:30:16Z</time>
      </trkpt>
      <trkpt lat="50.04327" lon="2.26002">
        <ele>124.3</ele>
        <time>2022-11-30T14:30:17Z</time>
      </trkpt>
      <trkpt lat="50.04327" lon="2.26002">
        <ele>124.3</ele>
        <time>2022-11-30T14:30:18Z</time>
      </trkpt>
      <trkpt lat="50.04327" lon="2.26002">
        <ele>124.3</ele>
        <time>2022-11-30T14:30:19Z</time>
      </trkpt>
      <trkpt lat="50.04327" lon="2.26002">
        <ele>124.3</ele>
        <time>2022-11-30T14:30:20Z</time>
      </trkpt>
      <trkpt lat="50.04327" lon="2.26002">
        <ele>124.3</ele>
        <time>2022-11-30T14:30:21Z</time>
      </trkpt>
      <trkpt lat="50.04327" lon="2.26002">
        <ele>124.3</ele>
        <time>2022-11-30T14:30:22Z</time>
      </trkpt>
      <trkpt lat="50.04327" lon="2.26002">
        <ele>124.3</ele>
        <time>2022-11-30T14:30:23Z</time>
      </trkpt>
      <trkpt lat="50.04327" lon="2.26002">
        <ele>124.3</ele>
        <time>2022-11-30T14:30:24Z</time>
      </trkpt>
      <trkpt lat="50.04327" lon="2.26002">
        <ele>124.3</ele>
        <time>2022-11-30T14:30:25Z</time>
      </trkpt>
      <trkpt lat="50.04327" lon="2.26002">
        <ele>124.3</ele>
        <time>2022-11-30T14:30:26Z</time>
      </trkpt>
      <trkpt lat="50.04327" lon="2.26002">
        <ele>124.3</ele>
        <time>2022-11-30T14:30:27Z</time>
      </trkpt>
      <trkpt lat="50.04327" lon="2.26002">
        <ele>124.3</ele>
        <time>2022-11-30T14:30:28Z</time>
      </trkpt>
      <trkpt lat="50.04327" lon="2.26002">
        <ele>124.3</ele>
        <time>2022-11-30T14:30:29Z</time>
      </trkpt>
      <trkpt lat="50.04327" lon="2.26002">
        <ele>124.3</ele>
        <time>2022-11-30T14:30:30Z</time>
      </trkpt>
      <trkpt lat="50.04327" lon="2.26002">
        <ele>124.3</ele>
        <time>2022-11-30T14:30:31Z</time>
      </trkpt>
      <trkpt lat="50.04327" lon="2.26002">
        <ele>124.3</ele>
        <time>2022-11-30T14:30:32Z</time>
      </trkpt>
      <trkpt lat="50.04327" lon="2.26002">
        <ele>124.3</ele>
        <time>2022-11-30T14:30:33Z</time>
      </trkpt>
      <trkpt lat="50.04327" lon="2.26002">
        <ele>124.3</ele>
        <time>2022-11-30T14:30:34Z</time>
      </trkpt>
      <trkpt lat="50.04327" lon="2.26002">
        <ele>124.3</ele>
        <time>2022-11-30T14:30:35Z</time>
      </trkpt>
      <trkpt lat="50.04327" lon="2.26002">
        <ele>124.3</ele>
        <time>2022-11-30T14:30:36Z</time>
      </trkpt>
      <trkpt lat="50.04327" lon="2.26002">
        <ele>124.3</ele>
        <time>2022-11-30T14:30:37Z</time>
      </trkpt>
      <trkpt lat="50.04327" lon="2.26002">
        <ele>124.3</ele>
        <time>2022-11-30T14:30:38Z</time>
      </trkpt>
      <trkpt lat="50.04327" lon="2.26002">
        <ele>124.3</ele>
        <time>2022-11-30T14:30:39Z</time>
      </trkpt>
      <trkpt lat="50.04327" lon="2.26002">
        <ele>124.3</ele>
        <time>2022-11-30T14:30:40Z</time>
      </trkpt>
      <trkpt lat="50.04327" lon="2.26002">
        <ele>124.3</ele>
        <time>2022-11-30T14:30:41Z</time>
      </trkpt>
      <trkpt lat="50.04327" lon="2.26002">
        <ele>124.3</ele>
        <time>2022-11-30T14:30:42Z</time>
      </trkpt>
      <trkpt lat="50.04327" lon="2.26002">
        <ele>124.3</ele>
        <time>2022-11-30T14:30:43Z</time>
      </trkpt>
      <trkpt lat="50.04327" lon="2.26002">
        <ele>124.3</ele>
        <time>2022-11-30T14:30:44Z</time>
      </trkpt>
      <trkpt lat="50.04327" lon="2.26002">
        <ele>124.3</ele>
        <time>2022-11-30T14:30:45Z</time>
      </trkpt>
      <trkpt lat="50.04327" lon="2.26002">
        <ele>124.3</ele>
        <time>2022-11-30T14:30:46Z</time>
      </trkpt>
      <trkpt lat="50.04327" lon="2.26002">
        <ele>124.3</ele>
        <time>2022-11-30T14:30:47Z</time>
      </trkpt>
      <trkpt lat="50.04327" lon="2.26002">
        <ele>124.3</ele>
        <time>2022-11-30T14:30:48Z</time>
      </trkpt>
      <trkpt lat="50.04327" lon="2.26002">
        <ele>124.3</ele>
        <time>2022-11-30T14:30:49Z</time>
      </trkpt>
      <trkpt lat="50.04327" lon="2.26002">
        <ele>124.3</ele>
        <time>2022-11-30T14:30:50Z</time>
      </trkpt>
      <trkpt lat="50.04327" lon="2.26002">
        <ele>124.3</ele>
        <time>2022-11-30T14:30:51Z</time>
      </trkpt>
      <trkpt lat="50.04327" lon="2.26002">
        <ele>124.3</ele>
        <time>2022-11-30T14:30:52Z</time>
      </trkpt>
      <trkpt lat="50.04327" lon="2.26002">
        <ele>124.3</ele>
        <time>2022-11-30T14:30:53Z</time>
      </trkpt>
      <trkpt lat="50.04327" lon="2.26002">
        <ele>124.3</ele>
        <time>2022-11-30T14:30:54Z</time>
      </trkpt>
      <trkpt lat="50.04327" lon="2.26002">
        <ele>124.3</ele>
        <time>2022-11-30T14:30:55Z</time>
      </trkpt>
      <trkpt lat="50.04327" lon="2.26002">
        <ele>124.3</ele>
        <time>2022-11-30T14:30:56Z</time>
      </trkpt>
      <trkpt lat="50.04327" lon="2.26002">
        <ele>124.3</ele>
        <time>2022-11-30T14:30:57Z</time>
      </trkpt>
      <trkpt lat="50.04327" lon="2.26002">
        <ele>124.3</ele>
        <time>2022-11-30T14:30:58Z</time>
      </trkpt>
      <trkpt lat="50.04327" lon="2.26002">
        <ele>124.3</ele>
        <time>2022-11-30T14:30:59Z</time>
      </trkpt>
      <trkpt lat="50.04327" lon="2.26002">
        <ele>124.3</ele>
        <time>2022-11-30T14:31:00Z</time>
      </trkpt>
      <trkpt lat="50.04327" lon="2.26002">
        <ele>124.3</ele>
        <time>2022-11-30T14:31:01Z</time>
      </trkpt>
      <trkpt lat="50.04328" lon="2.26002">
        <ele>124.3</ele>
        <time>2022-11-30T14:31:02Z</time>
      </trkpt>
      <trkpt lat="50.04329" lon="2.26001">
        <ele>124.2</ele>
        <time>2022-11-30T14:31:03Z</time>
      </trkpt>
      <trkpt lat="50.04329" lon="2.26002">
        <ele>124.2</ele>
        <time>2022-11-30T14:31:04Z</time>
      </trkpt>
      <trkpt lat="50.04329" lon="2.26002">
        <ele>124.2</ele>
        <time>2022-11-30T14:31:05Z</time>
      </trkpt>
      <trkpt lat="50.04328" lon="2.26003">
        <ele>124.2</ele>
        <time>2022-11-30T14:31:06Z</time>
      </trkpt>
      <trkpt lat="50.04328" lon="2.26003">
        <ele>124.2</ele>
        <time>2022-11-30T14:31:07Z</time>
      </trkpt>
      <trkpt lat="50.04327" lon="2.26004">
        <ele>124.1</ele>
        <time>2022-11-30T14:31:08Z</time>
      </trkpt>
      <trkpt lat="50.04327" lon="2.26005">
        <ele>124.1</ele>
        <time>2022-11-30T14:31:09Z</time>
      </trkpt>
      <trkpt lat="50.04326" lon="2.26006">
        <ele>124.1</ele>
        <time>2022-11-30T14:31:10Z</time>
      </trkpt>
      <trkpt lat="50.04325" lon="2.26007">
        <ele>124.1</ele>
        <time>2022-11-30T14:31:12Z</time>
      </trkpt>
      <trkpt lat="50.04325" lon="2.26008">
        <ele>124</ele>
        <time>2022-11-30T14:31:13Z</time>
      </trkpt>
      <trkpt lat="50.04323" lon="2.26011">
        <ele>123.9</ele>
        <time>2022-11-30T14:31:14Z</time>
      </trkpt>
      <trkpt lat="50.04322" lon="2.26012">
        <ele>123.9</ele>
        <time>2022-11-30T14:31:16Z</time>
      </trkpt>
      <trkpt lat="50.04321" lon="2.26013">
        <ele>123.9</ele>
        <time>2022-11-30T14:31:17Z</time>
      </trkpt>
      <trkpt lat="50.0432" lon="2.26014">
        <ele>123.9</ele>
        <time>2022-11-30T14:31:18Z</time>
      </trkpt>
      <trkpt lat="50.0432" lon="2.26015">
        <ele>123.8</ele>
        <time>2022-11-30T14:31:19Z</time>
      </trkpt>
      <trkpt lat="50.04319" lon="2.26017">
        <ele>123.8</ele>
        <time>2022-11-30T14:31:20Z</time>
      </trkpt>
      <trkpt lat="50.04318" lon="2.26018">
        <ele>123.8</ele>
        <time>2022-11-30T14:31:21Z</time>
      </trkpt>
      <trkpt lat="50.04317" lon="2.26019">
        <ele>123.7</ele>
        <time>2022-11-30T14:31:23Z</time>
      </trkpt>
      <trkpt lat="50.04316" lon="2.26021">
        <ele>123.7</ele>
        <time>2022-11-30T14:31:24Z</time>
      </trkpt>
      <trkpt lat="50.04315" lon="2.26022">
        <ele>123.7</ele>
        <time>2022-11-30T14:31:25Z</time>
      </trkpt>
      <trkpt lat="50.04313" lon="2.26024">
        <ele>123.6</ele>
        <time>2022-11-30T14:31:26Z</time>
      </trkpt>
      <trkpt lat="50.04312" lon="2.26025">
        <ele>123.6</ele>
        <time>2022-11-30T14:31:27Z</time>
      </trkpt>
      <trkpt lat="50.04312" lon="2.26026">
        <ele>123.6</ele>
        <time>2022-11-30T14:31:28Z</time>
      </trkpt>
      <trkpt lat="50.04311" lon="2.26027">
        <ele>123.5</ele>
        <time>2022-11-30T14:31:29Z</time>
      </trkpt>
      <trkpt lat="50.0431" lon="2.26028">
        <ele>123.5</ele>
        <time>2022-11-30T14:31:30Z</time>
      </trkpt>
      <trkpt lat="50.04309" lon="2.26029">
        <ele>123.5</ele>
        <time>2022-11-30T14:31:31Z</time>
      </trkpt>
      <trkpt lat="50.04308" lon="2.26031">
        <ele>123.5</ele>
        <time>2022-11-30T14:31:32Z</time>
      </trkpt>
      <trkpt lat="50.04307" lon="2.26032">
        <ele>123.4</ele>
        <time>2022-11-30T14:31:33Z</time>
      </trkpt>
      <trkpt lat="50.04306" lon="2.26034">
        <ele>123.4</ele>
        <time>2022-11-30T14:31:35Z</time>
      </trkpt>
      <trkpt lat="50.04305" lon="2.26035">
        <ele>123.4</ele>
        <time>2022-11-30T14:31:36Z</time>
      </trkpt>
      <trkpt lat="50.04304" lon="2.26037">
        <ele>123.3</ele>
        <time>2022-11-30T14:31:37Z</time>
      </trkpt>
      <trkpt lat="50.04303" lon="2.26039">
        <ele>123.3</ele>
        <time>2022-11-30T14:31:38Z</time>
      </trkpt>
      <trkpt lat="50.04303" lon="2.2604">
        <ele>123.3</ele>
        <time>2022-11-30T14:31:39Z</time>
      </trkpt>
      <trkpt lat="50.04302" lon="2.26042">
        <ele>123.2</ele>
        <time>2022-11-30T14:31:40Z</time>
      </trkpt>
      <trkpt lat="50.04301" lon="2.26044">
        <ele>123.2</ele>
        <time>2022-11-30T14:31:41Z</time>
      </trkpt>
      <trkpt lat="50.043" lon="2.26046">
        <ele>123.1</ele>
        <time>2022-11-30T14:31:42Z</time>
      </trkpt>
      <trkpt lat="50.043" lon="2.26047">
        <ele>123.1</ele>
        <time>2022-11-30T14:31:43Z</time>
      </trkpt>
      <trkpt lat="50.04299" lon="2.26049">
        <ele>123.1</ele>
        <time>2022-11-30T14:31:44Z</time>
      </trkpt>
      <trkpt lat="50.04298" lon="2.26051">
        <ele>123</ele>
        <time>2022-11-30T14:31:46Z</time>
      </trkpt>
      <trkpt lat="50.04298" lon="2.26053">
        <ele>122.9</ele>
        <time>2022-11-30T14:31:47Z</time>
      </trkpt>
      <trkpt lat="50.04297" lon="2.26054">
        <ele>122.9</ele>
        <time>2022-11-30T14:31:48Z</time>
      </trkpt>
      <trkpt lat="50.04296" lon="2.26056">
        <ele>122.9</ele>
        <time>2022-11-30T14:31:49Z</time>
      </trkpt>
      <trkpt lat="50.04295" lon="2.26059">
        <ele>122.8</ele>
        <time>2022-11-30T14:31:50Z</time>
      </trkpt>
      <trkpt lat="50.04295" lon="2.2606">
        <ele>122.7</ele>
        <time>2022-11-30T14:31:51Z</time>
      </trkpt>
      <trkpt lat="50.04294" lon="2.26061">
        <ele>122.7</ele>
        <time>2022-11-30T14:31:52Z</time>
      </trkpt>
      <trkpt lat="50.04293" lon="2.26063">
        <ele>122.7</ele>
        <time>2022-11-30T14:31:54Z</time>
      </trkpt>
      <trkpt lat="50.04292" lon="2.26065">
        <ele>122.6</ele>
        <time>2022-11-30T14:31:55Z</time>
      </trkpt>
      <trkpt lat="50.04291" lon="2.26068">
        <ele>122.5</ele>
        <time>2022-11-30T14:31:56Z</time>
      </trkpt>
      <trkpt lat="50.04291" lon="2.26069">
        <ele>122.5</ele>
        <time>2022-11-30T14:31:57Z</time>
      </trkpt>
      <trkpt lat="50.0429" lon="2.2607">
        <ele>122.5</ele>
        <time>2022-11-30T14:31:58Z</time>
      </trkpt>
      <trkpt lat="50.04289" lon="2.26073">
        <ele>122.4</ele>
        <time>2022-11-30T14:31:59Z</time>
      </trkpt>
      <trkpt lat="50.04289" lon="2.26074">
        <ele>122.4</ele>
        <time>2022-11-30T14:32:00Z</time>
      </trkpt>
      <trkpt lat="50.04288" lon="2.26075">
        <ele>122.4</ele>
        <time>2022-11-30T14:32:01Z</time>
      </trkpt>
      <trkpt lat="50.04287" lon="2.26077">
        <ele>122.3</ele>
        <time>2022-11-30T14:32:03Z</time>
      </trkpt>
      <trkpt lat="50.04287" lon="2.26078">
        <ele>122.3</ele>
        <time>2022-11-30T14:32:04Z</time>
      </trkpt>
      <trkpt lat="50.04286" lon="2.2608">
        <ele>122.2</ele>
        <time>2022-11-30T14:32:05Z</time>
      </trkpt>
      <trkpt lat="50.04286" lon="2.26081">
        <ele>122.2</ele>
        <time>2022-11-30T14:32:06Z</time>
      </trkpt>
      <trkpt lat="50.04285" lon="2.26082">
        <ele>122.2</ele>
        <time>2022-11-30T14:32:07Z</time>
      </trkpt>
      <trkpt lat="50.04284" lon="2.26085">
        <ele>122.1</ele>
        <time>2022-11-30T14:32:08Z</time>
      </trkpt>
      <trkpt lat="50.04283" lon="2.26086">
        <ele>122.1</ele>
        <time>2022-11-30T14:32:09Z</time>
      </trkpt>
      <trkpt lat="50.04283" lon="2.26087">
        <ele>122.1</ele>
        <time>2022-11-30T14:32:10Z</time>
      </trkpt>
      <trkpt lat="50.04282" lon="2.2609">
        <ele>122</ele>
        <time>2022-11-30T14:32:11Z</time>
      </trkpt>
      <trkpt lat="50.04281" lon="2.26091">
        <ele>121.9</ele>
        <time>2022-11-30T14:32:12Z</time>
      </trkpt>
      <trkpt lat="50.04281" lon="2.26092">
        <ele>121.9</ele>
        <time>2022-11-30T14:32:13Z</time>
      </trkpt>
      <trkpt lat="50.0428" lon="2.26094">
        <ele>121.9</ele>
        <time>2022-11-30T14:32:15Z</time>
      </trkpt>
      <trkpt lat="50.04279" lon="2.26097">
        <ele>121.8</ele>
        <time>2022-11-30T14:32:16Z</time>
      </trkpt>
      <trkpt lat="50.04278" lon="2.26099">
        <ele>121.7</ele>
        <time>2022-11-30T14:32:17Z</time>
      </trkpt>
      <trkpt lat="50.04278" lon="2.26101">
        <ele>121.7</ele>
        <time>2022-11-30T14:32:18Z</time>
      </trkpt>
      <trkpt lat="50.04277" lon="2.26103">
        <ele>121.6</ele>
        <time>2022-11-30T14:32:19Z</time>
      </trkpt>
      <trkpt lat="50.04276" lon="2.26104">
        <ele>121.6</ele>
        <time>2022-11-30T14:32:20Z</time>
      </trkpt>
      <trkpt lat="50.04276" lon="2.26106">
        <ele>121.6</ele>
        <time>2022-11-30T14:32:21Z</time>
      </trkpt>
      <trkpt lat="50.04275" lon="2.26108">
        <ele>121.5</ele>
        <time>2022-11-30T14:32:22Z</time>
      </trkpt>
      <trkpt lat="50.04275" lon="2.26109">
        <ele>121.4</ele>
        <time>2022-11-30T14:32:23Z</time>
      </trkpt>
      <trkpt lat="50.04274" lon="2.26111">
        <ele>121.4</ele>
        <time>2022-11-30T14:32:24Z</time>
      </trkpt>
      <trkpt lat="50.04273" lon="2.26112">
        <ele>121.4</ele>
        <time>2022-11-30T14:32:25Z</time>
      </trkpt>
      <trkpt lat="50.04273" lon="2.26114">
        <ele>121.3</ele>
        <time>2022-11-30T14:32:26Z</time>
      </trkpt>
      <trkpt lat="50.04272" lon="2.26116">
        <ele>121.3</ele>
        <time>2022-11-30T14:32:27Z</time>
      </trkpt>
      <trkpt lat="50.04271" lon="2.26118">
        <ele>121.2</ele>
        <time>2022-11-30T14:32:28Z</time>
      </trkpt>
      <trkpt lat="50.0427" lon="2.26121">
        <ele>121.1</ele>
        <time>2022-11-30T14:32:29Z</time>
      </trkpt>
      <trkpt lat="50.0427" lon="2.26122">
        <ele>121.1</ele>
        <time>2022-11-30T14:32:30Z</time>
      </trkpt>
      <trkpt lat="50.04269" lon="2.26124">
        <ele>121.1</ele>
        <time>2022-11-30T14:32:31Z</time>
      </trkpt>
      <trkpt lat="50.04269" lon="2.26126">
        <ele>121</ele>
        <time>2022-11-30T14:32:33Z</time>
      </trkpt>
      <trkpt lat="50.04268" lon="2.26128">
        <ele>120.9</ele>
        <time>2022-11-30T14:32:34Z</time>
      </trkpt>
      <trkpt lat="50.04268" lon="2.26131">
        <ele>120.9</ele>
        <time>2022-11-30T14:32:35Z</time>
      </trkpt>
      <trkpt lat="50.04267" lon="2.26133">
        <ele>120.8</ele>
        <time>2022-11-30T14:32:36Z</time>
      </trkpt>
      <trkpt lat="50.04266" lon="2.26135">
        <ele>120.8</ele>
        <time>2022-11-30T14:32:38Z</time>
      </trkpt>
      <trkpt lat="50.04266" lon="2.26137">
        <ele>120.7</ele>
        <time>2022-11-30T14:32:39Z</time>
      </trkpt>
      <trkpt lat="50.04265" lon="2.26138">
        <ele>120.7</ele>
        <time>2022-11-30T14:32:40Z</time>
      </trkpt>
      <trkpt lat="50.04265" lon="2.2614">
        <ele>120.7</ele>
        <time>2022-11-30T14:32:41Z</time>
      </trkpt>
      <trkpt lat="50.04264" lon="2.26141">
        <ele>120.6</ele>
        <time>2022-11-30T14:32:42Z</time>
      </trkpt>
      <trkpt lat="50.04263" lon="2.26144">
        <ele>120.6</ele>
        <time>2022-11-30T14:32:43Z</time>
      </trkpt>
      <trkpt lat="50.04263" lon="2.26145">
        <ele>120.5</ele>
        <time>2022-11-30T14:32:44Z</time>
      </trkpt>
      <trkpt lat="50.04263" lon="2.26147">
        <ele>120.5</ele>
        <time>2022-11-30T14:32:45Z</time>
      </trkpt>
      <trkpt lat="50.04262" lon="2.26149">
        <ele>120.5</ele>
        <time>2022-11-30T14:32:46Z</time>
      </trkpt>
      <trkpt lat="50.04262" lon="2.2615">
        <ele>120.4</ele>
        <time>2022-11-30T14:32:47Z</time>
      </trkpt>
      <trkpt lat="50.04261" lon="2.26151">
        <ele>120.4</ele>
        <time>2022-11-30T14:32:48Z</time>
      </trkpt>
      <trkpt lat="50.0426" lon="2.26154">
        <ele>120.3</ele>
        <time>2022-11-30T14:32:49Z</time>
      </trkpt>
      <trkpt lat="50.0426" lon="2.26155">
        <ele>120.3</ele>
        <time>2022-11-30T14:32:50Z</time>
      </trkpt>
      <trkpt lat="50.04259" lon="2.26156">
        <ele>120.3</ele>
        <time>2022-11-30T14:32:51Z</time>
      </trkpt>
      <trkpt lat="50.04257" lon="2.26159">
        <ele>120.2</ele>
        <time>2022-11-30T14:32:52Z</time>
      </trkpt>
      <trkpt lat="50.04257" lon="2.26161">
        <ele>120.2</ele>
        <time>2022-11-30T14:32:54Z</time>
      </trkpt>
      <trkpt lat="50.04256" lon="2.26162">
        <ele>120.2</ele>
        <time>2022-11-30T14:32:55Z</time>
      </trkpt>
      <trkpt lat="50.04256" lon="2.26164">
        <ele>120.2</ele>
        <time>2022-11-30T14:32:56Z</time>
      </trkpt>
      <trkpt lat="50.04255" lon="2.26165">
        <ele>120.1</ele>
        <time>2022-11-30T14:32:57Z</time>
      </trkpt>
      <trkpt lat="50.04254" lon="2.26168">
        <ele>120.1</ele>
        <time>2022-11-30T14:32:58Z</time>
      </trkpt>
      <trkpt lat="50.04253" lon="2.26168">
        <ele>120.1</ele>
        <time>2022-11-30T14:32:59Z</time>
      </trkpt>
      <trkpt lat="50.04253" lon="2.26169">
        <ele>120</ele>
        <time>2022-11-30T14:33:00Z</time>
      </trkpt>
      <trkpt lat="50.04252" lon="2.26171">
        <ele>120</ele>
        <time>2022-11-30T14:33:01Z</time>
      </trkpt>
      <trkpt lat="50.04251" lon="2.26173">
        <ele>120</ele>
        <time>2022-11-30T14:33:02Z</time>
      </trkpt>
      <trkpt lat="50.0425" lon="2.26176">
        <ele>119.9</ele>
        <time>2022-11-30T14:33:03Z</time>
      </trkpt>
      <trkpt lat="50.04249" lon="2.26177">
        <ele>119.9</ele>
        <time>2022-11-30T14:33:04Z</time>
      </trkpt>
      <trkpt lat="50.04249" lon="2.26178">
        <ele>119.8</ele>
        <time>2022-11-30T14:33:05Z</time>
      </trkpt>
      <trkpt lat="50.04248" lon="2.2618">
        <ele>119.8</ele>
        <time>2022-11-30T14:33:06Z</time>
      </trkpt>
      <trkpt lat="50.04247" lon="2.26182">
        <ele>119.7</ele>
        <time>2022-11-30T14:33:07Z</time>
      </trkpt>
      <trkpt lat="50.04247" lon="2.26184">
        <ele>119.7</ele>
        <time>2022-11-30T14:33:09Z</time>
      </trkpt>
      <trkpt lat="50.04246" lon="2.26186">
        <ele>119.6</ele>
        <time>2022-11-30T14:33:10Z</time>
      </trkpt>
      <trkpt lat="50.04245" lon="2.26188">
        <ele>119.6</ele>
        <time>2022-11-30T14:33:11Z</time>
      </trkpt>
      <trkpt lat="50.04244" lon="2.2619">
        <ele>119.5</ele>
        <time>2022-11-30T14:33:12Z</time>
      </trkpt>
      <trkpt lat="50.04244" lon="2.26191">
        <ele>119.5</ele>
        <time>2022-11-30T14:33:13Z</time>
      </trkpt>
      <trkpt lat="50.04243" lon="2.26193">
        <ele>119.4</ele>
        <time>2022-11-30T14:33:14Z</time>
      </trkpt>
      <trkpt lat="50.04242" lon="2.26194">
        <ele>119.4</ele>
        <time>2022-11-30T14:33:15Z</time>
      </trkpt>
      <trkpt lat="50.04241" lon="2.26197">
        <ele>119.3</ele>
        <time>2022-11-30T14:33:16Z</time>
      </trkpt>
      <trkpt lat="50.04241" lon="2.26198">
        <ele>119.3</ele>
        <time>2022-11-30T14:33:17Z</time>
      </trkpt>
      <trkpt lat="50.0424" lon="2.26199">
        <ele>119.2</ele>
        <time>2022-11-30T14:33:18Z</time>
      </trkpt>
      <trkpt lat="50.04239" lon="2.262">
        <ele>119.2</ele>
        <time>2022-11-30T14:33:19Z</time>
      </trkpt>
      <trkpt lat="50.04239" lon="2.26202">
        <ele>119.1</ele>
        <time>2022-11-30T14:33:20Z</time>
      </trkpt>
      <trkpt lat="50.04238" lon="2.26205">
        <ele>119</ele>
        <time>2022-11-30T14:33:22Z</time>
      </trkpt>
      <trkpt lat="50.04236" lon="2.26207">
        <ele>119</ele>
        <time>2022-11-30T14:33:23Z</time>
      </trkpt>
      <trkpt lat="50.04236" lon="2.26208">
        <ele>118.9</ele>
        <time>2022-11-30T14:33:24Z</time>
      </trkpt>
      <trkpt lat="50.04235" lon="2.26209">
        <ele>118.9</ele>
        <time>2022-11-30T14:33:25Z</time>
      </trkpt>
      <trkpt lat="50.04234" lon="2.26211">
        <ele>118.8</ele>
        <time>2022-11-30T14:33:26Z</time>
      </trkpt>
      <trkpt lat="50.04234" lon="2.26213">
        <ele>118.8</ele>
        <time>2022-11-30T14:33:27Z</time>
      </trkpt>
      <trkpt lat="50.04233" lon="2.26214">
        <ele>118.7</ele>
        <time>2022-11-30T14:33:28Z</time>
      </trkpt>
      <trkpt lat="50.04232" lon="2.26216">
        <ele>118.7</ele>
        <time>2022-11-30T14:33:29Z</time>
      </trkpt>
      <trkpt lat="50.04232" lon="2.26217">
        <ele>118.7</ele>
        <time>2022-11-30T14:33:30Z</time>
      </trkpt>
      <trkpt lat="50.04231" lon="2.2622">
        <ele>118.6</ele>
        <time>2022-11-30T14:33:32Z</time>
      </trkpt>
      <trkpt lat="50.0423" lon="2.26221">
        <ele>118.5</ele>
        <time>2022-11-30T14:33:33Z</time>
      </trkpt>
      <trkpt lat="50.0423" lon="2.26222">
        <ele>118.5</ele>
        <time>2022-11-30T14:33:34Z</time>
      </trkpt>
      <trkpt lat="50.04229" lon="2.26224">
        <ele>118.5</ele>
        <time>2022-11-30T14:33:35Z</time>
      </trkpt>
      <trkpt lat="50.04228" lon="2.26225">
        <ele>118.4</ele>
        <time>2022-11-30T14:33:36Z</time>
      </trkpt>
      <trkpt lat="50.04227" lon="2.26227">
        <ele>118.4</ele>
        <time>2022-11-30T14:33:37Z</time>
      </trkpt>
      <trkpt lat="50.04227" lon="2.26228">
        <ele>118.3</ele>
        <time>2022-11-30T14:33:38Z</time>
      </trkpt>
      <trkpt lat="50.04226" lon="2.2623">
        <ele>118.3</ele>
        <time>2022-11-30T14:33:40Z</time>
      </trkpt>
      <trkpt lat="50.04225" lon="2.26231">
        <ele>118.2</ele>
        <time>2022-11-30T14:33:41Z</time>
      </trkpt>
      <trkpt lat="50.04224" lon="2.26232">
        <ele>118.2</ele>
        <time>2022-11-30T14:33:42Z</time>
      </trkpt>
      <trkpt lat="50.04224" lon="2.26233">
        <ele>118.1</ele>
        <time>2022-11-30T14:33:43Z</time>
      </trkpt>
      <trkpt lat="50.04223" lon="2.26235">
        <ele>118.1</ele>
        <time>2022-11-30T14:33:44Z</time>
      </trkpt>
      <trkpt lat="50.04222" lon="2.26236">
        <ele>118.1</ele>
        <time>2022-11-30T14:33:45Z</time>
      </trkpt>
      <trkpt lat="50.04222" lon="2.26237">
        <ele>118</ele>
        <time>2022-11-30T14:33:46Z</time>
      </trkpt>
      <trkpt lat="50.04221" lon="2.26238">
        <ele>118</ele>
        <time>2022-11-30T14:33:47Z</time>
      </trkpt>
      <trkpt lat="50.0422" lon="2.2624">
        <ele>117.9</ele>
        <time>2022-11-30T14:33:48Z</time>
      </trkpt>
      <trkpt lat="50.0422" lon="2.26241">
        <ele>117.9</ele>
        <time>2022-11-30T14:33:49Z</time>
      </trkpt>
      <trkpt lat="50.04219" lon="2.26243">
        <ele>117.8</ele>
        <time>2022-11-30T14:33:50Z</time>
      </trkpt>
      <trkpt lat="50.04218" lon="2.26245">
        <ele>117.7</ele>
        <time>2022-11-30T14:33:51Z</time>
      </trkpt>
      <trkpt lat="50.04216" lon="2.26248">
        <ele>117.6</ele>
        <time>2022-11-30T14:33:52Z</time>
      </trkpt>
      <trkpt lat="50.04216" lon="2.26249">
        <ele>117.6</ele>
        <time>2022-11-30T14:33:54Z</time>
      </trkpt>
      <trkpt lat="50.04215" lon="2.26251">
        <ele>117.5</ele>
        <time>2022-11-30T14:33:55Z</time>
      </trkpt>
      <trkpt lat="50.04214" lon="2.26252">
        <ele>117.5</ele>
        <time>2022-11-30T14:33:56Z</time>
      </trkpt>
      <trkpt lat="50.04214" lon="2.26253">
        <ele>117.4</ele>
        <time>2022-11-30T14:33:57Z</time>
      </trkpt>
      <trkpt lat="50.04213" lon="2.26255">
        <ele>117.4</ele>
        <time>2022-11-30T14:33:58Z</time>
      </trkpt>
      <trkpt lat="50.04212" lon="2.26257">
        <ele>117.3</ele>
        <time>2022-11-30T14:33:59Z</time>
      </trkpt>
      <trkpt lat="50.04211" lon="2.2626">
        <ele>117.2</ele>
        <time>2022-11-30T14:34:01Z</time>
      </trkpt>
      <trkpt lat="50.0421" lon="2.26261">
        <ele>117.2</ele>
        <time>2022-11-30T14:34:02Z</time>
      </trkpt>
      <trkpt lat="50.0421" lon="2.26262">
        <ele>117.1</ele>
        <time>2022-11-30T14:34:03Z</time>
      </trkpt>
      <trkpt lat="50.04209" lon="2.26264">
        <ele>117</ele>
        <time>2022-11-30T14:34:04Z</time>
      </trkpt>
      <trkpt lat="50.04208" lon="2.26265">
        <ele>117</ele>
        <time>2022-11-30T14:34:05Z</time>
      </trkpt>
      <trkpt lat="50.04207" lon="2.26267">
        <ele>116.9</ele>
        <time>2022-11-30T14:34:06Z</time>
      </trkpt>
      <trkpt lat="50.04207" lon="2.26268">
        <ele>116.9</ele>
        <time>2022-11-30T14:34:07Z</time>
      </trkpt>
      <trkpt lat="50.04206" lon="2.2627">
        <ele>116.8</ele>
        <time>2022-11-30T14:34:08Z</time>
      </trkpt>
      <trkpt lat="50.04204" lon="2.26272">
        <ele>116.7</ele>
        <time>2022-11-30T14:34:10Z</time>
      </trkpt>
      <trkpt lat="50.04203" lon="2.26273">
        <ele>116.7</ele>
        <time>2022-11-30T14:34:11Z</time>
      </trkpt>
      <trkpt lat="50.04202" lon="2.26275">
        <ele>116.6</ele>
        <time>2022-11-30T14:34:12Z</time>
      </trkpt>
      <trkpt lat="50.04201" lon="2.26276">
        <ele>116.5</ele>
        <time>2022-11-30T14:34:13Z</time>
      </trkpt>
      <trkpt lat="50.042" lon="2.26279">
        <ele>116.4</ele>
        <time>2022-11-30T14:34:14Z</time>
      </trkpt>
      <trkpt lat="50.04199" lon="2.2628">
        <ele>116.4</ele>
        <time>2022-11-30T14:34:16Z</time>
      </trkpt>
      <trkpt lat="50.04198" lon="2.26281">
        <ele>116.3</ele>
        <time>2022-11-30T14:34:17Z</time>
      </trkpt>
      <trkpt lat="50.04198" lon="2.26282">
        <ele>116.3</ele>
        <time>2022-11-30T14:34:18Z</time>
      </trkpt>
      <trkpt lat="50.04197" lon="2.26283">
        <ele>116.2</ele>
        <time>2022-11-30T14:34:19Z</time>
      </trkpt>
      <trkpt lat="50.04196" lon="2.26284">
        <ele>116.2</ele>
        <time>2022-11-30T14:34:20Z</time>
      </trkpt>
      <trkpt lat="50.04196" lon="2.26285">
        <ele>116.1</ele>
        <time>2022-11-30T14:34:21Z</time>
      </trkpt>
      <trkpt lat="50.04195" lon="2.26285">
        <ele>116.1</ele>
        <time>2022-11-30T14:34:22Z</time>
      </trkpt>
      <trkpt lat="50.04194" lon="2.26287">
        <ele>116</ele>
        <time>2022-11-30T14:34:23Z</time>
      </trkpt>
      <trkpt lat="50.04193" lon="2.26289">
        <ele>115.9</ele>
        <time>2022-11-30T14:34:24Z</time>
      </trkpt>
      <trkpt lat="50.04192" lon="2.2629">
        <ele>115.8</ele>
        <time>2022-11-30T14:34:26Z</time>
      </trkpt>
      <trkpt lat="50.04191" lon="2.26291">
        <ele>115.8</ele>
        <time>2022-11-30T14:34:27Z</time>
      </trkpt>
      <trkpt lat="50.0419" lon="2.26293">
        <ele>115.6</ele>
        <time>2022-11-30T14:34:28Z</time>
      </trkpt>
      <trkpt lat="50.04189" lon="2.26294">
        <ele>115.6</ele>
        <time>2022-11-30T14:34:29Z</time>
      </trkpt>
      <trkpt lat="50.04188" lon="2.26294">
        <ele>115.5</ele>
        <time>2022-11-30T14:34:30Z</time>
      </trkpt>
      <trkpt lat="50.04186" lon="2.26296">
        <ele>115.3</ele>
        <time>2022-11-30T14:34:31Z</time>
      </trkpt>
      <trkpt lat="50.04185" lon="2.26297">
        <ele>115.3</ele>
        <time>2022-11-30T14:34:33Z</time>
      </trkpt>
      <trkpt lat="50.04184" lon="2.26298">
        <ele>115.2</ele>
        <time>2022-11-30T14:34:34Z</time>
      </trkpt>
      <trkpt lat="50.04183" lon="2.26299">
        <ele>115.1</ele>
        <time>2022-11-30T14:34:35Z</time>
      </trkpt>
      <trkpt lat="50.04182" lon="2.263">
        <ele>115</ele>
        <time>2022-11-30T14:34:36Z</time>
      </trkpt>
      <trkpt lat="50.04181" lon="2.263">
        <ele>114.9</ele>
        <time>2022-11-30T14:34:37Z</time>
      </trkpt>
      <trkpt lat="50.04179" lon="2.26301">
        <ele>114.8</ele>
        <time>2022-11-30T14:34:38Z</time>
      </trkpt>
      <trkpt lat="50.04178" lon="2.26302">
        <ele>114.7</ele>
        <time>2022-11-30T14:34:39Z</time>
      </trkpt>
      <trkpt lat="50.04176" lon="2.26303">
        <ele>114.6</ele>
        <time>2022-11-30T14:34:40Z</time>
      </trkpt>
      <trkpt lat="50.04175" lon="2.26303">
        <ele>114.5</ele>
        <time>2022-11-30T14:34:42Z</time>
      </trkpt>
      <trkpt lat="50.04173" lon="2.26304">
        <ele>114.4</ele>
        <time>2022-11-30T14:34:43Z</time>
      </trkpt>
      <trkpt lat="50.04172" lon="2.26305">
        <ele>114.3</ele>
        <time>2022-11-30T14:34:44Z</time>
      </trkpt>
      <trkpt lat="50.0417" lon="2.26306">
        <ele>114.2</ele>
        <time>2022-11-30T14:34:45Z</time>
      </trkpt>
      <trkpt lat="50.04169" lon="2.26306">
        <ele>114.1</ele>
        <time>2022-11-30T14:34:46Z</time>
      </trkpt>
      <trkpt lat="50.04168" lon="2.26307">
        <ele>114</ele>
        <time>2022-11-30T14:34:47Z</time>
      </trkpt>
      <trkpt lat="50.04166" lon="2.26308">
        <ele>113.9</ele>
        <time>2022-11-30T14:34:48Z</time>
      </trkpt>
      <trkpt lat="50.04165" lon="2.26309">
        <ele>113.9</ele>
        <time>2022-11-30T14:34:49Z</time>
      </trkpt>
      <trkpt lat="50.04164" lon="2.2631">
        <ele>113.8</ele>
        <time>2022-11-30T14:34:50Z</time>
      </trkpt>
      <trkpt lat="50.04162" lon="2.2631">
        <ele>113.7</ele>
        <time>2022-11-30T14:34:51Z</time>
      </trkpt>
      <trkpt lat="50.04161" lon="2.26311">
        <ele>113.6</ele>
        <time>2022-11-30T14:34:53Z</time>
      </trkpt>
      <trkpt lat="50.04159" lon="2.26312">
        <ele>113.6</ele>
        <time>2022-11-30T14:34:54Z</time>
      </trkpt>
      <trkpt lat="50.04158" lon="2.26312">
        <ele>113.5</ele>
        <time>2022-11-30T14:34:55Z</time>
      </trkpt>
      <trkpt lat="50.04157" lon="2.26313">
        <ele>113.5</ele>
        <time>2022-11-30T14:34:56Z</time>
      </trkpt>
      <trkpt lat="50.04156" lon="2.26313">
        <ele>113.4</ele>
        <time>2022-11-30T14:34:57Z</time>
      </trkpt>
      <trkpt lat="50.04155" lon="2.26313">
        <ele>113.4</ele>
        <time>2022-11-30T14:34:58Z</time>
      </trkpt>
      <trkpt lat="50.04154" lon="2.26314">
        <ele>113.3</ele>
        <time>2022-11-30T14:34:59Z</time>
      </trkpt>
      <trkpt lat="50.04153" lon="2.26314">
        <ele>113.3</ele>
        <time>2022-11-30T14:35:00Z</time>
      </trkpt>
      <trkpt lat="50.04151" lon="2.26314">
        <ele>113.2</ele>
        <time>2022-11-30T14:35:01Z</time>
      </trkpt>
      <trkpt lat="50.0415" lon="2.26315">
        <ele>113.2</ele>
        <time>2022-11-30T14:35:02Z</time>
      </trkpt>
      <trkpt lat="50.04149" lon="2.26315">
        <ele>113.2</ele>
        <time>2022-11-30T14:35:03Z</time>
      </trkpt>
      <trkpt lat="50.04148" lon="2.26316">
        <ele>113.1</ele>
        <time>2022-11-30T14:35:04Z</time>
      </trkpt>
      <trkpt lat="50.04147" lon="2.26316">
        <ele>113.1</ele>
        <time>2022-11-30T14:35:05Z</time>
      </trkpt>
      <trkpt lat="50.04146" lon="2.26317">
        <ele>113</ele>
        <time>2022-11-30T14:35:06Z</time>
      </trkpt>
      <trkpt lat="50.04145" lon="2.26317">
        <ele>113</ele>
        <time>2022-11-30T14:35:08Z</time>
      </trkpt>
      <trkpt lat="50.04144" lon="2.26318">
        <ele>112.9</ele>
        <time>2022-11-30T14:35:09Z</time>
      </trkpt>
      <trkpt lat="50.04142" lon="2.26318">
        <ele>112.9</ele>
        <time>2022-11-30T14:35:10Z</time>
      </trkpt>
      <trkpt lat="50.04141" lon="2.26319">
        <ele>112.8</ele>
        <time>2022-11-30T14:35:11Z</time>
      </trkpt>
      <trkpt lat="50.0414" lon="2.26319">
        <ele>112.8</ele>
        <time>2022-11-30T14:35:12Z</time>
      </trkpt>
      <trkpt lat="50.0414" lon="2.2632">
        <ele>112.8</ele>
        <time>2022-11-30T14:35:13Z</time>
      </trkpt>
      <trkpt lat="50.04139" lon="2.2632">
        <ele>112.8</ele>
        <time>2022-11-30T14:35:14Z</time>
      </trkpt>
      <trkpt lat="50.04138" lon="2.2632">
        <ele>112.7</ele>
        <time>2022-11-30T14:35:15Z</time>
      </trkpt>
      <trkpt lat="50.04137" lon="2.26321">
        <ele>112.7</ele>
        <time>2022-11-30T14:35:16Z</time>
      </trkpt>
      <trkpt lat="50.04135" lon="2.26322">
        <ele>112.6</ele>
        <time>2022-11-30T14:35:18Z</time>
      </trkpt>
      <trkpt lat="50.04134" lon="2.26322">
        <ele>112.6</ele>
        <time>2022-11-30T14:35:19Z</time>
      </trkpt>
      <trkpt lat="50.04133" lon="2.26323">
        <ele>112.5</ele>
        <time>2022-11-30T14:35:20Z</time>
      </trkpt>
      <trkpt lat="50.04132" lon="2.26323">
        <ele>112.5</ele>
        <time>2022-11-30T14:35:21Z</time>
      </trkpt>
      <trkpt lat="50.0413" lon="2.26324">
        <ele>112.4</ele>
        <time>2022-11-30T14:35:22Z</time>
      </trkpt>
      <trkpt lat="50.04129" lon="2.26325">
        <ele>112.4</ele>
        <time>2022-11-30T14:35:23Z</time>
      </trkpt>
      <trkpt lat="50.04128" lon="2.26325">
        <ele>112.3</ele>
        <time>2022-11-30T14:35:24Z</time>
      </trkpt>
      <trkpt lat="50.04126" lon="2.26326">
        <ele>112.2</ele>
        <time>2022-11-30T14:35:25Z</time>
      </trkpt>
      <trkpt lat="50.04125" lon="2.26326">
        <ele>112.2</ele>
        <time>2022-11-30T14:35:26Z</time>
      </trkpt>
      <trkpt lat="50.04124" lon="2.26327">
        <ele>112.1</ele>
        <time>2022-11-30T14:35:27Z</time>
      </trkpt>
      <trkpt lat="50.04123" lon="2.26327">
        <ele>112.1</ele>
        <time>2022-11-30T14:35:28Z</time>
      </trkpt>
      <trkpt lat="50.04121" lon="2.26328">
        <ele>112</ele>
        <time>2022-11-30T14:35:30Z</time>
      </trkpt>
      <trkpt lat="50.0412" lon="2.26328">
        <ele>111.9</ele>
        <time>2022-11-30T14:35:31Z</time>
      </trkpt>
      <trkpt lat="50.04119" lon="2.26329">
        <ele>111.9</ele>
        <time>2022-11-30T14:35:32Z</time>
      </trkpt>
      <trkpt lat="50.04118" lon="2.26329">
        <ele>111.8</ele>
        <time>2022-11-30T14:35:33Z</time>
      </trkpt>
      <trkpt lat="50.04116" lon="2.2633">
        <ele>111.7</ele>
        <time>2022-11-30T14:35:34Z</time>
      </trkpt>
      <trkpt lat="50.04115" lon="2.2633">
        <ele>111.6</ele>
        <time>2022-11-30T14:35:35Z</time>
      </trkpt>
      <trkpt lat="50.04114" lon="2.2633">
        <ele>111.5</ele>
        <time>2022-11-30T14:35:36Z</time>
      </trkpt>
      <trkpt lat="50.04112" lon="2.26332">
        <ele>111.3</ele>
        <time>2022-11-30T14:35:37Z</time>
      </trkpt>
      <trkpt lat="50.04111" lon="2.26332">
        <ele>111.3</ele>
        <time>2022-11-30T14:35:38Z</time>
      </trkpt>
      <trkpt lat="50.0411" lon="2.26333">
        <ele>111.2</ele>
        <time>2022-11-30T14:35:39Z</time>
      </trkpt>
      <trkpt lat="50.04109" lon="2.26333">
        <ele>111.1</ele>
        <time>2022-11-30T14:35:40Z</time>
      </trkpt>
      <trkpt lat="50.04108" lon="2.26334">
        <ele>111</ele>
        <time>2022-11-30T14:35:42Z</time>
      </trkpt>
      <trkpt lat="50.04107" lon="2.26334">
        <ele>110.9</ele>
        <time>2022-11-30T14:35:43Z</time>
      </trkpt>
      <trkpt lat="50.04105" lon="2.26335">
        <ele>110.8</ele>
        <time>2022-11-30T14:35:44Z</time>
      </trkpt>
      <trkpt lat="50.04104" lon="2.26335">
        <ele>110.7</ele>
        <time>2022-11-30T14:35:45Z</time>
      </trkpt>
      <trkpt lat="50.04104" lon="2.26335">
        <ele>110.7</ele>
        <time>2022-11-30T14:35:46Z</time>
      </trkpt>
      <trkpt lat="50.04103" lon="2.26336">
        <ele>110.6</ele>
        <time>2022-11-30T14:35:47Z</time>
      </trkpt>
      <trkpt lat="50.04102" lon="2.26336">
        <ele>110.6</ele>
        <time>2022-11-30T14:35:48Z</time>
      </trkpt>
      <trkpt lat="50.04101" lon="2.26337">
        <ele>110.5</ele>
        <time>2022-11-30T14:35:49Z</time>
      </trkpt>
      <trkpt lat="50.041" lon="2.26337">
        <ele>110.4</ele>
        <time>2022-11-30T14:35:50Z</time>
      </trkpt>
      <trkpt lat="50.04098" lon="2.26338">
        <ele>110.3</ele>
        <time>2022-11-30T14:35:51Z</time>
      </trkpt>
      <trkpt lat="50.04096" lon="2.26339">
        <ele>110.2</ele>
        <time>2022-11-30T14:35:52Z</time>
      </trkpt>
      <trkpt lat="50.04096" lon="2.26339">
        <ele>110.1</ele>
        <time>2022-11-30T14:35:53Z</time>
      </trkpt>
      <trkpt lat="50.04095" lon="2.26339">
        <ele>110.1</ele>
        <time>2022-11-30T14:35:54Z</time>
      </trkpt>
      <trkpt lat="50.04094" lon="2.2634">
        <ele>110</ele>
        <time>2022-11-30T14:35:56Z</time>
      </trkpt>
      <trkpt lat="50.04093" lon="2.26341">
        <ele>109.9</ele>
        <time>2022-11-30T14:35:57Z</time>
      </trkpt>
      <trkpt lat="50.04092" lon="2.26341">
        <ele>109.8</ele>
        <time>2022-11-30T14:35:58Z</time>
      </trkpt>
      <trkpt lat="50.04091" lon="2.26342">
        <ele>109.7</ele>
        <time>2022-11-30T14:35:59Z</time>
      </trkpt>
      <trkpt lat="50.0409" lon="2.26343">
        <ele>109.7</ele>
        <time>2022-11-30T14:36:00Z</time>
      </trkpt>
      <trkpt lat="50.04089" lon="2.26343">
        <ele>109.6</ele>
        <time>2022-11-30T14:36:01Z</time>
      </trkpt>
      <trkpt lat="50.04087" lon="2.26344">
        <ele>109.5</ele>
        <time>2022-11-30T14:36:02Z</time>
      </trkpt>
      <trkpt lat="50.04086" lon="2.26344">
        <ele>109.4</ele>
        <time>2022-11-30T14:36:03Z</time>
      </trkpt>
      <trkpt lat="50.04085" lon="2.26345">
        <ele>109.4</ele>
        <time>2022-11-30T14:36:04Z</time>
      </trkpt>
      <trkpt lat="50.04084" lon="2.26346">
        <ele>109.3</ele>
        <time>2022-11-30T14:36:05Z</time>
      </trkpt>
      <trkpt lat="50.04083" lon="2.26347">
        <ele>109.2</ele>
        <time>2022-11-30T14:36:06Z</time>
      </trkpt>
      <trkpt lat="50.04082" lon="2.26348">
        <ele>109.1</ele>
        <time>2022-11-30T14:36:08Z</time>
      </trkpt>
      <trkpt lat="50.04081" lon="2.26348">
        <ele>109</ele>
        <time>2022-11-30T14:36:09Z</time>
      </trkpt>
      <trkpt lat="50.0408" lon="2.26349">
        <ele>108.9</ele>
        <time>2022-11-30T14:36:10Z</time>
      </trkpt>
      <trkpt lat="50.04079" lon="2.2635">
        <ele>108.8</ele>
        <time>2022-11-30T14:36:11Z</time>
      </trkpt>
      <trkpt lat="50.04077" lon="2.26351">
        <ele>108.7</ele>
        <time>2022-11-30T14:36:12Z</time>
      </trkpt>
      <trkpt lat="50.04076" lon="2.26352">
        <ele>108.6</ele>
        <time>2022-11-30T14:36:13Z</time>
      </trkpt>
      <trkpt lat="50.04075" lon="2.26352">
        <ele>108.5</ele>
        <time>2022-11-30T14:36:15Z</time>
      </trkpt>
      <trkpt lat="50.04074" lon="2.26353">
        <ele>108.5</ele>
        <time>2022-11-30T14:36:16Z</time>
      </trkpt>
      <trkpt lat="50.04073" lon="2.26354">
        <ele>108.4</ele>
        <time>2022-11-30T14:36:17Z</time>
      </trkpt>
      <trkpt lat="50.04072" lon="2.26354">
        <ele>108.3</ele>
        <time>2022-11-30T14:36:18Z</time>
      </trkpt>
      <trkpt lat="50.04071" lon="2.26355">
        <ele>108.2</ele>
        <time>2022-11-30T14:36:19Z</time>
      </trkpt>
      <trkpt lat="50.0407" lon="2.26356">
        <ele>108.1</ele>
        <time>2022-11-30T14:36:20Z</time>
      </trkpt>
      <trkpt lat="50.04069" lon="2.26357">
        <ele>108</ele>
        <time>2022-11-30T14:36:21Z</time>
      </trkpt>
      <trkpt lat="50.04068" lon="2.26358">
        <ele>107.9</ele>
        <time>2022-11-30T14:36:22Z</time>
      </trkpt>
      <trkpt lat="50.04067" lon="2.26359">
        <ele>107.8</ele>
        <time>2022-11-30T14:36:23Z</time>
      </trkpt>
      <trkpt lat="50.04065" lon="2.2636">
        <ele>107.7</ele>
        <time>2022-11-30T14:36:25Z</time>
      </trkpt>
      <trkpt lat="50.04064" lon="2.26361">
        <ele>107.6</ele>
        <time>2022-11-30T14:36:26Z</time>
      </trkpt>
      <trkpt lat="50.04062" lon="2.26362">
        <ele>107.5</ele>
        <time>2022-11-30T14:36:27Z</time>
      </trkpt>
      <trkpt lat="50.04061" lon="2.26362">
        <ele>107.4</ele>
        <time>2022-11-30T14:36:28Z</time>
      </trkpt>
      <trkpt lat="50.0406" lon="2.26362">
        <ele>107.4</ele>
        <time>2022-11-30T14:36:29Z</time>
      </trkpt>
      <trkpt lat="50.04059" lon="2.26363">
        <ele>107.3</ele>
        <time>2022-11-30T14:36:30Z</time>
      </trkpt>
      <trkpt lat="50.04058" lon="2.26364">
        <ele>107.2</ele>
        <time>2022-11-30T14:36:31Z</time>
      </trkpt>
      <trkpt lat="50.04057" lon="2.26365">
        <ele>107.1</ele>
        <time>2022-11-30T14:36:32Z</time>
      </trkpt>
      <trkpt lat="50.04056" lon="2.26367">
        <ele>107</ele>
        <time>2022-11-30T14:36:33Z</time>
      </trkpt>
      <trkpt lat="50.04055" lon="2.26367">
        <ele>106.9</ele>
        <time>2022-11-30T14:36:34Z</time>
      </trkpt>
      <trkpt lat="50.04054" lon="2.26368">
        <ele>106.9</ele>
        <time>2022-11-30T14:36:35Z</time>
      </trkpt>
      <trkpt lat="50.04052" lon="2.2637">
        <ele>106.7</ele>
        <time>2022-11-30T14:36:36Z</time>
      </trkpt>
      <trkpt lat="50.04052" lon="2.26371">
        <ele>106.7</ele>
        <time>2022-11-30T14:36:37Z</time>
      </trkpt>
      <trkpt lat="50.04051" lon="2.26371">
        <ele>106.6</ele>
        <time>2022-11-30T14:36:38Z</time>
      </trkpt>
      <trkpt lat="50.04049" lon="2.26373">
        <ele>106.4</ele>
        <time>2022-11-30T14:36:39Z</time>
      </trkpt>
      <trkpt lat="50.04048" lon="2.26374">
        <ele>106.4</ele>
        <time>2022-11-30T14:36:40Z</time>
      </trkpt>
      <trkpt lat="50.04047" lon="2.26374">
        <ele>106.3</ele>
        <time>2022-11-30T14:36:42Z</time>
      </trkpt>
      <trkpt lat="50.04046" lon="2.26375">
        <ele>106.2</ele>
        <time>2022-11-30T14:36:43Z</time>
      </trkpt>
      <trkpt lat="50.04045" lon="2.26376">
        <ele>106.2</ele>
        <time>2022-11-30T14:36:44Z</time>
      </trkpt>
      <trkpt lat="50.04045" lon="2.26377">
        <ele>106.1</ele>
        <time>2022-11-30T14:36:45Z</time>
      </trkpt>
      <trkpt lat="50.04044" lon="2.26378">
        <ele>106</ele>
        <time>2022-11-30T14:36:46Z</time>
      </trkpt>
      <trkpt lat="50.04043" lon="2.26378">
        <ele>106</ele>
        <time>2022-11-30T14:36:47Z</time>
      </trkpt>
      <trkpt lat="50.04042" lon="2.26379">
        <ele>105.9</ele>
        <time>2022-11-30T14:36:48Z</time>
      </trkpt>
      <trkpt lat="50.0404" lon="2.26381">
        <ele>105.8</ele>
        <time>2022-11-30T14:36:49Z</time>
      </trkpt>
      <trkpt lat="50.0404" lon="2.26382">
        <ele>105.7</ele>
        <time>2022-11-30T14:36:50Z</time>
      </trkpt>
      <trkpt lat="50.04039" lon="2.26383">
        <ele>105.6</ele>
        <time>2022-11-30T14:36:51Z</time>
      </trkpt>
      <trkpt lat="50.04037" lon="2.26385">
        <ele>105.5</ele>
        <time>2022-11-30T14:36:52Z</time>
      </trkpt>
      <trkpt lat="50.04036" lon="2.26386">
        <ele>105.4</ele>
        <time>2022-11-30T14:36:53Z</time>
      </trkpt>
      <trkpt lat="50.04036" lon="2.26386">
        <ele>105.4</ele>
        <time>2022-11-30T14:36:54Z</time>
      </trkpt>
      <trkpt lat="50.04034" lon="2.26387">
        <ele>105.3</ele>
        <time>2022-11-30T14:36:55Z</time>
      </trkpt>
      <trkpt lat="50.04033" lon="2.26388">
        <ele>105.2</ele>
        <time>2022-11-30T14:36:56Z</time>
      </trkpt>
      <trkpt lat="50.04032" lon="2.26389">
        <ele>105.1</ele>
        <time>2022-11-30T14:36:58Z</time>
      </trkpt>
      <trkpt lat="50.0403" lon="2.26391">
        <ele>105</ele>
        <time>2022-11-30T14:36:59Z</time>
      </trkpt>
      <trkpt lat="50.04029" lon="2.26391">
        <ele>104.9</ele>
        <time>2022-11-30T14:37:00Z</time>
      </trkpt>
      <trkpt lat="50.04029" lon="2.26392">
        <ele>104.8</ele>
        <time>2022-11-30T14:37:01Z</time>
      </trkpt>
      <trkpt lat="50.04027" lon="2.26394">
        <ele>104.7</ele>
        <time>2022-11-30T14:37:03Z</time>
      </trkpt>
      <trkpt lat="50.04026" lon="2.26394">
        <ele>104.6</ele>
        <time>2022-11-30T14:37:04Z</time>
      </trkpt>
      <trkpt lat="50.04026" lon="2.26395">
        <ele>104.6</ele>
        <time>2022-11-30T14:37:05Z</time>
      </trkpt>
      <trkpt lat="50.04025" lon="2.26396">
        <ele>104.5</ele>
        <time>2022-11-30T14:37:06Z</time>
      </trkpt>
      <trkpt lat="50.04023" lon="2.26397">
        <ele>104.4</ele>
        <time>2022-11-30T14:37:07Z</time>
      </trkpt>
      <trkpt lat="50.04022" lon="2.26399">
        <ele>104.3</ele>
        <time>2022-11-30T14:37:09Z</time>
      </trkpt>
      <trkpt lat="50.04021" lon="2.264">
        <ele>104.2</ele>
        <time>2022-11-30T14:37:10Z</time>
      </trkpt>
      <trkpt lat="50.04019" lon="2.26401">
        <ele>104.1</ele>
        <time>2022-11-30T14:37:11Z</time>
      </trkpt>
      <trkpt lat="50.04018" lon="2.26403">
        <ele>104</ele>
        <time>2022-11-30T14:37:12Z</time>
      </trkpt>
      <trkpt lat="50.04017" lon="2.26403">
        <ele>103.9</ele>
        <time>2022-11-30T14:37:13Z</time>
      </trkpt>
      <trkpt lat="50.04016" lon="2.26404">
        <ele>103.9</ele>
        <time>2022-11-30T14:37:14Z</time>
      </trkpt>
      <trkpt lat="50.04015" lon="2.26405">
        <ele>103.8</ele>
        <time>2022-11-30T14:37:15Z</time>
      </trkpt>
      <trkpt lat="50.04014" lon="2.26405">
        <ele>103.8</ele>
        <time>2022-11-30T14:37:16Z</time>
      </trkpt>
      <trkpt lat="50.04013" lon="2.26406">
        <ele>103.7</ele>
        <time>2022-11-30T14:37:17Z</time>
      </trkpt>
      <trkpt lat="50.04013" lon="2.26406">
        <ele>103.6</ele>
        <time>2022-11-30T14:37:18Z</time>
      </trkpt>
      <trkpt lat="50.04012" lon="2.26407">
        <ele>103.6</ele>
        <time>2022-11-30T14:37:19Z</time>
      </trkpt>
      <trkpt lat="50.04011" lon="2.26407">
        <ele>103.5</ele>
        <time>2022-11-30T14:37:20Z</time>
      </trkpt>
      <trkpt lat="50.0401" lon="2.26408">
        <ele>103.4</ele>
        <time>2022-11-30T14:37:21Z</time>
      </trkpt>
      <trkpt lat="50.04008" lon="2.26409">
        <ele>103.3</ele>
        <time>2022-11-30T14:37:22Z</time>
      </trkpt>
      <trkpt lat="50.04007" lon="2.26409">
        <ele>103.3</ele>
        <time>2022-11-30T14:37:24Z</time>
      </trkpt>
      <trkpt lat="50.04007" lon="2.2641">
        <ele>103.2</ele>
        <time>2022-11-30T14:37:25Z</time>
      </trkpt>
      <trkpt lat="50.04005" lon="2.26411">
        <ele>103.1</ele>
        <time>2022-11-30T14:37:26Z</time>
      </trkpt>
      <trkpt lat="50.04004" lon="2.26412">
        <ele>103</ele>
        <time>2022-11-30T14:37:27Z</time>
      </trkpt>
      <trkpt lat="50.04003" lon="2.26412">
        <ele>103</ele>
        <time>2022-11-30T14:37:28Z</time>
      </trkpt>
      <trkpt lat="50.04002" lon="2.26413">
        <ele>102.9</ele>
        <time>2022-11-30T14:37:29Z</time>
      </trkpt>
      <trkpt lat="50.04001" lon="2.26414">
        <ele>102.8</ele>
        <time>2022-11-30T14:37:30Z</time>
      </trkpt>
      <trkpt lat="50.04" lon="2.26415">
        <ele>102.7</ele>
        <time>2022-11-30T14:37:31Z</time>
      </trkpt>
      <trkpt lat="50.03999" lon="2.26416">
        <ele>102.6</ele>
        <time>2022-11-30T14:37:32Z</time>
      </trkpt>
      <trkpt lat="50.03998" lon="2.26417">
        <ele>102.6</ele>
        <time>2022-11-30T14:37:33Z</time>
      </trkpt>
      <trkpt lat="50.03997" lon="2.26418">
        <ele>102.5</ele>
        <time>2022-11-30T14:37:34Z</time>
      </trkpt>
      <trkpt lat="50.03996" lon="2.26419">
        <ele>102.4</ele>
        <time>2022-11-30T14:37:35Z</time>
      </trkpt>
      <trkpt lat="50.03996" lon="2.2642">
        <ele>102.3</ele>
        <time>2022-11-30T14:37:36Z</time>
      </trkpt>
      <trkpt lat="50.03995" lon="2.2642">
        <ele>102.3</ele>
        <time>2022-11-30T14:37:37Z</time>
      </trkpt>
      <trkpt lat="50.03994" lon="2.26421">
        <ele>102.2</ele>
        <time>2022-11-30T14:37:39Z</time>
      </trkpt>
      <trkpt lat="50.03993" lon="2.26422">
        <ele>102.1</ele>
        <time>2022-11-30T14:37:40Z</time>
      </trkpt>
      <trkpt lat="50.03992" lon="2.26424">
        <ele>102</ele>
        <time>2022-11-30T14:37:41Z</time>
      </trkpt>
      <trkpt lat="50.03991" lon="2.26425">
        <ele>101.9</ele>
        <time>2022-11-30T14:37:42Z</time>
      </trkpt>
      <trkpt lat="50.03989" lon="2.26427">
        <ele>101.7</ele>
        <time>2022-11-30T14:37:43Z</time>
      </trkpt>
      <trkpt lat="50.03989" lon="2.26427">
        <ele>101.7</ele>
        <time>2022-11-30T14:37:44Z</time>
      </trkpt>
      <trkpt lat="50.03988" lon="2.26428">
        <ele>101.6</ele>
        <time>2022-11-30T14:37:45Z</time>
      </trkpt>
      <trkpt lat="50.03986" lon="2.26429">
        <ele>101.5</ele>
        <time>2022-11-30T14:37:46Z</time>
      </trkpt>
      <trkpt lat="50.03985" lon="2.2643">
        <ele>101.4</ele>
        <time>2022-11-30T14:37:47Z</time>
      </trkpt>
      <trkpt lat="50.03985" lon="2.2643">
        <ele>101.3</ele>
        <time>2022-11-30T14:37:48Z</time>
      </trkpt>
      <trkpt lat="50.03983" lon="2.26432">
        <ele>101.2</ele>
        <time>2022-11-30T14:37:49Z</time>
      </trkpt>
      <trkpt lat="50.03982" lon="2.26433">
        <ele>101.1</ele>
        <time>2022-11-30T14:37:51Z</time>
      </trkpt>
      <trkpt lat="50.03981" lon="2.26434">
        <ele>101</ele>
        <time>2022-11-30T14:37:52Z</time>
      </trkpt>
      <trkpt lat="50.0398" lon="2.26435">
        <ele>100.9</ele>
        <time>2022-11-30T14:37:53Z</time>
      </trkpt>
      <trkpt lat="50.03979" lon="2.26436">
        <ele>100.8</ele>
        <time>2022-11-30T14:37:54Z</time>
      </trkpt>
      <trkpt lat="50.03977" lon="2.26437">
        <ele>100.7</ele>
        <time>2022-11-30T14:37:55Z</time>
      </trkpt>
      <trkpt lat="50.03975" lon="2.26438">
        <ele>100.5</ele>
        <time>2022-11-30T14:37:57Z</time>
      </trkpt>
      <trkpt lat="50.03974" lon="2.2644">
        <ele>100.4</ele>
        <time>2022-11-30T14:37:58Z</time>
      </trkpt>
      <trkpt lat="50.03973" lon="2.26441">
        <ele>100.3</ele>
        <time>2022-11-30T14:37:59Z</time>
      </trkpt>
      <trkpt lat="50.03971" lon="2.26442">
        <ele>100.1</ele>
        <time>2022-11-30T14:38:00Z</time>
      </trkpt>
      <trkpt lat="50.0397" lon="2.26443">
        <ele>100</ele>
        <time>2022-11-30T14:38:01Z</time>
      </trkpt>
      <trkpt lat="50.0397" lon="2.26443">
        <ele>100</ele>
        <time>2022-11-30T14:38:02Z</time>
      </trkpt>
      <trkpt lat="50.03968" lon="2.26444">
        <ele>99.9</ele>
        <time>2022-11-30T14:38:03Z</time>
      </trkpt>
      <trkpt lat="50.03967" lon="2.26445">
        <ele>99.8</ele>
        <time>2022-11-30T14:38:04Z</time>
      </trkpt>
      <trkpt lat="50.03966" lon="2.26445">
        <ele>99.7</ele>
        <time>2022-11-30T14:38:05Z</time>
      </trkpt>
      <trkpt lat="50.03965" lon="2.26446">
        <ele>99.6</ele>
        <time>2022-11-30T14:38:06Z</time>
      </trkpt>
      <trkpt lat="50.03965" lon="2.26446">
        <ele>99.6</ele>
        <time>2022-11-30T14:38:07Z</time>
      </trkpt>
      <trkpt lat="50.03964" lon="2.26447">
        <ele>99.5</ele>
        <time>2022-11-30T14:38:08Z</time>
      </trkpt>
      <trkpt lat="50.03962" lon="2.26448">
        <ele>99.3</ele>
        <time>2022-11-30T14:38:10Z</time>
      </trkpt>
      <trkpt lat="50.03961" lon="2.26448">
        <ele>99.3</ele>
        <time>2022-11-30T14:38:11Z</time>
      </trkpt>
      <trkpt lat="50.0396" lon="2.26449">
        <ele>99.2</ele>
        <time>2022-11-30T14:38:12Z</time>
      </trkpt>
      <trkpt lat="50.03959" lon="2.26449">
        <ele>99.1</ele>
        <time>2022-11-30T14:38:13Z</time>
      </trkpt>
      <trkpt lat="50.03957" lon="2.2645">
        <ele>99</ele>
        <time>2022-11-30T14:38:14Z</time>
      </trkpt>
      <trkpt lat="50.03956" lon="2.26452">
        <ele>98.8</ele>
        <time>2022-11-30T14:38:15Z</time>
      </trkpt>
      <trkpt lat="50.03955" lon="2.26452">
        <ele>98.8</ele>
        <time>2022-11-30T14:38:16Z</time>
      </trkpt>
      <trkpt lat="50.03954" lon="2.26453">
        <ele>98.7</ele>
        <time>2022-11-30T14:38:17Z</time>
      </trkpt>
      <trkpt lat="50.03953" lon="2.26454">
        <ele>98.6</ele>
        <time>2022-11-30T14:38:18Z</time>
      </trkpt>
      <trkpt lat="50.03952" lon="2.26455">
        <ele>98.5</ele>
        <time>2022-11-30T14:38:19Z</time>
      </trkpt>
      <trkpt lat="50.03951" lon="2.26455">
        <ele>98.5</ele>
        <time>2022-11-30T14:38:20Z</time>
      </trkpt>
      <trkpt lat="50.03949" lon="2.26457">
        <ele>98.3</ele>
        <time>2022-11-30T14:38:21Z</time>
      </trkpt>
      <trkpt lat="50.03948" lon="2.26458">
        <ele>98.2</ele>
        <time>2022-11-30T14:38:22Z</time>
      </trkpt>
      <trkpt lat="50.03947" lon="2.26459">
        <ele>98.2</ele>
        <time>2022-11-30T14:38:24Z</time>
      </trkpt>
      <trkpt lat="50.03946" lon="2.26459">
        <ele>98.1</ele>
        <time>2022-11-30T14:38:25Z</time>
      </trkpt>
      <trkpt lat="50.03946" lon="2.2646">
        <ele>98</ele>
        <time>2022-11-30T14:38:26Z</time>
      </trkpt>
      <trkpt lat="50.03945" lon="2.26461">
        <ele>98</ele>
        <time>2022-11-30T14:38:27Z</time>
      </trkpt>
      <trkpt lat="50.03943" lon="2.26462">
        <ele>97.9</ele>
        <time>2022-11-30T14:38:28Z</time>
      </trkpt>
      <trkpt lat="50.03943" lon="2.26463">
        <ele>97.8</ele>
        <time>2022-11-30T14:38:29Z</time>
      </trkpt>
      <trkpt lat="50.03942" lon="2.26463">
        <ele>97.7</ele>
        <time>2022-11-30T14:38:30Z</time>
      </trkpt>
      <trkpt lat="50.0394" lon="2.26464">
        <ele>97.6</ele>
        <time>2022-11-30T14:38:31Z</time>
      </trkpt>
      <trkpt lat="50.03939" lon="2.26465">
        <ele>97.5</ele>
        <time>2022-11-30T14:38:33Z</time>
      </trkpt>
      <trkpt lat="50.03938" lon="2.26465">
        <ele>97.4</ele>
        <time>2022-11-30T14:38:34Z</time>
      </trkpt>
      <trkpt lat="50.03937" lon="2.26466">
        <ele>97.4</ele>
        <time>2022-11-30T14:38:35Z</time>
      </trkpt>
      <trkpt lat="50.03936" lon="2.26467">
        <ele>97.3</ele>
        <time>2022-11-30T14:38:36Z</time>
      </trkpt>
      <trkpt lat="50.03935" lon="2.26467">
        <ele>97.2</ele>
        <time>2022-11-30T14:38:37Z</time>
      </trkpt>
      <trkpt lat="50.03934" lon="2.26468">
        <ele>97.2</ele>
        <time>2022-11-30T14:38:38Z</time>
      </trkpt>
      <trkpt lat="50.03933" lon="2.26469">
        <ele>97.1</ele>
        <time>2022-11-30T14:38:39Z</time>
      </trkpt>
      <trkpt lat="50.03932" lon="2.2647">
        <ele>97</ele>
        <time>2022-11-30T14:38:40Z</time>
      </trkpt>
      <trkpt lat="50.03931" lon="2.26471">
        <ele>96.9</ele>
        <time>2022-11-30T14:38:41Z</time>
      </trkpt>
      <trkpt lat="50.0393" lon="2.26472">
        <ele>96.9</ele>
        <time>2022-11-30T14:38:42Z</time>
      </trkpt>
      <trkpt lat="50.03928" lon="2.26474">
        <ele>96.7</ele>
        <time>2022-11-30T14:38:43Z</time>
      </trkpt>
      <trkpt lat="50.03927" lon="2.26474">
        <ele>96.6</ele>
        <time>2022-11-30T14:38:45Z</time>
      </trkpt>
      <trkpt lat="50.03926" lon="2.26475">
        <ele>96.5</ele>
        <time>2022-11-30T14:38:46Z</time>
      </trkpt>
      <trkpt lat="50.03925" lon="2.26476">
        <ele>96.5</ele>
        <time>2022-11-30T14:38:47Z</time>
      </trkpt>
      <trkpt lat="50.03924" lon="2.26477">
        <ele>96.4</ele>
        <time>2022-11-30T14:38:48Z</time>
      </trkpt>
      <trkpt lat="50.03923" lon="2.26478">
        <ele>96.3</ele>
        <time>2022-11-30T14:38:49Z</time>
      </trkpt>
      <trkpt lat="50.03922" lon="2.26479">
        <ele>96.3</ele>
        <time>2022-11-30T14:38:50Z</time>
      </trkpt>
      <trkpt lat="50.03921" lon="2.2648">
        <ele>96.2</ele>
        <time>2022-11-30T14:38:51Z</time>
      </trkpt>
      <trkpt lat="50.03919" lon="2.26482">
        <ele>96</ele>
        <time>2022-11-30T14:38:52Z</time>
      </trkpt>
      <trkpt lat="50.03919" lon="2.26483">
        <ele>96</ele>
        <time>2022-11-30T14:38:53Z</time>
      </trkpt>
      <trkpt lat="50.03918" lon="2.26483">
        <ele>95.9</ele>
        <time>2022-11-30T14:38:54Z</time>
      </trkpt>
      <trkpt lat="50.03917" lon="2.26484">
        <ele>95.9</ele>
        <time>2022-11-30T14:38:55Z</time>
      </trkpt>
      <trkpt lat="50.03916" lon="2.26485">
        <ele>95.8</ele>
        <time>2022-11-30T14:38:56Z</time>
      </trkpt>
      <trkpt lat="50.03915" lon="2.26486">
        <ele>95.7</ele>
        <time>2022-11-30T14:38:57Z</time>
      </trkpt>
      <trkpt lat="50.03914" lon="2.26488">
        <ele>95.6</ele>
        <time>2022-11-30T14:38:58Z</time>
      </trkpt>
      <trkpt lat="50.03913" lon="2.26489">
        <ele>95.5</ele>
        <time>2022-11-30T14:38:59Z</time>
      </trkpt>
      <trkpt lat="50.03912" lon="2.2649">
        <ele>95.5</ele>
        <time>2022-11-30T14:39:00Z</time>
      </trkpt>
      <trkpt lat="50.0391" lon="2.26491">
        <ele>95.3</ele>
        <time>2022-11-30T14:39:01Z</time>
      </trkpt>
      <trkpt lat="50.0391" lon="2.26492">
        <ele>95.3</ele>
        <time>2022-11-30T14:39:02Z</time>
      </trkpt>
      <trkpt lat="50.03909" lon="2.26493">
        <ele>95.2</ele>
        <time>2022-11-30T14:39:03Z</time>
      </trkpt>
      <trkpt lat="50.03907" lon="2.26494">
        <ele>95.1</ele>
        <time>2022-11-30T14:39:04Z</time>
      </trkpt>
      <trkpt lat="50.03906" lon="2.26494">
        <ele>95</ele>
        <time>2022-11-30T14:39:05Z</time>
      </trkpt>
      <trkpt lat="50.03905" lon="2.26495">
        <ele>94.9</ele>
        <time>2022-11-30T14:39:06Z</time>
      </trkpt>
      <trkpt lat="50.03904" lon="2.26496">
        <ele>94.8</ele>
        <time>2022-11-30T14:39:08Z</time>
      </trkpt>
      <trkpt lat="50.03902" lon="2.26498">
        <ele>94.7</ele>
        <time>2022-11-30T14:39:09Z</time>
      </trkpt>
      <trkpt lat="50.03901" lon="2.26499">
        <ele>94.6</ele>
        <time>2022-11-30T14:39:10Z</time>
      </trkpt>
      <trkpt lat="50.039" lon="2.265">
        <ele>94.5</ele>
        <time>2022-11-30T14:39:11Z</time>
      </trkpt>
      <trkpt lat="50.039" lon="2.26501">
        <ele>94.4</ele>
        <time>2022-11-30T14:39:12Z</time>
      </trkpt>
      <trkpt lat="50.03898" lon="2.26503">
        <ele>94.3</ele>
        <time>2022-11-30T14:39:13Z</time>
      </trkpt>
      <trkpt lat="50.03897" lon="2.26503">
        <ele>94.2</ele>
        <time>2022-11-30T14:39:14Z</time>
      </trkpt>
      <trkpt lat="50.03896" lon="2.26504">
        <ele>94.1</ele>
        <time>2022-11-30T14:39:15Z</time>
      </trkpt>
      <trkpt lat="50.03895" lon="2.26506">
        <ele>94</ele>
        <time>2022-11-30T14:39:16Z</time>
      </trkpt>
      <trkpt lat="50.03894" lon="2.26507">
        <ele>93.9</ele>
        <time>2022-11-30T14:39:17Z</time>
      </trkpt>
      <trkpt lat="50.03893" lon="2.26508">
        <ele>93.8</ele>
        <time>2022-11-30T14:39:18Z</time>
      </trkpt>
      <trkpt lat="50.03892" lon="2.26509">
        <ele>93.7</ele>
        <time>2022-11-30T14:39:19Z</time>
      </trkpt>
      <trkpt lat="50.03892" lon="2.26509">
        <ele>93.7</ele>
        <time>2022-11-30T14:39:20Z</time>
      </trkpt>
      <trkpt lat="50.03891" lon="2.2651">
        <ele>93.6</ele>
        <time>2022-11-30T14:39:21Z</time>
      </trkpt>
      <trkpt lat="50.03889" lon="2.26512">
        <ele>93.4</ele>
        <time>2022-11-30T14:39:22Z</time>
      </trkpt>
      <trkpt lat="50.03888" lon="2.26513">
        <ele>93.4</ele>
        <time>2022-11-30T14:39:23Z</time>
      </trkpt>
      <trkpt lat="50.03887" lon="2.26513">
        <ele>93.3</ele>
        <time>2022-11-30T14:39:24Z</time>
      </trkpt>
      <trkpt lat="50.03886" lon="2.26515">
        <ele>93.1</ele>
        <time>2022-11-30T14:39:25Z</time>
      </trkpt>
      <trkpt lat="50.03885" lon="2.26516">
        <ele>93.1</ele>
        <time>2022-11-30T14:39:27Z</time>
      </trkpt>
      <trkpt lat="50.03884" lon="2.26517">
        <ele>93</ele>
        <time>2022-11-30T14:39:28Z</time>
      </trkpt>
      <trkpt lat="50.03883" lon="2.26518">
        <ele>92.9</ele>
        <time>2022-11-30T14:39:29Z</time>
      </trkpt>
      <trkpt lat="50.03883" lon="2.26518">
        <ele>92.8</ele>
        <time>2022-11-30T14:39:30Z</time>
      </trkpt>
      <trkpt lat="50.03882" lon="2.2652">
        <ele>92.8</ele>
        <time>2022-11-30T14:39:31Z</time>
      </trkpt>
      <trkpt lat="50.03881" lon="2.26521">
        <ele>92.7</ele>
        <time>2022-11-30T14:39:32Z</time>
      </trkpt>
      <trkpt lat="50.03879" lon="2.26522">
        <ele>92.5</ele>
        <time>2022-11-30T14:39:33Z</time>
      </trkpt>
      <trkpt lat="50.03878" lon="2.26523">
        <ele>92.4</ele>
        <time>2022-11-30T14:39:34Z</time>
      </trkpt>
      <trkpt lat="50.03877" lon="2.26524">
        <ele>92.3</ele>
        <time>2022-11-30T14:39:35Z</time>
      </trkpt>
      <trkpt lat="50.03876" lon="2.26525">
        <ele>92.2</ele>
        <time>2022-11-30T14:39:36Z</time>
      </trkpt>
      <trkpt lat="50.03875" lon="2.26526">
        <ele>92.1</ele>
        <time>2022-11-30T14:39:37Z</time>
      </trkpt>
      <trkpt lat="50.03873" lon="2.26528">
        <ele>92</ele>
        <time>2022-11-30T14:39:39Z</time>
      </trkpt>
      <trkpt lat="50.03872" lon="2.26529">
        <ele>91.9</ele>
        <time>2022-11-30T14:39:40Z</time>
      </trkpt>
      <trkpt lat="50.03871" lon="2.2653">
        <ele>91.8</ele>
        <time>2022-11-30T14:39:41Z</time>
      </trkpt>
      <trkpt lat="50.0387" lon="2.26531">
        <ele>91.7</ele>
        <time>2022-11-30T14:39:42Z</time>
      </trkpt>
      <trkpt lat="50.03869" lon="2.26533">
        <ele>91.5</ele>
        <time>2022-11-30T14:39:43Z</time>
      </trkpt>
      <trkpt lat="50.03868" lon="2.26534">
        <ele>91.4</ele>
        <time>2022-11-30T14:39:44Z</time>
      </trkpt>
      <trkpt lat="50.03867" lon="2.26536">
        <ele>91.3</ele>
        <time>2022-11-30T14:39:45Z</time>
      </trkpt>
      <trkpt lat="50.03866" lon="2.26537">
        <ele>91.2</ele>
        <time>2022-11-30T14:39:46Z</time>
      </trkpt>
      <trkpt lat="50.03864" lon="2.26539">
        <ele>91</ele>
        <time>2022-11-30T14:39:47Z</time>
      </trkpt>
      <trkpt lat="50.03864" lon="2.2654">
        <ele>90.9</ele>
        <time>2022-11-30T14:39:48Z</time>
      </trkpt>
      <trkpt lat="50.03862" lon="2.26541">
        <ele>90.7</ele>
        <time>2022-11-30T14:39:49Z</time>
      </trkpt>
      <trkpt lat="50.03861" lon="2.26542">
        <ele>90.6</ele>
        <time>2022-11-30T14:39:51Z</time>
      </trkpt>
      <trkpt lat="50.0386" lon="2.26544">
        <ele>90.5</ele>
        <time>2022-11-30T14:39:52Z</time>
      </trkpt>
      <trkpt lat="50.03859" lon="2.26545">
        <ele>90.3</ele>
        <time>2022-11-30T14:39:53Z</time>
      </trkpt>
      <trkpt lat="50.03858" lon="2.26547">
        <ele>90.2</ele>
        <time>2022-11-30T14:39:54Z</time>
      </trkpt>
      <trkpt lat="50.03857" lon="2.26548">
        <ele>90.1</ele>
        <time>2022-11-30T14:39:55Z</time>
      </trkpt>
      <trkpt lat="50.03856" lon="2.2655">
        <ele>89.9</ele>
        <time>2022-11-30T14:39:56Z</time>
      </trkpt>
      <trkpt lat="50.03855" lon="2.26551">
        <ele>89.8</ele>
        <time>2022-11-30T14:39:57Z</time>
      </trkpt>
      <trkpt lat="50.03854" lon="2.26552">
        <ele>89.7</ele>
        <time>2022-11-30T14:39:58Z</time>
      </trkpt>
      <trkpt lat="50.03853" lon="2.26554">
        <ele>89.6</ele>
        <time>2022-11-30T14:39:59Z</time>
      </trkpt>
      <trkpt lat="50.03851" lon="2.26556">
        <ele>89.4</ele>
        <time>2022-11-30T14:40:01Z</time>
      </trkpt>
      <trkpt lat="50.0385" lon="2.26558">
        <ele>89.2</ele>
        <time>2022-11-30T14:40:02Z</time>
      </trkpt>
      <trkpt lat="50.0385" lon="2.26559">
        <ele>89.1</ele>
        <time>2022-11-30T14:40:03Z</time>
      </trkpt>
      <trkpt lat="50.03849" lon="2.2656">
        <ele>89</ele>
        <time>2022-11-30T14:40:04Z</time>
      </trkpt>
      <trkpt lat="50.03848" lon="2.26563">
        <ele>88.8</ele>
        <time>2022-11-30T14:40:05Z</time>
      </trkpt>
      <trkpt lat="50.03847" lon="2.26564">
        <ele>88.7</ele>
        <time>2022-11-30T14:40:06Z</time>
      </trkpt>
      <trkpt lat="50.03846" lon="2.26565">
        <ele>88.6</ele>
        <time>2022-11-30T14:40:08Z</time>
      </trkpt>
      <trkpt lat="50.03845" lon="2.26566">
        <ele>88.5</ele>
        <time>2022-11-30T14:40:09Z</time>
      </trkpt>
      <trkpt lat="50.03845" lon="2.26567">
        <ele>88.4</ele>
        <time>2022-11-30T14:40:10Z</time>
      </trkpt>
      <trkpt lat="50.03844" lon="2.26568">
        <ele>88.3</ele>
        <time>2022-11-30T14:40:11Z</time>
      </trkpt>
      <trkpt lat="50.03842" lon="2.26571">
        <ele>88.1</ele>
        <time>2022-11-30T14:40:12Z</time>
      </trkpt>
      <trkpt lat="50.03842" lon="2.26572">
        <ele>88</ele>
        <time>2022-11-30T14:40:13Z</time>
      </trkpt>
      <trkpt lat="50.03841" lon="2.26573">
        <ele>87.9</ele>
        <time>2022-11-30T14:40:14Z</time>
      </trkpt>
      <trkpt lat="50.0384" lon="2.26575">
        <ele>87.7</ele>
        <time>2022-11-30T14:40:15Z</time>
      </trkpt>
      <trkpt lat="50.03839" lon="2.26576">
        <ele>87.6</ele>
        <time>2022-11-30T14:40:16Z</time>
      </trkpt>
      <trkpt lat="50.03839" lon="2.26577">
        <ele>87.5</ele>
        <time>2022-11-30T14:40:17Z</time>
      </trkpt>
      <trkpt lat="50.03838" lon="2.26578">
        <ele>87.4</ele>
        <time>2022-11-30T14:40:18Z</time>
      </trkpt>
      <trkpt lat="50.03837" lon="2.2658">
        <ele>87.3</ele>
        <time>2022-11-30T14:40:19Z</time>
      </trkpt>
      <trkpt lat="50.03836" lon="2.26581">
        <ele>87.2</ele>
        <time>2022-11-30T14:40:20Z</time>
      </trkpt>
      <trkpt lat="50.03835" lon="2.26583">
        <ele>86.9</ele>
        <time>2022-11-30T14:40:21Z</time>
      </trkpt>
      <trkpt lat="50.03834" lon="2.26584">
        <ele>86.8</ele>
        <time>2022-11-30T14:40:22Z</time>
      </trkpt>
      <trkpt lat="50.03834" lon="2.26585">
        <ele>86.7</ele>
        <time>2022-11-30T14:40:23Z</time>
      </trkpt>
      <trkpt lat="50.03832" lon="2.26588">
        <ele>86.5</ele>
        <time>2022-11-30T14:40:24Z</time>
      </trkpt>
      <trkpt lat="50.03831" lon="2.26589">
        <ele>86.4</ele>
        <time>2022-11-30T14:40:26Z</time>
      </trkpt>
      <trkpt lat="50.03831" lon="2.2659">
        <ele>86.2</ele>
        <time>2022-11-30T14:40:27Z</time>
      </trkpt>
      <trkpt lat="50.0383" lon="2.26592">
        <ele>86.1</ele>
        <time>2022-11-30T14:40:28Z</time>
      </trkpt>
      <trkpt lat="50.03829" lon="2.26593">
        <ele>86</ele>
        <time>2022-11-30T14:40:29Z</time>
      </trkpt>
      <trkpt lat="50.03828" lon="2.26596">
        <ele>85.8</ele>
        <time>2022-11-30T14:40:30Z</time>
      </trkpt>
      <trkpt lat="50.03828" lon="2.26597">
        <ele>85.7</ele>
        <time>2022-11-30T14:40:31Z</time>
      </trkpt>
      <trkpt lat="50.03828" lon="2.26598">
        <ele>85.6</ele>
        <time>2022-11-30T14:40:32Z</time>
      </trkpt>
      <trkpt lat="50.03827" lon="2.266">
        <ele>85.4</ele>
        <time>2022-11-30T14:40:33Z</time>
      </trkpt>
      <trkpt lat="50.03826" lon="2.26602">
        <ele>85.3</ele>
        <time>2022-11-30T14:40:34Z</time>
      </trkpt>
      <trkpt lat="50.03826" lon="2.26604">
        <ele>85.1</ele>
        <time>2022-11-30T14:40:36Z</time>
      </trkpt>
      <trkpt lat="50.03825" lon="2.26606">
        <ele>84.9</ele>
        <time>2022-11-30T14:40:37Z</time>
      </trkpt>
      <trkpt lat="50.03824" lon="2.26608">
        <ele>84.8</ele>
        <time>2022-11-30T14:40:38Z</time>
      </trkpt>
      <trkpt lat="50.03824" lon="2.2661">
        <ele>84.6</ele>
        <time>2022-11-30T14:40:39Z</time>
      </trkpt>
      <trkpt lat="50.03823" lon="2.26612">
        <ele>84.5</ele>
        <time>2022-11-30T14:40:40Z</time>
      </trkpt>
      <trkpt lat="50.03822" lon="2.26614">
        <ele>84.3</ele>
        <time>2022-11-30T14:40:42Z</time>
      </trkpt>
      <trkpt lat="50.03822" lon="2.26616">
        <ele>84.2</ele>
        <time>2022-11-30T14:40:43Z</time>
      </trkpt>
      <trkpt lat="50.03821" lon="2.26618">
        <ele>84</ele>
        <time>2022-11-30T14:40:44Z</time>
      </trkpt>
      <trkpt lat="50.03821" lon="2.2662">
        <ele>83.9</ele>
        <time>2022-11-30T14:40:45Z</time>
      </trkpt>
      <trkpt lat="50.0382" lon="2.26622">
        <ele>83.7</ele>
        <time>2022-11-30T14:40:46Z</time>
      </trkpt>
      <trkpt lat="50.03819" lon="2.26625">
        <ele>83.6</ele>
        <time>2022-11-30T14:40:47Z</time>
      </trkpt>
      <trkpt lat="50.03819" lon="2.26626">
        <ele>83.5</ele>
        <time>2022-11-30T14:40:48Z</time>
      </trkpt>
      <trkpt lat="50.03819" lon="2.26628">
        <ele>83.4</ele>
        <time>2022-11-30T14:40:49Z</time>
      </trkpt>
      <trkpt lat="50.03818" lon="2.2663">
        <ele>83.3</ele>
        <time>2022-11-30T14:40:50Z</time>
      </trkpt>
      <trkpt lat="50.03817" lon="2.26633">
        <ele>83.1</ele>
        <time>2022-11-30T14:40:51Z</time>
      </trkpt>
      <trkpt lat="50.03817" lon="2.26634">
        <ele>83</ele>
        <time>2022-11-30T14:40:52Z</time>
      </trkpt>
      <trkpt lat="50.03817" lon="2.26636">
        <ele>82.9</ele>
        <time>2022-11-30T14:40:53Z</time>
      </trkpt>
      <trkpt lat="50.03816" lon="2.26637">
        <ele>82.8</ele>
        <time>2022-11-30T14:40:54Z</time>
      </trkpt>
      <trkpt lat="50.03816" lon="2.26639">
        <ele>82.7</ele>
        <time>2022-11-30T14:40:55Z</time>
      </trkpt>
      <trkpt lat="50.03816" lon="2.26641">
        <ele>82.6</ele>
        <time>2022-11-30T14:40:56Z</time>
      </trkpt>
      <trkpt lat="50.03815" lon="2.26643">
        <ele>82.5</ele>
        <time>2022-11-30T14:40:57Z</time>
      </trkpt>
      <trkpt lat="50.03815" lon="2.26644">
        <ele>82.4</ele>
        <time>2022-11-30T14:40:58Z</time>
      </trkpt>
      <trkpt lat="50.03815" lon="2.26646">
        <ele>82.3</ele>
        <time>2022-11-30T14:40:59Z</time>
      </trkpt>
      <trkpt lat="50.03814" lon="2.26648">
        <ele>82.2</ele>
        <time>2022-11-30T14:41:00Z</time>
      </trkpt>
      <trkpt lat="50.03814" lon="2.26649">
        <ele>82.1</ele>
        <time>2022-11-30T14:41:01Z</time>
      </trkpt>
      <trkpt lat="50.03813" lon="2.26651">
        <ele>82</ele>
        <time>2022-11-30T14:41:02Z</time>
      </trkpt>
      <trkpt lat="50.03812" lon="2.26655">
        <ele>81.8</ele>
        <time>2022-11-30T14:41:04Z</time>
      </trkpt>
      <trkpt lat="50.03811" lon="2.26657">
        <ele>81.6</ele>
        <time>2022-11-30T14:41:06Z</time>
      </trkpt>
      <trkpt lat="50.03811" lon="2.26659">
        <ele>81.5</ele>
        <time>2022-11-30T14:41:07Z</time>
      </trkpt>
      <trkpt lat="50.0381" lon="2.26662">
        <ele>81.4</ele>
        <time>2022-11-30T14:41:08Z</time>
      </trkpt>
      <trkpt lat="50.0381" lon="2.26663">
        <ele>81.3</ele>
        <time>2022-11-30T14:41:09Z</time>
      </trkpt>
      <trkpt lat="50.03809" lon="2.26664">
        <ele>81.2</ele>
        <time>2022-11-30T14:41:10Z</time>
      </trkpt>
      <trkpt lat="50.03808" lon="2.26666">
        <ele>81.1</ele>
        <time>2022-11-30T14:41:11Z</time>
      </trkpt>
      <trkpt lat="50.03807" lon="2.26668">
        <ele>81</ele>
        <time>2022-11-30T14:41:12Z</time>
      </trkpt>
      <trkpt lat="50.03807" lon="2.26669">
        <ele>80.9</ele>
        <time>2022-11-30T14:41:13Z</time>
      </trkpt>
      <trkpt lat="50.03806" lon="2.2667">
        <ele>80.9</ele>
        <time>2022-11-30T14:41:14Z</time>
      </trkpt>
      <trkpt lat="50.03806" lon="2.26672">
        <ele>80.8</ele>
        <time>2022-11-30T14:41:15Z</time>
      </trkpt>
      <trkpt lat="50.03805" lon="2.26673">
        <ele>80.7</ele>
        <time>2022-11-30T14:41:16Z</time>
      </trkpt>
      <trkpt lat="50.03803" lon="2.26676">
        <ele>80.4</ele>
        <time>2022-11-30T14:41:17Z</time>
      </trkpt>
      <trkpt lat="50.03803" lon="2.26678">
        <ele>80.4</ele>
        <time>2022-11-30T14:41:18Z</time>
      </trkpt>
      <trkpt lat="50.03801" lon="2.26681">
        <ele>80.1</ele>
        <time>2022-11-30T14:41:20Z</time>
      </trkpt>
      <trkpt lat="50.03801" lon="2.26681">
        <ele>80.1</ele>
        <time>2022-11-30T14:41:21Z</time>
      </trkpt>
      <trkpt lat="50.038" lon="2.26682">
        <ele>80</ele>
        <time>2022-11-30T14:41:22Z</time>
      </trkpt>
      <trkpt lat="50.03799" lon="2.26683">
        <ele>79.9</ele>
        <time>2022-11-30T14:41:23Z</time>
      </trkpt>
      <trkpt lat="50.03799" lon="2.26685">
        <ele>79.8</ele>
        <time>2022-11-30T14:41:24Z</time>
      </trkpt>
      <trkpt lat="50.03798" lon="2.26686">
        <ele>79.7</ele>
        <time>2022-11-30T14:41:25Z</time>
      </trkpt>
      <trkpt lat="50.03797" lon="2.26687">
        <ele>79.6</ele>
        <time>2022-11-30T14:41:26Z</time>
      </trkpt>
      <trkpt lat="50.03796" lon="2.26688">
        <ele>79.5</ele>
        <time>2022-11-30T14:41:27Z</time>
      </trkpt>
      <trkpt lat="50.03795" lon="2.2669">
        <ele>79.4</ele>
        <time>2022-11-30T14:41:28Z</time>
      </trkpt>
      <trkpt lat="50.03794" lon="2.26692">
        <ele>79.2</ele>
        <time>2022-11-30T14:41:29Z</time>
      </trkpt>
      <trkpt lat="50.03793" lon="2.26693">
        <ele>79.1</ele>
        <time>2022-11-30T14:41:30Z</time>
      </trkpt>
      <trkpt lat="50.03792" lon="2.26694">
        <ele>79</ele>
        <time>2022-11-30T14:41:31Z</time>
      </trkpt>
      <trkpt lat="50.03791" lon="2.26696">
        <ele>78.9</ele>
        <time>2022-11-30T14:41:32Z</time>
      </trkpt>
      <trkpt lat="50.0379" lon="2.26696">
        <ele>78.8</ele>
        <time>2022-11-30T14:41:33Z</time>
      </trkpt>
      <trkpt lat="50.03789" lon="2.26697">
        <ele>78.7</ele>
        <time>2022-11-30T14:41:34Z</time>
      </trkpt>
      <trkpt lat="50.03788" lon="2.26698">
        <ele>78.6</ele>
        <time>2022-11-30T14:41:35Z</time>
      </trkpt>
      <trkpt lat="50.03787" lon="2.267">
        <ele>78.4</ele>
        <time>2022-11-30T14:41:36Z</time>
      </trkpt>
      <trkpt lat="50.03785" lon="2.26701">
        <ele>78.3</ele>
        <time>2022-11-30T14:41:37Z</time>
      </trkpt>
      <trkpt lat="50.03785" lon="2.26702">
        <ele>78.2</ele>
        <time>2022-11-30T14:41:38Z</time>
      </trkpt>
      <trkpt lat="50.03784" lon="2.26702">
        <ele>78.1</ele>
        <time>2022-11-30T14:41:39Z</time>
      </trkpt>
      <trkpt lat="50.03782" lon="2.26704">
        <ele>77.9</ele>
        <time>2022-11-30T14:41:40Z</time>
      </trkpt>
      <trkpt lat="50.03781" lon="2.26705">
        <ele>77.8</ele>
        <time>2022-11-30T14:41:41Z</time>
      </trkpt>
      <trkpt lat="50.0378" lon="2.26705">
        <ele>77.7</ele>
        <time>2022-11-30T14:41:42Z</time>
      </trkpt>
      <trkpt lat="50.03779" lon="2.26707">
        <ele>77.6</ele>
        <time>2022-11-30T14:41:43Z</time>
      </trkpt>
      <trkpt lat="50.03777" lon="2.26708">
        <ele>77.4</ele>
        <time>2022-11-30T14:41:45Z</time>
      </trkpt>
      <trkpt lat="50.03776" lon="2.26709">
        <ele>77.3</ele>
        <time>2022-11-30T14:41:46Z</time>
      </trkpt>
      <trkpt lat="50.03775" lon="2.2671">
        <ele>77.1</ele>
        <time>2022-11-30T14:41:47Z</time>
      </trkpt>
      <trkpt lat="50.03774" lon="2.26711">
        <ele>77</ele>
        <time>2022-11-30T14:41:48Z</time>
      </trkpt>
      <trkpt lat="50.03772" lon="2.26712">
        <ele>76.9</ele>
        <time>2022-11-30T14:41:49Z</time>
      </trkpt>
      <trkpt lat="50.03771" lon="2.26713">
        <ele>76.7</ele>
        <time>2022-11-30T14:41:50Z</time>
      </trkpt>
      <trkpt lat="50.0377" lon="2.26714">
        <ele>76.6</ele>
        <time>2022-11-30T14:41:51Z</time>
      </trkpt>
      <trkpt lat="50.03769" lon="2.26715">
        <ele>76.5</ele>
        <time>2022-11-30T14:41:52Z</time>
      </trkpt>
      <trkpt lat="50.03768" lon="2.26716">
        <ele>76.4</ele>
        <time>2022-11-30T14:41:53Z</time>
      </trkpt>
      <trkpt lat="50.03767" lon="2.26716">
        <ele>76.3</ele>
        <time>2022-11-30T14:41:54Z</time>
      </trkpt>
      <trkpt lat="50.03765" lon="2.26717">
        <ele>76.2</ele>
        <time>2022-11-30T14:41:55Z</time>
      </trkpt>
      <trkpt lat="50.03764" lon="2.26718">
        <ele>76</ele>
        <time>2022-11-30T14:41:56Z</time>
      </trkpt>
      <trkpt lat="50.03762" lon="2.26719">
        <ele>75.9</ele>
        <time>2022-11-30T14:41:57Z</time>
      </trkpt>
      <trkpt lat="50.03761" lon="2.26719">
        <ele>75.8</ele>
        <time>2022-11-30T14:41:58Z</time>
      </trkpt>
      <trkpt lat="50.0376" lon="2.2672">
        <ele>75.7</ele>
        <time>2022-11-30T14:41:59Z</time>
      </trkpt>
      <trkpt lat="50.03759" lon="2.26721">
        <ele>75.6</ele>
        <time>2022-11-30T14:42:00Z</time>
      </trkpt>
      <trkpt lat="50.03758" lon="2.26722">
        <ele>75.5</ele>
        <time>2022-11-30T14:42:01Z</time>
      </trkpt>
      <trkpt lat="50.03756" lon="2.26723">
        <ele>75.3</ele>
        <time>2022-11-30T14:42:02Z</time>
      </trkpt>
      <trkpt lat="50.03755" lon="2.26723">
        <ele>75.2</ele>
        <time>2022-11-30T14:42:03Z</time>
      </trkpt>
      <trkpt lat="50.03754" lon="2.26724">
        <ele>75.2</ele>
        <time>2022-11-30T14:42:04Z</time>
      </trkpt>
      <trkpt lat="50.03752" lon="2.26725">
        <ele>75</ele>
        <time>2022-11-30T14:42:05Z</time>
      </trkpt>
      <trkpt lat="50.03751" lon="2.26725">
        <ele>74.9</ele>
        <time>2022-11-30T14:42:06Z</time>
      </trkpt>
      <trkpt lat="50.0375" lon="2.26726">
        <ele>74.8</ele>
        <time>2022-11-30T14:42:08Z</time>
      </trkpt>
      <trkpt lat="50.03748" lon="2.26727">
        <ele>74.7</ele>
        <time>2022-11-30T14:42:09Z</time>
      </trkpt>
      <trkpt lat="50.03746" lon="2.26728">
        <ele>74.6</ele>
        <time>2022-11-30T14:42:10Z</time>
      </trkpt>
      <trkpt lat="50.03745" lon="2.26728">
        <ele>74.5</ele>
        <time>2022-11-30T14:42:11Z</time>
      </trkpt>
      <trkpt lat="50.03745" lon="2.26729">
        <ele>74.4</ele>
        <time>2022-11-30T14:42:12Z</time>
      </trkpt>
      <trkpt lat="50.03744" lon="2.26729">
        <ele>74.4</ele>
        <time>2022-11-30T14:42:13Z</time>
      </trkpt>
      <trkpt lat="50.03742" lon="2.2673">
        <ele>74.3</ele>
        <time>2022-11-30T14:42:14Z</time>
      </trkpt>
      <trkpt lat="50.03741" lon="2.2673">
        <ele>74.2</ele>
        <time>2022-11-30T14:42:15Z</time>
      </trkpt>
      <trkpt lat="50.03739" lon="2.26731">
        <ele>74.1</ele>
        <time>2022-11-30T14:42:16Z</time>
      </trkpt>
      <trkpt lat="50.03738" lon="2.26731">
        <ele>74</ele>
        <time>2022-11-30T14:42:18Z</time>
      </trkpt>
      <trkpt lat="50.03737" lon="2.26732">
        <ele>73.9</ele>
        <time>2022-11-30T14:42:19Z</time>
      </trkpt>
      <trkpt lat="50.03735" lon="2.26732">
        <ele>73.9</ele>
        <time>2022-11-30T14:42:20Z</time>
      </trkpt>
      <trkpt lat="50.03734" lon="2.26732">
        <ele>73.8</ele>
        <time>2022-11-30T14:42:21Z</time>
      </trkpt>
      <trkpt lat="50.03733" lon="2.26733">
        <ele>73.7</ele>
        <time>2022-11-30T14:42:22Z</time>
      </trkpt>
      <trkpt lat="50.03732" lon="2.26733">
        <ele>73.7</ele>
        <time>2022-11-30T14:42:23Z</time>
      </trkpt>
      <trkpt lat="50.0373" lon="2.26734">
        <ele>73.6</ele>
        <time>2022-11-30T14:42:24Z</time>
      </trkpt>
      <trkpt lat="50.03729" lon="2.26735">
        <ele>73.5</ele>
        <time>2022-11-30T14:42:25Z</time>
      </trkpt>
      <trkpt lat="50.03729" lon="2.26735">
        <ele>73.5</ele>
        <time>2022-11-30T14:42:26Z</time>
      </trkpt>
      <trkpt lat="50.03727" lon="2.26736">
        <ele>73.4</ele>
        <time>2022-11-30T14:42:27Z</time>
      </trkpt>
      <trkpt lat="50.03726" lon="2.26737">
        <ele>73.3</ele>
        <time>2022-11-30T14:42:28Z</time>
      </trkpt>
      <trkpt lat="50.03724" lon="2.26738">
        <ele>73.2</ele>
        <time>2022-11-30T14:42:29Z</time>
      </trkpt>
      <trkpt lat="50.03723" lon="2.26739">
        <ele>73.2</ele>
        <time>2022-11-30T14:42:30Z</time>
      </trkpt>
      <trkpt lat="50.03721" lon="2.2674">
        <ele>73.1</ele>
        <time>2022-11-30T14:42:32Z</time>
      </trkpt>
      <trkpt lat="50.0372" lon="2.26741">
        <ele>73</ele>
        <time>2022-11-30T14:42:33Z</time>
      </trkpt>
      <trkpt lat="50.03718" lon="2.26742">
        <ele>72.9</ele>
        <time>2022-11-30T14:42:34Z</time>
      </trkpt>
      <trkpt lat="50.03717" lon="2.26742">
        <ele>72.9</ele>
        <time>2022-11-30T14:42:35Z</time>
      </trkpt>
      <trkpt lat="50.03716" lon="2.26743">
        <ele>72.8</ele>
        <time>2022-11-30T14:42:36Z</time>
      </trkpt>
      <trkpt lat="50.03714" lon="2.26744">
        <ele>72.7</ele>
        <time>2022-11-30T14:42:37Z</time>
      </trkpt>
      <trkpt lat="50.03713" lon="2.26744">
        <ele>72.6</ele>
        <time>2022-11-30T14:42:38Z</time>
      </trkpt>
      <trkpt lat="50.03712" lon="2.26745">
        <ele>72.6</ele>
        <time>2022-11-30T14:42:39Z</time>
      </trkpt>
      <trkpt lat="50.03711" lon="2.26746">
        <ele>72.5</ele>
        <time>2022-11-30T14:42:40Z</time>
      </trkpt>
      <trkpt lat="50.0371" lon="2.26747">
        <ele>72.5</ele>
        <time>2022-11-30T14:42:41Z</time>
      </trkpt>
      <trkpt lat="50.03709" lon="2.26748">
        <ele>72.4</ele>
        <time>2022-11-30T14:42:43Z</time>
      </trkpt>
      <trkpt lat="50.03708" lon="2.26749">
        <ele>72.4</ele>
        <time>2022-11-30T14:42:44Z</time>
      </trkpt>
      <trkpt lat="50.03706" lon="2.2675">
        <ele>72.3</ele>
        <time>2022-11-30T14:42:45Z</time>
      </trkpt>
      <trkpt lat="50.03704" lon="2.26751">
        <ele>72.2</ele>
        <time>2022-11-30T14:42:46Z</time>
      </trkpt>
      <trkpt lat="50.03704" lon="2.26751">
        <ele>72.2</ele>
        <time>2022-11-30T14:42:47Z</time>
      </trkpt>
      <trkpt lat="50.03703" lon="2.26752">
        <ele>72.2</ele>
        <time>2022-11-30T14:42:48Z</time>
      </trkpt>
      <trkpt lat="50.03701" lon="2.26754">
        <ele>72.1</ele>
        <time>2022-11-30T14:42:49Z</time>
      </trkpt>
      <trkpt lat="50.037" lon="2.26754">
        <ele>72.1</ele>
        <time>2022-11-30T14:42:50Z</time>
      </trkpt>
      <trkpt lat="50.037" lon="2.26754">
        <ele>72</ele>
        <time>2022-11-30T14:42:51Z</time>
      </trkpt>
      <trkpt lat="50.03698" lon="2.26756">
        <ele>72</ele>
        <time>2022-11-30T14:42:52Z</time>
      </trkpt>
      <trkpt lat="50.03697" lon="2.26756">
        <ele>71.9</ele>
        <time>2022-11-30T14:42:53Z</time>
      </trkpt>
      <trkpt lat="50.03696" lon="2.26756">
        <ele>71.9</ele>
        <time>2022-11-30T14:42:54Z</time>
      </trkpt>
      <trkpt lat="50.03695" lon="2.26757">
        <ele>71.8</ele>
        <time>2022-11-30T14:42:55Z</time>
      </trkpt>
      <trkpt lat="50.03694" lon="2.26758">
        <ele>71.8</ele>
        <time>2022-11-30T14:42:56Z</time>
      </trkpt>
      <trkpt lat="50.03691" lon="2.26759">
        <ele>71.7</ele>
        <time>2022-11-30T14:42:57Z</time>
      </trkpt>
      <trkpt lat="50.03691" lon="2.26759">
        <ele>71.7</ele>
        <time>2022-11-30T14:42:58Z</time>
      </trkpt>
      <trkpt lat="50.0369" lon="2.2676">
        <ele>71.7</ele>
        <time>2022-11-30T14:42:59Z</time>
      </trkpt>
      <trkpt lat="50.03688" lon="2.26761">
        <ele>71.6</ele>
        <time>2022-11-30T14:43:00Z</time>
      </trkpt>
      <trkpt lat="50.03687" lon="2.26762">
        <ele>71.6</ele>
        <time>2022-11-30T14:43:01Z</time>
      </trkpt>
      <trkpt lat="50.03686" lon="2.26762">
        <ele>71.6</ele>
        <time>2022-11-30T14:43:02Z</time>
      </trkpt>
      <trkpt lat="50.03685" lon="2.26763">
        <ele>71.5</ele>
        <time>2022-11-30T14:43:03Z</time>
      </trkpt>
      <trkpt lat="50.03683" lon="2.26764">
        <ele>71.5</ele>
        <time>2022-11-30T14:43:04Z</time>
      </trkpt>
      <trkpt lat="50.03682" lon="2.26764">
        <ele>71.5</ele>
        <time>2022-11-30T14:43:05Z</time>
      </trkpt>
      <trkpt lat="50.0368" lon="2.26766">
        <ele>71.4</ele>
        <time>2022-11-30T14:43:07Z</time>
      </trkpt>
      <trkpt lat="50.03679" lon="2.26766">
        <ele>71.4</ele>
        <time>2022-11-30T14:43:08Z</time>
      </trkpt>
      <trkpt lat="50.03678" lon="2.26767">
        <ele>71.4</ele>
        <time>2022-11-30T14:43:09Z</time>
      </trkpt>
      <trkpt lat="50.03676" lon="2.26768">
        <ele>71.3</ele>
        <time>2022-11-30T14:43:10Z</time>
      </trkpt>
      <trkpt lat="50.03675" lon="2.26769">
        <ele>71.3</ele>
        <time>2022-11-30T14:43:11Z</time>
      </trkpt>
      <trkpt lat="50.03673" lon="2.2677">
        <ele>71.3</ele>
        <time>2022-11-30T14:43:12Z</time>
      </trkpt>
      <trkpt lat="50.03672" lon="2.2677">
        <ele>71.2</ele>
        <time>2022-11-30T14:43:13Z</time>
      </trkpt>
      <trkpt lat="50.03672" lon="2.26771">
        <ele>71.2</ele>
        <time>2022-11-30T14:43:14Z</time>
      </trkpt>
      <trkpt lat="50.0367" lon="2.26772">
        <ele>71.2</ele>
        <time>2022-11-30T14:43:15Z</time>
      </trkpt>
      <trkpt lat="50.03669" lon="2.26773">
        <ele>71.2</ele>
        <time>2022-11-30T14:43:16Z</time>
      </trkpt>
      <trkpt lat="50.03668" lon="2.26773">
        <ele>71.2</ele>
        <time>2022-11-30T14:43:17Z</time>
      </trkpt>
      <trkpt lat="50.03667" lon="2.26774">
        <ele>71.2</ele>
        <time>2022-11-30T14:43:18Z</time>
      </trkpt>
      <trkpt lat="50.03665" lon="2.26775">
        <ele>71.2</ele>
        <time>2022-11-30T14:43:19Z</time>
      </trkpt>
      <trkpt lat="50.03664" lon="2.26776">
        <ele>71.1</ele>
        <time>2022-11-30T14:43:21Z</time>
      </trkpt>
      <trkpt lat="50.03663" lon="2.26777">
        <ele>71.1</ele>
        <time>2022-11-30T14:43:22Z</time>
      </trkpt>
      <trkpt lat="50.03662" lon="2.26778">
        <ele>71.1</ele>
        <time>2022-11-30T14:43:23Z</time>
      </trkpt>
      <trkpt lat="50.03661" lon="2.26779">
        <ele>71.1</ele>
        <time>2022-11-30T14:43:24Z</time>
      </trkpt>
      <trkpt lat="50.03661" lon="2.2678">
        <ele>71.1</ele>
        <time>2022-11-30T14:43:25Z</time>
      </trkpt>
      <trkpt lat="50.03659" lon="2.26781">
        <ele>71.1</ele>
        <time>2022-11-30T14:43:26Z</time>
      </trkpt>
      <trkpt lat="50.03658" lon="2.26782">
        <ele>71.1</ele>
        <time>2022-11-30T14:43:28Z</time>
      </trkpt>
      <trkpt lat="50.03657" lon="2.26782">
        <ele>71.1</ele>
        <time>2022-11-30T14:43:29Z</time>
      </trkpt>
      <trkpt lat="50.03656" lon="2.26782">
        <ele>71.1</ele>
        <time>2022-11-30T14:43:30Z</time>
      </trkpt>
      <trkpt lat="50.03655" lon="2.26783">
        <ele>71.1</ele>
        <time>2022-11-30T14:43:31Z</time>
      </trkpt>
      <trkpt lat="50.03654" lon="2.26784">
        <ele>71.1</ele>
        <time>2022-11-30T14:43:33Z</time>
      </trkpt>
      <trkpt lat="50.03654" lon="2.26784">
        <ele>71.1</ele>
        <time>2022-11-30T14:43:34Z</time>
      </trkpt>
      <trkpt lat="50.03654" lon="2.26784">
        <ele>71.1</ele>
        <time>2022-11-30T14:43:35Z</time>
      </trkpt>
      <trkpt lat="50.03654" lon="2.26784">
        <ele>71.1</ele>
        <time>2022-11-30T14:43:36Z</time>
      </trkpt>
      <trkpt lat="50.03654" lon="2.26784">
        <ele>71.1</ele>
        <time>2022-11-30T14:43:37Z</time>
      </trkpt>
      <trkpt lat="50.03654" lon="2.26783">
        <ele>71.1</ele>
        <time>2022-11-30T14:43:38Z</time>
      </trkpt>
      <trkpt lat="50.03654" lon="2.26783">
        <ele>71.1</ele>
        <time>2022-11-30T14:43:39Z</time>
      </trkpt>
      <trkpt lat="50.03654" lon="2.26783">
        <ele>71.1</ele>
        <time>2022-11-30T14:43:40Z</time>
      </trkpt>
      <trkpt lat="50.03654" lon="2.26783">
        <ele>71.1</ele>
        <time>2022-11-30T14:43:41Z</time>
      </trkpt>
      <trkpt lat="50.03655" lon="2.26783">
        <ele>71.1</ele>
        <time>2022-11-30T14:43:42Z</time>
      </trkpt>
      <trkpt lat="50.03655" lon="2.26783">
        <ele>71.1</ele>
        <time>2022-11-30T14:43:43Z</time>
      </trkpt>
      <trkpt lat="50.03655" lon="2.26783">
        <ele>71.1</ele>
        <time>2022-11-30T14:43:44Z</time>
      </trkpt>
      <trkpt lat="50.03655" lon="2.26783">
        <ele>71.1</ele>
        <time>2022-11-30T14:43:45Z</time>
      </trkpt>
      <trkpt lat="50.03655" lon="2.26783">
        <ele>71.1</ele>
        <time>2022-11-30T14:43:46Z</time>
      </trkpt>
      <trkpt lat="50.03655" lon="2.26783">
        <ele>71.1</ele>
        <time>2022-11-30T14:43:47Z</time>
      </trkpt>
      <trkpt lat="50.03655" lon="2.26783">
        <ele>71.1</ele>
        <time>2022-11-30T14:43:48Z</time>
      </trkpt>
      <trkpt lat="50.03655" lon="2.26783">
        <ele>71.1</ele>
        <time>2022-11-30T14:43:49Z</time>
      </trkpt>
      <trkpt lat="50.03655" lon="2.26782">
        <ele>71.1</ele>
        <time>2022-11-30T14:43:50Z</time>
      </trkpt>
      <trkpt lat="50.03655" lon="2.26782">
        <ele>71.1</ele>
        <time>2022-11-30T14:43:51Z</time>
      </trkpt>
      <trkpt lat="50.03655" lon="2.26782">
        <ele>71.1</ele>
        <time>2022-11-30T14:43:52Z</time>
      </trkpt>
      <trkpt lat="50.03655" lon="2.26782">
        <ele>71.1</ele>
        <time>2022-11-30T14:43:53Z</time>
      </trkpt>
      <trkpt lat="50.03655" lon="2.26782">
        <ele>71.1</ele>
        <time>2022-11-30T14:43:54Z</time>
      </trkpt>
      <trkpt lat="50.03655" lon="2.26782">
        <ele>71.1</ele>
        <time>2022-11-30T14:43:55Z</time>
      </trkpt>
      <trkpt lat="50.03655" lon="2.26782">
        <ele>71.1</ele>
        <time>2022-11-30T14:43:56Z</time>
      </trkpt>
      <trkpt lat="50.03656" lon="2.26782">
        <ele>71.1</ele>
        <time>2022-11-30T14:43:57Z</time>
      </trkpt>
      <trkpt lat="50.03656" lon="2.26782">
        <ele>71.1</ele>
        <time>2022-11-30T14:43:58Z</time>
      </trkpt>
      <trkpt lat="50.03656" lon="2.26782">
        <ele>71.1</ele>
        <time>2022-11-30T14:43:59Z</time>
      </trkpt>
      <trkpt lat="50.03656" lon="2.26782">
        <ele>71.1</ele>
        <time>2022-11-30T14:44:00Z</time>
      </trkpt>
      <trkpt lat="50.03656" lon="2.26782">
        <ele>71.1</ele>
        <time>2022-11-30T14:44:01Z</time>
      </trkpt>
      <trkpt lat="50.03656" lon="2.26781">
        <ele>71.1</ele>
        <time>2022-11-30T14:44:02Z</time>
      </trkpt>
      <trkpt lat="50.03656" lon="2.26781">
        <ele>71.1</ele>
        <time>2022-11-30T14:44:03Z</time>
      </trkpt>
      <trkpt lat="50.03656" lon="2.26781">
        <ele>71.1</ele>
        <time>2022-11-30T14:44:04Z</time>
      </trkpt>
      <trkpt lat="50.03656" lon="2.26781">
        <ele>71.1</ele>
        <time>2022-11-30T14:44:05Z</time>
      </trkpt>
      <trkpt lat="50.03656" lon="2.26781">
        <ele>71.1</ele>
        <time>2022-11-30T14:44:06Z</time>
      </trkpt>
      <trkpt lat="50.03656" lon="2.26781">
        <ele>71.1</ele>
        <time>2022-11-30T14:44:07Z</time>
      </trkpt>
      <trkpt lat="50.03656" lon="2.26781">
        <ele>71.1</ele>
        <time>2022-11-30T14:44:08Z</time>
      </trkpt>
      <trkpt lat="50.03656" lon="2.26781">
        <ele>71.1</ele>
        <time>2022-11-30T14:44:09Z</time>
      </trkpt>
      <trkpt lat="50.03656" lon="2.26781">
        <ele>71.1</ele>
        <time>2022-11-30T14:44:10Z</time>
      </trkpt>
      <trkpt lat="50.03656" lon="2.26781">
        <ele>71.1</ele>
        <time>2022-11-30T14:44:11Z</time>
      </trkpt>
      <trkpt lat="50.03656" lon="2.26781">
        <ele>71.1</ele>
        <time>2022-11-30T14:44:12Z</time>
      </trkpt>
      <trkpt lat="50.03657" lon="2.26781">
        <ele>71.1</ele>
        <time>2022-11-30T14:44:13Z</time>
      </trkpt>
      <trkpt lat="50.03657" lon="2.26781">
        <ele>71.1</ele>
        <time>2022-11-30T14:44:14Z</time>
      </trkpt>
      <trkpt lat="50.03657" lon="2.2678">
        <ele>71.1</ele>
        <time>2022-11-30T14:44:15Z</time>
      </trkpt>
      <trkpt lat="50.03657" lon="2.2678">
        <ele>71.1</ele>
        <time>2022-11-30T14:44:16Z</time>
      </trkpt>
      <trkpt lat="50.03657" lon="2.2678">
        <ele>71.1</ele>
        <time>2022-11-30T14:44:17Z</time>
      </trkpt>
      <trkpt lat="50.03657" lon="2.2678">
        <ele>71.1</ele>
        <time>2022-11-30T14:44:18Z</time>
      </trkpt>
      <trkpt lat="50.03657" lon="2.2678">
        <ele>71.1</ele>
        <time>2022-11-30T14:44:19Z</time>
      </trkpt>
      <trkpt lat="50.03657" lon="2.2678">
        <ele>71.1</ele>
        <time>2022-11-30T14:44:20Z</time>
      </trkpt>
      <trkpt lat="50.03657" lon="2.2678">
        <ele>71.1</ele>
        <time>2022-11-30T14:44:21Z</time>
      </trkpt>
      <trkpt lat="50.03657" lon="2.2678">
        <ele>71.1</ele>
        <time>2022-11-30T14:44:22Z</time>
      </trkpt>
      <trkpt lat="50.03657" lon="2.2678">
        <ele>71.1</ele>
        <time>2022-11-30T14:44:23Z</time>
      </trkpt>
      <trkpt lat="50.03657" lon="2.2678">
        <ele>71.1</ele>
        <time>2022-11-30T14:44:24Z</time>
      </trkpt>
      <trkpt lat="50.03657" lon="2.2678">
        <ele>71.1</ele>
        <time>2022-11-30T14:44:25Z</time>
      </trkpt>
      <trkpt lat="50.03657" lon="2.2678">
        <ele>71.1</ele>
        <time>2022-11-30T14:44:26Z</time>
      </trkpt>
      <trkpt lat="50.03657" lon="2.26779">
        <ele>71.1</ele>
        <time>2022-11-30T14:44:27Z</time>
      </trkpt>
      <trkpt lat="50.03658" lon="2.26779">
        <ele>71.1</ele>
        <time>2022-11-30T14:44:28Z</time>
      </trkpt>
      <trkpt lat="50.03658" lon="2.26779">
        <ele>71.1</ele>
        <time>2022-11-30T14:44:29Z</time>
      </trkpt>
      <trkpt lat="50.03658" lon="2.26779">
        <ele>71.1</ele>
        <time>2022-11-30T14:44:30Z</time>
      </trkpt>
      <trkpt lat="50.03659" lon="2.26778">
        <ele>71.1</ele>
        <time>2022-11-30T14:44:31Z</time>
      </trkpt>
      <trkpt lat="50.0366" lon="2.26777">
        <ele>71.1</ele>
        <time>2022-11-30T14:44:32Z</time>
      </trkpt>
      <trkpt lat="50.0366" lon="2.26776">
        <ele>71.1</ele>
        <time>2022-11-30T14:44:33Z</time>
      </trkpt>
      <trkpt lat="50.0366" lon="2.26776">
        <ele>71.1</ele>
        <time>2022-11-30T14:44:34Z</time>
      </trkpt>
      <trkpt lat="50.0366" lon="2.26775">
        <ele>71.1</ele>
        <time>2022-11-30T14:44:35Z</time>
      </trkpt>
      <trkpt lat="50.0366" lon="2.26775">
        <ele>71.1</ele>
        <time>2022-11-30T14:44:36Z</time>
      </trkpt>
      <trkpt lat="50.0366" lon="2.26776">
        <ele>71.1</ele>
        <time>2022-11-30T14:44:37Z</time>
      </trkpt>
      <trkpt lat="50.0366" lon="2.26776">
        <ele>71.1</ele>
        <time>2022-11-30T14:44:38Z</time>
      </trkpt>
      <trkpt lat="50.0366" lon="2.26776">
        <ele>71.1</ele>
        <time>2022-11-30T14:44:39Z</time>
      </trkpt>
      <trkpt lat="50.0366" lon="2.26776">
        <ele>71.1</ele>
        <time>2022-11-30T14:44:40Z</time>
      </trkpt>
      <trkpt lat="50.0366" lon="2.26776">
        <ele>71.1</ele>
        <time>2022-11-30T14:44:41Z</time>
      </trkpt>
      <trkpt lat="50.0366" lon="2.26776">
        <ele>71.1</ele>
        <time>2022-11-30T14:44:42Z</time>
      </trkpt>
      <trkpt lat="50.0366" lon="2.26776">
        <ele>71.1</ele>
        <time>2022-11-30T14:44:43Z</time>
      </trkpt>
      <trkpt lat="50.0366" lon="2.26776">
        <ele>71.1</ele>
        <time>2022-11-30T14:44:44Z</time>
      </trkpt>
      <trkpt lat="50.0366" lon="2.26776">
        <ele>71.1</ele>
        <time>2022-11-30T14:44:45Z</time>
      </trkpt>
      <trkpt lat="50.0366" lon="2.26776">
        <ele>71.1</ele>
        <time>2022-11-30T14:44:46Z</time>
      </trkpt>
      <trkpt lat="50.0366" lon="2.26776">
        <ele>71.1</ele>
        <time>2022-11-30T14:44:47Z</time>
      </trkpt>
      <trkpt lat="50.0366" lon="2.26776">
        <ele>71.1</ele>
        <time>2022-11-30T14:44:48Z</time>
      </trkpt>
      <trkpt lat="50.0366" lon="2.26776">
        <ele>71.1</ele>
        <time>2022-11-30T14:44:49Z</time>
      </trkpt>
      <trkpt lat="50.0366" lon="2.26776">
        <ele>71.1</ele>
        <time>2022-11-30T14:44:50Z</time>
      </trkpt>
      <trkpt lat="50.0366" lon="2.26776">
        <ele>71.1</ele>
        <time>2022-11-30T14:44:51Z</time>
      </trkpt>
      <trkpt lat="50.0366" lon="2.26776">
        <ele>71.1</ele>
        <time>2022-11-30T14:44:52Z</time>
      </trkpt>
      <trkpt lat="50.0366" lon="2.26776">
        <ele>71.1</ele>
        <time>2022-11-30T14:44:53Z</time>
      </trkpt>
      <trkpt lat="50.0366" lon="2.26776">
        <ele>71.1</ele>
        <time>2022-11-30T14:44:54Z</time>
      </trkpt>
      <trkpt lat="50.0366" lon="2.26776">
        <ele>71.1</ele>
        <time>2022-11-30T14:44:55Z</time>
      </trkpt>
      <trkpt lat="50.0366" lon="2.26776">
        <ele>71.1</ele>
        <time>2022-11-30T14:44:56Z</time>
      </trkpt>
    </trkseg>
  </trk>
</gpx>